<?xml version="1.0" encoding="UTF-8" standalone="no" ?>
<gpx xmlns="http://www.topografix.com/GPX/1/1" xmlns:xsi="http://www.w3.org/2001/XMLSchema-instance" xsi:schemaLocation="http://www.topografix.com/GPX/1/1 http://www.topografix.com/GPX/1/1/gpx.xsd" version="1.1" creator="VisuGPX - https://www.visugpx.com">
  <metadata>
    <name>Fabas(82) - Mazamet - Manosque Thorame</name>
    <desc><![CDATA[Fabas(82) - Mazamet - Manosque Thorame
Projet 2021]]></desc>
  </metadata>
  <trk>
    <name><![CDATA[13442446-Fabas(82) - Mazamet - Manosque Thoram]]></name>
    <trkseg>
      <trkpt lat="43.86104" lon="1.34321">
        <ele>143</ele>
        <time>2021-07-24T15:26:22Z</time>
      </trkpt>
      <trkpt lat="43.86045" lon="1.34333">
        <ele>145</ele>
        <time>2021-07-24T15:26:33Z</time>
      </trkpt>
      <trkpt lat="43.86026" lon="1.34341">
        <ele>146</ele>
        <time>2021-07-24T15:26:36Z</time>
      </trkpt>
      <trkpt lat="43.8603" lon="1.34362">
        <ele>145</ele>
        <time>2021-07-24T15:26:39Z</time>
      </trkpt>
      <trkpt lat="43.86064" lon="1.34464">
        <ele>139</ele>
        <time>2021-07-24T15:26:53Z</time>
      </trkpt>
      <trkpt lat="43.86111" lon="1.3468">
        <ele>130</ele>
        <time>2021-07-24T15:27:22Z</time>
      </trkpt>
      <trkpt lat="43.86124" lon="1.34774">
        <ele>129</ele>
        <time>2021-07-24T15:27:35Z</time>
      </trkpt>
      <trkpt lat="43.86126" lon="1.3479">
        <ele>128</ele>
        <time>2021-07-24T15:27:37Z</time>
      </trkpt>
      <trkpt lat="43.86138" lon="1.34888">
        <ele>132</ele>
        <time>2021-07-24T15:27:49Z</time>
      </trkpt>
      <trkpt lat="43.86144" lon="1.34924">
        <ele>135</ele>
        <time>2021-07-24T15:27:54Z</time>
      </trkpt>
      <trkpt lat="43.86149" lon="1.34936">
        <ele>136</ele>
        <time>2021-07-24T15:27:56Z</time>
      </trkpt>
      <trkpt lat="43.8616" lon="1.34944">
        <ele>137</ele>
        <time>2021-07-24T15:27:58Z</time>
      </trkpt>
      <trkpt lat="43.86169" lon="1.34945">
        <ele>137</ele>
        <time>2021-07-24T15:28:00Z</time>
      </trkpt>
      <trkpt lat="43.86197" lon="1.34938">
        <ele>136</ele>
        <time>2021-07-24T15:28:05Z</time>
      </trkpt>
      <trkpt lat="43.86202" lon="1.3494">
        <ele>137</ele>
        <time>2021-07-24T15:28:06Z</time>
      </trkpt>
      <trkpt lat="43.86205" lon="1.34943">
        <ele>137</ele>
        <time>2021-07-24T15:28:06Z</time>
      </trkpt>
      <trkpt lat="43.86206" lon="1.34947">
        <ele>138</ele>
        <time>2021-07-24T15:28:07Z</time>
      </trkpt>
      <trkpt lat="43.86203" lon="1.34956">
        <ele>139</ele>
        <time>2021-07-24T15:28:08Z</time>
      </trkpt>
      <trkpt lat="43.86187" lon="1.34964">
        <ele>139</ele>
        <time>2021-07-24T15:28:11Z</time>
      </trkpt>
      <trkpt lat="43.86167" lon="1.34978">
        <ele>141</ele>
        <time>2021-07-24T15:28:15Z</time>
      </trkpt>
      <trkpt lat="43.86161" lon="1.34984">
        <ele>142</ele>
        <time>2021-07-24T15:28:17Z</time>
      </trkpt>
      <trkpt lat="43.86157" lon="1.34995">
        <ele>144</ele>
        <time>2021-07-24T15:28:18Z</time>
      </trkpt>
      <trkpt lat="43.86157" lon="1.35001">
        <ele>144</ele>
        <time>2021-07-24T15:28:19Z</time>
      </trkpt>
      <trkpt lat="43.86012" lon="1.35052">
        <ele>146</ele>
        <time>2021-07-24T15:28:45Z</time>
      </trkpt>
      <trkpt lat="43.85938" lon="1.35075">
        <ele>148</ele>
        <time>2021-07-24T15:28:59Z</time>
      </trkpt>
      <trkpt lat="43.85922" lon="1.35082">
        <ele>149</ele>
        <time>2021-07-24T15:29:02Z</time>
      </trkpt>
      <trkpt lat="43.85908" lon="1.351">
        <ele>149</ele>
        <time>2021-07-24T15:29:05Z</time>
      </trkpt>
      <trkpt lat="43.85905" lon="1.3511">
        <ele>148</ele>
        <time>2021-07-24T15:29:07Z</time>
      </trkpt>
      <trkpt lat="43.85901" lon="1.35121">
        <ele>148</ele>
        <time>2021-07-24T15:29:08Z</time>
      </trkpt>
      <trkpt lat="43.85894" lon="1.35144">
        <ele>148</ele>
        <time>2021-07-24T15:29:12Z</time>
      </trkpt>
      <trkpt lat="43.85885" lon="1.35164">
        <ele>148</ele>
        <time>2021-07-24T15:29:15Z</time>
      </trkpt>
      <trkpt lat="43.85875" lon="1.35182">
        <ele>148</ele>
        <time>2021-07-24T15:29:17Z</time>
      </trkpt>
      <trkpt lat="43.85854" lon="1.3522">
        <ele>148</ele>
        <time>2021-07-24T15:29:24Z</time>
      </trkpt>
      <trkpt lat="43.85838" lon="1.35264">
        <ele>148</ele>
        <time>2021-07-24T15:29:30Z</time>
      </trkpt>
      <trkpt lat="43.85812" lon="1.35349">
        <ele>147</ele>
        <time>2021-07-24T15:29:42Z</time>
      </trkpt>
      <trkpt lat="43.85807" lon="1.35363">
        <ele>147</ele>
        <time>2021-07-24T15:29:44Z</time>
      </trkpt>
      <trkpt lat="43.85797" lon="1.35387">
        <ele>147</ele>
        <time>2021-07-24T15:29:47Z</time>
      </trkpt>
      <trkpt lat="43.85752" lon="1.35485">
        <ele>147</ele>
        <time>2021-07-24T15:30:02Z</time>
      </trkpt>
      <trkpt lat="43.85716" lon="1.35572">
        <ele>148</ele>
        <time>2021-07-24T15:30:15Z</time>
      </trkpt>
      <trkpt lat="43.85634" lon="1.35751">
        <ele>148</ele>
        <time>2021-07-24T15:30:42Z</time>
      </trkpt>
      <trkpt lat="43.85621" lon="1.35781">
        <ele>147</ele>
        <time>2021-07-24T15:30:47Z</time>
      </trkpt>
      <trkpt lat="43.85584" lon="1.35885">
        <ele>149</ele>
        <time>2021-07-24T15:31:02Z</time>
      </trkpt>
      <trkpt lat="43.85571" lon="1.35913">
        <ele>149</ele>
        <time>2021-07-24T15:31:06Z</time>
      </trkpt>
      <trkpt lat="43.85555" lon="1.35938">
        <ele>149</ele>
        <time>2021-07-24T15:31:10Z</time>
      </trkpt>
      <trkpt lat="43.85495" lon="1.36014">
        <ele>148</ele>
        <time>2021-07-24T15:31:25Z</time>
      </trkpt>
      <trkpt lat="43.8546" lon="1.3607">
        <ele>148</ele>
        <time>2021-07-24T15:31:34Z</time>
      </trkpt>
      <trkpt lat="43.85447" lon="1.36094">
        <ele>149</ele>
        <time>2021-07-24T15:31:38Z</time>
      </trkpt>
      <trkpt lat="43.85428" lon="1.36131">
        <ele>149</ele>
        <time>2021-07-24T15:31:44Z</time>
      </trkpt>
      <trkpt lat="43.85398" lon="1.36197">
        <ele>149</ele>
        <time>2021-07-24T15:31:54Z</time>
      </trkpt>
      <trkpt lat="43.85369" lon="1.36244">
        <ele>150</ele>
        <time>2021-07-24T15:32:02Z</time>
      </trkpt>
      <trkpt lat="43.85292" lon="1.36357">
        <ele>150</ele>
        <time>2021-07-24T15:32:22Z</time>
      </trkpt>
      <trkpt lat="43.85229" lon="1.36439">
        <ele>150</ele>
        <time>2021-07-24T15:32:37Z</time>
      </trkpt>
      <trkpt lat="43.85191" lon="1.36482">
        <ele>150</ele>
        <time>2021-07-24T15:32:46Z</time>
      </trkpt>
      <trkpt lat="43.85157" lon="1.36515">
        <ele>150</ele>
        <time>2021-07-24T15:32:53Z</time>
      </trkpt>
      <trkpt lat="43.85124" lon="1.36541">
        <ele>150</ele>
        <time>2021-07-24T15:33:00Z</time>
      </trkpt>
      <trkpt lat="43.85087" lon="1.36565">
        <ele>149</ele>
        <time>2021-07-24T15:33:07Z</time>
      </trkpt>
      <trkpt lat="43.85032" lon="1.36613">
        <ele>149</ele>
        <time>2021-07-24T15:33:19Z</time>
      </trkpt>
      <trkpt lat="43.84977" lon="1.36651">
        <ele>150</ele>
        <time>2021-07-24T15:33:30Z</time>
      </trkpt>
      <trkpt lat="43.84953" lon="1.36675">
        <ele>149</ele>
        <time>2021-07-24T15:33:35Z</time>
      </trkpt>
      <trkpt lat="43.84933" lon="1.36698">
        <ele>149</ele>
        <time>2021-07-24T15:33:40Z</time>
      </trkpt>
      <trkpt lat="43.84889" lon="1.36783">
        <ele>149</ele>
        <time>2021-07-24T15:33:53Z</time>
      </trkpt>
      <trkpt lat="43.8483" lon="1.36938">
        <ele>149</ele>
        <time>2021-07-24T15:34:16Z</time>
      </trkpt>
      <trkpt lat="43.84702" lon="1.37293">
        <ele>148</ele>
        <time>2021-07-24T15:35:07Z</time>
      </trkpt>
      <trkpt lat="43.84678" lon="1.37345">
        <ele>149</ele>
        <time>2021-07-24T15:35:14Z</time>
      </trkpt>
      <trkpt lat="43.84675" lon="1.3735">
        <ele>149</ele>
        <time>2021-07-24T15:35:15Z</time>
      </trkpt>
      <trkpt lat="43.84672" lon="1.37357">
        <ele>149</ele>
        <time>2021-07-24T15:35:16Z</time>
      </trkpt>
      <trkpt lat="43.84624" lon="1.37488">
        <ele>151</ele>
        <time>2021-07-24T15:35:35Z</time>
      </trkpt>
      <trkpt lat="43.84608" lon="1.3753">
        <ele>152</ele>
        <time>2021-07-24T15:35:41Z</time>
      </trkpt>
      <trkpt lat="43.8459" lon="1.37604">
        <ele>153</ele>
        <time>2021-07-24T15:35:51Z</time>
      </trkpt>
      <trkpt lat="43.84575" lon="1.37678">
        <ele>153</ele>
        <time>2021-07-24T15:36:01Z</time>
      </trkpt>
      <trkpt lat="43.84563" lon="1.37713">
        <ele>152</ele>
        <time>2021-07-24T15:36:06Z</time>
      </trkpt>
      <trkpt lat="43.84549" lon="1.37742">
        <ele>151</ele>
        <time>2021-07-24T15:36:11Z</time>
      </trkpt>
      <trkpt lat="43.84522" lon="1.37786">
        <ele>151</ele>
        <time>2021-07-24T15:36:18Z</time>
      </trkpt>
      <trkpt lat="43.84492" lon="1.37827">
        <ele>150</ele>
        <time>2021-07-24T15:36:26Z</time>
      </trkpt>
      <trkpt lat="43.84484" lon="1.37839">
        <ele>150</ele>
        <time>2021-07-24T15:36:28Z</time>
      </trkpt>
      <trkpt lat="43.84459" lon="1.37863">
        <ele>150</ele>
        <time>2021-07-24T15:36:33Z</time>
      </trkpt>
      <trkpt lat="43.84449" lon="1.37875">
        <ele>150</ele>
        <time>2021-07-24T15:36:35Z</time>
      </trkpt>
      <trkpt lat="43.84405" lon="1.37941">
        <ele>150</ele>
        <time>2021-07-24T15:36:47Z</time>
      </trkpt>
      <trkpt lat="43.84382" lon="1.3797">
        <ele>150</ele>
        <time>2021-07-24T15:36:52Z</time>
      </trkpt>
      <trkpt lat="43.84345" lon="1.38005">
        <ele>149</ele>
        <time>2021-07-24T15:37:00Z</time>
      </trkpt>
      <trkpt lat="43.84329" lon="1.38026">
        <ele>148</ele>
        <time>2021-07-24T15:37:04Z</time>
      </trkpt>
      <trkpt lat="43.84312" lon="1.38063">
        <ele>146</ele>
        <time>2021-07-24T15:37:10Z</time>
      </trkpt>
      <trkpt lat="43.84298" lon="1.3811">
        <ele>145</ele>
        <time>2021-07-24T15:37:17Z</time>
      </trkpt>
      <trkpt lat="43.8424" lon="1.38344">
        <ele>137</ele>
        <time>2021-07-24T15:37:48Z</time>
      </trkpt>
      <trkpt lat="43.84216" lon="1.38437">
        <ele>135</ele>
        <time>2021-07-24T15:38:01Z</time>
      </trkpt>
      <trkpt lat="43.84176" lon="1.38545">
        <ele>133</ele>
        <time>2021-07-24T15:38:17Z</time>
      </trkpt>
      <trkpt lat="43.84155" lon="1.38525">
        <ele>133</ele>
        <time>2021-07-24T15:38:21Z</time>
      </trkpt>
      <trkpt lat="43.84146" lon="1.38508">
        <ele>133</ele>
        <time>2021-07-24T15:38:24Z</time>
      </trkpt>
      <trkpt lat="43.84137" lon="1.38505">
        <ele>133</ele>
        <time>2021-07-24T15:38:25Z</time>
      </trkpt>
      <trkpt lat="43.84128" lon="1.38508">
        <ele>133</ele>
        <time>2021-07-24T15:38:27Z</time>
      </trkpt>
      <trkpt lat="43.84125" lon="1.38521">
        <ele>133</ele>
        <time>2021-07-24T15:38:29Z</time>
      </trkpt>
      <trkpt lat="43.84117" lon="1.38552">
        <ele>133</ele>
        <time>2021-07-24T15:38:33Z</time>
      </trkpt>
      <trkpt lat="43.84111" lon="1.38575">
        <ele>133</ele>
        <time>2021-07-24T15:38:36Z</time>
      </trkpt>
      <trkpt lat="43.84089" lon="1.38663">
        <ele>138</ele>
        <time>2021-07-24T15:38:48Z</time>
      </trkpt>
      <trkpt lat="43.84059" lon="1.38763">
        <ele>146</ele>
        <time>2021-07-24T15:39:02Z</time>
      </trkpt>
      <trkpt lat="43.84054" lon="1.38784">
        <ele>148</ele>
        <time>2021-07-24T15:39:05Z</time>
      </trkpt>
      <trkpt lat="43.84049" lon="1.38818">
        <ele>150</ele>
        <time>2021-07-24T15:39:09Z</time>
      </trkpt>
      <trkpt lat="43.84045" lon="1.38825">
        <ele>150</ele>
        <time>2021-07-24T15:39:10Z</time>
      </trkpt>
      <trkpt lat="43.84033" lon="1.38843">
        <ele>150</ele>
        <time>2021-07-24T15:39:14Z</time>
      </trkpt>
      <trkpt lat="43.84028" lon="1.38838">
        <ele>150</ele>
        <time>2021-07-24T15:39:15Z</time>
      </trkpt>
      <trkpt lat="43.84022" lon="1.38838">
        <ele>150</ele>
        <time>2021-07-24T15:39:16Z</time>
      </trkpt>
      <trkpt lat="43.8402" lon="1.38841">
        <ele>150</ele>
        <time>2021-07-24T15:39:16Z</time>
      </trkpt>
      <trkpt lat="43.84018" lon="1.38849">
        <ele>150</ele>
        <time>2021-07-24T15:39:17Z</time>
      </trkpt>
      <trkpt lat="43.84021" lon="1.38856">
        <ele>151</ele>
        <time>2021-07-24T15:39:18Z</time>
      </trkpt>
      <trkpt lat="43.84024" lon="1.38858">
        <ele>151</ele>
        <time>2021-07-24T15:39:19Z</time>
      </trkpt>
      <trkpt lat="43.83969" lon="1.39005">
        <ele>153</ele>
        <time>2021-07-24T15:39:40Z</time>
      </trkpt>
      <trkpt lat="43.83899" lon="1.39168">
        <ele>152</ele>
        <time>2021-07-24T15:40:05Z</time>
      </trkpt>
      <trkpt lat="43.83889" lon="1.39194">
        <ele>151</ele>
        <time>2021-07-24T15:40:08Z</time>
      </trkpt>
      <trkpt lat="43.83871" lon="1.39257">
        <ele>151</ele>
        <time>2021-07-24T15:40:17Z</time>
      </trkpt>
      <trkpt lat="43.83861" lon="1.39289">
        <ele>150</ele>
        <time>2021-07-24T15:40:22Z</time>
      </trkpt>
      <trkpt lat="43.83853" lon="1.3931">
        <ele>150</ele>
        <time>2021-07-24T15:40:25Z</time>
      </trkpt>
      <trkpt lat="43.83841" lon="1.39331">
        <ele>149</ele>
        <time>2021-07-24T15:40:28Z</time>
      </trkpt>
      <trkpt lat="43.8381" lon="1.39375">
        <ele>149</ele>
        <time>2021-07-24T15:40:36Z</time>
      </trkpt>
      <trkpt lat="43.83767" lon="1.39426">
        <ele>150</ele>
        <time>2021-07-24T15:40:46Z</time>
      </trkpt>
      <trkpt lat="43.83705" lon="1.39489">
        <ele>152</ele>
        <time>2021-07-24T15:41:00Z</time>
      </trkpt>
      <trkpt lat="43.83622" lon="1.39566">
        <ele>152</ele>
        <time>2021-07-24T15:41:17Z</time>
      </trkpt>
      <trkpt lat="43.8361" lon="1.39569">
        <ele>152</ele>
        <time>2021-07-24T15:41:20Z</time>
      </trkpt>
      <trkpt lat="43.83604" lon="1.39568">
        <ele>152</ele>
        <time>2021-07-24T15:41:21Z</time>
      </trkpt>
      <trkpt lat="43.83598" lon="1.39572">
        <ele>152</ele>
        <time>2021-07-24T15:41:22Z</time>
      </trkpt>
      <trkpt lat="43.83596" lon="1.39582">
        <ele>151</ele>
        <time>2021-07-24T15:41:23Z</time>
      </trkpt>
      <trkpt lat="43.8359" lon="1.39596">
        <ele>151</ele>
        <time>2021-07-24T15:41:25Z</time>
      </trkpt>
      <trkpt lat="43.83548" lon="1.39635">
        <ele>151</ele>
        <time>2021-07-24T15:41:34Z</time>
      </trkpt>
      <trkpt lat="43.83525" lon="1.39661">
        <ele>152</ele>
        <time>2021-07-24T15:41:40Z</time>
      </trkpt>
      <trkpt lat="43.83512" lon="1.39678">
        <ele>152</ele>
        <time>2021-07-24T15:41:43Z</time>
      </trkpt>
      <trkpt lat="43.83496" lon="1.39708">
        <ele>153</ele>
        <time>2021-07-24T15:41:48Z</time>
      </trkpt>
      <trkpt lat="43.8348" lon="1.39756">
        <ele>152</ele>
        <time>2021-07-24T15:41:54Z</time>
      </trkpt>
      <trkpt lat="43.83471" lon="1.39786">
        <ele>152</ele>
        <time>2021-07-24T15:41:59Z</time>
      </trkpt>
      <trkpt lat="43.83466" lon="1.39821">
        <ele>152</ele>
        <time>2021-07-24T15:42:03Z</time>
      </trkpt>
      <trkpt lat="43.83456" lon="1.40016">
        <ele>151</ele>
        <time>2021-07-24T15:42:28Z</time>
      </trkpt>
      <trkpt lat="43.83446" lon="1.40148">
        <ele>150</ele>
        <time>2021-07-24T15:42:45Z</time>
      </trkpt>
      <trkpt lat="43.834" lon="1.40327">
        <ele>150</ele>
        <time>2021-07-24T15:43:10Z</time>
      </trkpt>
      <trkpt lat="43.83397" lon="1.40357">
        <ele>150</ele>
        <time>2021-07-24T15:43:14Z</time>
      </trkpt>
      <trkpt lat="43.83396" lon="1.40379">
        <ele>150</ele>
        <time>2021-07-24T15:43:16Z</time>
      </trkpt>
      <trkpt lat="43.83398" lon="1.40406">
        <ele>150</ele>
        <time>2021-07-24T15:43:20Z</time>
      </trkpt>
      <trkpt lat="43.83413" lon="1.40533">
        <ele>149</ele>
        <time>2021-07-24T15:43:36Z</time>
      </trkpt>
      <trkpt lat="43.83415" lon="1.40566">
        <ele>149</ele>
        <time>2021-07-24T15:43:41Z</time>
      </trkpt>
      <trkpt lat="43.83414" lon="1.4058">
        <ele>149</ele>
        <time>2021-07-24T15:43:42Z</time>
      </trkpt>
      <trkpt lat="43.83406" lon="1.40608">
        <ele>149</ele>
        <time>2021-07-24T15:43:46Z</time>
      </trkpt>
      <trkpt lat="43.83375" lon="1.40673">
        <ele>149</ele>
        <time>2021-07-24T15:43:56Z</time>
      </trkpt>
      <trkpt lat="43.83352" lon="1.40731">
        <ele>149</ele>
        <time>2021-07-24T15:44:05Z</time>
      </trkpt>
      <trkpt lat="43.83312" lon="1.40841">
        <ele>149</ele>
        <time>2021-07-24T15:44:21Z</time>
      </trkpt>
      <trkpt lat="43.83304" lon="1.40861">
        <ele>149</ele>
        <time>2021-07-24T15:44:23Z</time>
      </trkpt>
      <trkpt lat="43.83294" lon="1.4088">
        <ele>150</ele>
        <time>2021-07-24T15:44:27Z</time>
      </trkpt>
      <trkpt lat="43.83263" lon="1.40925">
        <ele>150</ele>
        <time>2021-07-24T15:44:35Z</time>
      </trkpt>
      <trkpt lat="43.83248" lon="1.40951">
        <ele>150</ele>
        <time>2021-07-24T15:44:39Z</time>
      </trkpt>
      <trkpt lat="43.83236" lon="1.40989">
        <ele>150</ele>
        <time>2021-07-24T15:44:44Z</time>
      </trkpt>
      <trkpt lat="43.83204" lon="1.41167">
        <ele>152</ele>
        <time>2021-07-24T15:45:08Z</time>
      </trkpt>
      <trkpt lat="43.83195" lon="1.41236">
        <ele>153</ele>
        <time>2021-07-24T15:45:17Z</time>
      </trkpt>
      <trkpt lat="43.83189" lon="1.41294">
        <ele>153</ele>
        <time>2021-07-24T15:45:24Z</time>
      </trkpt>
      <trkpt lat="43.83181" lon="1.41335">
        <ele>152</ele>
        <time>2021-07-24T15:45:30Z</time>
      </trkpt>
      <trkpt lat="43.83156" lon="1.41415">
        <ele>151</ele>
        <time>2021-07-24T15:45:41Z</time>
      </trkpt>
      <trkpt lat="43.83136" lon="1.41465">
        <ele>151</ele>
        <time>2021-07-24T15:45:48Z</time>
      </trkpt>
      <trkpt lat="43.83123" lon="1.41489">
        <ele>151</ele>
        <time>2021-07-24T15:45:52Z</time>
      </trkpt>
      <trkpt lat="43.83109" lon="1.41508">
        <ele>151</ele>
        <time>2021-07-24T15:45:55Z</time>
      </trkpt>
      <trkpt lat="43.83006" lon="1.41611">
        <ele>151</ele>
        <time>2021-07-24T15:46:18Z</time>
      </trkpt>
      <trkpt lat="43.82988" lon="1.41631">
        <ele>151</ele>
        <time>2021-07-24T15:46:22Z</time>
      </trkpt>
      <trkpt lat="43.8298" lon="1.41643">
        <ele>151</ele>
        <time>2021-07-24T15:46:24Z</time>
      </trkpt>
      <trkpt lat="43.82975" lon="1.4164">
        <ele>151</ele>
        <time>2021-07-24T15:46:25Z</time>
      </trkpt>
      <trkpt lat="43.82969" lon="1.41634">
        <ele>151</ele>
        <time>2021-07-24T15:46:27Z</time>
      </trkpt>
      <trkpt lat="43.82964" lon="1.41635">
        <ele>152</ele>
        <time>2021-07-24T15:46:27Z</time>
      </trkpt>
      <trkpt lat="43.82959" lon="1.41641">
        <ele>152</ele>
        <time>2021-07-24T15:46:29Z</time>
      </trkpt>
      <trkpt lat="43.82949" lon="1.4166">
        <ele>152</ele>
        <time>2021-07-24T15:46:32Z</time>
      </trkpt>
      <trkpt lat="43.82732" lon="1.41894">
        <ele>152</ele>
        <time>2021-07-24T15:47:21Z</time>
      </trkpt>
      <trkpt lat="43.82665" lon="1.4197">
        <ele>151</ele>
        <time>2021-07-24T15:47:36Z</time>
      </trkpt>
      <trkpt lat="43.82646" lon="1.42">
        <ele>150</ele>
        <time>2021-07-24T15:47:41Z</time>
      </trkpt>
      <trkpt lat="43.82612" lon="1.42058">
        <ele>152</ele>
        <time>2021-07-24T15:47:51Z</time>
      </trkpt>
      <trkpt lat="43.8259" lon="1.42093">
        <ele>153</ele>
        <time>2021-07-24T15:47:57Z</time>
      </trkpt>
      <trkpt lat="43.82532" lon="1.42177">
        <ele>153</ele>
        <time>2021-07-24T15:48:12Z</time>
      </trkpt>
      <trkpt lat="43.82514" lon="1.42205">
        <ele>153</ele>
        <time>2021-07-24T15:48:16Z</time>
      </trkpt>
      <trkpt lat="43.82494" lon="1.42243">
        <ele>152</ele>
        <time>2021-07-24T15:48:22Z</time>
      </trkpt>
      <trkpt lat="43.82471" lon="1.42296">
        <ele>152</ele>
        <time>2021-07-24T15:48:30Z</time>
      </trkpt>
      <trkpt lat="43.82454" lon="1.42337">
        <ele>152</ele>
        <time>2021-07-24T15:48:36Z</time>
      </trkpt>
      <trkpt lat="43.82446" lon="1.42363">
        <ele>152</ele>
        <time>2021-07-24T15:48:40Z</time>
      </trkpt>
      <trkpt lat="43.82439" lon="1.42392">
        <ele>151</ele>
        <time>2021-07-24T15:48:44Z</time>
      </trkpt>
      <trkpt lat="43.82435" lon="1.42425">
        <ele>151</ele>
        <time>2021-07-24T15:48:48Z</time>
      </trkpt>
      <trkpt lat="43.82428" lon="1.42511">
        <ele>151</ele>
        <time>2021-07-24T15:48:59Z</time>
      </trkpt>
      <trkpt lat="43.82423" lon="1.4254">
        <ele>151</ele>
        <time>2021-07-24T15:49:03Z</time>
      </trkpt>
      <trkpt lat="43.82414" lon="1.42577">
        <ele>151</ele>
        <time>2021-07-24T15:49:08Z</time>
      </trkpt>
      <trkpt lat="43.8237" lon="1.42731">
        <ele>141</ele>
        <time>2021-07-24T15:49:30Z</time>
      </trkpt>
      <trkpt lat="43.82346" lon="1.42796">
        <ele>139</ele>
        <time>2021-07-24T15:49:39Z</time>
      </trkpt>
      <trkpt lat="43.82314" lon="1.42863">
        <ele>135</ele>
        <time>2021-07-24T15:49:49Z</time>
      </trkpt>
      <trkpt lat="43.82306" lon="1.42875">
        <ele>134</ele>
        <time>2021-07-24T15:49:51Z</time>
      </trkpt>
      <trkpt lat="43.82299" lon="1.42879">
        <ele>134</ele>
        <time>2021-07-24T15:49:53Z</time>
      </trkpt>
      <trkpt lat="43.82271" lon="1.42868">
        <ele>133</ele>
        <time>2021-07-24T15:49:58Z</time>
      </trkpt>
      <trkpt lat="43.82239" lon="1.42865">
        <ele>132</ele>
        <time>2021-07-24T15:50:04Z</time>
      </trkpt>
      <trkpt lat="43.82222" lon="1.42867">
        <ele>133</ele>
        <time>2021-07-24T15:50:07Z</time>
      </trkpt>
      <trkpt lat="43.82198" lon="1.42876">
        <ele>134</ele>
        <time>2021-07-24T15:50:11Z</time>
      </trkpt>
      <trkpt lat="43.82174" lon="1.42899">
        <ele>135</ele>
        <time>2021-07-24T15:50:16Z</time>
      </trkpt>
      <trkpt lat="43.82157" lon="1.42922">
        <ele>136</ele>
        <time>2021-07-24T15:50:20Z</time>
      </trkpt>
      <trkpt lat="43.82149" lon="1.4294">
        <ele>137</ele>
        <time>2021-07-24T15:50:23Z</time>
      </trkpt>
      <trkpt lat="43.82112" lon="1.43055">
        <ele>144</ele>
        <time>2021-07-24T15:50:39Z</time>
      </trkpt>
      <trkpt lat="43.82072" lon="1.43148">
        <ele>147</ele>
        <time>2021-07-24T15:50:53Z</time>
      </trkpt>
      <trkpt lat="43.82054" lon="1.43182">
        <ele>147</ele>
        <time>2021-07-24T15:50:59Z</time>
      </trkpt>
      <trkpt lat="43.82029" lon="1.43213">
        <ele>148</ele>
        <time>2021-07-24T15:51:05Z</time>
      </trkpt>
      <trkpt lat="43.82001" lon="1.4324">
        <ele>149</ele>
        <time>2021-07-24T15:51:11Z</time>
      </trkpt>
      <trkpt lat="43.81968" lon="1.43265">
        <ele>149</ele>
        <time>2021-07-24T15:51:17Z</time>
      </trkpt>
      <trkpt lat="43.81916" lon="1.43291">
        <ele>151</ele>
        <time>2021-07-24T15:51:27Z</time>
      </trkpt>
      <trkpt lat="43.81877" lon="1.43303">
        <ele>151</ele>
        <time>2021-07-24T15:51:34Z</time>
      </trkpt>
      <trkpt lat="43.8185" lon="1.43317">
        <ele>151</ele>
        <time>2021-07-24T15:51:39Z</time>
      </trkpt>
      <trkpt lat="43.81814" lon="1.43339">
        <ele>152</ele>
        <time>2021-07-24T15:51:46Z</time>
      </trkpt>
      <trkpt lat="43.81731" lon="1.43372">
        <ele>152</ele>
        <time>2021-07-24T15:52:02Z</time>
      </trkpt>
      <trkpt lat="43.81683" lon="1.43395">
        <ele>153</ele>
        <time>2021-07-24T15:52:11Z</time>
      </trkpt>
      <trkpt lat="43.81623" lon="1.4343">
        <ele>154</ele>
        <time>2021-07-24T15:52:22Z</time>
      </trkpt>
      <trkpt lat="43.81569" lon="1.43458">
        <ele>154</ele>
        <time>2021-07-24T15:52:33Z</time>
      </trkpt>
      <trkpt lat="43.81501" lon="1.43486">
        <ele>156</ele>
        <time>2021-07-24T15:52:45Z</time>
      </trkpt>
      <trkpt lat="43.81477" lon="1.43489">
        <ele>155</ele>
        <time>2021-07-24T15:52:50Z</time>
      </trkpt>
      <trkpt lat="43.81413" lon="1.43487">
        <ele>155</ele>
        <time>2021-07-24T15:53:01Z</time>
      </trkpt>
      <trkpt lat="43.81396" lon="1.43488">
        <ele>155</ele>
        <time>2021-07-24T15:53:04Z</time>
      </trkpt>
      <trkpt lat="43.81376" lon="1.4349">
        <ele>154</ele>
        <time>2021-07-24T15:53:08Z</time>
      </trkpt>
      <trkpt lat="43.81316" lon="1.43504">
        <ele>154</ele>
        <time>2021-07-24T15:53:18Z</time>
      </trkpt>
      <trkpt lat="43.81295" lon="1.43507">
        <ele>154</ele>
        <time>2021-07-24T15:53:22Z</time>
      </trkpt>
      <trkpt lat="43.81208" lon="1.43508">
        <ele>153</ele>
        <time>2021-07-24T15:53:38Z</time>
      </trkpt>
      <trkpt lat="43.81137" lon="1.43512">
        <ele>153</ele>
        <time>2021-07-24T15:53:50Z</time>
      </trkpt>
      <trkpt lat="43.81107" lon="1.43522">
        <ele>153</ele>
        <time>2021-07-24T15:53:56Z</time>
      </trkpt>
      <trkpt lat="43.81061" lon="1.4354">
        <ele>154</ele>
        <time>2021-07-24T15:54:04Z</time>
      </trkpt>
      <trkpt lat="43.80976" lon="1.43576">
        <ele>156</ele>
        <time>2021-07-24T15:54:20Z</time>
      </trkpt>
      <trkpt lat="43.80884" lon="1.43626">
        <ele>154</ele>
        <time>2021-07-24T15:54:38Z</time>
      </trkpt>
      <trkpt lat="43.80785" lon="1.43668">
        <ele>155</ele>
        <time>2021-07-24T15:54:56Z</time>
      </trkpt>
      <trkpt lat="43.80761" lon="1.43682">
        <ele>155</ele>
        <time>2021-07-24T15:55:01Z</time>
      </trkpt>
      <trkpt lat="43.80718" lon="1.43716">
        <ele>156</ele>
        <time>2021-07-24T15:55:10Z</time>
      </trkpt>
      <trkpt lat="43.80691" lon="1.43741">
        <ele>156</ele>
        <time>2021-07-24T15:55:15Z</time>
      </trkpt>
      <trkpt lat="43.80663" lon="1.43766">
        <ele>156</ele>
        <time>2021-07-24T15:55:21Z</time>
      </trkpt>
      <trkpt lat="43.80629" lon="1.43801">
        <ele>155</ele>
        <time>2021-07-24T15:55:29Z</time>
      </trkpt>
      <trkpt lat="43.80527" lon="1.43915">
        <ele>155</ele>
        <time>2021-07-24T15:55:52Z</time>
      </trkpt>
      <trkpt lat="43.80495" lon="1.43958">
        <ele>155</ele>
        <time>2021-07-24T15:56:00Z</time>
      </trkpt>
      <trkpt lat="43.80465" lon="1.44009">
        <ele>155</ele>
        <time>2021-07-24T15:56:08Z</time>
      </trkpt>
      <trkpt lat="43.80445" lon="1.44035">
        <ele>155</ele>
        <time>2021-07-24T15:56:13Z</time>
      </trkpt>
      <trkpt lat="43.80429" lon="1.44056">
        <ele>156</ele>
        <time>2021-07-24T15:56:17Z</time>
      </trkpt>
      <trkpt lat="43.80371" lon="1.44129">
        <ele>156</ele>
        <time>2021-07-24T15:56:31Z</time>
      </trkpt>
      <trkpt lat="43.80318" lon="1.44208">
        <ele>157</ele>
        <time>2021-07-24T15:56:45Z</time>
      </trkpt>
      <trkpt lat="43.80247" lon="1.44327">
        <ele>161</ele>
        <time>2021-07-24T15:57:05Z</time>
      </trkpt>
      <trkpt lat="43.80216" lon="1.44378">
        <ele>162</ele>
        <time>2021-07-24T15:57:13Z</time>
      </trkpt>
      <trkpt lat="43.80181" lon="1.4443">
        <ele>164</ele>
        <time>2021-07-24T15:57:23Z</time>
      </trkpt>
      <trkpt lat="43.8014" lon="1.44499">
        <ele>165</ele>
        <time>2021-07-24T15:57:34Z</time>
      </trkpt>
      <trkpt lat="43.80093" lon="1.44599">
        <ele>164</ele>
        <time>2021-07-24T15:57:49Z</time>
      </trkpt>
      <trkpt lat="43.80073" lon="1.44642">
        <ele>165</ele>
        <time>2021-07-24T15:57:56Z</time>
      </trkpt>
      <trkpt lat="43.80067" lon="1.44654">
        <ele>165</ele>
        <time>2021-07-24T15:57:58Z</time>
      </trkpt>
      <trkpt lat="43.80049" lon="1.44688">
        <ele>165</ele>
        <time>2021-07-24T15:58:03Z</time>
      </trkpt>
      <trkpt lat="43.79984" lon="1.44835">
        <ele>168</ele>
        <time>2021-07-24T15:58:25Z</time>
      </trkpt>
      <trkpt lat="43.79916" lon="1.45013">
        <ele>164</ele>
        <time>2021-07-24T15:58:51Z</time>
      </trkpt>
      <trkpt lat="43.79908" lon="1.4503">
        <ele>165</ele>
        <time>2021-07-24T15:58:54Z</time>
      </trkpt>
      <trkpt lat="43.79883" lon="1.45059">
        <ele>165</ele>
        <time>2021-07-24T15:59:00Z</time>
      </trkpt>
      <trkpt lat="43.79798" lon="1.45135">
        <ele>170</ele>
        <time>2021-07-24T15:59:18Z</time>
      </trkpt>
      <trkpt lat="43.79761" lon="1.45171">
        <ele>171</ele>
        <time>2021-07-24T15:59:26Z</time>
      </trkpt>
      <trkpt lat="43.79736" lon="1.45198">
        <ele>171</ele>
        <time>2021-07-24T15:59:31Z</time>
      </trkpt>
      <trkpt lat="43.79702" lon="1.45241">
        <ele>171</ele>
        <time>2021-07-24T15:59:39Z</time>
      </trkpt>
      <trkpt lat="43.79667" lon="1.45293">
        <ele>169</ele>
        <time>2021-07-24T15:59:49Z</time>
      </trkpt>
      <trkpt lat="43.79655" lon="1.45314">
        <ele>169</ele>
        <time>2021-07-24T15:59:52Z</time>
      </trkpt>
      <trkpt lat="43.79654" lon="1.4532">
        <ele>168</ele>
        <time>2021-07-24T15:59:53Z</time>
      </trkpt>
      <trkpt lat="43.79576" lon="1.4528">
        <ele>170</ele>
        <time>2021-07-24T16:00:08Z</time>
      </trkpt>
      <trkpt lat="43.79574" lon="1.45286">
        <ele>170</ele>
        <time>2021-07-24T16:00:09Z</time>
      </trkpt>
      <trkpt lat="43.79567" lon="1.45304">
        <ele>169</ele>
        <time>2021-07-24T16:00:11Z</time>
      </trkpt>
      <trkpt lat="43.79507" lon="1.45389">
        <ele>171</ele>
        <time>2021-07-24T16:00:26Z</time>
      </trkpt>
      <trkpt lat="43.79494" lon="1.45404">
        <ele>172</ele>
        <time>2021-07-24T16:00:29Z</time>
      </trkpt>
      <trkpt lat="43.79421" lon="1.45478">
        <ele>177</ele>
        <time>2021-07-24T16:00:46Z</time>
      </trkpt>
      <trkpt lat="43.79419" lon="1.4548">
        <ele>177</ele>
        <time>2021-07-24T16:00:46Z</time>
      </trkpt>
      <trkpt lat="43.79337" lon="1.45562">
        <ele>182</ele>
        <time>2021-07-24T16:01:04Z</time>
      </trkpt>
      <trkpt lat="43.79097" lon="1.45798">
        <ele>189</ele>
        <time>2021-07-24T16:01:56Z</time>
      </trkpt>
      <trkpt lat="43.79093" lon="1.45806">
        <ele>188</ele>
        <time>2021-07-24T16:01:58Z</time>
      </trkpt>
      <trkpt lat="43.79068" lon="1.45856">
        <ele>187</ele>
        <time>2021-07-24T16:02:05Z</time>
      </trkpt>
      <trkpt lat="43.79056" lon="1.45876">
        <ele>186</ele>
        <time>2021-07-24T16:02:09Z</time>
      </trkpt>
      <trkpt lat="43.78999" lon="1.45981">
        <ele>188</ele>
        <time>2021-07-24T16:02:26Z</time>
      </trkpt>
      <trkpt lat="43.78961" lon="1.46051">
        <ele>190</ele>
        <time>2021-07-24T16:02:37Z</time>
      </trkpt>
      <trkpt lat="43.78901" lon="1.46155">
        <ele>197</ele>
        <time>2021-07-24T16:02:54Z</time>
      </trkpt>
      <trkpt lat="43.78859" lon="1.46233">
        <ele>199</ele>
        <time>2021-07-24T16:03:06Z</time>
      </trkpt>
      <trkpt lat="43.78806" lon="1.4633">
        <ele>200</ele>
        <time>2021-07-24T16:03:22Z</time>
      </trkpt>
      <trkpt lat="43.78774" lon="1.46388">
        <ele>200</ele>
        <time>2021-07-24T16:03:31Z</time>
      </trkpt>
      <trkpt lat="43.78709" lon="1.46506">
        <ele>199</ele>
        <time>2021-07-24T16:03:51Z</time>
      </trkpt>
      <trkpt lat="43.78693" lon="1.46535">
        <ele>199</ele>
        <time>2021-07-24T16:03:55Z</time>
      </trkpt>
      <trkpt lat="43.78624" lon="1.46661">
        <ele>200</ele>
        <time>2021-07-24T16:04:16Z</time>
      </trkpt>
      <trkpt lat="43.78591" lon="1.46722">
        <ele>200</ele>
        <time>2021-07-24T16:04:25Z</time>
      </trkpt>
      <trkpt lat="43.78536" lon="1.46825">
        <ele>198</ele>
        <time>2021-07-24T16:04:42Z</time>
      </trkpt>
      <trkpt lat="43.7853" lon="1.46842">
        <ele>197</ele>
        <time>2021-07-24T16:04:44Z</time>
      </trkpt>
      <trkpt lat="43.78523" lon="1.46869">
        <ele>197</ele>
        <time>2021-07-24T16:04:48Z</time>
      </trkpt>
      <trkpt lat="43.78502" lon="1.46987">
        <ele>195</ele>
        <time>2021-07-24T16:05:03Z</time>
      </trkpt>
      <trkpt lat="43.78495" lon="1.47035">
        <ele>194</ele>
        <time>2021-07-24T16:05:10Z</time>
      </trkpt>
      <trkpt lat="43.78477" lon="1.47132">
        <ele>195</ele>
        <time>2021-07-24T16:05:23Z</time>
      </trkpt>
      <trkpt lat="43.78465" lon="1.47209">
        <ele>196</ele>
        <time>2021-07-24T16:05:33Z</time>
      </trkpt>
      <trkpt lat="43.78459" lon="1.4724">
        <ele>197</ele>
        <time>2021-07-24T16:05:37Z</time>
      </trkpt>
      <trkpt lat="43.78453" lon="1.47255">
        <ele>197</ele>
        <time>2021-07-24T16:05:39Z</time>
      </trkpt>
      <trkpt lat="43.78447" lon="1.47264">
        <ele>198</ele>
        <time>2021-07-24T16:05:41Z</time>
      </trkpt>
      <trkpt lat="43.78421" lon="1.47292">
        <ele>199</ele>
        <time>2021-07-24T16:05:47Z</time>
      </trkpt>
      <trkpt lat="43.78387" lon="1.47318">
        <ele>200</ele>
        <time>2021-07-24T16:05:53Z</time>
      </trkpt>
      <trkpt lat="43.78374" lon="1.47326">
        <ele>199</ele>
        <time>2021-07-24T16:05:56Z</time>
      </trkpt>
      <trkpt lat="43.78356" lon="1.47335">
        <ele>199</ele>
        <time>2021-07-24T16:05:59Z</time>
      </trkpt>
      <trkpt lat="43.78318" lon="1.47346">
        <ele>199</ele>
        <time>2021-07-24T16:06:06Z</time>
      </trkpt>
      <trkpt lat="43.78283" lon="1.47353">
        <ele>199</ele>
        <time>2021-07-24T16:06:13Z</time>
      </trkpt>
      <trkpt lat="43.78265" lon="1.47363">
        <ele>199</ele>
        <time>2021-07-24T16:06:16Z</time>
      </trkpt>
      <trkpt lat="43.78256" lon="1.47371">
        <ele>199</ele>
        <time>2021-07-24T16:06:18Z</time>
      </trkpt>
      <trkpt lat="43.78249" lon="1.4738">
        <ele>199</ele>
        <time>2021-07-24T16:06:20Z</time>
      </trkpt>
      <trkpt lat="43.7824" lon="1.47394">
        <ele>199</ele>
        <time>2021-07-24T16:06:22Z</time>
      </trkpt>
      <trkpt lat="43.78232" lon="1.47407">
        <ele>200</ele>
        <time>2021-07-24T16:06:24Z</time>
      </trkpt>
      <trkpt lat="43.7822" lon="1.47439">
        <ele>200</ele>
        <time>2021-07-24T16:06:29Z</time>
      </trkpt>
      <trkpt lat="43.78204" lon="1.47493">
        <ele>201</ele>
        <time>2021-07-24T16:06:36Z</time>
      </trkpt>
      <trkpt lat="43.78199" lon="1.47518">
        <ele>201</ele>
        <time>2021-07-24T16:06:40Z</time>
      </trkpt>
      <trkpt lat="43.78193" lon="1.47593">
        <ele>200</ele>
        <time>2021-07-24T16:06:49Z</time>
      </trkpt>
      <trkpt lat="43.78188" lon="1.47611">
        <ele>200</ele>
        <time>2021-07-24T16:06:52Z</time>
      </trkpt>
      <trkpt lat="43.78153" lon="1.47692">
        <ele>201</ele>
        <time>2021-07-24T16:07:04Z</time>
      </trkpt>
      <trkpt lat="43.7813" lon="1.47758">
        <ele>199</ele>
        <time>2021-07-24T16:07:13Z</time>
      </trkpt>
      <trkpt lat="43.78128" lon="1.4777">
        <ele>198</ele>
        <time>2021-07-24T16:07:15Z</time>
      </trkpt>
      <trkpt lat="43.78121" lon="1.47778">
        <ele>198</ele>
        <time>2021-07-24T16:07:17Z</time>
      </trkpt>
      <trkpt lat="43.78092" lon="1.47803">
        <ele>199</ele>
        <time>2021-07-24T16:07:23Z</time>
      </trkpt>
      <trkpt lat="43.77968" lon="1.47883">
        <ele>201</ele>
        <time>2021-07-24T16:07:47Z</time>
      </trkpt>
      <trkpt lat="43.77958" lon="1.47888">
        <ele>201</ele>
        <time>2021-07-24T16:07:49Z</time>
      </trkpt>
      <trkpt lat="43.77863" lon="1.47918">
        <ele>203</ele>
        <time>2021-07-24T16:08:06Z</time>
      </trkpt>
      <trkpt lat="43.77858" lon="1.47918">
        <ele>203</ele>
        <time>2021-07-24T16:08:07Z</time>
      </trkpt>
      <trkpt lat="43.77857" lon="1.47914">
        <ele>203</ele>
        <time>2021-07-24T16:08:08Z</time>
      </trkpt>
      <trkpt lat="43.77853" lon="1.47908">
        <ele>203</ele>
        <time>2021-07-24T16:08:09Z</time>
      </trkpt>
      <trkpt lat="43.7785" lon="1.47907">
        <ele>203</ele>
        <time>2021-07-24T16:08:09Z</time>
      </trkpt>
      <trkpt lat="43.77847" lon="1.47908">
        <ele>203</ele>
        <time>2021-07-24T16:08:10Z</time>
      </trkpt>
      <trkpt lat="43.77844" lon="1.4791">
        <ele>203</ele>
        <time>2021-07-24T16:08:10Z</time>
      </trkpt>
      <trkpt lat="43.77841" lon="1.47916">
        <ele>203</ele>
        <time>2021-07-24T16:08:11Z</time>
      </trkpt>
      <trkpt lat="43.77842" lon="1.47924">
        <ele>203</ele>
        <time>2021-07-24T16:08:12Z</time>
      </trkpt>
      <trkpt lat="43.77843" lon="1.47928">
        <ele>203</ele>
        <time>2021-07-24T16:08:13Z</time>
      </trkpt>
      <trkpt lat="43.77841" lon="1.47932">
        <ele>203</ele>
        <time>2021-07-24T16:08:14Z</time>
      </trkpt>
      <trkpt lat="43.77837" lon="1.4794">
        <ele>203</ele>
        <time>2021-07-24T16:08:15Z</time>
      </trkpt>
      <trkpt lat="43.77834" lon="1.47947">
        <ele>203</ele>
        <time>2021-07-24T16:08:16Z</time>
      </trkpt>
      <trkpt lat="43.77813" lon="1.47998">
        <ele>202</ele>
        <time>2021-07-24T16:08:23Z</time>
      </trkpt>
      <trkpt lat="43.77809" lon="1.48004">
        <ele>201</ele>
        <time>2021-07-24T16:08:24Z</time>
      </trkpt>
      <trkpt lat="43.77794" lon="1.48009">
        <ele>200</ele>
        <time>2021-07-24T16:08:27Z</time>
      </trkpt>
      <trkpt lat="43.7777" lon="1.48018">
        <ele>199</ele>
        <time>2021-07-24T16:08:32Z</time>
      </trkpt>
      <trkpt lat="43.77753" lon="1.48027">
        <ele>198</ele>
        <time>2021-07-24T16:08:35Z</time>
      </trkpt>
      <trkpt lat="43.7773" lon="1.48055">
        <ele>197</ele>
        <time>2021-07-24T16:08:40Z</time>
      </trkpt>
      <trkpt lat="43.77702" lon="1.48095">
        <ele>195</ele>
        <time>2021-07-24T16:08:47Z</time>
      </trkpt>
      <trkpt lat="43.77694" lon="1.48108">
        <ele>194</ele>
        <time>2021-07-24T16:08:50Z</time>
      </trkpt>
      <trkpt lat="43.77687" lon="1.48123">
        <ele>192</ele>
        <time>2021-07-24T16:08:52Z</time>
      </trkpt>
      <trkpt lat="43.7766" lon="1.48165">
        <ele>187</ele>
        <time>2021-07-24T16:08:59Z</time>
      </trkpt>
      <trkpt lat="43.77653" lon="1.48173">
        <ele>185</ele>
        <time>2021-07-24T16:09:01Z</time>
      </trkpt>
      <trkpt lat="43.77638" lon="1.4818">
        <ele>183</ele>
        <time>2021-07-24T16:09:04Z</time>
      </trkpt>
      <trkpt lat="43.77624" lon="1.48176">
        <ele>183</ele>
        <time>2021-07-24T16:09:06Z</time>
      </trkpt>
      <trkpt lat="43.77577" lon="1.48127">
        <ele>186</ele>
        <time>2021-07-24T16:09:17Z</time>
      </trkpt>
      <trkpt lat="43.77564" lon="1.48119">
        <ele>187</ele>
        <time>2021-07-24T16:09:19Z</time>
      </trkpt>
      <trkpt lat="43.7755" lon="1.48119">
        <ele>187</ele>
        <time>2021-07-24T16:09:22Z</time>
      </trkpt>
      <trkpt lat="43.77537" lon="1.48123">
        <ele>186</ele>
        <time>2021-07-24T16:09:24Z</time>
      </trkpt>
      <trkpt lat="43.77482" lon="1.4815">
        <ele>180</ele>
        <time>2021-07-24T16:09:34Z</time>
      </trkpt>
      <trkpt lat="43.77461" lon="1.48159">
        <ele>179</ele>
        <time>2021-07-24T16:09:38Z</time>
      </trkpt>
      <trkpt lat="43.77384" lon="1.48195">
        <ele>173</ele>
        <time>2021-07-24T16:09:53Z</time>
      </trkpt>
      <trkpt lat="43.77377" lon="1.48198">
        <ele>172</ele>
        <time>2021-07-24T16:09:54Z</time>
      </trkpt>
      <trkpt lat="43.77366" lon="1.48198">
        <ele>171</ele>
        <time>2021-07-24T16:09:56Z</time>
      </trkpt>
      <trkpt lat="43.77343" lon="1.48191">
        <ele>170</ele>
        <time>2021-07-24T16:10:00Z</time>
      </trkpt>
      <trkpt lat="43.77336" lon="1.4819">
        <ele>170</ele>
        <time>2021-07-24T16:10:01Z</time>
      </trkpt>
      <trkpt lat="43.7733" lon="1.48193">
        <ele>169</ele>
        <time>2021-07-24T16:10:03Z</time>
      </trkpt>
      <trkpt lat="43.77325" lon="1.48198">
        <ele>168</ele>
        <time>2021-07-24T16:10:04Z</time>
      </trkpt>
      <trkpt lat="43.77321" lon="1.48206">
        <ele>167</ele>
        <time>2021-07-24T16:10:05Z</time>
      </trkpt>
      <trkpt lat="43.77319" lon="1.48216">
        <ele>166</ele>
        <time>2021-07-24T16:10:06Z</time>
      </trkpt>
      <trkpt lat="43.77319" lon="1.48229">
        <ele>165</ele>
        <time>2021-07-24T16:10:08Z</time>
      </trkpt>
      <trkpt lat="43.77321" lon="1.48239">
        <ele>164</ele>
        <time>2021-07-24T16:10:09Z</time>
      </trkpt>
      <trkpt lat="43.77324" lon="1.48245">
        <ele>164</ele>
        <time>2021-07-24T16:10:10Z</time>
      </trkpt>
      <trkpt lat="43.77333" lon="1.48255">
        <ele>163</ele>
        <time>2021-07-24T16:10:12Z</time>
      </trkpt>
      <trkpt lat="43.77372" lon="1.48264">
        <ele>164</ele>
        <time>2021-07-24T16:10:19Z</time>
      </trkpt>
      <trkpt lat="43.77404" lon="1.48279">
        <ele>164</ele>
        <time>2021-07-24T16:10:25Z</time>
      </trkpt>
      <trkpt lat="43.77436" lon="1.48305">
        <ele>162</ele>
        <time>2021-07-24T16:10:32Z</time>
      </trkpt>
      <trkpt lat="43.77458" lon="1.48332">
        <ele>160</ele>
        <time>2021-07-24T16:10:37Z</time>
      </trkpt>
      <trkpt lat="43.77464" lon="1.48342">
        <ele>160</ele>
        <time>2021-07-24T16:10:39Z</time>
      </trkpt>
      <trkpt lat="43.7747" lon="1.48354">
        <ele>159</ele>
        <time>2021-07-24T16:10:41Z</time>
      </trkpt>
      <trkpt lat="43.77473" lon="1.4837">
        <ele>158</ele>
        <time>2021-07-24T16:10:43Z</time>
      </trkpt>
      <trkpt lat="43.77474" lon="1.48383">
        <ele>158</ele>
        <time>2021-07-24T16:10:44Z</time>
      </trkpt>
      <trkpt lat="43.77473" lon="1.48395">
        <ele>157</ele>
        <time>2021-07-24T16:10:46Z</time>
      </trkpt>
      <trkpt lat="43.77469" lon="1.48406">
        <ele>156</ele>
        <time>2021-07-24T16:10:48Z</time>
      </trkpt>
      <trkpt lat="43.77466" lon="1.48415">
        <ele>156</ele>
        <time>2021-07-24T16:10:49Z</time>
      </trkpt>
      <trkpt lat="43.77456" lon="1.4843">
        <ele>156</ele>
        <time>2021-07-24T16:10:52Z</time>
      </trkpt>
      <trkpt lat="43.77447" lon="1.48439">
        <ele>156</ele>
        <time>2021-07-24T16:10:54Z</time>
      </trkpt>
      <trkpt lat="43.77439" lon="1.48448">
        <ele>156</ele>
        <time>2021-07-24T16:10:55Z</time>
      </trkpt>
      <trkpt lat="43.77431" lon="1.48453">
        <ele>156</ele>
        <time>2021-07-24T16:10:57Z</time>
      </trkpt>
      <trkpt lat="43.77421" lon="1.48457">
        <ele>157</ele>
        <time>2021-07-24T16:10:59Z</time>
      </trkpt>
      <trkpt lat="43.77399" lon="1.48458">
        <ele>157</ele>
        <time>2021-07-24T16:11:03Z</time>
      </trkpt>
      <trkpt lat="43.77379" lon="1.48454">
        <ele>158</ele>
        <time>2021-07-24T16:11:06Z</time>
      </trkpt>
      <trkpt lat="43.77348" lon="1.48445">
        <ele>157</ele>
        <time>2021-07-24T16:11:12Z</time>
      </trkpt>
      <trkpt lat="43.7732" lon="1.48445">
        <ele>157</ele>
        <time>2021-07-24T16:11:17Z</time>
      </trkpt>
      <trkpt lat="43.77305" lon="1.48454">
        <ele>157</ele>
        <time>2021-07-24T16:11:20Z</time>
      </trkpt>
      <trkpt lat="43.77287" lon="1.48471">
        <ele>158</ele>
        <time>2021-07-24T16:11:24Z</time>
      </trkpt>
      <trkpt lat="43.77255" lon="1.48519">
        <ele>159</ele>
        <time>2021-07-24T16:11:32Z</time>
      </trkpt>
      <trkpt lat="43.77214" lon="1.48573">
        <ele>161</ele>
        <time>2021-07-24T16:11:42Z</time>
      </trkpt>
      <trkpt lat="43.77073" lon="1.48724">
        <ele>170</ele>
        <time>2021-07-24T16:12:14Z</time>
      </trkpt>
      <trkpt lat="43.77048" lon="1.48756">
        <ele>172</ele>
        <time>2021-07-24T16:12:20Z</time>
      </trkpt>
      <trkpt lat="43.76936" lon="1.48947">
        <ele>179</ele>
        <time>2021-07-24T16:12:52Z</time>
      </trkpt>
      <trkpt lat="43.76913" lon="1.4898">
        <ele>181</ele>
        <time>2021-07-24T16:12:57Z</time>
      </trkpt>
      <trkpt lat="43.76838" lon="1.49075">
        <ele>183</ele>
        <time>2021-07-24T16:13:15Z</time>
      </trkpt>
      <trkpt lat="43.7675" lon="1.49197">
        <ele>183</ele>
        <time>2021-07-24T16:13:38Z</time>
      </trkpt>
      <trkpt lat="43.76698" lon="1.49267">
        <ele>183</ele>
        <time>2021-07-24T16:13:51Z</time>
      </trkpt>
      <trkpt lat="43.76669" lon="1.49295">
        <ele>183</ele>
        <time>2021-07-24T16:13:57Z</time>
      </trkpt>
      <trkpt lat="43.76651" lon="1.49306">
        <ele>183</ele>
        <time>2021-07-24T16:14:00Z</time>
      </trkpt>
      <trkpt lat="43.76635" lon="1.49312">
        <ele>183</ele>
        <time>2021-07-24T16:14:03Z</time>
      </trkpt>
      <trkpt lat="43.76567" lon="1.49347">
        <ele>183</ele>
        <time>2021-07-24T16:14:16Z</time>
      </trkpt>
      <trkpt lat="43.76542" lon="1.49366">
        <ele>183</ele>
        <time>2021-07-24T16:14:21Z</time>
      </trkpt>
      <trkpt lat="43.76367" lon="1.49538">
        <ele>189</ele>
        <time>2021-07-24T16:14:59Z</time>
      </trkpt>
      <trkpt lat="43.76248" lon="1.49634">
        <ele>193</ele>
        <time>2021-07-24T16:15:24Z</time>
      </trkpt>
      <trkpt lat="43.75841" lon="1.49971">
        <ele>205</ele>
        <time>2021-07-24T16:16:48Z</time>
      </trkpt>
      <trkpt lat="43.75835" lon="1.49976">
        <ele>205</ele>
        <time>2021-07-24T16:16:50Z</time>
      </trkpt>
      <trkpt lat="43.75833" lon="1.49978">
        <ele>205</ele>
        <time>2021-07-24T16:16:50Z</time>
      </trkpt>
      <trkpt lat="43.75853" lon="1.50027">
        <ele>206</ele>
        <time>2021-07-24T16:16:57Z</time>
      </trkpt>
      <trkpt lat="43.7586" lon="1.50053">
        <ele>206</ele>
        <time>2021-07-24T16:17:01Z</time>
      </trkpt>
      <trkpt lat="43.75865" lon="1.50078">
        <ele>206</ele>
        <time>2021-07-24T16:17:04Z</time>
      </trkpt>
      <trkpt lat="43.75869" lon="1.50108">
        <ele>206</ele>
        <time>2021-07-24T16:17:08Z</time>
      </trkpt>
      <trkpt lat="43.75871" lon="1.50138">
        <ele>205</ele>
        <time>2021-07-24T16:17:12Z</time>
      </trkpt>
      <trkpt lat="43.75871" lon="1.50186">
        <ele>205</ele>
        <time>2021-07-24T16:17:18Z</time>
      </trkpt>
      <trkpt lat="43.75867" lon="1.50236">
        <ele>205</ele>
        <time>2021-07-24T16:17:25Z</time>
      </trkpt>
      <trkpt lat="43.75859" lon="1.50275">
        <ele>206</ele>
        <time>2021-07-24T16:17:30Z</time>
      </trkpt>
      <trkpt lat="43.75854" lon="1.50293">
        <ele>206</ele>
        <time>2021-07-24T16:17:32Z</time>
      </trkpt>
      <trkpt lat="43.75812" lon="1.50377">
        <ele>207</ele>
        <time>2021-07-24T16:17:45Z</time>
      </trkpt>
      <trkpt lat="43.75783" lon="1.5043">
        <ele>208</ele>
        <time>2021-07-24T16:17:54Z</time>
      </trkpt>
      <trkpt lat="43.75658" lon="1.50613">
        <ele>208</ele>
        <time>2021-07-24T16:18:26Z</time>
      </trkpt>
      <trkpt lat="43.75602" lon="1.50704">
        <ele>206</ele>
        <time>2021-07-24T16:18:42Z</time>
      </trkpt>
      <trkpt lat="43.75587" lon="1.50745">
        <ele>205</ele>
        <time>2021-07-24T16:18:48Z</time>
      </trkpt>
      <trkpt lat="43.75578" lon="1.50782">
        <ele>205</ele>
        <time>2021-07-24T16:18:53Z</time>
      </trkpt>
      <trkpt lat="43.75573" lon="1.50825">
        <ele>204</ele>
        <time>2021-07-24T16:18:58Z</time>
      </trkpt>
      <trkpt lat="43.75575" lon="1.50867">
        <ele>204</ele>
        <time>2021-07-24T16:19:04Z</time>
      </trkpt>
      <trkpt lat="43.75589" lon="1.5095">
        <ele>206</ele>
        <time>2021-07-24T16:19:15Z</time>
      </trkpt>
      <trkpt lat="43.75675" lon="1.51402">
        <ele>205</ele>
        <time>2021-07-24T16:20:15Z</time>
      </trkpt>
      <trkpt lat="43.75673" lon="1.51404">
        <ele>205</ele>
        <time>2021-07-24T16:20:15Z</time>
      </trkpt>
      <trkpt lat="43.75666" lon="1.51423">
        <ele>205</ele>
        <time>2021-07-24T16:20:18Z</time>
      </trkpt>
      <trkpt lat="43.75639" lon="1.5155">
        <ele>207</ele>
        <time>2021-07-24T16:20:35Z</time>
      </trkpt>
      <trkpt lat="43.7563" lon="1.51573">
        <ele>207</ele>
        <time>2021-07-24T16:20:38Z</time>
      </trkpt>
      <trkpt lat="43.75602" lon="1.51627">
        <ele>208</ele>
        <time>2021-07-24T16:20:47Z</time>
      </trkpt>
      <trkpt lat="43.75532" lon="1.51749">
        <ele>204</ele>
        <time>2021-07-24T16:21:07Z</time>
      </trkpt>
      <trkpt lat="43.7552" lon="1.51774">
        <ele>204</ele>
        <time>2021-07-24T16:21:11Z</time>
      </trkpt>
      <trkpt lat="43.75514" lon="1.51791">
        <ele>204</ele>
        <time>2021-07-24T16:21:13Z</time>
      </trkpt>
      <trkpt lat="43.75511" lon="1.51808">
        <ele>205</ele>
        <time>2021-07-24T16:21:15Z</time>
      </trkpt>
      <trkpt lat="43.75497" lon="1.51907">
        <ele>206</ele>
        <time>2021-07-24T16:21:28Z</time>
      </trkpt>
      <trkpt lat="43.75489" lon="1.51943">
        <ele>206</ele>
        <time>2021-07-24T16:21:33Z</time>
      </trkpt>
      <trkpt lat="43.75465" lon="1.52026">
        <ele>208</ele>
        <time>2021-07-24T16:21:45Z</time>
      </trkpt>
      <trkpt lat="43.7546" lon="1.52033">
        <ele>207</ele>
        <time>2021-07-24T16:21:46Z</time>
      </trkpt>
      <trkpt lat="43.75458" lon="1.52036">
        <ele>207</ele>
        <time>2021-07-24T16:21:46Z</time>
      </trkpt>
      <trkpt lat="43.75454" lon="1.52036">
        <ele>207</ele>
        <time>2021-07-24T16:21:47Z</time>
      </trkpt>
      <trkpt lat="43.75451" lon="1.52038">
        <ele>207</ele>
        <time>2021-07-24T16:21:48Z</time>
      </trkpt>
      <trkpt lat="43.75448" lon="1.52041">
        <ele>207</ele>
        <time>2021-07-24T16:21:48Z</time>
      </trkpt>
      <trkpt lat="43.75446" lon="1.52045">
        <ele>207</ele>
        <time>2021-07-24T16:21:49Z</time>
      </trkpt>
      <trkpt lat="43.75445" lon="1.5205">
        <ele>207</ele>
        <time>2021-07-24T16:21:50Z</time>
      </trkpt>
      <trkpt lat="43.75444" lon="1.52054">
        <ele>207</ele>
        <time>2021-07-24T16:21:50Z</time>
      </trkpt>
      <trkpt lat="43.75444" lon="1.52054">
        <ele>207</ele>
        <time>2021-07-24T16:21:50Z</time>
      </trkpt>
      <trkpt lat="43.75445" lon="1.52059">
        <ele>208</ele>
        <time>2021-07-24T16:21:51Z</time>
      </trkpt>
      <trkpt lat="43.75447" lon="1.52064">
        <ele>208</ele>
        <time>2021-07-24T16:21:52Z</time>
      </trkpt>
      <trkpt lat="43.75448" lon="1.52072">
        <ele>208</ele>
        <time>2021-07-24T16:21:53Z</time>
      </trkpt>
      <trkpt lat="43.75448" lon="1.5208">
        <ele>208</ele>
        <time>2021-07-24T16:21:54Z</time>
      </trkpt>
      <trkpt lat="43.75414" lon="1.52198">
        <ele>212</ele>
        <time>2021-07-24T16:22:10Z</time>
      </trkpt>
      <trkpt lat="43.75398" lon="1.52235">
        <ele>212</ele>
        <time>2021-07-24T16:22:16Z</time>
      </trkpt>
      <trkpt lat="43.75305" lon="1.52432">
        <ele>215</ele>
        <time>2021-07-24T16:22:46Z</time>
      </trkpt>
      <trkpt lat="43.75256" lon="1.52532">
        <ele>218</ele>
        <time>2021-07-24T16:23:01Z</time>
      </trkpt>
      <trkpt lat="43.75136" lon="1.52785">
        <ele>213</ele>
        <time>2021-07-24T16:23:40Z</time>
      </trkpt>
      <trkpt lat="43.75134" lon="1.52792">
        <ele>213</ele>
        <time>2021-07-24T16:23:41Z</time>
      </trkpt>
      <trkpt lat="43.75094" lon="1.52898">
        <ele>212</ele>
        <time>2021-07-24T16:23:57Z</time>
      </trkpt>
      <trkpt lat="43.75066" lon="1.52977">
        <ele>213</ele>
        <time>2021-07-24T16:24:08Z</time>
      </trkpt>
      <trkpt lat="43.75039" lon="1.53065">
        <ele>213</ele>
        <time>2021-07-24T16:24:20Z</time>
      </trkpt>
      <trkpt lat="43.75031" lon="1.53098">
        <ele>213</ele>
        <time>2021-07-24T16:24:25Z</time>
      </trkpt>
      <trkpt lat="43.75008" lon="1.53275">
        <ele>215</ele>
        <time>2021-07-24T16:24:48Z</time>
      </trkpt>
      <trkpt lat="43.74999" lon="1.53311">
        <ele>216</ele>
        <time>2021-07-24T16:24:53Z</time>
      </trkpt>
      <trkpt lat="43.74989" lon="1.53345">
        <ele>216</ele>
        <time>2021-07-24T16:24:57Z</time>
      </trkpt>
      <trkpt lat="43.74982" lon="1.53361">
        <ele>216</ele>
        <time>2021-07-24T16:25:00Z</time>
      </trkpt>
      <trkpt lat="43.74975" lon="1.53379">
        <ele>217</ele>
        <time>2021-07-24T16:25:02Z</time>
      </trkpt>
      <trkpt lat="43.74937" lon="1.53454">
        <ele>220</ele>
        <time>2021-07-24T16:25:14Z</time>
      </trkpt>
      <trkpt lat="43.7492" lon="1.53485">
        <ele>221</ele>
        <time>2021-07-24T16:25:19Z</time>
      </trkpt>
      <trkpt lat="43.74916" lon="1.53493">
        <ele>222</ele>
        <time>2021-07-24T16:25:20Z</time>
      </trkpt>
      <trkpt lat="43.74905" lon="1.53519">
        <ele>221</ele>
        <time>2021-07-24T16:25:24Z</time>
      </trkpt>
      <trkpt lat="43.74899" lon="1.53539">
        <ele>221</ele>
        <time>2021-07-24T16:25:27Z</time>
      </trkpt>
      <trkpt lat="43.7489" lon="1.5358">
        <ele>219</ele>
        <time>2021-07-24T16:25:33Z</time>
      </trkpt>
      <trkpt lat="43.74856" lon="1.53744">
        <ele>219</ele>
        <time>2021-07-24T16:25:54Z</time>
      </trkpt>
      <trkpt lat="43.74825" lon="1.53883">
        <ele>221</ele>
        <time>2021-07-24T16:26:13Z</time>
      </trkpt>
      <trkpt lat="43.7482" lon="1.53901">
        <ele>221</ele>
        <time>2021-07-24T16:26:16Z</time>
      </trkpt>
      <trkpt lat="43.74814" lon="1.53925">
        <ele>221</ele>
        <time>2021-07-24T16:26:19Z</time>
      </trkpt>
      <trkpt lat="43.74807" lon="1.53952">
        <ele>221</ele>
        <time>2021-07-24T16:26:23Z</time>
      </trkpt>
      <trkpt lat="43.74788" lon="1.5403">
        <ele>220</ele>
        <time>2021-07-24T16:26:33Z</time>
      </trkpt>
      <trkpt lat="43.74783" lon="1.54064">
        <ele>219</ele>
        <time>2021-07-24T16:26:38Z</time>
      </trkpt>
      <trkpt lat="43.74772" lon="1.54144">
        <ele>218</ele>
        <time>2021-07-24T16:26:48Z</time>
      </trkpt>
      <trkpt lat="43.74765" lon="1.54195">
        <ele>217</ele>
        <time>2021-07-24T16:26:55Z</time>
      </trkpt>
      <trkpt lat="43.74761" lon="1.54219">
        <ele>217</ele>
        <time>2021-07-24T16:26:58Z</time>
      </trkpt>
      <trkpt lat="43.74758" lon="1.54234">
        <ele>217</ele>
        <time>2021-07-24T16:27:00Z</time>
      </trkpt>
      <trkpt lat="43.74725" lon="1.54346">
        <ele>214</ele>
        <time>2021-07-24T16:27:16Z</time>
      </trkpt>
      <trkpt lat="43.74716" lon="1.54381">
        <ele>214</ele>
        <time>2021-07-24T16:27:20Z</time>
      </trkpt>
      <trkpt lat="43.74713" lon="1.54402">
        <ele>214</ele>
        <time>2021-07-24T16:27:23Z</time>
      </trkpt>
      <trkpt lat="43.74712" lon="1.54452">
        <ele>213</ele>
        <time>2021-07-24T16:27:29Z</time>
      </trkpt>
      <trkpt lat="43.74727" lon="1.54629">
        <ele>211</ele>
        <time>2021-07-24T16:27:52Z</time>
      </trkpt>
      <trkpt lat="43.74728" lon="1.54659">
        <ele>211</ele>
        <time>2021-07-24T16:27:56Z</time>
      </trkpt>
      <trkpt lat="43.74728" lon="1.54684">
        <ele>211</ele>
        <time>2021-07-24T16:27:59Z</time>
      </trkpt>
      <trkpt lat="43.74725" lon="1.54707">
        <ele>212</ele>
        <time>2021-07-24T16:28:02Z</time>
      </trkpt>
      <trkpt lat="43.74718" lon="1.54745">
        <ele>212</ele>
        <time>2021-07-24T16:28:07Z</time>
      </trkpt>
      <trkpt lat="43.74713" lon="1.54764">
        <ele>213</ele>
        <time>2021-07-24T16:28:10Z</time>
      </trkpt>
      <trkpt lat="43.74707" lon="1.54786">
        <ele>213</ele>
        <time>2021-07-24T16:28:13Z</time>
      </trkpt>
      <trkpt lat="43.74697" lon="1.54811">
        <ele>214</ele>
        <time>2021-07-24T16:28:17Z</time>
      </trkpt>
      <trkpt lat="43.74687" lon="1.54832">
        <ele>215</ele>
        <time>2021-07-24T16:28:20Z</time>
      </trkpt>
      <trkpt lat="43.74672" lon="1.5486">
        <ele>216</ele>
        <time>2021-07-24T16:28:25Z</time>
      </trkpt>
      <trkpt lat="43.74653" lon="1.54903">
        <ele>218</ele>
        <time>2021-07-24T16:28:31Z</time>
      </trkpt>
      <trkpt lat="43.74641" lon="1.54934">
        <ele>218</ele>
        <time>2021-07-24T16:28:36Z</time>
      </trkpt>
      <trkpt lat="43.74606" lon="1.55037">
        <ele>217</ele>
        <time>2021-07-24T16:28:50Z</time>
      </trkpt>
      <trkpt lat="43.74598" lon="1.55058">
        <ele>217</ele>
        <time>2021-07-24T16:28:53Z</time>
      </trkpt>
      <trkpt lat="43.74588" lon="1.55078">
        <ele>218</ele>
        <time>2021-07-24T16:28:56Z</time>
      </trkpt>
      <trkpt lat="43.74471" lon="1.55269">
        <ele>218</ele>
        <time>2021-07-24T16:29:28Z</time>
      </trkpt>
      <trkpt lat="43.74463" lon="1.55285">
        <ele>218</ele>
        <time>2021-07-24T16:29:31Z</time>
      </trkpt>
      <trkpt lat="43.74444" lon="1.55335">
        <ele>219</ele>
        <time>2021-07-24T16:29:38Z</time>
      </trkpt>
      <trkpt lat="43.74431" lon="1.55381">
        <ele>218</ele>
        <time>2021-07-24T16:29:45Z</time>
      </trkpt>
      <trkpt lat="43.74422" lon="1.554">
        <ele>218</ele>
        <time>2021-07-24T16:29:48Z</time>
      </trkpt>
      <trkpt lat="43.74389" lon="1.55443">
        <ele>216</ele>
        <time>2021-07-24T16:29:56Z</time>
      </trkpt>
      <trkpt lat="43.74377" lon="1.55462">
        <ele>215</ele>
        <time>2021-07-24T16:29:59Z</time>
      </trkpt>
      <trkpt lat="43.7437" lon="1.55486">
        <ele>214</ele>
        <time>2021-07-24T16:30:02Z</time>
      </trkpt>
      <trkpt lat="43.74368" lon="1.55502">
        <ele>213</ele>
        <time>2021-07-24T16:30:04Z</time>
      </trkpt>
      <trkpt lat="43.74368" lon="1.55524">
        <ele>212</ele>
        <time>2021-07-24T16:30:07Z</time>
      </trkpt>
      <trkpt lat="43.74368" lon="1.55537">
        <ele>211</ele>
        <time>2021-07-24T16:30:09Z</time>
      </trkpt>
      <trkpt lat="43.74368" lon="1.55554">
        <ele>211</ele>
        <time>2021-07-24T16:30:11Z</time>
      </trkpt>
      <trkpt lat="43.74368" lon="1.55638">
        <ele>207</ele>
        <time>2021-07-24T16:30:22Z</time>
      </trkpt>
      <trkpt lat="43.74372" lon="1.55671">
        <ele>206</ele>
        <time>2021-07-24T16:30:26Z</time>
      </trkpt>
      <trkpt lat="43.74383" lon="1.55714">
        <ele>205</ele>
        <time>2021-07-24T16:30:32Z</time>
      </trkpt>
      <trkpt lat="43.74437" lon="1.55902">
        <ele>202</ele>
        <time>2021-07-24T16:30:58Z</time>
      </trkpt>
      <trkpt lat="43.74446" lon="1.55943">
        <ele>202</ele>
        <time>2021-07-24T16:31:03Z</time>
      </trkpt>
      <trkpt lat="43.74449" lon="1.55973">
        <ele>202</ele>
        <time>2021-07-24T16:31:07Z</time>
      </trkpt>
      <trkpt lat="43.74449" lon="1.55991">
        <ele>202</ele>
        <time>2021-07-24T16:31:10Z</time>
      </trkpt>
      <trkpt lat="43.74445" lon="1.56027">
        <ele>203</ele>
        <time>2021-07-24T16:31:14Z</time>
      </trkpt>
      <trkpt lat="43.74442" lon="1.56045">
        <ele>203</ele>
        <time>2021-07-24T16:31:17Z</time>
      </trkpt>
      <trkpt lat="43.74436" lon="1.56065">
        <ele>204</ele>
        <time>2021-07-24T16:31:19Z</time>
      </trkpt>
      <trkpt lat="43.74388" lon="1.56233">
        <ele>208</ele>
        <time>2021-07-24T16:31:43Z</time>
      </trkpt>
      <trkpt lat="43.74374" lon="1.56266">
        <ele>209</ele>
        <time>2021-07-24T16:31:48Z</time>
      </trkpt>
      <trkpt lat="43.74325" lon="1.56361">
        <ele>211</ele>
        <time>2021-07-24T16:32:03Z</time>
      </trkpt>
      <trkpt lat="43.74301" lon="1.56394">
        <ele>212</ele>
        <time>2021-07-24T16:32:09Z</time>
      </trkpt>
      <trkpt lat="43.74277" lon="1.56413">
        <ele>212</ele>
        <time>2021-07-24T16:32:14Z</time>
      </trkpt>
      <trkpt lat="43.74209" lon="1.56448">
        <ele>212</ele>
        <time>2021-07-24T16:32:26Z</time>
      </trkpt>
      <trkpt lat="43.74184" lon="1.56464">
        <ele>213</ele>
        <time>2021-07-24T16:32:31Z</time>
      </trkpt>
      <trkpt lat="43.74168" lon="1.56481">
        <ele>213</ele>
        <time>2021-07-24T16:32:35Z</time>
      </trkpt>
      <trkpt lat="43.74122" lon="1.56548">
        <ele>214</ele>
        <time>2021-07-24T16:32:47Z</time>
      </trkpt>
      <trkpt lat="43.74116" lon="1.56555">
        <ele>214</ele>
        <time>2021-07-24T16:32:48Z</time>
      </trkpt>
      <trkpt lat="43.74087" lon="1.56589">
        <ele>214</ele>
        <time>2021-07-24T16:32:55Z</time>
      </trkpt>
      <trkpt lat="43.74027" lon="1.5665">
        <ele>215</ele>
        <time>2021-07-24T16:33:08Z</time>
      </trkpt>
      <trkpt lat="43.74017" lon="1.56659">
        <ele>216</ele>
        <time>2021-07-24T16:33:10Z</time>
      </trkpt>
      <trkpt lat="43.7401" lon="1.56664">
        <ele>216</ele>
        <time>2021-07-24T16:33:12Z</time>
      </trkpt>
      <trkpt lat="43.74004" lon="1.56668">
        <ele>216</ele>
        <time>2021-07-24T16:33:13Z</time>
      </trkpt>
      <trkpt lat="43.73987" lon="1.56676">
        <ele>216</ele>
        <time>2021-07-24T16:33:16Z</time>
      </trkpt>
      <trkpt lat="43.73896" lon="1.5671">
        <ele>216</ele>
        <time>2021-07-24T16:33:33Z</time>
      </trkpt>
      <trkpt lat="43.73873" lon="1.56725">
        <ele>216</ele>
        <time>2021-07-24T16:33:37Z</time>
      </trkpt>
      <trkpt lat="43.73851" lon="1.56747">
        <ele>217</ele>
        <time>2021-07-24T16:33:42Z</time>
      </trkpt>
      <trkpt lat="43.73833" lon="1.56772">
        <ele>218</ele>
        <time>2021-07-24T16:33:47Z</time>
      </trkpt>
      <trkpt lat="43.73666" lon="1.57047">
        <ele>217</ele>
        <time>2021-07-24T16:34:33Z</time>
      </trkpt>
      <trkpt lat="43.73591" lon="1.57181">
        <ele>217</ele>
        <time>2021-07-24T16:34:55Z</time>
      </trkpt>
      <trkpt lat="43.73561" lon="1.57229">
        <ele>218</ele>
        <time>2021-07-24T16:35:03Z</time>
      </trkpt>
      <trkpt lat="43.73484" lon="1.57331">
        <ele>220</ele>
        <time>2021-07-24T16:35:22Z</time>
      </trkpt>
      <trkpt lat="43.73454" lon="1.57367">
        <ele>220</ele>
        <time>2021-07-24T16:35:29Z</time>
      </trkpt>
      <trkpt lat="43.73406" lon="1.57414">
        <ele>221</ele>
        <time>2021-07-24T16:35:39Z</time>
      </trkpt>
      <trkpt lat="43.73391" lon="1.57423">
        <ele>221</ele>
        <time>2021-07-24T16:35:42Z</time>
      </trkpt>
      <trkpt lat="43.73371" lon="1.57433">
        <ele>221</ele>
        <time>2021-07-24T16:35:46Z</time>
      </trkpt>
      <trkpt lat="43.73359" lon="1.57436">
        <ele>221</ele>
        <time>2021-07-24T16:35:48Z</time>
      </trkpt>
      <trkpt lat="43.73344" lon="1.57437">
        <ele>220</ele>
        <time>2021-07-24T16:35:51Z</time>
      </trkpt>
      <trkpt lat="43.73264" lon="1.57431">
        <ele>221</ele>
        <time>2021-07-24T16:36:05Z</time>
      </trkpt>
      <trkpt lat="43.73225" lon="1.57433">
        <ele>222</ele>
        <time>2021-07-24T16:36:12Z</time>
      </trkpt>
      <trkpt lat="43.73202" lon="1.57437">
        <ele>223</ele>
        <time>2021-07-24T16:36:16Z</time>
      </trkpt>
      <trkpt lat="43.73185" lon="1.57441">
        <ele>223</ele>
        <time>2021-07-24T16:36:19Z</time>
      </trkpt>
      <trkpt lat="43.73155" lon="1.57454">
        <ele>224</ele>
        <time>2021-07-24T16:36:25Z</time>
      </trkpt>
      <trkpt lat="43.73122" lon="1.5748">
        <ele>226</ele>
        <time>2021-07-24T16:36:32Z</time>
      </trkpt>
      <trkpt lat="43.73117" lon="1.57484">
        <ele>226</ele>
        <time>2021-07-24T16:36:33Z</time>
      </trkpt>
      <trkpt lat="43.73104" lon="1.57497">
        <ele>226</ele>
        <time>2021-07-24T16:36:36Z</time>
      </trkpt>
      <trkpt lat="43.73087" lon="1.57516">
        <ele>226</ele>
        <time>2021-07-24T16:36:39Z</time>
      </trkpt>
      <trkpt lat="43.73064" lon="1.57548">
        <ele>226</ele>
        <time>2021-07-24T16:36:45Z</time>
      </trkpt>
      <trkpt lat="43.73022" lon="1.57608">
        <ele>226</ele>
        <time>2021-07-24T16:36:56Z</time>
      </trkpt>
      <trkpt lat="43.73013" lon="1.5762">
        <ele>227</ele>
        <time>2021-07-24T16:36:58Z</time>
      </trkpt>
      <trkpt lat="43.72897" lon="1.57793">
        <ele>229</ele>
        <time>2021-07-24T16:37:29Z</time>
      </trkpt>
      <trkpt lat="43.72825" lon="1.57939">
        <ele>231</ele>
        <time>2021-07-24T16:37:51Z</time>
      </trkpt>
      <trkpt lat="43.7274" lon="1.58093">
        <ele>233</ele>
        <time>2021-07-24T16:38:16Z</time>
      </trkpt>
      <trkpt lat="43.72722" lon="1.58119">
        <ele>233</ele>
        <time>2021-07-24T16:38:21Z</time>
      </trkpt>
      <trkpt lat="43.72634" lon="1.58222">
        <ele>235</ele>
        <time>2021-07-24T16:38:41Z</time>
      </trkpt>
      <trkpt lat="43.72624" lon="1.58236">
        <ele>236</ele>
        <time>2021-07-24T16:38:44Z</time>
      </trkpt>
      <trkpt lat="43.72576" lon="1.58313">
        <ele>241</ele>
        <time>2021-07-24T16:38:57Z</time>
      </trkpt>
      <trkpt lat="43.725" lon="1.58394">
        <ele>245</ele>
        <time>2021-07-24T16:39:14Z</time>
      </trkpt>
      <trkpt lat="43.72488" lon="1.58408">
        <ele>245</ele>
        <time>2021-07-24T16:39:17Z</time>
      </trkpt>
      <trkpt lat="43.72418" lon="1.58501">
        <ele>247</ele>
        <time>2021-07-24T16:39:34Z</time>
      </trkpt>
      <trkpt lat="43.72389" lon="1.58532">
        <ele>247</ele>
        <time>2021-07-24T16:39:41Z</time>
      </trkpt>
      <trkpt lat="43.72357" lon="1.58557">
        <ele>245</ele>
        <time>2021-07-24T16:39:47Z</time>
      </trkpt>
      <trkpt lat="43.72346" lon="1.58563">
        <ele>244</ele>
        <time>2021-07-24T16:39:49Z</time>
      </trkpt>
      <trkpt lat="43.72291" lon="1.58589">
        <ele>240</ele>
        <time>2021-07-24T16:40:00Z</time>
      </trkpt>
      <trkpt lat="43.72262" lon="1.58603">
        <ele>237</ele>
        <time>2021-07-24T16:40:05Z</time>
      </trkpt>
      <trkpt lat="43.72256" lon="1.58608">
        <ele>237</ele>
        <time>2021-07-24T16:40:06Z</time>
      </trkpt>
      <trkpt lat="43.72252" lon="1.58612">
        <ele>236</ele>
        <time>2021-07-24T16:40:07Z</time>
      </trkpt>
      <trkpt lat="43.72282" lon="1.58653">
        <ele>238</ele>
        <time>2021-07-24T16:40:15Z</time>
      </trkpt>
      <trkpt lat="43.72294" lon="1.5868">
        <ele>238</ele>
        <time>2021-07-24T16:40:19Z</time>
      </trkpt>
      <trkpt lat="43.723" lon="1.58703">
        <ele>238</ele>
        <time>2021-07-24T16:40:22Z</time>
      </trkpt>
      <trkpt lat="43.72304" lon="1.58727">
        <ele>237</ele>
        <time>2021-07-24T16:40:25Z</time>
      </trkpt>
      <trkpt lat="43.72308" lon="1.58766">
        <ele>236</ele>
        <time>2021-07-24T16:40:30Z</time>
      </trkpt>
      <trkpt lat="43.72308" lon="1.58803">
        <ele>236</ele>
        <time>2021-07-24T16:40:35Z</time>
      </trkpt>
      <trkpt lat="43.72296" lon="1.58854">
        <ele>234</ele>
        <time>2021-07-24T16:40:42Z</time>
      </trkpt>
      <trkpt lat="43.72231" lon="1.59189">
        <ele>233</ele>
        <time>2021-07-24T16:41:26Z</time>
      </trkpt>
      <trkpt lat="43.72222" lon="1.59233">
        <ele>233</ele>
        <time>2021-07-24T16:41:32Z</time>
      </trkpt>
      <trkpt lat="43.72154" lon="1.59477">
        <ele>232</ele>
        <time>2021-07-24T16:42:06Z</time>
      </trkpt>
      <trkpt lat="43.72145" lon="1.59518">
        <ele>231</ele>
        <time>2021-07-24T16:42:11Z</time>
      </trkpt>
      <trkpt lat="43.7212" lon="1.59648">
        <ele>225</ele>
        <time>2021-07-24T16:42:29Z</time>
      </trkpt>
      <trkpt lat="43.7211" lon="1.59693">
        <ele>224</ele>
        <time>2021-07-24T16:42:35Z</time>
      </trkpt>
      <trkpt lat="43.7209" lon="1.59761">
        <ele>225</ele>
        <time>2021-07-24T16:42:44Z</time>
      </trkpt>
      <trkpt lat="43.72005" lon="1.59961">
        <ele>225</ele>
        <time>2021-07-24T16:43:14Z</time>
      </trkpt>
      <trkpt lat="43.71989" lon="1.60009">
        <ele>226</ele>
        <time>2021-07-24T16:43:21Z</time>
      </trkpt>
      <trkpt lat="43.71912" lon="1.60283">
        <ele>227</ele>
        <time>2021-07-24T16:43:59Z</time>
      </trkpt>
      <trkpt lat="43.71894" lon="1.60332">
        <ele>224</ele>
        <time>2021-07-24T16:44:06Z</time>
      </trkpt>
      <trkpt lat="43.71836" lon="1.60454">
        <ele>224</ele>
        <time>2021-07-24T16:44:24Z</time>
      </trkpt>
      <trkpt lat="43.71795" lon="1.60545">
        <ele>222</ele>
        <time>2021-07-24T16:44:38Z</time>
      </trkpt>
      <trkpt lat="43.71782" lon="1.60591">
        <ele>223</ele>
        <time>2021-07-24T16:44:45Z</time>
      </trkpt>
      <trkpt lat="43.71761" lon="1.60711">
        <ele>228</ele>
        <time>2021-07-24T16:45:01Z</time>
      </trkpt>
      <trkpt lat="43.71744" lon="1.60784">
        <ele>229</ele>
        <time>2021-07-24T16:45:10Z</time>
      </trkpt>
      <trkpt lat="43.71724" lon="1.60847">
        <ele>228</ele>
        <time>2021-07-24T16:45:19Z</time>
      </trkpt>
      <trkpt lat="43.71689" lon="1.60945">
        <ele>228</ele>
        <time>2021-07-24T16:45:33Z</time>
      </trkpt>
      <trkpt lat="43.71572" lon="1.61215">
        <ele>231</ele>
        <time>2021-07-24T16:46:14Z</time>
      </trkpt>
      <trkpt lat="43.71538" lon="1.61307">
        <ele>234</ele>
        <time>2021-07-24T16:46:27Z</time>
      </trkpt>
      <trkpt lat="43.71488" lon="1.61423">
        <ele>236</ele>
        <time>2021-07-24T16:46:44Z</time>
      </trkpt>
      <trkpt lat="43.71444" lon="1.61598">
        <ele>238</ele>
        <time>2021-07-24T16:47:08Z</time>
      </trkpt>
      <trkpt lat="43.71432" lon="1.61633">
        <ele>238</ele>
        <time>2021-07-24T16:47:13Z</time>
      </trkpt>
      <trkpt lat="43.71362" lon="1.61762">
        <ele>235</ele>
        <time>2021-07-24T16:47:34Z</time>
      </trkpt>
      <trkpt lat="43.71325" lon="1.61844">
        <ele>234</ele>
        <time>2021-07-24T16:47:46Z</time>
      </trkpt>
      <trkpt lat="43.71244" lon="1.62056">
        <ele>231</ele>
        <time>2021-07-24T16:48:17Z</time>
      </trkpt>
      <trkpt lat="43.71183" lon="1.62226">
        <ele>231</ele>
        <time>2021-07-24T16:48:42Z</time>
      </trkpt>
      <trkpt lat="43.71083" lon="1.62459">
        <ele>231</ele>
        <time>2021-07-24T16:49:17Z</time>
      </trkpt>
      <trkpt lat="43.71053" lon="1.62536">
        <ele>231</ele>
        <time>2021-07-24T16:49:28Z</time>
      </trkpt>
      <trkpt lat="43.71047" lon="1.62576">
        <ele>231</ele>
        <time>2021-07-24T16:49:33Z</time>
      </trkpt>
      <trkpt lat="43.71035" lon="1.62736">
        <ele>227</ele>
        <time>2021-07-24T16:49:54Z</time>
      </trkpt>
      <trkpt lat="43.71023" lon="1.62922">
        <ele>227</ele>
        <time>2021-07-24T16:50:18Z</time>
      </trkpt>
      <trkpt lat="43.7101" lon="1.63048">
        <ele>229</ele>
        <time>2021-07-24T16:50:34Z</time>
      </trkpt>
      <trkpt lat="43.70985" lon="1.63214">
        <ele>229</ele>
        <time>2021-07-24T16:50:56Z</time>
      </trkpt>
      <trkpt lat="43.70971" lon="1.63295">
        <ele>231</ele>
        <time>2021-07-24T16:51:07Z</time>
      </trkpt>
      <trkpt lat="43.7096" lon="1.63332">
        <ele>231</ele>
        <time>2021-07-24T16:51:12Z</time>
      </trkpt>
      <trkpt lat="43.70923" lon="1.63429">
        <ele>232</ele>
        <time>2021-07-24T16:51:26Z</time>
      </trkpt>
      <trkpt lat="43.70913" lon="1.63481">
        <ele>230</ele>
        <time>2021-07-24T16:51:33Z</time>
      </trkpt>
      <trkpt lat="43.70864" lon="1.63881">
        <ele>220</ele>
        <time>2021-07-24T16:52:25Z</time>
      </trkpt>
      <trkpt lat="43.70858" lon="1.63961">
        <ele>222</ele>
        <time>2021-07-24T16:52:35Z</time>
      </trkpt>
      <trkpt lat="43.70847" lon="1.64184">
        <ele>225</ele>
        <time>2021-07-24T16:53:04Z</time>
      </trkpt>
      <trkpt lat="43.70846" lon="1.64222">
        <ele>225</ele>
        <time>2021-07-24T16:53:09Z</time>
      </trkpt>
      <trkpt lat="43.70849" lon="1.6425">
        <ele>225</ele>
        <time>2021-07-24T16:53:13Z</time>
      </trkpt>
      <trkpt lat="43.70895" lon="1.64437">
        <ele>235</ele>
        <time>2021-07-24T16:53:38Z</time>
      </trkpt>
      <trkpt lat="43.70914" lon="1.64489">
        <ele>234</ele>
        <time>2021-07-24T16:53:45Z</time>
      </trkpt>
      <trkpt lat="43.70956" lon="1.64569">
        <ele>230</ele>
        <time>2021-07-24T16:53:58Z</time>
      </trkpt>
      <trkpt lat="43.70967" lon="1.64602">
        <ele>229</ele>
        <time>2021-07-24T16:54:03Z</time>
      </trkpt>
      <trkpt lat="43.70977" lon="1.64642">
        <ele>228</ele>
        <time>2021-07-24T16:54:08Z</time>
      </trkpt>
      <trkpt lat="43.7098" lon="1.64679">
        <ele>227</ele>
        <time>2021-07-24T16:54:13Z</time>
      </trkpt>
      <trkpt lat="43.70981" lon="1.6472">
        <ele>226</ele>
        <time>2021-07-24T16:54:18Z</time>
      </trkpt>
      <trkpt lat="43.70978" lon="1.64772">
        <ele>224</ele>
        <time>2021-07-24T16:54:25Z</time>
      </trkpt>
      <trkpt lat="43.70945" lon="1.65007">
        <ele>220</ele>
        <time>2021-07-24T16:54:56Z</time>
      </trkpt>
      <trkpt lat="43.70937" lon="1.65054">
        <ele>221</ele>
        <time>2021-07-24T16:55:02Z</time>
      </trkpt>
      <trkpt lat="43.70913" lon="1.65129">
        <ele>223</ele>
        <time>2021-07-24T16:55:13Z</time>
      </trkpt>
      <trkpt lat="43.70873" lon="1.65223">
        <ele>226</ele>
        <time>2021-07-24T16:55:27Z</time>
      </trkpt>
      <trkpt lat="43.70708" lon="1.65507">
        <ele>236</ele>
        <time>2021-07-24T16:56:14Z</time>
      </trkpt>
      <trkpt lat="43.7068" lon="1.65556">
        <ele>236</ele>
        <time>2021-07-24T16:56:22Z</time>
      </trkpt>
      <trkpt lat="43.70665" lon="1.6559">
        <ele>236</ele>
        <time>2021-07-24T16:56:27Z</time>
      </trkpt>
      <trkpt lat="43.70651" lon="1.65633">
        <ele>234</ele>
        <time>2021-07-24T16:56:33Z</time>
      </trkpt>
      <trkpt lat="43.70639" lon="1.65684">
        <ele>232</ele>
        <time>2021-07-24T16:56:40Z</time>
      </trkpt>
      <trkpt lat="43.7058" lon="1.65998">
        <ele>235</ele>
        <time>2021-07-24T16:57:21Z</time>
      </trkpt>
      <trkpt lat="43.70565" lon="1.66096">
        <ele>234</ele>
        <time>2021-07-24T16:57:34Z</time>
      </trkpt>
      <trkpt lat="43.70564" lon="1.66151">
        <ele>234</ele>
        <time>2021-07-24T16:57:41Z</time>
      </trkpt>
      <trkpt lat="43.70568" lon="1.66219">
        <ele>233</ele>
        <time>2021-07-24T16:57:50Z</time>
      </trkpt>
      <trkpt lat="43.70566" lon="1.66258">
        <ele>232</ele>
        <time>2021-07-24T16:57:55Z</time>
      </trkpt>
      <trkpt lat="43.70561" lon="1.66304">
        <ele>231</ele>
        <time>2021-07-24T16:58:01Z</time>
      </trkpt>
      <trkpt lat="43.70549" lon="1.66367">
        <ele>230</ele>
        <time>2021-07-24T16:58:10Z</time>
      </trkpt>
      <trkpt lat="43.70494" lon="1.66607">
        <ele>228</ele>
        <time>2021-07-24T16:58:42Z</time>
      </trkpt>
      <trkpt lat="43.7048" lon="1.66654">
        <ele>225</ele>
        <time>2021-07-24T16:58:48Z</time>
      </trkpt>
      <trkpt lat="43.70464" lon="1.66696">
        <ele>223</ele>
        <time>2021-07-24T16:58:55Z</time>
      </trkpt>
      <trkpt lat="43.70454" lon="1.66725">
        <ele>222</ele>
        <time>2021-07-24T16:58:59Z</time>
      </trkpt>
      <trkpt lat="43.70436" lon="1.66827">
        <ele>223</ele>
        <time>2021-07-24T16:59:12Z</time>
      </trkpt>
      <trkpt lat="43.70427" lon="1.66859">
        <ele>224</ele>
        <time>2021-07-24T16:59:17Z</time>
      </trkpt>
      <trkpt lat="43.70412" lon="1.66891">
        <ele>226</ele>
        <time>2021-07-24T16:59:22Z</time>
      </trkpt>
      <trkpt lat="43.70357" lon="1.6698">
        <ele>225</ele>
        <time>2021-07-24T16:59:37Z</time>
      </trkpt>
      <trkpt lat="43.70346" lon="1.67007">
        <ele>226</ele>
        <time>2021-07-24T16:59:41Z</time>
      </trkpt>
      <trkpt lat="43.70316" lon="1.67102">
        <ele>226</ele>
        <time>2021-07-24T16:59:54Z</time>
      </trkpt>
      <trkpt lat="43.70302" lon="1.67136">
        <ele>226</ele>
        <time>2021-07-24T16:59:59Z</time>
      </trkpt>
      <trkpt lat="43.70289" lon="1.67162">
        <ele>227</ele>
        <time>2021-07-24T17:00:03Z</time>
      </trkpt>
      <trkpt lat="43.7027" lon="1.67194">
        <ele>227</ele>
        <time>2021-07-24T17:00:08Z</time>
      </trkpt>
      <trkpt lat="43.70195" lon="1.67306">
        <ele>227</ele>
        <time>2021-07-24T17:00:28Z</time>
      </trkpt>
      <trkpt lat="43.70166" lon="1.67358">
        <ele>229</ele>
        <time>2021-07-24T17:00:36Z</time>
      </trkpt>
      <trkpt lat="43.70134" lon="1.67433">
        <ele>226</ele>
        <time>2021-07-24T17:00:48Z</time>
      </trkpt>
      <trkpt lat="43.7011" lon="1.67508">
        <ele>225</ele>
        <time>2021-07-24T17:00:58Z</time>
      </trkpt>
      <trkpt lat="43.70099" lon="1.67566">
        <ele>227</ele>
        <time>2021-07-24T17:01:06Z</time>
      </trkpt>
      <trkpt lat="43.70083" lon="1.67684">
        <ele>234</ele>
        <time>2021-07-24T17:01:21Z</time>
      </trkpt>
      <trkpt lat="43.70079" lon="1.67742">
        <ele>235</ele>
        <time>2021-07-24T17:01:29Z</time>
      </trkpt>
      <trkpt lat="43.7008" lon="1.67788">
        <ele>234</ele>
        <time>2021-07-24T17:01:35Z</time>
      </trkpt>
      <trkpt lat="43.70095" lon="1.67954">
        <ele>229</ele>
        <time>2021-07-24T17:01:56Z</time>
      </trkpt>
      <trkpt lat="43.70093" lon="1.68017">
        <ele>229</ele>
        <time>2021-07-24T17:02:04Z</time>
      </trkpt>
      <trkpt lat="43.70088" lon="1.68061">
        <ele>228</ele>
        <time>2021-07-24T17:02:10Z</time>
      </trkpt>
      <trkpt lat="43.70076" lon="1.68139">
        <ele>229</ele>
        <time>2021-07-24T17:02:20Z</time>
      </trkpt>
      <trkpt lat="43.70059" lon="1.68208">
        <ele>229</ele>
        <time>2021-07-24T17:02:30Z</time>
      </trkpt>
      <trkpt lat="43.70033" lon="1.68293">
        <ele>229</ele>
        <time>2021-07-24T17:02:42Z</time>
      </trkpt>
      <trkpt lat="43.7002" lon="1.68328">
        <ele>230</ele>
        <time>2021-07-24T17:02:47Z</time>
      </trkpt>
      <trkpt lat="43.70003" lon="1.68361">
        <ele>230</ele>
        <time>2021-07-24T17:02:52Z</time>
      </trkpt>
      <trkpt lat="43.69977" lon="1.68402">
        <ele>230</ele>
        <time>2021-07-24T17:02:59Z</time>
      </trkpt>
      <trkpt lat="43.69911" lon="1.68488">
        <ele>230</ele>
        <time>2021-07-24T17:03:15Z</time>
      </trkpt>
      <trkpt lat="43.6987" lon="1.68537">
        <ele>231</ele>
        <time>2021-07-24T17:03:25Z</time>
      </trkpt>
      <trkpt lat="43.69854" lon="1.68561">
        <ele>231</ele>
        <time>2021-07-24T17:03:29Z</time>
      </trkpt>
      <trkpt lat="43.69836" lon="1.68599">
        <ele>232</ele>
        <time>2021-07-24T17:03:35Z</time>
      </trkpt>
      <trkpt lat="43.69816" lon="1.6865">
        <ele>233</ele>
        <time>2021-07-24T17:03:42Z</time>
      </trkpt>
      <trkpt lat="43.69795" lon="1.68709">
        <ele>233</ele>
        <time>2021-07-24T17:03:51Z</time>
      </trkpt>
      <trkpt lat="43.69773" lon="1.68772">
        <ele>234</ele>
        <time>2021-07-24T17:04:00Z</time>
      </trkpt>
      <trkpt lat="43.69666" lon="1.69088">
        <ele>235</ele>
        <time>2021-07-24T17:04:45Z</time>
      </trkpt>
      <trkpt lat="43.69657" lon="1.69114">
        <ele>234</ele>
        <time>2021-07-24T17:04:48Z</time>
      </trkpt>
      <trkpt lat="43.69647" lon="1.69152">
        <ele>233</ele>
        <time>2021-07-24T17:04:53Z</time>
      </trkpt>
      <trkpt lat="43.69597" lon="1.69383">
        <ele>229</ele>
        <time>2021-07-24T17:05:24Z</time>
      </trkpt>
      <trkpt lat="43.6959" lon="1.69425">
        <ele>228</ele>
        <time>2021-07-24T17:05:30Z</time>
      </trkpt>
      <trkpt lat="43.69589" lon="1.6945">
        <ele>229</ele>
        <time>2021-07-24T17:05:33Z</time>
      </trkpt>
      <trkpt lat="43.6959" lon="1.69461">
        <ele>229</ele>
        <time>2021-07-24T17:05:35Z</time>
      </trkpt>
      <trkpt lat="43.69595" lon="1.69484">
        <ele>228</ele>
        <time>2021-07-24T17:05:38Z</time>
      </trkpt>
      <trkpt lat="43.696" lon="1.69502">
        <ele>228</ele>
        <time>2021-07-24T17:05:40Z</time>
      </trkpt>
      <trkpt lat="43.69612" lon="1.69533">
        <ele>228</ele>
        <time>2021-07-24T17:05:45Z</time>
      </trkpt>
      <trkpt lat="43.69627" lon="1.69572">
        <ele>228</ele>
        <time>2021-07-24T17:05:50Z</time>
      </trkpt>
      <trkpt lat="43.69643" lon="1.69603">
        <ele>228</ele>
        <time>2021-07-24T17:05:55Z</time>
      </trkpt>
      <trkpt lat="43.69663" lon="1.69633">
        <ele>228</ele>
        <time>2021-07-24T17:06:01Z</time>
      </trkpt>
      <trkpt lat="43.69737" lon="1.69736">
        <ele>229</ele>
        <time>2021-07-24T17:06:19Z</time>
      </trkpt>
      <trkpt lat="43.69748" lon="1.69753">
        <ele>230</ele>
        <time>2021-07-24T17:06:22Z</time>
      </trkpt>
      <trkpt lat="43.69754" lon="1.69772">
        <ele>230</ele>
        <time>2021-07-24T17:06:25Z</time>
      </trkpt>
      <trkpt lat="43.69761" lon="1.69808">
        <ele>229</ele>
        <time>2021-07-24T17:06:30Z</time>
      </trkpt>
      <trkpt lat="43.69764" lon="1.69843">
        <ele>229</ele>
        <time>2021-07-24T17:06:34Z</time>
      </trkpt>
      <trkpt lat="43.69767" lon="1.69862">
        <ele>229</ele>
        <time>2021-07-24T17:06:37Z</time>
      </trkpt>
      <trkpt lat="43.69776" lon="1.69886">
        <ele>228</ele>
        <time>2021-07-24T17:06:40Z</time>
      </trkpt>
      <trkpt lat="43.69808" lon="1.69958">
        <ele>227</ele>
        <time>2021-07-24T17:06:51Z</time>
      </trkpt>
      <trkpt lat="43.69818" lon="1.69989">
        <ele>227</ele>
        <time>2021-07-24T17:06:55Z</time>
      </trkpt>
      <trkpt lat="43.69823" lon="1.70026">
        <ele>228</ele>
        <time>2021-07-24T17:07:00Z</time>
      </trkpt>
      <trkpt lat="43.69823" lon="1.70059">
        <ele>228</ele>
        <time>2021-07-24T17:07:04Z</time>
      </trkpt>
      <trkpt lat="43.69819" lon="1.70093">
        <ele>229</ele>
        <time>2021-07-24T17:07:09Z</time>
      </trkpt>
      <trkpt lat="43.69733" lon="1.70534">
        <ele>235</ele>
        <time>2021-07-24T17:08:08Z</time>
      </trkpt>
      <trkpt lat="43.69689" lon="1.70756">
        <ele>234</ele>
        <time>2021-07-24T17:08:37Z</time>
      </trkpt>
      <trkpt lat="43.69626" lon="1.71006">
        <ele>235</ele>
        <time>2021-07-24T17:09:11Z</time>
      </trkpt>
      <trkpt lat="43.69623" lon="1.71029">
        <ele>234</ele>
        <time>2021-07-24T17:09:14Z</time>
      </trkpt>
      <trkpt lat="43.69618" lon="1.71242">
        <ele>233</ele>
        <time>2021-07-24T17:09:42Z</time>
      </trkpt>
      <trkpt lat="43.69614" lon="1.71272">
        <ele>233</ele>
        <time>2021-07-24T17:09:46Z</time>
      </trkpt>
      <trkpt lat="43.69608" lon="1.71298">
        <ele>234</ele>
        <time>2021-07-24T17:09:49Z</time>
      </trkpt>
      <trkpt lat="43.69547" lon="1.71546">
        <ele>236</ele>
        <time>2021-07-24T17:10:23Z</time>
      </trkpt>
      <trkpt lat="43.69532" lon="1.71596">
        <ele>236</ele>
        <time>2021-07-24T17:10:30Z</time>
      </trkpt>
      <trkpt lat="43.69509" lon="1.7164">
        <ele>239</ele>
        <time>2021-07-24T17:10:37Z</time>
      </trkpt>
      <trkpt lat="43.69496" lon="1.71658">
        <ele>240</ele>
        <time>2021-07-24T17:10:40Z</time>
      </trkpt>
      <trkpt lat="43.69491" lon="1.71666">
        <ele>241</ele>
        <time>2021-07-24T17:10:41Z</time>
      </trkpt>
      <trkpt lat="43.69478" lon="1.71682">
        <ele>240</ele>
        <time>2021-07-24T17:10:45Z</time>
      </trkpt>
      <trkpt lat="43.69406" lon="1.71766">
        <ele>241</ele>
        <time>2021-07-24T17:11:01Z</time>
      </trkpt>
      <trkpt lat="43.69384" lon="1.7179">
        <ele>241</ele>
        <time>2021-07-24T17:11:06Z</time>
      </trkpt>
      <trkpt lat="43.69363" lon="1.71816">
        <ele>241</ele>
        <time>2021-07-24T17:11:11Z</time>
      </trkpt>
      <trkpt lat="43.69315" lon="1.71873">
        <ele>241</ele>
        <time>2021-07-24T17:11:23Z</time>
      </trkpt>
      <trkpt lat="43.69275" lon="1.71917">
        <ele>243</ele>
        <time>2021-07-24T17:11:32Z</time>
      </trkpt>
      <trkpt lat="43.69252" lon="1.71952">
        <ele>244</ele>
        <time>2021-07-24T17:11:38Z</time>
      </trkpt>
      <trkpt lat="43.69237" lon="1.71979">
        <ele>243</ele>
        <time>2021-07-24T17:11:42Z</time>
      </trkpt>
      <trkpt lat="43.69227" lon="1.72004">
        <ele>243</ele>
        <time>2021-07-24T17:11:46Z</time>
      </trkpt>
      <trkpt lat="43.69215" lon="1.72043">
        <ele>242</ele>
        <time>2021-07-24T17:11:51Z</time>
      </trkpt>
      <trkpt lat="43.69193" lon="1.72146">
        <ele>242</ele>
        <time>2021-07-24T17:12:05Z</time>
      </trkpt>
      <trkpt lat="43.69183" lon="1.7219">
        <ele>242</ele>
        <time>2021-07-24T17:12:11Z</time>
      </trkpt>
      <trkpt lat="43.69175" lon="1.72216">
        <ele>242</ele>
        <time>2021-07-24T17:12:15Z</time>
      </trkpt>
      <trkpt lat="43.6916" lon="1.72253">
        <ele>241</ele>
        <time>2021-07-24T17:12:20Z</time>
      </trkpt>
      <trkpt lat="43.6915" lon="1.72273">
        <ele>241</ele>
        <time>2021-07-24T17:12:23Z</time>
      </trkpt>
      <trkpt lat="43.6885" lon="1.72879">
        <ele>240</ele>
        <time>2021-07-24T17:13:58Z</time>
      </trkpt>
      <trkpt lat="43.68706" lon="1.73143">
        <ele>241</ele>
        <time>2021-07-24T17:14:40Z</time>
      </trkpt>
      <trkpt lat="43.68674" lon="1.73207">
        <ele>242</ele>
        <time>2021-07-24T17:14:50Z</time>
      </trkpt>
      <trkpt lat="43.68638" lon="1.73288">
        <ele>241</ele>
        <time>2021-07-24T17:15:03Z</time>
      </trkpt>
      <trkpt lat="43.68536" lon="1.73527">
        <ele>241</ele>
        <time>2021-07-24T17:15:38Z</time>
      </trkpt>
      <trkpt lat="43.68519" lon="1.73566">
        <ele>241</ele>
        <time>2021-07-24T17:15:44Z</time>
      </trkpt>
      <trkpt lat="43.68384" lon="1.73883">
        <ele>240</ele>
        <time>2021-07-24T17:16:31Z</time>
      </trkpt>
      <trkpt lat="43.68368" lon="1.7392">
        <ele>240</ele>
        <time>2021-07-24T17:16:37Z</time>
      </trkpt>
      <trkpt lat="43.68308" lon="1.74045">
        <ele>242</ele>
        <time>2021-07-24T17:16:56Z</time>
      </trkpt>
      <trkpt lat="43.68262" lon="1.74127">
        <ele>243</ele>
        <time>2021-07-24T17:17:10Z</time>
      </trkpt>
      <trkpt lat="43.68258" lon="1.74135">
        <ele>244</ele>
        <time>2021-07-24T17:17:11Z</time>
      </trkpt>
      <trkpt lat="43.68245" lon="1.74156">
        <ele>244</ele>
        <time>2021-07-24T17:17:14Z</time>
      </trkpt>
      <trkpt lat="43.68203" lon="1.74216">
        <ele>240</ele>
        <time>2021-07-24T17:17:25Z</time>
      </trkpt>
      <trkpt lat="43.68097" lon="1.74344">
        <ele>239</ele>
        <time>2021-07-24T17:17:50Z</time>
      </trkpt>
      <trkpt lat="43.68081" lon="1.74369">
        <ele>240</ele>
        <time>2021-07-24T17:17:55Z</time>
      </trkpt>
      <trkpt lat="43.68033" lon="1.74455">
        <ele>239</ele>
        <time>2021-07-24T17:18:09Z</time>
      </trkpt>
      <trkpt lat="43.68005" lon="1.74498">
        <ele>240</ele>
        <time>2021-07-24T17:18:16Z</time>
      </trkpt>
      <trkpt lat="43.67936" lon="1.7459">
        <ele>242</ele>
        <time>2021-07-24T17:18:33Z</time>
      </trkpt>
      <trkpt lat="43.67895" lon="1.74638">
        <ele>242</ele>
        <time>2021-07-24T17:18:43Z</time>
      </trkpt>
      <trkpt lat="43.67863" lon="1.74663">
        <ele>242</ele>
        <time>2021-07-24T17:18:49Z</time>
      </trkpt>
      <trkpt lat="43.67817" lon="1.74545">
        <ele>241</ele>
        <time>2021-07-24T17:19:06Z</time>
      </trkpt>
      <trkpt lat="43.67808" lon="1.74556">
        <ele>241</ele>
        <time>2021-07-24T17:19:08Z</time>
      </trkpt>
      <trkpt lat="43.6769" lon="1.74786">
        <ele>244</ele>
        <time>2021-07-24T17:19:45Z</time>
      </trkpt>
      <trkpt lat="43.67682" lon="1.74809">
        <ele>244</ele>
        <time>2021-07-24T17:19:48Z</time>
      </trkpt>
      <trkpt lat="43.67663" lon="1.74894">
        <ele>242</ele>
        <time>2021-07-24T17:20:00Z</time>
      </trkpt>
      <trkpt lat="43.67656" lon="1.74914">
        <ele>241</ele>
        <time>2021-07-24T17:20:02Z</time>
      </trkpt>
      <trkpt lat="43.67644" lon="1.74936">
        <ele>239</ele>
        <time>2021-07-24T17:20:06Z</time>
      </trkpt>
      <trkpt lat="43.67641" lon="1.74946">
        <ele>239</ele>
        <time>2021-07-24T17:20:07Z</time>
      </trkpt>
      <trkpt lat="43.67635" lon="1.74972">
        <ele>238</ele>
        <time>2021-07-24T17:20:11Z</time>
      </trkpt>
      <trkpt lat="43.67636" lon="1.74999">
        <ele>238</ele>
        <time>2021-07-24T17:20:14Z</time>
      </trkpt>
      <trkpt lat="43.67658" lon="1.75088">
        <ele>243</ele>
        <time>2021-07-24T17:20:26Z</time>
      </trkpt>
      <trkpt lat="43.67664" lon="1.75121">
        <ele>243</ele>
        <time>2021-07-24T17:20:31Z</time>
      </trkpt>
      <trkpt lat="43.67666" lon="1.75144">
        <ele>242</ele>
        <time>2021-07-24T17:20:34Z</time>
      </trkpt>
      <trkpt lat="43.67665" lon="1.75162">
        <ele>241</ele>
        <time>2021-07-24T17:20:36Z</time>
      </trkpt>
      <trkpt lat="43.67654" lon="1.75228">
        <ele>236</ele>
        <time>2021-07-24T17:20:45Z</time>
      </trkpt>
      <trkpt lat="43.6763" lon="1.75409">
        <ele>227</ele>
        <time>2021-07-24T17:21:08Z</time>
      </trkpt>
      <trkpt lat="43.67616" lon="1.75494">
        <ele>225</ele>
        <time>2021-07-24T17:21:20Z</time>
      </trkpt>
      <trkpt lat="43.67593" lon="1.75594">
        <ele>224</ele>
        <time>2021-07-24T17:21:33Z</time>
      </trkpt>
      <trkpt lat="43.67564" lon="1.75681">
        <ele>221</ele>
        <time>2021-07-24T17:21:46Z</time>
      </trkpt>
      <trkpt lat="43.67554" lon="1.75713">
        <ele>220</ele>
        <time>2021-07-24T17:21:50Z</time>
      </trkpt>
      <trkpt lat="43.67538" lon="1.75775">
        <ele>219</ele>
        <time>2021-07-24T17:21:58Z</time>
      </trkpt>
      <trkpt lat="43.67532" lon="1.75818">
        <ele>218</ele>
        <time>2021-07-24T17:22:04Z</time>
      </trkpt>
      <trkpt lat="43.67529" lon="1.75872">
        <ele>217</ele>
        <time>2021-07-24T17:22:11Z</time>
      </trkpt>
      <trkpt lat="43.6753" lon="1.75894">
        <ele>217</ele>
        <time>2021-07-24T17:22:14Z</time>
      </trkpt>
      <trkpt lat="43.67538" lon="1.75924">
        <ele>217</ele>
        <time>2021-07-24T17:22:18Z</time>
      </trkpt>
      <trkpt lat="43.67545" lon="1.75973">
        <ele>216</ele>
        <time>2021-07-24T17:22:24Z</time>
      </trkpt>
      <trkpt lat="43.67557" lon="1.76123">
        <ele>207</ele>
        <time>2021-07-24T17:22:44Z</time>
      </trkpt>
      <trkpt lat="43.67568" lon="1.76211">
        <ele>200</ele>
        <time>2021-07-24T17:22:55Z</time>
      </trkpt>
      <trkpt lat="43.67576" lon="1.76248">
        <ele>198</ele>
        <time>2021-07-24T17:23:00Z</time>
      </trkpt>
      <trkpt lat="43.67612" lon="1.76367">
        <ele>192</ele>
        <time>2021-07-24T17:23:17Z</time>
      </trkpt>
      <trkpt lat="43.67624" lon="1.76415">
        <ele>189</ele>
        <time>2021-07-24T17:23:23Z</time>
      </trkpt>
      <trkpt lat="43.67626" lon="1.76432">
        <ele>187</ele>
        <time>2021-07-24T17:23:26Z</time>
      </trkpt>
      <trkpt lat="43.67623" lon="1.76451">
        <ele>185</ele>
        <time>2021-07-24T17:23:28Z</time>
      </trkpt>
      <trkpt lat="43.6761" lon="1.76499">
        <ele>182</ele>
        <time>2021-07-24T17:23:35Z</time>
      </trkpt>
      <trkpt lat="43.67555" lon="1.76654">
        <ele>170</ele>
        <time>2021-07-24T17:23:57Z</time>
      </trkpt>
      <trkpt lat="43.67534" lon="1.7671">
        <ele>172</ele>
        <time>2021-07-24T17:24:05Z</time>
      </trkpt>
      <trkpt lat="43.67557" lon="1.76736">
        <ele>172</ele>
        <time>2021-07-24T17:24:10Z</time>
      </trkpt>
      <trkpt lat="43.6758" lon="1.7677">
        <ele>173</ele>
        <time>2021-07-24T17:24:16Z</time>
      </trkpt>
      <trkpt lat="43.6761" lon="1.76829">
        <ele>179</ele>
        <time>2021-07-24T17:24:26Z</time>
      </trkpt>
      <trkpt lat="43.67628" lon="1.7687">
        <ele>181</ele>
        <time>2021-07-24T17:24:32Z</time>
      </trkpt>
      <trkpt lat="43.67645" lon="1.76922">
        <ele>181</ele>
        <time>2021-07-24T17:24:39Z</time>
      </trkpt>
      <trkpt lat="43.6766" lon="1.76991">
        <ele>178</ele>
        <time>2021-07-24T17:24:48Z</time>
      </trkpt>
      <trkpt lat="43.67674" lon="1.77114">
        <ele>170</ele>
        <time>2021-07-24T17:25:05Z</time>
      </trkpt>
      <trkpt lat="43.67683" lon="1.77146">
        <ele>169</ele>
        <time>2021-07-24T17:25:09Z</time>
      </trkpt>
      <trkpt lat="43.67717" lon="1.77229">
        <ele>167</ele>
        <time>2021-07-24T17:25:21Z</time>
      </trkpt>
      <trkpt lat="43.6773" lon="1.77257">
        <ele>167</ele>
        <time>2021-07-24T17:25:25Z</time>
      </trkpt>
      <trkpt lat="43.67839" lon="1.7739">
        <ele>168</ele>
        <time>2021-07-24T17:25:51Z</time>
      </trkpt>
      <trkpt lat="43.6789" lon="1.7747">
        <ele>164</ele>
        <time>2021-07-24T17:26:05Z</time>
      </trkpt>
      <trkpt lat="43.67906" lon="1.77487">
        <ele>163</ele>
        <time>2021-07-24T17:26:09Z</time>
      </trkpt>
      <trkpt lat="43.67928" lon="1.77501">
        <ele>163</ele>
        <time>2021-07-24T17:26:13Z</time>
      </trkpt>
      <trkpt lat="43.67972" lon="1.77514">
        <ele>166</ele>
        <time>2021-07-24T17:26:21Z</time>
      </trkpt>
      <trkpt lat="43.67992" lon="1.77524">
        <ele>167</ele>
        <time>2021-07-24T17:26:25Z</time>
      </trkpt>
      <trkpt lat="43.6801" lon="1.77536">
        <ele>167</ele>
        <time>2021-07-24T17:26:28Z</time>
      </trkpt>
      <trkpt lat="43.68041" lon="1.77565">
        <ele>168</ele>
        <time>2021-07-24T17:26:35Z</time>
      </trkpt>
      <trkpt lat="43.68063" lon="1.77589">
        <ele>168</ele>
        <time>2021-07-24T17:26:40Z</time>
      </trkpt>
      <trkpt lat="43.68086" lon="1.77619">
        <ele>168</ele>
        <time>2021-07-24T17:26:46Z</time>
      </trkpt>
      <trkpt lat="43.68126" lon="1.77675">
        <ele>169</ele>
        <time>2021-07-24T17:26:56Z</time>
      </trkpt>
      <trkpt lat="43.68138" lon="1.777">
        <ele>170</ele>
        <time>2021-07-24T17:27:00Z</time>
      </trkpt>
      <trkpt lat="43.68185" lon="1.77822">
        <ele>163</ele>
        <time>2021-07-24T17:27:17Z</time>
      </trkpt>
      <trkpt lat="43.68196" lon="1.7784">
        <ele>163</ele>
        <time>2021-07-24T17:27:20Z</time>
      </trkpt>
      <trkpt lat="43.68213" lon="1.77858">
        <ele>163</ele>
        <time>2021-07-24T17:27:24Z</time>
      </trkpt>
      <trkpt lat="43.68247" lon="1.7789">
        <ele>162</ele>
        <time>2021-07-24T17:27:32Z</time>
      </trkpt>
      <trkpt lat="43.68265" lon="1.77911">
        <ele>161</ele>
        <time>2021-07-24T17:27:36Z</time>
      </trkpt>
      <trkpt lat="43.68296" lon="1.77969">
        <ele>161</ele>
        <time>2021-07-24T17:27:45Z</time>
      </trkpt>
      <trkpt lat="43.6831" lon="1.78">
        <ele>160</ele>
        <time>2021-07-24T17:27:50Z</time>
      </trkpt>
      <trkpt lat="43.68337" lon="1.78071">
        <ele>159</ele>
        <time>2021-07-24T17:28:00Z</time>
      </trkpt>
      <trkpt lat="43.68375" lon="1.78194">
        <ele>156</ele>
        <time>2021-07-24T17:28:17Z</time>
      </trkpt>
      <trkpt lat="43.68399" lon="1.7825">
        <ele>156</ele>
        <time>2021-07-24T17:28:26Z</time>
      </trkpt>
      <trkpt lat="43.68432" lon="1.7831">
        <ele>156</ele>
        <time>2021-07-24T17:28:35Z</time>
      </trkpt>
      <trkpt lat="43.68474" lon="1.78377">
        <ele>158</ele>
        <time>2021-07-24T17:28:47Z</time>
      </trkpt>
      <trkpt lat="43.68504" lon="1.78442">
        <ele>158</ele>
        <time>2021-07-24T17:28:57Z</time>
      </trkpt>
      <trkpt lat="43.68535" lon="1.78526">
        <ele>157</ele>
        <time>2021-07-24T17:29:09Z</time>
      </trkpt>
      <trkpt lat="43.68588" lon="1.7869">
        <ele>155</ele>
        <time>2021-07-24T17:29:32Z</time>
      </trkpt>
      <trkpt lat="43.68603" lon="1.78774">
        <ele>154</ele>
        <time>2021-07-24T17:29:43Z</time>
      </trkpt>
      <trkpt lat="43.68613" lon="1.78865">
        <ele>153</ele>
        <time>2021-07-24T17:29:55Z</time>
      </trkpt>
      <trkpt lat="43.68635" lon="1.7915">
        <ele>153</ele>
        <time>2021-07-24T17:30:32Z</time>
      </trkpt>
      <trkpt lat="43.68641" lon="1.79196">
        <ele>153</ele>
        <time>2021-07-24T17:30:38Z</time>
      </trkpt>
      <trkpt lat="43.68653" lon="1.79241">
        <ele>154</ele>
        <time>2021-07-24T17:30:44Z</time>
      </trkpt>
      <trkpt lat="43.68686" lon="1.79335">
        <ele>153</ele>
        <time>2021-07-24T17:30:57Z</time>
      </trkpt>
      <trkpt lat="43.68705" lon="1.79378">
        <ele>154</ele>
        <time>2021-07-24T17:31:04Z</time>
      </trkpt>
      <trkpt lat="43.68736" lon="1.79419">
        <ele>155</ele>
        <time>2021-07-24T17:31:11Z</time>
      </trkpt>
      <trkpt lat="43.68905" lon="1.79623">
        <ele>158</ele>
        <time>2021-07-24T17:31:51Z</time>
      </trkpt>
      <trkpt lat="43.69016" lon="1.79768">
        <ele>157</ele>
        <time>2021-07-24T17:32:19Z</time>
      </trkpt>
      <trkpt lat="43.69167" lon="1.80028">
        <ele>154</ele>
        <time>2021-07-24T17:33:01Z</time>
      </trkpt>
      <trkpt lat="43.69165" lon="1.80032">
        <ele>154</ele>
        <time>2021-07-24T17:33:02Z</time>
      </trkpt>
      <trkpt lat="43.69163" lon="1.8004">
        <ele>153</ele>
        <time>2021-07-24T17:33:03Z</time>
      </trkpt>
      <trkpt lat="43.69165" lon="1.8005">
        <ele>153</ele>
        <time>2021-07-24T17:33:05Z</time>
      </trkpt>
      <trkpt lat="43.69172" lon="1.80057">
        <ele>153</ele>
        <time>2021-07-24T17:33:06Z</time>
      </trkpt>
      <trkpt lat="43.69179" lon="1.80056">
        <ele>154</ele>
        <time>2021-07-24T17:33:07Z</time>
      </trkpt>
      <trkpt lat="43.69183" lon="1.80052">
        <ele>154</ele>
        <time>2021-07-24T17:33:08Z</time>
      </trkpt>
      <trkpt lat="43.69576" lon="1.80711">
        <ele>145</ele>
        <time>2021-07-24T17:34:58Z</time>
      </trkpt>
      <trkpt lat="43.69589" lon="1.80734">
        <ele>144</ele>
        <time>2021-07-24T17:35:02Z</time>
      </trkpt>
      <trkpt lat="43.69603" lon="1.80765">
        <ele>144</ele>
        <time>2021-07-24T17:35:07Z</time>
      </trkpt>
      <trkpt lat="43.69614" lon="1.80792">
        <ele>143</ele>
        <time>2021-07-24T17:35:11Z</time>
      </trkpt>
      <trkpt lat="43.69625" lon="1.80827">
        <ele>144</ele>
        <time>2021-07-24T17:35:15Z</time>
      </trkpt>
      <trkpt lat="43.69677" lon="1.81019">
        <ele>143</ele>
        <time>2021-07-24T17:35:42Z</time>
      </trkpt>
      <trkpt lat="43.69819" lon="1.80996">
        <ele>145</ele>
        <time>2021-07-24T17:36:07Z</time>
      </trkpt>
      <trkpt lat="43.69865" lon="1.8099">
        <ele>144</ele>
        <time>2021-07-24T17:36:15Z</time>
      </trkpt>
      <trkpt lat="43.69873" lon="1.80995">
        <ele>144</ele>
        <time>2021-07-24T17:36:17Z</time>
      </trkpt>
      <trkpt lat="43.69882" lon="1.81005">
        <ele>144</ele>
        <time>2021-07-24T17:36:19Z</time>
      </trkpt>
      <trkpt lat="43.69882" lon="1.8101">
        <ele>144</ele>
        <time>2021-07-24T17:36:20Z</time>
      </trkpt>
      <trkpt lat="43.69886" lon="1.81018">
        <ele>144</ele>
        <time>2021-07-24T17:36:21Z</time>
      </trkpt>
      <trkpt lat="43.69891" lon="1.81021">
        <ele>143</ele>
        <time>2021-07-24T17:36:22Z</time>
      </trkpt>
      <trkpt lat="43.69897" lon="1.81021">
        <ele>143</ele>
        <time>2021-07-24T17:36:23Z</time>
      </trkpt>
      <trkpt lat="43.69904" lon="1.81015">
        <ele>143</ele>
        <time>2021-07-24T17:36:24Z</time>
      </trkpt>
      <trkpt lat="43.69918" lon="1.80991">
        <ele>143</ele>
        <time>2021-07-24T17:36:28Z</time>
      </trkpt>
      <trkpt lat="43.69926" lon="1.81007">
        <ele>143</ele>
        <time>2021-07-24T17:36:31Z</time>
      </trkpt>
      <trkpt lat="43.69952" lon="1.81043">
        <ele>143</ele>
        <time>2021-07-24T17:36:38Z</time>
      </trkpt>
      <trkpt lat="43.69963" lon="1.81056">
        <ele>142</ele>
        <time>2021-07-24T17:36:40Z</time>
      </trkpt>
      <trkpt lat="43.70044" lon="1.81172">
        <ele>142</ele>
        <time>2021-07-24T17:37:01Z</time>
      </trkpt>
      <trkpt lat="43.70095" lon="1.81247">
        <ele>142</ele>
        <time>2021-07-24T17:37:14Z</time>
      </trkpt>
      <trkpt lat="43.70098" lon="1.81251">
        <ele>142</ele>
        <time>2021-07-24T17:37:15Z</time>
      </trkpt>
      <trkpt lat="43.70112" lon="1.81271">
        <ele>142</ele>
        <time>2021-07-24T17:37:18Z</time>
      </trkpt>
      <trkpt lat="43.70119" lon="1.81282">
        <ele>143</ele>
        <time>2021-07-24T17:37:20Z</time>
      </trkpt>
      <trkpt lat="43.70128" lon="1.81295">
        <ele>143</ele>
        <time>2021-07-24T17:37:23Z</time>
      </trkpt>
      <trkpt lat="43.70209" lon="1.81411">
        <ele>143</ele>
        <time>2021-07-24T17:37:43Z</time>
      </trkpt>
      <trkpt lat="43.70215" lon="1.8142">
        <ele>143</ele>
        <time>2021-07-24T17:37:45Z</time>
      </trkpt>
      <trkpt lat="43.70214" lon="1.81424">
        <ele>143</ele>
        <time>2021-07-24T17:37:45Z</time>
      </trkpt>
      <trkpt lat="43.70215" lon="1.81433">
        <ele>143</ele>
        <time>2021-07-24T17:37:47Z</time>
      </trkpt>
      <trkpt lat="43.70216" lon="1.81437">
        <ele>143</ele>
        <time>2021-07-24T17:37:47Z</time>
      </trkpt>
      <trkpt lat="43.70219" lon="1.81441">
        <ele>143</ele>
        <time>2021-07-24T17:37:48Z</time>
      </trkpt>
      <trkpt lat="43.7022" lon="1.81442">
        <ele>143</ele>
        <time>2021-07-24T17:37:48Z</time>
      </trkpt>
      <trkpt lat="43.70218" lon="1.81503">
        <ele>143</ele>
        <time>2021-07-24T17:37:56Z</time>
      </trkpt>
      <trkpt lat="43.70217" lon="1.81515">
        <ele>143</ele>
        <time>2021-07-24T17:37:58Z</time>
      </trkpt>
      <trkpt lat="43.70211" lon="1.81579">
        <ele>144</ele>
        <time>2021-07-24T17:38:06Z</time>
      </trkpt>
      <trkpt lat="43.70209" lon="1.81595">
        <ele>145</ele>
        <time>2021-07-24T17:38:08Z</time>
      </trkpt>
      <trkpt lat="43.70208" lon="1.81608">
        <ele>145</ele>
        <time>2021-07-24T17:38:10Z</time>
      </trkpt>
      <trkpt lat="43.70205" lon="1.81648">
        <ele>145</ele>
        <time>2021-07-24T17:38:15Z</time>
      </trkpt>
      <trkpt lat="43.70195" lon="1.81748">
        <ele>146</ele>
        <time>2021-07-24T17:38:28Z</time>
      </trkpt>
      <trkpt lat="43.70194" lon="1.81771">
        <ele>145</ele>
        <time>2021-07-24T17:38:31Z</time>
      </trkpt>
      <trkpt lat="43.70189" lon="1.81825">
        <ele>145</ele>
        <time>2021-07-24T17:38:38Z</time>
      </trkpt>
      <trkpt lat="43.70186" lon="1.81864">
        <ele>145</ele>
        <time>2021-07-24T17:38:43Z</time>
      </trkpt>
      <trkpt lat="43.70185" lon="1.8188">
        <ele>145</ele>
        <time>2021-07-24T17:38:45Z</time>
      </trkpt>
      <trkpt lat="43.7018" lon="1.81919">
        <ele>146</ele>
        <time>2021-07-24T17:38:50Z</time>
      </trkpt>
      <trkpt lat="43.70178" lon="1.81933">
        <ele>146</ele>
        <time>2021-07-24T17:38:52Z</time>
      </trkpt>
      <trkpt lat="43.70171" lon="1.82021">
        <ele>145</ele>
        <time>2021-07-24T17:39:03Z</time>
      </trkpt>
      <trkpt lat="43.70168" lon="1.82045">
        <ele>145</ele>
        <time>2021-07-24T17:39:06Z</time>
      </trkpt>
      <trkpt lat="43.70163" lon="1.82047">
        <ele>145</ele>
        <time>2021-07-24T17:39:07Z</time>
      </trkpt>
      <trkpt lat="43.70161" lon="1.82052">
        <ele>145</ele>
        <time>2021-07-24T17:39:08Z</time>
      </trkpt>
      <trkpt lat="43.70161" lon="1.82054">
        <ele>145</ele>
        <time>2021-07-24T17:39:08Z</time>
      </trkpt>
      <trkpt lat="43.70165" lon="1.8206">
        <ele>145</ele>
        <time>2021-07-24T17:39:09Z</time>
      </trkpt>
      <trkpt lat="43.70167" lon="1.82061">
        <ele>145</ele>
        <time>2021-07-24T17:39:10Z</time>
      </trkpt>
      <trkpt lat="43.70166" lon="1.82074">
        <ele>144</ele>
        <time>2021-07-24T17:39:11Z</time>
      </trkpt>
      <trkpt lat="43.70166" lon="1.82076">
        <ele>144</ele>
        <time>2021-07-24T17:39:12Z</time>
      </trkpt>
      <trkpt lat="43.70164" lon="1.82094">
        <ele>144</ele>
        <time>2021-07-24T17:39:14Z</time>
      </trkpt>
      <trkpt lat="43.70153" lon="1.82215">
        <ele>139</ele>
        <time>2021-07-24T17:39:30Z</time>
      </trkpt>
      <trkpt lat="43.70151" lon="1.82233">
        <ele>138</ele>
        <time>2021-07-24T17:39:32Z</time>
      </trkpt>
      <trkpt lat="43.70148" lon="1.82264">
        <ele>135</ele>
        <time>2021-07-24T17:39:36Z</time>
      </trkpt>
      <trkpt lat="43.70146" lon="1.8229">
        <ele>132</ele>
        <time>2021-07-24T17:39:39Z</time>
      </trkpt>
      <trkpt lat="43.70136" lon="1.82404">
        <ele>127</ele>
        <time>2021-07-24T17:39:54Z</time>
      </trkpt>
      <trkpt lat="43.70095" lon="1.82849">
        <ele>134</ele>
        <time>2021-07-24T17:40:52Z</time>
      </trkpt>
      <trkpt lat="43.70082" lon="1.8301">
        <ele>134</ele>
        <time>2021-07-24T17:41:13Z</time>
      </trkpt>
      <trkpt lat="43.70074" lon="1.83082">
        <ele>132</ele>
        <time>2021-07-24T17:41:22Z</time>
      </trkpt>
      <trkpt lat="43.70047" lon="1.83392">
        <ele>133</ele>
        <time>2021-07-24T17:42:02Z</time>
      </trkpt>
      <trkpt lat="43.70006" lon="1.83827">
        <ele>135</ele>
        <time>2021-07-24T17:42:59Z</time>
      </trkpt>
      <trkpt lat="43.69965" lon="1.84291">
        <ele>144</ele>
        <time>2021-07-24T17:43:59Z</time>
      </trkpt>
      <trkpt lat="43.69939" lon="1.84546">
        <ele>145</ele>
        <time>2021-07-24T17:44:32Z</time>
      </trkpt>
      <trkpt lat="43.69907" lon="1.84902">
        <ele>145</ele>
        <time>2021-07-24T17:45:18Z</time>
      </trkpt>
      <trkpt lat="43.69899" lon="1.85069">
        <ele>146</ele>
        <time>2021-07-24T17:45:40Z</time>
      </trkpt>
      <trkpt lat="43.69896" lon="1.85233">
        <ele>144</ele>
        <time>2021-07-24T17:46:01Z</time>
      </trkpt>
      <trkpt lat="43.69898" lon="1.85553">
        <ele>145</ele>
        <time>2021-07-24T17:46:42Z</time>
      </trkpt>
      <trkpt lat="43.69898" lon="1.86008">
        <ele>147</ele>
        <time>2021-07-24T17:47:40Z</time>
      </trkpt>
      <trkpt lat="43.69908" lon="1.86079">
        <ele>147</ele>
        <time>2021-07-24T17:47:50Z</time>
      </trkpt>
      <trkpt lat="43.69961" lon="1.86393">
        <ele>147</ele>
        <time>2021-07-24T17:48:31Z</time>
      </trkpt>
      <trkpt lat="43.69997" lon="1.86591">
        <ele>148</ele>
        <time>2021-07-24T17:48:57Z</time>
      </trkpt>
      <trkpt lat="43.69994" lon="1.86608">
        <ele>147</ele>
        <time>2021-07-24T17:49:00Z</time>
      </trkpt>
      <trkpt lat="43.70002" lon="1.86663">
        <ele>147</ele>
        <time>2021-07-24T17:49:07Z</time>
      </trkpt>
      <trkpt lat="43.70006" lon="1.86709">
        <ele>148</ele>
        <time>2021-07-24T17:49:13Z</time>
      </trkpt>
      <trkpt lat="43.70003" lon="1.86748">
        <ele>148</ele>
        <time>2021-07-24T17:49:18Z</time>
      </trkpt>
      <trkpt lat="43.6999" lon="1.86837">
        <ele>147</ele>
        <time>2021-07-24T17:49:30Z</time>
      </trkpt>
      <trkpt lat="43.69977" lon="1.86892">
        <ele>145</ele>
        <time>2021-07-24T17:49:37Z</time>
      </trkpt>
      <trkpt lat="43.69965" lon="1.87003">
        <ele>143</ele>
        <time>2021-07-24T17:49:51Z</time>
      </trkpt>
      <trkpt lat="43.69967" lon="1.87051">
        <ele>144</ele>
        <time>2021-07-24T17:49:58Z</time>
      </trkpt>
      <trkpt lat="43.69961" lon="1.87139">
        <ele>142</ele>
        <time>2021-07-24T17:50:09Z</time>
      </trkpt>
      <trkpt lat="43.69953" lon="1.8719">
        <ele>140</ele>
        <time>2021-07-24T17:50:16Z</time>
      </trkpt>
      <trkpt lat="43.69942" lon="1.87227">
        <ele>138</ele>
        <time>2021-07-24T17:50:21Z</time>
      </trkpt>
      <trkpt lat="43.69926" lon="1.87261">
        <ele>135</ele>
        <time>2021-07-24T17:50:26Z</time>
      </trkpt>
      <trkpt lat="43.69898" lon="1.87278">
        <ele>134</ele>
        <time>2021-07-24T17:50:32Z</time>
      </trkpt>
      <trkpt lat="43.69878" lon="1.87294">
        <ele>135</ele>
        <time>2021-07-24T17:50:36Z</time>
      </trkpt>
      <trkpt lat="43.69855" lon="1.87315">
        <ele>135</ele>
        <time>2021-07-24T17:50:41Z</time>
      </trkpt>
      <trkpt lat="43.69837" lon="1.87347">
        <ele>136</ele>
        <time>2021-07-24T17:50:46Z</time>
      </trkpt>
      <trkpt lat="43.69832" lon="1.8737">
        <ele>136</ele>
        <time>2021-07-24T17:50:49Z</time>
      </trkpt>
      <trkpt lat="43.6983" lon="1.87402">
        <ele>137</ele>
        <time>2021-07-24T17:50:53Z</time>
      </trkpt>
      <trkpt lat="43.69839" lon="1.87499">
        <ele>138</ele>
        <time>2021-07-24T17:51:06Z</time>
      </trkpt>
      <trkpt lat="43.69837" lon="1.87537">
        <ele>139</ele>
        <time>2021-07-24T17:51:10Z</time>
      </trkpt>
      <trkpt lat="43.69825" lon="1.87587">
        <ele>140</ele>
        <time>2021-07-24T17:51:17Z</time>
      </trkpt>
      <trkpt lat="43.69812" lon="1.8761">
        <ele>141</ele>
        <time>2021-07-24T17:51:21Z</time>
      </trkpt>
      <trkpt lat="43.69779" lon="1.87646">
        <ele>142</ele>
        <time>2021-07-24T17:51:28Z</time>
      </trkpt>
      <trkpt lat="43.69735" lon="1.87698">
        <ele>142</ele>
        <time>2021-07-24T17:51:39Z</time>
      </trkpt>
      <trkpt lat="43.69594" lon="1.87894">
        <ele>140</ele>
        <time>2021-07-24T17:52:14Z</time>
      </trkpt>
      <trkpt lat="43.69572" lon="1.87932">
        <ele>140</ele>
        <time>2021-07-24T17:52:21Z</time>
      </trkpt>
      <trkpt lat="43.69558" lon="1.87963">
        <ele>139</ele>
        <time>2021-07-24T17:52:25Z</time>
      </trkpt>
      <trkpt lat="43.69529" lon="1.88046">
        <ele>137</ele>
        <time>2021-07-24T17:52:37Z</time>
      </trkpt>
      <trkpt lat="43.69463" lon="1.88256">
        <ele>136</ele>
        <time>2021-07-24T17:53:07Z</time>
      </trkpt>
      <trkpt lat="43.69453" lon="1.88323">
        <ele>136</ele>
        <time>2021-07-24T17:53:15Z</time>
      </trkpt>
      <trkpt lat="43.69427" lon="1.88608">
        <ele>137</ele>
        <time>2021-07-24T17:53:52Z</time>
      </trkpt>
      <trkpt lat="43.6942" lon="1.8866">
        <ele>137</ele>
        <time>2021-07-24T17:53:59Z</time>
      </trkpt>
      <trkpt lat="43.69404" lon="1.88743">
        <ele>137</ele>
        <time>2021-07-24T17:54:10Z</time>
      </trkpt>
      <trkpt lat="43.69381" lon="1.88856">
        <ele>138</ele>
        <time>2021-07-24T17:54:25Z</time>
      </trkpt>
      <trkpt lat="43.69348" lon="1.8899">
        <ele>138</ele>
        <time>2021-07-24T17:54:44Z</time>
      </trkpt>
      <trkpt lat="43.69264" lon="1.89293">
        <ele>137</ele>
        <time>2021-07-24T17:55:25Z</time>
      </trkpt>
      <trkpt lat="43.69255" lon="1.89358">
        <ele>137</ele>
        <time>2021-07-24T17:55:34Z</time>
      </trkpt>
      <trkpt lat="43.69242" lon="1.89481">
        <ele>139</ele>
        <time>2021-07-24T17:55:50Z</time>
      </trkpt>
      <trkpt lat="43.69249" lon="1.89563">
        <ele>139</ele>
        <time>2021-07-24T17:56:00Z</time>
      </trkpt>
      <trkpt lat="43.69246" lon="1.89581">
        <ele>139</ele>
        <time>2021-07-24T17:56:03Z</time>
      </trkpt>
      <trkpt lat="43.69239" lon="1.89592">
        <ele>139</ele>
        <time>2021-07-24T17:56:05Z</time>
      </trkpt>
      <trkpt lat="43.69231" lon="1.89674">
        <ele>139</ele>
        <time>2021-07-24T17:56:15Z</time>
      </trkpt>
      <trkpt lat="43.6922" lon="1.89866">
        <ele>140</ele>
        <time>2021-07-24T17:56:40Z</time>
      </trkpt>
      <trkpt lat="43.69228" lon="1.899">
        <ele>139</ele>
        <time>2021-07-24T17:56:45Z</time>
      </trkpt>
      <trkpt lat="43.69241" lon="1.9">
        <ele>141</ele>
        <time>2021-07-24T17:56:58Z</time>
      </trkpt>
      <trkpt lat="43.69239" lon="1.90066">
        <ele>142</ele>
        <time>2021-07-24T17:57:06Z</time>
      </trkpt>
      <trkpt lat="43.69226" lon="1.90175">
        <ele>142</ele>
        <time>2021-07-24T17:57:20Z</time>
      </trkpt>
      <trkpt lat="43.69222" lon="1.90236">
        <ele>142</ele>
        <time>2021-07-24T17:57:28Z</time>
      </trkpt>
      <trkpt lat="43.69224" lon="1.9044">
        <ele>144</ele>
        <time>2021-07-24T17:57:55Z</time>
      </trkpt>
      <trkpt lat="43.69234" lon="1.90561">
        <ele>150</ele>
        <time>2021-07-24T17:58:10Z</time>
      </trkpt>
      <trkpt lat="43.69248" lon="1.90681">
        <ele>154</ele>
        <time>2021-07-24T17:58:26Z</time>
      </trkpt>
      <trkpt lat="43.69251" lon="1.90759">
        <ele>155</ele>
        <time>2021-07-24T17:58:36Z</time>
      </trkpt>
      <trkpt lat="43.69244" lon="1.90816">
        <ele>153</ele>
        <time>2021-07-24T17:58:43Z</time>
      </trkpt>
      <trkpt lat="43.69235" lon="1.90858">
        <ele>152</ele>
        <time>2021-07-24T17:58:49Z</time>
      </trkpt>
      <trkpt lat="43.69222" lon="1.91037">
        <ele>151</ele>
        <time>2021-07-24T17:59:12Z</time>
      </trkpt>
      <trkpt lat="43.69219" lon="1.91093">
        <ele>149</ele>
        <time>2021-07-24T17:59:19Z</time>
      </trkpt>
      <trkpt lat="43.69232" lon="1.91272">
        <ele>148</ele>
        <time>2021-07-24T17:59:43Z</time>
      </trkpt>
      <trkpt lat="43.69239" lon="1.91331">
        <ele>148</ele>
        <time>2021-07-24T17:59:50Z</time>
      </trkpt>
      <trkpt lat="43.69246" lon="1.91369">
        <ele>148</ele>
        <time>2021-07-24T17:59:55Z</time>
      </trkpt>
      <trkpt lat="43.69256" lon="1.9141">
        <ele>148</ele>
        <time>2021-07-24T18:00:01Z</time>
      </trkpt>
      <trkpt lat="43.69279" lon="1.91475">
        <ele>148</ele>
        <time>2021-07-24T18:00:10Z</time>
      </trkpt>
      <trkpt lat="43.69277" lon="1.9153">
        <ele>148</ele>
        <time>2021-07-24T18:00:17Z</time>
      </trkpt>
      <trkpt lat="43.6925" lon="1.91637">
        <ele>150</ele>
        <time>2021-07-24T18:00:32Z</time>
      </trkpt>
      <trkpt lat="43.69234" lon="1.91833">
        <ele>151</ele>
        <time>2021-07-24T18:00:57Z</time>
      </trkpt>
      <trkpt lat="43.69229" lon="1.91883">
        <ele>151</ele>
        <time>2021-07-24T18:01:04Z</time>
      </trkpt>
      <trkpt lat="43.69226" lon="1.91895">
        <ele>151</ele>
        <time>2021-07-24T18:01:05Z</time>
      </trkpt>
      <trkpt lat="43.6922" lon="1.91905">
        <ele>150</ele>
        <time>2021-07-24T18:01:07Z</time>
      </trkpt>
      <trkpt lat="43.6918" lon="1.91912">
        <ele>149</ele>
        <time>2021-07-24T18:01:14Z</time>
      </trkpt>
      <trkpt lat="43.6917" lon="1.91917">
        <ele>148</ele>
        <time>2021-07-24T18:01:16Z</time>
      </trkpt>
      <trkpt lat="43.69164" lon="1.91925">
        <ele>148</ele>
        <time>2021-07-24T18:01:18Z</time>
      </trkpt>
      <trkpt lat="43.69149" lon="1.91974">
        <ele>147</ele>
        <time>2021-07-24T18:01:24Z</time>
      </trkpt>
      <trkpt lat="43.69096" lon="1.92177">
        <ele>148</ele>
        <time>2021-07-24T18:01:52Z</time>
      </trkpt>
      <trkpt lat="43.69059" lon="1.9228">
        <ele>149</ele>
        <time>2021-07-24T18:02:07Z</time>
      </trkpt>
      <trkpt lat="43.6903" lon="1.92348">
        <ele>151</ele>
        <time>2021-07-24T18:02:17Z</time>
      </trkpt>
      <trkpt lat="43.68983" lon="1.92426">
        <ele>155</ele>
        <time>2021-07-24T18:02:30Z</time>
      </trkpt>
      <trkpt lat="43.68941" lon="1.92484">
        <ele>157</ele>
        <time>2021-07-24T18:02:41Z</time>
      </trkpt>
      <trkpt lat="43.68904" lon="1.9253">
        <ele>155</ele>
        <time>2021-07-24T18:02:50Z</time>
      </trkpt>
      <trkpt lat="43.68894" lon="1.92539">
        <ele>154</ele>
        <time>2021-07-24T18:02:52Z</time>
      </trkpt>
      <trkpt lat="43.68833" lon="1.92577">
        <ele>151</ele>
        <time>2021-07-24T18:03:04Z</time>
      </trkpt>
      <trkpt lat="43.68517" lon="1.92811">
        <ele>151</ele>
        <time>2021-07-24T18:04:07Z</time>
      </trkpt>
      <trkpt lat="43.68484" lon="1.9285">
        <ele>152</ele>
        <time>2021-07-24T18:04:15Z</time>
      </trkpt>
      <trkpt lat="43.68432" lon="1.92928">
        <ele>151</ele>
        <time>2021-07-24T18:04:29Z</time>
      </trkpt>
      <trkpt lat="43.68308" lon="1.93129">
        <ele>152</ele>
        <time>2021-07-24T18:05:03Z</time>
      </trkpt>
      <trkpt lat="43.68236" lon="1.93268">
        <ele>153</ele>
        <time>2021-07-24T18:05:25Z</time>
      </trkpt>
      <trkpt lat="43.68139" lon="1.93482">
        <ele>156</ele>
        <time>2021-07-24T18:05:57Z</time>
      </trkpt>
      <trkpt lat="43.68089" lon="1.93559">
        <ele>155</ele>
        <time>2021-07-24T18:06:11Z</time>
      </trkpt>
      <trkpt lat="43.68078" lon="1.93571">
        <ele>155</ele>
        <time>2021-07-24T18:06:13Z</time>
      </trkpt>
      <trkpt lat="43.68062" lon="1.93575">
        <ele>155</ele>
        <time>2021-07-24T18:06:16Z</time>
      </trkpt>
      <trkpt lat="43.68046" lon="1.93576">
        <ele>154</ele>
        <time>2021-07-24T18:06:19Z</time>
      </trkpt>
      <trkpt lat="43.68034" lon="1.93583">
        <ele>154</ele>
        <time>2021-07-24T18:06:21Z</time>
      </trkpt>
      <trkpt lat="43.6801" lon="1.93614">
        <ele>155</ele>
        <time>2021-07-24T18:06:27Z</time>
      </trkpt>
      <trkpt lat="43.68002" lon="1.93626">
        <ele>155</ele>
        <time>2021-07-24T18:06:29Z</time>
      </trkpt>
      <trkpt lat="43.67914" lon="1.93748">
        <ele>154</ele>
        <time>2021-07-24T18:06:51Z</time>
      </trkpt>
      <trkpt lat="43.67874" lon="1.93814">
        <ele>154</ele>
        <time>2021-07-24T18:07:02Z</time>
      </trkpt>
      <trkpt lat="43.67631" lon="1.94117">
        <ele>152</ele>
        <time>2021-07-24T18:08:01Z</time>
      </trkpt>
      <trkpt lat="43.67166" lon="1.94421">
        <ele>145</ele>
        <time>2021-07-24T18:09:32Z</time>
      </trkpt>
      <trkpt lat="43.66714" lon="1.94812">
        <ele>144</ele>
        <time>2021-07-24T18:11:07Z</time>
      </trkpt>
      <trkpt lat="43.66674" lon="1.94844">
        <ele>143</ele>
        <time>2021-07-24T18:11:15Z</time>
      </trkpt>
      <trkpt lat="43.66667" lon="1.94851">
        <ele>143</ele>
        <time>2021-07-24T18:11:17Z</time>
      </trkpt>
      <trkpt lat="43.66584" lon="1.94927">
        <ele>144</ele>
        <time>2021-07-24T18:11:34Z</time>
      </trkpt>
      <trkpt lat="43.66551" lon="1.94966">
        <ele>144</ele>
        <time>2021-07-24T18:11:42Z</time>
      </trkpt>
      <trkpt lat="43.66519" lon="1.95014">
        <ele>143</ele>
        <time>2021-07-24T18:11:51Z</time>
      </trkpt>
      <trkpt lat="43.66494" lon="1.95064">
        <ele>143</ele>
        <time>2021-07-24T18:11:58Z</time>
      </trkpt>
      <trkpt lat="43.66464" lon="1.95147">
        <ele>144</ele>
        <time>2021-07-24T18:12:10Z</time>
      </trkpt>
      <trkpt lat="43.6643" lon="1.95231">
        <ele>144</ele>
        <time>2021-07-24T18:12:23Z</time>
      </trkpt>
      <trkpt lat="43.66357" lon="1.95377">
        <ele>142</ele>
        <time>2021-07-24T18:12:46Z</time>
      </trkpt>
      <trkpt lat="43.66342" lon="1.95415">
        <ele>141</ele>
        <time>2021-07-24T18:12:51Z</time>
      </trkpt>
      <trkpt lat="43.66322" lon="1.95485">
        <ele>141</ele>
        <time>2021-07-24T18:13:01Z</time>
      </trkpt>
      <trkpt lat="43.66285" lon="1.95628">
        <ele>142</ele>
        <time>2021-07-24T18:13:20Z</time>
      </trkpt>
      <trkpt lat="43.66261" lon="1.95663">
        <ele>142</ele>
        <time>2021-07-24T18:13:27Z</time>
      </trkpt>
      <trkpt lat="43.66167" lon="1.95818">
        <ele>143</ele>
        <time>2021-07-24T18:13:53Z</time>
      </trkpt>
      <trkpt lat="43.66126" lon="1.95868">
        <ele>143</ele>
        <time>2021-07-24T18:14:02Z</time>
      </trkpt>
      <trkpt lat="43.66077" lon="1.95924">
        <ele>141</ele>
        <time>2021-07-24T18:14:14Z</time>
      </trkpt>
      <trkpt lat="43.66081" lon="1.95952">
        <ele>141</ele>
        <time>2021-07-24T18:14:17Z</time>
      </trkpt>
      <trkpt lat="43.6612" lon="1.96292">
        <ele>143</ele>
        <time>2021-07-24T18:15:02Z</time>
      </trkpt>
      <trkpt lat="43.66123" lon="1.96314">
        <ele>143</ele>
        <time>2021-07-24T18:15:05Z</time>
      </trkpt>
      <trkpt lat="43.6613" lon="1.96342">
        <ele>143</ele>
        <time>2021-07-24T18:15:08Z</time>
      </trkpt>
      <trkpt lat="43.66131" lon="1.96352">
        <ele>143</ele>
        <time>2021-07-24T18:15:10Z</time>
      </trkpt>
      <trkpt lat="43.66131" lon="1.96363">
        <ele>143</ele>
        <time>2021-07-24T18:15:11Z</time>
      </trkpt>
      <trkpt lat="43.66132" lon="1.96436">
        <ele>143</ele>
        <time>2021-07-24T18:15:20Z</time>
      </trkpt>
      <trkpt lat="43.66134" lon="1.96465">
        <ele>143</ele>
        <time>2021-07-24T18:15:24Z</time>
      </trkpt>
      <trkpt lat="43.66139" lon="1.96495">
        <ele>143</ele>
        <time>2021-07-24T18:15:28Z</time>
      </trkpt>
      <trkpt lat="43.66155" lon="1.96562">
        <ele>144</ele>
        <time>2021-07-24T18:15:37Z</time>
      </trkpt>
      <trkpt lat="43.66183" lon="1.96651">
        <ele>145</ele>
        <time>2021-07-24T18:15:50Z</time>
      </trkpt>
      <trkpt lat="43.66222" lon="1.96744">
        <ele>146</ele>
        <time>2021-07-24T18:16:04Z</time>
      </trkpt>
      <trkpt lat="43.66261" lon="1.96855">
        <ele>149</ele>
        <time>2021-07-24T18:16:19Z</time>
      </trkpt>
      <trkpt lat="43.66268" lon="1.9688">
        <ele>150</ele>
        <time>2021-07-24T18:16:23Z</time>
      </trkpt>
      <trkpt lat="43.66282" lon="1.96977">
        <ele>148</ele>
        <time>2021-07-24T18:16:36Z</time>
      </trkpt>
      <trkpt lat="43.6629" lon="1.97008">
        <ele>148</ele>
        <time>2021-07-24T18:16:40Z</time>
      </trkpt>
      <trkpt lat="43.66331" lon="1.9711">
        <ele>147</ele>
        <time>2021-07-24T18:16:55Z</time>
      </trkpt>
      <trkpt lat="43.6634" lon="1.9714">
        <ele>148</ele>
        <time>2021-07-24T18:16:59Z</time>
      </trkpt>
      <trkpt lat="43.66351" lon="1.97177">
        <ele>149</ele>
        <time>2021-07-24T18:17:04Z</time>
      </trkpt>
      <trkpt lat="43.66365" lon="1.97251">
        <ele>149</ele>
        <time>2021-07-24T18:17:14Z</time>
      </trkpt>
      <trkpt lat="43.6637" lon="1.97269">
        <ele>150</ele>
        <time>2021-07-24T18:17:17Z</time>
      </trkpt>
      <trkpt lat="43.66375" lon="1.97284">
        <ele>150</ele>
        <time>2021-07-24T18:17:19Z</time>
      </trkpt>
      <trkpt lat="43.66415" lon="1.9737">
        <ele>151</ele>
        <time>2021-07-24T18:17:32Z</time>
      </trkpt>
      <trkpt lat="43.66419" lon="1.97391">
        <ele>152</ele>
        <time>2021-07-24T18:17:35Z</time>
      </trkpt>
      <trkpt lat="43.66417" lon="1.97519">
        <ele>154</ele>
        <time>2021-07-24T18:17:51Z</time>
      </trkpt>
      <trkpt lat="43.66413" lon="1.97587">
        <ele>157</ele>
        <time>2021-07-24T18:18:00Z</time>
      </trkpt>
      <trkpt lat="43.66402" lon="1.97695">
        <ele>160</ele>
        <time>2021-07-24T18:18:14Z</time>
      </trkpt>
      <trkpt lat="43.66403" lon="1.97843">
        <ele>157</ele>
        <time>2021-07-24T18:18:33Z</time>
      </trkpt>
      <trkpt lat="43.66383" lon="1.9799">
        <ele>153</ele>
        <time>2021-07-24T18:18:52Z</time>
      </trkpt>
      <trkpt lat="43.66378" lon="1.98028">
        <ele>152</ele>
        <time>2021-07-24T18:18:57Z</time>
      </trkpt>
      <trkpt lat="43.66373" lon="1.98059">
        <ele>152</ele>
        <time>2021-07-24T18:19:01Z</time>
      </trkpt>
      <trkpt lat="43.66325" lon="1.98399">
        <ele>149</ele>
        <time>2021-07-24T18:19:46Z</time>
      </trkpt>
      <trkpt lat="43.66321" lon="1.98423">
        <ele>149</ele>
        <time>2021-07-24T18:19:49Z</time>
      </trkpt>
      <trkpt lat="43.66302" lon="1.98497">
        <ele>149</ele>
        <time>2021-07-24T18:19:59Z</time>
      </trkpt>
      <trkpt lat="43.6628" lon="1.9859">
        <ele>150</ele>
        <time>2021-07-24T18:20:12Z</time>
      </trkpt>
      <trkpt lat="43.66251" lon="1.98724">
        <ele>152</ele>
        <time>2021-07-24T18:20:30Z</time>
      </trkpt>
      <trkpt lat="43.6624" lon="1.98771">
        <ele>152</ele>
        <time>2021-07-24T18:20:36Z</time>
      </trkpt>
      <trkpt lat="43.66236" lon="1.98788">
        <ele>152</ele>
        <time>2021-07-24T18:20:38Z</time>
      </trkpt>
      <trkpt lat="43.66208" lon="1.98928">
        <ele>153</ele>
        <time>2021-07-24T18:20:57Z</time>
      </trkpt>
      <trkpt lat="43.66201" lon="1.98978">
        <ele>153</ele>
        <time>2021-07-24T18:21:04Z</time>
      </trkpt>
      <trkpt lat="43.66197" lon="1.99039">
        <ele>153</ele>
        <time>2021-07-24T18:21:12Z</time>
      </trkpt>
      <trkpt lat="43.66195" lon="1.99126">
        <ele>153</ele>
        <time>2021-07-24T18:21:23Z</time>
      </trkpt>
      <trkpt lat="43.66196" lon="1.99253">
        <ele>154</ele>
        <time>2021-07-24T18:21:39Z</time>
      </trkpt>
      <trkpt lat="43.66195" lon="1.99452">
        <ele>155</ele>
        <time>2021-07-24T18:22:05Z</time>
      </trkpt>
      <trkpt lat="43.66196" lon="1.99575">
        <ele>155</ele>
        <time>2021-07-24T18:22:21Z</time>
      </trkpt>
      <trkpt lat="43.66201" lon="1.99625">
        <ele>154</ele>
        <time>2021-07-24T18:22:27Z</time>
      </trkpt>
      <trkpt lat="43.66213" lon="1.99703">
        <ele>153</ele>
        <time>2021-07-24T18:22:37Z</time>
      </trkpt>
      <trkpt lat="43.66262" lon="1.99993">
        <ele>150</ele>
        <time>2021-07-24T18:23:16Z</time>
      </trkpt>
      <trkpt lat="43.66276" lon="2.00107">
        <ele>150</ele>
        <time>2021-07-24T18:23:31Z</time>
      </trkpt>
      <trkpt lat="43.66286" lon="2.00233">
        <ele>150</ele>
        <time>2021-07-24T18:23:47Z</time>
      </trkpt>
      <trkpt lat="43.66288" lon="2.00336">
        <ele>150</ele>
        <time>2021-07-24T18:24:00Z</time>
      </trkpt>
      <trkpt lat="43.66276" lon="2.00597">
        <ele>155</ele>
        <time>2021-07-24T18:24:34Z</time>
      </trkpt>
      <trkpt lat="43.66274" lon="2.00608">
        <ele>155</ele>
        <time>2021-07-24T18:24:35Z</time>
      </trkpt>
      <trkpt lat="43.66266" lon="2.0068">
        <ele>157</ele>
        <time>2021-07-24T18:24:45Z</time>
      </trkpt>
      <trkpt lat="43.66257" lon="2.00732">
        <ele>156</ele>
        <time>2021-07-24T18:24:51Z</time>
      </trkpt>
      <trkpt lat="43.66248" lon="2.00762">
        <ele>155</ele>
        <time>2021-07-24T18:24:56Z</time>
      </trkpt>
      <trkpt lat="43.66199" lon="2.00852">
        <ele>154</ele>
        <time>2021-07-24T18:25:10Z</time>
      </trkpt>
      <trkpt lat="43.66172" lon="2.00911">
        <ele>154</ele>
        <time>2021-07-24T18:25:19Z</time>
      </trkpt>
      <trkpt lat="43.66142" lon="2.01003">
        <ele>154</ele>
        <time>2021-07-24T18:25:32Z</time>
      </trkpt>
      <trkpt lat="43.66124" lon="2.01062">
        <ele>154</ele>
        <time>2021-07-24T18:25:40Z</time>
      </trkpt>
      <trkpt lat="43.66081" lon="2.01166">
        <ele>152</ele>
        <time>2021-07-24T18:25:56Z</time>
      </trkpt>
      <trkpt lat="43.66051" lon="2.01257">
        <ele>153</ele>
        <time>2021-07-24T18:26:09Z</time>
      </trkpt>
      <trkpt lat="43.66038" lon="2.01327">
        <ele>153</ele>
        <time>2021-07-24T18:26:18Z</time>
      </trkpt>
      <trkpt lat="43.6603" lon="2.01391">
        <ele>153</ele>
        <time>2021-07-24T18:26:26Z</time>
      </trkpt>
      <trkpt lat="43.66043" lon="2.01648">
        <ele>154</ele>
        <time>2021-07-24T18:26:59Z</time>
      </trkpt>
      <trkpt lat="43.66061" lon="2.01747">
        <ele>152</ele>
        <time>2021-07-24T18:27:13Z</time>
      </trkpt>
      <trkpt lat="43.6608" lon="2.01841">
        <ele>152</ele>
        <time>2021-07-24T18:27:25Z</time>
      </trkpt>
      <trkpt lat="43.66084" lon="2.01909">
        <ele>153</ele>
        <time>2021-07-24T18:27:34Z</time>
      </trkpt>
      <trkpt lat="43.66082" lon="2.01935">
        <ele>153</ele>
        <time>2021-07-24T18:27:37Z</time>
      </trkpt>
      <trkpt lat="43.66078" lon="2.01985">
        <ele>152</ele>
        <time>2021-07-24T18:27:44Z</time>
      </trkpt>
      <trkpt lat="43.66075" lon="2.02102">
        <ele>152</ele>
        <time>2021-07-24T18:27:59Z</time>
      </trkpt>
      <trkpt lat="43.66072" lon="2.02209">
        <ele>155</ele>
        <time>2021-07-24T18:28:13Z</time>
      </trkpt>
      <trkpt lat="43.66069" lon="2.02301">
        <ele>158</ele>
        <time>2021-07-24T18:28:25Z</time>
      </trkpt>
      <trkpt lat="43.66063" lon="2.02397">
        <ele>160</ele>
        <time>2021-07-24T18:28:37Z</time>
      </trkpt>
      <trkpt lat="43.6606" lon="2.02412">
        <ele>159</ele>
        <time>2021-07-24T18:28:39Z</time>
      </trkpt>
      <trkpt lat="43.66053" lon="2.02444">
        <ele>159</ele>
        <time>2021-07-24T18:28:43Z</time>
      </trkpt>
      <trkpt lat="43.66036" lon="2.02493">
        <ele>158</ele>
        <time>2021-07-24T18:28:50Z</time>
      </trkpt>
      <trkpt lat="43.66009" lon="2.02561">
        <ele>156</ele>
        <time>2021-07-24T18:29:00Z</time>
      </trkpt>
      <trkpt lat="43.66007" lon="2.02566">
        <ele>156</ele>
        <time>2021-07-24T18:29:01Z</time>
      </trkpt>
      <trkpt lat="43.66002" lon="2.02579">
        <ele>156</ele>
        <time>2021-07-24T18:29:03Z</time>
      </trkpt>
      <trkpt lat="43.65996" lon="2.02594">
        <ele>155</ele>
        <time>2021-07-24T18:29:05Z</time>
      </trkpt>
      <trkpt lat="43.65992" lon="2.02605">
        <ele>155</ele>
        <time>2021-07-24T18:29:07Z</time>
      </trkpt>
      <trkpt lat="43.65989" lon="2.02613">
        <ele>154</ele>
        <time>2021-07-24T18:29:08Z</time>
      </trkpt>
      <trkpt lat="43.65981" lon="2.02633">
        <ele>153</ele>
        <time>2021-07-24T18:29:11Z</time>
      </trkpt>
      <trkpt lat="43.65971" lon="2.02658">
        <ele>152</ele>
        <time>2021-07-24T18:29:14Z</time>
      </trkpt>
      <trkpt lat="43.65967" lon="2.02671">
        <ele>151</ele>
        <time>2021-07-24T18:29:16Z</time>
      </trkpt>
      <trkpt lat="43.65966" lon="2.02683">
        <ele>151</ele>
        <time>2021-07-24T18:29:18Z</time>
      </trkpt>
      <trkpt lat="43.65968" lon="2.02708">
        <ele>151</ele>
        <time>2021-07-24T18:29:21Z</time>
      </trkpt>
      <trkpt lat="43.65969" lon="2.02711">
        <ele>151</ele>
        <time>2021-07-24T18:29:21Z</time>
      </trkpt>
      <trkpt lat="43.65973" lon="2.02739">
        <ele>150</ele>
        <time>2021-07-24T18:29:25Z</time>
      </trkpt>
      <trkpt lat="43.65974" lon="2.0276">
        <ele>151</ele>
        <time>2021-07-24T18:29:28Z</time>
      </trkpt>
      <trkpt lat="43.65971" lon="2.02779">
        <ele>151</ele>
        <time>2021-07-24T18:29:30Z</time>
      </trkpt>
      <trkpt lat="43.65963" lon="2.02807">
        <ele>151</ele>
        <time>2021-07-24T18:29:34Z</time>
      </trkpt>
      <trkpt lat="43.6596" lon="2.02816">
        <ele>152</ele>
        <time>2021-07-24T18:29:35Z</time>
      </trkpt>
      <trkpt lat="43.65958" lon="2.02822">
        <ele>152</ele>
        <time>2021-07-24T18:29:36Z</time>
      </trkpt>
      <trkpt lat="43.65944" lon="2.02852">
        <ele>151</ele>
        <time>2021-07-24T18:29:41Z</time>
      </trkpt>
      <trkpt lat="43.65937" lon="2.02865">
        <ele>150</ele>
        <time>2021-07-24T18:29:43Z</time>
      </trkpt>
      <trkpt lat="43.65876" lon="2.02946">
        <ele>147</ele>
        <time>2021-07-24T18:29:58Z</time>
      </trkpt>
      <trkpt lat="43.65866" lon="2.02968">
        <ele>147</ele>
        <time>2021-07-24T18:30:01Z</time>
      </trkpt>
      <trkpt lat="43.65835" lon="2.03053">
        <ele>145</ele>
        <time>2021-07-24T18:30:14Z</time>
      </trkpt>
      <trkpt lat="43.65825" lon="2.03107">
        <ele>146</ele>
        <time>2021-07-24T18:30:21Z</time>
      </trkpt>
      <trkpt lat="43.65823" lon="2.03114">
        <ele>146</ele>
        <time>2021-07-24T18:30:22Z</time>
      </trkpt>
      <trkpt lat="43.65818" lon="2.0313">
        <ele>146</ele>
        <time>2021-07-24T18:30:24Z</time>
      </trkpt>
      <trkpt lat="43.65811" lon="2.03146">
        <ele>147</ele>
        <time>2021-07-24T18:30:26Z</time>
      </trkpt>
      <trkpt lat="43.65813" lon="2.03158">
        <ele>147</ele>
        <time>2021-07-24T18:30:28Z</time>
      </trkpt>
      <trkpt lat="43.65837" lon="2.03201">
        <ele>149</ele>
        <time>2021-07-24T18:30:35Z</time>
      </trkpt>
      <trkpt lat="43.6584" lon="2.03207">
        <ele>149</ele>
        <time>2021-07-24T18:30:36Z</time>
      </trkpt>
      <trkpt lat="43.65849" lon="2.03223">
        <ele>149</ele>
        <time>2021-07-24T18:30:39Z</time>
      </trkpt>
      <trkpt lat="43.65871" lon="2.03268">
        <ele>149</ele>
        <time>2021-07-24T18:30:46Z</time>
      </trkpt>
      <trkpt lat="43.65881" lon="2.03301">
        <ele>149</ele>
        <time>2021-07-24T18:30:50Z</time>
      </trkpt>
      <trkpt lat="43.65886" lon="2.03328">
        <ele>148</ele>
        <time>2021-07-24T18:30:54Z</time>
      </trkpt>
      <trkpt lat="43.65888" lon="2.0335">
        <ele>148</ele>
        <time>2021-07-24T18:30:57Z</time>
      </trkpt>
      <trkpt lat="43.65889" lon="2.03382">
        <ele>149</ele>
        <time>2021-07-24T18:31:01Z</time>
      </trkpt>
      <trkpt lat="43.65889" lon="2.03385">
        <ele>149</ele>
        <time>2021-07-24T18:31:01Z</time>
      </trkpt>
      <trkpt lat="43.65886" lon="2.03422">
        <ele>149</ele>
        <time>2021-07-24T18:31:06Z</time>
      </trkpt>
      <trkpt lat="43.65881" lon="2.03456">
        <ele>149</ele>
        <time>2021-07-24T18:31:10Z</time>
      </trkpt>
      <trkpt lat="43.65874" lon="2.03486">
        <ele>149</ele>
        <time>2021-07-24T18:31:14Z</time>
      </trkpt>
      <trkpt lat="43.65839" lon="2.03602">
        <ele>149</ele>
        <time>2021-07-24T18:31:31Z</time>
      </trkpt>
      <trkpt lat="43.65783" lon="2.0381">
        <ele>151</ele>
        <time>2021-07-24T18:31:59Z</time>
      </trkpt>
      <trkpt lat="43.6576" lon="2.03888">
        <ele>152</ele>
        <time>2021-07-24T18:32:10Z</time>
      </trkpt>
      <trkpt lat="43.65753" lon="2.03916">
        <ele>153</ele>
        <time>2021-07-24T18:32:14Z</time>
      </trkpt>
      <trkpt lat="43.65722" lon="2.04158">
        <ele>155</ele>
        <time>2021-07-24T18:32:45Z</time>
      </trkpt>
      <trkpt lat="43.65723" lon="2.04197">
        <ele>156</ele>
        <time>2021-07-24T18:32:51Z</time>
      </trkpt>
      <trkpt lat="43.65726" lon="2.04221">
        <ele>157</ele>
        <time>2021-07-24T18:32:54Z</time>
      </trkpt>
      <trkpt lat="43.6573" lon="2.04236">
        <ele>157</ele>
        <time>2021-07-24T18:32:56Z</time>
      </trkpt>
      <trkpt lat="43.65738" lon="2.04266">
        <ele>159</ele>
        <time>2021-07-24T18:33:00Z</time>
      </trkpt>
      <trkpt lat="43.65755" lon="2.0431">
        <ele>161</ele>
        <time>2021-07-24T18:33:06Z</time>
      </trkpt>
      <trkpt lat="43.65779" lon="2.04353">
        <ele>163</ele>
        <time>2021-07-24T18:33:13Z</time>
      </trkpt>
      <trkpt lat="43.65786" lon="2.04368">
        <ele>164</ele>
        <time>2021-07-24T18:33:16Z</time>
      </trkpt>
      <trkpt lat="43.65787" lon="2.04383">
        <ele>165</ele>
        <time>2021-07-24T18:33:17Z</time>
      </trkpt>
      <trkpt lat="43.65785" lon="2.04389">
        <ele>166</ele>
        <time>2021-07-24T18:33:18Z</time>
      </trkpt>
      <trkpt lat="43.65784" lon="2.04395">
        <ele>166</ele>
        <time>2021-07-24T18:33:19Z</time>
      </trkpt>
      <trkpt lat="43.65774" lon="2.04414">
        <ele>167</ele>
        <time>2021-07-24T18:33:22Z</time>
      </trkpt>
      <trkpt lat="43.65767" lon="2.04441">
        <ele>167</ele>
        <time>2021-07-24T18:33:26Z</time>
      </trkpt>
      <trkpt lat="43.65765" lon="2.04479">
        <ele>168</ele>
        <time>2021-07-24T18:33:31Z</time>
      </trkpt>
      <trkpt lat="43.65761" lon="2.04514">
        <ele>168</ele>
        <time>2021-07-24T18:33:35Z</time>
      </trkpt>
      <trkpt lat="43.65734" lon="2.04608">
        <ele>167</ele>
        <time>2021-07-24T18:33:48Z</time>
      </trkpt>
      <trkpt lat="43.65724" lon="2.0465">
        <ele>168</ele>
        <time>2021-07-24T18:33:54Z</time>
      </trkpt>
      <trkpt lat="43.65724" lon="2.04676">
        <ele>169</ele>
        <time>2021-07-24T18:33:57Z</time>
      </trkpt>
      <trkpt lat="43.65727" lon="2.0469">
        <ele>169</ele>
        <time>2021-07-24T18:33:59Z</time>
      </trkpt>
      <trkpt lat="43.65726" lon="2.0471">
        <ele>170</ele>
        <time>2021-07-24T18:34:02Z</time>
      </trkpt>
      <trkpt lat="43.65724" lon="2.0473">
        <ele>171</ele>
        <time>2021-07-24T18:34:04Z</time>
      </trkpt>
      <trkpt lat="43.65717" lon="2.0476">
        <ele>171</ele>
        <time>2021-07-24T18:34:08Z</time>
      </trkpt>
      <trkpt lat="43.65695" lon="2.04827">
        <ele>172</ele>
        <time>2021-07-24T18:34:18Z</time>
      </trkpt>
      <trkpt lat="43.65677" lon="2.04876">
        <ele>172</ele>
        <time>2021-07-24T18:34:25Z</time>
      </trkpt>
      <trkpt lat="43.65674" lon="2.04889">
        <ele>172</ele>
        <time>2021-07-24T18:34:27Z</time>
      </trkpt>
      <trkpt lat="43.65731" lon="2.04911">
        <ele>173</ele>
        <time>2021-07-24T18:34:37Z</time>
      </trkpt>
      <trkpt lat="43.6574" lon="2.04916">
        <ele>174</ele>
        <time>2021-07-24T18:34:39Z</time>
      </trkpt>
      <trkpt lat="43.65744" lon="2.04926">
        <ele>174</ele>
        <time>2021-07-24T18:34:41Z</time>
      </trkpt>
      <trkpt lat="43.65745" lon="2.04935">
        <ele>174</ele>
        <time>2021-07-24T18:34:42Z</time>
      </trkpt>
      <trkpt lat="43.65744" lon="2.04944">
        <ele>174</ele>
        <time>2021-07-24T18:34:43Z</time>
      </trkpt>
      <trkpt lat="43.65689" lon="2.05088">
        <ele>174</ele>
        <time>2021-07-24T18:35:04Z</time>
      </trkpt>
      <trkpt lat="43.65686" lon="2.05095">
        <ele>174</ele>
        <time>2021-07-24T18:35:05Z</time>
      </trkpt>
      <trkpt lat="43.65619" lon="2.05293">
        <ele>172</ele>
        <time>2021-07-24T18:35:33Z</time>
      </trkpt>
      <trkpt lat="43.65603" lon="2.05348">
        <ele>172</ele>
        <time>2021-07-24T18:35:41Z</time>
      </trkpt>
      <trkpt lat="43.65587" lon="2.05387">
        <ele>172</ele>
        <time>2021-07-24T18:35:46Z</time>
      </trkpt>
      <trkpt lat="43.6556" lon="2.05433">
        <ele>172</ele>
        <time>2021-07-24T18:35:54Z</time>
      </trkpt>
      <trkpt lat="43.65515" lon="2.05537">
        <ele>172</ele>
        <time>2021-07-24T18:36:10Z</time>
      </trkpt>
      <trkpt lat="43.65483" lon="2.05622">
        <ele>170</ele>
        <time>2021-07-24T18:36:22Z</time>
      </trkpt>
      <trkpt lat="43.65467" lon="2.05657">
        <ele>170</ele>
        <time>2021-07-24T18:36:27Z</time>
      </trkpt>
      <trkpt lat="43.65356" lon="2.05866">
        <ele>167</ele>
        <time>2021-07-24T18:37:01Z</time>
      </trkpt>
      <trkpt lat="43.65327" lon="2.05925">
        <ele>166</ele>
        <time>2021-07-24T18:37:10Z</time>
      </trkpt>
      <trkpt lat="43.65311" lon="2.05976">
        <ele>165</ele>
        <time>2021-07-24T18:37:17Z</time>
      </trkpt>
      <trkpt lat="43.65273" lon="2.06165">
        <ele>160</ele>
        <time>2021-07-24T18:37:42Z</time>
      </trkpt>
      <trkpt lat="43.65209" lon="2.06497">
        <ele>162</ele>
        <time>2021-07-24T18:38:26Z</time>
      </trkpt>
      <trkpt lat="43.65175" lon="2.06648">
        <ele>165</ele>
        <time>2021-07-24T18:38:47Z</time>
      </trkpt>
      <trkpt lat="43.65119" lon="2.06717">
        <ele>164</ele>
        <time>2021-07-24T18:39:00Z</time>
      </trkpt>
      <trkpt lat="43.6505" lon="2.06799">
        <ele>163</ele>
        <time>2021-07-24T18:39:16Z</time>
      </trkpt>
      <trkpt lat="43.64986" lon="2.06979">
        <ele>160</ele>
        <time>2021-07-24T18:39:42Z</time>
      </trkpt>
      <trkpt lat="43.64912" lon="2.0717">
        <ele>161</ele>
        <time>2021-07-24T18:40:10Z</time>
      </trkpt>
      <trkpt lat="43.64835" lon="2.07471">
        <ele>158</ele>
        <time>2021-07-24T18:40:51Z</time>
      </trkpt>
      <trkpt lat="43.64767" lon="2.07693">
        <ele>157</ele>
        <time>2021-07-24T18:41:22Z</time>
      </trkpt>
      <trkpt lat="43.6465" lon="2.07981">
        <ele>160</ele>
        <time>2021-07-24T18:42:05Z</time>
      </trkpt>
      <trkpt lat="43.64515" lon="2.08301">
        <ele>162</ele>
        <time>2021-07-24T18:42:52Z</time>
      </trkpt>
      <trkpt lat="43.64488" lon="2.08376">
        <ele>162</ele>
        <time>2021-07-24T18:43:03Z</time>
      </trkpt>
      <trkpt lat="43.64456" lon="2.08577">
        <ele>161</ele>
        <time>2021-07-24T18:43:30Z</time>
      </trkpt>
      <trkpt lat="43.64451" lon="2.0863">
        <ele>162</ele>
        <time>2021-07-24T18:43:37Z</time>
      </trkpt>
      <trkpt lat="43.64459" lon="2.08697">
        <ele>163</ele>
        <time>2021-07-24T18:43:45Z</time>
      </trkpt>
      <trkpt lat="43.64461" lon="2.08779">
        <ele>165</ele>
        <time>2021-07-24T18:43:56Z</time>
      </trkpt>
      <trkpt lat="43.64461" lon="2.08833">
        <ele>166</ele>
        <time>2021-07-24T18:44:03Z</time>
      </trkpt>
      <trkpt lat="43.64458" lon="2.08892">
        <ele>165</ele>
        <time>2021-07-24T18:44:11Z</time>
      </trkpt>
      <trkpt lat="43.64449" lon="2.0895">
        <ele>165</ele>
        <time>2021-07-24T18:44:18Z</time>
      </trkpt>
      <trkpt lat="43.6443" lon="2.09032">
        <ele>163</ele>
        <time>2021-07-24T18:44:29Z</time>
      </trkpt>
      <trkpt lat="43.64401" lon="2.09148">
        <ele>161</ele>
        <time>2021-07-24T18:44:45Z</time>
      </trkpt>
      <trkpt lat="43.64388" lon="2.09229">
        <ele>160</ele>
        <time>2021-07-24T18:44:56Z</time>
      </trkpt>
      <trkpt lat="43.64371" lon="2.09373">
        <ele>160</ele>
        <time>2021-07-24T18:45:15Z</time>
      </trkpt>
      <trkpt lat="43.6437" lon="2.094">
        <ele>160</ele>
        <time>2021-07-24T18:45:18Z</time>
      </trkpt>
      <trkpt lat="43.64372" lon="2.09439">
        <ele>160</ele>
        <time>2021-07-24T18:45:23Z</time>
      </trkpt>
      <trkpt lat="43.64374" lon="2.09466">
        <ele>161</ele>
        <time>2021-07-24T18:45:27Z</time>
      </trkpt>
      <trkpt lat="43.64382" lon="2.09495">
        <ele>161</ele>
        <time>2021-07-24T18:45:31Z</time>
      </trkpt>
      <trkpt lat="43.64395" lon="2.09518">
        <ele>161</ele>
        <time>2021-07-24T18:45:34Z</time>
      </trkpt>
      <trkpt lat="43.64488" lon="2.09613">
        <ele>161</ele>
        <time>2021-07-24T18:45:55Z</time>
      </trkpt>
      <trkpt lat="43.64524" lon="2.09662">
        <ele>163</ele>
        <time>2021-07-24T18:46:04Z</time>
      </trkpt>
      <trkpt lat="43.64578" lon="2.09766">
        <ele>164</ele>
        <time>2021-07-24T18:46:20Z</time>
      </trkpt>
      <trkpt lat="43.64582" lon="2.09782">
        <ele>163</ele>
        <time>2021-07-24T18:46:22Z</time>
      </trkpt>
      <trkpt lat="43.64596" lon="2.09789">
        <ele>164</ele>
        <time>2021-07-24T18:46:25Z</time>
      </trkpt>
      <trkpt lat="43.64683" lon="2.09887">
        <ele>166</ele>
        <time>2021-07-24T18:46:45Z</time>
      </trkpt>
      <trkpt lat="43.64753" lon="2.09995">
        <ele>166</ele>
        <time>2021-07-24T18:47:04Z</time>
      </trkpt>
      <trkpt lat="43.64859" lon="2.10133">
        <ele>167</ele>
        <time>2021-07-24T18:47:30Z</time>
      </trkpt>
      <trkpt lat="43.64844" lon="2.10168">
        <ele>164</ele>
        <time>2021-07-24T18:47:35Z</time>
      </trkpt>
      <trkpt lat="43.64836" lon="2.10192">
        <ele>163</ele>
        <time>2021-07-24T18:47:38Z</time>
      </trkpt>
      <trkpt lat="43.64826" lon="2.10187">
        <ele>163</ele>
        <time>2021-07-24T18:47:40Z</time>
      </trkpt>
      <trkpt lat="43.64822" lon="2.10191">
        <ele>163</ele>
        <time>2021-07-24T18:47:41Z</time>
      </trkpt>
      <trkpt lat="43.64757" lon="2.10246">
        <ele>162</ele>
        <time>2021-07-24T18:47:55Z</time>
      </trkpt>
      <trkpt lat="43.64747" lon="2.10261">
        <ele>162</ele>
        <time>2021-07-24T18:47:57Z</time>
      </trkpt>
      <trkpt lat="43.64736" lon="2.10279">
        <ele>162</ele>
        <time>2021-07-24T18:48:00Z</time>
      </trkpt>
      <trkpt lat="43.647" lon="2.10333">
        <ele>163</ele>
        <time>2021-07-24T18:48:10Z</time>
      </trkpt>
      <trkpt lat="43.64674" lon="2.10372">
        <ele>165</ele>
        <time>2021-07-24T18:48:17Z</time>
      </trkpt>
      <trkpt lat="43.64678" lon="2.104">
        <ele>165</ele>
        <time>2021-07-24T18:48:20Z</time>
      </trkpt>
      <trkpt lat="43.64692" lon="2.10468">
        <ele>166</ele>
        <time>2021-07-24T18:48:29Z</time>
      </trkpt>
      <trkpt lat="43.6472" lon="2.10645">
        <ele>168</ele>
        <time>2021-07-24T18:48:53Z</time>
      </trkpt>
      <trkpt lat="43.64769" lon="2.10881">
        <ele>170</ele>
        <time>2021-07-24T18:49:24Z</time>
      </trkpt>
      <trkpt lat="43.64774" lon="2.10937">
        <ele>171</ele>
        <time>2021-07-24T18:49:32Z</time>
      </trkpt>
      <trkpt lat="43.64772" lon="2.11024">
        <ele>174</ele>
        <time>2021-07-24T18:49:43Z</time>
      </trkpt>
      <trkpt lat="43.64776" lon="2.11231">
        <ele>182</ele>
        <time>2021-07-24T18:50:09Z</time>
      </trkpt>
      <trkpt lat="43.64774" lon="2.11338">
        <ele>186</ele>
        <time>2021-07-24T18:50:23Z</time>
      </trkpt>
      <trkpt lat="43.64769" lon="2.11402">
        <ele>188</ele>
        <time>2021-07-24T18:50:32Z</time>
      </trkpt>
      <trkpt lat="43.64772" lon="2.11455">
        <ele>187</ele>
        <time>2021-07-24T18:50:38Z</time>
      </trkpt>
      <trkpt lat="43.64788" lon="2.11517">
        <ele>185</ele>
        <time>2021-07-24T18:50:47Z</time>
      </trkpt>
      <trkpt lat="43.64825" lon="2.11618">
        <ele>179</ele>
        <time>2021-07-24T18:51:01Z</time>
      </trkpt>
      <trkpt lat="43.64837" lon="2.11667">
        <ele>176</ele>
        <time>2021-07-24T18:51:08Z</time>
      </trkpt>
      <trkpt lat="43.64844" lon="2.11727">
        <ele>175</ele>
        <time>2021-07-24T18:51:16Z</time>
      </trkpt>
      <trkpt lat="43.64849" lon="2.11763">
        <ele>175</ele>
        <time>2021-07-24T18:51:21Z</time>
      </trkpt>
      <trkpt lat="43.64858" lon="2.1181">
        <ele>175</ele>
        <time>2021-07-24T18:51:27Z</time>
      </trkpt>
      <trkpt lat="43.64889" lon="2.11925">
        <ele>175</ele>
        <time>2021-07-24T18:51:43Z</time>
      </trkpt>
      <trkpt lat="43.64899" lon="2.11948">
        <ele>174</ele>
        <time>2021-07-24T18:51:46Z</time>
      </trkpt>
      <trkpt lat="43.64915" lon="2.11969">
        <ele>174</ele>
        <time>2021-07-24T18:51:50Z</time>
      </trkpt>
      <trkpt lat="43.64989" lon="2.12036">
        <ele>176</ele>
        <time>2021-07-24T18:52:06Z</time>
      </trkpt>
      <trkpt lat="43.64975" lon="2.12093">
        <ele>176</ele>
        <time>2021-07-24T18:52:14Z</time>
      </trkpt>
      <trkpt lat="43.6497" lon="2.12119">
        <ele>177</ele>
        <time>2021-07-24T18:52:17Z</time>
      </trkpt>
      <trkpt lat="43.64964" lon="2.1218">
        <ele>177</ele>
        <time>2021-07-24T18:52:25Z</time>
      </trkpt>
      <trkpt lat="43.64947" lon="2.12392">
        <ele>184</ele>
        <time>2021-07-24T18:52:52Z</time>
      </trkpt>
      <trkpt lat="43.64943" lon="2.12413">
        <ele>184</ele>
        <time>2021-07-24T18:52:55Z</time>
      </trkpt>
      <trkpt lat="43.64939" lon="2.12427">
        <ele>185</ele>
        <time>2021-07-24T18:52:57Z</time>
      </trkpt>
      <trkpt lat="43.64939" lon="2.12474">
        <ele>186</ele>
        <time>2021-07-24T18:53:03Z</time>
      </trkpt>
      <trkpt lat="43.64939" lon="2.12486">
        <ele>186</ele>
        <time>2021-07-24T18:53:05Z</time>
      </trkpt>
      <trkpt lat="43.64938" lon="2.12493">
        <ele>186</ele>
        <time>2021-07-24T18:53:06Z</time>
      </trkpt>
      <trkpt lat="43.64936" lon="2.1251">
        <ele>186</ele>
        <time>2021-07-24T18:53:08Z</time>
      </trkpt>
      <trkpt lat="43.64919" lon="2.12566">
        <ele>185</ele>
        <time>2021-07-24T18:53:16Z</time>
      </trkpt>
      <trkpt lat="43.64915" lon="2.12595">
        <ele>184</ele>
        <time>2021-07-24T18:53:19Z</time>
      </trkpt>
      <trkpt lat="43.64914" lon="2.1262">
        <ele>183</ele>
        <time>2021-07-24T18:53:23Z</time>
      </trkpt>
      <trkpt lat="43.64918" lon="2.12638">
        <ele>183</ele>
        <time>2021-07-24T18:53:25Z</time>
      </trkpt>
      <trkpt lat="43.64888" lon="2.12671">
        <ele>182</ele>
        <time>2021-07-24T18:53:32Z</time>
      </trkpt>
      <trkpt lat="43.64893" lon="2.12681">
        <ele>182</ele>
        <time>2021-07-24T18:53:34Z</time>
      </trkpt>
      <trkpt lat="43.64895" lon="2.12701">
        <ele>183</ele>
        <time>2021-07-24T18:53:36Z</time>
      </trkpt>
      <trkpt lat="43.64893" lon="2.12726">
        <ele>183</ele>
        <time>2021-07-24T18:53:39Z</time>
      </trkpt>
      <trkpt lat="43.64882" lon="2.12816">
        <ele>185</ele>
        <time>2021-07-24T18:53:51Z</time>
      </trkpt>
      <trkpt lat="43.64883" lon="2.12847">
        <ele>186</ele>
        <time>2021-07-24T18:53:55Z</time>
      </trkpt>
      <trkpt lat="43.64887" lon="2.12866">
        <ele>187</ele>
        <time>2021-07-24T18:53:58Z</time>
      </trkpt>
      <trkpt lat="43.64894" lon="2.12881">
        <ele>187</ele>
        <time>2021-07-24T18:54:00Z</time>
      </trkpt>
      <trkpt lat="43.64897" lon="2.12886">
        <ele>187</ele>
        <time>2021-07-24T18:54:01Z</time>
      </trkpt>
      <trkpt lat="43.64934" lon="2.12937">
        <ele>188</ele>
        <time>2021-07-24T18:54:10Z</time>
      </trkpt>
      <trkpt lat="43.64951" lon="2.12976">
        <ele>189</ele>
        <time>2021-07-24T18:54:16Z</time>
      </trkpt>
      <trkpt lat="43.64958" lon="2.13003">
        <ele>190</ele>
        <time>2021-07-24T18:54:20Z</time>
      </trkpt>
      <trkpt lat="43.64962" lon="2.13043">
        <ele>191</ele>
        <time>2021-07-24T18:54:25Z</time>
      </trkpt>
      <trkpt lat="43.64959" lon="2.13076">
        <ele>191</ele>
        <time>2021-07-24T18:54:29Z</time>
      </trkpt>
      <trkpt lat="43.64952" lon="2.13106">
        <ele>191</ele>
        <time>2021-07-24T18:54:33Z</time>
      </trkpt>
      <trkpt lat="43.64939" lon="2.13138">
        <ele>192</ele>
        <time>2021-07-24T18:54:38Z</time>
      </trkpt>
      <trkpt lat="43.64897" lon="2.13233">
        <ele>194</ele>
        <time>2021-07-24T18:54:52Z</time>
      </trkpt>
      <trkpt lat="43.64859" lon="2.13319">
        <ele>195</ele>
        <time>2021-07-24T18:55:05Z</time>
      </trkpt>
      <trkpt lat="43.64848" lon="2.13354">
        <ele>195</ele>
        <time>2021-07-24T18:55:10Z</time>
      </trkpt>
      <trkpt lat="43.64837" lon="2.13467">
        <ele>194</ele>
        <time>2021-07-24T18:55:25Z</time>
      </trkpt>
      <trkpt lat="43.6483" lon="2.13504">
        <ele>194</ele>
        <time>2021-07-24T18:55:30Z</time>
      </trkpt>
      <trkpt lat="43.6482" lon="2.13535">
        <ele>194</ele>
        <time>2021-07-24T18:55:34Z</time>
      </trkpt>
      <trkpt lat="43.64774" lon="2.13658">
        <ele>195</ele>
        <time>2021-07-24T18:55:52Z</time>
      </trkpt>
      <trkpt lat="43.64757" lon="2.13697">
        <ele>195</ele>
        <time>2021-07-24T18:55:58Z</time>
      </trkpt>
      <trkpt lat="43.64683" lon="2.13844">
        <ele>199</ele>
        <time>2021-07-24T18:56:21Z</time>
      </trkpt>
      <trkpt lat="43.64589" lon="2.14027">
        <ele>201</ele>
        <time>2021-07-24T18:56:50Z</time>
      </trkpt>
      <trkpt lat="43.64544" lon="2.14125">
        <ele>198</ele>
        <time>2021-07-24T18:57:05Z</time>
      </trkpt>
      <trkpt lat="43.64499" lon="2.14186">
        <ele>197</ele>
        <time>2021-07-24T18:57:16Z</time>
      </trkpt>
      <trkpt lat="43.64438" lon="2.14259">
        <ele>192</ele>
        <time>2021-07-24T18:57:30Z</time>
      </trkpt>
      <trkpt lat="43.64359" lon="2.14342">
        <ele>185</ele>
        <time>2021-07-24T18:57:48Z</time>
      </trkpt>
      <trkpt lat="43.64338" lon="2.14371">
        <ele>182</ele>
        <time>2021-07-24T18:57:53Z</time>
      </trkpt>
      <trkpt lat="43.64258" lon="2.14547">
        <ele>178</ele>
        <time>2021-07-24T18:58:20Z</time>
      </trkpt>
      <trkpt lat="43.64197" lon="2.14628">
        <ele>181</ele>
        <time>2021-07-24T18:58:35Z</time>
      </trkpt>
      <trkpt lat="43.64163" lon="2.14686">
        <ele>183</ele>
        <time>2021-07-24T18:58:45Z</time>
      </trkpt>
      <trkpt lat="43.64125" lon="2.14766">
        <ele>185</ele>
        <time>2021-07-24T18:58:57Z</time>
      </trkpt>
      <trkpt lat="43.64114" lon="2.14793">
        <ele>186</ele>
        <time>2021-07-24T18:59:01Z</time>
      </trkpt>
      <trkpt lat="43.64096" lon="2.14865">
        <ele>188</ele>
        <time>2021-07-24T18:59:11Z</time>
      </trkpt>
      <trkpt lat="43.64083" lon="2.14939">
        <ele>192</ele>
        <time>2021-07-24T18:59:21Z</time>
      </trkpt>
      <trkpt lat="43.64081" lon="2.14952">
        <ele>193</ele>
        <time>2021-07-24T18:59:22Z</time>
      </trkpt>
      <trkpt lat="43.6408" lon="2.14998">
        <ele>196</ele>
        <time>2021-07-24T18:59:28Z</time>
      </trkpt>
      <trkpt lat="43.64081" lon="2.15036">
        <ele>197</ele>
        <time>2021-07-24T18:59:33Z</time>
      </trkpt>
      <trkpt lat="43.64076" lon="2.15098">
        <ele>198</ele>
        <time>2021-07-24T18:59:41Z</time>
      </trkpt>
      <trkpt lat="43.6406" lon="2.1525">
        <ele>201</ele>
        <time>2021-07-24T19:00:01Z</time>
      </trkpt>
      <trkpt lat="43.6404" lon="2.15361">
        <ele>209</ele>
        <time>2021-07-24T19:00:16Z</time>
      </trkpt>
      <trkpt lat="43.64033" lon="2.15427">
        <ele>212</ele>
        <time>2021-07-24T19:00:24Z</time>
      </trkpt>
      <trkpt lat="43.64032" lon="2.15498">
        <ele>213</ele>
        <time>2021-07-24T19:00:33Z</time>
      </trkpt>
      <trkpt lat="43.6404" lon="2.15534">
        <ele>213</ele>
        <time>2021-07-24T19:00:38Z</time>
      </trkpt>
      <trkpt lat="43.64085" lon="2.15671">
        <ele>213</ele>
        <time>2021-07-24T19:00:58Z</time>
      </trkpt>
      <trkpt lat="43.64089" lon="2.15683">
        <ele>213</ele>
        <time>2021-07-24T19:00:59Z</time>
      </trkpt>
      <trkpt lat="43.64097" lon="2.15715">
        <ele>214</ele>
        <time>2021-07-24T19:01:04Z</time>
      </trkpt>
      <trkpt lat="43.64104" lon="2.15784">
        <ele>214</ele>
        <time>2021-07-24T19:01:13Z</time>
      </trkpt>
      <trkpt lat="43.64104" lon="2.15812">
        <ele>214</ele>
        <time>2021-07-24T19:01:16Z</time>
      </trkpt>
      <trkpt lat="43.64103" lon="2.1582">
        <ele>214</ele>
        <time>2021-07-24T19:01:17Z</time>
      </trkpt>
      <trkpt lat="43.64103" lon="2.15853">
        <ele>214</ele>
        <time>2021-07-24T19:01:21Z</time>
      </trkpt>
      <trkpt lat="43.64101" lon="2.15889">
        <ele>213</ele>
        <time>2021-07-24T19:01:26Z</time>
      </trkpt>
      <trkpt lat="43.64094" lon="2.15927">
        <ele>213</ele>
        <time>2021-07-24T19:01:31Z</time>
      </trkpt>
      <trkpt lat="43.64062" lon="2.16037">
        <ele>213</ele>
        <time>2021-07-24T19:01:46Z</time>
      </trkpt>
      <trkpt lat="43.64031" lon="2.1614">
        <ele>213</ele>
        <time>2021-07-24T19:02:01Z</time>
      </trkpt>
      <trkpt lat="43.63997" lon="2.16257">
        <ele>212</ele>
        <time>2021-07-24T19:02:17Z</time>
      </trkpt>
      <trkpt lat="43.63966" lon="2.16362">
        <ele>214</ele>
        <time>2021-07-24T19:02:32Z</time>
      </trkpt>
      <trkpt lat="43.63925" lon="2.16501">
        <ele>216</ele>
        <time>2021-07-24T19:02:51Z</time>
      </trkpt>
      <trkpt lat="43.63913" lon="2.16558">
        <ele>215</ele>
        <time>2021-07-24T19:02:59Z</time>
      </trkpt>
      <trkpt lat="43.6391" lon="2.16606">
        <ele>215</ele>
        <time>2021-07-24T19:03:05Z</time>
      </trkpt>
      <trkpt lat="43.63896" lon="2.16797">
        <ele>211</ele>
        <time>2021-07-24T19:03:30Z</time>
      </trkpt>
      <trkpt lat="43.63887" lon="2.16899">
        <ele>209</ele>
        <time>2021-07-24T19:03:43Z</time>
      </trkpt>
      <trkpt lat="43.63881" lon="2.16931">
        <ele>209</ele>
        <time>2021-07-24T19:03:47Z</time>
      </trkpt>
      <trkpt lat="43.63864" lon="2.17002">
        <ele>209</ele>
        <time>2021-07-24T19:03:57Z</time>
      </trkpt>
      <trkpt lat="43.6386" lon="2.17018">
        <ele>209</ele>
        <time>2021-07-24T19:03:59Z</time>
      </trkpt>
      <trkpt lat="43.63853" lon="2.17078">
        <ele>211</ele>
        <time>2021-07-24T19:04:07Z</time>
      </trkpt>
      <trkpt lat="43.63849" lon="2.17128">
        <ele>213</ele>
        <time>2021-07-24T19:04:13Z</time>
      </trkpt>
      <trkpt lat="43.63849" lon="2.17177">
        <ele>214</ele>
        <time>2021-07-24T19:04:19Z</time>
      </trkpt>
      <trkpt lat="43.63854" lon="2.17268">
        <ele>214</ele>
        <time>2021-07-24T19:04:31Z</time>
      </trkpt>
      <trkpt lat="43.63852" lon="2.17287">
        <ele>213</ele>
        <time>2021-07-24T19:04:34Z</time>
      </trkpt>
      <trkpt lat="43.63847" lon="2.17305">
        <ele>212</ele>
        <time>2021-07-24T19:04:36Z</time>
      </trkpt>
      <trkpt lat="43.63838" lon="2.17322">
        <ele>211</ele>
        <time>2021-07-24T19:04:39Z</time>
      </trkpt>
      <trkpt lat="43.63763" lon="2.17412">
        <ele>206</ele>
        <time>2021-07-24T19:04:57Z</time>
      </trkpt>
      <trkpt lat="43.63733" lon="2.17457">
        <ele>204</ele>
        <time>2021-07-24T19:05:04Z</time>
      </trkpt>
      <trkpt lat="43.6372" lon="2.1749">
        <ele>203</ele>
        <time>2021-07-24T19:05:09Z</time>
      </trkpt>
      <trkpt lat="43.63711" lon="2.17523">
        <ele>201</ele>
        <time>2021-07-24T19:05:14Z</time>
      </trkpt>
      <trkpt lat="43.6369" lon="2.17679">
        <ele>190</ele>
        <time>2021-07-24T19:05:34Z</time>
      </trkpt>
      <trkpt lat="43.63679" lon="2.17714">
        <ele>189</ele>
        <time>2021-07-24T19:05:39Z</time>
      </trkpt>
      <trkpt lat="43.63664" lon="2.17739">
        <ele>188</ele>
        <time>2021-07-24T19:05:43Z</time>
      </trkpt>
      <trkpt lat="43.63651" lon="2.17759">
        <ele>187</ele>
        <time>2021-07-24T19:05:47Z</time>
      </trkpt>
      <trkpt lat="43.63634" lon="2.17781">
        <ele>188</ele>
        <time>2021-07-24T19:05:51Z</time>
      </trkpt>
      <trkpt lat="43.63609" lon="2.17818">
        <ele>188</ele>
        <time>2021-07-24T19:05:57Z</time>
      </trkpt>
      <trkpt lat="43.63559" lon="2.17907">
        <ele>188</ele>
        <time>2021-07-24T19:06:12Z</time>
      </trkpt>
      <trkpt lat="43.63509" lon="2.1801">
        <ele>185</ele>
        <time>2021-07-24T19:06:28Z</time>
      </trkpt>
      <trkpt lat="43.63505" lon="2.18026">
        <ele>185</ele>
        <time>2021-07-24T19:06:30Z</time>
      </trkpt>
      <trkpt lat="43.63503" lon="2.18032">
        <ele>185</ele>
        <time>2021-07-24T19:06:31Z</time>
      </trkpt>
      <trkpt lat="43.63498" lon="2.18067">
        <ele>185</ele>
        <time>2021-07-24T19:06:36Z</time>
      </trkpt>
      <trkpt lat="43.63498" lon="2.18079">
        <ele>185</ele>
        <time>2021-07-24T19:06:37Z</time>
      </trkpt>
      <trkpt lat="43.63495" lon="2.18342">
        <ele>185</ele>
        <time>2021-07-24T19:07:11Z</time>
      </trkpt>
      <trkpt lat="43.63489" lon="2.18376">
        <ele>185</ele>
        <time>2021-07-24T19:07:16Z</time>
      </trkpt>
      <trkpt lat="43.6347" lon="2.18476">
        <ele>186</ele>
        <time>2021-07-24T19:07:29Z</time>
      </trkpt>
      <trkpt lat="43.63445" lon="2.18584">
        <ele>188</ele>
        <time>2021-07-24T19:07:43Z</time>
      </trkpt>
      <trkpt lat="43.63436" lon="2.18645">
        <ele>189</ele>
        <time>2021-07-24T19:07:51Z</time>
      </trkpt>
      <trkpt lat="43.6343" lon="2.18698">
        <ele>189</ele>
        <time>2021-07-24T19:07:58Z</time>
      </trkpt>
      <trkpt lat="43.63425" lon="2.18808">
        <ele>189</ele>
        <time>2021-07-24T19:08:13Z</time>
      </trkpt>
      <trkpt lat="43.6342" lon="2.1884">
        <ele>189</ele>
        <time>2021-07-24T19:08:17Z</time>
      </trkpt>
      <trkpt lat="43.63411" lon="2.18871">
        <ele>189</ele>
        <time>2021-07-24T19:08:21Z</time>
      </trkpt>
      <trkpt lat="43.63388" lon="2.18925">
        <ele>189</ele>
        <time>2021-07-24T19:08:29Z</time>
      </trkpt>
      <trkpt lat="43.63352" lon="2.18991">
        <ele>190</ele>
        <time>2021-07-24T19:08:40Z</time>
      </trkpt>
      <trkpt lat="43.63315" lon="2.19051">
        <ele>189</ele>
        <time>2021-07-24T19:08:50Z</time>
      </trkpt>
      <trkpt lat="43.63282" lon="2.19128">
        <ele>190</ele>
        <time>2021-07-24T19:09:01Z</time>
      </trkpt>
      <trkpt lat="43.6323" lon="2.1925">
        <ele>192</ele>
        <time>2021-07-24T19:09:20Z</time>
      </trkpt>
      <trkpt lat="43.63094" lon="2.19567">
        <ele>200</ele>
        <time>2021-07-24T19:10:07Z</time>
      </trkpt>
      <trkpt lat="43.6309" lon="2.19583">
        <ele>200</ele>
        <time>2021-07-24T19:10:09Z</time>
      </trkpt>
      <trkpt lat="43.63086" lon="2.19598">
        <ele>201</ele>
        <time>2021-07-24T19:10:11Z</time>
      </trkpt>
      <trkpt lat="43.63106" lon="2.19625">
        <ele>202</ele>
        <time>2021-07-24T19:10:16Z</time>
      </trkpt>
      <trkpt lat="43.63154" lon="2.19707">
        <ele>207</ele>
        <time>2021-07-24T19:10:30Z</time>
      </trkpt>
      <trkpt lat="43.63165" lon="2.19732">
        <ele>208</ele>
        <time>2021-07-24T19:10:34Z</time>
      </trkpt>
      <trkpt lat="43.63155" lon="2.1985">
        <ele>212</ele>
        <time>2021-07-24T19:10:49Z</time>
      </trkpt>
      <trkpt lat="43.63154" lon="2.19896">
        <ele>212</ele>
        <time>2021-07-24T19:10:55Z</time>
      </trkpt>
      <trkpt lat="43.63168" lon="2.20092">
        <ele>220</ele>
        <time>2021-07-24T19:11:20Z</time>
      </trkpt>
      <trkpt lat="43.63178" lon="2.20159">
        <ele>222</ele>
        <time>2021-07-24T19:11:29Z</time>
      </trkpt>
      <trkpt lat="43.63185" lon="2.20218">
        <ele>223</ele>
        <time>2021-07-24T19:11:37Z</time>
      </trkpt>
      <trkpt lat="43.63186" lon="2.20224">
        <ele>223</ele>
        <time>2021-07-24T19:11:38Z</time>
      </trkpt>
      <trkpt lat="43.6299" lon="2.20532">
        <ele>223</ele>
        <time>2021-07-24T19:12:30Z</time>
      </trkpt>
      <trkpt lat="43.62947" lon="2.20604">
        <ele>223</ele>
        <time>2021-07-24T19:12:42Z</time>
      </trkpt>
      <trkpt lat="43.62904" lon="2.20675">
        <ele>223</ele>
        <time>2021-07-24T19:12:54Z</time>
      </trkpt>
      <trkpt lat="43.62847" lon="2.20764">
        <ele>222</ele>
        <time>2021-07-24T19:13:10Z</time>
      </trkpt>
      <trkpt lat="43.62804" lon="2.20829">
        <ele>223</ele>
        <time>2021-07-24T19:13:21Z</time>
      </trkpt>
      <trkpt lat="43.62771" lon="2.20885">
        <ele>223</ele>
        <time>2021-07-24T19:13:30Z</time>
      </trkpt>
      <trkpt lat="43.62732" lon="2.2093">
        <ele>221</ele>
        <time>2021-07-24T19:13:39Z</time>
      </trkpt>
      <trkpt lat="43.62652" lon="2.20991">
        <ele>219</ele>
        <time>2021-07-24T19:13:56Z</time>
      </trkpt>
      <trkpt lat="43.62638" lon="2.20998">
        <ele>218</ele>
        <time>2021-07-24T19:13:58Z</time>
      </trkpt>
      <trkpt lat="43.62629" lon="2.21">
        <ele>218</ele>
        <time>2021-07-24T19:14:00Z</time>
      </trkpt>
      <trkpt lat="43.62623" lon="2.20999">
        <ele>218</ele>
        <time>2021-07-24T19:14:01Z</time>
      </trkpt>
      <trkpt lat="43.62618" lon="2.20997">
        <ele>218</ele>
        <time>2021-07-24T19:14:02Z</time>
      </trkpt>
      <trkpt lat="43.62613" lon="2.20998">
        <ele>218</ele>
        <time>2021-07-24T19:14:03Z</time>
      </trkpt>
      <trkpt lat="43.62608" lon="2.21001">
        <ele>218</ele>
        <time>2021-07-24T19:14:04Z</time>
      </trkpt>
      <trkpt lat="43.62604" lon="2.21006">
        <ele>218</ele>
        <time>2021-07-24T19:14:05Z</time>
      </trkpt>
      <trkpt lat="43.62591" lon="2.21014">
        <ele>217</ele>
        <time>2021-07-24T19:14:07Z</time>
      </trkpt>
      <trkpt lat="43.6257" lon="2.2102">
        <ele>217</ele>
        <time>2021-07-24T19:14:11Z</time>
      </trkpt>
      <trkpt lat="43.62538" lon="2.21024">
        <ele>215</ele>
        <time>2021-07-24T19:14:17Z</time>
      </trkpt>
      <trkpt lat="43.62494" lon="2.21058">
        <ele>214</ele>
        <time>2021-07-24T19:14:26Z</time>
      </trkpt>
      <trkpt lat="43.62467" lon="2.2111">
        <ele>214</ele>
        <time>2021-07-24T19:14:34Z</time>
      </trkpt>
      <trkpt lat="43.62457" lon="2.21158">
        <ele>215</ele>
        <time>2021-07-24T19:14:40Z</time>
      </trkpt>
      <trkpt lat="43.62442" lon="2.21228">
        <ele>218</ele>
        <time>2021-07-24T19:14:50Z</time>
      </trkpt>
      <trkpt lat="43.62426" lon="2.21299">
        <ele>220</ele>
        <time>2021-07-24T19:14:59Z</time>
      </trkpt>
      <trkpt lat="43.62419" lon="2.21339">
        <ele>222</ele>
        <time>2021-07-24T19:15:05Z</time>
      </trkpt>
      <trkpt lat="43.6241" lon="2.21352">
        <ele>222</ele>
        <time>2021-07-24T19:15:07Z</time>
      </trkpt>
      <trkpt lat="43.62412" lon="2.2137">
        <ele>223</ele>
        <time>2021-07-24T19:15:09Z</time>
      </trkpt>
      <trkpt lat="43.62419" lon="2.21379">
        <ele>224</ele>
        <time>2021-07-24T19:15:11Z</time>
      </trkpt>
      <trkpt lat="43.62421" lon="2.21417">
        <ele>225</ele>
        <time>2021-07-24T19:15:16Z</time>
      </trkpt>
      <trkpt lat="43.62416" lon="2.21527">
        <ele>226</ele>
        <time>2021-07-24T19:15:30Z</time>
      </trkpt>
      <trkpt lat="43.62407" lon="2.21579">
        <ele>226</ele>
        <time>2021-07-24T19:15:37Z</time>
      </trkpt>
      <trkpt lat="43.62373" lon="2.21672">
        <ele>227</ele>
        <time>2021-07-24T19:15:50Z</time>
      </trkpt>
      <trkpt lat="43.62339" lon="2.21775">
        <ele>229</ele>
        <time>2021-07-24T19:16:05Z</time>
      </trkpt>
      <trkpt lat="43.6233" lon="2.21817">
        <ele>229</ele>
        <time>2021-07-24T19:16:11Z</time>
      </trkpt>
      <trkpt lat="43.62316" lon="2.21856">
        <ele>228</ele>
        <time>2021-07-24T19:16:16Z</time>
      </trkpt>
      <trkpt lat="43.6231" lon="2.21858">
        <ele>228</ele>
        <time>2021-07-24T19:16:17Z</time>
      </trkpt>
      <trkpt lat="43.62306" lon="2.21861">
        <ele>228</ele>
        <time>2021-07-24T19:16:18Z</time>
      </trkpt>
      <trkpt lat="43.62301" lon="2.21876">
        <ele>228</ele>
        <time>2021-07-24T19:16:20Z</time>
      </trkpt>
      <trkpt lat="43.62301" lon="2.21885">
        <ele>228</ele>
        <time>2021-07-24T19:16:21Z</time>
      </trkpt>
      <trkpt lat="43.62295" lon="2.21894">
        <ele>228</ele>
        <time>2021-07-24T19:16:23Z</time>
      </trkpt>
      <trkpt lat="43.62289" lon="2.21901">
        <ele>228</ele>
        <time>2021-07-24T19:16:24Z</time>
      </trkpt>
      <trkpt lat="43.62287" lon="2.21908">
        <ele>228</ele>
        <time>2021-07-24T19:16:25Z</time>
      </trkpt>
      <trkpt lat="43.62275" lon="2.21927">
        <ele>228</ele>
        <time>2021-07-24T19:16:29Z</time>
      </trkpt>
      <trkpt lat="43.62224" lon="2.22058">
        <ele>228</ele>
        <time>2021-07-24T19:16:48Z</time>
      </trkpt>
      <trkpt lat="43.62137" lon="2.22283">
        <ele>230</ele>
        <time>2021-07-24T19:17:21Z</time>
      </trkpt>
      <trkpt lat="43.62128" lon="2.22306">
        <ele>229</ele>
        <time>2021-07-24T19:17:24Z</time>
      </trkpt>
      <trkpt lat="43.62101" lon="2.22372">
        <ele>230</ele>
        <time>2021-07-24T19:17:34Z</time>
      </trkpt>
      <trkpt lat="43.62082" lon="2.22417">
        <ele>231</ele>
        <time>2021-07-24T19:17:41Z</time>
      </trkpt>
      <trkpt lat="43.6203" lon="2.22485">
        <ele>230</ele>
        <time>2021-07-24T19:17:53Z</time>
      </trkpt>
      <trkpt lat="43.62022" lon="2.22495">
        <ele>230</ele>
        <time>2021-07-24T19:17:55Z</time>
      </trkpt>
      <trkpt lat="43.61798" lon="2.22771">
        <ele>200</ele>
        <time>2021-07-24T19:18:49Z</time>
      </trkpt>
      <trkpt lat="43.61726" lon="2.22859">
        <ele>198</ele>
        <time>2021-07-24T19:19:06Z</time>
      </trkpt>
      <trkpt lat="43.61703" lon="2.22887">
        <ele>197</ele>
        <time>2021-07-24T19:19:11Z</time>
      </trkpt>
      <trkpt lat="43.61651" lon="2.22952">
        <ele>195</ele>
        <time>2021-07-24T19:19:24Z</time>
      </trkpt>
      <trkpt lat="43.6165" lon="2.22953">
        <ele>195</ele>
        <time>2021-07-24T19:19:24Z</time>
      </trkpt>
      <trkpt lat="43.61641" lon="2.22964">
        <ele>194</ele>
        <time>2021-07-24T19:19:26Z</time>
      </trkpt>
      <trkpt lat="43.61632" lon="2.22976">
        <ele>194</ele>
        <time>2021-07-24T19:19:28Z</time>
      </trkpt>
      <trkpt lat="43.61605" lon="2.23009">
        <ele>194</ele>
        <time>2021-07-24T19:19:35Z</time>
      </trkpt>
      <trkpt lat="43.61529" lon="2.23104">
        <ele>193</ele>
        <time>2021-07-24T19:19:53Z</time>
      </trkpt>
      <trkpt lat="43.6152" lon="2.23114">
        <ele>193</ele>
        <time>2021-07-24T19:19:55Z</time>
      </trkpt>
      <trkpt lat="43.61398" lon="2.23267">
        <ele>189</ele>
        <time>2021-07-24T19:20:24Z</time>
      </trkpt>
      <trkpt lat="43.61392" lon="2.23274">
        <ele>188</ele>
        <time>2021-07-24T19:20:26Z</time>
      </trkpt>
      <trkpt lat="43.61386" lon="2.23281">
        <ele>188</ele>
        <time>2021-07-24T19:20:27Z</time>
      </trkpt>
      <trkpt lat="43.61384" lon="2.23284">
        <ele>188</ele>
        <time>2021-07-24T19:20:28Z</time>
      </trkpt>
      <trkpt lat="43.61371" lon="2.233">
        <ele>188</ele>
        <time>2021-07-24T19:20:31Z</time>
      </trkpt>
      <trkpt lat="43.61303" lon="2.23381">
        <ele>187</ele>
        <time>2021-07-24T19:20:47Z</time>
      </trkpt>
      <trkpt lat="43.61281" lon="2.23403">
        <ele>186</ele>
        <time>2021-07-24T19:20:51Z</time>
      </trkpt>
      <trkpt lat="43.61189" lon="2.23516">
        <ele>185</ele>
        <time>2021-07-24T19:21:13Z</time>
      </trkpt>
      <trkpt lat="43.61181" lon="2.23532">
        <ele>185</ele>
        <time>2021-07-24T19:21:16Z</time>
      </trkpt>
      <trkpt lat="43.61131" lon="2.23596">
        <ele>185</ele>
        <time>2021-07-24T19:21:28Z</time>
      </trkpt>
      <trkpt lat="43.61101" lon="2.23618">
        <ele>184</ele>
        <time>2021-07-24T19:21:34Z</time>
      </trkpt>
      <trkpt lat="43.61096" lon="2.23625">
        <ele>184</ele>
        <time>2021-07-24T19:21:35Z</time>
      </trkpt>
      <trkpt lat="43.61079" lon="2.23659">
        <ele>184</ele>
        <time>2021-07-24T19:21:41Z</time>
      </trkpt>
      <trkpt lat="43.61004" lon="2.2375">
        <ele>181</ele>
        <time>2021-07-24T19:21:58Z</time>
      </trkpt>
      <trkpt lat="43.61002" lon="2.23754">
        <ele>181</ele>
        <time>2021-07-24T19:21:59Z</time>
      </trkpt>
      <trkpt lat="43.60995" lon="2.23763">
        <ele>181</ele>
        <time>2021-07-24T19:22:01Z</time>
      </trkpt>
      <trkpt lat="43.60986" lon="2.23772">
        <ele>181</ele>
        <time>2021-07-24T19:22:03Z</time>
      </trkpt>
      <trkpt lat="43.60971" lon="2.23769">
        <ele>181</ele>
        <time>2021-07-24T19:22:05Z</time>
      </trkpt>
      <trkpt lat="43.60909" lon="2.23756">
        <ele>182</ele>
        <time>2021-07-24T19:22:17Z</time>
      </trkpt>
      <trkpt lat="43.60897" lon="2.2375">
        <ele>182</ele>
        <time>2021-07-24T19:22:19Z</time>
      </trkpt>
      <trkpt lat="43.60884" lon="2.23747">
        <ele>182</ele>
        <time>2021-07-24T19:22:21Z</time>
      </trkpt>
      <trkpt lat="43.60877" lon="2.23747">
        <ele>182</ele>
        <time>2021-07-24T19:22:22Z</time>
      </trkpt>
      <trkpt lat="43.60846" lon="2.23745">
        <ele>182</ele>
        <time>2021-07-24T19:22:28Z</time>
      </trkpt>
      <trkpt lat="43.60837" lon="2.23743">
        <ele>182</ele>
        <time>2021-07-24T19:22:30Z</time>
      </trkpt>
      <trkpt lat="43.60778" lon="2.23729">
        <ele>182</ele>
        <time>2021-07-24T19:22:40Z</time>
      </trkpt>
      <trkpt lat="43.60747" lon="2.23723">
        <ele>183</ele>
        <time>2021-07-24T19:22:46Z</time>
      </trkpt>
      <trkpt lat="43.60712" lon="2.23715">
        <ele>183</ele>
        <time>2021-07-24T19:22:52Z</time>
      </trkpt>
      <trkpt lat="43.60709" lon="2.23714">
        <ele>183</ele>
        <time>2021-07-24T19:22:53Z</time>
      </trkpt>
      <trkpt lat="43.60706" lon="2.23714">
        <ele>183</ele>
        <time>2021-07-24T19:22:53Z</time>
      </trkpt>
      <trkpt lat="43.60702" lon="2.23713">
        <ele>183</ele>
        <time>2021-07-24T19:22:54Z</time>
      </trkpt>
      <trkpt lat="43.60681" lon="2.23709">
        <ele>183</ele>
        <time>2021-07-24T19:22:58Z</time>
      </trkpt>
      <trkpt lat="43.60671" lon="2.23709">
        <ele>183</ele>
        <time>2021-07-24T19:22:59Z</time>
      </trkpt>
      <trkpt lat="43.60645" lon="2.2371">
        <ele>182</ele>
        <time>2021-07-24T19:23:04Z</time>
      </trkpt>
      <trkpt lat="43.60589" lon="2.23712">
        <ele>182</ele>
        <time>2021-07-24T19:23:14Z</time>
      </trkpt>
      <trkpt lat="43.6053" lon="2.23713">
        <ele>182</ele>
        <time>2021-07-24T19:23:25Z</time>
      </trkpt>
      <trkpt lat="43.60528" lon="2.23713">
        <ele>182</ele>
        <time>2021-07-24T19:23:25Z</time>
      </trkpt>
      <trkpt lat="43.60525" lon="2.23713">
        <ele>182</ele>
        <time>2021-07-24T19:23:25Z</time>
      </trkpt>
      <trkpt lat="43.60514" lon="2.23716">
        <ele>182</ele>
        <time>2021-07-24T19:23:27Z</time>
      </trkpt>
      <trkpt lat="43.60475" lon="2.2374">
        <ele>182</ele>
        <time>2021-07-24T19:23:35Z</time>
      </trkpt>
      <trkpt lat="43.60384" lon="2.23795">
        <ele>181</ele>
        <time>2021-07-24T19:23:53Z</time>
      </trkpt>
      <trkpt lat="43.60377" lon="2.23799">
        <ele>180</ele>
        <time>2021-07-24T19:23:54Z</time>
      </trkpt>
      <trkpt lat="43.60375" lon="2.238">
        <ele>180</ele>
        <time>2021-07-24T19:23:54Z</time>
      </trkpt>
      <trkpt lat="43.6036" lon="2.23809">
        <ele>180</ele>
        <time>2021-07-24T19:23:57Z</time>
      </trkpt>
      <trkpt lat="43.60351" lon="2.23817">
        <ele>180</ele>
        <time>2021-07-24T19:23:59Z</time>
      </trkpt>
      <trkpt lat="43.60343" lon="2.23828">
        <ele>179</ele>
        <time>2021-07-24T19:24:01Z</time>
      </trkpt>
      <trkpt lat="43.60324" lon="2.23864">
        <ele>179</ele>
        <time>2021-07-24T19:24:07Z</time>
      </trkpt>
      <trkpt lat="43.60313" lon="2.23883">
        <ele>180</ele>
        <time>2021-07-24T19:24:10Z</time>
      </trkpt>
      <trkpt lat="43.60288" lon="2.2393">
        <ele>179</ele>
        <time>2021-07-24T19:24:18Z</time>
      </trkpt>
      <trkpt lat="43.60287" lon="2.23934">
        <ele>179</ele>
        <time>2021-07-24T19:24:18Z</time>
      </trkpt>
      <trkpt lat="43.60282" lon="2.23943">
        <ele>179</ele>
        <time>2021-07-24T19:24:20Z</time>
      </trkpt>
      <trkpt lat="43.60276" lon="2.23954">
        <ele>179</ele>
        <time>2021-07-24T19:24:21Z</time>
      </trkpt>
      <trkpt lat="43.60271" lon="2.23962">
        <ele>179</ele>
        <time>2021-07-24T19:24:23Z</time>
      </trkpt>
      <trkpt lat="43.6027" lon="2.23967">
        <ele>179</ele>
        <time>2021-07-24T19:24:23Z</time>
      </trkpt>
      <trkpt lat="43.60269" lon="2.24064">
        <ele>180</ele>
        <time>2021-07-24T19:24:36Z</time>
      </trkpt>
      <trkpt lat="43.60269" lon="2.2407">
        <ele>180</ele>
        <time>2021-07-24T19:24:37Z</time>
      </trkpt>
      <trkpt lat="43.60268" lon="2.24077">
        <ele>180</ele>
        <time>2021-07-24T19:24:38Z</time>
      </trkpt>
      <trkpt lat="43.60266" lon="2.24082">
        <ele>180</ele>
        <time>2021-07-24T19:24:38Z</time>
      </trkpt>
      <trkpt lat="43.60264" lon="2.24086">
        <ele>180</ele>
        <time>2021-07-24T19:24:39Z</time>
      </trkpt>
      <trkpt lat="43.60261" lon="2.2409">
        <ele>180</ele>
        <time>2021-07-24T19:24:40Z</time>
      </trkpt>
      <trkpt lat="43.60256" lon="2.24093">
        <ele>180</ele>
        <time>2021-07-24T19:24:41Z</time>
      </trkpt>
      <trkpt lat="43.60249" lon="2.24096">
        <ele>179</ele>
        <time>2021-07-24T19:24:42Z</time>
      </trkpt>
      <trkpt lat="43.60239" lon="2.24097">
        <ele>179</ele>
        <time>2021-07-24T19:24:44Z</time>
      </trkpt>
      <trkpt lat="43.60226" lon="2.24099">
        <ele>178</ele>
        <time>2021-07-24T19:24:46Z</time>
      </trkpt>
      <trkpt lat="43.60219" lon="2.24101">
        <ele>178</ele>
        <time>2021-07-24T19:24:47Z</time>
      </trkpt>
      <trkpt lat="43.60212" lon="2.24107">
        <ele>178</ele>
        <time>2021-07-24T19:24:49Z</time>
      </trkpt>
      <trkpt lat="43.60205" lon="2.24117">
        <ele>177</ele>
        <time>2021-07-24T19:24:51Z</time>
      </trkpt>
      <trkpt lat="43.602" lon="2.24128">
        <ele>177</ele>
        <time>2021-07-24T19:24:52Z</time>
      </trkpt>
      <trkpt lat="43.60197" lon="2.24142">
        <ele>176</ele>
        <time>2021-07-24T19:24:54Z</time>
      </trkpt>
      <trkpt lat="43.60196" lon="2.24163">
        <ele>176</ele>
        <time>2021-07-24T19:24:57Z</time>
      </trkpt>
      <trkpt lat="43.602" lon="2.24188">
        <ele>175</ele>
        <time>2021-07-24T19:25:00Z</time>
      </trkpt>
      <trkpt lat="43.60201" lon="2.24195">
        <ele>174</ele>
        <time>2021-07-24T19:25:01Z</time>
      </trkpt>
      <trkpt lat="43.60217" lon="2.24287">
        <ele>171</ele>
        <time>2021-07-24T19:25:13Z</time>
      </trkpt>
      <trkpt lat="43.60224" lon="2.2433">
        <ele>170</ele>
        <time>2021-07-24T19:25:19Z</time>
      </trkpt>
      <trkpt lat="43.60229" lon="2.24343">
        <ele>171</ele>
        <time>2021-07-24T19:25:21Z</time>
      </trkpt>
      <trkpt lat="43.60236" lon="2.24352">
        <ele>171</ele>
        <time>2021-07-24T19:25:23Z</time>
      </trkpt>
      <trkpt lat="43.60245" lon="2.24357">
        <ele>171</ele>
        <time>2021-07-24T19:25:24Z</time>
      </trkpt>
      <trkpt lat="43.60253" lon="2.24365">
        <ele>171</ele>
        <time>2021-07-24T19:25:26Z</time>
      </trkpt>
      <trkpt lat="43.60332" lon="2.24405">
        <ele>175</ele>
        <time>2021-07-24T19:25:41Z</time>
      </trkpt>
      <trkpt lat="43.60363" lon="2.24423">
        <ele>176</ele>
        <time>2021-07-24T19:25:47Z</time>
      </trkpt>
      <trkpt lat="43.60385" lon="2.24433">
        <ele>177</ele>
        <time>2021-07-24T19:25:51Z</time>
      </trkpt>
      <trkpt lat="43.60415" lon="2.24462">
        <ele>178</ele>
        <time>2021-07-24T19:25:58Z</time>
      </trkpt>
      <trkpt lat="43.6042" lon="2.24486">
        <ele>179</ele>
        <time>2021-07-24T19:26:01Z</time>
      </trkpt>
      <trkpt lat="43.60419" lon="2.24514">
        <ele>179</ele>
        <time>2021-07-24T19:26:05Z</time>
      </trkpt>
      <trkpt lat="43.6034" lon="2.24714">
        <ele>178</ele>
        <time>2021-07-24T19:26:34Z</time>
      </trkpt>
      <trkpt lat="43.60268" lon="2.24889">
        <ele>177</ele>
        <time>2021-07-24T19:27:00Z</time>
      </trkpt>
      <trkpt lat="43.6015" lon="2.25195">
        <ele>177</ele>
        <time>2021-07-24T19:27:44Z</time>
      </trkpt>
      <trkpt lat="43.60139" lon="2.25218">
        <ele>178</ele>
        <time>2021-07-24T19:27:48Z</time>
      </trkpt>
      <trkpt lat="43.60083" lon="2.25361">
        <ele>180</ele>
        <time>2021-07-24T19:28:09Z</time>
      </trkpt>
      <trkpt lat="43.60049" lon="2.25432">
        <ele>179</ele>
        <time>2021-07-24T19:28:20Z</time>
      </trkpt>
      <trkpt lat="43.60007" lon="2.25514">
        <ele>178</ele>
        <time>2021-07-24T19:28:33Z</time>
      </trkpt>
      <trkpt lat="43.59711" lon="2.26068">
        <ele>180</ele>
        <time>2021-07-24T19:30:02Z</time>
      </trkpt>
      <trkpt lat="43.59579" lon="2.26319">
        <ele>181</ele>
        <time>2021-07-24T19:30:42Z</time>
      </trkpt>
      <trkpt lat="43.59528" lon="2.264">
        <ele>180</ele>
        <time>2021-07-24T19:30:55Z</time>
      </trkpt>
      <trkpt lat="43.5951" lon="2.26425">
        <ele>180</ele>
        <time>2021-07-24T19:31:00Z</time>
      </trkpt>
      <trkpt lat="43.59507" lon="2.26427">
        <ele>180</ele>
        <time>2021-07-24T19:31:01Z</time>
      </trkpt>
      <trkpt lat="43.59457" lon="2.26485">
        <ele>182</ele>
        <time>2021-07-24T19:31:12Z</time>
      </trkpt>
      <trkpt lat="43.59394" lon="2.26546">
        <ele>184</ele>
        <time>2021-07-24T19:31:26Z</time>
      </trkpt>
      <trkpt lat="43.59373" lon="2.26562">
        <ele>183</ele>
        <time>2021-07-24T19:31:30Z</time>
      </trkpt>
      <trkpt lat="43.59355" lon="2.26579">
        <ele>183</ele>
        <time>2021-07-24T19:31:34Z</time>
      </trkpt>
      <trkpt lat="43.59266" lon="2.26656">
        <ele>183</ele>
        <time>2021-07-24T19:31:53Z</time>
      </trkpt>
      <trkpt lat="43.59263" lon="2.26651">
        <ele>183</ele>
        <time>2021-07-24T19:31:54Z</time>
      </trkpt>
      <trkpt lat="43.5926" lon="2.26648">
        <ele>183</ele>
        <time>2021-07-24T19:31:54Z</time>
      </trkpt>
      <trkpt lat="43.59255" lon="2.26646">
        <ele>183</ele>
        <time>2021-07-24T19:31:55Z</time>
      </trkpt>
      <trkpt lat="43.59252" lon="2.26646">
        <ele>183</ele>
        <time>2021-07-24T19:31:56Z</time>
      </trkpt>
      <trkpt lat="43.59247" lon="2.26647">
        <ele>183</ele>
        <time>2021-07-24T19:31:57Z</time>
      </trkpt>
      <trkpt lat="43.59241" lon="2.26654">
        <ele>183</ele>
        <time>2021-07-24T19:31:58Z</time>
      </trkpt>
      <trkpt lat="43.59239" lon="2.26659">
        <ele>184</ele>
        <time>2021-07-24T19:31:59Z</time>
      </trkpt>
      <trkpt lat="43.59237" lon="2.26665">
        <ele>184</ele>
        <time>2021-07-24T19:32:00Z</time>
      </trkpt>
      <trkpt lat="43.59238" lon="2.26672">
        <ele>184</ele>
        <time>2021-07-24T19:32:00Z</time>
      </trkpt>
      <trkpt lat="43.5924" lon="2.26678">
        <ele>184</ele>
        <time>2021-07-24T19:32:01Z</time>
      </trkpt>
      <trkpt lat="43.59234" lon="2.26683">
        <ele>184</ele>
        <time>2021-07-24T19:32:03Z</time>
      </trkpt>
      <trkpt lat="43.59047" lon="2.26848">
        <ele>186</ele>
        <time>2021-07-24T19:32:42Z</time>
      </trkpt>
      <trkpt lat="43.59017" lon="2.26872">
        <ele>186</ele>
        <time>2021-07-24T19:32:48Z</time>
      </trkpt>
      <trkpt lat="43.58973" lon="2.26918">
        <ele>187</ele>
        <time>2021-07-24T19:32:58Z</time>
      </trkpt>
      <trkpt lat="43.58931" lon="2.26954">
        <ele>188</ele>
        <time>2021-07-24T19:33:07Z</time>
      </trkpt>
      <trkpt lat="43.58887" lon="2.26996">
        <ele>187</ele>
        <time>2021-07-24T19:33:16Z</time>
      </trkpt>
      <trkpt lat="43.58795" lon="2.27075">
        <ele>188</ele>
        <time>2021-07-24T19:33:36Z</time>
      </trkpt>
      <trkpt lat="43.58788" lon="2.27066">
        <ele>188</ele>
        <time>2021-07-24T19:33:37Z</time>
      </trkpt>
      <trkpt lat="43.58779" lon="2.27061">
        <ele>189</ele>
        <time>2021-07-24T19:33:39Z</time>
      </trkpt>
      <trkpt lat="43.5877" lon="2.2706">
        <ele>189</ele>
        <time>2021-07-24T19:33:41Z</time>
      </trkpt>
      <trkpt lat="43.58762" lon="2.27062">
        <ele>189</ele>
        <time>2021-07-24T19:33:42Z</time>
      </trkpt>
      <trkpt lat="43.58756" lon="2.27067">
        <ele>189</ele>
        <time>2021-07-24T19:33:43Z</time>
      </trkpt>
      <trkpt lat="43.5875" lon="2.27075">
        <ele>189</ele>
        <time>2021-07-24T19:33:45Z</time>
      </trkpt>
      <trkpt lat="43.58746" lon="2.27085">
        <ele>189</ele>
        <time>2021-07-24T19:33:46Z</time>
      </trkpt>
      <trkpt lat="43.58745" lon="2.27096">
        <ele>189</ele>
        <time>2021-07-24T19:33:48Z</time>
      </trkpt>
      <trkpt lat="43.58746" lon="2.27108">
        <ele>189</ele>
        <time>2021-07-24T19:33:49Z</time>
      </trkpt>
      <trkpt lat="43.58749" lon="2.27118">
        <ele>189</ele>
        <time>2021-07-24T19:33:51Z</time>
      </trkpt>
      <trkpt lat="43.58482" lon="2.27347">
        <ele>193</ele>
        <time>2021-07-24T19:34:47Z</time>
      </trkpt>
      <trkpt lat="43.58338" lon="2.27473">
        <ele>195</ele>
        <time>2021-07-24T19:35:17Z</time>
      </trkpt>
      <trkpt lat="43.58303" lon="2.27501">
        <ele>195</ele>
        <time>2021-07-24T19:35:24Z</time>
      </trkpt>
      <trkpt lat="43.58266" lon="2.27527">
        <ele>195</ele>
        <time>2021-07-24T19:35:32Z</time>
      </trkpt>
      <trkpt lat="43.58252" lon="2.27536">
        <ele>195</ele>
        <time>2021-07-24T19:35:34Z</time>
      </trkpt>
      <trkpt lat="43.58148" lon="2.27599">
        <ele>193</ele>
        <time>2021-07-24T19:35:54Z</time>
      </trkpt>
      <trkpt lat="43.58079" lon="2.27648">
        <ele>193</ele>
        <time>2021-07-24T19:36:08Z</time>
      </trkpt>
      <trkpt lat="43.58047" lon="2.2767">
        <ele>193</ele>
        <time>2021-07-24T19:36:15Z</time>
      </trkpt>
      <trkpt lat="43.58025" lon="2.27688">
        <ele>193</ele>
        <time>2021-07-24T19:36:19Z</time>
      </trkpt>
      <trkpt lat="43.57851" lon="2.27892">
        <ele>199</ele>
        <time>2021-07-24T19:37:00Z</time>
      </trkpt>
      <trkpt lat="43.57798" lon="2.27975">
        <ele>201</ele>
        <time>2021-07-24T19:37:14Z</time>
      </trkpt>
      <trkpt lat="43.57718" lon="2.28113">
        <ele>203</ele>
        <time>2021-07-24T19:37:37Z</time>
      </trkpt>
      <trkpt lat="43.57559" lon="2.28369">
        <ele>205</ele>
        <time>2021-07-24T19:38:20Z</time>
      </trkpt>
      <trkpt lat="43.57448" lon="2.28541">
        <ele>207</ele>
        <time>2021-07-24T19:38:50Z</time>
      </trkpt>
      <trkpt lat="43.57314" lon="2.28757">
        <ele>207</ele>
        <time>2021-07-24T19:39:27Z</time>
      </trkpt>
      <trkpt lat="43.57219" lon="2.28924">
        <ele>205</ele>
        <time>2021-07-24T19:39:54Z</time>
      </trkpt>
      <trkpt lat="43.57189" lon="2.29013">
        <ele>206</ele>
        <time>2021-07-24T19:40:07Z</time>
      </trkpt>
      <trkpt lat="43.56963" lon="2.29639">
        <ele>213</ele>
        <time>2021-07-24T19:41:37Z</time>
      </trkpt>
      <trkpt lat="43.569" lon="2.29964">
        <ele>211</ele>
        <time>2021-07-24T19:42:20Z</time>
      </trkpt>
      <trkpt lat="43.56893" lon="2.30014">
        <ele>209</ele>
        <time>2021-07-24T19:42:27Z</time>
      </trkpt>
      <trkpt lat="43.56896" lon="2.3013">
        <ele>209</ele>
        <time>2021-07-24T19:42:42Z</time>
      </trkpt>
      <trkpt lat="43.56897" lon="2.30174">
        <ele>210</ele>
        <time>2021-07-24T19:42:47Z</time>
      </trkpt>
      <trkpt lat="43.56911" lon="2.30567">
        <ele>213</ele>
        <time>2021-07-24T19:43:38Z</time>
      </trkpt>
      <trkpt lat="43.56912" lon="2.30594">
        <ele>213</ele>
        <time>2021-07-24T19:43:42Z</time>
      </trkpt>
      <trkpt lat="43.56916" lon="2.30678">
        <ele>214</ele>
        <time>2021-07-24T19:43:53Z</time>
      </trkpt>
      <trkpt lat="43.56911" lon="2.30718">
        <ele>214</ele>
        <time>2021-07-24T19:43:58Z</time>
      </trkpt>
      <trkpt lat="43.56895" lon="2.3077">
        <ele>214</ele>
        <time>2021-07-24T19:44:05Z</time>
      </trkpt>
      <trkpt lat="43.56886" lon="2.30796">
        <ele>214</ele>
        <time>2021-07-24T19:44:09Z</time>
      </trkpt>
      <trkpt lat="43.56883" lon="2.30807">
        <ele>214</ele>
        <time>2021-07-24T19:44:10Z</time>
      </trkpt>
      <trkpt lat="43.56878" lon="2.30825">
        <ele>214</ele>
        <time>2021-07-24T19:44:13Z</time>
      </trkpt>
      <trkpt lat="43.56865" lon="2.30866">
        <ele>214</ele>
        <time>2021-07-24T19:44:19Z</time>
      </trkpt>
      <trkpt lat="43.56844" lon="2.30935">
        <ele>215</ele>
        <time>2021-07-24T19:44:28Z</time>
      </trkpt>
      <trkpt lat="43.56828" lon="2.30987">
        <ele>215</ele>
        <time>2021-07-24T19:44:35Z</time>
      </trkpt>
      <trkpt lat="43.56818" lon="2.31027">
        <ele>216</ele>
        <time>2021-07-24T19:44:41Z</time>
      </trkpt>
      <trkpt lat="43.56789" lon="2.31135">
        <ele>216</ele>
        <time>2021-07-24T19:44:56Z</time>
      </trkpt>
      <trkpt lat="43.56759" lon="2.31321">
        <ele>219</ele>
        <time>2021-07-24T19:45:20Z</time>
      </trkpt>
      <trkpt lat="43.56739" lon="2.31447">
        <ele>219</ele>
        <time>2021-07-24T19:45:37Z</time>
      </trkpt>
      <trkpt lat="43.56723" lon="2.31517">
        <ele>220</ele>
        <time>2021-07-24T19:45:46Z</time>
      </trkpt>
      <trkpt lat="43.56671" lon="2.3164">
        <ele>221</ele>
        <time>2021-07-24T19:46:05Z</time>
      </trkpt>
      <trkpt lat="43.56595" lon="2.31801">
        <ele>220</ele>
        <time>2021-07-24T19:46:30Z</time>
      </trkpt>
      <trkpt lat="43.56576" lon="2.31853">
        <ele>221</ele>
        <time>2021-07-24T19:46:37Z</time>
      </trkpt>
      <trkpt lat="43.56571" lon="2.31867">
        <ele>221</ele>
        <time>2021-07-24T19:46:39Z</time>
      </trkpt>
      <trkpt lat="43.56525" lon="2.31935">
        <ele>222</ele>
        <time>2021-07-24T19:46:51Z</time>
      </trkpt>
      <trkpt lat="43.56454" lon="2.32032">
        <ele>226</ele>
        <time>2021-07-24T19:47:09Z</time>
      </trkpt>
      <trkpt lat="43.56338" lon="2.32119">
        <ele>235</ele>
        <time>2021-07-24T19:47:32Z</time>
      </trkpt>
      <trkpt lat="43.56189" lon="2.32313">
        <ele>248</ele>
        <time>2021-07-24T19:48:09Z</time>
      </trkpt>
      <trkpt lat="43.56077" lon="2.32393">
        <ele>253</ele>
        <time>2021-07-24T19:48:31Z</time>
      </trkpt>
      <trkpt lat="43.5602" lon="2.32454">
        <ele>254</ele>
        <time>2021-07-24T19:48:44Z</time>
      </trkpt>
      <trkpt lat="43.55938" lon="2.32586">
        <ele>262</ele>
        <time>2021-07-24T19:49:06Z</time>
      </trkpt>
      <trkpt lat="43.55861" lon="2.3278">
        <ele>271</ele>
        <time>2021-07-24T19:49:35Z</time>
      </trkpt>
      <trkpt lat="43.55694" lon="2.32995">
        <ele>279</ele>
        <time>2021-07-24T19:50:16Z</time>
      </trkpt>
      <trkpt lat="43.55637" lon="2.3308">
        <ele>278</ele>
        <time>2021-07-24T19:50:31Z</time>
      </trkpt>
      <trkpt lat="43.5554" lon="2.33361">
        <ele>289</ele>
        <time>2021-07-24T19:51:11Z</time>
      </trkpt>
      <trkpt lat="43.5552" lon="2.33411">
        <ele>294</ele>
        <time>2021-07-24T19:51:18Z</time>
      </trkpt>
      <trkpt lat="43.55421" lon="2.33579">
        <ele>304</ele>
        <time>2021-07-24T19:51:46Z</time>
      </trkpt>
      <trkpt lat="43.55384" lon="2.33664">
        <ele>305</ele>
        <time>2021-07-24T19:51:59Z</time>
      </trkpt>
      <trkpt lat="43.55356" lon="2.33783">
        <ele>311</ele>
        <time>2021-07-24T19:52:15Z</time>
      </trkpt>
      <trkpt lat="43.55317" lon="2.33893">
        <ele>313</ele>
        <time>2021-07-24T19:52:31Z</time>
      </trkpt>
      <trkpt lat="43.5525" lon="2.33963">
        <ele>314</ele>
        <time>2021-07-24T19:52:46Z</time>
      </trkpt>
      <trkpt lat="43.55091" lon="2.34141">
        <ele>314</ele>
        <time>2021-07-24T19:53:22Z</time>
      </trkpt>
      <trkpt lat="43.55031" lon="2.34202">
        <ele>312</ele>
        <time>2021-07-24T19:53:35Z</time>
      </trkpt>
      <trkpt lat="43.54963" lon="2.34308">
        <ele>307</ele>
        <time>2021-07-24T19:53:54Z</time>
      </trkpt>
      <trkpt lat="43.5491" lon="2.34404">
        <ele>311</ele>
        <time>2021-07-24T19:54:09Z</time>
      </trkpt>
      <trkpt lat="43.54869" lon="2.34431">
        <ele>310</ele>
        <time>2021-07-24T19:54:17Z</time>
      </trkpt>
      <trkpt lat="43.54737" lon="2.34461">
        <ele>304</ele>
        <time>2021-07-24T19:54:41Z</time>
      </trkpt>
      <trkpt lat="43.5467" lon="2.34487">
        <ele>304</ele>
        <time>2021-07-24T19:54:53Z</time>
      </trkpt>
      <trkpt lat="43.5464" lon="2.34506">
        <ele>303</ele>
        <time>2021-07-24T19:54:59Z</time>
      </trkpt>
      <trkpt lat="43.546" lon="2.34537">
        <ele>301</ele>
        <time>2021-07-24T19:55:07Z</time>
      </trkpt>
      <trkpt lat="43.54584" lon="2.3456">
        <ele>300</ele>
        <time>2021-07-24T19:55:12Z</time>
      </trkpt>
      <trkpt lat="43.54541" lon="2.34674">
        <ele>305</ele>
        <time>2021-07-24T19:55:28Z</time>
      </trkpt>
      <trkpt lat="43.54525" lon="2.34702">
        <ele>305</ele>
        <time>2021-07-24T19:55:33Z</time>
      </trkpt>
      <trkpt lat="43.54501" lon="2.34729">
        <ele>304</ele>
        <time>2021-07-24T19:55:38Z</time>
      </trkpt>
      <trkpt lat="43.54029" lon="2.35083">
        <ele>289</ele>
        <time>2021-07-24T19:57:14Z</time>
      </trkpt>
      <trkpt lat="43.53858" lon="2.35188">
        <ele>274</ele>
        <time>2021-07-24T19:57:47Z</time>
      </trkpt>
      <trkpt lat="43.53296" lon="2.35487">
        <ele>251</ele>
        <time>2021-07-24T19:59:34Z</time>
      </trkpt>
      <trkpt lat="43.53251" lon="2.3553">
        <ele>247</ele>
        <time>2021-07-24T19:59:44Z</time>
      </trkpt>
      <trkpt lat="43.53158" lon="2.35662">
        <ele>243</ele>
        <time>2021-07-24T20:00:08Z</time>
      </trkpt>
      <trkpt lat="43.53124" lon="2.35693">
        <ele>245</ele>
        <time>2021-07-24T20:00:15Z</time>
      </trkpt>
      <trkpt lat="43.53035" lon="2.35728">
        <ele>245</ele>
        <time>2021-07-24T20:00:32Z</time>
      </trkpt>
      <trkpt lat="43.52746" lon="2.35797">
        <ele>239</ele>
        <time>2021-07-24T20:01:24Z</time>
      </trkpt>
      <trkpt lat="43.52611" lon="2.35825">
        <ele>237</ele>
        <time>2021-07-24T20:01:48Z</time>
      </trkpt>
      <trkpt lat="43.52522" lon="2.35866">
        <ele>239</ele>
        <time>2021-07-24T20:02:05Z</time>
      </trkpt>
      <trkpt lat="43.52466" lon="2.35896">
        <ele>239</ele>
        <time>2021-07-24T20:02:15Z</time>
      </trkpt>
      <trkpt lat="43.52446" lon="2.35901">
        <ele>238</ele>
        <time>2021-07-24T20:02:19Z</time>
      </trkpt>
      <trkpt lat="43.52441" lon="2.35899">
        <ele>238</ele>
        <time>2021-07-24T20:02:20Z</time>
      </trkpt>
      <trkpt lat="43.52436" lon="2.35899">
        <ele>238</ele>
        <time>2021-07-24T20:02:21Z</time>
      </trkpt>
      <trkpt lat="43.52432" lon="2.35902">
        <ele>238</ele>
        <time>2021-07-24T20:02:22Z</time>
      </trkpt>
      <trkpt lat="43.52428" lon="2.35909">
        <ele>238</ele>
        <time>2021-07-24T20:02:23Z</time>
      </trkpt>
      <trkpt lat="43.52412" lon="2.35922">
        <ele>238</ele>
        <time>2021-07-24T20:02:26Z</time>
      </trkpt>
      <trkpt lat="43.52369" lon="2.35944">
        <ele>235</ele>
        <time>2021-07-24T20:02:34Z</time>
      </trkpt>
      <trkpt lat="43.52345" lon="2.35963">
        <ele>234</ele>
        <time>2021-07-24T20:02:39Z</time>
      </trkpt>
      <trkpt lat="43.52327" lon="2.35986">
        <ele>233</ele>
        <time>2021-07-24T20:02:44Z</time>
      </trkpt>
      <trkpt lat="43.52311" lon="2.3601">
        <ele>231</ele>
        <time>2021-07-24T20:02:48Z</time>
      </trkpt>
      <trkpt lat="43.52127" lon="2.36413">
        <ele>222</ele>
        <time>2021-07-24T20:03:49Z</time>
      </trkpt>
      <trkpt lat="43.5212" lon="2.36433">
        <ele>221</ele>
        <time>2021-07-24T20:03:52Z</time>
      </trkpt>
      <trkpt lat="43.52115" lon="2.36462">
        <ele>221</ele>
        <time>2021-07-24T20:03:56Z</time>
      </trkpt>
      <trkpt lat="43.52107" lon="2.36581">
        <ele>215</ele>
        <time>2021-07-24T20:04:11Z</time>
      </trkpt>
      <trkpt lat="43.52091" lon="2.36763">
        <ele>212</ele>
        <time>2021-07-24T20:04:35Z</time>
      </trkpt>
      <trkpt lat="43.52081" lon="2.36813">
        <ele>211</ele>
        <time>2021-07-24T20:04:42Z</time>
      </trkpt>
      <trkpt lat="43.52074" lon="2.3683">
        <ele>211</ele>
        <time>2021-07-24T20:04:44Z</time>
      </trkpt>
      <trkpt lat="43.52049" lon="2.36877">
        <ele>210</ele>
        <time>2021-07-24T20:04:52Z</time>
      </trkpt>
      <trkpt lat="43.52" lon="2.36917">
        <ele>211</ele>
        <time>2021-07-24T20:05:02Z</time>
      </trkpt>
      <trkpt lat="43.51646" lon="2.37165">
        <ele>207</ele>
        <time>2021-07-24T20:06:12Z</time>
      </trkpt>
      <trkpt lat="43.51597" lon="2.37199">
        <ele>209</ele>
        <time>2021-07-24T20:06:22Z</time>
      </trkpt>
      <trkpt lat="43.5151" lon="2.37259">
        <ele>215</ele>
        <time>2021-07-24T20:06:40Z</time>
      </trkpt>
      <trkpt lat="43.5111" lon="2.37542">
        <ele>220</ele>
        <time>2021-07-24T20:08:00Z</time>
      </trkpt>
      <trkpt lat="43.51102" lon="2.37547">
        <ele>220</ele>
        <time>2021-07-24T20:08:01Z</time>
      </trkpt>
      <trkpt lat="43.50963" lon="2.37646">
        <ele>223</ele>
        <time>2021-07-24T20:08:29Z</time>
      </trkpt>
      <trkpt lat="43.50901" lon="2.3769">
        <ele>225</ele>
        <time>2021-07-24T20:08:41Z</time>
      </trkpt>
      <trkpt lat="43.50862" lon="2.37716">
        <ele>225</ele>
        <time>2021-07-24T20:08:49Z</time>
      </trkpt>
      <trkpt lat="43.50856" lon="2.37716">
        <ele>226</ele>
        <time>2021-07-24T20:08:50Z</time>
      </trkpt>
      <trkpt lat="43.50835" lon="2.3773">
        <ele>226</ele>
        <time>2021-07-24T20:08:54Z</time>
      </trkpt>
      <trkpt lat="43.50829" lon="2.3774">
        <ele>226</ele>
        <time>2021-07-24T20:08:56Z</time>
      </trkpt>
      <trkpt lat="43.50807" lon="2.37756">
        <ele>226</ele>
        <time>2021-07-24T20:09:00Z</time>
      </trkpt>
      <trkpt lat="43.50735" lon="2.37805">
        <ele>227</ele>
        <time>2021-07-24T20:09:15Z</time>
      </trkpt>
      <trkpt lat="43.50714" lon="2.37821">
        <ele>228</ele>
        <time>2021-07-24T20:09:19Z</time>
      </trkpt>
      <trkpt lat="43.50709" lon="2.37825">
        <ele>228</ele>
        <time>2021-07-24T20:09:20Z</time>
      </trkpt>
      <trkpt lat="43.50702" lon="2.3783">
        <ele>228</ele>
        <time>2021-07-24T20:09:21Z</time>
      </trkpt>
      <trkpt lat="43.50673" lon="2.37848">
        <ele>228</ele>
        <time>2021-07-24T20:09:27Z</time>
      </trkpt>
      <trkpt lat="43.5067" lon="2.37849">
        <ele>229</ele>
        <time>2021-07-24T20:09:28Z</time>
      </trkpt>
      <trkpt lat="43.50651" lon="2.37852">
        <ele>229</ele>
        <time>2021-07-24T20:09:31Z</time>
      </trkpt>
      <trkpt lat="43.50633" lon="2.37853">
        <ele>230</ele>
        <time>2021-07-24T20:09:34Z</time>
      </trkpt>
      <trkpt lat="43.5062" lon="2.37852">
        <ele>230</ele>
        <time>2021-07-24T20:09:36Z</time>
      </trkpt>
      <trkpt lat="43.50601" lon="2.3785">
        <ele>231</ele>
        <time>2021-07-24T20:09:40Z</time>
      </trkpt>
      <trkpt lat="43.5059" lon="2.37846">
        <ele>231</ele>
        <time>2021-07-24T20:09:42Z</time>
      </trkpt>
      <trkpt lat="43.50496" lon="2.37815">
        <ele>232</ele>
        <time>2021-07-24T20:09:59Z</time>
      </trkpt>
      <trkpt lat="43.50454" lon="2.37801">
        <ele>233</ele>
        <time>2021-07-24T20:10:07Z</time>
      </trkpt>
      <trkpt lat="43.50373" lon="2.37774">
        <ele>234</ele>
        <time>2021-07-24T20:10:22Z</time>
      </trkpt>
      <trkpt lat="43.50368" lon="2.37772">
        <ele>234</ele>
        <time>2021-07-24T20:10:23Z</time>
      </trkpt>
      <trkpt lat="43.50024" lon="2.37663">
        <ele>238</ele>
        <time>2021-07-24T20:11:25Z</time>
      </trkpt>
      <trkpt lat="43.49869" lon="2.3761">
        <ele>240</ele>
        <time>2021-07-24T20:11:54Z</time>
      </trkpt>
      <trkpt lat="43.4975" lon="2.37572">
        <ele>242</ele>
        <time>2021-07-24T20:12:15Z</time>
      </trkpt>
      <trkpt lat="43.49739" lon="2.37568">
        <ele>243</ele>
        <time>2021-07-24T20:12:18Z</time>
      </trkpt>
      <trkpt lat="43.49735" lon="2.37567">
        <ele>243</ele>
        <time>2021-07-24T20:12:18Z</time>
      </trkpt>
      <trkpt lat="43.4973" lon="2.37565">
        <ele>243</ele>
        <time>2021-07-24T20:12:19Z</time>
      </trkpt>
      <trkpt lat="43.49723" lon="2.37563">
        <ele>243</ele>
        <time>2021-07-24T20:12:20Z</time>
      </trkpt>
      <trkpt lat="43.49706" lon="2.37557">
        <ele>244</ele>
        <time>2021-07-24T20:12:24Z</time>
      </trkpt>
      <trkpt lat="43.49692" lon="2.37553">
        <ele>244</ele>
        <time>2021-07-24T20:12:26Z</time>
      </trkpt>
      <trkpt lat="43.49671" lon="2.37545">
        <ele>245</ele>
        <time>2021-07-24T20:12:30Z</time>
      </trkpt>
      <trkpt lat="43.49568" lon="2.37511">
        <ele>248</ele>
        <time>2021-07-24T20:12:49Z</time>
      </trkpt>
      <trkpt lat="43.49554" lon="2.37507">
        <ele>249</ele>
        <time>2021-07-24T20:12:51Z</time>
      </trkpt>
      <trkpt lat="43.49497" lon="2.37488">
        <ele>250</ele>
        <time>2021-07-24T20:13:02Z</time>
      </trkpt>
      <trkpt lat="43.49445" lon="2.3747">
        <ele>250</ele>
        <time>2021-07-24T20:13:11Z</time>
      </trkpt>
      <trkpt lat="43.49413" lon="2.37459">
        <ele>251</ele>
        <time>2021-07-24T20:13:17Z</time>
      </trkpt>
      <trkpt lat="43.49382" lon="2.37449">
        <ele>251</ele>
        <time>2021-07-24T20:13:23Z</time>
      </trkpt>
      <trkpt lat="43.49355" lon="2.37439">
        <ele>252</ele>
        <time>2021-07-24T20:13:28Z</time>
      </trkpt>
      <trkpt lat="43.49322" lon="2.37439">
        <ele>253</ele>
        <time>2021-07-24T20:13:34Z</time>
      </trkpt>
      <trkpt lat="43.49285" lon="2.37448">
        <ele>253</ele>
        <time>2021-07-24T20:13:40Z</time>
      </trkpt>
      <trkpt lat="43.4925" lon="2.37458">
        <ele>254</ele>
        <time>2021-07-24T20:13:47Z</time>
      </trkpt>
      <trkpt lat="43.49172" lon="2.3748">
        <ele>254</ele>
        <time>2021-07-24T20:14:01Z</time>
      </trkpt>
      <trkpt lat="43.49108" lon="2.37503">
        <ele>254</ele>
        <time>2021-07-24T20:14:13Z</time>
      </trkpt>
      <trkpt lat="43.49056" lon="2.37526">
        <ele>256</ele>
        <time>2021-07-24T20:14:22Z</time>
      </trkpt>
      <trkpt lat="43.49039" lon="2.37529">
        <ele>256</ele>
        <time>2021-07-24T20:14:25Z</time>
      </trkpt>
      <trkpt lat="43.49027" lon="2.37528">
        <ele>257</ele>
        <time>2021-07-24T20:14:28Z</time>
      </trkpt>
      <trkpt lat="43.49021" lon="2.37528">
        <ele>257</ele>
        <time>2021-07-24T20:14:29Z</time>
      </trkpt>
      <trkpt lat="43.48996" lon="2.37524">
        <ele>258</ele>
        <time>2021-07-24T20:14:33Z</time>
      </trkpt>
      <trkpt lat="43.4898" lon="2.37528">
        <ele>258</ele>
        <time>2021-07-24T20:14:36Z</time>
      </trkpt>
      <trkpt lat="43.4896" lon="2.37531">
        <ele>259</ele>
        <time>2021-07-24T20:14:40Z</time>
      </trkpt>
      <trkpt lat="43.48961" lon="2.37538">
        <ele>259</ele>
        <time>2021-07-24T20:14:41Z</time>
      </trkpt>
      <trkpt lat="43.48972" lon="2.37587">
        <ele>260</ele>
        <time>2021-07-24T20:14:47Z</time>
      </trkpt>
      <trkpt lat="43.48974" lon="2.376">
        <ele>260</ele>
        <time>2021-07-24T20:14:49Z</time>
      </trkpt>
      <trkpt lat="43.48978" lon="2.37623">
        <ele>261</ele>
        <time>2021-07-24T20:14:52Z</time>
      </trkpt>
      <trkpt lat="43.48974" lon="2.37629">
        <ele>261</ele>
        <time>2021-07-24T20:14:53Z</time>
      </trkpt>
      <trkpt lat="43.48976" lon="2.37659">
        <ele>262</ele>
        <time>2021-07-24T20:14:57Z</time>
      </trkpt>
      <trkpt lat="43.49009" lon="2.37677">
        <ele>262</ele>
        <time>2021-07-24T20:15:03Z</time>
      </trkpt>
      <trkpt lat="43.49001" lon="2.37719">
        <ele>266</ele>
        <time>2021-07-24T20:15:09Z</time>
      </trkpt>
      <trkpt lat="43.48998" lon="2.37752">
        <ele>268</ele>
        <time>2021-07-24T20:15:13Z</time>
      </trkpt>
      <trkpt lat="43.49" lon="2.37785">
        <ele>269</ele>
        <time>2021-07-24T20:15:17Z</time>
      </trkpt>
      <trkpt lat="43.49006" lon="2.37817">
        <ele>270</ele>
        <time>2021-07-24T20:15:22Z</time>
      </trkpt>
      <trkpt lat="43.49014" lon="2.37844">
        <ele>270</ele>
        <time>2021-07-24T20:15:25Z</time>
      </trkpt>
      <trkpt lat="43.49032" lon="2.3791">
        <ele>271</ele>
        <time>2021-07-24T20:15:34Z</time>
      </trkpt>
      <trkpt lat="43.49059" lon="2.37984">
        <ele>273</ele>
        <time>2021-07-24T20:15:45Z</time>
      </trkpt>
      <trkpt lat="43.49082" lon="2.38033">
        <ele>273</ele>
        <time>2021-07-24T20:15:53Z</time>
      </trkpt>
      <trkpt lat="43.49086" lon="2.38041">
        <ele>272</ele>
        <time>2021-07-24T20:15:54Z</time>
      </trkpt>
      <trkpt lat="43.4909" lon="2.38044">
        <ele>272</ele>
        <time>2021-07-24T20:15:55Z</time>
      </trkpt>
      <trkpt lat="43.49091" lon="2.38051">
        <ele>272</ele>
        <time>2021-07-24T20:15:56Z</time>
      </trkpt>
      <trkpt lat="43.49096" lon="2.38053">
        <ele>271</ele>
        <time>2021-07-24T20:15:57Z</time>
      </trkpt>
      <trkpt lat="43.49097" lon="2.38064">
        <ele>271</ele>
        <time>2021-07-24T20:15:58Z</time>
      </trkpt>
      <trkpt lat="43.49136" lon="2.3815">
        <ele>270</ele>
        <time>2021-07-24T20:16:11Z</time>
      </trkpt>
      <trkpt lat="43.49184" lon="2.38227">
        <ele>269</ele>
        <time>2021-07-24T20:16:24Z</time>
      </trkpt>
      <trkpt lat="43.4921" lon="2.38269">
        <ele>270</ele>
        <time>2021-07-24T20:16:31Z</time>
      </trkpt>
      <trkpt lat="43.4923" lon="2.38304">
        <ele>271</ele>
        <time>2021-07-24T20:16:37Z</time>
      </trkpt>
      <trkpt lat="43.49247" lon="2.38337">
        <ele>271</ele>
        <time>2021-07-24T20:16:42Z</time>
      </trkpt>
      <trkpt lat="43.49261" lon="2.38368">
        <ele>270</ele>
        <time>2021-07-24T20:16:47Z</time>
      </trkpt>
      <trkpt lat="43.49269" lon="2.38395">
        <ele>269</ele>
        <time>2021-07-24T20:16:51Z</time>
      </trkpt>
      <trkpt lat="43.49276" lon="2.38425">
        <ele>268</ele>
        <time>2021-07-24T20:16:55Z</time>
      </trkpt>
      <trkpt lat="43.4928" lon="2.38454">
        <ele>267</ele>
        <time>2021-07-24T20:16:59Z</time>
      </trkpt>
      <trkpt lat="43.4928" lon="2.38507">
        <ele>266</ele>
        <time>2021-07-24T20:17:06Z</time>
      </trkpt>
      <trkpt lat="43.49278" lon="2.38557">
        <ele>267</ele>
        <time>2021-07-24T20:17:12Z</time>
      </trkpt>
      <trkpt lat="43.49273" lon="2.38641">
        <ele>268</ele>
        <time>2021-07-24T20:17:23Z</time>
      </trkpt>
      <trkpt lat="43.49268" lon="2.38716">
        <ele>270</ele>
        <time>2021-07-24T20:17:33Z</time>
      </trkpt>
      <trkpt lat="43.49264" lon="2.38768">
        <ele>271</ele>
        <time>2021-07-24T20:17:39Z</time>
      </trkpt>
      <trkpt lat="43.49263" lon="2.38793">
        <ele>271</ele>
        <time>2021-07-24T20:17:43Z</time>
      </trkpt>
      <trkpt lat="43.49265" lon="2.38835">
        <ele>271</ele>
        <time>2021-07-24T20:17:48Z</time>
      </trkpt>
      <trkpt lat="43.49264" lon="2.38876">
        <ele>270</ele>
        <time>2021-07-24T20:17:53Z</time>
      </trkpt>
      <trkpt lat="43.49261" lon="2.38916">
        <ele>270</ele>
        <time>2021-07-24T20:17:59Z</time>
      </trkpt>
      <trkpt lat="43.49252" lon="2.38962">
        <ele>269</ele>
        <time>2021-07-24T20:18:05Z</time>
      </trkpt>
      <trkpt lat="43.49242" lon="2.39001">
        <ele>269</ele>
        <time>2021-07-24T20:18:10Z</time>
      </trkpt>
      <trkpt lat="43.49218" lon="2.39072">
        <ele>268</ele>
        <time>2021-07-24T20:18:20Z</time>
      </trkpt>
      <trkpt lat="43.49206" lon="2.39104">
        <ele>268</ele>
        <time>2021-07-24T20:18:25Z</time>
      </trkpt>
      <trkpt lat="43.49183" lon="2.39171">
        <ele>266</ele>
        <time>2021-07-24T20:18:34Z</time>
      </trkpt>
      <trkpt lat="43.49176" lon="2.39191">
        <ele>266</ele>
        <time>2021-07-24T20:18:37Z</time>
      </trkpt>
      <trkpt lat="43.49174" lon="2.39204">
        <ele>266</ele>
        <time>2021-07-24T20:18:39Z</time>
      </trkpt>
      <trkpt lat="43.49174" lon="2.39217">
        <ele>265</ele>
        <time>2021-07-24T20:18:41Z</time>
      </trkpt>
      <trkpt lat="43.49172" lon="2.39218">
        <ele>266</ele>
        <time>2021-07-24T20:18:41Z</time>
      </trkpt>
      <trkpt lat="43.4917" lon="2.3922">
        <ele>266</ele>
        <time>2021-07-24T20:18:41Z</time>
      </trkpt>
      <trkpt lat="43.49169" lon="2.39225">
        <ele>266</ele>
        <time>2021-07-24T20:18:42Z</time>
      </trkpt>
      <trkpt lat="43.49172" lon="2.39233">
        <ele>265</ele>
        <time>2021-07-24T20:18:43Z</time>
      </trkpt>
      <trkpt lat="43.49173" lon="2.39233">
        <ele>265</ele>
        <time>2021-07-24T20:18:43Z</time>
      </trkpt>
      <trkpt lat="43.49164" lon="2.39296">
        <ele>266</ele>
        <time>2021-07-24T20:18:52Z</time>
      </trkpt>
      <trkpt lat="43.49158" lon="2.39323">
        <ele>267</ele>
        <time>2021-07-24T20:18:55Z</time>
      </trkpt>
      <trkpt lat="43.49099" lon="2.39419">
        <ele>272</ele>
        <time>2021-07-24T20:19:12Z</time>
      </trkpt>
      <trkpt lat="43.49066" lon="2.39487">
        <ele>275</ele>
        <time>2021-07-24T20:19:22Z</time>
      </trkpt>
      <trkpt lat="43.49065" lon="2.39556">
        <ele>275</ele>
        <time>2021-07-24T20:19:31Z</time>
      </trkpt>
      <trkpt lat="43.4906" lon="2.39587">
        <ele>275</ele>
        <time>2021-07-24T20:19:35Z</time>
      </trkpt>
      <trkpt lat="43.4905" lon="2.39626">
        <ele>276</ele>
        <time>2021-07-24T20:19:41Z</time>
      </trkpt>
      <trkpt lat="43.49047" lon="2.39702">
        <ele>276</ele>
        <time>2021-07-24T20:19:50Z</time>
      </trkpt>
      <trkpt lat="43.4904" lon="2.3975">
        <ele>276</ele>
        <time>2021-07-24T20:19:57Z</time>
      </trkpt>
      <trkpt lat="43.49021" lon="2.39845">
        <ele>274</ele>
        <time>2021-07-24T20:20:09Z</time>
      </trkpt>
      <trkpt lat="43.49011" lon="2.39893">
        <ele>275</ele>
        <time>2021-07-24T20:20:16Z</time>
      </trkpt>
      <trkpt lat="43.49005" lon="2.39915">
        <ele>275</ele>
        <time>2021-07-24T20:20:19Z</time>
      </trkpt>
      <trkpt lat="43.48998" lon="2.39931">
        <ele>276</ele>
        <time>2021-07-24T20:20:21Z</time>
      </trkpt>
      <trkpt lat="43.48994" lon="2.39938">
        <ele>277</ele>
        <time>2021-07-24T20:20:22Z</time>
      </trkpt>
      <trkpt lat="43.48971" lon="2.39981">
        <ele>279</ele>
        <time>2021-07-24T20:20:29Z</time>
      </trkpt>
      <trkpt lat="43.48955" lon="2.40008">
        <ele>280</ele>
        <time>2021-07-24T20:20:34Z</time>
      </trkpt>
      <trkpt lat="43.48952" lon="2.40019">
        <ele>280</ele>
        <time>2021-07-24T20:20:35Z</time>
      </trkpt>
      <trkpt lat="43.4895" lon="2.40032">
        <ele>280</ele>
        <time>2021-07-24T20:20:37Z</time>
      </trkpt>
      <trkpt lat="43.48948" lon="2.40073">
        <ele>278</ele>
        <time>2021-07-24T20:20:42Z</time>
      </trkpt>
      <trkpt lat="43.48944" lon="2.40158">
        <ele>281</ele>
        <time>2021-07-24T20:20:53Z</time>
      </trkpt>
      <trkpt lat="43.48945" lon="2.40195">
        <ele>281</ele>
        <time>2021-07-24T20:20:58Z</time>
      </trkpt>
      <trkpt lat="43.48948" lon="2.40244">
        <ele>280</ele>
        <time>2021-07-24T20:21:04Z</time>
      </trkpt>
      <trkpt lat="43.48949" lon="2.40282">
        <ele>280</ele>
        <time>2021-07-24T20:21:09Z</time>
      </trkpt>
      <trkpt lat="43.48946" lon="2.40386">
        <ele>279</ele>
        <time>2021-07-24T20:21:23Z</time>
      </trkpt>
      <trkpt lat="43.48948" lon="2.40421">
        <ele>279</ele>
        <time>2021-07-24T20:21:27Z</time>
      </trkpt>
      <trkpt lat="43.48954" lon="2.40489">
        <ele>282</ele>
        <time>2021-07-24T20:21:36Z</time>
      </trkpt>
      <trkpt lat="43.48967" lon="2.40625">
        <ele>281</ele>
        <time>2021-07-24T20:21:54Z</time>
      </trkpt>
      <trkpt lat="43.48977" lon="2.40714">
        <ele>279</ele>
        <time>2021-07-24T20:22:06Z</time>
      </trkpt>
      <trkpt lat="43.48976" lon="2.40739">
        <ele>278</ele>
        <time>2021-07-24T20:22:09Z</time>
      </trkpt>
      <trkpt lat="43.48968" lon="2.40766">
        <ele>278</ele>
        <time>2021-07-24T20:22:13Z</time>
      </trkpt>
      <trkpt lat="43.48943" lon="2.40823">
        <ele>277</ele>
        <time>2021-07-24T20:22:21Z</time>
      </trkpt>
      <trkpt lat="43.48941" lon="2.40832">
        <ele>277</ele>
        <time>2021-07-24T20:22:22Z</time>
      </trkpt>
      <trkpt lat="43.48938" lon="2.40848">
        <ele>278</ele>
        <time>2021-07-24T20:22:24Z</time>
      </trkpt>
      <trkpt lat="43.48938" lon="2.40865">
        <ele>279</ele>
        <time>2021-07-24T20:22:27Z</time>
      </trkpt>
      <trkpt lat="43.48943" lon="2.40877">
        <ele>279</ele>
        <time>2021-07-24T20:22:28Z</time>
      </trkpt>
      <trkpt lat="43.48949" lon="2.40886">
        <ele>279</ele>
        <time>2021-07-24T20:22:30Z</time>
      </trkpt>
      <trkpt lat="43.48968" lon="2.40909">
        <ele>276</ele>
        <time>2021-07-24T20:22:35Z</time>
      </trkpt>
      <trkpt lat="43.48973" lon="2.4094">
        <ele>277</ele>
        <time>2021-07-24T20:22:39Z</time>
      </trkpt>
      <trkpt lat="43.48976" lon="2.40971">
        <ele>279</ele>
        <time>2021-07-24T20:22:43Z</time>
      </trkpt>
      <trkpt lat="43.48975" lon="2.40999">
        <ele>281</ele>
        <time>2021-07-24T20:22:46Z</time>
      </trkpt>
      <trkpt lat="43.4897" lon="2.41026">
        <ele>282</ele>
        <time>2021-07-24T20:22:50Z</time>
      </trkpt>
      <trkpt lat="43.48949" lon="2.41094">
        <ele>286</ele>
        <time>2021-07-24T20:22:59Z</time>
      </trkpt>
      <trkpt lat="43.4891" lon="2.41199">
        <ele>288</ele>
        <time>2021-07-24T20:23:15Z</time>
      </trkpt>
      <trkpt lat="43.48896" lon="2.41231">
        <ele>292</ele>
        <time>2021-07-24T20:23:19Z</time>
      </trkpt>
      <trkpt lat="43.48893" lon="2.41243">
        <ele>293</ele>
        <time>2021-07-24T20:23:21Z</time>
      </trkpt>
      <trkpt lat="43.48894" lon="2.41257">
        <ele>293</ele>
        <time>2021-07-24T20:23:23Z</time>
      </trkpt>
      <trkpt lat="43.48907" lon="2.41281">
        <ele>290</ele>
        <time>2021-07-24T20:23:27Z</time>
      </trkpt>
      <trkpt lat="43.48917" lon="2.41305">
        <ele>289</ele>
        <time>2021-07-24T20:23:30Z</time>
      </trkpt>
      <trkpt lat="43.48923" lon="2.41341">
        <ele>291</ele>
        <time>2021-07-24T20:23:35Z</time>
      </trkpt>
      <trkpt lat="43.48927" lon="2.4137">
        <ele>291</ele>
        <time>2021-07-24T20:23:39Z</time>
      </trkpt>
      <trkpt lat="43.48927" lon="2.41419">
        <ele>294</ele>
        <time>2021-07-24T20:23:45Z</time>
      </trkpt>
      <trkpt lat="43.48923" lon="2.4145">
        <ele>294</ele>
        <time>2021-07-24T20:23:49Z</time>
      </trkpt>
      <trkpt lat="43.48916" lon="2.41477">
        <ele>294</ele>
        <time>2021-07-24T20:23:53Z</time>
      </trkpt>
      <trkpt lat="43.48901" lon="2.41512">
        <ele>296</ele>
        <time>2021-07-24T20:23:58Z</time>
      </trkpt>
      <trkpt lat="43.48885" lon="2.41532">
        <ele>298</ele>
        <time>2021-07-24T20:24:02Z</time>
      </trkpt>
      <trkpt lat="43.48868" lon="2.41543">
        <ele>300</ele>
        <time>2021-07-24T20:24:05Z</time>
      </trkpt>
      <trkpt lat="43.48833" lon="2.41556">
        <ele>306</ele>
        <time>2021-07-24T20:24:12Z</time>
      </trkpt>
      <trkpt lat="43.48806" lon="2.41562">
        <ele>308</ele>
        <time>2021-07-24T20:24:17Z</time>
      </trkpt>
      <trkpt lat="43.48785" lon="2.41571">
        <ele>309</ele>
        <time>2021-07-24T20:24:21Z</time>
      </trkpt>
      <trkpt lat="43.48774" lon="2.41581">
        <ele>309</ele>
        <time>2021-07-24T20:24:23Z</time>
      </trkpt>
      <trkpt lat="43.48686" lon="2.41738">
        <ele>313</ele>
        <time>2021-07-24T20:24:49Z</time>
      </trkpt>
      <trkpt lat="43.48676" lon="2.41752">
        <ele>314</ele>
        <time>2021-07-24T20:24:51Z</time>
      </trkpt>
      <trkpt lat="43.48657" lon="2.41767">
        <ele>317</ele>
        <time>2021-07-24T20:24:55Z</time>
      </trkpt>
      <trkpt lat="43.48648" lon="2.41778">
        <ele>318</ele>
        <time>2021-07-24T20:24:57Z</time>
      </trkpt>
      <trkpt lat="43.48644" lon="2.41792">
        <ele>318</ele>
        <time>2021-07-24T20:24:59Z</time>
      </trkpt>
      <trkpt lat="43.48642" lon="2.41816">
        <ele>317</ele>
        <time>2021-07-24T20:25:02Z</time>
      </trkpt>
      <trkpt lat="43.48651" lon="2.41897">
        <ele>317</ele>
        <time>2021-07-24T20:25:13Z</time>
      </trkpt>
      <trkpt lat="43.4865" lon="2.41932">
        <ele>318</ele>
        <time>2021-07-24T20:25:17Z</time>
      </trkpt>
      <trkpt lat="43.48648" lon="2.41955">
        <ele>318</ele>
        <time>2021-07-24T20:25:20Z</time>
      </trkpt>
      <trkpt lat="43.48644" lon="2.41975">
        <ele>319</ele>
        <time>2021-07-24T20:25:23Z</time>
      </trkpt>
      <trkpt lat="43.48629" lon="2.42033">
        <ele>319</ele>
        <time>2021-07-24T20:25:31Z</time>
      </trkpt>
      <trkpt lat="43.4862" lon="2.42058">
        <ele>318</ele>
        <time>2021-07-24T20:25:35Z</time>
      </trkpt>
      <trkpt lat="43.4861" lon="2.42078">
        <ele>318</ele>
        <time>2021-07-24T20:25:38Z</time>
      </trkpt>
      <trkpt lat="43.48507" lon="2.42218">
        <ele>318</ele>
        <time>2021-07-24T20:26:03Z</time>
      </trkpt>
      <trkpt lat="43.48486" lon="2.42251">
        <ele>320</ele>
        <time>2021-07-24T20:26:09Z</time>
      </trkpt>
      <trkpt lat="43.48483" lon="2.42263">
        <ele>321</ele>
        <time>2021-07-24T20:26:11Z</time>
      </trkpt>
      <trkpt lat="43.48483" lon="2.42276">
        <ele>321</ele>
        <time>2021-07-24T20:26:12Z</time>
      </trkpt>
      <trkpt lat="43.48484" lon="2.42295">
        <ele>322</ele>
        <time>2021-07-24T20:26:15Z</time>
      </trkpt>
      <trkpt lat="43.48529" lon="2.42419">
        <ele>325</ele>
        <time>2021-07-24T20:26:33Z</time>
      </trkpt>
      <trkpt lat="43.48565" lon="2.42549">
        <ele>321</ele>
        <time>2021-07-24T20:26:51Z</time>
      </trkpt>
      <trkpt lat="43.48567" lon="2.42571">
        <ele>321</ele>
        <time>2021-07-24T20:26:54Z</time>
      </trkpt>
      <trkpt lat="43.48566" lon="2.42586">
        <ele>321</ele>
        <time>2021-07-24T20:26:56Z</time>
      </trkpt>
      <trkpt lat="43.48551" lon="2.42655">
        <ele>320</ele>
        <time>2021-07-24T20:27:05Z</time>
      </trkpt>
      <trkpt lat="43.48549" lon="2.42688">
        <ele>319</ele>
        <time>2021-07-24T20:27:09Z</time>
      </trkpt>
      <trkpt lat="43.48551" lon="2.42729">
        <ele>315</ele>
        <time>2021-07-24T20:27:14Z</time>
      </trkpt>
      <trkpt lat="43.48554" lon="2.42751">
        <ele>313</ele>
        <time>2021-07-24T20:27:17Z</time>
      </trkpt>
      <trkpt lat="43.48576" lon="2.42803">
        <ele>308</ele>
        <time>2021-07-24T20:27:25Z</time>
      </trkpt>
      <trkpt lat="43.48578" lon="2.42808">
        <ele>308</ele>
        <time>2021-07-24T20:27:26Z</time>
      </trkpt>
      <trkpt lat="43.48595" lon="2.42842">
        <ele>305</ele>
        <time>2021-07-24T20:27:31Z</time>
      </trkpt>
      <trkpt lat="43.48691" lon="2.42963">
        <ele>300</ele>
        <time>2021-07-24T20:27:54Z</time>
      </trkpt>
      <trkpt lat="43.48699" lon="2.42982">
        <ele>300</ele>
        <time>2021-07-24T20:27:57Z</time>
      </trkpt>
      <trkpt lat="43.48701" lon="2.4301">
        <ele>301</ele>
        <time>2021-07-24T20:28:01Z</time>
      </trkpt>
      <trkpt lat="43.48698" lon="2.43031">
        <ele>301</ele>
        <time>2021-07-24T20:28:04Z</time>
      </trkpt>
      <trkpt lat="43.48647" lon="2.43172">
        <ele>303</ele>
        <time>2021-07-24T20:28:24Z</time>
      </trkpt>
      <trkpt lat="43.4863" lon="2.43275">
        <ele>302</ele>
        <time>2021-07-24T20:28:38Z</time>
      </trkpt>
      <trkpt lat="43.48631" lon="2.43295">
        <ele>302</ele>
        <time>2021-07-24T20:28:40Z</time>
      </trkpt>
      <trkpt lat="43.48638" lon="2.43349">
        <ele>302</ele>
        <time>2021-07-24T20:28:47Z</time>
      </trkpt>
      <trkpt lat="43.48629" lon="2.43437">
        <ele>302</ele>
        <time>2021-07-24T20:28:59Z</time>
      </trkpt>
      <trkpt lat="43.48626" lon="2.43524">
        <ele>300</ele>
        <time>2021-07-24T20:29:10Z</time>
      </trkpt>
      <trkpt lat="43.48628" lon="2.43535">
        <ele>299</ele>
        <time>2021-07-24T20:29:11Z</time>
      </trkpt>
      <trkpt lat="43.48635" lon="2.4356">
        <ele>298</ele>
        <time>2021-07-24T20:29:15Z</time>
      </trkpt>
      <trkpt lat="43.48637" lon="2.43575">
        <ele>297</ele>
        <time>2021-07-24T20:29:17Z</time>
      </trkpt>
      <trkpt lat="43.48637" lon="2.4359">
        <ele>297</ele>
        <time>2021-07-24T20:29:19Z</time>
      </trkpt>
      <trkpt lat="43.48623" lon="2.43727">
        <ele>303</ele>
        <time>2021-07-24T20:29:37Z</time>
      </trkpt>
      <trkpt lat="43.48623" lon="2.43745">
        <ele>303</ele>
        <time>2021-07-24T20:29:39Z</time>
      </trkpt>
      <trkpt lat="43.48625" lon="2.43798">
        <ele>302</ele>
        <time>2021-07-24T20:29:46Z</time>
      </trkpt>
      <trkpt lat="43.48623" lon="2.43821">
        <ele>301</ele>
        <time>2021-07-24T20:29:49Z</time>
      </trkpt>
      <trkpt lat="43.48613" lon="2.43912">
        <ele>300</ele>
        <time>2021-07-24T20:30:01Z</time>
      </trkpt>
      <trkpt lat="43.48607" lon="2.43929">
        <ele>300</ele>
        <time>2021-07-24T20:30:03Z</time>
      </trkpt>
      <trkpt lat="43.48601" lon="2.43939">
        <ele>300</ele>
        <time>2021-07-24T20:30:05Z</time>
      </trkpt>
      <trkpt lat="43.48593" lon="2.43946">
        <ele>301</ele>
        <time>2021-07-24T20:30:06Z</time>
      </trkpt>
      <trkpt lat="43.48586" lon="2.43947">
        <ele>302</ele>
        <time>2021-07-24T20:30:08Z</time>
      </trkpt>
      <trkpt lat="43.48579" lon="2.43945">
        <ele>304</ele>
        <time>2021-07-24T20:30:09Z</time>
      </trkpt>
      <trkpt lat="43.48563" lon="2.43932">
        <ele>308</ele>
        <time>2021-07-24T20:30:12Z</time>
      </trkpt>
      <trkpt lat="43.48547" lon="2.43929">
        <ele>311</ele>
        <time>2021-07-24T20:30:15Z</time>
      </trkpt>
      <trkpt lat="43.4853" lon="2.4393">
        <ele>314</ele>
        <time>2021-07-24T20:30:18Z</time>
      </trkpt>
      <trkpt lat="43.48503" lon="2.43936">
        <ele>318</ele>
        <time>2021-07-24T20:30:23Z</time>
      </trkpt>
      <trkpt lat="43.48484" lon="2.43946">
        <ele>320</ele>
        <time>2021-07-24T20:30:27Z</time>
      </trkpt>
      <trkpt lat="43.48431" lon="2.43985">
        <ele>323</ele>
        <time>2021-07-24T20:30:37Z</time>
      </trkpt>
      <trkpt lat="43.48425" lon="2.43994">
        <ele>323</ele>
        <time>2021-07-24T20:30:39Z</time>
      </trkpt>
      <trkpt lat="43.48426" lon="2.44006">
        <ele>322</ele>
        <time>2021-07-24T20:30:41Z</time>
      </trkpt>
      <trkpt lat="43.48438" lon="2.44034">
        <ele>318</ele>
        <time>2021-07-24T20:30:45Z</time>
      </trkpt>
      <trkpt lat="43.48439" lon="2.44048">
        <ele>317</ele>
        <time>2021-07-24T20:30:47Z</time>
      </trkpt>
      <trkpt lat="43.48438" lon="2.44067">
        <ele>316</ele>
        <time>2021-07-24T20:30:49Z</time>
      </trkpt>
      <trkpt lat="43.48434" lon="2.44085">
        <ele>316</ele>
        <time>2021-07-24T20:30:51Z</time>
      </trkpt>
      <trkpt lat="43.48427" lon="2.441">
        <ele>316</ele>
        <time>2021-07-24T20:30:54Z</time>
      </trkpt>
      <trkpt lat="43.48417" lon="2.4411">
        <ele>318</ele>
        <time>2021-07-24T20:30:56Z</time>
      </trkpt>
      <trkpt lat="43.48409" lon="2.44116">
        <ele>319</ele>
        <time>2021-07-24T20:30:58Z</time>
      </trkpt>
      <trkpt lat="43.48304" lon="2.44142">
        <ele>337</ele>
        <time>2021-07-24T20:31:17Z</time>
      </trkpt>
      <trkpt lat="43.48298" lon="2.44149">
        <ele>337</ele>
        <time>2021-07-24T20:31:18Z</time>
      </trkpt>
      <trkpt lat="43.48296" lon="2.44159">
        <ele>336</ele>
        <time>2021-07-24T20:31:19Z</time>
      </trkpt>
      <trkpt lat="43.48299" lon="2.44171">
        <ele>335</ele>
        <time>2021-07-24T20:31:21Z</time>
      </trkpt>
      <trkpt lat="43.48317" lon="2.44227">
        <ele>333</ele>
        <time>2021-07-24T20:31:29Z</time>
      </trkpt>
      <trkpt lat="43.48327" lon="2.44252">
        <ele>332</ele>
        <time>2021-07-24T20:31:32Z</time>
      </trkpt>
      <trkpt lat="43.48339" lon="2.44273">
        <ele>331</ele>
        <time>2021-07-24T20:31:36Z</time>
      </trkpt>
      <trkpt lat="43.48357" lon="2.44289">
        <ele>329</ele>
        <time>2021-07-24T20:31:40Z</time>
      </trkpt>
      <trkpt lat="43.48365" lon="2.44305">
        <ele>329</ele>
        <time>2021-07-24T20:31:42Z</time>
      </trkpt>
      <trkpt lat="43.48376" lon="2.44338">
        <ele>330</ele>
        <time>2021-07-24T20:31:47Z</time>
      </trkpt>
      <trkpt lat="43.48389" lon="2.44361">
        <ele>330</ele>
        <time>2021-07-24T20:31:51Z</time>
      </trkpt>
      <trkpt lat="43.48404" lon="2.44381">
        <ele>329</ele>
        <time>2021-07-24T20:31:54Z</time>
      </trkpt>
      <trkpt lat="43.4841" lon="2.44397">
        <ele>329</ele>
        <time>2021-07-24T20:31:57Z</time>
      </trkpt>
      <trkpt lat="43.48409" lon="2.44419">
        <ele>330</ele>
        <time>2021-07-24T20:32:00Z</time>
      </trkpt>
      <trkpt lat="43.48404" lon="2.44443">
        <ele>331</ele>
        <time>2021-07-24T20:32:03Z</time>
      </trkpt>
      <trkpt lat="43.48393" lon="2.44474">
        <ele>332</ele>
        <time>2021-07-24T20:32:07Z</time>
      </trkpt>
      <trkpt lat="43.48379" lon="2.44497">
        <ele>334</ele>
        <time>2021-07-24T20:32:11Z</time>
      </trkpt>
      <trkpt lat="43.48273" lon="2.44608">
        <ele>342</ele>
        <time>2021-07-24T20:32:35Z</time>
      </trkpt>
      <trkpt lat="43.48252" lon="2.44624">
        <ele>342</ele>
        <time>2021-07-24T20:32:39Z</time>
      </trkpt>
      <trkpt lat="43.48159" lon="2.44667">
        <ele>348</ele>
        <time>2021-07-24T20:32:57Z</time>
      </trkpt>
      <trkpt lat="43.48153" lon="2.44676">
        <ele>350</ele>
        <time>2021-07-24T20:32:58Z</time>
      </trkpt>
      <trkpt lat="43.48147" lon="2.44693">
        <ele>352</ele>
        <time>2021-07-24T20:33:01Z</time>
      </trkpt>
      <trkpt lat="43.48136" lon="2.44776">
        <ele>356</ele>
        <time>2021-07-24T20:33:11Z</time>
      </trkpt>
      <trkpt lat="43.48134" lon="2.44834">
        <ele>356</ele>
        <time>2021-07-24T20:33:19Z</time>
      </trkpt>
      <trkpt lat="43.48136" lon="2.44874">
        <ele>355</ele>
        <time>2021-07-24T20:33:24Z</time>
      </trkpt>
      <trkpt lat="43.48158" lon="2.45078">
        <ele>354</ele>
        <time>2021-07-24T20:33:51Z</time>
      </trkpt>
      <trkpt lat="43.48159" lon="2.45095">
        <ele>354</ele>
        <time>2021-07-24T20:33:53Z</time>
      </trkpt>
      <trkpt lat="43.48154" lon="2.45127">
        <ele>353</ele>
        <time>2021-07-24T20:33:57Z</time>
      </trkpt>
      <trkpt lat="43.48089" lon="2.45371">
        <ele>353</ele>
        <time>2021-07-24T20:34:31Z</time>
      </trkpt>
      <trkpt lat="43.48081" lon="2.45383">
        <ele>353</ele>
        <time>2021-07-24T20:34:33Z</time>
      </trkpt>
      <trkpt lat="43.48066" lon="2.45394">
        <ele>354</ele>
        <time>2021-07-24T20:34:36Z</time>
      </trkpt>
      <trkpt lat="43.4806" lon="2.45403">
        <ele>353</ele>
        <time>2021-07-24T20:34:37Z</time>
      </trkpt>
      <trkpt lat="43.48056" lon="2.45413">
        <ele>353</ele>
        <time>2021-07-24T20:34:39Z</time>
      </trkpt>
      <trkpt lat="43.4805" lon="2.4545">
        <ele>351</ele>
        <time>2021-07-24T20:34:44Z</time>
      </trkpt>
      <trkpt lat="43.48054" lon="2.45478">
        <ele>348</ele>
        <time>2021-07-24T20:34:48Z</time>
      </trkpt>
      <trkpt lat="43.48054" lon="2.4556">
        <ele>346</ele>
        <time>2021-07-24T20:34:58Z</time>
      </trkpt>
      <trkpt lat="43.48053" lon="2.45585">
        <ele>345</ele>
        <time>2021-07-24T20:35:01Z</time>
      </trkpt>
      <trkpt lat="43.48057" lon="2.45631">
        <ele>346</ele>
        <time>2021-07-24T20:35:07Z</time>
      </trkpt>
      <trkpt lat="43.48061" lon="2.45654">
        <ele>346</ele>
        <time>2021-07-24T20:35:10Z</time>
      </trkpt>
      <trkpt lat="43.48068" lon="2.45671">
        <ele>345</ele>
        <time>2021-07-24T20:35:13Z</time>
      </trkpt>
      <trkpt lat="43.48093" lon="2.45693">
        <ele>343</ele>
        <time>2021-07-24T20:35:18Z</time>
      </trkpt>
      <trkpt lat="43.48106" lon="2.45716">
        <ele>343</ele>
        <time>2021-07-24T20:35:22Z</time>
      </trkpt>
      <trkpt lat="43.48124" lon="2.45768">
        <ele>341</ele>
        <time>2021-07-24T20:35:29Z</time>
      </trkpt>
      <trkpt lat="43.48129" lon="2.45787">
        <ele>340</ele>
        <time>2021-07-24T20:35:32Z</time>
      </trkpt>
      <trkpt lat="43.48128" lon="2.45881">
        <ele>335</ele>
        <time>2021-07-24T20:35:44Z</time>
      </trkpt>
      <trkpt lat="43.48131" lon="2.4595">
        <ele>334</ele>
        <time>2021-07-24T20:35:53Z</time>
      </trkpt>
      <trkpt lat="43.48134" lon="2.45956">
        <ele>334</ele>
        <time>2021-07-24T20:35:54Z</time>
      </trkpt>
      <trkpt lat="43.48145" lon="2.4596">
        <ele>332</ele>
        <time>2021-07-24T20:35:56Z</time>
      </trkpt>
      <trkpt lat="43.48161" lon="2.45967">
        <ele>331</ele>
        <time>2021-07-24T20:35:59Z</time>
      </trkpt>
      <trkpt lat="43.48178" lon="2.45976">
        <ele>329</ele>
        <time>2021-07-24T20:36:02Z</time>
      </trkpt>
      <trkpt lat="43.48195" lon="2.45996">
        <ele>327</ele>
        <time>2021-07-24T20:36:06Z</time>
      </trkpt>
      <trkpt lat="43.48243" lon="2.46073">
        <ele>326</ele>
        <time>2021-07-24T20:36:19Z</time>
      </trkpt>
      <trkpt lat="43.48271" lon="2.46131">
        <ele>324</ele>
        <time>2021-07-24T20:36:28Z</time>
      </trkpt>
      <trkpt lat="43.48303" lon="2.46166">
        <ele>321</ele>
        <time>2021-07-24T20:36:36Z</time>
      </trkpt>
      <trkpt lat="43.48328" lon="2.46188">
        <ele>318</ele>
        <time>2021-07-24T20:36:41Z</time>
      </trkpt>
      <trkpt lat="43.48344" lon="2.46213">
        <ele>315</ele>
        <time>2021-07-24T20:36:45Z</time>
      </trkpt>
      <trkpt lat="43.48345" lon="2.46226">
        <ele>315</ele>
        <time>2021-07-24T20:36:47Z</time>
      </trkpt>
      <trkpt lat="43.4834" lon="2.46245">
        <ele>315</ele>
        <time>2021-07-24T20:36:49Z</time>
      </trkpt>
      <trkpt lat="43.48293" lon="2.46384">
        <ele>307</ele>
        <time>2021-07-24T20:37:09Z</time>
      </trkpt>
      <trkpt lat="43.48267" lon="2.46452">
        <ele>306</ele>
        <time>2021-07-24T20:37:19Z</time>
      </trkpt>
      <trkpt lat="43.48264" lon="2.4648">
        <ele>305</ele>
        <time>2021-07-24T20:37:23Z</time>
      </trkpt>
      <trkpt lat="43.48263" lon="2.46491">
        <ele>305</ele>
        <time>2021-07-24T20:37:24Z</time>
      </trkpt>
      <trkpt lat="43.48269" lon="2.46522">
        <ele>302</ele>
        <time>2021-07-24T20:37:28Z</time>
      </trkpt>
      <trkpt lat="43.48278" lon="2.46551">
        <ele>299</ele>
        <time>2021-07-24T20:37:32Z</time>
      </trkpt>
      <trkpt lat="43.48278" lon="2.46554">
        <ele>299</ele>
        <time>2021-07-24T20:37:33Z</time>
      </trkpt>
      <trkpt lat="43.48297" lon="2.46609">
        <ele>294</ele>
        <time>2021-07-24T20:37:41Z</time>
      </trkpt>
      <trkpt lat="43.48312" lon="2.46748">
        <ele>286</ele>
        <time>2021-07-24T20:37:59Z</time>
      </trkpt>
      <trkpt lat="43.48339" lon="2.46935">
        <ele>274</ele>
        <time>2021-07-24T20:38:23Z</time>
      </trkpt>
      <trkpt lat="43.4834" lon="2.46971">
        <ele>272</ele>
        <time>2021-07-24T20:38:28Z</time>
      </trkpt>
      <trkpt lat="43.48333" lon="2.47033">
        <ele>270</ele>
        <time>2021-07-24T20:38:36Z</time>
      </trkpt>
      <trkpt lat="43.48332" lon="2.47042">
        <ele>270</ele>
        <time>2021-07-24T20:38:37Z</time>
      </trkpt>
      <trkpt lat="43.48329" lon="2.47085">
        <ele>268</ele>
        <time>2021-07-24T20:38:43Z</time>
      </trkpt>
      <trkpt lat="43.48336" lon="2.47106">
        <ele>267</ele>
        <time>2021-07-24T20:38:46Z</time>
      </trkpt>
      <trkpt lat="43.48319" lon="2.47353">
        <ele>265</ele>
        <time>2021-07-24T20:39:18Z</time>
      </trkpt>
      <trkpt lat="43.48284" lon="2.47901">
        <ele>272</ele>
        <time>2021-07-24T20:40:29Z</time>
      </trkpt>
      <trkpt lat="43.48278" lon="2.47947">
        <ele>271</ele>
        <time>2021-07-24T20:40:35Z</time>
      </trkpt>
      <trkpt lat="43.48267" lon="2.4799">
        <ele>270</ele>
        <time>2021-07-24T20:40:41Z</time>
      </trkpt>
      <trkpt lat="43.4825" lon="2.4804">
        <ele>269</ele>
        <time>2021-07-24T20:40:48Z</time>
      </trkpt>
      <trkpt lat="43.48209" lon="2.48136">
        <ele>271</ele>
        <time>2021-07-24T20:41:02Z</time>
      </trkpt>
      <trkpt lat="43.4818" lon="2.48191">
        <ele>273</ele>
        <time>2021-07-24T20:41:11Z</time>
      </trkpt>
      <trkpt lat="43.48087" lon="2.48312">
        <ele>276</ele>
        <time>2021-07-24T20:41:34Z</time>
      </trkpt>
      <trkpt lat="43.48025" lon="2.48399">
        <ele>274</ele>
        <time>2021-07-24T20:41:50Z</time>
      </trkpt>
      <trkpt lat="43.47889" lon="2.48582">
        <ele>272</ele>
        <time>2021-07-24T20:42:24Z</time>
      </trkpt>
      <trkpt lat="43.4784" lon="2.48654">
        <ele>271</ele>
        <time>2021-07-24T20:42:36Z</time>
      </trkpt>
      <trkpt lat="43.4778" lon="2.48786">
        <ele>274</ele>
        <time>2021-07-24T20:42:56Z</time>
      </trkpt>
      <trkpt lat="43.47772" lon="2.488">
        <ele>275</ele>
        <time>2021-07-24T20:42:59Z</time>
      </trkpt>
      <trkpt lat="43.47778" lon="2.48861">
        <ele>275</ele>
        <time>2021-07-24T20:43:07Z</time>
      </trkpt>
      <trkpt lat="43.47787" lon="2.48932">
        <ele>276</ele>
        <time>2021-07-24T20:43:16Z</time>
      </trkpt>
      <trkpt lat="43.47789" lon="2.4899">
        <ele>278</ele>
        <time>2021-07-24T20:43:23Z</time>
      </trkpt>
      <trkpt lat="43.47784" lon="2.49027">
        <ele>278</ele>
        <time>2021-07-24T20:43:28Z</time>
      </trkpt>
      <trkpt lat="43.47776" lon="2.49061">
        <ele>278</ele>
        <time>2021-07-24T20:43:33Z</time>
      </trkpt>
      <trkpt lat="43.47752" lon="2.49115">
        <ele>279</ele>
        <time>2021-07-24T20:43:41Z</time>
      </trkpt>
      <trkpt lat="43.47696" lon="2.49196">
        <ele>280</ele>
        <time>2021-07-24T20:43:56Z</time>
      </trkpt>
      <trkpt lat="43.47622" lon="2.49311">
        <ele>283</ele>
        <time>2021-07-24T20:44:15Z</time>
      </trkpt>
      <trkpt lat="43.47605" lon="2.49345">
        <ele>283</ele>
        <time>2021-07-24T20:44:21Z</time>
      </trkpt>
      <trkpt lat="43.47598" lon="2.49364">
        <ele>283</ele>
        <time>2021-07-24T20:44:23Z</time>
      </trkpt>
      <trkpt lat="43.4757" lon="2.49492">
        <ele>282</ele>
        <time>2021-07-24T20:44:41Z</time>
      </trkpt>
      <trkpt lat="43.47533" lon="2.49677">
        <ele>287</ele>
        <time>2021-07-24T20:45:06Z</time>
      </trkpt>
      <trkpt lat="43.47531" lon="2.49699">
        <ele>287</ele>
        <time>2021-07-24T20:45:08Z</time>
      </trkpt>
      <trkpt lat="43.47531" lon="2.4978">
        <ele>288</ele>
        <time>2021-07-24T20:45:19Z</time>
      </trkpt>
      <trkpt lat="43.47495" lon="2.50579">
        <ele>285</ele>
        <time>2021-07-24T20:47:02Z</time>
      </trkpt>
      <trkpt lat="43.47492" lon="2.50609">
        <ele>285</ele>
        <time>2021-07-24T20:47:06Z</time>
      </trkpt>
      <trkpt lat="43.47487" lon="2.50639">
        <ele>285</ele>
        <time>2021-07-24T20:47:10Z</time>
      </trkpt>
      <trkpt lat="43.47476" lon="2.50672">
        <ele>285</ele>
        <time>2021-07-24T20:47:15Z</time>
      </trkpt>
      <trkpt lat="43.47479" lon="2.5068">
        <ele>285</ele>
        <time>2021-07-24T20:47:16Z</time>
      </trkpt>
      <trkpt lat="43.47478" lon="2.50692">
        <ele>285</ele>
        <time>2021-07-24T20:47:18Z</time>
      </trkpt>
      <trkpt lat="43.47465" lon="2.50722">
        <ele>285</ele>
        <time>2021-07-24T20:47:22Z</time>
      </trkpt>
      <trkpt lat="43.47463" lon="2.50737">
        <ele>285</ele>
        <time>2021-07-24T20:47:24Z</time>
      </trkpt>
      <trkpt lat="43.47468" lon="2.50743">
        <ele>285</ele>
        <time>2021-07-24T20:47:25Z</time>
      </trkpt>
      <trkpt lat="43.47412" lon="2.50863">
        <ele>285</ele>
        <time>2021-07-24T20:47:44Z</time>
      </trkpt>
      <trkpt lat="43.47391" lon="2.50907">
        <ele>284</ele>
        <time>2021-07-24T20:47:50Z</time>
      </trkpt>
      <trkpt lat="43.47364" lon="2.50979">
        <ele>283</ele>
        <time>2021-07-24T20:48:01Z</time>
      </trkpt>
      <trkpt lat="43.47333" lon="2.51087">
        <ele>286</ele>
        <time>2021-07-24T20:48:16Z</time>
      </trkpt>
      <trkpt lat="43.4733" lon="2.51098">
        <ele>286</ele>
        <time>2021-07-24T20:48:17Z</time>
      </trkpt>
      <trkpt lat="43.47284" lon="2.51289">
        <ele>286</ele>
        <time>2021-07-24T20:48:43Z</time>
      </trkpt>
      <trkpt lat="43.47156" lon="2.51808">
        <ele>287</ele>
        <time>2021-07-24T20:49:54Z</time>
      </trkpt>
      <trkpt lat="43.47153" lon="2.51819">
        <ele>287</ele>
        <time>2021-07-24T20:49:56Z</time>
      </trkpt>
      <trkpt lat="43.47075" lon="2.52142">
        <ele>285</ele>
        <time>2021-07-24T20:50:40Z</time>
      </trkpt>
      <trkpt lat="43.47072" lon="2.52154">
        <ele>285</ele>
        <time>2021-07-24T20:50:41Z</time>
      </trkpt>
      <trkpt lat="43.47047" lon="2.5226">
        <ele>284</ele>
        <time>2021-07-24T20:50:56Z</time>
      </trkpt>
      <trkpt lat="43.47039" lon="2.52305">
        <ele>285</ele>
        <time>2021-07-24T20:51:02Z</time>
      </trkpt>
      <trkpt lat="43.47029" lon="2.5238">
        <ele>286</ele>
        <time>2021-07-24T20:51:11Z</time>
      </trkpt>
      <trkpt lat="43.47026" lon="2.52471">
        <ele>287</ele>
        <time>2021-07-24T20:51:23Z</time>
      </trkpt>
      <trkpt lat="43.4703" lon="2.52567">
        <ele>287</ele>
        <time>2021-07-24T20:51:36Z</time>
      </trkpt>
      <trkpt lat="43.47057" lon="2.52808">
        <ele>291</ele>
        <time>2021-07-24T20:52:07Z</time>
      </trkpt>
      <trkpt lat="43.47081" lon="2.53004">
        <ele>293</ele>
        <time>2021-07-24T20:52:33Z</time>
      </trkpt>
      <trkpt lat="43.47085" lon="2.53051">
        <ele>294</ele>
        <time>2021-07-24T20:52:39Z</time>
      </trkpt>
      <trkpt lat="43.47086" lon="2.53211">
        <ele>299</ele>
        <time>2021-07-24T20:53:00Z</time>
      </trkpt>
      <trkpt lat="43.47085" lon="2.53446">
        <ele>296</ele>
        <time>2021-07-24T20:53:30Z</time>
      </trkpt>
      <trkpt lat="43.47093" lon="2.53477">
        <ele>296</ele>
        <time>2021-07-24T20:53:34Z</time>
      </trkpt>
      <trkpt lat="43.47093" lon="2.53483">
        <ele>296</ele>
        <time>2021-07-24T20:53:35Z</time>
      </trkpt>
      <trkpt lat="43.47093" lon="2.53493">
        <ele>296</ele>
        <time>2021-07-24T20:53:36Z</time>
      </trkpt>
      <trkpt lat="43.47084" lon="2.5353">
        <ele>297</ele>
        <time>2021-07-24T20:53:41Z</time>
      </trkpt>
      <trkpt lat="43.47084" lon="2.53593">
        <ele>300</ele>
        <time>2021-07-24T20:53:49Z</time>
      </trkpt>
      <trkpt lat="43.47084" lon="2.53626">
        <ele>300</ele>
        <time>2021-07-24T20:53:54Z</time>
      </trkpt>
      <trkpt lat="43.47084" lon="2.53684">
        <ele>299</ele>
        <time>2021-07-24T20:54:01Z</time>
      </trkpt>
      <trkpt lat="43.47088" lon="2.53731">
        <ele>298</ele>
        <time>2021-07-24T20:54:07Z</time>
      </trkpt>
      <trkpt lat="43.47087" lon="2.53796">
        <ele>297</ele>
        <time>2021-07-24T20:54:16Z</time>
      </trkpt>
      <trkpt lat="43.46996" lon="2.53803">
        <ele>300</ele>
        <time>2021-07-24T20:54:32Z</time>
      </trkpt>
      <trkpt lat="43.4699" lon="2.53804">
        <ele>300</ele>
        <time>2021-07-24T20:54:33Z</time>
      </trkpt>
      <trkpt lat="43.46982" lon="2.53611">
        <ele>301</ele>
        <time>2021-07-24T20:54:58Z</time>
      </trkpt>
      <trkpt lat="43.4698" lon="2.5358">
        <ele>301</ele>
        <time>2021-07-24T20:55:02Z</time>
      </trkpt>
      <trkpt lat="43.4698" lon="2.53525">
        <ele>302</ele>
        <time>2021-07-24T20:55:09Z</time>
      </trkpt>
      <trkpt lat="43.46982" lon="2.53498">
        <ele>302</ele>
        <time>2021-07-24T20:55:13Z</time>
      </trkpt>
      <trkpt lat="43.46981" lon="2.53484">
        <ele>303</ele>
        <time>2021-07-24T20:55:14Z</time>
      </trkpt>
      <trkpt lat="43.46989" lon="2.5345">
        <ele>304</ele>
        <time>2021-07-24T20:55:19Z</time>
      </trkpt>
      <trkpt lat="43.46994" lon="2.53437">
        <ele>304</ele>
        <time>2021-07-24T20:55:21Z</time>
      </trkpt>
      <trkpt lat="43.46993" lon="2.5343">
        <ele>304</ele>
        <time>2021-07-24T20:55:22Z</time>
      </trkpt>
      <trkpt lat="43.46989" lon="2.53441">
        <ele>304</ele>
        <time>2021-07-24T20:55:23Z</time>
      </trkpt>
      <trkpt lat="43.46984" lon="2.53458">
        <ele>304</ele>
        <time>2021-07-24T20:55:26Z</time>
      </trkpt>
      <trkpt lat="43.46975" lon="2.53496">
        <ele>303</ele>
        <time>2021-07-24T20:55:31Z</time>
      </trkpt>
      <trkpt lat="43.46974" lon="2.5353">
        <ele>302</ele>
        <time>2021-07-24T20:55:35Z</time>
      </trkpt>
      <trkpt lat="43.46975" lon="2.5358">
        <ele>302</ele>
        <time>2021-07-24T20:55:42Z</time>
      </trkpt>
      <trkpt lat="43.46977" lon="2.53611">
        <ele>301</ele>
        <time>2021-07-24T20:55:46Z</time>
      </trkpt>
      <trkpt lat="43.4698" lon="2.53709">
        <ele>300</ele>
        <time>2021-07-24T20:55:58Z</time>
      </trkpt>
      <trkpt lat="43.46986" lon="2.53805">
        <ele>300</ele>
        <time>2021-07-24T20:56:11Z</time>
      </trkpt>
      <trkpt lat="43.46993" lon="2.53988">
        <ele>300</ele>
        <time>2021-07-24T20:56:35Z</time>
      </trkpt>
      <trkpt lat="43.47003" lon="2.54204">
        <ele>308</ele>
        <time>2021-07-24T20:57:03Z</time>
      </trkpt>
      <trkpt lat="43.47009" lon="2.54345">
        <ele>309</ele>
        <time>2021-07-24T20:57:21Z</time>
      </trkpt>
      <trkpt lat="43.47013" lon="2.54467">
        <ele>308</ele>
        <time>2021-07-24T20:57:37Z</time>
      </trkpt>
      <trkpt lat="43.47024" lon="2.5476">
        <ele>318</ele>
        <time>2021-07-24T20:58:14Z</time>
      </trkpt>
      <trkpt lat="43.47024" lon="2.54792">
        <ele>318</ele>
        <time>2021-07-24T20:58:19Z</time>
      </trkpt>
      <trkpt lat="43.47021" lon="2.54827">
        <ele>319</ele>
        <time>2021-07-24T20:58:23Z</time>
      </trkpt>
      <trkpt lat="43.47001" lon="2.54959">
        <ele>322</ele>
        <time>2021-07-24T20:58:40Z</time>
      </trkpt>
      <trkpt lat="43.46997" lon="2.54998">
        <ele>326</ele>
        <time>2021-07-24T20:58:46Z</time>
      </trkpt>
      <trkpt lat="43.46997" lon="2.55041">
        <ele>329</ele>
        <time>2021-07-24T20:58:51Z</time>
      </trkpt>
      <trkpt lat="43.47" lon="2.55075">
        <ele>331</ele>
        <time>2021-07-24T20:58:56Z</time>
      </trkpt>
      <trkpt lat="43.47006" lon="2.55116">
        <ele>333</ele>
        <time>2021-07-24T20:59:01Z</time>
      </trkpt>
      <trkpt lat="43.47019" lon="2.55178">
        <ele>337</ele>
        <time>2021-07-24T20:59:09Z</time>
      </trkpt>
      <trkpt lat="43.47035" lon="2.55246">
        <ele>339</ele>
        <time>2021-07-24T20:59:19Z</time>
      </trkpt>
      <trkpt lat="43.47054" lon="2.5533">
        <ele>343</ele>
        <time>2021-07-24T20:59:30Z</time>
      </trkpt>
      <trkpt lat="43.47061" lon="2.55365">
        <ele>342</ele>
        <time>2021-07-24T20:59:35Z</time>
      </trkpt>
      <trkpt lat="43.47064" lon="2.5539">
        <ele>341</ele>
        <time>2021-07-24T20:59:38Z</time>
      </trkpt>
      <trkpt lat="43.47066" lon="2.55408">
        <ele>340</ele>
        <time>2021-07-24T20:59:40Z</time>
      </trkpt>
      <trkpt lat="43.47065" lon="2.55431">
        <ele>338</ele>
        <time>2021-07-24T20:59:43Z</time>
      </trkpt>
      <trkpt lat="43.47062" lon="2.55455">
        <ele>336</ele>
        <time>2021-07-24T20:59:46Z</time>
      </trkpt>
      <trkpt lat="43.47057" lon="2.55479">
        <ele>334</ele>
        <time>2021-07-24T20:59:50Z</time>
      </trkpt>
      <trkpt lat="43.47034" lon="2.55564">
        <ele>326</ele>
        <time>2021-07-24T21:00:01Z</time>
      </trkpt>
      <trkpt lat="43.4703" lon="2.55588">
        <ele>323</ele>
        <time>2021-07-24T21:00:04Z</time>
      </trkpt>
      <trkpt lat="43.47028" lon="2.55616">
        <ele>322</ele>
        <time>2021-07-24T21:00:08Z</time>
      </trkpt>
      <trkpt lat="43.47028" lon="2.55667">
        <ele>320</ele>
        <time>2021-07-24T21:00:15Z</time>
      </trkpt>
      <trkpt lat="43.47033" lon="2.55859">
        <ele>316</ele>
        <time>2021-07-24T21:00:39Z</time>
      </trkpt>
      <trkpt lat="43.47032" lon="2.5591">
        <ele>315</ele>
        <time>2021-07-24T21:00:46Z</time>
      </trkpt>
      <trkpt lat="43.47017" lon="2.56301">
        <ele>312</ele>
        <time>2021-07-24T21:01:37Z</time>
      </trkpt>
      <trkpt lat="43.47013" lon="2.56418">
        <ele>313</ele>
        <time>2021-07-24T21:01:52Z</time>
      </trkpt>
      <trkpt lat="43.47009" lon="2.56504">
        <ele>315</ele>
        <time>2021-07-24T21:02:03Z</time>
      </trkpt>
      <trkpt lat="43.47009" lon="2.56553">
        <ele>315</ele>
        <time>2021-07-24T21:02:09Z</time>
      </trkpt>
      <trkpt lat="43.47014" lon="2.56689">
        <ele>316</ele>
        <time>2021-07-24T21:02:27Z</time>
      </trkpt>
      <trkpt lat="43.47016" lon="2.56761">
        <ele>317</ele>
        <time>2021-07-24T21:02:36Z</time>
      </trkpt>
      <trkpt lat="43.47025" lon="2.56988">
        <ele>318</ele>
        <time>2021-07-24T21:03:05Z</time>
      </trkpt>
      <trkpt lat="43.47032" lon="2.57178">
        <ele>318</ele>
        <time>2021-07-24T21:03:30Z</time>
      </trkpt>
      <trkpt lat="43.4703" lon="2.57221">
        <ele>319</ele>
        <time>2021-07-24T21:03:36Z</time>
      </trkpt>
      <trkpt lat="43.47018" lon="2.57263">
        <ele>320</ele>
        <time>2021-07-24T21:03:41Z</time>
      </trkpt>
      <trkpt lat="43.46991" lon="2.57321">
        <ele>322</ele>
        <time>2021-07-24T21:03:50Z</time>
      </trkpt>
      <trkpt lat="43.46973" lon="2.57366">
        <ele>324</ele>
        <time>2021-07-24T21:03:57Z</time>
      </trkpt>
      <trkpt lat="43.46962" lon="2.57407">
        <ele>325</ele>
        <time>2021-07-24T21:04:03Z</time>
      </trkpt>
      <trkpt lat="43.46958" lon="2.57437">
        <ele>326</ele>
        <time>2021-07-24T21:04:07Z</time>
      </trkpt>
      <trkpt lat="43.46957" lon="2.57463">
        <ele>326</ele>
        <time>2021-07-24T21:04:10Z</time>
      </trkpt>
      <trkpt lat="43.46957" lon="2.57487">
        <ele>327</ele>
        <time>2021-07-24T21:04:13Z</time>
      </trkpt>
      <trkpt lat="43.4696" lon="2.57518">
        <ele>326</ele>
        <time>2021-07-24T21:04:17Z</time>
      </trkpt>
      <trkpt lat="43.46969" lon="2.5756">
        <ele>325</ele>
        <time>2021-07-24T21:04:23Z</time>
      </trkpt>
      <trkpt lat="43.46976" lon="2.57589">
        <ele>325</ele>
        <time>2021-07-24T21:04:27Z</time>
      </trkpt>
      <trkpt lat="43.46995" lon="2.57651">
        <ele>324</ele>
        <time>2021-07-24T21:04:35Z</time>
      </trkpt>
      <trkpt lat="43.47008" lon="2.5769">
        <ele>324</ele>
        <time>2021-07-24T21:04:41Z</time>
      </trkpt>
      <trkpt lat="43.47013" lon="2.57708">
        <ele>324</ele>
        <time>2021-07-24T21:04:43Z</time>
      </trkpt>
      <trkpt lat="43.47016" lon="2.57718">
        <ele>324</ele>
        <time>2021-07-24T21:04:45Z</time>
      </trkpt>
      <trkpt lat="43.47019" lon="2.57727">
        <ele>324</ele>
        <time>2021-07-24T21:04:46Z</time>
      </trkpt>
      <trkpt lat="43.4703" lon="2.5778">
        <ele>325</ele>
        <time>2021-07-24T21:04:53Z</time>
      </trkpt>
      <trkpt lat="43.47037" lon="2.57843">
        <ele>326</ele>
        <time>2021-07-24T21:05:01Z</time>
      </trkpt>
      <trkpt lat="43.47038" lon="2.5786">
        <ele>326</ele>
        <time>2021-07-24T21:05:04Z</time>
      </trkpt>
      <trkpt lat="43.47039" lon="2.57868">
        <ele>325</ele>
        <time>2021-07-24T21:05:05Z</time>
      </trkpt>
      <trkpt lat="43.47039" lon="2.57884">
        <ele>325</ele>
        <time>2021-07-24T21:05:07Z</time>
      </trkpt>
      <trkpt lat="43.47039" lon="2.579">
        <ele>325</ele>
        <time>2021-07-24T21:05:09Z</time>
      </trkpt>
      <trkpt lat="43.47039" lon="2.57913">
        <ele>325</ele>
        <time>2021-07-24T21:05:10Z</time>
      </trkpt>
      <trkpt lat="43.47037" lon="2.57959">
        <ele>325</ele>
        <time>2021-07-24T21:05:16Z</time>
      </trkpt>
      <trkpt lat="43.47034" lon="2.57988">
        <ele>326</ele>
        <time>2021-07-24T21:05:20Z</time>
      </trkpt>
      <trkpt lat="43.47027" lon="2.58033">
        <ele>326</ele>
        <time>2021-07-24T21:05:26Z</time>
      </trkpt>
      <trkpt lat="43.47018" lon="2.58072">
        <ele>327</ele>
        <time>2021-07-24T21:05:31Z</time>
      </trkpt>
      <trkpt lat="43.47014" lon="2.58089">
        <ele>327</ele>
        <time>2021-07-24T21:05:34Z</time>
      </trkpt>
      <trkpt lat="43.47011" lon="2.58102">
        <ele>327</ele>
        <time>2021-07-24T21:05:35Z</time>
      </trkpt>
      <trkpt lat="43.47" lon="2.58143">
        <ele>328</ele>
        <time>2021-07-24T21:05:41Z</time>
      </trkpt>
      <trkpt lat="43.46996" lon="2.58156">
        <ele>328</ele>
        <time>2021-07-24T21:05:43Z</time>
      </trkpt>
      <trkpt lat="43.46991" lon="2.58178">
        <ele>328</ele>
        <time>2021-07-24T21:05:46Z</time>
      </trkpt>
      <trkpt lat="43.46984" lon="2.58205">
        <ele>328</ele>
        <time>2021-07-24T21:05:50Z</time>
      </trkpt>
      <trkpt lat="43.46972" lon="2.58245">
        <ele>329</ele>
        <time>2021-07-24T21:05:55Z</time>
      </trkpt>
      <trkpt lat="43.46967" lon="2.5826">
        <ele>329</ele>
        <time>2021-07-24T21:05:57Z</time>
      </trkpt>
      <trkpt lat="43.46963" lon="2.58272">
        <ele>329</ele>
        <time>2021-07-24T21:05:59Z</time>
      </trkpt>
      <trkpt lat="43.46956" lon="2.58289">
        <ele>330</ele>
        <time>2021-07-24T21:06:02Z</time>
      </trkpt>
      <trkpt lat="43.46949" lon="2.58307">
        <ele>330</ele>
        <time>2021-07-24T21:06:04Z</time>
      </trkpt>
      <trkpt lat="43.46944" lon="2.58324">
        <ele>331</ele>
        <time>2021-07-24T21:06:07Z</time>
      </trkpt>
      <trkpt lat="43.46926" lon="2.58377">
        <ele>331</ele>
        <time>2021-07-24T21:06:14Z</time>
      </trkpt>
      <trkpt lat="43.46908" lon="2.58431">
        <ele>332</ele>
        <time>2021-07-24T21:06:22Z</time>
      </trkpt>
      <trkpt lat="43.46897" lon="2.58461">
        <ele>332</ele>
        <time>2021-07-24T21:06:26Z</time>
      </trkpt>
      <trkpt lat="43.46891" lon="2.5848">
        <ele>333</ele>
        <time>2021-07-24T21:06:29Z</time>
      </trkpt>
      <trkpt lat="43.46887" lon="2.58492">
        <ele>333</ele>
        <time>2021-07-24T21:06:30Z</time>
      </trkpt>
      <trkpt lat="43.46864" lon="2.5856">
        <ele>333</ele>
        <time>2021-07-24T21:06:40Z</time>
      </trkpt>
      <trkpt lat="43.4686" lon="2.58571">
        <ele>333</ele>
        <time>2021-07-24T21:06:42Z</time>
      </trkpt>
      <trkpt lat="43.46852" lon="2.58591">
        <ele>333</ele>
        <time>2021-07-24T21:06:45Z</time>
      </trkpt>
      <trkpt lat="43.46842" lon="2.58609">
        <ele>333</ele>
        <time>2021-07-24T21:06:48Z</time>
      </trkpt>
      <trkpt lat="43.46819" lon="2.58641">
        <ele>334</ele>
        <time>2021-07-24T21:06:53Z</time>
      </trkpt>
      <trkpt lat="43.46814" lon="2.58647">
        <ele>335</ele>
        <time>2021-07-24T21:06:55Z</time>
      </trkpt>
      <trkpt lat="43.46805" lon="2.58659">
        <ele>336</ele>
        <time>2021-07-24T21:06:57Z</time>
      </trkpt>
      <trkpt lat="43.46774" lon="2.58699">
        <ele>340</ele>
        <time>2021-07-24T21:07:04Z</time>
      </trkpt>
      <trkpt lat="43.46761" lon="2.58717">
        <ele>341</ele>
        <time>2021-07-24T21:07:08Z</time>
      </trkpt>
      <trkpt lat="43.46741" lon="2.58758">
        <ele>342</ele>
        <time>2021-07-24T21:07:14Z</time>
      </trkpt>
      <trkpt lat="43.46733" lon="2.58778">
        <ele>343</ele>
        <time>2021-07-24T21:07:17Z</time>
      </trkpt>
      <trkpt lat="43.46723" lon="2.58811">
        <ele>344</ele>
        <time>2021-07-24T21:07:22Z</time>
      </trkpt>
      <trkpt lat="43.46719" lon="2.58826">
        <ele>344</ele>
        <time>2021-07-24T21:07:24Z</time>
      </trkpt>
      <trkpt lat="43.46715" lon="2.58847">
        <ele>345</ele>
        <time>2021-07-24T21:07:27Z</time>
      </trkpt>
      <trkpt lat="43.46713" lon="2.58873">
        <ele>346</ele>
        <time>2021-07-24T21:07:30Z</time>
      </trkpt>
      <trkpt lat="43.46712" lon="2.5892">
        <ele>346</ele>
        <time>2021-07-24T21:07:36Z</time>
      </trkpt>
      <trkpt lat="43.46714" lon="2.58944">
        <ele>347</ele>
        <time>2021-07-24T21:07:39Z</time>
      </trkpt>
      <trkpt lat="43.4672" lon="2.5897">
        <ele>347</ele>
        <time>2021-07-24T21:07:43Z</time>
      </trkpt>
      <trkpt lat="43.46725" lon="2.58985">
        <ele>346</ele>
        <time>2021-07-24T21:07:45Z</time>
      </trkpt>
      <trkpt lat="43.46742" lon="2.59021">
        <ele>344</ele>
        <time>2021-07-24T21:07:50Z</time>
      </trkpt>
      <trkpt lat="43.46782" lon="2.59091">
        <ele>347</ele>
        <time>2021-07-24T21:08:02Z</time>
      </trkpt>
      <trkpt lat="43.46789" lon="2.59103">
        <ele>347</ele>
        <time>2021-07-24T21:08:04Z</time>
      </trkpt>
      <trkpt lat="43.46793" lon="2.59111">
        <ele>346</ele>
        <time>2021-07-24T21:08:05Z</time>
      </trkpt>
      <trkpt lat="43.46809" lon="2.59144">
        <ele>347</ele>
        <time>2021-07-24T21:08:10Z</time>
      </trkpt>
      <trkpt lat="43.46823" lon="2.59175">
        <ele>347</ele>
        <time>2021-07-24T21:08:15Z</time>
      </trkpt>
      <trkpt lat="43.46827" lon="2.59184">
        <ele>347</ele>
        <time>2021-07-24T21:08:16Z</time>
      </trkpt>
      <trkpt lat="43.4683" lon="2.59191">
        <ele>347</ele>
        <time>2021-07-24T21:08:17Z</time>
      </trkpt>
      <trkpt lat="43.46832" lon="2.59195">
        <ele>346</ele>
        <time>2021-07-24T21:08:18Z</time>
      </trkpt>
      <trkpt lat="43.46833" lon="2.59198">
        <ele>346</ele>
        <time>2021-07-24T21:08:18Z</time>
      </trkpt>
      <trkpt lat="43.46859" lon="2.59258">
        <ele>346</ele>
        <time>2021-07-24T21:08:27Z</time>
      </trkpt>
      <trkpt lat="43.46871" lon="2.59287">
        <ele>348</ele>
        <time>2021-07-24T21:08:32Z</time>
      </trkpt>
      <trkpt lat="43.46878" lon="2.59307">
        <ele>349</ele>
        <time>2021-07-24T21:08:35Z</time>
      </trkpt>
      <trkpt lat="43.46888" lon="2.59337">
        <ele>351</ele>
        <time>2021-07-24T21:08:39Z</time>
      </trkpt>
      <trkpt lat="43.46892" lon="2.59347">
        <ele>352</ele>
        <time>2021-07-24T21:08:40Z</time>
      </trkpt>
      <trkpt lat="43.46896" lon="2.59362">
        <ele>353</ele>
        <time>2021-07-24T21:08:42Z</time>
      </trkpt>
      <trkpt lat="43.46917" lon="2.59467">
        <ele>361</ele>
        <time>2021-07-24T21:08:56Z</time>
      </trkpt>
      <trkpt lat="43.46924" lon="2.59506">
        <ele>363</ele>
        <time>2021-07-24T21:09:02Z</time>
      </trkpt>
      <trkpt lat="43.46925" lon="2.59519">
        <ele>364</ele>
        <time>2021-07-24T21:09:03Z</time>
      </trkpt>
      <trkpt lat="43.46928" lon="2.59546">
        <ele>364</ele>
        <time>2021-07-24T21:09:07Z</time>
      </trkpt>
      <trkpt lat="43.4693" lon="2.59562">
        <ele>364</ele>
        <time>2021-07-24T21:09:09Z</time>
      </trkpt>
      <trkpt lat="43.46931" lon="2.59571">
        <ele>364</ele>
        <time>2021-07-24T21:09:10Z</time>
      </trkpt>
      <trkpt lat="43.46932" lon="2.59589">
        <ele>364</ele>
        <time>2021-07-24T21:09:12Z</time>
      </trkpt>
      <trkpt lat="43.46951" lon="2.59838">
        <ele>371</ele>
        <time>2021-07-24T21:09:45Z</time>
      </trkpt>
      <trkpt lat="43.46955" lon="2.59918">
        <ele>379</ele>
        <time>2021-07-24T21:09:55Z</time>
      </trkpt>
      <trkpt lat="43.46954" lon="2.59983">
        <ele>385</ele>
        <time>2021-07-24T21:10:04Z</time>
      </trkpt>
      <trkpt lat="43.46953" lon="2.60001">
        <ele>386</ele>
        <time>2021-07-24T21:10:06Z</time>
      </trkpt>
      <trkpt lat="43.46951" lon="2.60016">
        <ele>387</ele>
        <time>2021-07-24T21:10:08Z</time>
      </trkpt>
      <trkpt lat="43.46944" lon="2.60078">
        <ele>391</ele>
        <time>2021-07-24T21:10:16Z</time>
      </trkpt>
      <trkpt lat="43.46942" lon="2.60093">
        <ele>392</ele>
        <time>2021-07-24T21:10:18Z</time>
      </trkpt>
      <trkpt lat="43.4694" lon="2.60103">
        <ele>391</ele>
        <time>2021-07-24T21:10:19Z</time>
      </trkpt>
      <trkpt lat="43.46932" lon="2.60147">
        <ele>391</ele>
        <time>2021-07-24T21:10:25Z</time>
      </trkpt>
      <trkpt lat="43.46896" lon="2.60318">
        <ele>390</ele>
        <time>2021-07-24T21:10:48Z</time>
      </trkpt>
      <trkpt lat="43.46886" lon="2.60378">
        <ele>390</ele>
        <time>2021-07-24T21:10:56Z</time>
      </trkpt>
      <trkpt lat="43.46885" lon="2.60384">
        <ele>390</ele>
        <time>2021-07-24T21:10:57Z</time>
      </trkpt>
      <trkpt lat="43.46883" lon="2.60404">
        <ele>389</ele>
        <time>2021-07-24T21:10:59Z</time>
      </trkpt>
      <trkpt lat="43.46881" lon="2.6045">
        <ele>388</ele>
        <time>2021-07-24T21:11:05Z</time>
      </trkpt>
      <trkpt lat="43.46883" lon="2.60513">
        <ele>386</ele>
        <time>2021-07-24T21:11:14Z</time>
      </trkpt>
      <trkpt lat="43.46898" lon="2.60732">
        <ele>385</ele>
        <time>2021-07-24T21:11:42Z</time>
      </trkpt>
      <trkpt lat="43.46901" lon="2.60763">
        <ele>385</ele>
        <time>2021-07-24T21:11:46Z</time>
      </trkpt>
      <trkpt lat="43.4691" lon="2.60809">
        <ele>386</ele>
        <time>2021-07-24T21:11:52Z</time>
      </trkpt>
      <trkpt lat="43.46922" lon="2.60849">
        <ele>386</ele>
        <time>2021-07-24T21:11:58Z</time>
      </trkpt>
      <trkpt lat="43.46933" lon="2.60878">
        <ele>385</ele>
        <time>2021-07-24T21:12:02Z</time>
      </trkpt>
      <trkpt lat="43.46947" lon="2.60907">
        <ele>384</ele>
        <time>2021-07-24T21:12:06Z</time>
      </trkpt>
      <trkpt lat="43.4696" lon="2.6093">
        <ele>384</ele>
        <time>2021-07-24T21:12:10Z</time>
      </trkpt>
      <trkpt lat="43.46982" lon="2.6096">
        <ele>385</ele>
        <time>2021-07-24T21:12:16Z</time>
      </trkpt>
      <trkpt lat="43.47046" lon="2.61031">
        <ele>386</ele>
        <time>2021-07-24T21:12:30Z</time>
      </trkpt>
      <trkpt lat="43.47069" lon="2.61054">
        <ele>385</ele>
        <time>2021-07-24T21:12:35Z</time>
      </trkpt>
      <trkpt lat="43.4707" lon="2.61055">
        <ele>385</ele>
        <time>2021-07-24T21:12:36Z</time>
      </trkpt>
      <trkpt lat="43.47115" lon="2.61097">
        <ele>383</ele>
        <time>2021-07-24T21:12:45Z</time>
      </trkpt>
      <trkpt lat="43.47143" lon="2.61128">
        <ele>379</ele>
        <time>2021-07-24T21:12:52Z</time>
      </trkpt>
      <trkpt lat="43.47163" lon="2.61159">
        <ele>373</ele>
        <time>2021-07-24T21:12:57Z</time>
      </trkpt>
      <trkpt lat="43.47183" lon="2.61202">
        <ele>376</ele>
        <time>2021-07-24T21:13:04Z</time>
      </trkpt>
      <trkpt lat="43.47187" lon="2.61213">
        <ele>377</ele>
        <time>2021-07-24T21:13:05Z</time>
      </trkpt>
      <trkpt lat="43.4719" lon="2.61227">
        <ele>378</ele>
        <time>2021-07-24T21:13:07Z</time>
      </trkpt>
      <trkpt lat="43.47251" lon="2.61479">
        <ele>381</ele>
        <time>2021-07-24T21:13:41Z</time>
      </trkpt>
      <trkpt lat="43.47279" lon="2.61589">
        <ele>378</ele>
        <time>2021-07-24T21:13:56Z</time>
      </trkpt>
      <trkpt lat="43.47284" lon="2.61608">
        <ele>379</ele>
        <time>2021-07-24T21:13:59Z</time>
      </trkpt>
      <trkpt lat="43.47303" lon="2.61677">
        <ele>379</ele>
        <time>2021-07-24T21:14:09Z</time>
      </trkpt>
      <trkpt lat="43.47318" lon="2.61724">
        <ele>380</ele>
        <time>2021-07-24T21:14:15Z</time>
      </trkpt>
      <trkpt lat="43.47338" lon="2.61774">
        <ele>382</ele>
        <time>2021-07-24T21:14:23Z</time>
      </trkpt>
      <trkpt lat="43.47366" lon="2.61837">
        <ele>385</ele>
        <time>2021-07-24T21:14:32Z</time>
      </trkpt>
      <trkpt lat="43.47383" lon="2.61872">
        <ele>385</ele>
        <time>2021-07-24T21:14:38Z</time>
      </trkpt>
      <trkpt lat="43.47394" lon="2.61904">
        <ele>383</ele>
        <time>2021-07-24T21:14:42Z</time>
      </trkpt>
      <trkpt lat="43.47416" lon="2.61985">
        <ele>383</ele>
        <time>2021-07-24T21:14:53Z</time>
      </trkpt>
      <trkpt lat="43.4743" lon="2.62027">
        <ele>385</ele>
        <time>2021-07-24T21:14:59Z</time>
      </trkpt>
      <trkpt lat="43.47464" lon="2.62111">
        <ele>387</ele>
        <time>2021-07-24T21:15:12Z</time>
      </trkpt>
      <trkpt lat="43.47481" lon="2.62152">
        <ele>385</ele>
        <time>2021-07-24T21:15:18Z</time>
      </trkpt>
      <trkpt lat="43.47499" lon="2.62191">
        <ele>381</ele>
        <time>2021-07-24T21:15:24Z</time>
      </trkpt>
      <trkpt lat="43.47529" lon="2.62233">
        <ele>385</ele>
        <time>2021-07-24T21:15:31Z</time>
      </trkpt>
      <trkpt lat="43.47565" lon="2.62276">
        <ele>386</ele>
        <time>2021-07-24T21:15:40Z</time>
      </trkpt>
      <trkpt lat="43.47594" lon="2.6231">
        <ele>387</ele>
        <time>2021-07-24T21:15:47Z</time>
      </trkpt>
      <trkpt lat="43.47606" lon="2.62325">
        <ele>387</ele>
        <time>2021-07-24T21:15:49Z</time>
      </trkpt>
      <trkpt lat="43.47613" lon="2.62339">
        <ele>388</ele>
        <time>2021-07-24T21:15:52Z</time>
      </trkpt>
      <trkpt lat="43.47626" lon="2.62376">
        <ele>389</ele>
        <time>2021-07-24T21:15:57Z</time>
      </trkpt>
      <trkpt lat="43.47629" lon="2.624">
        <ele>390</ele>
        <time>2021-07-24T21:16:00Z</time>
      </trkpt>
      <trkpt lat="43.47627" lon="2.62427">
        <ele>392</ele>
        <time>2021-07-24T21:16:04Z</time>
      </trkpt>
      <trkpt lat="43.47624" lon="2.62462">
        <ele>394</ele>
        <time>2021-07-24T21:16:08Z</time>
      </trkpt>
      <trkpt lat="43.47618" lon="2.62495">
        <ele>396</ele>
        <time>2021-07-24T21:16:13Z</time>
      </trkpt>
      <trkpt lat="43.47601" lon="2.62538">
        <ele>395</ele>
        <time>2021-07-24T21:16:19Z</time>
      </trkpt>
      <trkpt lat="43.47589" lon="2.62555">
        <ele>394</ele>
        <time>2021-07-24T21:16:22Z</time>
      </trkpt>
      <trkpt lat="43.47577" lon="2.62568">
        <ele>394</ele>
        <time>2021-07-24T21:16:25Z</time>
      </trkpt>
      <trkpt lat="43.47558" lon="2.62587">
        <ele>398</ele>
        <time>2021-07-24T21:16:29Z</time>
      </trkpt>
      <trkpt lat="43.47538" lon="2.6261">
        <ele>401</ele>
        <time>2021-07-24T21:16:33Z</time>
      </trkpt>
      <trkpt lat="43.47527" lon="2.62631">
        <ele>400</ele>
        <time>2021-07-24T21:16:37Z</time>
      </trkpt>
      <trkpt lat="43.47516" lon="2.62659">
        <ele>396</ele>
        <time>2021-07-24T21:16:41Z</time>
      </trkpt>
      <trkpt lat="43.47499" lon="2.62734">
        <ele>389</ele>
        <time>2021-07-24T21:16:51Z</time>
      </trkpt>
      <trkpt lat="43.47497" lon="2.6276">
        <ele>387</ele>
        <time>2021-07-24T21:16:54Z</time>
      </trkpt>
      <trkpt lat="43.47497" lon="2.62805">
        <ele>387</ele>
        <time>2021-07-24T21:17:00Z</time>
      </trkpt>
      <trkpt lat="43.475" lon="2.62851">
        <ele>386</ele>
        <time>2021-07-24T21:17:06Z</time>
      </trkpt>
      <trkpt lat="43.47506" lon="2.6289">
        <ele>386</ele>
        <time>2021-07-24T21:17:11Z</time>
      </trkpt>
      <trkpt lat="43.47539" lon="2.63006">
        <ele>389</ele>
        <time>2021-07-24T21:17:27Z</time>
      </trkpt>
      <trkpt lat="43.47544" lon="2.63026">
        <ele>389</ele>
        <time>2021-07-24T21:17:30Z</time>
      </trkpt>
      <trkpt lat="43.47551" lon="2.6305">
        <ele>389</ele>
        <time>2021-07-24T21:17:34Z</time>
      </trkpt>
      <trkpt lat="43.4756" lon="2.63095">
        <ele>388</ele>
        <time>2021-07-24T21:17:40Z</time>
      </trkpt>
      <trkpt lat="43.4758" lon="2.63228">
        <ele>387</ele>
        <time>2021-07-24T21:17:57Z</time>
      </trkpt>
      <trkpt lat="43.47586" lon="2.63287">
        <ele>388</ele>
        <time>2021-07-24T21:18:05Z</time>
      </trkpt>
      <trkpt lat="43.47587" lon="2.63302">
        <ele>388</ele>
        <time>2021-07-24T21:18:07Z</time>
      </trkpt>
      <trkpt lat="43.47588" lon="2.63316">
        <ele>388</ele>
        <time>2021-07-24T21:18:09Z</time>
      </trkpt>
      <trkpt lat="43.47591" lon="2.63364">
        <ele>389</ele>
        <time>2021-07-24T21:18:15Z</time>
      </trkpt>
      <trkpt lat="43.47598" lon="2.63455">
        <ele>391</ele>
        <time>2021-07-24T21:18:27Z</time>
      </trkpt>
      <trkpt lat="43.47599" lon="2.63473">
        <ele>391</ele>
        <time>2021-07-24T21:18:29Z</time>
      </trkpt>
      <trkpt lat="43.47609" lon="2.63621">
        <ele>392</ele>
        <time>2021-07-24T21:18:48Z</time>
      </trkpt>
      <trkpt lat="43.47609" lon="2.63623">
        <ele>392</ele>
        <time>2021-07-24T21:18:48Z</time>
      </trkpt>
      <trkpt lat="43.47614" lon="2.63681">
        <ele>392</ele>
        <time>2021-07-24T21:18:56Z</time>
      </trkpt>
      <trkpt lat="43.47614" lon="2.63683">
        <ele>392</ele>
        <time>2021-07-24T21:18:56Z</time>
      </trkpt>
      <trkpt lat="43.47615" lon="2.63697">
        <ele>392</ele>
        <time>2021-07-24T21:18:58Z</time>
      </trkpt>
      <trkpt lat="43.47626" lon="2.63856">
        <ele>393</ele>
        <time>2021-07-24T21:19:19Z</time>
      </trkpt>
      <trkpt lat="43.47628" lon="2.63871">
        <ele>393</ele>
        <time>2021-07-24T21:19:21Z</time>
      </trkpt>
      <trkpt lat="43.47628" lon="2.63883">
        <ele>394</ele>
        <time>2021-07-24T21:19:22Z</time>
      </trkpt>
      <trkpt lat="43.47629" lon="2.63894">
        <ele>394</ele>
        <time>2021-07-24T21:19:24Z</time>
      </trkpt>
      <trkpt lat="43.4763" lon="2.639">
        <ele>394</ele>
        <time>2021-07-24T21:19:24Z</time>
      </trkpt>
      <trkpt lat="43.47631" lon="2.63917">
        <ele>394</ele>
        <time>2021-07-24T21:19:27Z</time>
      </trkpt>
      <trkpt lat="43.47631" lon="2.63923">
        <ele>394</ele>
        <time>2021-07-24T21:19:27Z</time>
      </trkpt>
      <trkpt lat="43.47632" lon="2.6394">
        <ele>395</ele>
        <time>2021-07-24T21:19:30Z</time>
      </trkpt>
      <trkpt lat="43.47639" lon="2.64021">
        <ele>398</ele>
        <time>2021-07-24T21:19:40Z</time>
      </trkpt>
      <trkpt lat="43.47641" lon="2.64063">
        <ele>400</ele>
        <time>2021-07-24T21:19:46Z</time>
      </trkpt>
      <trkpt lat="43.47637" lon="2.64088">
        <ele>401</ele>
        <time>2021-07-24T21:19:49Z</time>
      </trkpt>
      <trkpt lat="43.47629" lon="2.6411">
        <ele>402</ele>
        <time>2021-07-24T21:19:52Z</time>
      </trkpt>
      <trkpt lat="43.47518" lon="2.64365">
        <ele>405</ele>
        <time>2021-07-24T21:20:30Z</time>
      </trkpt>
      <trkpt lat="43.47484" lon="2.64447">
        <ele>406</ele>
        <time>2021-07-24T21:20:43Z</time>
      </trkpt>
      <trkpt lat="43.47468" lon="2.64506">
        <ele>408</ele>
        <time>2021-07-24T21:20:51Z</time>
      </trkpt>
      <trkpt lat="43.47464" lon="2.64521">
        <ele>408</ele>
        <time>2021-07-24T21:20:53Z</time>
      </trkpt>
      <trkpt lat="43.474" lon="2.64801">
        <ele>413</ele>
        <time>2021-07-24T21:21:31Z</time>
      </trkpt>
      <trkpt lat="43.47396" lon="2.64827">
        <ele>414</ele>
        <time>2021-07-24T21:21:34Z</time>
      </trkpt>
      <trkpt lat="43.47396" lon="2.64848">
        <ele>415</ele>
        <time>2021-07-24T21:21:37Z</time>
      </trkpt>
      <trkpt lat="43.47398" lon="2.64865">
        <ele>415</ele>
        <time>2021-07-24T21:21:39Z</time>
      </trkpt>
      <trkpt lat="43.47407" lon="2.64902">
        <ele>417</ele>
        <time>2021-07-24T21:21:44Z</time>
      </trkpt>
      <trkpt lat="43.47539" lon="2.65185">
        <ele>423</ele>
        <time>2021-07-24T21:22:28Z</time>
      </trkpt>
      <trkpt lat="43.47557" lon="2.65228">
        <ele>423</ele>
        <time>2021-07-24T21:22:34Z</time>
      </trkpt>
      <trkpt lat="43.47566" lon="2.65255">
        <ele>422</ele>
        <time>2021-07-24T21:22:38Z</time>
      </trkpt>
      <trkpt lat="43.4775" lon="2.66072">
        <ele>432</ele>
        <time>2021-07-24T21:24:28Z</time>
      </trkpt>
      <trkpt lat="43.47762" lon="2.66156">
        <ele>433</ele>
        <time>2021-07-24T21:24:39Z</time>
      </trkpt>
      <trkpt lat="43.47778" lon="2.66366">
        <ele>439</ele>
        <time>2021-07-24T21:25:07Z</time>
      </trkpt>
      <trkpt lat="43.47784" lon="2.66422">
        <ele>441</ele>
        <time>2021-07-24T21:25:14Z</time>
      </trkpt>
      <trkpt lat="43.47791" lon="2.66462">
        <ele>441</ele>
        <time>2021-07-24T21:25:19Z</time>
      </trkpt>
      <trkpt lat="43.47799" lon="2.66494">
        <ele>441</ele>
        <time>2021-07-24T21:25:24Z</time>
      </trkpt>
      <trkpt lat="43.47859" lon="2.66714">
        <ele>455</ele>
        <time>2021-07-24T21:25:54Z</time>
      </trkpt>
      <trkpt lat="43.47869" lon="2.66783">
        <ele>456</ele>
        <time>2021-07-24T21:26:03Z</time>
      </trkpt>
      <trkpt lat="43.47871" lon="2.66858">
        <ele>456</ele>
        <time>2021-07-24T21:26:13Z</time>
      </trkpt>
      <trkpt lat="43.4787" lon="2.66892">
        <ele>456</ele>
        <time>2021-07-24T21:26:17Z</time>
      </trkpt>
      <trkpt lat="43.47865" lon="2.66922">
        <ele>455</ele>
        <time>2021-07-24T21:26:21Z</time>
      </trkpt>
      <trkpt lat="43.47765" lon="2.67319">
        <ele>464</ele>
        <time>2021-07-24T21:27:15Z</time>
      </trkpt>
      <trkpt lat="43.4776" lon="2.67355">
        <ele>464</ele>
        <time>2021-07-24T21:27:20Z</time>
      </trkpt>
      <trkpt lat="43.47757" lon="2.6739">
        <ele>463</ele>
        <time>2021-07-24T21:27:25Z</time>
      </trkpt>
      <trkpt lat="43.47756" lon="2.67428">
        <ele>462</ele>
        <time>2021-07-24T21:27:29Z</time>
      </trkpt>
      <trkpt lat="43.47757" lon="2.67462">
        <ele>462</ele>
        <time>2021-07-24T21:27:34Z</time>
      </trkpt>
      <trkpt lat="43.47761" lon="2.67495">
        <ele>462</ele>
        <time>2021-07-24T21:27:38Z</time>
      </trkpt>
      <trkpt lat="43.47768" lon="2.67538">
        <ele>463</ele>
        <time>2021-07-24T21:27:44Z</time>
      </trkpt>
      <trkpt lat="43.47779" lon="2.67573">
        <ele>465</ele>
        <time>2021-07-24T21:27:49Z</time>
      </trkpt>
      <trkpt lat="43.47881" lon="2.67844">
        <ele>450</ele>
        <time>2021-07-24T21:28:28Z</time>
      </trkpt>
      <trkpt lat="43.47909" lon="2.67909">
        <ele>444</ele>
        <time>2021-07-24T21:28:38Z</time>
      </trkpt>
      <trkpt lat="43.47943" lon="2.67976">
        <ele>438</ele>
        <time>2021-07-24T21:28:49Z</time>
      </trkpt>
      <trkpt lat="43.47958" lon="2.68011">
        <ele>436</ele>
        <time>2021-07-24T21:28:54Z</time>
      </trkpt>
      <trkpt lat="43.47971" lon="2.68046">
        <ele>435</ele>
        <time>2021-07-24T21:28:59Z</time>
      </trkpt>
      <trkpt lat="43.47976" lon="2.68064">
        <ele>434</ele>
        <time>2021-07-24T21:29:01Z</time>
      </trkpt>
      <trkpt lat="43.47982" lon="2.68097">
        <ele>434</ele>
        <time>2021-07-24T21:29:06Z</time>
      </trkpt>
      <trkpt lat="43.47985" lon="2.68129">
        <ele>433</ele>
        <time>2021-07-24T21:29:10Z</time>
      </trkpt>
      <trkpt lat="43.47986" lon="2.68177">
        <ele>432</ele>
        <time>2021-07-24T21:29:16Z</time>
      </trkpt>
      <trkpt lat="43.4798" lon="2.68382">
        <ele>425</ele>
        <time>2021-07-24T21:29:43Z</time>
      </trkpt>
      <trkpt lat="43.47979" lon="2.68411">
        <ele>424</ele>
        <time>2021-07-24T21:29:46Z</time>
      </trkpt>
      <trkpt lat="43.47978" lon="2.68427">
        <ele>423</ele>
        <time>2021-07-24T21:29:48Z</time>
      </trkpt>
      <trkpt lat="43.47976" lon="2.68487">
        <ele>422</ele>
        <time>2021-07-24T21:29:56Z</time>
      </trkpt>
      <trkpt lat="43.47977" lon="2.68546">
        <ele>422</ele>
        <time>2021-07-24T21:30:04Z</time>
      </trkpt>
      <trkpt lat="43.47979" lon="2.6858">
        <ele>422</ele>
        <time>2021-07-24T21:30:08Z</time>
      </trkpt>
      <trkpt lat="43.47984" lon="2.68611">
        <ele>420</ele>
        <time>2021-07-24T21:30:12Z</time>
      </trkpt>
      <trkpt lat="43.47992" lon="2.68646">
        <ele>418</ele>
        <time>2021-07-24T21:30:17Z</time>
      </trkpt>
      <trkpt lat="43.48004" lon="2.68691">
        <ele>414</ele>
        <time>2021-07-24T21:30:23Z</time>
      </trkpt>
      <trkpt lat="43.48034" lon="2.68787">
        <ele>407</ele>
        <time>2021-07-24T21:30:37Z</time>
      </trkpt>
      <trkpt lat="43.48084" lon="2.68946">
        <ele>402</ele>
        <time>2021-07-24T21:30:59Z</time>
      </trkpt>
      <trkpt lat="43.48095" lon="2.68991">
        <ele>402</ele>
        <time>2021-07-24T21:31:05Z</time>
      </trkpt>
      <trkpt lat="43.48097" lon="2.69005">
        <ele>402</ele>
        <time>2021-07-24T21:31:07Z</time>
      </trkpt>
      <trkpt lat="43.48099" lon="2.69036">
        <ele>402</ele>
        <time>2021-07-24T21:31:11Z</time>
      </trkpt>
      <trkpt lat="43.48098" lon="2.69086">
        <ele>401</ele>
        <time>2021-07-24T21:31:18Z</time>
      </trkpt>
      <trkpt lat="43.48093" lon="2.6914">
        <ele>401</ele>
        <time>2021-07-24T21:31:25Z</time>
      </trkpt>
      <trkpt lat="43.48078" lon="2.69239">
        <ele>400</ele>
        <time>2021-07-24T21:31:38Z</time>
      </trkpt>
      <trkpt lat="43.48054" lon="2.69376">
        <ele>399</ele>
        <time>2021-07-24T21:31:56Z</time>
      </trkpt>
      <trkpt lat="43.48036" lon="2.69474">
        <ele>398</ele>
        <time>2021-07-24T21:32:09Z</time>
      </trkpt>
      <trkpt lat="43.48025" lon="2.69526">
        <ele>398</ele>
        <time>2021-07-24T21:32:16Z</time>
      </trkpt>
      <trkpt lat="43.48015" lon="2.6956">
        <ele>398</ele>
        <time>2021-07-24T21:32:21Z</time>
      </trkpt>
      <trkpt lat="43.48001" lon="2.69599">
        <ele>397</ele>
        <time>2021-07-24T21:32:26Z</time>
      </trkpt>
      <trkpt lat="43.47953" lon="2.69727">
        <ele>397</ele>
        <time>2021-07-24T21:32:45Z</time>
      </trkpt>
      <trkpt lat="43.47936" lon="2.69773">
        <ele>396</ele>
        <time>2021-07-24T21:32:51Z</time>
      </trkpt>
      <trkpt lat="43.4787" lon="2.69955">
        <ele>391</ele>
        <time>2021-07-24T21:33:18Z</time>
      </trkpt>
      <trkpt lat="43.4785" lon="2.69988">
        <ele>390</ele>
        <time>2021-07-24T21:33:23Z</time>
      </trkpt>
      <trkpt lat="43.47843" lon="2.6999">
        <ele>390</ele>
        <time>2021-07-24T21:33:25Z</time>
      </trkpt>
      <trkpt lat="43.47838" lon="2.69995">
        <ele>390</ele>
        <time>2021-07-24T21:33:26Z</time>
      </trkpt>
      <trkpt lat="43.47835" lon="2.70001">
        <ele>390</ele>
        <time>2021-07-24T21:33:27Z</time>
      </trkpt>
      <trkpt lat="43.47834" lon="2.70009">
        <ele>390</ele>
        <time>2021-07-24T21:33:28Z</time>
      </trkpt>
      <trkpt lat="43.47835" lon="2.70018">
        <ele>389</ele>
        <time>2021-07-24T21:33:29Z</time>
      </trkpt>
      <trkpt lat="43.47838" lon="2.70024">
        <ele>389</ele>
        <time>2021-07-24T21:33:30Z</time>
      </trkpt>
      <trkpt lat="43.47836" lon="2.70037">
        <ele>389</ele>
        <time>2021-07-24T21:33:31Z</time>
      </trkpt>
      <trkpt lat="43.47828" lon="2.70067">
        <ele>387</ele>
        <time>2021-07-24T21:33:36Z</time>
      </trkpt>
      <trkpt lat="43.47763" lon="2.70247">
        <ele>386</ele>
        <time>2021-07-24T21:34:02Z</time>
      </trkpt>
      <trkpt lat="43.47757" lon="2.70263">
        <ele>385</ele>
        <time>2021-07-24T21:34:04Z</time>
      </trkpt>
      <trkpt lat="43.47752" lon="2.70277">
        <ele>385</ele>
        <time>2021-07-24T21:34:06Z</time>
      </trkpt>
      <trkpt lat="43.47745" lon="2.70298">
        <ele>384</ele>
        <time>2021-07-24T21:34:09Z</time>
      </trkpt>
      <trkpt lat="43.47733" lon="2.7033">
        <ele>384</ele>
        <time>2021-07-24T21:34:14Z</time>
      </trkpt>
      <trkpt lat="43.47723" lon="2.70358">
        <ele>383</ele>
        <time>2021-07-24T21:34:18Z</time>
      </trkpt>
      <trkpt lat="43.47694" lon="2.70439">
        <ele>381</ele>
        <time>2021-07-24T21:34:29Z</time>
      </trkpt>
      <trkpt lat="43.47654" lon="2.70548">
        <ele>378</ele>
        <time>2021-07-24T21:34:45Z</time>
      </trkpt>
      <trkpt lat="43.47622" lon="2.70619">
        <ele>376</ele>
        <time>2021-07-24T21:34:56Z</time>
      </trkpt>
      <trkpt lat="43.47569" lon="2.70725">
        <ele>374</ele>
        <time>2021-07-24T21:35:12Z</time>
      </trkpt>
      <trkpt lat="43.4754" lon="2.70778">
        <ele>373</ele>
        <time>2021-07-24T21:35:21Z</time>
      </trkpt>
      <trkpt lat="43.47539" lon="2.70786">
        <ele>373</ele>
        <time>2021-07-24T21:35:22Z</time>
      </trkpt>
      <trkpt lat="43.47533" lon="2.70798">
        <ele>374</ele>
        <time>2021-07-24T21:35:24Z</time>
      </trkpt>
      <trkpt lat="43.47527" lon="2.70804">
        <ele>374</ele>
        <time>2021-07-24T21:35:25Z</time>
      </trkpt>
      <trkpt lat="43.4751" lon="2.70844">
        <ele>375</ele>
        <time>2021-07-24T21:35:31Z</time>
      </trkpt>
      <trkpt lat="43.47424" lon="2.71017">
        <ele>372</ele>
        <time>2021-07-24T21:35:58Z</time>
      </trkpt>
      <trkpt lat="43.47414" lon="2.7104">
        <ele>371</ele>
        <time>2021-07-24T21:36:02Z</time>
      </trkpt>
      <trkpt lat="43.47371" lon="2.71153">
        <ele>369</ele>
        <time>2021-07-24T21:36:18Z</time>
      </trkpt>
      <trkpt lat="43.47358" lon="2.71184">
        <ele>368</ele>
        <time>2021-07-24T21:36:23Z</time>
      </trkpt>
      <trkpt lat="43.47354" lon="2.71192">
        <ele>368</ele>
        <time>2021-07-24T21:36:24Z</time>
      </trkpt>
      <trkpt lat="43.47344" lon="2.71197">
        <ele>367</ele>
        <time>2021-07-24T21:36:26Z</time>
      </trkpt>
      <trkpt lat="43.47342" lon="2.712">
        <ele>366</ele>
        <time>2021-07-24T21:36:27Z</time>
      </trkpt>
      <trkpt lat="43.47341" lon="2.71206">
        <ele>366</ele>
        <time>2021-07-24T21:36:27Z</time>
      </trkpt>
      <trkpt lat="43.47343" lon="2.71212">
        <ele>367</ele>
        <time>2021-07-24T21:36:28Z</time>
      </trkpt>
      <trkpt lat="43.47332" lon="2.7126">
        <ele>366</ele>
        <time>2021-07-24T21:36:35Z</time>
      </trkpt>
      <trkpt lat="43.47264" lon="2.71444">
        <ele>363</ele>
        <time>2021-07-24T21:37:01Z</time>
      </trkpt>
      <trkpt lat="43.47221" lon="2.71572">
        <ele>367</ele>
        <time>2021-07-24T21:37:20Z</time>
      </trkpt>
      <trkpt lat="43.472" lon="2.71656">
        <ele>370</ele>
        <time>2021-07-24T21:37:31Z</time>
      </trkpt>
      <trkpt lat="43.47192" lon="2.71702">
        <ele>369</ele>
        <time>2021-07-24T21:37:37Z</time>
      </trkpt>
      <trkpt lat="43.47187" lon="2.71753">
        <ele>369</ele>
        <time>2021-07-24T21:37:44Z</time>
      </trkpt>
      <trkpt lat="43.4719" lon="2.71806">
        <ele>370</ele>
        <time>2021-07-24T21:37:51Z</time>
      </trkpt>
      <trkpt lat="43.47262" lon="2.72476">
        <ele>363</ele>
        <time>2021-07-24T21:39:18Z</time>
      </trkpt>
      <trkpt lat="43.47272" lon="2.72546">
        <ele>363</ele>
        <time>2021-07-24T21:39:27Z</time>
      </trkpt>
      <trkpt lat="43.47282" lon="2.72594">
        <ele>363</ele>
        <time>2021-07-24T21:39:34Z</time>
      </trkpt>
      <trkpt lat="43.47294" lon="2.72644">
        <ele>363</ele>
        <time>2021-07-24T21:39:41Z</time>
      </trkpt>
      <trkpt lat="43.4731" lon="2.727">
        <ele>363</ele>
        <time>2021-07-24T21:39:48Z</time>
      </trkpt>
      <trkpt lat="43.4736" lon="2.72843">
        <ele>363</ele>
        <time>2021-07-24T21:40:09Z</time>
      </trkpt>
      <trkpt lat="43.47401" lon="2.72943">
        <ele>358</ele>
        <time>2021-07-24T21:40:24Z</time>
      </trkpt>
      <trkpt lat="43.47412" lon="2.72975">
        <ele>356</ele>
        <time>2021-07-24T21:40:28Z</time>
      </trkpt>
      <trkpt lat="43.47424" lon="2.73032">
        <ele>355</ele>
        <time>2021-07-24T21:40:36Z</time>
      </trkpt>
      <trkpt lat="43.47426" lon="2.73073">
        <ele>356</ele>
        <time>2021-07-24T21:40:41Z</time>
      </trkpt>
      <trkpt lat="43.47426" lon="2.7311">
        <ele>355</ele>
        <time>2021-07-24T21:40:46Z</time>
      </trkpt>
      <trkpt lat="43.47429" lon="2.73141">
        <ele>355</ele>
        <time>2021-07-24T21:40:50Z</time>
      </trkpt>
      <trkpt lat="43.47438" lon="2.73182">
        <ele>356</ele>
        <time>2021-07-24T21:40:56Z</time>
      </trkpt>
      <trkpt lat="43.47485" lon="2.73345">
        <ele>354</ele>
        <time>2021-07-24T21:41:18Z</time>
      </trkpt>
      <trkpt lat="43.47503" lon="2.73394">
        <ele>351</ele>
        <time>2021-07-24T21:41:25Z</time>
      </trkpt>
      <trkpt lat="43.47551" lon="2.73506">
        <ele>350</ele>
        <time>2021-07-24T21:41:42Z</time>
      </trkpt>
      <trkpt lat="43.47576" lon="2.73557">
        <ele>350</ele>
        <time>2021-07-24T21:41:50Z</time>
      </trkpt>
      <trkpt lat="43.47647" lon="2.73675">
        <ele>351</ele>
        <time>2021-07-24T21:42:10Z</time>
      </trkpt>
      <trkpt lat="43.47745" lon="2.73849">
        <ele>350</ele>
        <time>2021-07-24T21:42:38Z</time>
      </trkpt>
      <trkpt lat="43.47767" lon="2.73896">
        <ele>350</ele>
        <time>2021-07-24T21:42:45Z</time>
      </trkpt>
      <trkpt lat="43.47782" lon="2.73936">
        <ele>348</ele>
        <time>2021-07-24T21:42:51Z</time>
      </trkpt>
      <trkpt lat="43.47796" lon="2.73985">
        <ele>345</ele>
        <time>2021-07-24T21:42:58Z</time>
      </trkpt>
      <trkpt lat="43.47804" lon="2.74034">
        <ele>345</ele>
        <time>2021-07-24T21:43:05Z</time>
      </trkpt>
      <trkpt lat="43.47807" lon="2.74074">
        <ele>347</ele>
        <time>2021-07-24T21:43:10Z</time>
      </trkpt>
      <trkpt lat="43.47807" lon="2.74119">
        <ele>350</ele>
        <time>2021-07-24T21:43:16Z</time>
      </trkpt>
      <trkpt lat="43.47803" lon="2.74207">
        <ele>353</ele>
        <time>2021-07-24T21:43:27Z</time>
      </trkpt>
      <trkpt lat="43.47797" lon="2.74302">
        <ele>353</ele>
        <time>2021-07-24T21:43:39Z</time>
      </trkpt>
      <trkpt lat="43.47791" lon="2.74483">
        <ele>351</ele>
        <time>2021-07-24T21:44:03Z</time>
      </trkpt>
      <trkpt lat="43.47793" lon="2.74518">
        <ele>352</ele>
        <time>2021-07-24T21:44:07Z</time>
      </trkpt>
      <trkpt lat="43.47805" lon="2.74619">
        <ele>359</ele>
        <time>2021-07-24T21:44:20Z</time>
      </trkpt>
      <trkpt lat="43.47811" lon="2.74805">
        <ele>359</ele>
        <time>2021-07-24T21:44:44Z</time>
      </trkpt>
      <trkpt lat="43.47817" lon="2.74854">
        <ele>360</ele>
        <time>2021-07-24T21:44:51Z</time>
      </trkpt>
      <trkpt lat="43.47825" lon="2.74885">
        <ele>361</ele>
        <time>2021-07-24T21:44:55Z</time>
      </trkpt>
      <trkpt lat="43.47837" lon="2.74915">
        <ele>363</ele>
        <time>2021-07-24T21:45:00Z</time>
      </trkpt>
      <trkpt lat="43.47862" lon="2.74953">
        <ele>365</ele>
        <time>2021-07-24T21:45:06Z</time>
      </trkpt>
      <trkpt lat="43.47906" lon="2.75012">
        <ele>370</ele>
        <time>2021-07-24T21:45:17Z</time>
      </trkpt>
      <trkpt lat="43.47925" lon="2.75032">
        <ele>369</ele>
        <time>2021-07-24T21:45:21Z</time>
      </trkpt>
      <trkpt lat="43.47943" lon="2.75046">
        <ele>368</ele>
        <time>2021-07-24T21:45:25Z</time>
      </trkpt>
      <trkpt lat="43.48006" lon="2.75073">
        <ele>375</ele>
        <time>2021-07-24T21:45:37Z</time>
      </trkpt>
      <trkpt lat="43.48047" lon="2.75093">
        <ele>377</ele>
        <time>2021-07-24T21:45:44Z</time>
      </trkpt>
      <trkpt lat="43.48106" lon="2.75127">
        <ele>382</ele>
        <time>2021-07-24T21:45:56Z</time>
      </trkpt>
      <trkpt lat="43.48129" lon="2.75132">
        <ele>384</ele>
        <time>2021-07-24T21:46:00Z</time>
      </trkpt>
      <trkpt lat="43.48246" lon="2.7513">
        <ele>381</ele>
        <time>2021-07-24T21:46:21Z</time>
      </trkpt>
      <trkpt lat="43.4832" lon="2.75134">
        <ele>373</ele>
        <time>2021-07-24T21:46:34Z</time>
      </trkpt>
      <trkpt lat="43.48358" lon="2.75134">
        <ele>368</ele>
        <time>2021-07-24T21:46:41Z</time>
      </trkpt>
      <trkpt lat="43.48402" lon="2.75125">
        <ele>363</ele>
        <time>2021-07-24T21:46:49Z</time>
      </trkpt>
      <trkpt lat="43.48426" lon="2.75129">
        <ele>362</ele>
        <time>2021-07-24T21:46:53Z</time>
      </trkpt>
      <trkpt lat="43.48441" lon="2.75137">
        <ele>364</ele>
        <time>2021-07-24T21:46:56Z</time>
      </trkpt>
      <trkpt lat="43.48454" lon="2.7515">
        <ele>364</ele>
        <time>2021-07-24T21:46:59Z</time>
      </trkpt>
      <trkpt lat="43.48572" lon="2.75316">
        <ele>352</ele>
        <time>2021-07-24T21:47:29Z</time>
      </trkpt>
      <trkpt lat="43.48602" lon="2.75362">
        <ele>348</ele>
        <time>2021-07-24T21:47:37Z</time>
      </trkpt>
      <trkpt lat="43.48608" lon="2.7538">
        <ele>347</ele>
        <time>2021-07-24T21:47:39Z</time>
      </trkpt>
      <trkpt lat="43.48605" lon="2.75384">
        <ele>346</ele>
        <time>2021-07-24T21:47:40Z</time>
      </trkpt>
      <trkpt lat="43.48603" lon="2.75393">
        <ele>345</ele>
        <time>2021-07-24T21:47:41Z</time>
      </trkpt>
      <trkpt lat="43.48599" lon="2.75398">
        <ele>345</ele>
        <time>2021-07-24T21:47:42Z</time>
      </trkpt>
      <trkpt lat="43.48595" lon="2.75405">
        <ele>344</ele>
        <time>2021-07-24T21:47:43Z</time>
      </trkpt>
      <trkpt lat="43.48591" lon="2.75422">
        <ele>343</ele>
        <time>2021-07-24T21:47:46Z</time>
      </trkpt>
      <trkpt lat="43.48595" lon="2.75449">
        <ele>345</ele>
        <time>2021-07-24T21:47:49Z</time>
      </trkpt>
      <trkpt lat="43.48608" lon="2.75478">
        <ele>346</ele>
        <time>2021-07-24T21:47:54Z</time>
      </trkpt>
      <trkpt lat="43.48623" lon="2.75503">
        <ele>344</ele>
        <time>2021-07-24T21:47:58Z</time>
      </trkpt>
      <trkpt lat="43.48629" lon="2.75518">
        <ele>345</ele>
        <time>2021-07-24T21:48:00Z</time>
      </trkpt>
      <trkpt lat="43.48632" lon="2.75532">
        <ele>345</ele>
        <time>2021-07-24T21:48:02Z</time>
      </trkpt>
      <trkpt lat="43.48639" lon="2.75594">
        <ele>347</ele>
        <time>2021-07-24T21:48:10Z</time>
      </trkpt>
      <trkpt lat="43.4864" lon="2.75612">
        <ele>347</ele>
        <time>2021-07-24T21:48:12Z</time>
      </trkpt>
      <trkpt lat="43.48636" lon="2.75656">
        <ele>349</ele>
        <time>2021-07-24T21:48:18Z</time>
      </trkpt>
      <trkpt lat="43.48639" lon="2.75767">
        <ele>343</ele>
        <time>2021-07-24T21:48:32Z</time>
      </trkpt>
      <trkpt lat="43.48639" lon="2.75806">
        <ele>339</ele>
        <time>2021-07-24T21:48:37Z</time>
      </trkpt>
      <trkpt lat="43.48642" lon="2.75837">
        <ele>336</ele>
        <time>2021-07-24T21:48:41Z</time>
      </trkpt>
      <trkpt lat="43.48654" lon="2.75895">
        <ele>332</ele>
        <time>2021-07-24T21:48:49Z</time>
      </trkpt>
      <trkpt lat="43.48666" lon="2.75942">
        <ele>330</ele>
        <time>2021-07-24T21:48:56Z</time>
      </trkpt>
      <trkpt lat="43.48704" lon="2.76009">
        <ele>325</ele>
        <time>2021-07-24T21:49:07Z</time>
      </trkpt>
      <trkpt lat="43.48706" lon="2.76022">
        <ele>325</ele>
        <time>2021-07-24T21:49:08Z</time>
      </trkpt>
      <trkpt lat="43.48709" lon="2.76106">
        <ele>324</ele>
        <time>2021-07-24T21:49:19Z</time>
      </trkpt>
      <trkpt lat="43.48707" lon="2.76127">
        <ele>323</ele>
        <time>2021-07-24T21:49:22Z</time>
      </trkpt>
      <trkpt lat="43.48704" lon="2.76143">
        <ele>323</ele>
        <time>2021-07-24T21:49:24Z</time>
      </trkpt>
      <trkpt lat="43.48686" lon="2.76181">
        <ele>324</ele>
        <time>2021-07-24T21:49:30Z</time>
      </trkpt>
      <trkpt lat="43.48679" lon="2.76206">
        <ele>323</ele>
        <time>2021-07-24T21:49:33Z</time>
      </trkpt>
      <trkpt lat="43.48672" lon="2.76249">
        <ele>321</ele>
        <time>2021-07-24T21:49:39Z</time>
      </trkpt>
      <trkpt lat="43.4867" lon="2.7628">
        <ele>319</ele>
        <time>2021-07-24T21:49:43Z</time>
      </trkpt>
      <trkpt lat="43.48666" lon="2.76294">
        <ele>319</ele>
        <time>2021-07-24T21:49:45Z</time>
      </trkpt>
      <trkpt lat="43.48667" lon="2.76302">
        <ele>318</ele>
        <time>2021-07-24T21:49:46Z</time>
      </trkpt>
      <trkpt lat="43.48671" lon="2.76303">
        <ele>318</ele>
        <time>2021-07-24T21:49:47Z</time>
      </trkpt>
      <trkpt lat="43.48675" lon="2.76304">
        <ele>317</ele>
        <time>2021-07-24T21:49:48Z</time>
      </trkpt>
      <trkpt lat="43.4868" lon="2.76302">
        <ele>317</ele>
        <time>2021-07-24T21:49:48Z</time>
      </trkpt>
      <trkpt lat="43.4869" lon="2.76305">
        <ele>316</ele>
        <time>2021-07-24T21:49:50Z</time>
      </trkpt>
      <trkpt lat="43.48719" lon="2.76312">
        <ele>314</ele>
        <time>2021-07-24T21:49:56Z</time>
      </trkpt>
      <trkpt lat="43.48768" lon="2.76324">
        <ele>314</ele>
        <time>2021-07-24T21:50:04Z</time>
      </trkpt>
      <trkpt lat="43.48774" lon="2.76329">
        <ele>315</ele>
        <time>2021-07-24T21:50:06Z</time>
      </trkpt>
      <trkpt lat="43.4878" lon="2.76337">
        <ele>315</ele>
        <time>2021-07-24T21:50:07Z</time>
      </trkpt>
      <trkpt lat="43.48785" lon="2.76342">
        <ele>316</ele>
        <time>2021-07-24T21:50:08Z</time>
      </trkpt>
      <trkpt lat="43.48792" lon="2.76354">
        <ele>317</ele>
        <time>2021-07-24T21:50:10Z</time>
      </trkpt>
      <trkpt lat="43.48792" lon="2.76357">
        <ele>316</ele>
        <time>2021-07-24T21:50:11Z</time>
      </trkpt>
      <trkpt lat="43.4879" lon="2.7637">
        <ele>316</ele>
        <time>2021-07-24T21:50:12Z</time>
      </trkpt>
      <trkpt lat="43.48787" lon="2.76399">
        <ele>315</ele>
        <time>2021-07-24T21:50:16Z</time>
      </trkpt>
      <trkpt lat="43.48788" lon="2.76416">
        <ele>314</ele>
        <time>2021-07-24T21:50:18Z</time>
      </trkpt>
      <trkpt lat="43.48786" lon="2.76431">
        <ele>314</ele>
        <time>2021-07-24T21:50:20Z</time>
      </trkpt>
      <trkpt lat="43.48781" lon="2.76472">
        <ele>312</ele>
        <time>2021-07-24T21:50:26Z</time>
      </trkpt>
      <trkpt lat="43.48767" lon="2.76597">
        <ele>308</ele>
        <time>2021-07-24T21:50:42Z</time>
      </trkpt>
      <trkpt lat="43.48758" lon="2.76673">
        <ele>305</ele>
        <time>2021-07-24T21:50:52Z</time>
      </trkpt>
      <trkpt lat="43.48749" lon="2.76751">
        <ele>304</ele>
        <time>2021-07-24T21:51:02Z</time>
      </trkpt>
      <trkpt lat="43.48743" lon="2.76788">
        <ele>305</ele>
        <time>2021-07-24T21:51:07Z</time>
      </trkpt>
      <trkpt lat="43.48738" lon="2.76833">
        <ele>305</ele>
        <time>2021-07-24T21:51:13Z</time>
      </trkpt>
      <trkpt lat="43.48737" lon="2.76863">
        <ele>304</ele>
        <time>2021-07-24T21:51:17Z</time>
      </trkpt>
      <trkpt lat="43.48733" lon="2.76887">
        <ele>304</ele>
        <time>2021-07-24T21:51:20Z</time>
      </trkpt>
      <trkpt lat="43.48732" lon="2.76899">
        <ele>304</ele>
        <time>2021-07-24T21:51:21Z</time>
      </trkpt>
      <trkpt lat="43.48727" lon="2.76959">
        <ele>305</ele>
        <time>2021-07-24T21:51:29Z</time>
      </trkpt>
      <trkpt lat="43.48724" lon="2.76983">
        <ele>306</ele>
        <time>2021-07-24T21:51:32Z</time>
      </trkpt>
      <trkpt lat="43.48723" lon="2.7699">
        <ele>306</ele>
        <time>2021-07-24T21:51:33Z</time>
      </trkpt>
      <trkpt lat="43.48711" lon="2.771">
        <ele>308</ele>
        <time>2021-07-24T21:51:48Z</time>
      </trkpt>
      <trkpt lat="43.4871" lon="2.77116">
        <ele>309</ele>
        <time>2021-07-24T21:51:50Z</time>
      </trkpt>
      <trkpt lat="43.48709" lon="2.77193">
        <ele>310</ele>
        <time>2021-07-24T21:52:00Z</time>
      </trkpt>
      <trkpt lat="43.48706" lon="2.77235">
        <ele>309</ele>
        <time>2021-07-24T21:52:05Z</time>
      </trkpt>
      <trkpt lat="43.48702" lon="2.77259">
        <ele>309</ele>
        <time>2021-07-24T21:52:08Z</time>
      </trkpt>
      <trkpt lat="43.4869" lon="2.77295">
        <ele>310</ele>
        <time>2021-07-24T21:52:13Z</time>
      </trkpt>
      <trkpt lat="43.4868" lon="2.77311">
        <ele>308</ele>
        <time>2021-07-24T21:52:16Z</time>
      </trkpt>
      <trkpt lat="43.48673" lon="2.77322">
        <ele>306</ele>
        <time>2021-07-24T21:52:18Z</time>
      </trkpt>
      <trkpt lat="43.48665" lon="2.7733">
        <ele>304</ele>
        <time>2021-07-24T21:52:20Z</time>
      </trkpt>
      <trkpt lat="43.48659" lon="2.77335">
        <ele>304</ele>
        <time>2021-07-24T21:52:21Z</time>
      </trkpt>
      <trkpt lat="43.48659" lon="2.77335">
        <ele>304</ele>
        <time>2021-07-24T21:52:21Z</time>
      </trkpt>
      <trkpt lat="43.48647" lon="2.77346">
        <ele>304</ele>
        <time>2021-07-24T21:52:24Z</time>
      </trkpt>
      <trkpt lat="43.48623" lon="2.77371">
        <ele>304</ele>
        <time>2021-07-24T21:52:29Z</time>
      </trkpt>
      <trkpt lat="43.48612" lon="2.77381">
        <ele>303</ele>
        <time>2021-07-24T21:52:31Z</time>
      </trkpt>
      <trkpt lat="43.48598" lon="2.77386">
        <ele>301</ele>
        <time>2021-07-24T21:52:34Z</time>
      </trkpt>
      <trkpt lat="43.48596" lon="2.77387">
        <ele>300</ele>
        <time>2021-07-24T21:52:34Z</time>
      </trkpt>
      <trkpt lat="43.48574" lon="2.77397">
        <ele>298</ele>
        <time>2021-07-24T21:52:38Z</time>
      </trkpt>
      <trkpt lat="43.4856" lon="2.77404">
        <ele>297</ele>
        <time>2021-07-24T21:52:41Z</time>
      </trkpt>
      <trkpt lat="43.48547" lon="2.77416">
        <ele>296</ele>
        <time>2021-07-24T21:52:44Z</time>
      </trkpt>
      <trkpt lat="43.48541" lon="2.77425">
        <ele>296</ele>
        <time>2021-07-24T21:52:45Z</time>
      </trkpt>
      <trkpt lat="43.48538" lon="2.77435">
        <ele>296</ele>
        <time>2021-07-24T21:52:47Z</time>
      </trkpt>
      <trkpt lat="43.48535" lon="2.77449">
        <ele>296</ele>
        <time>2021-07-24T21:52:49Z</time>
      </trkpt>
      <trkpt lat="43.48533" lon="2.77462">
        <ele>296</ele>
        <time>2021-07-24T21:52:50Z</time>
      </trkpt>
      <trkpt lat="43.48531" lon="2.77494">
        <ele>296</ele>
        <time>2021-07-24T21:52:55Z</time>
      </trkpt>
      <trkpt lat="43.48532" lon="2.77509">
        <ele>296</ele>
        <time>2021-07-24T21:52:56Z</time>
      </trkpt>
      <trkpt lat="43.48534" lon="2.77524">
        <ele>295</ele>
        <time>2021-07-24T21:52:58Z</time>
      </trkpt>
      <trkpt lat="43.48542" lon="2.77547">
        <ele>295</ele>
        <time>2021-07-24T21:53:02Z</time>
      </trkpt>
      <trkpt lat="43.48549" lon="2.77559">
        <ele>296</ele>
        <time>2021-07-24T21:53:04Z</time>
      </trkpt>
      <trkpt lat="43.486" lon="2.77626">
        <ele>298</ele>
        <time>2021-07-24T21:53:16Z</time>
      </trkpt>
      <trkpt lat="43.48615" lon="2.77653">
        <ele>299</ele>
        <time>2021-07-24T21:53:21Z</time>
      </trkpt>
      <trkpt lat="43.48621" lon="2.77669">
        <ele>299</ele>
        <time>2021-07-24T21:53:23Z</time>
      </trkpt>
      <trkpt lat="43.48626" lon="2.77692">
        <ele>300</ele>
        <time>2021-07-24T21:53:26Z</time>
      </trkpt>
      <trkpt lat="43.48632" lon="2.77721">
        <ele>300</ele>
        <time>2021-07-24T21:53:30Z</time>
      </trkpt>
      <trkpt lat="43.48644" lon="2.7778">
        <ele>302</ele>
        <time>2021-07-24T21:53:38Z</time>
      </trkpt>
      <trkpt lat="43.48652" lon="2.77835">
        <ele>302</ele>
        <time>2021-07-24T21:53:45Z</time>
      </trkpt>
      <trkpt lat="43.48658" lon="2.77884">
        <ele>302</ele>
        <time>2021-07-24T21:53:52Z</time>
      </trkpt>
      <trkpt lat="43.48661" lon="2.77939">
        <ele>300</ele>
        <time>2021-07-24T21:53:59Z</time>
      </trkpt>
      <trkpt lat="43.48665" lon="2.77976">
        <ele>298</ele>
        <time>2021-07-24T21:54:04Z</time>
      </trkpt>
      <trkpt lat="43.48666" lon="2.78012">
        <ele>296</ele>
        <time>2021-07-24T21:54:08Z</time>
      </trkpt>
      <trkpt lat="43.48664" lon="2.78028">
        <ele>296</ele>
        <time>2021-07-24T21:54:10Z</time>
      </trkpt>
      <trkpt lat="43.48666" lon="2.78037">
        <ele>296</ele>
        <time>2021-07-24T21:54:11Z</time>
      </trkpt>
      <trkpt lat="43.48669" lon="2.7804">
        <ele>296</ele>
        <time>2021-07-24T21:54:12Z</time>
      </trkpt>
      <trkpt lat="43.48698" lon="2.78059">
        <ele>300</ele>
        <time>2021-07-24T21:54:18Z</time>
      </trkpt>
      <trkpt lat="43.48727" lon="2.78085">
        <ele>300</ele>
        <time>2021-07-24T21:54:24Z</time>
      </trkpt>
      <trkpt lat="43.48757" lon="2.78115">
        <ele>300</ele>
        <time>2021-07-24T21:54:31Z</time>
      </trkpt>
      <trkpt lat="43.48776" lon="2.78133">
        <ele>301</ele>
        <time>2021-07-24T21:54:35Z</time>
      </trkpt>
      <trkpt lat="43.48802" lon="2.7816">
        <ele>301</ele>
        <time>2021-07-24T21:54:40Z</time>
      </trkpt>
      <trkpt lat="43.48824" lon="2.78177">
        <ele>301</ele>
        <time>2021-07-24T21:54:45Z</time>
      </trkpt>
      <trkpt lat="43.48854" lon="2.78193">
        <ele>305</ele>
        <time>2021-07-24T21:54:51Z</time>
      </trkpt>
      <trkpt lat="43.48877" lon="2.78211">
        <ele>307</ele>
        <time>2021-07-24T21:54:55Z</time>
      </trkpt>
      <trkpt lat="43.48905" lon="2.78238">
        <ele>306</ele>
        <time>2021-07-24T21:55:01Z</time>
      </trkpt>
      <trkpt lat="43.48925" lon="2.78263">
        <ele>304</ele>
        <time>2021-07-24T21:55:06Z</time>
      </trkpt>
      <trkpt lat="43.48941" lon="2.78287">
        <ele>302</ele>
        <time>2021-07-24T21:55:10Z</time>
      </trkpt>
      <trkpt lat="43.48952" lon="2.78317">
        <ele>297</ele>
        <time>2021-07-24T21:55:15Z</time>
      </trkpt>
      <trkpt lat="43.48958" lon="2.78339">
        <ele>294</ele>
        <time>2021-07-24T21:55:18Z</time>
      </trkpt>
      <trkpt lat="43.48966" lon="2.78363">
        <ele>294</ele>
        <time>2021-07-24T21:55:21Z</time>
      </trkpt>
      <trkpt lat="43.48974" lon="2.78375">
        <ele>294</ele>
        <time>2021-07-24T21:55:23Z</time>
      </trkpt>
      <trkpt lat="43.4899" lon="2.78392">
        <ele>295</ele>
        <time>2021-07-24T21:55:27Z</time>
      </trkpt>
      <trkpt lat="43.4902" lon="2.78416">
        <ele>295</ele>
        <time>2021-07-24T21:55:33Z</time>
      </trkpt>
      <trkpt lat="43.49094" lon="2.7845">
        <ele>296</ele>
        <time>2021-07-24T21:55:47Z</time>
      </trkpt>
      <trkpt lat="43.4911" lon="2.7846">
        <ele>297</ele>
        <time>2021-07-24T21:55:50Z</time>
      </trkpt>
      <trkpt lat="43.49147" lon="2.78494">
        <ele>296</ele>
        <time>2021-07-24T21:55:58Z</time>
      </trkpt>
      <trkpt lat="43.49163" lon="2.78515">
        <ele>295</ele>
        <time>2021-07-24T21:56:02Z</time>
      </trkpt>
      <trkpt lat="43.49278" lon="2.78678">
        <ele>293</ele>
        <time>2021-07-24T21:56:31Z</time>
      </trkpt>
      <trkpt lat="43.49315" lon="2.7875">
        <ele>289</ele>
        <time>2021-07-24T21:56:43Z</time>
      </trkpt>
      <trkpt lat="43.4933" lon="2.78774">
        <ele>289</ele>
        <time>2021-07-24T21:56:47Z</time>
      </trkpt>
      <trkpt lat="43.49384" lon="2.78844">
        <ele>289</ele>
        <time>2021-07-24T21:57:00Z</time>
      </trkpt>
      <trkpt lat="43.49406" lon="2.78868">
        <ele>288</ele>
        <time>2021-07-24T21:57:05Z</time>
      </trkpt>
      <trkpt lat="43.49449" lon="2.78899">
        <ele>286</ele>
        <time>2021-07-24T21:57:14Z</time>
      </trkpt>
      <trkpt lat="43.4947" lon="2.78909">
        <ele>285</ele>
        <time>2021-07-24T21:57:18Z</time>
      </trkpt>
      <trkpt lat="43.49505" lon="2.78919">
        <ele>286</ele>
        <time>2021-07-24T21:57:24Z</time>
      </trkpt>
      <trkpt lat="43.49525" lon="2.7892">
        <ele>286</ele>
        <time>2021-07-24T21:57:28Z</time>
      </trkpt>
      <trkpt lat="43.49563" lon="2.78927">
        <ele>285</ele>
        <time>2021-07-24T21:57:34Z</time>
      </trkpt>
      <trkpt lat="43.4959" lon="2.78927">
        <ele>284</ele>
        <time>2021-07-24T21:57:39Z</time>
      </trkpt>
      <trkpt lat="43.49612" lon="2.78926">
        <ele>282</ele>
        <time>2021-07-24T21:57:43Z</time>
      </trkpt>
      <trkpt lat="43.49653" lon="2.78916">
        <ele>279</ele>
        <time>2021-07-24T21:57:50Z</time>
      </trkpt>
      <trkpt lat="43.49684" lon="2.78912">
        <ele>277</ele>
        <time>2021-07-24T21:57:56Z</time>
      </trkpt>
      <trkpt lat="43.4974" lon="2.78911">
        <ele>275</ele>
        <time>2021-07-24T21:58:06Z</time>
      </trkpt>
      <trkpt lat="43.49749" lon="2.78912">
        <ele>274</ele>
        <time>2021-07-24T21:58:08Z</time>
      </trkpt>
      <trkpt lat="43.49923" lon="2.78931">
        <ele>279</ele>
        <time>2021-07-24T21:58:39Z</time>
      </trkpt>
      <trkpt lat="43.49952" lon="2.7894">
        <ele>279</ele>
        <time>2021-07-24T21:58:44Z</time>
      </trkpt>
      <trkpt lat="43.49983" lon="2.78959">
        <ele>278</ele>
        <time>2021-07-24T21:58:50Z</time>
      </trkpt>
      <trkpt lat="43.50015" lon="2.78984">
        <ele>277</ele>
        <time>2021-07-24T21:58:56Z</time>
      </trkpt>
      <trkpt lat="43.50046" lon="2.79013">
        <ele>277</ele>
        <time>2021-07-24T21:59:03Z</time>
      </trkpt>
      <trkpt lat="43.50061" lon="2.7903">
        <ele>277</ele>
        <time>2021-07-24T21:59:07Z</time>
      </trkpt>
      <trkpt lat="43.50072" lon="2.79049">
        <ele>276</ele>
        <time>2021-07-24T21:59:10Z</time>
      </trkpt>
      <trkpt lat="43.50109" lon="2.79137">
        <ele>272</ele>
        <time>2021-07-24T21:59:23Z</time>
      </trkpt>
      <trkpt lat="43.50119" lon="2.79154">
        <ele>271</ele>
        <time>2021-07-24T21:59:26Z</time>
      </trkpt>
      <trkpt lat="43.5013" lon="2.79167">
        <ele>271</ele>
        <time>2021-07-24T21:59:28Z</time>
      </trkpt>
      <trkpt lat="43.50148" lon="2.79185">
        <ele>271</ele>
        <time>2021-07-24T21:59:32Z</time>
      </trkpt>
      <trkpt lat="43.50189" lon="2.79205">
        <ele>271</ele>
        <time>2021-07-24T21:59:40Z</time>
      </trkpt>
      <trkpt lat="43.50203" lon="2.79209">
        <ele>271</ele>
        <time>2021-07-24T21:59:43Z</time>
      </trkpt>
      <trkpt lat="43.50221" lon="2.79208">
        <ele>272</ele>
        <time>2021-07-24T21:59:46Z</time>
      </trkpt>
      <trkpt lat="43.50253" lon="2.79202">
        <ele>273</ele>
        <time>2021-07-24T21:59:51Z</time>
      </trkpt>
      <trkpt lat="43.50286" lon="2.79192">
        <ele>273</ele>
        <time>2021-07-24T21:59:57Z</time>
      </trkpt>
      <trkpt lat="43.50314" lon="2.79187">
        <ele>272</ele>
        <time>2021-07-24T22:00:03Z</time>
      </trkpt>
      <trkpt lat="43.50345" lon="2.79184">
        <ele>272</ele>
        <time>2021-07-24T22:00:08Z</time>
      </trkpt>
      <trkpt lat="43.5035" lon="2.79185">
        <ele>272</ele>
        <time>2021-07-24T22:00:09Z</time>
      </trkpt>
      <trkpt lat="43.50359" lon="2.79187">
        <ele>272</ele>
        <time>2021-07-24T22:00:11Z</time>
      </trkpt>
      <trkpt lat="43.50422" lon="2.79203">
        <ele>274</ele>
        <time>2021-07-24T22:00:22Z</time>
      </trkpt>
      <trkpt lat="43.50461" lon="2.79215">
        <ele>274</ele>
        <time>2021-07-24T22:00:29Z</time>
      </trkpt>
      <trkpt lat="43.50467" lon="2.79217">
        <ele>274</ele>
        <time>2021-07-24T22:00:30Z</time>
      </trkpt>
      <trkpt lat="43.50473" lon="2.79219">
        <ele>274</ele>
        <time>2021-07-24T22:00:31Z</time>
      </trkpt>
      <trkpt lat="43.50523" lon="2.79234">
        <ele>276</ele>
        <time>2021-07-24T22:00:40Z</time>
      </trkpt>
      <trkpt lat="43.50526" lon="2.79235">
        <ele>277</ele>
        <time>2021-07-24T22:00:41Z</time>
      </trkpt>
      <trkpt lat="43.50534" lon="2.79238">
        <ele>277</ele>
        <time>2021-07-24T22:00:42Z</time>
      </trkpt>
      <trkpt lat="43.50597" lon="2.7926">
        <ele>278</ele>
        <time>2021-07-24T22:00:54Z</time>
      </trkpt>
      <trkpt lat="43.50655" lon="2.79289">
        <ele>276</ele>
        <time>2021-07-24T22:01:05Z</time>
      </trkpt>
      <trkpt lat="43.50663" lon="2.79295">
        <ele>275</ele>
        <time>2021-07-24T22:01:07Z</time>
      </trkpt>
      <trkpt lat="43.5068" lon="2.79309">
        <ele>273</ele>
        <time>2021-07-24T22:01:10Z</time>
      </trkpt>
      <trkpt lat="43.50688" lon="2.79315">
        <ele>272</ele>
        <time>2021-07-24T22:01:12Z</time>
      </trkpt>
      <trkpt lat="43.50711" lon="2.79335">
        <ele>270</ele>
        <time>2021-07-24T22:01:17Z</time>
      </trkpt>
      <trkpt lat="43.50742" lon="2.79359">
        <ele>270</ele>
        <time>2021-07-24T22:01:23Z</time>
      </trkpt>
      <trkpt lat="43.50765" lon="2.79378">
        <ele>269</ele>
        <time>2021-07-24T22:01:28Z</time>
      </trkpt>
      <trkpt lat="43.50767" lon="2.79383">
        <ele>269</ele>
        <time>2021-07-24T22:01:28Z</time>
      </trkpt>
      <trkpt lat="43.50778" lon="2.79406">
        <ele>267</ele>
        <time>2021-07-24T22:01:32Z</time>
      </trkpt>
      <trkpt lat="43.50793" lon="2.79417">
        <ele>267</ele>
        <time>2021-07-24T22:01:35Z</time>
      </trkpt>
      <trkpt lat="43.50813" lon="2.79434">
        <ele>267</ele>
        <time>2021-07-24T22:01:39Z</time>
      </trkpt>
      <trkpt lat="43.50835" lon="2.79453">
        <ele>266</ele>
        <time>2021-07-24T22:01:44Z</time>
      </trkpt>
      <trkpt lat="43.50851" lon="2.79455">
        <ele>267</ele>
        <time>2021-07-24T22:01:47Z</time>
      </trkpt>
      <trkpt lat="43.50861" lon="2.79456">
        <ele>267</ele>
        <time>2021-07-24T22:01:48Z</time>
      </trkpt>
      <trkpt lat="43.50883" lon="2.79476">
        <ele>266</ele>
        <time>2021-07-24T22:01:53Z</time>
      </trkpt>
      <trkpt lat="43.50902" lon="2.79491">
        <ele>266</ele>
        <time>2021-07-24T22:01:57Z</time>
      </trkpt>
      <trkpt lat="43.50928" lon="2.79512">
        <ele>266</ele>
        <time>2021-07-24T22:02:02Z</time>
      </trkpt>
      <trkpt lat="43.50945" lon="2.79526">
        <ele>266</ele>
        <time>2021-07-24T22:02:06Z</time>
      </trkpt>
      <trkpt lat="43.51038" lon="2.79602">
        <ele>264</ele>
        <time>2021-07-24T22:02:25Z</time>
      </trkpt>
      <trkpt lat="43.51163" lon="2.79707">
        <ele>265</ele>
        <time>2021-07-24T22:02:51Z</time>
      </trkpt>
      <trkpt lat="43.51222" lon="2.79757">
        <ele>270</ele>
        <time>2021-07-24T22:03:03Z</time>
      </trkpt>
      <trkpt lat="43.51254" lon="2.7979">
        <ele>270</ele>
        <time>2021-07-24T22:03:11Z</time>
      </trkpt>
      <trkpt lat="43.51277" lon="2.79823">
        <ele>272</ele>
        <time>2021-07-24T22:03:16Z</time>
      </trkpt>
      <trkpt lat="43.51324" lon="2.79903">
        <ele>268</ele>
        <time>2021-07-24T22:03:30Z</time>
      </trkpt>
      <trkpt lat="43.51504" lon="2.80225">
        <ele>261</ele>
        <time>2021-07-24T22:04:22Z</time>
      </trkpt>
      <trkpt lat="43.51523" lon="2.80263">
        <ele>260</ele>
        <time>2021-07-24T22:04:28Z</time>
      </trkpt>
      <trkpt lat="43.51536" lon="2.80296">
        <ele>261</ele>
        <time>2021-07-24T22:04:33Z</time>
      </trkpt>
      <trkpt lat="43.51552" lon="2.80349">
        <ele>260</ele>
        <time>2021-07-24T22:04:40Z</time>
      </trkpt>
      <trkpt lat="43.51562" lon="2.80403">
        <ele>258</ele>
        <time>2021-07-24T22:04:48Z</time>
      </trkpt>
      <trkpt lat="43.51582" lon="2.80494">
        <ele>255</ele>
        <time>2021-07-24T22:05:00Z</time>
      </trkpt>
      <trkpt lat="43.51592" lon="2.80525">
        <ele>256</ele>
        <time>2021-07-24T22:05:04Z</time>
      </trkpt>
      <trkpt lat="43.51598" lon="2.80547">
        <ele>256</ele>
        <time>2021-07-24T22:05:07Z</time>
      </trkpt>
      <trkpt lat="43.51599" lon="2.80567">
        <ele>256</ele>
        <time>2021-07-24T22:05:10Z</time>
      </trkpt>
      <trkpt lat="43.51611" lon="2.80617">
        <ele>256</ele>
        <time>2021-07-24T22:05:17Z</time>
      </trkpt>
      <trkpt lat="43.51655" lon="2.80768">
        <ele>255</ele>
        <time>2021-07-24T22:05:38Z</time>
      </trkpt>
      <trkpt lat="43.51684" lon="2.8086">
        <ele>253</ele>
        <time>2021-07-24T22:05:51Z</time>
      </trkpt>
      <trkpt lat="43.51707" lon="2.80918">
        <ele>252</ele>
        <time>2021-07-24T22:05:59Z</time>
      </trkpt>
      <trkpt lat="43.5176" lon="2.81044">
        <ele>254</ele>
        <time>2021-07-24T22:06:18Z</time>
      </trkpt>
      <trkpt lat="43.51903" lon="2.81354">
        <ele>256</ele>
        <time>2021-07-24T22:07:05Z</time>
      </trkpt>
      <trkpt lat="43.51912" lon="2.81379">
        <ele>256</ele>
        <time>2021-07-24T22:07:09Z</time>
      </trkpt>
      <trkpt lat="43.51918" lon="2.814">
        <ele>256</ele>
        <time>2021-07-24T22:07:12Z</time>
      </trkpt>
      <trkpt lat="43.51937" lon="2.81519">
        <ele>258</ele>
        <time>2021-07-24T22:07:28Z</time>
      </trkpt>
      <trkpt lat="43.51942" lon="2.81567">
        <ele>258</ele>
        <time>2021-07-24T22:07:34Z</time>
      </trkpt>
      <trkpt lat="43.51943" lon="2.81621">
        <ele>257</ele>
        <time>2021-07-24T22:07:41Z</time>
      </trkpt>
      <trkpt lat="43.51942" lon="2.81655">
        <ele>257</ele>
        <time>2021-07-24T22:07:45Z</time>
      </trkpt>
      <trkpt lat="43.5195" lon="2.81712">
        <ele>259</ele>
        <time>2021-07-24T22:07:53Z</time>
      </trkpt>
      <trkpt lat="43.51958" lon="2.81747">
        <ele>260</ele>
        <time>2021-07-24T22:07:57Z</time>
      </trkpt>
      <trkpt lat="43.51971" lon="2.81768">
        <ele>263</ele>
        <time>2021-07-24T22:08:01Z</time>
      </trkpt>
      <trkpt lat="43.51986" lon="2.81782">
        <ele>265</ele>
        <time>2021-07-24T22:08:04Z</time>
      </trkpt>
      <trkpt lat="43.52" lon="2.8179">
        <ele>267</ele>
        <time>2021-07-24T22:08:07Z</time>
      </trkpt>
      <trkpt lat="43.52031" lon="2.8178">
        <ele>268</ele>
        <time>2021-07-24T22:08:13Z</time>
      </trkpt>
      <trkpt lat="43.52045" lon="2.81773">
        <ele>269</ele>
        <time>2021-07-24T22:08:15Z</time>
      </trkpt>
      <trkpt lat="43.52048" lon="2.81783">
        <ele>269</ele>
        <time>2021-07-24T22:08:17Z</time>
      </trkpt>
      <trkpt lat="43.52051" lon="2.81808">
        <ele>268</ele>
        <time>2021-07-24T22:08:20Z</time>
      </trkpt>
      <trkpt lat="43.52056" lon="2.81823">
        <ele>268</ele>
        <time>2021-07-24T22:08:22Z</time>
      </trkpt>
      <trkpt lat="43.52087" lon="2.81887">
        <ele>265</ele>
        <time>2021-07-24T22:08:32Z</time>
      </trkpt>
      <trkpt lat="43.52107" lon="2.81925">
        <ele>262</ele>
        <time>2021-07-24T22:08:38Z</time>
      </trkpt>
      <trkpt lat="43.52119" lon="2.81947">
        <ele>262</ele>
        <time>2021-07-24T22:08:42Z</time>
      </trkpt>
      <trkpt lat="43.52138" lon="2.81982">
        <ele>264</ele>
        <time>2021-07-24T22:08:47Z</time>
      </trkpt>
      <trkpt lat="43.52169" lon="2.82041">
        <ele>271</ele>
        <time>2021-07-24T22:08:57Z</time>
      </trkpt>
      <trkpt lat="43.52174" lon="2.82045">
        <ele>272</ele>
        <time>2021-07-24T22:08:58Z</time>
      </trkpt>
      <trkpt lat="43.52178" lon="2.82054">
        <ele>274</ele>
        <time>2021-07-24T22:08:59Z</time>
      </trkpt>
      <trkpt lat="43.52182" lon="2.82059">
        <ele>275</ele>
        <time>2021-07-24T22:09:00Z</time>
      </trkpt>
      <trkpt lat="43.52192" lon="2.82065">
        <ele>276</ele>
        <time>2021-07-24T22:09:02Z</time>
      </trkpt>
      <trkpt lat="43.52205" lon="2.82115">
        <ele>282</ele>
        <time>2021-07-24T22:09:09Z</time>
      </trkpt>
      <trkpt lat="43.52227" lon="2.82191">
        <ele>286</ele>
        <time>2021-07-24T22:09:19Z</time>
      </trkpt>
      <trkpt lat="43.52237" lon="2.82234">
        <ele>283</ele>
        <time>2021-07-24T22:09:25Z</time>
      </trkpt>
      <trkpt lat="43.52246" lon="2.8227">
        <ele>279</ele>
        <time>2021-07-24T22:09:30Z</time>
      </trkpt>
      <trkpt lat="43.52268" lon="2.82324">
        <ele>276</ele>
        <time>2021-07-24T22:09:38Z</time>
      </trkpt>
      <trkpt lat="43.52293" lon="2.82403">
        <ele>273</ele>
        <time>2021-07-24T22:09:49Z</time>
      </trkpt>
      <trkpt lat="43.52307" lon="2.82437">
        <ele>273</ele>
        <time>2021-07-24T22:09:54Z</time>
      </trkpt>
      <trkpt lat="43.5233" lon="2.82479">
        <ele>273</ele>
        <time>2021-07-24T22:10:01Z</time>
      </trkpt>
      <trkpt lat="43.52351" lon="2.82525">
        <ele>271</ele>
        <time>2021-07-24T22:10:08Z</time>
      </trkpt>
      <trkpt lat="43.52384" lon="2.82578">
        <ele>268</ele>
        <time>2021-07-24T22:10:17Z</time>
      </trkpt>
      <trkpt lat="43.52397" lon="2.82601">
        <ele>268</ele>
        <time>2021-07-24T22:10:21Z</time>
      </trkpt>
      <trkpt lat="43.52451" lon="2.82783">
        <ele>257</ele>
        <time>2021-07-24T22:10:46Z</time>
      </trkpt>
      <trkpt lat="43.52458" lon="2.82804">
        <ele>256</ele>
        <time>2021-07-24T22:10:49Z</time>
      </trkpt>
      <trkpt lat="43.52451" lon="2.82827">
        <ele>254</ele>
        <time>2021-07-24T22:10:52Z</time>
      </trkpt>
      <trkpt lat="43.52448" lon="2.82838">
        <ele>254</ele>
        <time>2021-07-24T22:10:54Z</time>
      </trkpt>
      <trkpt lat="43.52437" lon="2.82852">
        <ele>253</ele>
        <time>2021-07-24T22:10:57Z</time>
      </trkpt>
      <trkpt lat="43.52429" lon="2.82855">
        <ele>252</ele>
        <time>2021-07-24T22:10:58Z</time>
      </trkpt>
      <trkpt lat="43.52423" lon="2.82864">
        <ele>252</ele>
        <time>2021-07-24T22:11:00Z</time>
      </trkpt>
      <trkpt lat="43.52402" lon="2.82928">
        <ele>247</ele>
        <time>2021-07-24T22:11:09Z</time>
      </trkpt>
      <trkpt lat="43.52395" lon="2.82965">
        <ele>245</ele>
        <time>2021-07-24T22:11:14Z</time>
      </trkpt>
      <trkpt lat="43.52386" lon="2.82991">
        <ele>244</ele>
        <time>2021-07-24T22:11:17Z</time>
      </trkpt>
      <trkpt lat="43.52377" lon="2.83005">
        <ele>243</ele>
        <time>2021-07-24T22:11:20Z</time>
      </trkpt>
      <trkpt lat="43.5244" lon="2.83105">
        <ele>243</ele>
        <time>2021-07-24T22:11:37Z</time>
      </trkpt>
      <trkpt lat="43.52451" lon="2.83117">
        <ele>243</ele>
        <time>2021-07-24T22:11:39Z</time>
      </trkpt>
      <trkpt lat="43.52461" lon="2.83125">
        <ele>243</ele>
        <time>2021-07-24T22:11:41Z</time>
      </trkpt>
      <trkpt lat="43.52475" lon="2.8313">
        <ele>243</ele>
        <time>2021-07-24T22:11:44Z</time>
      </trkpt>
      <trkpt lat="43.52604" lon="2.8315">
        <ele>242</ele>
        <time>2021-07-24T22:12:07Z</time>
      </trkpt>
      <trkpt lat="43.52718" lon="2.83164">
        <ele>240</ele>
        <time>2021-07-24T22:12:27Z</time>
      </trkpt>
      <trkpt lat="43.52765" lon="2.83173">
        <ele>240</ele>
        <time>2021-07-24T22:12:36Z</time>
      </trkpt>
      <trkpt lat="43.52776" lon="2.83176">
        <ele>241</ele>
        <time>2021-07-24T22:12:38Z</time>
      </trkpt>
      <trkpt lat="43.52798" lon="2.8319">
        <ele>241</ele>
        <time>2021-07-24T22:12:42Z</time>
      </trkpt>
      <trkpt lat="43.52814" lon="2.83204">
        <ele>240</ele>
        <time>2021-07-24T22:12:46Z</time>
      </trkpt>
      <trkpt lat="43.52831" lon="2.83229">
        <ele>239</ele>
        <time>2021-07-24T22:12:50Z</time>
      </trkpt>
      <trkpt lat="43.52845" lon="2.83255">
        <ele>239</ele>
        <time>2021-07-24T22:12:54Z</time>
      </trkpt>
      <trkpt lat="43.52853" lon="2.83273">
        <ele>239</ele>
        <time>2021-07-24T22:12:57Z</time>
      </trkpt>
      <trkpt lat="43.52863" lon="2.83308">
        <ele>238</ele>
        <time>2021-07-24T22:13:02Z</time>
      </trkpt>
      <trkpt lat="43.52869" lon="2.83337">
        <ele>238</ele>
        <time>2021-07-24T22:13:06Z</time>
      </trkpt>
      <trkpt lat="43.52874" lon="2.83352">
        <ele>239</ele>
        <time>2021-07-24T22:13:08Z</time>
      </trkpt>
      <trkpt lat="43.52875" lon="2.83387">
        <ele>239</ele>
        <time>2021-07-24T22:13:12Z</time>
      </trkpt>
      <trkpt lat="43.52879" lon="2.83395">
        <ele>239</ele>
        <time>2021-07-24T22:13:13Z</time>
      </trkpt>
      <trkpt lat="43.52892" lon="2.83395">
        <ele>241</ele>
        <time>2021-07-24T22:13:16Z</time>
      </trkpt>
      <trkpt lat="43.52898" lon="2.83399">
        <ele>242</ele>
        <time>2021-07-24T22:13:17Z</time>
      </trkpt>
      <trkpt lat="43.52909" lon="2.83428">
        <ele>243</ele>
        <time>2021-07-24T22:13:21Z</time>
      </trkpt>
      <trkpt lat="43.52922" lon="2.83454">
        <ele>246</ele>
        <time>2021-07-24T22:13:25Z</time>
      </trkpt>
      <trkpt lat="43.52926" lon="2.83467">
        <ele>247</ele>
        <time>2021-07-24T22:13:27Z</time>
      </trkpt>
      <trkpt lat="43.5293" lon="2.83493">
        <ele>248</ele>
        <time>2021-07-24T22:13:31Z</time>
      </trkpt>
      <trkpt lat="43.52935" lon="2.83551">
        <ele>253</ele>
        <time>2021-07-24T22:13:38Z</time>
      </trkpt>
      <trkpt lat="43.52934" lon="2.83565">
        <ele>253</ele>
        <time>2021-07-24T22:13:40Z</time>
      </trkpt>
      <trkpt lat="43.52924" lon="2.83611">
        <ele>254</ele>
        <time>2021-07-24T22:13:46Z</time>
      </trkpt>
      <trkpt lat="43.52896" lon="2.83729">
        <ele>260</ele>
        <time>2021-07-24T22:14:02Z</time>
      </trkpt>
      <trkpt lat="43.52897" lon="2.8378">
        <ele>264</ele>
        <time>2021-07-24T22:14:09Z</time>
      </trkpt>
      <trkpt lat="43.52894" lon="2.83807">
        <ele>266</ele>
        <time>2021-07-24T22:14:12Z</time>
      </trkpt>
      <trkpt lat="43.52877" lon="2.83886">
        <ele>267</ele>
        <time>2021-07-24T22:14:23Z</time>
      </trkpt>
      <trkpt lat="43.52877" lon="2.83913">
        <ele>265</ele>
        <time>2021-07-24T22:14:26Z</time>
      </trkpt>
      <trkpt lat="43.52881" lon="2.83935">
        <ele>261</ele>
        <time>2021-07-24T22:14:29Z</time>
      </trkpt>
      <trkpt lat="43.52893" lon="2.83969">
        <ele>255</ele>
        <time>2021-07-24T22:14:34Z</time>
      </trkpt>
      <trkpt lat="43.52895" lon="2.83977">
        <ele>254</ele>
        <time>2021-07-24T22:14:35Z</time>
      </trkpt>
      <trkpt lat="43.52884" lon="2.84042">
        <ele>250</ele>
        <time>2021-07-24T22:14:44Z</time>
      </trkpt>
      <trkpt lat="43.52876" lon="2.84065">
        <ele>250</ele>
        <time>2021-07-24T22:14:47Z</time>
      </trkpt>
      <trkpt lat="43.52867" lon="2.84069">
        <ele>250</ele>
        <time>2021-07-24T22:14:49Z</time>
      </trkpt>
      <trkpt lat="43.52845" lon="2.84073">
        <ele>248</ele>
        <time>2021-07-24T22:14:53Z</time>
      </trkpt>
      <trkpt lat="43.52824" lon="2.84081">
        <ele>250</ele>
        <time>2021-07-24T22:14:57Z</time>
      </trkpt>
      <trkpt lat="43.52817" lon="2.84091">
        <ele>251</ele>
        <time>2021-07-24T22:14:58Z</time>
      </trkpt>
      <trkpt lat="43.52816" lon="2.84102">
        <ele>251</ele>
        <time>2021-07-24T22:15:00Z</time>
      </trkpt>
      <trkpt lat="43.52817" lon="2.84118">
        <ele>250</ele>
        <time>2021-07-24T22:15:02Z</time>
      </trkpt>
      <trkpt lat="43.52832" lon="2.84169">
        <ele>247</ele>
        <time>2021-07-24T22:15:09Z</time>
      </trkpt>
      <trkpt lat="43.52836" lon="2.84189">
        <ele>248</ele>
        <time>2021-07-24T22:15:12Z</time>
      </trkpt>
      <trkpt lat="43.52837" lon="2.84209">
        <ele>249</ele>
        <time>2021-07-24T22:15:14Z</time>
      </trkpt>
      <trkpt lat="43.52836" lon="2.84235">
        <ele>250</ele>
        <time>2021-07-24T22:15:18Z</time>
      </trkpt>
      <trkpt lat="43.52831" lon="2.84256">
        <ele>249</ele>
        <time>2021-07-24T22:15:20Z</time>
      </trkpt>
      <trkpt lat="43.5282" lon="2.84287">
        <ele>250</ele>
        <time>2021-07-24T22:15:25Z</time>
      </trkpt>
      <trkpt lat="43.52811" lon="2.8432">
        <ele>252</ele>
        <time>2021-07-24T22:15:29Z</time>
      </trkpt>
      <trkpt lat="43.52799" lon="2.84322">
        <ele>250</ele>
        <time>2021-07-24T22:15:32Z</time>
      </trkpt>
      <trkpt lat="43.52789" lon="2.84328">
        <ele>249</ele>
        <time>2021-07-24T22:15:34Z</time>
      </trkpt>
      <trkpt lat="43.5278" lon="2.84337">
        <ele>248</ele>
        <time>2021-07-24T22:15:36Z</time>
      </trkpt>
      <trkpt lat="43.52773" lon="2.84348">
        <ele>247</ele>
        <time>2021-07-24T22:15:37Z</time>
      </trkpt>
      <trkpt lat="43.52769" lon="2.84358">
        <ele>247</ele>
        <time>2021-07-24T22:15:39Z</time>
      </trkpt>
      <trkpt lat="43.52763" lon="2.84391">
        <ele>247</ele>
        <time>2021-07-24T22:15:43Z</time>
      </trkpt>
      <trkpt lat="43.52738" lon="2.84444">
        <ele>244</ele>
        <time>2021-07-24T22:15:51Z</time>
      </trkpt>
      <trkpt lat="43.52724" lon="2.84482">
        <ele>242</ele>
        <time>2021-07-24T22:15:57Z</time>
      </trkpt>
      <trkpt lat="43.52714" lon="2.84497">
        <ele>242</ele>
        <time>2021-07-24T22:16:00Z</time>
      </trkpt>
      <trkpt lat="43.52695" lon="2.84513">
        <ele>240</ele>
        <time>2021-07-24T22:16:04Z</time>
      </trkpt>
      <trkpt lat="43.52685" lon="2.84528">
        <ele>240</ele>
        <time>2021-07-24T22:16:06Z</time>
      </trkpt>
      <trkpt lat="43.52695" lon="2.84538">
        <ele>240</ele>
        <time>2021-07-24T22:16:08Z</time>
      </trkpt>
      <trkpt lat="43.527" lon="2.84548">
        <ele>240</ele>
        <time>2021-07-24T22:16:10Z</time>
      </trkpt>
      <trkpt lat="43.52738" lon="2.8459">
        <ele>238</ele>
        <time>2021-07-24T22:16:19Z</time>
      </trkpt>
      <trkpt lat="43.52895" lon="2.84786">
        <ele>232</ele>
        <time>2021-07-24T22:16:56Z</time>
      </trkpt>
      <trkpt lat="43.52957" lon="2.84863">
        <ele>230</ele>
        <time>2021-07-24T22:17:11Z</time>
      </trkpt>
      <trkpt lat="43.52966" lon="2.8488">
        <ele>230</ele>
        <time>2021-07-24T22:17:14Z</time>
      </trkpt>
      <trkpt lat="43.53074" lon="2.85166">
        <ele>219</ele>
        <time>2021-07-24T22:17:55Z</time>
      </trkpt>
      <trkpt lat="43.53081" lon="2.85191">
        <ele>218</ele>
        <time>2021-07-24T22:17:59Z</time>
      </trkpt>
      <trkpt lat="43.5309" lon="2.85376">
        <ele>218</ele>
        <time>2021-07-24T22:18:23Z</time>
      </trkpt>
      <trkpt lat="43.53086" lon="2.85388">
        <ele>218</ele>
        <time>2021-07-24T22:18:25Z</time>
      </trkpt>
      <trkpt lat="43.53089" lon="2.85467">
        <ele>219</ele>
        <time>2021-07-24T22:18:35Z</time>
      </trkpt>
      <trkpt lat="43.53094" lon="2.85488">
        <ele>219</ele>
        <time>2021-07-24T22:18:38Z</time>
      </trkpt>
      <trkpt lat="43.53097" lon="2.85489">
        <ele>220</ele>
        <time>2021-07-24T22:18:38Z</time>
      </trkpt>
      <trkpt lat="43.531" lon="2.85488">
        <ele>220</ele>
        <time>2021-07-24T22:18:39Z</time>
      </trkpt>
      <trkpt lat="43.53119" lon="2.85563">
        <ele>219</ele>
        <time>2021-07-24T22:18:49Z</time>
      </trkpt>
      <trkpt lat="43.53125" lon="2.85579">
        <ele>219</ele>
        <time>2021-07-24T22:18:51Z</time>
      </trkpt>
      <trkpt lat="43.53131" lon="2.85589">
        <ele>219</ele>
        <time>2021-07-24T22:18:53Z</time>
      </trkpt>
      <trkpt lat="43.53163" lon="2.85626">
        <ele>219</ele>
        <time>2021-07-24T22:19:00Z</time>
      </trkpt>
      <trkpt lat="43.53201" lon="2.85674">
        <ele>218</ele>
        <time>2021-07-24T22:19:10Z</time>
      </trkpt>
      <trkpt lat="43.53285" lon="2.85774">
        <ele>217</ele>
        <time>2021-07-24T22:19:29Z</time>
      </trkpt>
      <trkpt lat="43.53316" lon="2.85806">
        <ele>216</ele>
        <time>2021-07-24T22:19:36Z</time>
      </trkpt>
      <trkpt lat="43.53338" lon="2.85818">
        <ele>216</ele>
        <time>2021-07-24T22:19:40Z</time>
      </trkpt>
      <trkpt lat="43.53388" lon="2.85866">
        <ele>220</ele>
        <time>2021-07-24T22:19:51Z</time>
      </trkpt>
      <trkpt lat="43.53406" lon="2.85888">
        <ele>221</ele>
        <time>2021-07-24T22:19:55Z</time>
      </trkpt>
      <trkpt lat="43.53514" lon="2.85978">
        <ele>221</ele>
        <time>2021-07-24T22:20:18Z</time>
      </trkpt>
      <trkpt lat="43.53548" lon="2.86001">
        <ele>220</ele>
        <time>2021-07-24T22:20:25Z</time>
      </trkpt>
      <trkpt lat="43.53573" lon="2.86012">
        <ele>220</ele>
        <time>2021-07-24T22:20:29Z</time>
      </trkpt>
      <trkpt lat="43.53599" lon="2.8602">
        <ele>221</ele>
        <time>2021-07-24T22:20:34Z</time>
      </trkpt>
      <trkpt lat="43.53627" lon="2.86024">
        <ele>222</ele>
        <time>2021-07-24T22:20:39Z</time>
      </trkpt>
      <trkpt lat="43.5366" lon="2.86025">
        <ele>224</ele>
        <time>2021-07-24T22:20:45Z</time>
      </trkpt>
      <trkpt lat="43.53697" lon="2.8602">
        <ele>225</ele>
        <time>2021-07-24T22:20:52Z</time>
      </trkpt>
      <trkpt lat="43.53736" lon="2.8601">
        <ele>226</ele>
        <time>2021-07-24T22:20:59Z</time>
      </trkpt>
      <trkpt lat="43.53905" lon="2.85951">
        <ele>226</ele>
        <time>2021-07-24T22:21:30Z</time>
      </trkpt>
      <trkpt lat="43.5392" lon="2.85951">
        <ele>225</ele>
        <time>2021-07-24T22:21:32Z</time>
      </trkpt>
      <trkpt lat="43.53933" lon="2.85955">
        <ele>225</ele>
        <time>2021-07-24T22:21:35Z</time>
      </trkpt>
      <trkpt lat="43.53946" lon="2.85963">
        <ele>224</ele>
        <time>2021-07-24T22:21:37Z</time>
      </trkpt>
      <trkpt lat="43.53998" lon="2.86006">
        <ele>221</ele>
        <time>2021-07-24T22:21:48Z</time>
      </trkpt>
      <trkpt lat="43.54012" lon="2.86028">
        <ele>220</ele>
        <time>2021-07-24T22:21:52Z</time>
      </trkpt>
      <trkpt lat="43.54022" lon="2.8605">
        <ele>219</ele>
        <time>2021-07-24T22:21:55Z</time>
      </trkpt>
      <trkpt lat="43.54029" lon="2.86077">
        <ele>217</ele>
        <time>2021-07-24T22:21:59Z</time>
      </trkpt>
      <trkpt lat="43.54034" lon="2.86112">
        <ele>216</ele>
        <time>2021-07-24T22:22:03Z</time>
      </trkpt>
      <trkpt lat="43.54036" lon="2.86135">
        <ele>215</ele>
        <time>2021-07-24T22:22:06Z</time>
      </trkpt>
      <trkpt lat="43.54034" lon="2.8616">
        <ele>214</ele>
        <time>2021-07-24T22:22:10Z</time>
      </trkpt>
      <trkpt lat="43.54026" lon="2.86222">
        <ele>213</ele>
        <time>2021-07-24T22:22:18Z</time>
      </trkpt>
      <trkpt lat="43.54014" lon="2.86292">
        <ele>214</ele>
        <time>2021-07-24T22:22:27Z</time>
      </trkpt>
      <trkpt lat="43.53959" lon="2.86514">
        <ele>222</ele>
        <time>2021-07-24T22:22:57Z</time>
      </trkpt>
      <trkpt lat="43.53957" lon="2.86535">
        <ele>222</ele>
        <time>2021-07-24T22:23:00Z</time>
      </trkpt>
      <trkpt lat="43.53959" lon="2.86567">
        <ele>222</ele>
        <time>2021-07-24T22:23:04Z</time>
      </trkpt>
      <trkpt lat="43.53963" lon="2.86595">
        <ele>222</ele>
        <time>2021-07-24T22:23:08Z</time>
      </trkpt>
      <trkpt lat="43.53972" lon="2.86625">
        <ele>220</ele>
        <time>2021-07-24T22:23:12Z</time>
      </trkpt>
      <trkpt lat="43.53983" lon="2.86646">
        <ele>217</ele>
        <time>2021-07-24T22:23:15Z</time>
      </trkpt>
      <trkpt lat="43.53997" lon="2.86664">
        <ele>213</ele>
        <time>2021-07-24T22:23:19Z</time>
      </trkpt>
      <trkpt lat="43.54011" lon="2.86676">
        <ele>214</ele>
        <time>2021-07-24T22:23:22Z</time>
      </trkpt>
      <trkpt lat="43.5403" lon="2.86682">
        <ele>215</ele>
        <time>2021-07-24T22:23:25Z</time>
      </trkpt>
      <trkpt lat="43.5405" lon="2.86682">
        <ele>215</ele>
        <time>2021-07-24T22:23:29Z</time>
      </trkpt>
      <trkpt lat="43.54066" lon="2.86678">
        <ele>215</ele>
        <time>2021-07-24T22:23:32Z</time>
      </trkpt>
      <trkpt lat="43.54133" lon="2.86646">
        <ele>217</ele>
        <time>2021-07-24T22:23:44Z</time>
      </trkpt>
      <trkpt lat="43.54201" lon="2.86618">
        <ele>219</ele>
        <time>2021-07-24T22:23:57Z</time>
      </trkpt>
      <trkpt lat="43.54308" lon="2.86586">
        <ele>216</ele>
        <time>2021-07-24T22:24:16Z</time>
      </trkpt>
      <trkpt lat="43.54359" lon="2.86596">
        <ele>212</ele>
        <time>2021-07-24T22:24:26Z</time>
      </trkpt>
      <trkpt lat="43.54392" lon="2.86609">
        <ele>210</ele>
        <time>2021-07-24T22:24:32Z</time>
      </trkpt>
      <trkpt lat="43.54415" lon="2.86632">
        <ele>208</ele>
        <time>2021-07-24T22:24:37Z</time>
      </trkpt>
      <trkpt lat="43.54435" lon="2.86657">
        <ele>209</ele>
        <time>2021-07-24T22:24:42Z</time>
      </trkpt>
      <trkpt lat="43.5445" lon="2.86692">
        <ele>210</ele>
        <time>2021-07-24T22:24:47Z</time>
      </trkpt>
      <trkpt lat="43.54454" lon="2.86715">
        <ele>210</ele>
        <time>2021-07-24T22:24:50Z</time>
      </trkpt>
      <trkpt lat="43.54455" lon="2.86747">
        <ele>209</ele>
        <time>2021-07-24T22:24:54Z</time>
      </trkpt>
      <trkpt lat="43.54452" lon="2.8678">
        <ele>208</ele>
        <time>2021-07-24T22:24:58Z</time>
      </trkpt>
      <trkpt lat="43.54449" lon="2.86799">
        <ele>207</ele>
        <time>2021-07-24T22:25:01Z</time>
      </trkpt>
      <trkpt lat="43.54439" lon="2.86829">
        <ele>205</ele>
        <time>2021-07-24T22:25:05Z</time>
      </trkpt>
      <trkpt lat="43.54436" lon="2.86845">
        <ele>205</ele>
        <time>2021-07-24T22:25:07Z</time>
      </trkpt>
      <trkpt lat="43.54437" lon="2.8685">
        <ele>205</ele>
        <time>2021-07-24T22:25:08Z</time>
      </trkpt>
      <trkpt lat="43.54441" lon="2.86854">
        <ele>206</ele>
        <time>2021-07-24T22:25:09Z</time>
      </trkpt>
      <trkpt lat="43.54417" lon="2.86925">
        <ele>204</ele>
        <time>2021-07-24T22:25:19Z</time>
      </trkpt>
      <trkpt lat="43.54386" lon="2.87012">
        <ele>208</ele>
        <time>2021-07-24T22:25:31Z</time>
      </trkpt>
      <trkpt lat="43.54377" lon="2.87039">
        <ele>209</ele>
        <time>2021-07-24T22:25:35Z</time>
      </trkpt>
      <trkpt lat="43.5429" lon="2.87285">
        <ele>218</ele>
        <time>2021-07-24T22:26:10Z</time>
      </trkpt>
      <trkpt lat="43.54285" lon="2.87295">
        <ele>217</ele>
        <time>2021-07-24T22:26:12Z</time>
      </trkpt>
      <trkpt lat="43.54277" lon="2.87307">
        <ele>216</ele>
        <time>2021-07-24T22:26:14Z</time>
      </trkpt>
      <trkpt lat="43.54269" lon="2.87314">
        <ele>215</ele>
        <time>2021-07-24T22:26:16Z</time>
      </trkpt>
      <trkpt lat="43.54255" lon="2.87324">
        <ele>212</ele>
        <time>2021-07-24T22:26:19Z</time>
      </trkpt>
      <trkpt lat="43.54231" lon="2.87334">
        <ele>209</ele>
        <time>2021-07-24T22:26:23Z</time>
      </trkpt>
      <trkpt lat="43.54218" lon="2.87344">
        <ele>208</ele>
        <time>2021-07-24T22:26:26Z</time>
      </trkpt>
      <trkpt lat="43.54206" lon="2.87358">
        <ele>207</ele>
        <time>2021-07-24T22:26:28Z</time>
      </trkpt>
      <trkpt lat="43.54194" lon="2.87387">
        <ele>208</ele>
        <time>2021-07-24T22:26:33Z</time>
      </trkpt>
      <trkpt lat="43.54192" lon="2.87407">
        <ele>209</ele>
        <time>2021-07-24T22:26:35Z</time>
      </trkpt>
      <trkpt lat="43.54192" lon="2.87425">
        <ele>209</ele>
        <time>2021-07-24T22:26:38Z</time>
      </trkpt>
      <trkpt lat="43.54195" lon="2.87444">
        <ele>209</ele>
        <time>2021-07-24T22:26:40Z</time>
      </trkpt>
      <trkpt lat="43.54202" lon="2.8746">
        <ele>209</ele>
        <time>2021-07-24T22:26:43Z</time>
      </trkpt>
      <trkpt lat="43.54213" lon="2.87477">
        <ele>210</ele>
        <time>2021-07-24T22:26:46Z</time>
      </trkpt>
      <trkpt lat="43.54224" lon="2.87487">
        <ele>210</ele>
        <time>2021-07-24T22:26:48Z</time>
      </trkpt>
      <trkpt lat="43.54239" lon="2.87494">
        <ele>211</ele>
        <time>2021-07-24T22:26:51Z</time>
      </trkpt>
      <trkpt lat="43.54251" lon="2.87496">
        <ele>211</ele>
        <time>2021-07-24T22:26:53Z</time>
      </trkpt>
      <trkpt lat="43.54333" lon="2.87494">
        <ele>217</ele>
        <time>2021-07-24T22:27:07Z</time>
      </trkpt>
      <trkpt lat="43.54359" lon="2.87498">
        <ele>222</ele>
        <time>2021-07-24T22:27:12Z</time>
      </trkpt>
      <trkpt lat="43.54378" lon="2.87505">
        <ele>225</ele>
        <time>2021-07-24T22:27:16Z</time>
      </trkpt>
      <trkpt lat="43.54395" lon="2.87514">
        <ele>226</ele>
        <time>2021-07-24T22:27:19Z</time>
      </trkpt>
      <trkpt lat="43.54463" lon="2.87577">
        <ele>222</ele>
        <time>2021-07-24T22:27:33Z</time>
      </trkpt>
      <trkpt lat="43.54623" lon="2.87843">
        <ele>211</ele>
        <time>2021-07-24T22:28:18Z</time>
      </trkpt>
      <trkpt lat="43.54638" lon="2.87865">
        <ele>211</ele>
        <time>2021-07-24T22:28:22Z</time>
      </trkpt>
      <trkpt lat="43.54668" lon="2.87899">
        <ele>210</ele>
        <time>2021-07-24T22:28:29Z</time>
      </trkpt>
      <trkpt lat="43.54679" lon="2.87918">
        <ele>210</ele>
        <time>2021-07-24T22:28:32Z</time>
      </trkpt>
      <trkpt lat="43.54692" lon="2.87947">
        <ele>212</ele>
        <time>2021-07-24T22:28:36Z</time>
      </trkpt>
      <trkpt lat="43.54726" lon="2.88051">
        <ele>212</ele>
        <time>2021-07-24T22:28:51Z</time>
      </trkpt>
      <trkpt lat="43.54741" lon="2.88112">
        <ele>208</ele>
        <time>2021-07-24T22:28:59Z</time>
      </trkpt>
      <trkpt lat="43.5477" lon="2.88246">
        <ele>206</ele>
        <time>2021-07-24T22:29:17Z</time>
      </trkpt>
      <trkpt lat="43.5478" lon="2.88314">
        <ele>204</ele>
        <time>2021-07-24T22:29:26Z</time>
      </trkpt>
      <trkpt lat="43.54787" lon="2.88345">
        <ele>203</ele>
        <time>2021-07-24T22:29:31Z</time>
      </trkpt>
      <trkpt lat="43.54833" lon="2.88497">
        <ele>199</ele>
        <time>2021-07-24T22:29:52Z</time>
      </trkpt>
      <trkpt lat="43.54845" lon="2.88533">
        <ele>200</ele>
        <time>2021-07-24T22:29:57Z</time>
      </trkpt>
      <trkpt lat="43.54858" lon="2.88587">
        <ele>200</ele>
        <time>2021-07-24T22:30:04Z</time>
      </trkpt>
      <trkpt lat="43.54861" lon="2.88611">
        <ele>200</ele>
        <time>2021-07-24T22:30:07Z</time>
      </trkpt>
      <trkpt lat="43.54861" lon="2.88642">
        <ele>199</ele>
        <time>2021-07-24T22:30:11Z</time>
      </trkpt>
      <trkpt lat="43.54859" lon="2.88663">
        <ele>198</ele>
        <time>2021-07-24T22:30:14Z</time>
      </trkpt>
      <trkpt lat="43.54836" lon="2.88806">
        <ele>195</ele>
        <time>2021-07-24T22:30:33Z</time>
      </trkpt>
      <trkpt lat="43.54828" lon="2.88876">
        <ele>194</ele>
        <time>2021-07-24T22:30:42Z</time>
      </trkpt>
      <trkpt lat="43.54822" lon="2.88956">
        <ele>193</ele>
        <time>2021-07-24T22:30:53Z</time>
      </trkpt>
      <trkpt lat="43.54819" lon="2.89042">
        <ele>192</ele>
        <time>2021-07-24T22:31:04Z</time>
      </trkpt>
      <trkpt lat="43.54822" lon="2.89138">
        <ele>192</ele>
        <time>2021-07-24T22:31:16Z</time>
      </trkpt>
      <trkpt lat="43.54827" lon="2.89199">
        <ele>190</ele>
        <time>2021-07-24T22:31:24Z</time>
      </trkpt>
      <trkpt lat="43.54831" lon="2.8923">
        <ele>189</ele>
        <time>2021-07-24T22:31:28Z</time>
      </trkpt>
      <trkpt lat="43.54842" lon="2.89288">
        <ele>189</ele>
        <time>2021-07-24T22:31:36Z</time>
      </trkpt>
      <trkpt lat="43.54874" lon="2.89436">
        <ele>198</ele>
        <time>2021-07-24T22:31:56Z</time>
      </trkpt>
      <trkpt lat="43.54875" lon="2.89477">
        <ele>198</ele>
        <time>2021-07-24T22:32:01Z</time>
      </trkpt>
      <trkpt lat="43.54872" lon="2.89505">
        <ele>198</ele>
        <time>2021-07-24T22:32:05Z</time>
      </trkpt>
      <trkpt lat="43.54864" lon="2.89537">
        <ele>197</ele>
        <time>2021-07-24T22:32:09Z</time>
      </trkpt>
      <trkpt lat="43.54849" lon="2.89602">
        <ele>199</ele>
        <time>2021-07-24T22:32:18Z</time>
      </trkpt>
      <trkpt lat="43.54844" lon="2.8963">
        <ele>201</ele>
        <time>2021-07-24T22:32:21Z</time>
      </trkpt>
      <trkpt lat="43.54843" lon="2.89653">
        <ele>202</ele>
        <time>2021-07-24T22:32:24Z</time>
      </trkpt>
      <trkpt lat="43.54845" lon="2.89689">
        <ele>203</ele>
        <time>2021-07-24T22:32:29Z</time>
      </trkpt>
      <trkpt lat="43.54852" lon="2.89718">
        <ele>202</ele>
        <time>2021-07-24T22:32:33Z</time>
      </trkpt>
      <trkpt lat="43.54861" lon="2.89739">
        <ele>203</ele>
        <time>2021-07-24T22:32:36Z</time>
      </trkpt>
      <trkpt lat="43.5487" lon="2.89751">
        <ele>203</ele>
        <time>2021-07-24T22:32:38Z</time>
      </trkpt>
      <trkpt lat="43.54885" lon="2.89768">
        <ele>203</ele>
        <time>2021-07-24T22:32:42Z</time>
      </trkpt>
      <trkpt lat="43.54938" lon="2.89805">
        <ele>202</ele>
        <time>2021-07-24T22:32:52Z</time>
      </trkpt>
      <trkpt lat="43.5501" lon="2.89849">
        <ele>203</ele>
        <time>2021-07-24T22:33:06Z</time>
      </trkpt>
      <trkpt lat="43.55061" lon="2.89885">
        <ele>201</ele>
        <time>2021-07-24T22:33:17Z</time>
      </trkpt>
      <trkpt lat="43.55078" lon="2.89904">
        <ele>201</ele>
        <time>2021-07-24T22:33:21Z</time>
      </trkpt>
      <trkpt lat="43.55093" lon="2.89925">
        <ele>201</ele>
        <time>2021-07-24T22:33:24Z</time>
      </trkpt>
      <trkpt lat="43.55114" lon="2.89965">
        <ele>199</ele>
        <time>2021-07-24T22:33:31Z</time>
      </trkpt>
      <trkpt lat="43.55138" lon="2.90043">
        <ele>201</ele>
        <time>2021-07-24T22:33:42Z</time>
      </trkpt>
      <trkpt lat="43.55145" lon="2.9007">
        <ele>201</ele>
        <time>2021-07-24T22:33:45Z</time>
      </trkpt>
      <trkpt lat="43.55149" lon="2.9009">
        <ele>200</ele>
        <time>2021-07-24T22:33:48Z</time>
      </trkpt>
      <trkpt lat="43.55149" lon="2.90113">
        <ele>199</ele>
        <time>2021-07-24T22:33:51Z</time>
      </trkpt>
      <trkpt lat="43.55147" lon="2.90133">
        <ele>197</ele>
        <time>2021-07-24T22:33:54Z</time>
      </trkpt>
      <trkpt lat="43.55143" lon="2.90168">
        <ele>194</ele>
        <time>2021-07-24T22:33:58Z</time>
      </trkpt>
      <trkpt lat="43.55144" lon="2.90184">
        <ele>194</ele>
        <time>2021-07-24T22:34:00Z</time>
      </trkpt>
      <trkpt lat="43.55161" lon="2.90231">
        <ele>192</ele>
        <time>2021-07-24T22:34:07Z</time>
      </trkpt>
      <trkpt lat="43.55184" lon="2.90269">
        <ele>191</ele>
        <time>2021-07-24T22:34:13Z</time>
      </trkpt>
      <trkpt lat="43.55234" lon="2.90299">
        <ele>194</ele>
        <time>2021-07-24T22:34:23Z</time>
      </trkpt>
      <trkpt lat="43.55251" lon="2.90312">
        <ele>194</ele>
        <time>2021-07-24T22:34:27Z</time>
      </trkpt>
      <trkpt lat="43.55262" lon="2.90327">
        <ele>192</ele>
        <time>2021-07-24T22:34:29Z</time>
      </trkpt>
      <trkpt lat="43.55334" lon="2.90459">
        <ele>189</ele>
        <time>2021-07-24T22:34:51Z</time>
      </trkpt>
      <trkpt lat="43.55343" lon="2.90489">
        <ele>190</ele>
        <time>2021-07-24T22:34:55Z</time>
      </trkpt>
      <trkpt lat="43.55373" lon="2.90635">
        <ele>188</ele>
        <time>2021-07-24T22:35:14Z</time>
      </trkpt>
      <trkpt lat="43.55377" lon="2.90666">
        <ele>186</ele>
        <time>2021-07-24T22:35:18Z</time>
      </trkpt>
      <trkpt lat="43.55378" lon="2.9069">
        <ele>187</ele>
        <time>2021-07-24T22:35:21Z</time>
      </trkpt>
      <trkpt lat="43.55369" lon="2.90792">
        <ele>184</ele>
        <time>2021-07-24T22:35:35Z</time>
      </trkpt>
      <trkpt lat="43.5537" lon="2.90811">
        <ele>184</ele>
        <time>2021-07-24T22:35:37Z</time>
      </trkpt>
      <trkpt lat="43.55378" lon="2.90858">
        <ele>183</ele>
        <time>2021-07-24T22:35:43Z</time>
      </trkpt>
      <trkpt lat="43.554" lon="2.90923">
        <ele>181</ele>
        <time>2021-07-24T22:35:53Z</time>
      </trkpt>
      <trkpt lat="43.55406" lon="2.90935">
        <ele>181</ele>
        <time>2021-07-24T22:35:55Z</time>
      </trkpt>
      <trkpt lat="43.55413" lon="2.90943">
        <ele>181</ele>
        <time>2021-07-24T22:35:56Z</time>
      </trkpt>
      <trkpt lat="43.55425" lon="2.90954">
        <ele>180</ele>
        <time>2021-07-24T22:35:59Z</time>
      </trkpt>
      <trkpt lat="43.55415" lon="2.9108">
        <ele>178</ele>
        <time>2021-07-24T22:36:15Z</time>
      </trkpt>
      <trkpt lat="43.55416" lon="2.91087">
        <ele>179</ele>
        <time>2021-07-24T22:36:16Z</time>
      </trkpt>
      <trkpt lat="43.55422" lon="2.91097">
        <ele>181</ele>
        <time>2021-07-24T22:36:18Z</time>
      </trkpt>
      <trkpt lat="43.55449" lon="2.91122">
        <ele>183</ele>
        <time>2021-07-24T22:36:23Z</time>
      </trkpt>
      <trkpt lat="43.55477" lon="2.91143">
        <ele>183</ele>
        <time>2021-07-24T22:36:29Z</time>
      </trkpt>
      <trkpt lat="43.55472" lon="2.91157">
        <ele>186</ele>
        <time>2021-07-24T22:36:31Z</time>
      </trkpt>
      <trkpt lat="43.55473" lon="2.91165">
        <ele>187</ele>
        <time>2021-07-24T22:36:32Z</time>
      </trkpt>
      <trkpt lat="43.55502" lon="2.91201">
        <ele>189</ele>
        <time>2021-07-24T22:36:39Z</time>
      </trkpt>
      <trkpt lat="43.55523" lon="2.91236">
        <ele>191</ele>
        <time>2021-07-24T22:36:45Z</time>
      </trkpt>
      <trkpt lat="43.55538" lon="2.91268">
        <ele>193</ele>
        <time>2021-07-24T22:36:50Z</time>
      </trkpt>
      <trkpt lat="43.55549" lon="2.91302">
        <ele>194</ele>
        <time>2021-07-24T22:36:55Z</time>
      </trkpt>
      <trkpt lat="43.55567" lon="2.91371">
        <ele>195</ele>
        <time>2021-07-24T22:37:04Z</time>
      </trkpt>
      <trkpt lat="43.55571" lon="2.91428">
        <ele>194</ele>
        <time>2021-07-24T22:37:12Z</time>
      </trkpt>
      <trkpt lat="43.55578" lon="2.91459">
        <ele>192</ele>
        <time>2021-07-24T22:37:16Z</time>
      </trkpt>
      <trkpt lat="43.55586" lon="2.91487">
        <ele>190</ele>
        <time>2021-07-24T22:37:20Z</time>
      </trkpt>
      <trkpt lat="43.55598" lon="2.915">
        <ele>190</ele>
        <time>2021-07-24T22:37:22Z</time>
      </trkpt>
      <trkpt lat="43.55619" lon="2.91588">
        <ele>186</ele>
        <time>2021-07-24T22:37:34Z</time>
      </trkpt>
      <trkpt lat="43.55624" lon="2.91596">
        <ele>186</ele>
        <time>2021-07-24T22:37:36Z</time>
      </trkpt>
      <trkpt lat="43.5564" lon="2.91603">
        <ele>186</ele>
        <time>2021-07-24T22:37:39Z</time>
      </trkpt>
      <trkpt lat="43.55645" lon="2.91608">
        <ele>185</ele>
        <time>2021-07-24T22:37:40Z</time>
      </trkpt>
      <trkpt lat="43.55653" lon="2.91639">
        <ele>184</ele>
        <time>2021-07-24T22:37:44Z</time>
      </trkpt>
      <trkpt lat="43.55659" lon="2.91646">
        <ele>184</ele>
        <time>2021-07-24T22:37:45Z</time>
      </trkpt>
      <trkpt lat="43.55673" lon="2.9164">
        <ele>184</ele>
        <time>2021-07-24T22:37:48Z</time>
      </trkpt>
      <trkpt lat="43.55678" lon="2.91642">
        <ele>183</ele>
        <time>2021-07-24T22:37:49Z</time>
      </trkpt>
      <trkpt lat="43.55709" lon="2.91635">
        <ele>180</ele>
        <time>2021-07-24T22:37:54Z</time>
      </trkpt>
      <trkpt lat="43.55722" lon="2.91633">
        <ele>179</ele>
        <time>2021-07-24T22:37:57Z</time>
      </trkpt>
      <trkpt lat="43.55731" lon="2.91625">
        <ele>178</ele>
        <time>2021-07-24T22:37:59Z</time>
      </trkpt>
      <trkpt lat="43.55741" lon="2.91604">
        <ele>178</ele>
        <time>2021-07-24T22:38:02Z</time>
      </trkpt>
      <trkpt lat="43.55749" lon="2.91585">
        <ele>178</ele>
        <time>2021-07-24T22:38:05Z</time>
      </trkpt>
      <trkpt lat="43.55754" lon="2.91573">
        <ele>179</ele>
        <time>2021-07-24T22:38:07Z</time>
      </trkpt>
      <trkpt lat="43.55762" lon="2.91555">
        <ele>181</ele>
        <time>2021-07-24T22:38:09Z</time>
      </trkpt>
      <trkpt lat="43.55772" lon="2.91526">
        <ele>183</ele>
        <time>2021-07-24T22:38:13Z</time>
      </trkpt>
      <trkpt lat="43.55777" lon="2.91512">
        <ele>184</ele>
        <time>2021-07-24T22:38:15Z</time>
      </trkpt>
      <trkpt lat="43.55786" lon="2.91513">
        <ele>182</ele>
        <time>2021-07-24T22:38:17Z</time>
      </trkpt>
      <trkpt lat="43.5584" lon="2.91518">
        <ele>172</ele>
        <time>2021-07-24T22:38:27Z</time>
      </trkpt>
      <trkpt lat="43.5585" lon="2.9152">
        <ele>174</ele>
        <time>2021-07-24T22:38:28Z</time>
      </trkpt>
      <trkpt lat="43.55844" lon="2.91563">
        <ele>174</ele>
        <time>2021-07-24T22:38:34Z</time>
      </trkpt>
      <trkpt lat="43.55832" lon="2.91621">
        <ele>175</ele>
        <time>2021-07-24T22:38:42Z</time>
      </trkpt>
      <trkpt lat="43.55823" lon="2.91708">
        <ele>184</ele>
        <time>2021-07-24T22:38:53Z</time>
      </trkpt>
      <trkpt lat="43.55818" lon="2.91729">
        <ele>185</ele>
        <time>2021-07-24T22:38:56Z</time>
      </trkpt>
      <trkpt lat="43.55808" lon="2.91757">
        <ele>185</ele>
        <time>2021-07-24T22:39:00Z</time>
      </trkpt>
      <trkpt lat="43.55788" lon="2.91801">
        <ele>183</ele>
        <time>2021-07-24T22:39:07Z</time>
      </trkpt>
      <trkpt lat="43.55775" lon="2.91843">
        <ele>180</ele>
        <time>2021-07-24T22:39:13Z</time>
      </trkpt>
      <trkpt lat="43.55765" lon="2.91882">
        <ele>177</ele>
        <time>2021-07-24T22:39:18Z</time>
      </trkpt>
      <trkpt lat="43.55747" lon="2.91989">
        <ele>173</ele>
        <time>2021-07-24T22:39:32Z</time>
      </trkpt>
      <trkpt lat="43.55741" lon="2.92039">
        <ele>174</ele>
        <time>2021-07-24T22:39:39Z</time>
      </trkpt>
      <trkpt lat="43.55736" lon="2.9214">
        <ele>174</ele>
        <time>2021-07-24T22:39:52Z</time>
      </trkpt>
      <trkpt lat="43.55737" lon="2.92198">
        <ele>173</ele>
        <time>2021-07-24T22:39:59Z</time>
      </trkpt>
      <trkpt lat="43.55756" lon="2.92651">
        <ele>166</ele>
        <time>2021-07-24T22:40:58Z</time>
      </trkpt>
      <trkpt lat="43.55761" lon="2.92704">
        <ele>165</ele>
        <time>2021-07-24T22:41:05Z</time>
      </trkpt>
      <trkpt lat="43.5577" lon="2.92752">
        <ele>164</ele>
        <time>2021-07-24T22:41:11Z</time>
      </trkpt>
      <trkpt lat="43.5578" lon="2.92796">
        <ele>163</ele>
        <time>2021-07-24T22:41:17Z</time>
      </trkpt>
      <trkpt lat="43.55794" lon="2.92837">
        <ele>163</ele>
        <time>2021-07-24T22:41:23Z</time>
      </trkpt>
      <trkpt lat="43.55832" lon="2.92917">
        <ele>165</ele>
        <time>2021-07-24T22:41:35Z</time>
      </trkpt>
      <trkpt lat="43.55998" lon="2.9323">
        <ele>165</ele>
        <time>2021-07-24T22:42:25Z</time>
      </trkpt>
      <trkpt lat="43.56028" lon="2.93277">
        <ele>165</ele>
        <time>2021-07-24T22:42:33Z</time>
      </trkpt>
      <trkpt lat="43.56072" lon="2.93329">
        <ele>164</ele>
        <time>2021-07-24T22:42:44Z</time>
      </trkpt>
      <trkpt lat="43.56095" lon="2.9335">
        <ele>165</ele>
        <time>2021-07-24T22:42:48Z</time>
      </trkpt>
      <trkpt lat="43.56108" lon="2.93357">
        <ele>165</ele>
        <time>2021-07-24T22:42:51Z</time>
      </trkpt>
      <trkpt lat="43.56168" lon="2.93409">
        <ele>163</ele>
        <time>2021-07-24T22:43:04Z</time>
      </trkpt>
      <trkpt lat="43.56175" lon="2.93421">
        <ele>163</ele>
        <time>2021-07-24T22:43:06Z</time>
      </trkpt>
      <trkpt lat="43.56209" lon="2.93462">
        <ele>166</ele>
        <time>2021-07-24T22:43:14Z</time>
      </trkpt>
      <trkpt lat="43.56254" lon="2.9354">
        <ele>163</ele>
        <time>2021-07-24T22:43:26Z</time>
      </trkpt>
      <trkpt lat="43.56291" lon="2.93595">
        <ele>162</ele>
        <time>2021-07-24T22:43:36Z</time>
      </trkpt>
      <trkpt lat="43.564" lon="2.93735">
        <ele>160</ele>
        <time>2021-07-24T22:44:03Z</time>
      </trkpt>
      <trkpt lat="43.5642" lon="2.93764">
        <ele>160</ele>
        <time>2021-07-24T22:44:08Z</time>
      </trkpt>
      <trkpt lat="43.56432" lon="2.93786">
        <ele>161</ele>
        <time>2021-07-24T22:44:11Z</time>
      </trkpt>
      <trkpt lat="43.56443" lon="2.93817">
        <ele>163</ele>
        <time>2021-07-24T22:44:16Z</time>
      </trkpt>
      <trkpt lat="43.56452" lon="2.9385">
        <ele>166</ele>
        <time>2021-07-24T22:44:20Z</time>
      </trkpt>
      <trkpt lat="43.56466" lon="2.93906">
        <ele>169</ele>
        <time>2021-07-24T22:44:28Z</time>
      </trkpt>
      <trkpt lat="43.5647" lon="2.93937">
        <ele>168</ele>
        <time>2021-07-24T22:44:32Z</time>
      </trkpt>
      <trkpt lat="43.56472" lon="2.93962">
        <ele>166</ele>
        <time>2021-07-24T22:44:35Z</time>
      </trkpt>
      <trkpt lat="43.56472" lon="2.93981">
        <ele>165</ele>
        <time>2021-07-24T22:44:38Z</time>
      </trkpt>
      <trkpt lat="43.56465" lon="2.94033">
        <ele>162</ele>
        <time>2021-07-24T22:44:45Z</time>
      </trkpt>
      <trkpt lat="43.56459" lon="2.94067">
        <ele>161</ele>
        <time>2021-07-24T22:44:49Z</time>
      </trkpt>
      <trkpt lat="43.56449" lon="2.94097">
        <ele>161</ele>
        <time>2021-07-24T22:44:53Z</time>
      </trkpt>
      <trkpt lat="43.56433" lon="2.94144">
        <ele>163</ele>
        <time>2021-07-24T22:45:00Z</time>
      </trkpt>
      <trkpt lat="43.56422" lon="2.94166">
        <ele>163</ele>
        <time>2021-07-24T22:45:03Z</time>
      </trkpt>
      <trkpt lat="43.56415" lon="2.94197">
        <ele>165</ele>
        <time>2021-07-24T22:45:08Z</time>
      </trkpt>
      <trkpt lat="43.56412" lon="2.94219">
        <ele>166</ele>
        <time>2021-07-24T22:45:11Z</time>
      </trkpt>
      <trkpt lat="43.5641" lon="2.94237">
        <ele>167</ele>
        <time>2021-07-24T22:45:13Z</time>
      </trkpt>
      <trkpt lat="43.56409" lon="2.94252">
        <ele>167</ele>
        <time>2021-07-24T22:45:15Z</time>
      </trkpt>
      <trkpt lat="43.56413" lon="2.94313">
        <ele>168</ele>
        <time>2021-07-24T22:45:23Z</time>
      </trkpt>
      <trkpt lat="43.56419" lon="2.9438">
        <ele>167</ele>
        <time>2021-07-24T22:45:31Z</time>
      </trkpt>
      <trkpt lat="43.56427" lon="2.94419">
        <ele>167</ele>
        <time>2021-07-24T22:45:37Z</time>
      </trkpt>
      <trkpt lat="43.56438" lon="2.94443">
        <ele>165</ele>
        <time>2021-07-24T22:45:40Z</time>
      </trkpt>
      <trkpt lat="43.56445" lon="2.94455">
        <ele>164</ele>
        <time>2021-07-24T22:45:42Z</time>
      </trkpt>
      <trkpt lat="43.56451" lon="2.94465">
        <ele>163</ele>
        <time>2021-07-24T22:45:44Z</time>
      </trkpt>
      <trkpt lat="43.56471" lon="2.94486">
        <ele>163</ele>
        <time>2021-07-24T22:45:48Z</time>
      </trkpt>
      <trkpt lat="43.5654" lon="2.94532">
        <ele>164</ele>
        <time>2021-07-24T22:46:02Z</time>
      </trkpt>
      <trkpt lat="43.56561" lon="2.94551">
        <ele>164</ele>
        <time>2021-07-24T22:46:07Z</time>
      </trkpt>
      <trkpt lat="43.56583" lon="2.94576">
        <ele>163</ele>
        <time>2021-07-24T22:46:12Z</time>
      </trkpt>
      <trkpt lat="43.56595" lon="2.94595">
        <ele>163</ele>
        <time>2021-07-24T22:46:15Z</time>
      </trkpt>
      <trkpt lat="43.56616" lon="2.94631">
        <ele>165</ele>
        <time>2021-07-24T22:46:21Z</time>
      </trkpt>
      <trkpt lat="43.56644" lon="2.94686">
        <ele>170</ele>
        <time>2021-07-24T22:46:29Z</time>
      </trkpt>
      <trkpt lat="43.5666" lon="2.94723">
        <ele>171</ele>
        <time>2021-07-24T22:46:35Z</time>
      </trkpt>
      <trkpt lat="43.5667" lon="2.94758">
        <ele>170</ele>
        <time>2021-07-24T22:46:40Z</time>
      </trkpt>
      <trkpt lat="43.56676" lon="2.94791">
        <ele>170</ele>
        <time>2021-07-24T22:46:44Z</time>
      </trkpt>
      <trkpt lat="43.5668" lon="2.94829">
        <ele>168</ele>
        <time>2021-07-24T22:46:49Z</time>
      </trkpt>
      <trkpt lat="43.5668" lon="2.94864">
        <ele>168</ele>
        <time>2021-07-24T22:46:54Z</time>
      </trkpt>
      <trkpt lat="43.56677" lon="2.94902">
        <ele>167</ele>
        <time>2021-07-24T22:46:59Z</time>
      </trkpt>
      <trkpt lat="43.5667" lon="2.94942">
        <ele>165</ele>
        <time>2021-07-24T22:47:04Z</time>
      </trkpt>
      <trkpt lat="43.56663" lon="2.94969">
        <ele>163</ele>
        <time>2021-07-24T22:47:08Z</time>
      </trkpt>
      <trkpt lat="43.56653" lon="2.94999">
        <ele>162</ele>
        <time>2021-07-24T22:47:12Z</time>
      </trkpt>
      <trkpt lat="43.56645" lon="2.95018">
        <ele>162</ele>
        <time>2021-07-24T22:47:15Z</time>
      </trkpt>
      <trkpt lat="43.56636" lon="2.95042">
        <ele>163</ele>
        <time>2021-07-24T22:47:18Z</time>
      </trkpt>
      <trkpt lat="43.56629" lon="2.95064">
        <ele>164</ele>
        <time>2021-07-24T22:47:21Z</time>
      </trkpt>
      <trkpt lat="43.56622" lon="2.95091">
        <ele>164</ele>
        <time>2021-07-24T22:47:25Z</time>
      </trkpt>
      <trkpt lat="43.56619" lon="2.95114">
        <ele>164</ele>
        <time>2021-07-24T22:47:28Z</time>
      </trkpt>
      <trkpt lat="43.56619" lon="2.9514">
        <ele>165</ele>
        <time>2021-07-24T22:47:31Z</time>
      </trkpt>
      <trkpt lat="43.5663" lon="2.95216">
        <ele>168</ele>
        <time>2021-07-24T22:47:41Z</time>
      </trkpt>
      <trkpt lat="43.56632" lon="2.95242">
        <ele>168</ele>
        <time>2021-07-24T22:47:45Z</time>
      </trkpt>
      <trkpt lat="43.56632" lon="2.95268">
        <ele>168</ele>
        <time>2021-07-24T22:47:48Z</time>
      </trkpt>
      <trkpt lat="43.56629" lon="2.95298">
        <ele>168</ele>
        <time>2021-07-24T22:47:52Z</time>
      </trkpt>
      <trkpt lat="43.5662" lon="2.9535">
        <ele>167</ele>
        <time>2021-07-24T22:47:59Z</time>
      </trkpt>
      <trkpt lat="43.56608" lon="2.95412">
        <ele>166</ele>
        <time>2021-07-24T22:48:07Z</time>
      </trkpt>
      <trkpt lat="43.56615" lon="2.95417">
        <ele>168</ele>
        <time>2021-07-24T22:48:09Z</time>
      </trkpt>
      <trkpt lat="43.56618" lon="2.95432">
        <ele>169</ele>
        <time>2021-07-24T22:48:11Z</time>
      </trkpt>
      <trkpt lat="43.56614" lon="2.95462">
        <ele>168</ele>
        <time>2021-07-24T22:48:15Z</time>
      </trkpt>
      <trkpt lat="43.56613" lon="2.95484">
        <ele>168</ele>
        <time>2021-07-24T22:48:17Z</time>
      </trkpt>
      <trkpt lat="43.56615" lon="2.95497">
        <ele>168</ele>
        <time>2021-07-24T22:48:19Z</time>
      </trkpt>
      <trkpt lat="43.56623" lon="2.95514">
        <ele>170</ele>
        <time>2021-07-24T22:48:22Z</time>
      </trkpt>
      <trkpt lat="43.56636" lon="2.95532">
        <ele>173</ele>
        <time>2021-07-24T22:48:25Z</time>
      </trkpt>
      <trkpt lat="43.56639" lon="2.95544">
        <ele>174</ele>
        <time>2021-07-24T22:48:27Z</time>
      </trkpt>
      <trkpt lat="43.5664" lon="2.95563">
        <ele>174</ele>
        <time>2021-07-24T22:48:29Z</time>
      </trkpt>
      <trkpt lat="43.5664" lon="2.95603">
        <ele>175</ele>
        <time>2021-07-24T22:48:34Z</time>
      </trkpt>
      <trkpt lat="43.56626" lon="2.95653">
        <ele>174</ele>
        <time>2021-07-24T22:48:41Z</time>
      </trkpt>
      <trkpt lat="43.56624" lon="2.9567">
        <ele>174</ele>
        <time>2021-07-24T22:48:43Z</time>
      </trkpt>
      <trkpt lat="43.56632" lon="2.95754">
        <ele>176</ele>
        <time>2021-07-24T22:48:54Z</time>
      </trkpt>
      <trkpt lat="43.5665" lon="2.95824">
        <ele>180</ele>
        <time>2021-07-24T22:49:04Z</time>
      </trkpt>
      <trkpt lat="43.56662" lon="2.9596">
        <ele>185</ele>
        <time>2021-07-24T22:49:22Z</time>
      </trkpt>
      <trkpt lat="43.56633" lon="2.95963">
        <ele>184</ele>
        <time>2021-07-24T22:49:27Z</time>
      </trkpt>
      <trkpt lat="43.56632" lon="2.95967">
        <ele>184</ele>
        <time>2021-07-24T22:49:27Z</time>
      </trkpt>
      <trkpt lat="43.56639" lon="2.96105">
        <ele>185</ele>
        <time>2021-07-24T22:49:45Z</time>
      </trkpt>
      <trkpt lat="43.56637" lon="2.96112">
        <ele>185</ele>
        <time>2021-07-24T22:49:46Z</time>
      </trkpt>
      <trkpt lat="43.56635" lon="2.96115">
        <ele>185</ele>
        <time>2021-07-24T22:49:47Z</time>
      </trkpt>
      <trkpt lat="43.5663" lon="2.96115">
        <ele>185</ele>
        <time>2021-07-24T22:49:47Z</time>
      </trkpt>
      <trkpt lat="43.56655" lon="2.96416">
        <ele>174</ele>
        <time>2021-07-24T22:50:27Z</time>
      </trkpt>
      <trkpt lat="43.56675" lon="2.96554">
        <ele>170</ele>
        <time>2021-07-24T22:50:45Z</time>
      </trkpt>
      <trkpt lat="43.56677" lon="2.96586">
        <ele>170</ele>
        <time>2021-07-24T22:50:49Z</time>
      </trkpt>
      <trkpt lat="43.56673" lon="2.96619">
        <ele>170</ele>
        <time>2021-07-24T22:50:53Z</time>
      </trkpt>
      <trkpt lat="43.56661" lon="2.96661">
        <ele>171</ele>
        <time>2021-07-24T22:50:59Z</time>
      </trkpt>
      <trkpt lat="43.56638" lon="2.96721">
        <ele>172</ele>
        <time>2021-07-24T22:51:08Z</time>
      </trkpt>
      <trkpt lat="43.56601" lon="2.96827">
        <ele>170</ele>
        <time>2021-07-24T22:51:23Z</time>
      </trkpt>
      <trkpt lat="43.56591" lon="2.96865">
        <ele>169</ele>
        <time>2021-07-24T22:51:28Z</time>
      </trkpt>
      <trkpt lat="43.56579" lon="2.96936">
        <ele>169</ele>
        <time>2021-07-24T22:51:37Z</time>
      </trkpt>
      <trkpt lat="43.56577" lon="2.96966">
        <ele>170</ele>
        <time>2021-07-24T22:51:41Z</time>
      </trkpt>
      <trkpt lat="43.56578" lon="2.97077">
        <ele>167</ele>
        <time>2021-07-24T22:51:56Z</time>
      </trkpt>
      <trkpt lat="43.56576" lon="2.97105">
        <ele>166</ele>
        <time>2021-07-24T22:51:59Z</time>
      </trkpt>
      <trkpt lat="43.56553" lon="2.97229">
        <ele>155</ele>
        <time>2021-07-24T22:52:16Z</time>
      </trkpt>
      <trkpt lat="43.56547" lon="2.9729">
        <ele>152</ele>
        <time>2021-07-24T22:52:24Z</time>
      </trkpt>
      <trkpt lat="43.5655" lon="2.9733">
        <ele>152</ele>
        <time>2021-07-24T22:52:29Z</time>
      </trkpt>
      <trkpt lat="43.56555" lon="2.97355">
        <ele>152</ele>
        <time>2021-07-24T22:52:32Z</time>
      </trkpt>
      <trkpt lat="43.56563" lon="2.97377">
        <ele>152</ele>
        <time>2021-07-24T22:52:35Z</time>
      </trkpt>
      <trkpt lat="43.56577" lon="2.97398">
        <ele>153</ele>
        <time>2021-07-24T22:52:39Z</time>
      </trkpt>
      <trkpt lat="43.56598" lon="2.97418">
        <ele>153</ele>
        <time>2021-07-24T22:52:44Z</time>
      </trkpt>
      <trkpt lat="43.5661" lon="2.97426">
        <ele>152</ele>
        <time>2021-07-24T22:52:46Z</time>
      </trkpt>
      <trkpt lat="43.56632" lon="2.97433">
        <ele>151</ele>
        <time>2021-07-24T22:52:50Z</time>
      </trkpt>
      <trkpt lat="43.5665" lon="2.97432">
        <ele>151</ele>
        <time>2021-07-24T22:52:53Z</time>
      </trkpt>
      <trkpt lat="43.56678" lon="2.9743">
        <ele>151</ele>
        <time>2021-07-24T22:52:58Z</time>
      </trkpt>
      <trkpt lat="43.56694" lon="2.97429">
        <ele>150</ele>
        <time>2021-07-24T22:53:01Z</time>
      </trkpt>
      <trkpt lat="43.56712" lon="2.97434">
        <ele>149</ele>
        <time>2021-07-24T22:53:04Z</time>
      </trkpt>
      <trkpt lat="43.56732" lon="2.97443">
        <ele>148</ele>
        <time>2021-07-24T22:53:08Z</time>
      </trkpt>
      <trkpt lat="43.56753" lon="2.97465">
        <ele>147</ele>
        <time>2021-07-24T22:53:13Z</time>
      </trkpt>
      <trkpt lat="43.56761" lon="2.97477">
        <ele>148</ele>
        <time>2021-07-24T22:53:15Z</time>
      </trkpt>
      <trkpt lat="43.56781" lon="2.97512">
        <ele>152</ele>
        <time>2021-07-24T22:53:21Z</time>
      </trkpt>
      <trkpt lat="43.56799" lon="2.97547">
        <ele>155</ele>
        <time>2021-07-24T22:53:26Z</time>
      </trkpt>
      <trkpt lat="43.56812" lon="2.97563">
        <ele>157</ele>
        <time>2021-07-24T22:53:29Z</time>
      </trkpt>
      <trkpt lat="43.56827" lon="2.97583">
        <ele>159</ele>
        <time>2021-07-24T22:53:33Z</time>
      </trkpt>
      <trkpt lat="43.56854" lon="2.97616">
        <ele>161</ele>
        <time>2021-07-24T22:53:39Z</time>
      </trkpt>
      <trkpt lat="43.56864" lon="2.97639">
        <ele>160</ele>
        <time>2021-07-24T22:53:43Z</time>
      </trkpt>
      <trkpt lat="43.56874" lon="2.97666">
        <ele>159</ele>
        <time>2021-07-24T22:53:47Z</time>
      </trkpt>
      <trkpt lat="43.56899" lon="2.97724">
        <ele>162</ele>
        <time>2021-07-24T22:53:55Z</time>
      </trkpt>
      <trkpt lat="43.56906" lon="2.97744">
        <ele>162</ele>
        <time>2021-07-24T22:53:58Z</time>
      </trkpt>
      <trkpt lat="43.56912" lon="2.97753">
        <ele>163</ele>
        <time>2021-07-24T22:54:00Z</time>
      </trkpt>
      <trkpt lat="43.5692" lon="2.97759">
        <ele>165</ele>
        <time>2021-07-24T22:54:02Z</time>
      </trkpt>
      <trkpt lat="43.5693" lon="2.97765">
        <ele>166</ele>
        <time>2021-07-24T22:54:03Z</time>
      </trkpt>
      <trkpt lat="43.56951" lon="2.97769">
        <ele>169</ele>
        <time>2021-07-24T22:54:07Z</time>
      </trkpt>
      <trkpt lat="43.56975" lon="2.97768">
        <ele>173</ele>
        <time>2021-07-24T22:54:11Z</time>
      </trkpt>
      <trkpt lat="43.56998" lon="2.97785">
        <ele>175</ele>
        <time>2021-07-24T22:54:16Z</time>
      </trkpt>
      <trkpt lat="43.57013" lon="2.97801">
        <ele>177</ele>
        <time>2021-07-24T22:54:20Z</time>
      </trkpt>
      <trkpt lat="43.57025" lon="2.97818">
        <ele>178</ele>
        <time>2021-07-24T22:54:23Z</time>
      </trkpt>
      <trkpt lat="43.57031" lon="2.97833">
        <ele>177</ele>
        <time>2021-07-24T22:54:25Z</time>
      </trkpt>
      <trkpt lat="43.57034" lon="2.9785">
        <ele>179</ele>
        <time>2021-07-24T22:54:27Z</time>
      </trkpt>
      <trkpt lat="43.57033" lon="2.97871">
        <ele>180</ele>
        <time>2021-07-24T22:54:30Z</time>
      </trkpt>
      <trkpt lat="43.57028" lon="2.97888">
        <ele>180</ele>
        <time>2021-07-24T22:54:32Z</time>
      </trkpt>
      <trkpt lat="43.57023" lon="2.979">
        <ele>180</ele>
        <time>2021-07-24T22:54:34Z</time>
      </trkpt>
      <trkpt lat="43.56998" lon="2.97929">
        <ele>180</ele>
        <time>2021-07-24T22:54:40Z</time>
      </trkpt>
      <trkpt lat="43.56988" lon="2.97947">
        <ele>179</ele>
        <time>2021-07-24T22:54:43Z</time>
      </trkpt>
      <trkpt lat="43.56982" lon="2.97968">
        <ele>180</ele>
        <time>2021-07-24T22:54:46Z</time>
      </trkpt>
      <trkpt lat="43.56963" lon="2.98128">
        <ele>184</ele>
        <time>2021-07-24T22:55:06Z</time>
      </trkpt>
      <trkpt lat="43.56962" lon="2.98146">
        <ele>185</ele>
        <time>2021-07-24T22:55:09Z</time>
      </trkpt>
      <trkpt lat="43.56968" lon="2.98193">
        <ele>188</ele>
        <time>2021-07-24T22:55:15Z</time>
      </trkpt>
      <trkpt lat="43.56968" lon="2.98208">
        <ele>188</ele>
        <time>2021-07-24T22:55:17Z</time>
      </trkpt>
      <trkpt lat="43.56965" lon="2.98224">
        <ele>188</ele>
        <time>2021-07-24T22:55:19Z</time>
      </trkpt>
      <trkpt lat="43.56953" lon="2.98279">
        <ele>189</ele>
        <time>2021-07-24T22:55:26Z</time>
      </trkpt>
      <trkpt lat="43.56952" lon="2.98287">
        <ele>190</ele>
        <time>2021-07-24T22:55:27Z</time>
      </trkpt>
      <trkpt lat="43.56946" lon="2.98309">
        <ele>190</ele>
        <time>2021-07-24T22:55:30Z</time>
      </trkpt>
      <trkpt lat="43.56939" lon="2.98324">
        <ele>190</ele>
        <time>2021-07-24T22:55:33Z</time>
      </trkpt>
      <trkpt lat="43.56929" lon="2.98341">
        <ele>190</ele>
        <time>2021-07-24T22:55:36Z</time>
      </trkpt>
      <trkpt lat="43.56922" lon="2.98352">
        <ele>191</ele>
        <time>2021-07-24T22:55:37Z</time>
      </trkpt>
      <trkpt lat="43.56914" lon="2.98363">
        <ele>191</ele>
        <time>2021-07-24T22:55:39Z</time>
      </trkpt>
      <trkpt lat="43.56903" lon="2.98378">
        <ele>191</ele>
        <time>2021-07-24T22:55:42Z</time>
      </trkpt>
      <trkpt lat="43.56888" lon="2.98395">
        <ele>192</ele>
        <time>2021-07-24T22:55:46Z</time>
      </trkpt>
      <trkpt lat="43.56865" lon="2.98417">
        <ele>191</ele>
        <time>2021-07-24T22:55:51Z</time>
      </trkpt>
      <trkpt lat="43.56847" lon="2.98434">
        <ele>192</ele>
        <time>2021-07-24T22:55:55Z</time>
      </trkpt>
      <trkpt lat="43.56821" lon="2.98464">
        <ele>193</ele>
        <time>2021-07-24T22:56:01Z</time>
      </trkpt>
      <trkpt lat="43.56807" lon="2.98484">
        <ele>194</ele>
        <time>2021-07-24T22:56:04Z</time>
      </trkpt>
      <trkpt lat="43.56799" lon="2.98504">
        <ele>196</ele>
        <time>2021-07-24T22:56:07Z</time>
      </trkpt>
      <trkpt lat="43.56794" lon="2.98517">
        <ele>197</ele>
        <time>2021-07-24T22:56:09Z</time>
      </trkpt>
      <trkpt lat="43.56791" lon="2.9854">
        <ele>198</ele>
        <time>2021-07-24T22:56:12Z</time>
      </trkpt>
      <trkpt lat="43.56792" lon="2.98561">
        <ele>200</ele>
        <time>2021-07-24T22:56:15Z</time>
      </trkpt>
      <trkpt lat="43.56797" lon="2.98585">
        <ele>202</ele>
        <time>2021-07-24T22:56:18Z</time>
      </trkpt>
      <trkpt lat="43.56806" lon="2.98606">
        <ele>199</ele>
        <time>2021-07-24T22:56:21Z</time>
      </trkpt>
      <trkpt lat="43.5682" lon="2.98622">
        <ele>198</ele>
        <time>2021-07-24T22:56:24Z</time>
      </trkpt>
      <trkpt lat="43.56835" lon="2.98634">
        <ele>198</ele>
        <time>2021-07-24T22:56:27Z</time>
      </trkpt>
      <trkpt lat="43.56875" lon="2.98658">
        <ele>201</ele>
        <time>2021-07-24T22:56:35Z</time>
      </trkpt>
      <trkpt lat="43.5692" lon="2.98681">
        <ele>202</ele>
        <time>2021-07-24T22:56:44Z</time>
      </trkpt>
      <trkpt lat="43.56963" lon="2.98707">
        <ele>200</ele>
        <time>2021-07-24T22:56:52Z</time>
      </trkpt>
      <trkpt lat="43.57065" lon="2.98785">
        <ele>200</ele>
        <time>2021-07-24T22:57:13Z</time>
      </trkpt>
      <trkpt lat="43.57097" lon="2.98814">
        <ele>200</ele>
        <time>2021-07-24T22:57:20Z</time>
      </trkpt>
      <trkpt lat="43.57113" lon="2.98833">
        <ele>200</ele>
        <time>2021-07-24T22:57:23Z</time>
      </trkpt>
      <trkpt lat="43.57128" lon="2.98856">
        <ele>200</ele>
        <time>2021-07-24T22:57:27Z</time>
      </trkpt>
      <trkpt lat="43.57143" lon="2.98888">
        <ele>197</ele>
        <time>2021-07-24T22:57:32Z</time>
      </trkpt>
      <trkpt lat="43.57154" lon="2.98917">
        <ele>193</ele>
        <time>2021-07-24T22:57:37Z</time>
      </trkpt>
      <trkpt lat="43.57159" lon="2.9894">
        <ele>193</ele>
        <time>2021-07-24T22:57:40Z</time>
      </trkpt>
      <trkpt lat="43.5717" lon="2.98991">
        <ele>194</ele>
        <time>2021-07-24T22:57:46Z</time>
      </trkpt>
      <trkpt lat="43.5719" lon="2.99092">
        <ele>190</ele>
        <time>2021-07-24T22:58:00Z</time>
      </trkpt>
      <trkpt lat="43.57197" lon="2.99122">
        <ele>187</ele>
        <time>2021-07-24T22:58:04Z</time>
      </trkpt>
      <trkpt lat="43.57204" lon="2.9915">
        <ele>184</ele>
        <time>2021-07-24T22:58:08Z</time>
      </trkpt>
      <trkpt lat="43.57213" lon="2.99179">
        <ele>182</ele>
        <time>2021-07-24T22:58:12Z</time>
      </trkpt>
      <trkpt lat="43.57234" lon="2.99249">
        <ele>178</ele>
        <time>2021-07-24T22:58:22Z</time>
      </trkpt>
      <trkpt lat="43.57263" lon="2.99332">
        <ele>180</ele>
        <time>2021-07-24T22:58:34Z</time>
      </trkpt>
      <trkpt lat="43.57307" lon="2.99449">
        <ele>176</ele>
        <time>2021-07-24T22:58:51Z</time>
      </trkpt>
      <trkpt lat="43.57345" lon="2.99533">
        <ele>175</ele>
        <time>2021-07-24T22:59:03Z</time>
      </trkpt>
      <trkpt lat="43.57378" lon="2.996">
        <ele>177</ele>
        <time>2021-07-24T22:59:14Z</time>
      </trkpt>
      <trkpt lat="43.57432" lon="2.99697">
        <ele>177</ele>
        <time>2021-07-24T22:59:30Z</time>
      </trkpt>
      <trkpt lat="43.57452" lon="2.99728">
        <ele>174</ele>
        <time>2021-07-24T22:59:35Z</time>
      </trkpt>
      <trkpt lat="43.57468" lon="2.99751">
        <ele>172</ele>
        <time>2021-07-24T22:59:39Z</time>
      </trkpt>
      <trkpt lat="43.57554" lon="2.99874">
        <ele>169</ele>
        <time>2021-07-24T23:00:01Z</time>
      </trkpt>
      <trkpt lat="43.57589" lon="2.99932">
        <ele>176</ele>
        <time>2021-07-24T23:00:11Z</time>
      </trkpt>
      <trkpt lat="43.57594" lon="2.99943">
        <ele>177</ele>
        <time>2021-07-24T23:00:12Z</time>
      </trkpt>
      <trkpt lat="43.57604" lon="2.99929">
        <ele>178</ele>
        <time>2021-07-24T23:00:15Z</time>
      </trkpt>
      <trkpt lat="43.57616" lon="2.99937">
        <ele>180</ele>
        <time>2021-07-24T23:00:17Z</time>
      </trkpt>
      <trkpt lat="43.57686" lon="2.99991">
        <ele>190</ele>
        <time>2021-07-24T23:00:32Z</time>
      </trkpt>
      <trkpt lat="43.5773" lon="3.00016">
        <ele>197</ele>
        <time>2021-07-24T23:00:40Z</time>
      </trkpt>
      <trkpt lat="43.57742" lon="3.00027">
        <ele>198</ele>
        <time>2021-07-24T23:00:43Z</time>
      </trkpt>
      <trkpt lat="43.57763" lon="3.0004">
        <ele>202</ele>
        <time>2021-07-24T23:00:47Z</time>
      </trkpt>
      <trkpt lat="43.57775" lon="3.00057">
        <ele>204</ele>
        <time>2021-07-24T23:00:50Z</time>
      </trkpt>
      <trkpt lat="43.57789" lon="3.0007">
        <ele>207</ele>
        <time>2021-07-24T23:00:53Z</time>
      </trkpt>
      <trkpt lat="43.57819" lon="3.00087">
        <ele>213</ele>
        <time>2021-07-24T23:00:59Z</time>
      </trkpt>
      <trkpt lat="43.57825" lon="3.00095">
        <ele>214</ele>
        <time>2021-07-24T23:01:00Z</time>
      </trkpt>
      <trkpt lat="43.57827" lon="3.00104">
        <ele>215</ele>
        <time>2021-07-24T23:01:01Z</time>
      </trkpt>
      <trkpt lat="43.57829" lon="3.00255">
        <ele>219</ele>
        <time>2021-07-24T23:01:21Z</time>
      </trkpt>
      <trkpt lat="43.57833" lon="3.00285">
        <ele>220</ele>
        <time>2021-07-24T23:01:25Z</time>
      </trkpt>
      <trkpt lat="43.57829" lon="3.00341">
        <ele>220</ele>
        <time>2021-07-24T23:01:32Z</time>
      </trkpt>
      <trkpt lat="43.5783" lon="3.00358">
        <ele>220</ele>
        <time>2021-07-24T23:01:34Z</time>
      </trkpt>
      <trkpt lat="43.57835" lon="3.00384">
        <ele>221</ele>
        <time>2021-07-24T23:01:38Z</time>
      </trkpt>
      <trkpt lat="43.57839" lon="3.004">
        <ele>222</ele>
        <time>2021-07-24T23:01:40Z</time>
      </trkpt>
      <trkpt lat="43.57861" lon="3.00445">
        <ele>227</ele>
        <time>2021-07-24T23:01:47Z</time>
      </trkpt>
      <trkpt lat="43.57867" lon="3.00463">
        <ele>229</ele>
        <time>2021-07-24T23:01:49Z</time>
      </trkpt>
      <trkpt lat="43.57869" lon="3.00481">
        <ele>229</ele>
        <time>2021-07-24T23:01:52Z</time>
      </trkpt>
      <trkpt lat="43.57869" lon="3.00495">
        <ele>229</ele>
        <time>2021-07-24T23:01:53Z</time>
      </trkpt>
      <trkpt lat="43.57864" lon="3.00538">
        <ele>226</ele>
        <time>2021-07-24T23:01:59Z</time>
      </trkpt>
      <trkpt lat="43.57865" lon="3.00556">
        <ele>225</ele>
        <time>2021-07-24T23:02:01Z</time>
      </trkpt>
      <trkpt lat="43.57874" lon="3.00602">
        <ele>226</ele>
        <time>2021-07-24T23:02:08Z</time>
      </trkpt>
      <trkpt lat="43.57873" lon="3.00613">
        <ele>225</ele>
        <time>2021-07-24T23:02:09Z</time>
      </trkpt>
      <trkpt lat="43.57869" lon="3.00628">
        <ele>223</ele>
        <time>2021-07-24T23:02:11Z</time>
      </trkpt>
      <trkpt lat="43.57869" lon="3.00639">
        <ele>223</ele>
        <time>2021-07-24T23:02:12Z</time>
      </trkpt>
      <trkpt lat="43.57878" lon="3.00664">
        <ele>224</ele>
        <time>2021-07-24T23:02:16Z</time>
      </trkpt>
      <trkpt lat="43.57881" lon="3.00667">
        <ele>225</ele>
        <time>2021-07-24T23:02:17Z</time>
      </trkpt>
      <trkpt lat="43.57886" lon="3.00702">
        <ele>223</ele>
        <time>2021-07-24T23:02:21Z</time>
      </trkpt>
      <trkpt lat="43.57904" lon="3.00743">
        <ele>224</ele>
        <time>2021-07-24T23:02:27Z</time>
      </trkpt>
      <trkpt lat="43.57922" lon="3.00809">
        <ele>221</ele>
        <time>2021-07-24T23:02:37Z</time>
      </trkpt>
      <trkpt lat="43.57961" lon="3.00926">
        <ele>220</ele>
        <time>2021-07-24T23:02:53Z</time>
      </trkpt>
      <trkpt lat="43.57973" lon="3.00946">
        <ele>222</ele>
        <time>2021-07-24T23:02:57Z</time>
      </trkpt>
      <trkpt lat="43.57983" lon="3.00973">
        <ele>222</ele>
        <time>2021-07-24T23:03:00Z</time>
      </trkpt>
      <trkpt lat="43.57988" lon="3.00991">
        <ele>221</ele>
        <time>2021-07-24T23:03:03Z</time>
      </trkpt>
      <trkpt lat="43.57988" lon="3.01013">
        <ele>218</ele>
        <time>2021-07-24T23:03:06Z</time>
      </trkpt>
      <trkpt lat="43.57989" lon="3.01024">
        <ele>217</ele>
        <time>2021-07-24T23:03:07Z</time>
      </trkpt>
      <trkpt lat="43.58006" lon="3.01079">
        <ele>214</ele>
        <time>2021-07-24T23:03:15Z</time>
      </trkpt>
      <trkpt lat="43.58013" lon="3.01086">
        <ele>215</ele>
        <time>2021-07-24T23:03:16Z</time>
      </trkpt>
      <trkpt lat="43.58037" lon="3.01112">
        <ele>219</ele>
        <time>2021-07-24T23:03:22Z</time>
      </trkpt>
      <trkpt lat="43.5806" lon="3.01162">
        <ele>218</ele>
        <time>2021-07-24T23:03:29Z</time>
      </trkpt>
      <trkpt lat="43.58067" lon="3.01176">
        <ele>218</ele>
        <time>2021-07-24T23:03:32Z</time>
      </trkpt>
      <trkpt lat="43.58075" lon="3.01188">
        <ele>219</ele>
        <time>2021-07-24T23:03:34Z</time>
      </trkpt>
      <trkpt lat="43.58079" lon="3.01201">
        <ele>219</ele>
        <time>2021-07-24T23:03:36Z</time>
      </trkpt>
      <trkpt lat="43.5809" lon="3.01242">
        <ele>219</ele>
        <time>2021-07-24T23:03:41Z</time>
      </trkpt>
      <trkpt lat="43.58093" lon="3.01263">
        <ele>221</ele>
        <time>2021-07-24T23:03:44Z</time>
      </trkpt>
      <trkpt lat="43.58093" lon="3.01284">
        <ele>222</ele>
        <time>2021-07-24T23:03:47Z</time>
      </trkpt>
      <trkpt lat="43.5809" lon="3.01301">
        <ele>223</ele>
        <time>2021-07-24T23:03:49Z</time>
      </trkpt>
      <trkpt lat="43.58065" lon="3.01349">
        <ele>222</ele>
        <time>2021-07-24T23:03:57Z</time>
      </trkpt>
      <trkpt lat="43.58039" lon="3.01382">
        <ele>221</ele>
        <time>2021-07-24T23:04:03Z</time>
      </trkpt>
      <trkpt lat="43.58033" lon="3.014">
        <ele>221</ele>
        <time>2021-07-24T23:04:05Z</time>
      </trkpt>
      <trkpt lat="43.5802" lon="3.0146">
        <ele>223</ele>
        <time>2021-07-24T23:04:13Z</time>
      </trkpt>
      <trkpt lat="43.58015" lon="3.01472">
        <ele>223</ele>
        <time>2021-07-24T23:04:15Z</time>
      </trkpt>
      <trkpt lat="43.57987" lon="3.01513">
        <ele>222</ele>
        <time>2021-07-24T23:04:23Z</time>
      </trkpt>
      <trkpt lat="43.57922" lon="3.01598">
        <ele>220</ele>
        <time>2021-07-24T23:04:38Z</time>
      </trkpt>
      <trkpt lat="43.57913" lon="3.01617">
        <ele>220</ele>
        <time>2021-07-24T23:04:41Z</time>
      </trkpt>
      <trkpt lat="43.57906" lon="3.01636">
        <ele>221</ele>
        <time>2021-07-24T23:04:44Z</time>
      </trkpt>
      <trkpt lat="43.57904" lon="3.01658">
        <ele>222</ele>
        <time>2021-07-24T23:04:47Z</time>
      </trkpt>
      <trkpt lat="43.57872" lon="3.02075">
        <ele>215</ele>
        <time>2021-07-24T23:05:41Z</time>
      </trkpt>
      <trkpt lat="43.5787" lon="3.02109">
        <ele>216</ele>
        <time>2021-07-24T23:05:45Z</time>
      </trkpt>
      <trkpt lat="43.5787" lon="3.02134">
        <ele>216</ele>
        <time>2021-07-24T23:05:49Z</time>
      </trkpt>
      <trkpt lat="43.57873" lon="3.02159">
        <ele>217</ele>
        <time>2021-07-24T23:05:52Z</time>
      </trkpt>
      <trkpt lat="43.57879" lon="3.02186">
        <ele>216</ele>
        <time>2021-07-24T23:05:56Z</time>
      </trkpt>
      <trkpt lat="43.57888" lon="3.02213">
        <ele>214</ele>
        <time>2021-07-24T23:05:59Z</time>
      </trkpt>
      <trkpt lat="43.57898" lon="3.02233">
        <ele>213</ele>
        <time>2021-07-24T23:06:03Z</time>
      </trkpt>
      <trkpt lat="43.57909" lon="3.02249">
        <ele>213</ele>
        <time>2021-07-24T23:06:05Z</time>
      </trkpt>
      <trkpt lat="43.57933" lon="3.02275">
        <ele>213</ele>
        <time>2021-07-24T23:06:11Z</time>
      </trkpt>
      <trkpt lat="43.57967" lon="3.02302">
        <ele>213</ele>
        <time>2021-07-24T23:06:18Z</time>
      </trkpt>
      <trkpt lat="43.57979" lon="3.02316">
        <ele>213</ele>
        <time>2021-07-24T23:06:21Z</time>
      </trkpt>
      <trkpt lat="43.57986" lon="3.02329">
        <ele>212</ele>
        <time>2021-07-24T23:06:23Z</time>
      </trkpt>
      <trkpt lat="43.57991" lon="3.02353">
        <ele>213</ele>
        <time>2021-07-24T23:06:26Z</time>
      </trkpt>
      <trkpt lat="43.57989" lon="3.0238">
        <ele>215</ele>
        <time>2021-07-24T23:06:29Z</time>
      </trkpt>
      <trkpt lat="43.57982" lon="3.02396">
        <ele>215</ele>
        <time>2021-07-24T23:06:32Z</time>
      </trkpt>
      <trkpt lat="43.57974" lon="3.02409">
        <ele>216</ele>
        <time>2021-07-24T23:06:34Z</time>
      </trkpt>
      <trkpt lat="43.57963" lon="3.0242">
        <ele>216</ele>
        <time>2021-07-24T23:06:36Z</time>
      </trkpt>
      <trkpt lat="43.57948" lon="3.0243">
        <ele>215</ele>
        <time>2021-07-24T23:06:39Z</time>
      </trkpt>
      <trkpt lat="43.57854" lon="3.02473">
        <ele>212</ele>
        <time>2021-07-24T23:06:57Z</time>
      </trkpt>
      <trkpt lat="43.57838" lon="3.02485">
        <ele>211</ele>
        <time>2021-07-24T23:07:00Z</time>
      </trkpt>
      <trkpt lat="43.57828" lon="3.02499">
        <ele>212</ele>
        <time>2021-07-24T23:07:03Z</time>
      </trkpt>
      <trkpt lat="43.5782" lon="3.02517">
        <ele>212</ele>
        <time>2021-07-24T23:07:05Z</time>
      </trkpt>
      <trkpt lat="43.57814" lon="3.02539">
        <ele>213</ele>
        <time>2021-07-24T23:07:09Z</time>
      </trkpt>
      <trkpt lat="43.57811" lon="3.02564">
        <ele>214</ele>
        <time>2021-07-24T23:07:12Z</time>
      </trkpt>
      <trkpt lat="43.57815" lon="3.02589">
        <ele>214</ele>
        <time>2021-07-24T23:07:15Z</time>
      </trkpt>
      <trkpt lat="43.57824" lon="3.02617">
        <ele>212</ele>
        <time>2021-07-24T23:07:19Z</time>
      </trkpt>
      <trkpt lat="43.57944" lon="3.0289">
        <ele>208</ele>
        <time>2021-07-24T23:08:00Z</time>
      </trkpt>
      <trkpt lat="43.57991" lon="3.03008">
        <ele>202</ele>
        <time>2021-07-24T23:08:18Z</time>
      </trkpt>
      <trkpt lat="43.5802" lon="3.03098">
        <ele>198</ele>
        <time>2021-07-24T23:08:30Z</time>
      </trkpt>
      <trkpt lat="43.5803" lon="3.03141">
        <ele>198</ele>
        <time>2021-07-24T23:08:36Z</time>
      </trkpt>
      <trkpt lat="43.58039" lon="3.03195">
        <ele>197</ele>
        <time>2021-07-24T23:08:43Z</time>
      </trkpt>
      <trkpt lat="43.58045" lon="3.03247">
        <ele>194</ele>
        <time>2021-07-24T23:08:50Z</time>
      </trkpt>
      <trkpt lat="43.58048" lon="3.03306">
        <ele>188</ele>
        <time>2021-07-24T23:08:58Z</time>
      </trkpt>
      <trkpt lat="43.58048" lon="3.03353">
        <ele>184</ele>
        <time>2021-07-24T23:09:04Z</time>
      </trkpt>
      <trkpt lat="43.5804" lon="3.03445">
        <ele>179</ele>
        <time>2021-07-24T23:09:16Z</time>
      </trkpt>
      <trkpt lat="43.58031" lon="3.03504">
        <ele>180</ele>
        <time>2021-07-24T23:09:23Z</time>
      </trkpt>
      <trkpt lat="43.58007" lon="3.03595">
        <ele>181</ele>
        <time>2021-07-24T23:09:36Z</time>
      </trkpt>
      <trkpt lat="43.5791" lon="3.03917">
        <ele>171</ele>
        <time>2021-07-24T23:10:21Z</time>
      </trkpt>
      <trkpt lat="43.57886" lon="3.03994">
        <ele>173</ele>
        <time>2021-07-24T23:10:32Z</time>
      </trkpt>
      <trkpt lat="43.57881" lon="3.04008">
        <ele>174</ele>
        <time>2021-07-24T23:10:34Z</time>
      </trkpt>
      <trkpt lat="43.57877" lon="3.04014">
        <ele>174</ele>
        <time>2021-07-24T23:10:35Z</time>
      </trkpt>
      <trkpt lat="43.57873" lon="3.04022">
        <ele>174</ele>
        <time>2021-07-24T23:10:36Z</time>
      </trkpt>
      <trkpt lat="43.57866" lon="3.04031">
        <ele>175</ele>
        <time>2021-07-24T23:10:38Z</time>
      </trkpt>
      <trkpt lat="43.57857" lon="3.04041">
        <ele>175</ele>
        <time>2021-07-24T23:10:40Z</time>
      </trkpt>
      <trkpt lat="43.57848" lon="3.04054">
        <ele>176</ele>
        <time>2021-07-24T23:10:42Z</time>
      </trkpt>
      <trkpt lat="43.57837" lon="3.04073">
        <ele>176</ele>
        <time>2021-07-24T23:10:45Z</time>
      </trkpt>
      <trkpt lat="43.57831" lon="3.04087">
        <ele>177</ele>
        <time>2021-07-24T23:10:47Z</time>
      </trkpt>
      <trkpt lat="43.57813" lon="3.0415">
        <ele>177</ele>
        <time>2021-07-24T23:10:56Z</time>
      </trkpt>
      <trkpt lat="43.57781" lon="3.04243">
        <ele>177</ele>
        <time>2021-07-24T23:11:09Z</time>
      </trkpt>
      <trkpt lat="43.5776" lon="3.04302">
        <ele>177</ele>
        <time>2021-07-24T23:11:18Z</time>
      </trkpt>
      <trkpt lat="43.57748" lon="3.04337">
        <ele>176</ele>
        <time>2021-07-24T23:11:23Z</time>
      </trkpt>
      <trkpt lat="43.5774" lon="3.0436">
        <ele>176</ele>
        <time>2021-07-24T23:11:26Z</time>
      </trkpt>
      <trkpt lat="43.57716" lon="3.04417">
        <ele>177</ele>
        <time>2021-07-24T23:11:35Z</time>
      </trkpt>
      <trkpt lat="43.57702" lon="3.04447">
        <ele>176</ele>
        <time>2021-07-24T23:11:39Z</time>
      </trkpt>
      <trkpt lat="43.57652" lon="3.04533">
        <ele>173</ele>
        <time>2021-07-24T23:11:53Z</time>
      </trkpt>
      <trkpt lat="43.57531" lon="3.04806">
        <ele>170</ele>
        <time>2021-07-24T23:12:35Z</time>
      </trkpt>
      <trkpt lat="43.57525" lon="3.04835">
        <ele>170</ele>
        <time>2021-07-24T23:12:38Z</time>
      </trkpt>
      <trkpt lat="43.57524" lon="3.04856">
        <ele>170</ele>
        <time>2021-07-24T23:12:41Z</time>
      </trkpt>
      <trkpt lat="43.57525" lon="3.04885">
        <ele>169</ele>
        <time>2021-07-24T23:12:45Z</time>
      </trkpt>
      <trkpt lat="43.57529" lon="3.04907">
        <ele>169</ele>
        <time>2021-07-24T23:12:48Z</time>
      </trkpt>
      <trkpt lat="43.57536" lon="3.04925">
        <ele>170</ele>
        <time>2021-07-24T23:12:50Z</time>
      </trkpt>
      <trkpt lat="43.5755" lon="3.04952">
        <ele>170</ele>
        <time>2021-07-24T23:12:55Z</time>
      </trkpt>
      <trkpt lat="43.57589" lon="3.04995">
        <ele>172</ele>
        <time>2021-07-24T23:13:04Z</time>
      </trkpt>
      <trkpt lat="43.57613" lon="3.0502">
        <ele>172</ele>
        <time>2021-07-24T23:13:09Z</time>
      </trkpt>
      <trkpt lat="43.57626" lon="3.05036">
        <ele>172</ele>
        <time>2021-07-24T23:13:12Z</time>
      </trkpt>
      <trkpt lat="43.57674" lon="3.05087">
        <ele>172</ele>
        <time>2021-07-24T23:13:23Z</time>
      </trkpt>
      <trkpt lat="43.57709" lon="3.0513">
        <ele>173</ele>
        <time>2021-07-24T23:13:31Z</time>
      </trkpt>
      <trkpt lat="43.57724" lon="3.05155">
        <ele>172</ele>
        <time>2021-07-24T23:13:35Z</time>
      </trkpt>
      <trkpt lat="43.57737" lon="3.05184">
        <ele>171</ele>
        <time>2021-07-24T23:13:40Z</time>
      </trkpt>
      <trkpt lat="43.57756" lon="3.05231">
        <ele>171</ele>
        <time>2021-07-24T23:13:47Z</time>
      </trkpt>
      <trkpt lat="43.57764" lon="3.05254">
        <ele>172</ele>
        <time>2021-07-24T23:13:50Z</time>
      </trkpt>
      <trkpt lat="43.57785" lon="3.05322">
        <ele>172</ele>
        <time>2021-07-24T23:14:00Z</time>
      </trkpt>
      <trkpt lat="43.5781" lon="3.05398">
        <ele>173</ele>
        <time>2021-07-24T23:14:10Z</time>
      </trkpt>
      <trkpt lat="43.57832" lon="3.0547">
        <ele>174</ele>
        <time>2021-07-24T23:14:20Z</time>
      </trkpt>
      <trkpt lat="43.5785" lon="3.05532">
        <ele>174</ele>
        <time>2021-07-24T23:14:29Z</time>
      </trkpt>
      <trkpt lat="43.5786" lon="3.05569">
        <ele>175</ele>
        <time>2021-07-24T23:14:34Z</time>
      </trkpt>
      <trkpt lat="43.57863" lon="3.056">
        <ele>174</ele>
        <time>2021-07-24T23:14:38Z</time>
      </trkpt>
      <trkpt lat="43.57864" lon="3.0563">
        <ele>174</ele>
        <time>2021-07-24T23:14:42Z</time>
      </trkpt>
      <trkpt lat="43.57861" lon="3.05694">
        <ele>172</ele>
        <time>2021-07-24T23:14:50Z</time>
      </trkpt>
      <trkpt lat="43.57862" lon="3.05726">
        <ele>171</ele>
        <time>2021-07-24T23:14:54Z</time>
      </trkpt>
      <trkpt lat="43.57865" lon="3.05754">
        <ele>171</ele>
        <time>2021-07-24T23:14:58Z</time>
      </trkpt>
      <trkpt lat="43.5787" lon="3.05827">
        <ele>172</ele>
        <time>2021-07-24T23:15:07Z</time>
      </trkpt>
      <trkpt lat="43.57865" lon="3.05856">
        <ele>173</ele>
        <time>2021-07-24T23:15:11Z</time>
      </trkpt>
      <trkpt lat="43.57861" lon="3.05905">
        <ele>175</ele>
        <time>2021-07-24T23:15:18Z</time>
      </trkpt>
      <trkpt lat="43.57861" lon="3.05919">
        <ele>175</ele>
        <time>2021-07-24T23:15:19Z</time>
      </trkpt>
      <trkpt lat="43.57877" lon="3.06085">
        <ele>177</ele>
        <time>2021-07-24T23:15:41Z</time>
      </trkpt>
      <trkpt lat="43.57904" lon="3.0622">
        <ele>172</ele>
        <time>2021-07-24T23:15:59Z</time>
      </trkpt>
      <trkpt lat="43.57919" lon="3.06273">
        <ele>172</ele>
        <time>2021-07-24T23:16:06Z</time>
      </trkpt>
      <trkpt lat="43.57924" lon="3.06287">
        <ele>172</ele>
        <time>2021-07-24T23:16:08Z</time>
      </trkpt>
      <trkpt lat="43.57947" lon="3.06328">
        <ele>173</ele>
        <time>2021-07-24T23:16:15Z</time>
      </trkpt>
      <trkpt lat="43.57973" lon="3.06363">
        <ele>174</ele>
        <time>2021-07-24T23:16:22Z</time>
      </trkpt>
      <trkpt lat="43.58164" lon="3.066">
        <ele>179</ele>
        <time>2021-07-24T23:17:07Z</time>
      </trkpt>
      <trkpt lat="43.5836" lon="3.06849">
        <ele>180</ele>
        <time>2021-07-24T23:17:55Z</time>
      </trkpt>
      <trkpt lat="43.58368" lon="3.06861">
        <ele>180</ele>
        <time>2021-07-24T23:17:57Z</time>
      </trkpt>
      <trkpt lat="43.58383" lon="3.0688">
        <ele>180</ele>
        <time>2021-07-24T23:18:00Z</time>
      </trkpt>
      <trkpt lat="43.58383" lon="3.06889">
        <ele>180</ele>
        <time>2021-07-24T23:18:02Z</time>
      </trkpt>
      <trkpt lat="43.58386" lon="3.06894">
        <ele>180</ele>
        <time>2021-07-24T23:18:02Z</time>
      </trkpt>
      <trkpt lat="43.58389" lon="3.06897">
        <ele>180</ele>
        <time>2021-07-24T23:18:03Z</time>
      </trkpt>
      <trkpt lat="43.58395" lon="3.06897">
        <ele>180</ele>
        <time>2021-07-24T23:18:04Z</time>
      </trkpt>
      <trkpt lat="43.58403" lon="3.06906">
        <ele>181</ele>
        <time>2021-07-24T23:18:06Z</time>
      </trkpt>
      <trkpt lat="43.58445" lon="3.06952">
        <ele>182</ele>
        <time>2021-07-24T23:18:16Z</time>
      </trkpt>
      <trkpt lat="43.58473" lon="3.06988">
        <ele>183</ele>
        <time>2021-07-24T23:18:22Z</time>
      </trkpt>
      <trkpt lat="43.58507" lon="3.07037">
        <ele>186</ele>
        <time>2021-07-24T23:18:31Z</time>
      </trkpt>
      <trkpt lat="43.5854" lon="3.07092">
        <ele>187</ele>
        <time>2021-07-24T23:18:40Z</time>
      </trkpt>
      <trkpt lat="43.58565" lon="3.07136">
        <ele>184</ele>
        <time>2021-07-24T23:18:47Z</time>
      </trkpt>
      <trkpt lat="43.58612" lon="3.07239">
        <ele>183</ele>
        <time>2021-07-24T23:19:03Z</time>
      </trkpt>
      <trkpt lat="43.58632" lon="3.07289">
        <ele>182</ele>
        <time>2021-07-24T23:19:11Z</time>
      </trkpt>
      <trkpt lat="43.58651" lon="3.07343">
        <ele>180</ele>
        <time>2021-07-24T23:19:18Z</time>
      </trkpt>
      <trkpt lat="43.58676" lon="3.07446">
        <ele>178</ele>
        <time>2021-07-24T23:19:32Z</time>
      </trkpt>
      <trkpt lat="43.5869" lon="3.0751">
        <ele>176</ele>
        <time>2021-07-24T23:19:41Z</time>
      </trkpt>
      <trkpt lat="43.58698" lon="3.07564">
        <ele>176</ele>
        <time>2021-07-24T23:19:48Z</time>
      </trkpt>
      <trkpt lat="43.58709" lon="3.07678">
        <ele>176</ele>
        <time>2021-07-24T23:20:03Z</time>
      </trkpt>
      <trkpt lat="43.58722" lon="3.07957">
        <ele>179</ele>
        <time>2021-07-24T23:20:39Z</time>
      </trkpt>
      <trkpt lat="43.58723" lon="3.08011">
        <ele>179</ele>
        <time>2021-07-24T23:20:46Z</time>
      </trkpt>
      <trkpt lat="43.58715" lon="3.08062">
        <ele>178</ele>
        <time>2021-07-24T23:20:53Z</time>
      </trkpt>
      <trkpt lat="43.58703" lon="3.08123">
        <ele>176</ele>
        <time>2021-07-24T23:21:01Z</time>
      </trkpt>
      <trkpt lat="43.58698" lon="3.08172">
        <ele>175</ele>
        <time>2021-07-24T23:21:07Z</time>
      </trkpt>
      <trkpt lat="43.58696" lon="3.08291">
        <ele>175</ele>
        <time>2021-07-24T23:21:22Z</time>
      </trkpt>
      <trkpt lat="43.5869" lon="3.083">
        <ele>175</ele>
        <time>2021-07-24T23:21:24Z</time>
      </trkpt>
      <trkpt lat="43.58686" lon="3.08312">
        <ele>174</ele>
        <time>2021-07-24T23:21:26Z</time>
      </trkpt>
      <trkpt lat="43.58685" lon="3.08324">
        <ele>174</ele>
        <time>2021-07-24T23:21:27Z</time>
      </trkpt>
      <trkpt lat="43.58689" lon="3.08343">
        <ele>174</ele>
        <time>2021-07-24T23:21:30Z</time>
      </trkpt>
      <trkpt lat="43.58692" lon="3.08348">
        <ele>174</ele>
        <time>2021-07-24T23:21:31Z</time>
      </trkpt>
      <trkpt lat="43.58715" lon="3.0837">
        <ele>176</ele>
        <time>2021-07-24T23:21:36Z</time>
      </trkpt>
      <trkpt lat="43.5872" lon="3.08382">
        <ele>177</ele>
        <time>2021-07-24T23:21:37Z</time>
      </trkpt>
      <trkpt lat="43.58728" lon="3.08406">
        <ele>178</ele>
        <time>2021-07-24T23:21:41Z</time>
      </trkpt>
      <trkpt lat="43.58751" lon="3.08521">
        <ele>180</ele>
        <time>2021-07-24T23:21:56Z</time>
      </trkpt>
      <trkpt lat="43.58772" lon="3.08649">
        <ele>183</ele>
        <time>2021-07-24T23:22:13Z</time>
      </trkpt>
      <trkpt lat="43.58786" lon="3.08711">
        <ele>185</ele>
        <time>2021-07-24T23:22:21Z</time>
      </trkpt>
      <trkpt lat="43.58827" lon="3.08863">
        <ele>187</ele>
        <time>2021-07-24T23:22:42Z</time>
      </trkpt>
      <trkpt lat="43.58835" lon="3.08907">
        <ele>188</ele>
        <time>2021-07-24T23:22:48Z</time>
      </trkpt>
      <trkpt lat="43.58837" lon="3.08984">
        <ele>186</ele>
        <time>2021-07-24T23:22:58Z</time>
      </trkpt>
      <trkpt lat="43.58813" lon="3.09576">
        <ele>188</ele>
        <time>2021-07-24T23:24:15Z</time>
      </trkpt>
      <trkpt lat="43.58818" lon="3.09619">
        <ele>187</ele>
        <time>2021-07-24T23:24:20Z</time>
      </trkpt>
      <trkpt lat="43.58828" lon="3.09671">
        <ele>186</ele>
        <time>2021-07-24T23:24:27Z</time>
      </trkpt>
      <trkpt lat="43.58843" lon="3.09725">
        <ele>186</ele>
        <time>2021-07-24T23:24:35Z</time>
      </trkpt>
      <trkpt lat="43.58882" lon="3.09819">
        <ele>186</ele>
        <time>2021-07-24T23:24:48Z</time>
      </trkpt>
      <trkpt lat="43.59018" lon="3.10097">
        <ele>182</ele>
        <time>2021-07-24T23:25:32Z</time>
      </trkpt>
      <trkpt lat="43.59038" lon="3.1013">
        <ele>182</ele>
        <time>2021-07-24T23:25:37Z</time>
      </trkpt>
      <trkpt lat="43.59076" lon="3.1017">
        <ele>182</ele>
        <time>2021-07-24T23:25:46Z</time>
      </trkpt>
      <trkpt lat="43.59106" lon="3.10205">
        <ele>183</ele>
        <time>2021-07-24T23:25:53Z</time>
      </trkpt>
      <trkpt lat="43.59145" lon="3.10262">
        <ele>184</ele>
        <time>2021-07-24T23:26:03Z</time>
      </trkpt>
      <trkpt lat="43.5916" lon="3.10289">
        <ele>184</ele>
        <time>2021-07-24T23:26:07Z</time>
      </trkpt>
      <trkpt lat="43.59195" lon="3.10366">
        <ele>186</ele>
        <time>2021-07-24T23:26:19Z</time>
      </trkpt>
      <trkpt lat="43.59209" lon="3.10411">
        <ele>187</ele>
        <time>2021-07-24T23:26:25Z</time>
      </trkpt>
      <trkpt lat="43.5925" lon="3.10608">
        <ele>188</ele>
        <time>2021-07-24T23:26:52Z</time>
      </trkpt>
      <trkpt lat="43.59256" lon="3.10649">
        <ele>188</ele>
        <time>2021-07-24T23:26:57Z</time>
      </trkpt>
      <trkpt lat="43.59255" lon="3.10679">
        <ele>189</ele>
        <time>2021-07-24T23:27:01Z</time>
      </trkpt>
      <trkpt lat="43.59251" lon="3.10696">
        <ele>189</ele>
        <time>2021-07-24T23:27:03Z</time>
      </trkpt>
      <trkpt lat="43.59254" lon="3.10705">
        <ele>189</ele>
        <time>2021-07-24T23:27:05Z</time>
      </trkpt>
      <trkpt lat="43.59263" lon="3.10715">
        <ele>190</ele>
        <time>2021-07-24T23:27:07Z</time>
      </trkpt>
      <trkpt lat="43.59267" lon="3.10723">
        <ele>190</ele>
        <time>2021-07-24T23:27:08Z</time>
      </trkpt>
      <trkpt lat="43.59275" lon="3.10746">
        <ele>190</ele>
        <time>2021-07-24T23:27:11Z</time>
      </trkpt>
      <trkpt lat="43.59282" lon="3.10782">
        <ele>190</ele>
        <time>2021-07-24T23:27:16Z</time>
      </trkpt>
      <trkpt lat="43.59352" lon="3.11401">
        <ele>191</ele>
        <time>2021-07-24T23:28:37Z</time>
      </trkpt>
      <trkpt lat="43.59352" lon="3.11413">
        <ele>191</ele>
        <time>2021-07-24T23:28:38Z</time>
      </trkpt>
      <trkpt lat="43.59352" lon="3.11426">
        <ele>191</ele>
        <time>2021-07-24T23:28:40Z</time>
      </trkpt>
      <trkpt lat="43.59352" lon="3.11433">
        <ele>191</ele>
        <time>2021-07-24T23:28:41Z</time>
      </trkpt>
      <trkpt lat="43.59351" lon="3.11436">
        <ele>191</ele>
        <time>2021-07-24T23:28:41Z</time>
      </trkpt>
      <trkpt lat="43.59351" lon="3.11439">
        <ele>191</ele>
        <time>2021-07-24T23:28:42Z</time>
      </trkpt>
      <trkpt lat="43.59351" lon="3.1144">
        <ele>191</ele>
        <time>2021-07-24T23:28:42Z</time>
      </trkpt>
      <trkpt lat="43.59351" lon="3.11442">
        <ele>192</ele>
        <time>2021-07-24T23:28:42Z</time>
      </trkpt>
      <trkpt lat="43.59353" lon="3.11446">
        <ele>192</ele>
        <time>2021-07-24T23:28:43Z</time>
      </trkpt>
      <trkpt lat="43.59355" lon="3.11448">
        <ele>192</ele>
        <time>2021-07-24T23:28:43Z</time>
      </trkpt>
      <trkpt lat="43.59356" lon="3.11461">
        <ele>192</ele>
        <time>2021-07-24T23:28:45Z</time>
      </trkpt>
      <trkpt lat="43.59358" lon="3.11473">
        <ele>192</ele>
        <time>2021-07-24T23:28:46Z</time>
      </trkpt>
      <trkpt lat="43.59363" lon="3.11517">
        <ele>192</ele>
        <time>2021-07-24T23:28:52Z</time>
      </trkpt>
      <trkpt lat="43.59365" lon="3.11526">
        <ele>192</ele>
        <time>2021-07-24T23:28:53Z</time>
      </trkpt>
      <trkpt lat="43.59369" lon="3.11564">
        <ele>191</ele>
        <time>2021-07-24T23:28:58Z</time>
      </trkpt>
      <trkpt lat="43.5937" lon="3.11586">
        <ele>190</ele>
        <time>2021-07-24T23:29:01Z</time>
      </trkpt>
      <trkpt lat="43.59376" lon="3.11607">
        <ele>190</ele>
        <time>2021-07-24T23:29:04Z</time>
      </trkpt>
      <trkpt lat="43.59381" lon="3.11651">
        <ele>188</ele>
        <time>2021-07-24T23:29:10Z</time>
      </trkpt>
      <trkpt lat="43.5938" lon="3.11669">
        <ele>188</ele>
        <time>2021-07-24T23:29:12Z</time>
      </trkpt>
      <trkpt lat="43.59383" lon="3.11683">
        <ele>187</ele>
        <time>2021-07-24T23:29:14Z</time>
      </trkpt>
      <trkpt lat="43.59396" lon="3.11785">
        <ele>184</ele>
        <time>2021-07-24T23:29:27Z</time>
      </trkpt>
      <trkpt lat="43.59395" lon="3.11798">
        <ele>184</ele>
        <time>2021-07-24T23:29:29Z</time>
      </trkpt>
      <trkpt lat="43.59401" lon="3.11869">
        <ele>184</ele>
        <time>2021-07-24T23:29:38Z</time>
      </trkpt>
      <trkpt lat="43.59398" lon="3.11888">
        <ele>184</ele>
        <time>2021-07-24T23:29:41Z</time>
      </trkpt>
      <trkpt lat="43.59394" lon="3.11897">
        <ele>184</ele>
        <time>2021-07-24T23:29:42Z</time>
      </trkpt>
      <trkpt lat="43.59391" lon="3.11898">
        <ele>184</ele>
        <time>2021-07-24T23:29:43Z</time>
      </trkpt>
      <trkpt lat="43.5939" lon="3.119">
        <ele>184</ele>
        <time>2021-07-24T23:29:43Z</time>
      </trkpt>
      <trkpt lat="43.59388" lon="3.11902">
        <ele>184</ele>
        <time>2021-07-24T23:29:43Z</time>
      </trkpt>
      <trkpt lat="43.59386" lon="3.11905">
        <ele>184</ele>
        <time>2021-07-24T23:29:44Z</time>
      </trkpt>
      <trkpt lat="43.59385" lon="3.11914">
        <ele>184</ele>
        <time>2021-07-24T23:29:45Z</time>
      </trkpt>
      <trkpt lat="43.59386" lon="3.11919">
        <ele>184</ele>
        <time>2021-07-24T23:29:46Z</time>
      </trkpt>
      <trkpt lat="43.59388" lon="3.11922">
        <ele>184</ele>
        <time>2021-07-24T23:29:46Z</time>
      </trkpt>
      <trkpt lat="43.5939" lon="3.11924">
        <ele>184</ele>
        <time>2021-07-24T23:29:47Z</time>
      </trkpt>
      <trkpt lat="43.59392" lon="3.11926">
        <ele>184</ele>
        <time>2021-07-24T23:29:47Z</time>
      </trkpt>
      <trkpt lat="43.59399" lon="3.11932">
        <ele>184</ele>
        <time>2021-07-24T23:29:49Z</time>
      </trkpt>
      <trkpt lat="43.59405" lon="3.11943">
        <ele>184</ele>
        <time>2021-07-24T23:29:50Z</time>
      </trkpt>
      <trkpt lat="43.59413" lon="3.11964">
        <ele>184</ele>
        <time>2021-07-24T23:29:53Z</time>
      </trkpt>
      <trkpt lat="43.59418" lon="3.1199">
        <ele>184</ele>
        <time>2021-07-24T23:29:57Z</time>
      </trkpt>
      <trkpt lat="43.59443" lon="3.12209">
        <ele>180</ele>
        <time>2021-07-24T23:30:25Z</time>
      </trkpt>
      <trkpt lat="43.5945" lon="3.12278">
        <ele>180</ele>
        <time>2021-07-24T23:30:34Z</time>
      </trkpt>
      <trkpt lat="43.59462" lon="3.12378">
        <ele>181</ele>
        <time>2021-07-24T23:30:47Z</time>
      </trkpt>
      <trkpt lat="43.59483" lon="3.12561">
        <ele>184</ele>
        <time>2021-07-24T23:31:11Z</time>
      </trkpt>
      <trkpt lat="43.59485" lon="3.12582">
        <ele>184</ele>
        <time>2021-07-24T23:31:14Z</time>
      </trkpt>
      <trkpt lat="43.59493" lon="3.12657">
        <ele>185</ele>
        <time>2021-07-24T23:31:24Z</time>
      </trkpt>
      <trkpt lat="43.59501" lon="3.12698">
        <ele>185</ele>
        <time>2021-07-24T23:31:29Z</time>
      </trkpt>
      <trkpt lat="43.59504" lon="3.1272">
        <ele>186</ele>
        <time>2021-07-24T23:31:32Z</time>
      </trkpt>
      <trkpt lat="43.59509" lon="3.12774">
        <ele>186</ele>
        <time>2021-07-24T23:31:39Z</time>
      </trkpt>
      <trkpt lat="43.5951" lon="3.12811">
        <ele>185</ele>
        <time>2021-07-24T23:31:44Z</time>
      </trkpt>
      <trkpt lat="43.59507" lon="3.12822">
        <ele>185</ele>
        <time>2021-07-24T23:31:46Z</time>
      </trkpt>
      <trkpt lat="43.59504" lon="3.12828">
        <ele>184</ele>
        <time>2021-07-24T23:31:46Z</time>
      </trkpt>
      <trkpt lat="43.59503" lon="3.12834">
        <ele>184</ele>
        <time>2021-07-24T23:31:47Z</time>
      </trkpt>
      <trkpt lat="43.59504" lon="3.12843">
        <ele>184</ele>
        <time>2021-07-24T23:31:48Z</time>
      </trkpt>
      <trkpt lat="43.59507" lon="3.1285">
        <ele>184</ele>
        <time>2021-07-24T23:31:49Z</time>
      </trkpt>
      <trkpt lat="43.59511" lon="3.12856">
        <ele>185</ele>
        <time>2021-07-24T23:31:51Z</time>
      </trkpt>
      <trkpt lat="43.59518" lon="3.1286">
        <ele>185</ele>
        <time>2021-07-24T23:31:52Z</time>
      </trkpt>
      <trkpt lat="43.59526" lon="3.1287">
        <ele>186</ele>
        <time>2021-07-24T23:31:54Z</time>
      </trkpt>
      <trkpt lat="43.5953" lon="3.12877">
        <ele>186</ele>
        <time>2021-07-24T23:31:55Z</time>
      </trkpt>
      <trkpt lat="43.59536" lon="3.12891">
        <ele>186</ele>
        <time>2021-07-24T23:31:57Z</time>
      </trkpt>
      <trkpt lat="43.59543" lon="3.12915">
        <ele>187</ele>
        <time>2021-07-24T23:32:00Z</time>
      </trkpt>
      <trkpt lat="43.59556" lon="3.1296">
        <ele>188</ele>
        <time>2021-07-24T23:32:07Z</time>
      </trkpt>
      <trkpt lat="43.59598" lon="3.13122">
        <ele>189</ele>
        <time>2021-07-24T23:32:29Z</time>
      </trkpt>
      <trkpt lat="43.59635" lon="3.13267">
        <ele>188</ele>
        <time>2021-07-24T23:32:49Z</time>
      </trkpt>
      <trkpt lat="43.59672" lon="3.13412">
        <ele>190</ele>
        <time>2021-07-24T23:33:08Z</time>
      </trkpt>
      <trkpt lat="43.5968" lon="3.13444">
        <ele>190</ele>
        <time>2021-07-24T23:33:13Z</time>
      </trkpt>
      <trkpt lat="43.59697" lon="3.13515">
        <ele>190</ele>
        <time>2021-07-24T23:33:22Z</time>
      </trkpt>
      <trkpt lat="43.59714" lon="3.13583">
        <ele>189</ele>
        <time>2021-07-24T23:33:32Z</time>
      </trkpt>
      <trkpt lat="43.5975" lon="3.13722">
        <ele>190</ele>
        <time>2021-07-24T23:33:51Z</time>
      </trkpt>
      <trkpt lat="43.59761" lon="3.13763">
        <ele>191</ele>
        <time>2021-07-24T23:33:56Z</time>
      </trkpt>
      <trkpt lat="43.59777" lon="3.13817">
        <ele>191</ele>
        <time>2021-07-24T23:34:04Z</time>
      </trkpt>
      <trkpt lat="43.59793" lon="3.13864">
        <ele>191</ele>
        <time>2021-07-24T23:34:11Z</time>
      </trkpt>
      <trkpt lat="43.59802" lon="3.13896">
        <ele>191</ele>
        <time>2021-07-24T23:34:15Z</time>
      </trkpt>
      <trkpt lat="43.59805" lon="3.13912">
        <ele>191</ele>
        <time>2021-07-24T23:34:17Z</time>
      </trkpt>
      <trkpt lat="43.59805" lon="3.13927">
        <ele>191</ele>
        <time>2021-07-24T23:34:19Z</time>
      </trkpt>
      <trkpt lat="43.598" lon="3.13943">
        <ele>190</ele>
        <time>2021-07-24T23:34:21Z</time>
      </trkpt>
      <trkpt lat="43.59796" lon="3.13951">
        <ele>190</ele>
        <time>2021-07-24T23:34:23Z</time>
      </trkpt>
      <trkpt lat="43.5979" lon="3.13955">
        <ele>189</ele>
        <time>2021-07-24T23:34:24Z</time>
      </trkpt>
      <trkpt lat="43.59785" lon="3.13962">
        <ele>189</ele>
        <time>2021-07-24T23:34:25Z</time>
      </trkpt>
      <trkpt lat="43.59781" lon="3.1397">
        <ele>189</ele>
        <time>2021-07-24T23:34:26Z</time>
      </trkpt>
      <trkpt lat="43.5978" lon="3.1398">
        <ele>189</ele>
        <time>2021-07-24T23:34:28Z</time>
      </trkpt>
      <trkpt lat="43.5978" lon="3.13986">
        <ele>189</ele>
        <time>2021-07-24T23:34:28Z</time>
      </trkpt>
      <trkpt lat="43.59783" lon="3.13997">
        <ele>189</ele>
        <time>2021-07-24T23:34:30Z</time>
      </trkpt>
      <trkpt lat="43.59785" lon="3.14002">
        <ele>189</ele>
        <time>2021-07-24T23:34:31Z</time>
      </trkpt>
      <trkpt lat="43.59791" lon="3.14009">
        <ele>189</ele>
        <time>2021-07-24T23:34:32Z</time>
      </trkpt>
      <trkpt lat="43.59799" lon="3.14013">
        <ele>189</ele>
        <time>2021-07-24T23:34:33Z</time>
      </trkpt>
      <trkpt lat="43.59806" lon="3.14013">
        <ele>190</ele>
        <time>2021-07-24T23:34:35Z</time>
      </trkpt>
      <trkpt lat="43.59814" lon="3.1401">
        <ele>190</ele>
        <time>2021-07-24T23:34:36Z</time>
      </trkpt>
      <trkpt lat="43.5982" lon="3.14004">
        <ele>190</ele>
        <time>2021-07-24T23:34:37Z</time>
      </trkpt>
      <trkpt lat="43.59833" lon="3.14002">
        <ele>191</ele>
        <time>2021-07-24T23:34:40Z</time>
      </trkpt>
      <trkpt lat="43.59853" lon="3.14014">
        <ele>191</ele>
        <time>2021-07-24T23:34:44Z</time>
      </trkpt>
      <trkpt lat="43.59863" lon="3.14021">
        <ele>191</ele>
        <time>2021-07-24T23:34:46Z</time>
      </trkpt>
      <trkpt lat="43.59866" lon="3.14026">
        <ele>191</ele>
        <time>2021-07-24T23:34:47Z</time>
      </trkpt>
      <trkpt lat="43.59892" lon="3.14073">
        <ele>191</ele>
        <time>2021-07-24T23:34:54Z</time>
      </trkpt>
      <trkpt lat="43.59914" lon="3.14116">
        <ele>191</ele>
        <time>2021-07-24T23:35:01Z</time>
      </trkpt>
      <trkpt lat="43.59982" lon="3.1406">
        <ele>193</ele>
        <time>2021-07-24T23:35:15Z</time>
      </trkpt>
      <trkpt lat="43.59993" lon="3.14061">
        <ele>193</ele>
        <time>2021-07-24T23:35:17Z</time>
      </trkpt>
      <trkpt lat="43.60001" lon="3.14076">
        <ele>192</ele>
        <time>2021-07-24T23:35:19Z</time>
      </trkpt>
      <trkpt lat="43.60008" lon="3.14096">
        <ele>192</ele>
        <time>2021-07-24T23:35:22Z</time>
      </trkpt>
      <trkpt lat="43.60013" lon="3.14107">
        <ele>192</ele>
        <time>2021-07-24T23:35:24Z</time>
      </trkpt>
      <trkpt lat="43.60025" lon="3.14128">
        <ele>193</ele>
        <time>2021-07-24T23:35:27Z</time>
      </trkpt>
      <trkpt lat="43.60073" lon="3.14193">
        <ele>193</ele>
        <time>2021-07-24T23:35:39Z</time>
      </trkpt>
      <trkpt lat="43.60093" lon="3.14213">
        <ele>193</ele>
        <time>2021-07-24T23:35:44Z</time>
      </trkpt>
      <trkpt lat="43.60132" lon="3.14275">
        <ele>193</ele>
        <time>2021-07-24T23:35:54Z</time>
      </trkpt>
      <trkpt lat="43.60152" lon="3.14304">
        <ele>193</ele>
        <time>2021-07-24T23:35:59Z</time>
      </trkpt>
      <trkpt lat="43.60175" lon="3.14332">
        <ele>193</ele>
        <time>2021-07-24T23:36:05Z</time>
      </trkpt>
      <trkpt lat="43.60195" lon="3.14343">
        <ele>194</ele>
        <time>2021-07-24T23:36:09Z</time>
      </trkpt>
      <trkpt lat="43.60232" lon="3.14351">
        <ele>195</ele>
        <time>2021-07-24T23:36:15Z</time>
      </trkpt>
      <trkpt lat="43.60243" lon="3.14355">
        <ele>195</ele>
        <time>2021-07-24T23:36:17Z</time>
      </trkpt>
      <trkpt lat="43.60252" lon="3.14361">
        <ele>195</ele>
        <time>2021-07-24T23:36:19Z</time>
      </trkpt>
      <trkpt lat="43.60271" lon="3.1438">
        <ele>196</ele>
        <time>2021-07-24T23:36:23Z</time>
      </trkpt>
      <trkpt lat="43.60305" lon="3.14422">
        <ele>197</ele>
        <time>2021-07-24T23:36:32Z</time>
      </trkpt>
      <trkpt lat="43.60338" lon="3.14469">
        <ele>198</ele>
        <time>2021-07-24T23:36:40Z</time>
      </trkpt>
      <trkpt lat="43.60361" lon="3.14492">
        <ele>200</ele>
        <time>2021-07-24T23:36:45Z</time>
      </trkpt>
      <trkpt lat="43.60373" lon="3.1451">
        <ele>201</ele>
        <time>2021-07-24T23:36:48Z</time>
      </trkpt>
      <trkpt lat="43.60429" lon="3.14549">
        <ele>204</ele>
        <time>2021-07-24T23:36:59Z</time>
      </trkpt>
      <trkpt lat="43.60513" lon="3.14613">
        <ele>208</ele>
        <time>2021-07-24T23:37:16Z</time>
      </trkpt>
      <trkpt lat="43.60537" lon="3.14638">
        <ele>208</ele>
        <time>2021-07-24T23:37:22Z</time>
      </trkpt>
      <trkpt lat="43.60582" lon="3.14662">
        <ele>210</ele>
        <time>2021-07-24T23:37:30Z</time>
      </trkpt>
      <trkpt lat="43.60643" lon="3.14686">
        <ele>216</ele>
        <time>2021-07-24T23:37:42Z</time>
      </trkpt>
      <trkpt lat="43.60693" lon="3.14709">
        <ele>218</ele>
        <time>2021-07-24T23:37:51Z</time>
      </trkpt>
      <trkpt lat="43.6082" lon="3.14784">
        <ele>211</ele>
        <time>2021-07-24T23:38:16Z</time>
      </trkpt>
      <trkpt lat="43.60862" lon="3.14814">
        <ele>206</ele>
        <time>2021-07-24T23:38:24Z</time>
      </trkpt>
      <trkpt lat="43.60949" lon="3.14906">
        <ele>199</ele>
        <time>2021-07-24T23:38:43Z</time>
      </trkpt>
      <trkpt lat="43.61032" lon="3.15009">
        <ele>197</ele>
        <time>2021-07-24T23:39:03Z</time>
      </trkpt>
      <trkpt lat="43.61072" lon="3.15042">
        <ele>197</ele>
        <time>2021-07-24T23:39:12Z</time>
      </trkpt>
      <trkpt lat="43.61114" lon="3.1506">
        <ele>196</ele>
        <time>2021-07-24T23:39:19Z</time>
      </trkpt>
      <trkpt lat="43.6113" lon="3.15142">
        <ele>196</ele>
        <time>2021-07-24T23:39:30Z</time>
      </trkpt>
      <trkpt lat="43.61136" lon="3.15168">
        <ele>197</ele>
        <time>2021-07-24T23:39:34Z</time>
      </trkpt>
      <trkpt lat="43.61185" lon="3.15185">
        <ele>197</ele>
        <time>2021-07-24T23:39:43Z</time>
      </trkpt>
      <trkpt lat="43.612" lon="3.15193">
        <ele>197</ele>
        <time>2021-07-24T23:39:46Z</time>
      </trkpt>
      <trkpt lat="43.61269" lon="3.15244">
        <ele>198</ele>
        <time>2021-07-24T23:40:00Z</time>
      </trkpt>
      <trkpt lat="43.61422" lon="3.15371">
        <ele>202</ele>
        <time>2021-07-24T23:40:31Z</time>
      </trkpt>
      <trkpt lat="43.61522" lon="3.1545">
        <ele>203</ele>
        <time>2021-07-24T23:40:52Z</time>
      </trkpt>
      <trkpt lat="43.61622" lon="3.15496">
        <ele>206</ele>
        <time>2021-07-24T23:41:11Z</time>
      </trkpt>
      <trkpt lat="43.61646" lon="3.15405">
        <ele>209</ele>
        <time>2021-07-24T23:41:23Z</time>
      </trkpt>
      <trkpt lat="43.61602" lon="3.15383">
        <ele>207</ele>
        <time>2021-07-24T23:41:31Z</time>
      </trkpt>
      <trkpt lat="43.61577" lon="3.15476">
        <ele>206</ele>
        <time>2021-07-24T23:41:44Z</time>
      </trkpt>
      <trkpt lat="43.61594" lon="3.15484">
        <ele>206</ele>
        <time>2021-07-24T23:41:47Z</time>
      </trkpt>
      <trkpt lat="43.61606" lon="3.15489">
        <ele>206</ele>
        <time>2021-07-24T23:41:50Z</time>
      </trkpt>
      <trkpt lat="43.61622" lon="3.15496">
        <ele>206</ele>
        <time>2021-07-24T23:41:53Z</time>
      </trkpt>
      <trkpt lat="43.61622" lon="3.15625">
        <ele>199</ele>
        <time>2021-07-24T23:42:09Z</time>
      </trkpt>
      <trkpt lat="43.61622" lon="3.15629">
        <ele>199</ele>
        <time>2021-07-24T23:42:10Z</time>
      </trkpt>
      <trkpt lat="43.61622" lon="3.15714">
        <ele>198</ele>
        <time>2021-07-24T23:42:21Z</time>
      </trkpt>
      <trkpt lat="43.6162" lon="3.15716">
        <ele>198</ele>
        <time>2021-07-24T23:42:21Z</time>
      </trkpt>
      <trkpt lat="43.61544" lon="3.15726">
        <ele>197</ele>
        <time>2021-07-24T23:42:35Z</time>
      </trkpt>
      <trkpt lat="43.61538" lon="3.15733">
        <ele>197</ele>
        <time>2021-07-24T23:42:36Z</time>
      </trkpt>
      <trkpt lat="43.61539" lon="3.1575">
        <ele>198</ele>
        <time>2021-07-24T23:42:38Z</time>
      </trkpt>
      <trkpt lat="43.61521" lon="3.15784">
        <ele>200</ele>
        <time>2021-07-24T23:42:44Z</time>
      </trkpt>
      <trkpt lat="43.6152" lon="3.1579">
        <ele>200</ele>
        <time>2021-07-24T23:42:45Z</time>
      </trkpt>
      <trkpt lat="43.61527" lon="3.15799">
        <ele>200</ele>
        <time>2021-07-24T23:42:46Z</time>
      </trkpt>
      <trkpt lat="43.61481" lon="3.15864">
        <ele>204</ele>
        <time>2021-07-24T23:42:58Z</time>
      </trkpt>
      <trkpt lat="43.61476" lon="3.15856">
        <ele>204</ele>
        <time>2021-07-24T23:42:59Z</time>
      </trkpt>
      <trkpt lat="43.61395" lon="3.15924">
        <ele>207</ele>
        <time>2021-07-24T23:43:16Z</time>
      </trkpt>
      <trkpt lat="43.61365" lon="3.15952">
        <ele>208</ele>
        <time>2021-07-24T23:43:23Z</time>
      </trkpt>
      <trkpt lat="43.61346" lon="3.15981">
        <ele>209</ele>
        <time>2021-07-24T23:43:28Z</time>
      </trkpt>
      <trkpt lat="43.61296" lon="3.16093">
        <ele>214</ele>
        <time>2021-07-24T23:43:45Z</time>
      </trkpt>
      <trkpt lat="43.61217" lon="3.16278">
        <ele>216</ele>
        <time>2021-07-24T23:44:12Z</time>
      </trkpt>
      <trkpt lat="43.61195" lon="3.16462">
        <ele>226</ele>
        <time>2021-07-24T23:44:36Z</time>
      </trkpt>
      <trkpt lat="43.61193" lon="3.16511">
        <ele>228</ele>
        <time>2021-07-24T23:44:43Z</time>
      </trkpt>
      <trkpt lat="43.61203" lon="3.16557">
        <ele>228</ele>
        <time>2021-07-24T23:44:49Z</time>
      </trkpt>
      <trkpt lat="43.61221" lon="3.16619">
        <ele>227</ele>
        <time>2021-07-24T23:44:57Z</time>
      </trkpt>
      <trkpt lat="43.6122" lon="3.16626">
        <ele>227</ele>
        <time>2021-07-24T23:44:58Z</time>
      </trkpt>
      <trkpt lat="43.61217" lon="3.16635">
        <ele>226</ele>
        <time>2021-07-24T23:45:00Z</time>
      </trkpt>
      <trkpt lat="43.61211" lon="3.16641">
        <ele>226</ele>
        <time>2021-07-24T23:45:01Z</time>
      </trkpt>
      <trkpt lat="43.6121" lon="3.16654">
        <ele>226</ele>
        <time>2021-07-24T23:45:03Z</time>
      </trkpt>
      <trkpt lat="43.61217" lon="3.16672">
        <ele>225</ele>
        <time>2021-07-24T23:45:05Z</time>
      </trkpt>
      <trkpt lat="43.61221" lon="3.16701">
        <ele>226</ele>
        <time>2021-07-24T23:45:09Z</time>
      </trkpt>
      <trkpt lat="43.61217" lon="3.16845">
        <ele>230</ele>
        <time>2021-07-24T23:45:28Z</time>
      </trkpt>
      <trkpt lat="43.61218" lon="3.16868">
        <ele>230</ele>
        <time>2021-07-24T23:45:31Z</time>
      </trkpt>
      <trkpt lat="43.61232" lon="3.16945">
        <ele>231</ele>
        <time>2021-07-24T23:45:41Z</time>
      </trkpt>
      <trkpt lat="43.61231" lon="3.16964">
        <ele>231</ele>
        <time>2021-07-24T23:45:43Z</time>
      </trkpt>
      <trkpt lat="43.61225" lon="3.16979">
        <ele>231</ele>
        <time>2021-07-24T23:45:46Z</time>
      </trkpt>
      <trkpt lat="43.6122" lon="3.16984">
        <ele>230</ele>
        <time>2021-07-24T23:45:47Z</time>
      </trkpt>
      <trkpt lat="43.61218" lon="3.16992">
        <ele>230</ele>
        <time>2021-07-24T23:45:48Z</time>
      </trkpt>
      <trkpt lat="43.6122" lon="3.17001">
        <ele>231</ele>
        <time>2021-07-24T23:45:49Z</time>
      </trkpt>
      <trkpt lat="43.61226" lon="3.17005">
        <ele>231</ele>
        <time>2021-07-24T23:45:50Z</time>
      </trkpt>
      <trkpt lat="43.61231" lon="3.17005">
        <ele>231</ele>
        <time>2021-07-24T23:45:51Z</time>
      </trkpt>
      <trkpt lat="43.61252" lon="3.17011">
        <ele>232</ele>
        <time>2021-07-24T23:45:55Z</time>
      </trkpt>
      <trkpt lat="43.61262" lon="3.17023">
        <ele>232</ele>
        <time>2021-07-24T23:45:57Z</time>
      </trkpt>
      <trkpt lat="43.61272" lon="3.17046">
        <ele>232</ele>
        <time>2021-07-24T23:46:01Z</time>
      </trkpt>
      <trkpt lat="43.61348" lon="3.17282">
        <ele>235</ele>
        <time>2021-07-24T23:46:34Z</time>
      </trkpt>
      <trkpt lat="43.61385" lon="3.17403">
        <ele>236</ele>
        <time>2021-07-24T23:46:51Z</time>
      </trkpt>
      <trkpt lat="43.614" lon="3.1746">
        <ele>236</ele>
        <time>2021-07-24T23:46:59Z</time>
      </trkpt>
      <trkpt lat="43.61415" lon="3.17641">
        <ele>241</ele>
        <time>2021-07-24T23:47:22Z</time>
      </trkpt>
      <trkpt lat="43.6142" lon="3.17723">
        <ele>244</ele>
        <time>2021-07-24T23:47:33Z</time>
      </trkpt>
      <trkpt lat="43.6142" lon="3.1777">
        <ele>245</ele>
        <time>2021-07-24T23:47:39Z</time>
      </trkpt>
      <trkpt lat="43.61414" lon="3.17798">
        <ele>246</ele>
        <time>2021-07-24T23:47:43Z</time>
      </trkpt>
      <trkpt lat="43.61365" lon="3.17891">
        <ele>246</ele>
        <time>2021-07-24T23:47:57Z</time>
      </trkpt>
      <trkpt lat="43.6136" lon="3.17904">
        <ele>246</ele>
        <time>2021-07-24T23:47:59Z</time>
      </trkpt>
      <trkpt lat="43.61353" lon="3.17949">
        <ele>248</ele>
        <time>2021-07-24T23:48:05Z</time>
      </trkpt>
      <trkpt lat="43.61347" lon="3.18056">
        <ele>252</ele>
        <time>2021-07-24T23:48:19Z</time>
      </trkpt>
      <trkpt lat="43.61343" lon="3.18248">
        <ele>255</ele>
        <time>2021-07-24T23:48:44Z</time>
      </trkpt>
      <trkpt lat="43.61344" lon="3.18267">
        <ele>255</ele>
        <time>2021-07-24T23:48:46Z</time>
      </trkpt>
      <trkpt lat="43.61347" lon="3.18284">
        <ele>257</ele>
        <time>2021-07-24T23:48:48Z</time>
      </trkpt>
      <trkpt lat="43.61355" lon="3.18303">
        <ele>259</ele>
        <time>2021-07-24T23:48:51Z</time>
      </trkpt>
      <trkpt lat="43.6137" lon="3.18331">
        <ele>263</ele>
        <time>2021-07-24T23:48:56Z</time>
      </trkpt>
      <trkpt lat="43.61374" lon="3.1835">
        <ele>264</ele>
        <time>2021-07-24T23:48:58Z</time>
      </trkpt>
      <trkpt lat="43.61375" lon="3.18364">
        <ele>265</ele>
        <time>2021-07-24T23:49:00Z</time>
      </trkpt>
      <trkpt lat="43.61373" lon="3.18378">
        <ele>264</ele>
        <time>2021-07-24T23:49:02Z</time>
      </trkpt>
      <trkpt lat="43.61368" lon="3.18392">
        <ele>264</ele>
        <time>2021-07-24T23:49:04Z</time>
      </trkpt>
      <trkpt lat="43.61361" lon="3.18404">
        <ele>263</ele>
        <time>2021-07-24T23:49:06Z</time>
      </trkpt>
      <trkpt lat="43.61341" lon="3.18428">
        <ele>263</ele>
        <time>2021-07-24T23:49:11Z</time>
      </trkpt>
      <trkpt lat="43.6133" lon="3.1845">
        <ele>266</ele>
        <time>2021-07-24T23:49:14Z</time>
      </trkpt>
      <trkpt lat="43.61312" lon="3.1849">
        <ele>273</ele>
        <time>2021-07-24T23:49:20Z</time>
      </trkpt>
      <trkpt lat="43.61268" lon="3.186">
        <ele>273</ele>
        <time>2021-07-24T23:49:36Z</time>
      </trkpt>
      <trkpt lat="43.61234" lon="3.18666">
        <ele>271</ele>
        <time>2021-07-24T23:49:47Z</time>
      </trkpt>
      <trkpt lat="43.61232" lon="3.18683">
        <ele>271</ele>
        <time>2021-07-24T23:49:49Z</time>
      </trkpt>
      <trkpt lat="43.61233" lon="3.18696">
        <ele>271</ele>
        <time>2021-07-24T23:49:51Z</time>
      </trkpt>
      <trkpt lat="43.61262" lon="3.18776">
        <ele>269</ele>
        <time>2021-07-24T23:50:02Z</time>
      </trkpt>
      <trkpt lat="43.61276" lon="3.18797">
        <ele>271</ele>
        <time>2021-07-24T23:50:06Z</time>
      </trkpt>
      <trkpt lat="43.61286" lon="3.18804">
        <ele>271</ele>
        <time>2021-07-24T23:50:08Z</time>
      </trkpt>
      <trkpt lat="43.61298" lon="3.18809">
        <ele>272</ele>
        <time>2021-07-24T23:50:10Z</time>
      </trkpt>
      <trkpt lat="43.61325" lon="3.18818">
        <ele>272</ele>
        <time>2021-07-24T23:50:15Z</time>
      </trkpt>
      <trkpt lat="43.61412" lon="3.1883">
        <ele>271</ele>
        <time>2021-07-24T23:50:31Z</time>
      </trkpt>
      <trkpt lat="43.61422" lon="3.18834">
        <ele>271</ele>
        <time>2021-07-24T23:50:32Z</time>
      </trkpt>
      <trkpt lat="43.61432" lon="3.18841">
        <ele>272</ele>
        <time>2021-07-24T23:50:34Z</time>
      </trkpt>
      <trkpt lat="43.61449" lon="3.18863">
        <ele>273</ele>
        <time>2021-07-24T23:50:39Z</time>
      </trkpt>
      <trkpt lat="43.61459" lon="3.1888">
        <ele>273</ele>
        <time>2021-07-24T23:50:41Z</time>
      </trkpt>
      <trkpt lat="43.61472" lon="3.18907">
        <ele>273</ele>
        <time>2021-07-24T23:50:46Z</time>
      </trkpt>
      <trkpt lat="43.61483" lon="3.18924">
        <ele>272</ele>
        <time>2021-07-24T23:50:49Z</time>
      </trkpt>
      <trkpt lat="43.61493" lon="3.18936">
        <ele>272</ele>
        <time>2021-07-24T23:50:51Z</time>
      </trkpt>
      <trkpt lat="43.61509" lon="3.18947">
        <ele>272</ele>
        <time>2021-07-24T23:50:54Z</time>
      </trkpt>
      <trkpt lat="43.61535" lon="3.1896">
        <ele>275</ele>
        <time>2021-07-24T23:50:59Z</time>
      </trkpt>
      <trkpt lat="43.61557" lon="3.18975">
        <ele>277</ele>
        <time>2021-07-24T23:51:03Z</time>
      </trkpt>
      <trkpt lat="43.61587" lon="3.19018">
        <ele>277</ele>
        <time>2021-07-24T23:51:11Z</time>
      </trkpt>
      <trkpt lat="43.61592" lon="3.19034">
        <ele>277</ele>
        <time>2021-07-24T23:51:13Z</time>
      </trkpt>
      <trkpt lat="43.61603" lon="3.19051">
        <ele>278</ele>
        <time>2021-07-24T23:51:16Z</time>
      </trkpt>
      <trkpt lat="43.61632" lon="3.19074">
        <ele>281</ele>
        <time>2021-07-24T23:51:22Z</time>
      </trkpt>
      <trkpt lat="43.61646" lon="3.19095">
        <ele>282</ele>
        <time>2021-07-24T23:51:26Z</time>
      </trkpt>
      <trkpt lat="43.61665" lon="3.19133">
        <ele>281</ele>
        <time>2021-07-24T23:51:32Z</time>
      </trkpt>
      <trkpt lat="43.6167" lon="3.19153">
        <ele>280</ele>
        <time>2021-07-24T23:51:35Z</time>
      </trkpt>
      <trkpt lat="43.6167" lon="3.19187">
        <ele>279</ele>
        <time>2021-07-24T23:51:39Z</time>
      </trkpt>
      <trkpt lat="43.61664" lon="3.19234">
        <ele>278</ele>
        <time>2021-07-24T23:51:45Z</time>
      </trkpt>
      <trkpt lat="43.61645" lon="3.19305">
        <ele>279</ele>
        <time>2021-07-24T23:51:55Z</time>
      </trkpt>
      <trkpt lat="43.61637" lon="3.19351">
        <ele>279</ele>
        <time>2021-07-24T23:52:01Z</time>
      </trkpt>
      <trkpt lat="43.6164" lon="3.19399">
        <ele>278</ele>
        <time>2021-07-24T23:52:07Z</time>
      </trkpt>
      <trkpt lat="43.61652" lon="3.19443">
        <ele>279</ele>
        <time>2021-07-24T23:52:13Z</time>
      </trkpt>
      <trkpt lat="43.61677" lon="3.19481">
        <ele>281</ele>
        <time>2021-07-24T23:52:20Z</time>
      </trkpt>
      <trkpt lat="43.61721" lon="3.19519">
        <ele>282</ele>
        <time>2021-07-24T23:52:29Z</time>
      </trkpt>
      <trkpt lat="43.61764" lon="3.19552">
        <ele>283</ele>
        <time>2021-07-24T23:52:38Z</time>
      </trkpt>
      <trkpt lat="43.61784" lon="3.19562">
        <ele>285</ele>
        <time>2021-07-24T23:52:42Z</time>
      </trkpt>
      <trkpt lat="43.61824" lon="3.19554">
        <ele>289</ele>
        <time>2021-07-24T23:52:49Z</time>
      </trkpt>
      <trkpt lat="43.61835" lon="3.19622">
        <ele>287</ele>
        <time>2021-07-24T23:52:58Z</time>
      </trkpt>
      <trkpt lat="43.61885" lon="3.20102">
        <ele>293</ele>
        <time>2021-07-24T23:54:00Z</time>
      </trkpt>
      <trkpt lat="43.61894" lon="3.20163">
        <ele>295</ele>
        <time>2021-07-24T23:54:08Z</time>
      </trkpt>
      <trkpt lat="43.6191" lon="3.20219">
        <ele>295</ele>
        <time>2021-07-24T23:54:16Z</time>
      </trkpt>
      <trkpt lat="43.61928" lon="3.20264">
        <ele>296</ele>
        <time>2021-07-24T23:54:23Z</time>
      </trkpt>
      <trkpt lat="43.62033" lon="3.20486">
        <ele>299</ele>
        <time>2021-07-24T23:54:57Z</time>
      </trkpt>
      <trkpt lat="43.62072" lon="3.20558">
        <ele>299</ele>
        <time>2021-07-24T23:55:08Z</time>
      </trkpt>
      <trkpt lat="43.621" lon="3.20595">
        <ele>299</ele>
        <time>2021-07-24T23:55:15Z</time>
      </trkpt>
      <trkpt lat="43.62113" lon="3.20609">
        <ele>299</ele>
        <time>2021-07-24T23:55:18Z</time>
      </trkpt>
      <trkpt lat="43.62134" lon="3.20627">
        <ele>300</ele>
        <time>2021-07-24T23:55:23Z</time>
      </trkpt>
      <trkpt lat="43.62378" lon="3.20817">
        <ele>309</ele>
        <time>2021-07-24T23:56:12Z</time>
      </trkpt>
      <trkpt lat="43.62409" lon="3.20844">
        <ele>309</ele>
        <time>2021-07-24T23:56:19Z</time>
      </trkpt>
      <trkpt lat="43.62422" lon="3.20861">
        <ele>308</ele>
        <time>2021-07-24T23:56:22Z</time>
      </trkpt>
      <trkpt lat="43.62436" lon="3.20882">
        <ele>308</ele>
        <time>2021-07-24T23:56:26Z</time>
      </trkpt>
      <trkpt lat="43.62455" lon="3.20922">
        <ele>308</ele>
        <time>2021-07-24T23:56:32Z</time>
      </trkpt>
      <trkpt lat="43.62469" lon="3.20971">
        <ele>309</ele>
        <time>2021-07-24T23:56:39Z</time>
      </trkpt>
      <trkpt lat="43.62472" lon="3.20993">
        <ele>309</ele>
        <time>2021-07-24T23:56:42Z</time>
      </trkpt>
      <trkpt lat="43.62476" lon="3.21044">
        <ele>309</ele>
        <time>2021-07-24T23:56:48Z</time>
      </trkpt>
      <trkpt lat="43.62492" lon="3.21309">
        <ele>314</ele>
        <time>2021-07-24T23:57:22Z</time>
      </trkpt>
      <trkpt lat="43.62499" lon="3.21357">
        <ele>316</ele>
        <time>2021-07-24T23:57:29Z</time>
      </trkpt>
      <trkpt lat="43.62506" lon="3.21382">
        <ele>317</ele>
        <time>2021-07-24T23:57:32Z</time>
      </trkpt>
      <trkpt lat="43.62517" lon="3.21411">
        <ele>319</ele>
        <time>2021-07-24T23:57:36Z</time>
      </trkpt>
      <trkpt lat="43.62573" lon="3.2153">
        <ele>322</ele>
        <time>2021-07-24T23:57:55Z</time>
      </trkpt>
      <trkpt lat="43.6259" lon="3.21556">
        <ele>322</ele>
        <time>2021-07-24T23:57:59Z</time>
      </trkpt>
      <trkpt lat="43.6261" lon="3.21579">
        <ele>324</ele>
        <time>2021-07-24T23:58:04Z</time>
      </trkpt>
      <trkpt lat="43.62632" lon="3.21598">
        <ele>325</ele>
        <time>2021-07-24T23:58:08Z</time>
      </trkpt>
      <trkpt lat="43.62731" lon="3.21661">
        <ele>326</ele>
        <time>2021-07-24T23:58:28Z</time>
      </trkpt>
      <trkpt lat="43.62749" lon="3.21677">
        <ele>327</ele>
        <time>2021-07-24T23:58:32Z</time>
      </trkpt>
      <trkpt lat="43.62763" lon="3.21693">
        <ele>328</ele>
        <time>2021-07-24T23:58:35Z</time>
      </trkpt>
      <trkpt lat="43.62783" lon="3.21725">
        <ele>328</ele>
        <time>2021-07-24T23:58:40Z</time>
      </trkpt>
      <trkpt lat="43.62972" lon="3.22091">
        <ele>342</ele>
        <time>2021-07-24T23:59:38Z</time>
      </trkpt>
      <trkpt lat="43.62986" lon="3.22133">
        <ele>345</ele>
        <time>2021-07-24T23:59:44Z</time>
      </trkpt>
      <trkpt lat="43.62996" lon="3.22185">
        <ele>348</ele>
        <time>2021-07-24T23:59:51Z</time>
      </trkpt>
      <trkpt lat="43.62998" lon="3.2221">
        <ele>350</ele>
        <time>2021-07-24T23:59:54Z</time>
      </trkpt>
      <trkpt lat="43.62997" lon="3.22238">
        <ele>352</ele>
        <time>2021-07-24T23:59:58Z</time>
      </trkpt>
      <trkpt lat="43.6299" lon="3.22286">
        <ele>355</ele>
        <time>2021-07-25T00:00:04Z</time>
      </trkpt>
      <trkpt lat="43.62976" lon="3.22334">
        <ele>357</ele>
        <time>2021-07-25T00:00:11Z</time>
      </trkpt>
      <trkpt lat="43.62965" lon="3.22361">
        <ele>358</ele>
        <time>2021-07-25T00:00:15Z</time>
      </trkpt>
      <trkpt lat="43.62924" lon="3.22436">
        <ele>361</ele>
        <time>2021-07-25T00:00:27Z</time>
      </trkpt>
      <trkpt lat="43.6282" lon="3.22616">
        <ele>372</ele>
        <time>2021-07-25T00:00:57Z</time>
      </trkpt>
      <trkpt lat="43.6281" lon="3.22632">
        <ele>374</ele>
        <time>2021-07-25T00:00:59Z</time>
      </trkpt>
      <trkpt lat="43.62786" lon="3.22657">
        <ele>375</ele>
        <time>2021-07-25T00:01:05Z</time>
      </trkpt>
      <trkpt lat="43.62721" lon="3.22714">
        <ele>379</ele>
        <time>2021-07-25T00:01:19Z</time>
      </trkpt>
      <trkpt lat="43.62711" lon="3.22725">
        <ele>379</ele>
        <time>2021-07-25T00:01:21Z</time>
      </trkpt>
      <trkpt lat="43.62694" lon="3.22753">
        <ele>380</ele>
        <time>2021-07-25T00:01:25Z</time>
      </trkpt>
      <trkpt lat="43.6267" lon="3.22804">
        <ele>382</ele>
        <time>2021-07-25T00:01:33Z</time>
      </trkpt>
      <trkpt lat="43.62586" lon="3.23046">
        <ele>396</ele>
        <time>2021-07-25T00:02:08Z</time>
      </trkpt>
      <trkpt lat="43.62569" lon="3.23085">
        <ele>398</ele>
        <time>2021-07-25T00:02:14Z</time>
      </trkpt>
      <trkpt lat="43.6255" lon="3.23117">
        <ele>401</ele>
        <time>2021-07-25T00:02:19Z</time>
      </trkpt>
      <trkpt lat="43.62536" lon="3.23136">
        <ele>402</ele>
        <time>2021-07-25T00:02:23Z</time>
      </trkpt>
      <trkpt lat="43.62523" lon="3.23151">
        <ele>404</ele>
        <time>2021-07-25T00:02:26Z</time>
      </trkpt>
      <trkpt lat="43.62361" lon="3.23304">
        <ele>418</ele>
        <time>2021-07-25T00:03:01Z</time>
      </trkpt>
      <trkpt lat="43.62342" lon="3.23329">
        <ele>418</ele>
        <time>2021-07-25T00:03:05Z</time>
      </trkpt>
      <trkpt lat="43.62319" lon="3.23376">
        <ele>420</ele>
        <time>2021-07-25T00:03:12Z</time>
      </trkpt>
      <trkpt lat="43.62308" lon="3.23409">
        <ele>420</ele>
        <time>2021-07-25T00:03:17Z</time>
      </trkpt>
      <trkpt lat="43.62299" lon="3.2346">
        <ele>420</ele>
        <time>2021-07-25T00:03:24Z</time>
      </trkpt>
      <trkpt lat="43.62296" lon="3.23492">
        <ele>419</ele>
        <time>2021-07-25T00:03:28Z</time>
      </trkpt>
      <trkpt lat="43.62296" lon="3.23528">
        <ele>418</ele>
        <time>2021-07-25T00:03:33Z</time>
      </trkpt>
      <trkpt lat="43.62299" lon="3.23637">
        <ele>417</ele>
        <time>2021-07-25T00:03:47Z</time>
      </trkpt>
      <trkpt lat="43.62298" lon="3.23674">
        <ele>417</ele>
        <time>2021-07-25T00:03:52Z</time>
      </trkpt>
      <trkpt lat="43.62291" lon="3.23726">
        <ele>417</ele>
        <time>2021-07-25T00:03:58Z</time>
      </trkpt>
      <trkpt lat="43.62284" lon="3.23754">
        <ele>416</ele>
        <time>2021-07-25T00:04:02Z</time>
      </trkpt>
      <trkpt lat="43.62273" lon="3.23788">
        <ele>414</ele>
        <time>2021-07-25T00:04:07Z</time>
      </trkpt>
      <trkpt lat="43.62206" lon="3.23932">
        <ele>409</ele>
        <time>2021-07-25T00:04:29Z</time>
      </trkpt>
      <trkpt lat="43.62161" lon="3.24038">
        <ele>409</ele>
        <time>2021-07-25T00:04:45Z</time>
      </trkpt>
      <trkpt lat="43.62108" lon="3.24229">
        <ele>405</ele>
        <time>2021-07-25T00:05:11Z</time>
      </trkpt>
      <trkpt lat="43.62027" lon="3.24531">
        <ele>400</ele>
        <time>2021-07-25T00:05:53Z</time>
      </trkpt>
      <trkpt lat="43.62008" lon="3.24592">
        <ele>400</ele>
        <time>2021-07-25T00:06:01Z</time>
      </trkpt>
      <trkpt lat="43.61983" lon="3.24652">
        <ele>404</ele>
        <time>2021-07-25T00:06:10Z</time>
      </trkpt>
      <trkpt lat="43.6196" lon="3.24695">
        <ele>406</ele>
        <time>2021-07-25T00:06:17Z</time>
      </trkpt>
      <trkpt lat="43.61851" lon="3.24872">
        <ele>409</ele>
        <time>2021-07-25T00:06:47Z</time>
      </trkpt>
      <trkpt lat="43.61622" lon="3.25239">
        <ele>419</ele>
        <time>2021-07-25T00:07:49Z</time>
      </trkpt>
      <trkpt lat="43.61579" lon="3.25305">
        <ele>419</ele>
        <time>2021-07-25T00:08:01Z</time>
      </trkpt>
      <trkpt lat="43.61304" lon="3.25614">
        <ele>418</ele>
        <time>2021-07-25T00:09:04Z</time>
      </trkpt>
      <trkpt lat="43.6128" lon="3.2565">
        <ele>418</ele>
        <time>2021-07-25T00:09:10Z</time>
      </trkpt>
      <trkpt lat="43.61265" lon="3.25678">
        <ele>418</ele>
        <time>2021-07-25T00:09:15Z</time>
      </trkpt>
      <trkpt lat="43.61255" lon="3.25703">
        <ele>418</ele>
        <time>2021-07-25T00:09:18Z</time>
      </trkpt>
      <trkpt lat="43.61245" lon="3.2573">
        <ele>419</ele>
        <time>2021-07-25T00:09:22Z</time>
      </trkpt>
      <trkpt lat="43.61234" lon="3.2578">
        <ele>418</ele>
        <time>2021-07-25T00:09:29Z</time>
      </trkpt>
      <trkpt lat="43.6123" lon="3.25811">
        <ele>418</ele>
        <time>2021-07-25T00:09:33Z</time>
      </trkpt>
      <trkpt lat="43.61229" lon="3.25841">
        <ele>418</ele>
        <time>2021-07-25T00:09:37Z</time>
      </trkpt>
      <trkpt lat="43.61229" lon="3.25872">
        <ele>417</ele>
        <time>2021-07-25T00:09:41Z</time>
      </trkpt>
      <trkpt lat="43.6124" lon="3.25972">
        <ele>414</ele>
        <time>2021-07-25T00:09:54Z</time>
      </trkpt>
      <trkpt lat="43.61304" lon="3.26419">
        <ele>405</ele>
        <time>2021-07-25T00:10:53Z</time>
      </trkpt>
      <trkpt lat="43.61307" lon="3.26452">
        <ele>405</ele>
        <time>2021-07-25T00:10:57Z</time>
      </trkpt>
      <trkpt lat="43.61308" lon="3.2648">
        <ele>404</ele>
        <time>2021-07-25T00:11:01Z</time>
      </trkpt>
      <trkpt lat="43.61306" lon="3.26533">
        <ele>403</ele>
        <time>2021-07-25T00:11:07Z</time>
      </trkpt>
      <trkpt lat="43.61303" lon="3.26557">
        <ele>403</ele>
        <time>2021-07-25T00:11:11Z</time>
      </trkpt>
      <trkpt lat="43.61296" lon="3.2659">
        <ele>402</ele>
        <time>2021-07-25T00:11:15Z</time>
      </trkpt>
      <trkpt lat="43.61288" lon="3.26622">
        <ele>402</ele>
        <time>2021-07-25T00:11:19Z</time>
      </trkpt>
      <trkpt lat="43.61279" lon="3.26646">
        <ele>401</ele>
        <time>2021-07-25T00:11:23Z</time>
      </trkpt>
      <trkpt lat="43.61267" lon="3.26672">
        <ele>401</ele>
        <time>2021-07-25T00:11:27Z</time>
      </trkpt>
      <trkpt lat="43.61241" lon="3.26715">
        <ele>400</ele>
        <time>2021-07-25T00:11:34Z</time>
      </trkpt>
      <trkpt lat="43.61218" lon="3.26741">
        <ele>399</ele>
        <time>2021-07-25T00:11:39Z</time>
      </trkpt>
      <trkpt lat="43.61174" lon="3.2678">
        <ele>398</ele>
        <time>2021-07-25T00:11:49Z</time>
      </trkpt>
      <trkpt lat="43.61148" lon="3.26799">
        <ele>397</ele>
        <time>2021-07-25T00:11:54Z</time>
      </trkpt>
      <trkpt lat="43.61016" lon="3.2688">
        <ele>397</ele>
        <time>2021-07-25T00:12:19Z</time>
      </trkpt>
      <trkpt lat="43.60969" lon="3.26917">
        <ele>398</ele>
        <time>2021-07-25T00:12:29Z</time>
      </trkpt>
      <trkpt lat="43.6084" lon="3.27042">
        <ele>399</ele>
        <time>2021-07-25T00:12:57Z</time>
      </trkpt>
      <trkpt lat="43.60804" lon="3.27083">
        <ele>399</ele>
        <time>2021-07-25T00:13:05Z</time>
      </trkpt>
      <trkpt lat="43.60774" lon="3.27131">
        <ele>397</ele>
        <time>2021-07-25T00:13:14Z</time>
      </trkpt>
      <trkpt lat="43.60753" lon="3.27182">
        <ele>396</ele>
        <time>2021-07-25T00:13:21Z</time>
      </trkpt>
      <trkpt lat="43.60743" lon="3.27215">
        <ele>396</ele>
        <time>2021-07-25T00:13:26Z</time>
      </trkpt>
      <trkpt lat="43.60737" lon="3.27248">
        <ele>396</ele>
        <time>2021-07-25T00:13:30Z</time>
      </trkpt>
      <trkpt lat="43.60732" lon="3.27307">
        <ele>393</ele>
        <time>2021-07-25T00:13:38Z</time>
      </trkpt>
      <trkpt lat="43.60736" lon="3.27362">
        <ele>392</ele>
        <time>2021-07-25T00:13:45Z</time>
      </trkpt>
      <trkpt lat="43.60747" lon="3.27422">
        <ele>391</ele>
        <time>2021-07-25T00:13:53Z</time>
      </trkpt>
      <trkpt lat="43.60767" lon="3.27491">
        <ele>390</ele>
        <time>2021-07-25T00:14:03Z</time>
      </trkpt>
      <trkpt lat="43.61056" lon="3.28422">
        <ele>369</ele>
        <time>2021-07-25T00:16:13Z</time>
      </trkpt>
      <trkpt lat="43.61076" lon="3.28495">
        <ele>369</ele>
        <time>2021-07-25T00:16:23Z</time>
      </trkpt>
      <trkpt lat="43.61086" lon="3.28562">
        <ele>368</ele>
        <time>2021-07-25T00:16:32Z</time>
      </trkpt>
      <trkpt lat="43.61091" lon="3.28618">
        <ele>368</ele>
        <time>2021-07-25T00:16:39Z</time>
      </trkpt>
      <trkpt lat="43.61101" lon="3.2963">
        <ele>387</ele>
        <time>2021-07-25T00:18:50Z</time>
      </trkpt>
      <trkpt lat="43.61105" lon="3.29745">
        <ele>388</ele>
        <time>2021-07-25T00:19:04Z</time>
      </trkpt>
      <trkpt lat="43.61111" lon="3.29785">
        <ele>387</ele>
        <time>2021-07-25T00:19:10Z</time>
      </trkpt>
      <trkpt lat="43.61122" lon="3.29823">
        <ele>387</ele>
        <time>2021-07-25T00:19:15Z</time>
      </trkpt>
      <trkpt lat="43.61137" lon="3.29858">
        <ele>387</ele>
        <time>2021-07-25T00:19:20Z</time>
      </trkpt>
      <trkpt lat="43.6115" lon="3.29881">
        <ele>387</ele>
        <time>2021-07-25T00:19:24Z</time>
      </trkpt>
      <trkpt lat="43.612" lon="3.29942">
        <ele>388</ele>
        <time>2021-07-25T00:19:36Z</time>
      </trkpt>
      <trkpt lat="43.61227" lon="3.29982">
        <ele>387</ele>
        <time>2021-07-25T00:19:43Z</time>
      </trkpt>
      <trkpt lat="43.6124" lon="3.3001">
        <ele>386</ele>
        <time>2021-07-25T00:19:47Z</time>
      </trkpt>
      <trkpt lat="43.61253" lon="3.30049">
        <ele>385</ele>
        <time>2021-07-25T00:19:53Z</time>
      </trkpt>
      <trkpt lat="43.61258" lon="3.30084">
        <ele>384</ele>
        <time>2021-07-25T00:19:57Z</time>
      </trkpt>
      <trkpt lat="43.61262" lon="3.30121">
        <ele>385</ele>
        <time>2021-07-25T00:20:02Z</time>
      </trkpt>
      <trkpt lat="43.61261" lon="3.30165">
        <ele>387</ele>
        <time>2021-07-25T00:20:08Z</time>
      </trkpt>
      <trkpt lat="43.61257" lon="3.3019">
        <ele>388</ele>
        <time>2021-07-25T00:20:11Z</time>
      </trkpt>
      <trkpt lat="43.6125" lon="3.30218">
        <ele>390</ele>
        <time>2021-07-25T00:20:15Z</time>
      </trkpt>
      <trkpt lat="43.61241" lon="3.30245">
        <ele>391</ele>
        <time>2021-07-25T00:20:19Z</time>
      </trkpt>
      <trkpt lat="43.6123" lon="3.30271">
        <ele>391</ele>
        <time>2021-07-25T00:20:23Z</time>
      </trkpt>
      <trkpt lat="43.61219" lon="3.30289">
        <ele>391</ele>
        <time>2021-07-25T00:20:26Z</time>
      </trkpt>
      <trkpt lat="43.61205" lon="3.3031">
        <ele>390</ele>
        <time>2021-07-25T00:20:29Z</time>
      </trkpt>
      <trkpt lat="43.61191" lon="3.30327">
        <ele>389</ele>
        <time>2021-07-25T00:20:33Z</time>
      </trkpt>
      <trkpt lat="43.61165" lon="3.30351">
        <ele>388</ele>
        <time>2021-07-25T00:20:38Z</time>
      </trkpt>
      <trkpt lat="43.61136" lon="3.30367">
        <ele>387</ele>
        <time>2021-07-25T00:20:44Z</time>
      </trkpt>
      <trkpt lat="43.611" lon="3.30377">
        <ele>385</ele>
        <time>2021-07-25T00:20:50Z</time>
      </trkpt>
      <trkpt lat="43.61078" lon="3.30379">
        <ele>384</ele>
        <time>2021-07-25T00:20:54Z</time>
      </trkpt>
      <trkpt lat="43.6106" lon="3.30377">
        <ele>384</ele>
        <time>2021-07-25T00:20:57Z</time>
      </trkpt>
      <trkpt lat="43.61014" lon="3.30365">
        <ele>385</ele>
        <time>2021-07-25T00:21:06Z</time>
      </trkpt>
      <trkpt lat="43.60942" lon="3.30341">
        <ele>382</ele>
        <time>2021-07-25T00:21:19Z</time>
      </trkpt>
      <trkpt lat="43.6092" lon="3.30337">
        <ele>381</ele>
        <time>2021-07-25T00:21:23Z</time>
      </trkpt>
      <trkpt lat="43.60888" lon="3.30339">
        <ele>381</ele>
        <time>2021-07-25T00:21:29Z</time>
      </trkpt>
      <trkpt lat="43.60872" lon="3.30343">
        <ele>380</ele>
        <time>2021-07-25T00:21:31Z</time>
      </trkpt>
      <trkpt lat="43.60854" lon="3.3035">
        <ele>380</ele>
        <time>2021-07-25T00:21:35Z</time>
      </trkpt>
      <trkpt lat="43.60839" lon="3.30361">
        <ele>380</ele>
        <time>2021-07-25T00:21:38Z</time>
      </trkpt>
      <trkpt lat="43.60812" lon="3.30388">
        <ele>381</ele>
        <time>2021-07-25T00:21:44Z</time>
      </trkpt>
      <trkpt lat="43.60799" lon="3.30408">
        <ele>381</ele>
        <time>2021-07-25T00:21:47Z</time>
      </trkpt>
      <trkpt lat="43.60788" lon="3.30429">
        <ele>381</ele>
        <time>2021-07-25T00:21:50Z</time>
      </trkpt>
      <trkpt lat="43.60779" lon="3.30454">
        <ele>381</ele>
        <time>2021-07-25T00:21:54Z</time>
      </trkpt>
      <trkpt lat="43.60773" lon="3.30477">
        <ele>380</ele>
        <time>2021-07-25T00:21:57Z</time>
      </trkpt>
      <trkpt lat="43.6077" lon="3.30501">
        <ele>380</ele>
        <time>2021-07-25T00:22:00Z</time>
      </trkpt>
      <trkpt lat="43.60768" lon="3.3053">
        <ele>379</ele>
        <time>2021-07-25T00:22:04Z</time>
      </trkpt>
      <trkpt lat="43.6077" lon="3.30559">
        <ele>379</ele>
        <time>2021-07-25T00:22:08Z</time>
      </trkpt>
      <trkpt lat="43.60779" lon="3.30603">
        <ele>378</ele>
        <time>2021-07-25T00:22:14Z</time>
      </trkpt>
      <trkpt lat="43.60791" lon="3.30636">
        <ele>379</ele>
        <time>2021-07-25T00:22:19Z</time>
      </trkpt>
      <trkpt lat="43.60848" lon="3.30746">
        <ele>379</ele>
        <time>2021-07-25T00:22:36Z</time>
      </trkpt>
      <trkpt lat="43.60859" lon="3.3077">
        <ele>377</ele>
        <time>2021-07-25T00:22:40Z</time>
      </trkpt>
      <trkpt lat="43.60865" lon="3.30792">
        <ele>375</ele>
        <time>2021-07-25T00:22:43Z</time>
      </trkpt>
      <trkpt lat="43.60871" lon="3.30817">
        <ele>373</ele>
        <time>2021-07-25T00:22:46Z</time>
      </trkpt>
      <trkpt lat="43.60875" lon="3.30847">
        <ele>370</ele>
        <time>2021-07-25T00:22:50Z</time>
      </trkpt>
      <trkpt lat="43.60877" lon="3.30881">
        <ele>367</ele>
        <time>2021-07-25T00:22:54Z</time>
      </trkpt>
      <trkpt lat="43.60874" lon="3.30912">
        <ele>364</ele>
        <time>2021-07-25T00:22:58Z</time>
      </trkpt>
      <trkpt lat="43.60871" lon="3.30941">
        <ele>363</ele>
        <time>2021-07-25T00:23:02Z</time>
      </trkpt>
      <trkpt lat="43.60864" lon="3.3097">
        <ele>362</ele>
        <time>2021-07-25T00:23:06Z</time>
      </trkpt>
      <trkpt lat="43.60856" lon="3.30992">
        <ele>361</ele>
        <time>2021-07-25T00:23:09Z</time>
      </trkpt>
      <trkpt lat="43.60842" lon="3.31022">
        <ele>360</ele>
        <time>2021-07-25T00:23:14Z</time>
      </trkpt>
      <trkpt lat="43.60824" lon="3.31051">
        <ele>359</ele>
        <time>2021-07-25T00:23:19Z</time>
      </trkpt>
      <trkpt lat="43.60807" lon="3.31073">
        <ele>358</ele>
        <time>2021-07-25T00:23:23Z</time>
      </trkpt>
      <trkpt lat="43.60719" lon="3.31166">
        <ele>357</ele>
        <time>2021-07-25T00:23:43Z</time>
      </trkpt>
      <trkpt lat="43.60685" lon="3.31207">
        <ele>355</ele>
        <time>2021-07-25T00:23:51Z</time>
      </trkpt>
      <trkpt lat="43.60669" lon="3.31235">
        <ele>355</ele>
        <time>2021-07-25T00:23:55Z</time>
      </trkpt>
      <trkpt lat="43.60658" lon="3.31264">
        <ele>354</ele>
        <time>2021-07-25T00:23:59Z</time>
      </trkpt>
      <trkpt lat="43.6065" lon="3.31292">
        <ele>352</ele>
        <time>2021-07-25T00:24:03Z</time>
      </trkpt>
      <trkpt lat="43.60645" lon="3.31321">
        <ele>350</ele>
        <time>2021-07-25T00:24:07Z</time>
      </trkpt>
      <trkpt lat="43.60643" lon="3.31348">
        <ele>347</ele>
        <time>2021-07-25T00:24:11Z</time>
      </trkpt>
      <trkpt lat="43.60644" lon="3.31374">
        <ele>345</ele>
        <time>2021-07-25T00:24:14Z</time>
      </trkpt>
      <trkpt lat="43.60647" lon="3.31398">
        <ele>343</ele>
        <time>2021-07-25T00:24:17Z</time>
      </trkpt>
      <trkpt lat="43.60654" lon="3.31429">
        <ele>341</ele>
        <time>2021-07-25T00:24:21Z</time>
      </trkpt>
      <trkpt lat="43.60665" lon="3.3146">
        <ele>340</ele>
        <time>2021-07-25T00:24:26Z</time>
      </trkpt>
      <trkpt lat="43.60674" lon="3.3148">
        <ele>339</ele>
        <time>2021-07-25T00:24:29Z</time>
      </trkpt>
      <trkpt lat="43.60689" lon="3.31503">
        <ele>338</ele>
        <time>2021-07-25T00:24:33Z</time>
      </trkpt>
      <trkpt lat="43.60703" lon="3.31522">
        <ele>338</ele>
        <time>2021-07-25T00:24:36Z</time>
      </trkpt>
      <trkpt lat="43.60722" lon="3.31539">
        <ele>337</ele>
        <time>2021-07-25T00:24:40Z</time>
      </trkpt>
      <trkpt lat="43.60753" lon="3.31556">
        <ele>335</ele>
        <time>2021-07-25T00:24:46Z</time>
      </trkpt>
      <trkpt lat="43.60772" lon="3.31563">
        <ele>331</ele>
        <time>2021-07-25T00:24:50Z</time>
      </trkpt>
      <trkpt lat="43.60787" lon="3.31565">
        <ele>329</ele>
        <time>2021-07-25T00:24:52Z</time>
      </trkpt>
      <trkpt lat="43.60808" lon="3.31565">
        <ele>326</ele>
        <time>2021-07-25T00:24:56Z</time>
      </trkpt>
      <trkpt lat="43.60854" lon="3.31554">
        <ele>320</ele>
        <time>2021-07-25T00:25:05Z</time>
      </trkpt>
      <trkpt lat="43.6094" lon="3.31523">
        <ele>310</ele>
        <time>2021-07-25T00:25:20Z</time>
      </trkpt>
      <trkpt lat="43.60974" lon="3.31516">
        <ele>309</ele>
        <time>2021-07-25T00:25:26Z</time>
      </trkpt>
      <trkpt lat="43.61008" lon="3.3152">
        <ele>307</ele>
        <time>2021-07-25T00:25:33Z</time>
      </trkpt>
      <trkpt lat="43.61054" lon="3.31543">
        <ele>304</ele>
        <time>2021-07-25T00:25:41Z</time>
      </trkpt>
      <trkpt lat="43.61085" lon="3.3157">
        <ele>300</ele>
        <time>2021-07-25T00:25:48Z</time>
      </trkpt>
      <trkpt lat="43.61105" lon="3.31595">
        <ele>292</ele>
        <time>2021-07-25T00:25:53Z</time>
      </trkpt>
      <trkpt lat="43.61121" lon="3.31624">
        <ele>287</ele>
        <time>2021-07-25T00:25:57Z</time>
      </trkpt>
      <trkpt lat="43.61133" lon="3.31659">
        <ele>283</ele>
        <time>2021-07-25T00:26:02Z</time>
      </trkpt>
      <trkpt lat="43.61142" lon="3.31698">
        <ele>282</ele>
        <time>2021-07-25T00:26:08Z</time>
      </trkpt>
      <trkpt lat="43.61148" lon="3.31765">
        <ele>282</ele>
        <time>2021-07-25T00:26:16Z</time>
      </trkpt>
      <trkpt lat="43.61151" lon="3.32077">
        <ele>281</ele>
        <time>2021-07-25T00:26:56Z</time>
      </trkpt>
      <trkpt lat="43.61147" lon="3.32118">
        <ele>280</ele>
        <time>2021-07-25T00:27:02Z</time>
      </trkpt>
      <trkpt lat="43.61139" lon="3.3216">
        <ele>279</ele>
        <time>2021-07-25T00:27:07Z</time>
      </trkpt>
      <trkpt lat="43.61131" lon="3.32185">
        <ele>279</ele>
        <time>2021-07-25T00:27:11Z</time>
      </trkpt>
      <trkpt lat="43.61118" lon="3.32208">
        <ele>278</ele>
        <time>2021-07-25T00:27:15Z</time>
      </trkpt>
      <trkpt lat="43.61095" lon="3.32236">
        <ele>277</ele>
        <time>2021-07-25T00:27:20Z</time>
      </trkpt>
      <trkpt lat="43.61064" lon="3.32257">
        <ele>277</ele>
        <time>2021-07-25T00:27:26Z</time>
      </trkpt>
      <trkpt lat="43.61041" lon="3.32264">
        <ele>277</ele>
        <time>2021-07-25T00:27:30Z</time>
      </trkpt>
      <trkpt lat="43.61022" lon="3.32265">
        <ele>277</ele>
        <time>2021-07-25T00:27:34Z</time>
      </trkpt>
      <trkpt lat="43.6099" lon="3.32259">
        <ele>276</ele>
        <time>2021-07-25T00:27:40Z</time>
      </trkpt>
      <trkpt lat="43.6095" lon="3.32246">
        <ele>276</ele>
        <time>2021-07-25T00:27:47Z</time>
      </trkpt>
      <trkpt lat="43.60923" lon="3.32241">
        <ele>276</ele>
        <time>2021-07-25T00:27:52Z</time>
      </trkpt>
      <trkpt lat="43.60894" lon="3.32242">
        <ele>276</ele>
        <time>2021-07-25T00:27:57Z</time>
      </trkpt>
      <trkpt lat="43.60867" lon="3.32251">
        <ele>277</ele>
        <time>2021-07-25T00:28:02Z</time>
      </trkpt>
      <trkpt lat="43.60842" lon="3.32268">
        <ele>278</ele>
        <time>2021-07-25T00:28:07Z</time>
      </trkpt>
      <trkpt lat="43.60818" lon="3.32295">
        <ele>279</ele>
        <time>2021-07-25T00:28:12Z</time>
      </trkpt>
      <trkpt lat="43.60747" lon="3.32405">
        <ele>277</ele>
        <time>2021-07-25T00:28:31Z</time>
      </trkpt>
      <trkpt lat="43.60715" lon="3.32468">
        <ele>281</ele>
        <time>2021-07-25T00:28:41Z</time>
      </trkpt>
      <trkpt lat="43.60699" lon="3.32517">
        <ele>282</ele>
        <time>2021-07-25T00:28:48Z</time>
      </trkpt>
      <trkpt lat="43.60687" lon="3.32576">
        <ele>281</ele>
        <time>2021-07-25T00:28:56Z</time>
      </trkpt>
      <trkpt lat="43.60685" lon="3.3262">
        <ele>280</ele>
        <time>2021-07-25T00:29:02Z</time>
      </trkpt>
      <trkpt lat="43.60687" lon="3.3267">
        <ele>278</ele>
        <time>2021-07-25T00:29:08Z</time>
      </trkpt>
      <trkpt lat="43.60697" lon="3.32729">
        <ele>280</ele>
        <time>2021-07-25T00:29:16Z</time>
      </trkpt>
      <trkpt lat="43.60713" lon="3.32792">
        <ele>283</ele>
        <time>2021-07-25T00:29:25Z</time>
      </trkpt>
      <trkpt lat="43.60934" lon="3.33478">
        <ele>282</ele>
        <time>2021-07-25T00:31:01Z</time>
      </trkpt>
      <trkpt lat="43.60944" lon="3.33524">
        <ele>281</ele>
        <time>2021-07-25T00:31:07Z</time>
      </trkpt>
      <trkpt lat="43.60948" lon="3.33559">
        <ele>281</ele>
        <time>2021-07-25T00:31:12Z</time>
      </trkpt>
      <trkpt lat="43.60947" lon="3.33657">
        <ele>284</ele>
        <time>2021-07-25T00:31:25Z</time>
      </trkpt>
      <trkpt lat="43.60949" lon="3.33718">
        <ele>284</ele>
        <time>2021-07-25T00:31:33Z</time>
      </trkpt>
      <trkpt lat="43.6096" lon="3.3378">
        <ele>285</ele>
        <time>2021-07-25T00:31:41Z</time>
      </trkpt>
      <trkpt lat="43.60963" lon="3.33826">
        <ele>284</ele>
        <time>2021-07-25T00:31:47Z</time>
      </trkpt>
      <trkpt lat="43.60964" lon="3.33874">
        <ele>285</ele>
        <time>2021-07-25T00:31:53Z</time>
      </trkpt>
      <trkpt lat="43.60956" lon="3.34018">
        <ele>284</ele>
        <time>2021-07-25T00:32:11Z</time>
      </trkpt>
      <trkpt lat="43.6095" lon="3.34077">
        <ele>283</ele>
        <time>2021-07-25T00:32:19Z</time>
      </trkpt>
      <trkpt lat="43.60951" lon="3.34126">
        <ele>284</ele>
        <time>2021-07-25T00:32:25Z</time>
      </trkpt>
      <trkpt lat="43.60956" lon="3.34176">
        <ele>284</ele>
        <time>2021-07-25T00:32:32Z</time>
      </trkpt>
      <trkpt lat="43.60968" lon="3.34236">
        <ele>284</ele>
        <time>2021-07-25T00:32:40Z</time>
      </trkpt>
      <trkpt lat="43.60975" lon="3.34291">
        <ele>283</ele>
        <time>2021-07-25T00:32:47Z</time>
      </trkpt>
      <trkpt lat="43.60977" lon="3.34337">
        <ele>282</ele>
        <time>2021-07-25T00:32:53Z</time>
      </trkpt>
      <trkpt lat="43.60959" lon="3.34588">
        <ele>282</ele>
        <time>2021-07-25T00:33:26Z</time>
      </trkpt>
      <trkpt lat="43.60947" lon="3.34712">
        <ele>276</ele>
        <time>2021-07-25T00:33:42Z</time>
      </trkpt>
      <trkpt lat="43.60937" lon="3.34758">
        <ele>274</ele>
        <time>2021-07-25T00:33:48Z</time>
      </trkpt>
      <trkpt lat="43.60914" lon="3.34826">
        <ele>274</ele>
        <time>2021-07-25T00:33:58Z</time>
      </trkpt>
      <trkpt lat="43.60896" lon="3.3487">
        <ele>274</ele>
        <time>2021-07-25T00:34:04Z</time>
      </trkpt>
      <trkpt lat="43.60807" lon="3.35032">
        <ele>274</ele>
        <time>2021-07-25T00:34:30Z</time>
      </trkpt>
      <trkpt lat="43.60776" lon="3.35064">
        <ele>272</ele>
        <time>2021-07-25T00:34:37Z</time>
      </trkpt>
      <trkpt lat="43.60741" lon="3.35096">
        <ele>270</ele>
        <time>2021-07-25T00:34:45Z</time>
      </trkpt>
      <trkpt lat="43.60695" lon="3.3515">
        <ele>268</ele>
        <time>2021-07-25T00:34:55Z</time>
      </trkpt>
      <trkpt lat="43.60674" lon="3.35178">
        <ele>267</ele>
        <time>2021-07-25T00:35:01Z</time>
      </trkpt>
      <trkpt lat="43.60657" lon="3.35205">
        <ele>267</ele>
        <time>2021-07-25T00:35:05Z</time>
      </trkpt>
      <trkpt lat="43.60642" lon="3.35239">
        <ele>269</ele>
        <time>2021-07-25T00:35:10Z</time>
      </trkpt>
      <trkpt lat="43.60632" lon="3.35293">
        <ele>269</ele>
        <time>2021-07-25T00:35:17Z</time>
      </trkpt>
      <trkpt lat="43.60631" lon="3.35336">
        <ele>267</ele>
        <time>2021-07-25T00:35:23Z</time>
      </trkpt>
      <trkpt lat="43.60639" lon="3.3549">
        <ele>264</ele>
        <time>2021-07-25T00:35:43Z</time>
      </trkpt>
      <trkpt lat="43.60632" lon="3.35534">
        <ele>262</ele>
        <time>2021-07-25T00:35:49Z</time>
      </trkpt>
      <trkpt lat="43.60542" lon="3.35807">
        <ele>259</ele>
        <time>2021-07-25T00:36:27Z</time>
      </trkpt>
      <trkpt lat="43.60534" lon="3.35853">
        <ele>258</ele>
        <time>2021-07-25T00:36:33Z</time>
      </trkpt>
      <trkpt lat="43.60534" lon="3.35902">
        <ele>255</ele>
        <time>2021-07-25T00:36:40Z</time>
      </trkpt>
      <trkpt lat="43.60571" lon="3.36206">
        <ele>243</ele>
        <time>2021-07-25T00:37:20Z</time>
      </trkpt>
      <trkpt lat="43.60576" lon="3.36253">
        <ele>241</ele>
        <time>2021-07-25T00:37:26Z</time>
      </trkpt>
      <trkpt lat="43.60574" lon="3.36293">
        <ele>243</ele>
        <time>2021-07-25T00:37:31Z</time>
      </trkpt>
      <trkpt lat="43.60571" lon="3.36317">
        <ele>244</ele>
        <time>2021-07-25T00:37:34Z</time>
      </trkpt>
      <trkpt lat="43.60565" lon="3.36343">
        <ele>245</ele>
        <time>2021-07-25T00:37:37Z</time>
      </trkpt>
      <trkpt lat="43.6055" lon="3.36391">
        <ele>245</ele>
        <time>2021-07-25T00:37:44Z</time>
      </trkpt>
      <trkpt lat="43.60512" lon="3.36497">
        <ele>240</ele>
        <time>2021-07-25T00:37:59Z</time>
      </trkpt>
      <trkpt lat="43.60501" lon="3.36538">
        <ele>238</ele>
        <time>2021-07-25T00:38:05Z</time>
      </trkpt>
      <trkpt lat="43.60498" lon="3.36564">
        <ele>238</ele>
        <time>2021-07-25T00:38:08Z</time>
      </trkpt>
      <trkpt lat="43.60498" lon="3.3659">
        <ele>238</ele>
        <time>2021-07-25T00:38:12Z</time>
      </trkpt>
      <trkpt lat="43.60501" lon="3.3661">
        <ele>238</ele>
        <time>2021-07-25T00:38:14Z</time>
      </trkpt>
      <trkpt lat="43.60507" lon="3.36626">
        <ele>239</ele>
        <time>2021-07-25T00:38:17Z</time>
      </trkpt>
      <trkpt lat="43.60524" lon="3.36658">
        <ele>237</ele>
        <time>2021-07-25T00:38:22Z</time>
      </trkpt>
      <trkpt lat="43.60547" lon="3.36687">
        <ele>233</ele>
        <time>2021-07-25T00:38:27Z</time>
      </trkpt>
      <trkpt lat="43.60561" lon="3.36706">
        <ele>229</ele>
        <time>2021-07-25T00:38:31Z</time>
      </trkpt>
      <trkpt lat="43.60576" lon="3.36736">
        <ele>225</ele>
        <time>2021-07-25T00:38:36Z</time>
      </trkpt>
      <trkpt lat="43.60584" lon="3.36768">
        <ele>223</ele>
        <time>2021-07-25T00:38:40Z</time>
      </trkpt>
      <trkpt lat="43.60586" lon="3.36793">
        <ele>222</ele>
        <time>2021-07-25T00:38:43Z</time>
      </trkpt>
      <trkpt lat="43.60585" lon="3.36819">
        <ele>222</ele>
        <time>2021-07-25T00:38:47Z</time>
      </trkpt>
      <trkpt lat="43.6057" lon="3.36924">
        <ele>226</ele>
        <time>2021-07-25T00:39:00Z</time>
      </trkpt>
      <trkpt lat="43.60571" lon="3.36947">
        <ele>227</ele>
        <time>2021-07-25T00:39:03Z</time>
      </trkpt>
      <trkpt lat="43.60579" lon="3.36974">
        <ele>227</ele>
        <time>2021-07-25T00:39:07Z</time>
      </trkpt>
      <trkpt lat="43.60588" lon="3.36993">
        <ele>226</ele>
        <time>2021-07-25T00:39:10Z</time>
      </trkpt>
      <trkpt lat="43.60598" lon="3.37005">
        <ele>226</ele>
        <time>2021-07-25T00:39:12Z</time>
      </trkpt>
      <trkpt lat="43.60615" lon="3.37022">
        <ele>226</ele>
        <time>2021-07-25T00:39:16Z</time>
      </trkpt>
      <trkpt lat="43.6065" lon="3.37052">
        <ele>222</ele>
        <time>2021-07-25T00:39:23Z</time>
      </trkpt>
      <trkpt lat="43.60665" lon="3.37074">
        <ele>219</ele>
        <time>2021-07-25T00:39:27Z</time>
      </trkpt>
      <trkpt lat="43.60672" lon="3.37089">
        <ele>220</ele>
        <time>2021-07-25T00:39:30Z</time>
      </trkpt>
      <trkpt lat="43.60677" lon="3.37109">
        <ele>220</ele>
        <time>2021-07-25T00:39:32Z</time>
      </trkpt>
      <trkpt lat="43.60679" lon="3.37131">
        <ele>221</ele>
        <time>2021-07-25T00:39:35Z</time>
      </trkpt>
      <trkpt lat="43.60678" lon="3.37153">
        <ele>221</ele>
        <time>2021-07-25T00:39:38Z</time>
      </trkpt>
      <trkpt lat="43.6067" lon="3.37207">
        <ele>218</ele>
        <time>2021-07-25T00:39:45Z</time>
      </trkpt>
      <trkpt lat="43.60668" lon="3.37285">
        <ele>215</ele>
        <time>2021-07-25T00:39:55Z</time>
      </trkpt>
      <trkpt lat="43.60661" lon="3.37319">
        <ele>213</ele>
        <time>2021-07-25T00:40:00Z</time>
      </trkpt>
      <trkpt lat="43.60648" lon="3.3735">
        <ele>213</ele>
        <time>2021-07-25T00:40:04Z</time>
      </trkpt>
      <trkpt lat="43.6056" lon="3.37516">
        <ele>212</ele>
        <time>2021-07-25T00:40:31Z</time>
      </trkpt>
      <trkpt lat="43.60551" lon="3.37543">
        <ele>214</ele>
        <time>2021-07-25T00:40:35Z</time>
      </trkpt>
      <trkpt lat="43.60549" lon="3.37567">
        <ele>214</ele>
        <time>2021-07-25T00:40:38Z</time>
      </trkpt>
      <trkpt lat="43.6055" lon="3.3759">
        <ele>213</ele>
        <time>2021-07-25T00:40:41Z</time>
      </trkpt>
      <trkpt lat="43.60553" lon="3.37604">
        <ele>213</ele>
        <time>2021-07-25T00:40:43Z</time>
      </trkpt>
      <trkpt lat="43.60565" lon="3.37633">
        <ele>211</ele>
        <time>2021-07-25T00:40:47Z</time>
      </trkpt>
      <trkpt lat="43.60577" lon="3.3765">
        <ele>208</ele>
        <time>2021-07-25T00:40:50Z</time>
      </trkpt>
      <trkpt lat="43.6059" lon="3.3766">
        <ele>206</ele>
        <time>2021-07-25T00:40:53Z</time>
      </trkpt>
      <trkpt lat="43.60641" lon="3.3769">
        <ele>203</ele>
        <time>2021-07-25T00:41:03Z</time>
      </trkpt>
      <trkpt lat="43.60652" lon="3.37698">
        <ele>202</ele>
        <time>2021-07-25T00:41:05Z</time>
      </trkpt>
      <trkpt lat="43.60661" lon="3.37709">
        <ele>201</ele>
        <time>2021-07-25T00:41:07Z</time>
      </trkpt>
      <trkpt lat="43.6067" lon="3.37723">
        <ele>201</ele>
        <time>2021-07-25T00:41:09Z</time>
      </trkpt>
      <trkpt lat="43.60676" lon="3.37737">
        <ele>203</ele>
        <time>2021-07-25T00:41:11Z</time>
      </trkpt>
      <trkpt lat="43.60682" lon="3.37761">
        <ele>205</ele>
        <time>2021-07-25T00:41:15Z</time>
      </trkpt>
      <trkpt lat="43.60685" lon="3.37838">
        <ele>208</ele>
        <time>2021-07-25T00:41:25Z</time>
      </trkpt>
      <trkpt lat="43.60688" lon="3.37856">
        <ele>208</ele>
        <time>2021-07-25T00:41:27Z</time>
      </trkpt>
      <trkpt lat="43.60696" lon="3.37877">
        <ele>207</ele>
        <time>2021-07-25T00:41:30Z</time>
      </trkpt>
      <trkpt lat="43.60707" lon="3.37894">
        <ele>204</ele>
        <time>2021-07-25T00:41:33Z</time>
      </trkpt>
      <trkpt lat="43.60717" lon="3.37907">
        <ele>200</ele>
        <time>2021-07-25T00:41:35Z</time>
      </trkpt>
      <trkpt lat="43.60731" lon="3.37917">
        <ele>195</ele>
        <time>2021-07-25T00:41:38Z</time>
      </trkpt>
      <trkpt lat="43.60806" lon="3.37962">
        <ele>191</ele>
        <time>2021-07-25T00:41:53Z</time>
      </trkpt>
      <trkpt lat="43.60818" lon="3.37974">
        <ele>190</ele>
        <time>2021-07-25T00:41:55Z</time>
      </trkpt>
      <trkpt lat="43.60828" lon="3.37987">
        <ele>189</ele>
        <time>2021-07-25T00:41:58Z</time>
      </trkpt>
      <trkpt lat="43.60836" lon="3.38001">
        <ele>188</ele>
        <time>2021-07-25T00:42:00Z</time>
      </trkpt>
      <trkpt lat="43.60842" lon="3.38021">
        <ele>187</ele>
        <time>2021-07-25T00:42:03Z</time>
      </trkpt>
      <trkpt lat="43.60846" lon="3.3804">
        <ele>186</ele>
        <time>2021-07-25T00:42:05Z</time>
      </trkpt>
      <trkpt lat="43.60846" lon="3.38057">
        <ele>186</ele>
        <time>2021-07-25T00:42:08Z</time>
      </trkpt>
      <trkpt lat="43.6084" lon="3.3814">
        <ele>185</ele>
        <time>2021-07-25T00:42:18Z</time>
      </trkpt>
      <trkpt lat="43.60841" lon="3.3816">
        <ele>185</ele>
        <time>2021-07-25T00:42:21Z</time>
      </trkpt>
      <trkpt lat="43.6085" lon="3.38199">
        <ele>187</ele>
        <time>2021-07-25T00:42:26Z</time>
      </trkpt>
      <trkpt lat="43.60857" lon="3.38215">
        <ele>187</ele>
        <time>2021-07-25T00:42:29Z</time>
      </trkpt>
      <trkpt lat="43.60867" lon="3.38231">
        <ele>186</ele>
        <time>2021-07-25T00:42:31Z</time>
      </trkpt>
      <trkpt lat="43.6095" lon="3.38339">
        <ele>174</ele>
        <time>2021-07-25T00:42:52Z</time>
      </trkpt>
      <trkpt lat="43.60961" lon="3.38353">
        <ele>172</ele>
        <time>2021-07-25T00:42:54Z</time>
      </trkpt>
      <trkpt lat="43.60965" lon="3.38378">
        <ele>171</ele>
        <time>2021-07-25T00:42:58Z</time>
      </trkpt>
      <trkpt lat="43.60968" lon="3.38406">
        <ele>170</ele>
        <time>2021-07-25T00:43:01Z</time>
      </trkpt>
      <trkpt lat="43.60967" lon="3.38435">
        <ele>169</ele>
        <time>2021-07-25T00:43:05Z</time>
      </trkpt>
      <trkpt lat="43.60959" lon="3.38468">
        <ele>169</ele>
        <time>2021-07-25T00:43:10Z</time>
      </trkpt>
      <trkpt lat="43.60939" lon="3.38519">
        <ele>171</ele>
        <time>2021-07-25T00:43:17Z</time>
      </trkpt>
      <trkpt lat="43.6092" lon="3.38591">
        <ele>168</ele>
        <time>2021-07-25T00:43:27Z</time>
      </trkpt>
      <trkpt lat="43.60913" lon="3.38625">
        <ele>168</ele>
        <time>2021-07-25T00:43:31Z</time>
      </trkpt>
      <trkpt lat="43.60912" lon="3.38644">
        <ele>168</ele>
        <time>2021-07-25T00:43:34Z</time>
      </trkpt>
      <trkpt lat="43.60914" lon="3.38665">
        <ele>166</ele>
        <time>2021-07-25T00:43:37Z</time>
      </trkpt>
      <trkpt lat="43.60926" lon="3.38715">
        <ele>167</ele>
        <time>2021-07-25T00:43:43Z</time>
      </trkpt>
      <trkpt lat="43.60931" lon="3.38727">
        <ele>168</ele>
        <time>2021-07-25T00:43:45Z</time>
      </trkpt>
      <trkpt lat="43.60939" lon="3.38737">
        <ele>167</ele>
        <time>2021-07-25T00:43:47Z</time>
      </trkpt>
      <trkpt lat="43.6096" lon="3.38752">
        <ele>164</ele>
        <time>2021-07-25T00:43:51Z</time>
      </trkpt>
      <trkpt lat="43.61033" lon="3.38786">
        <ele>161</ele>
        <time>2021-07-25T00:44:05Z</time>
      </trkpt>
      <trkpt lat="43.61044" lon="3.38801">
        <ele>161</ele>
        <time>2021-07-25T00:44:08Z</time>
      </trkpt>
      <trkpt lat="43.61054" lon="3.38821">
        <ele>161</ele>
        <time>2021-07-25T00:44:11Z</time>
      </trkpt>
      <trkpt lat="43.61062" lon="3.38848">
        <ele>161</ele>
        <time>2021-07-25T00:44:15Z</time>
      </trkpt>
      <trkpt lat="43.61079" lon="3.3899">
        <ele>162</ele>
        <time>2021-07-25T00:44:33Z</time>
      </trkpt>
      <trkpt lat="43.61099" lon="3.39059">
        <ele>162</ele>
        <time>2021-07-25T00:44:43Z</time>
      </trkpt>
      <trkpt lat="43.61103" lon="3.3908">
        <ele>162</ele>
        <time>2021-07-25T00:44:46Z</time>
      </trkpt>
      <trkpt lat="43.61102" lon="3.39105">
        <ele>162</ele>
        <time>2021-07-25T00:44:49Z</time>
      </trkpt>
      <trkpt lat="43.61093" lon="3.3915">
        <ele>163</ele>
        <time>2021-07-25T00:44:55Z</time>
      </trkpt>
      <trkpt lat="43.61091" lon="3.39193">
        <ele>163</ele>
        <time>2021-07-25T00:45:00Z</time>
      </trkpt>
      <trkpt lat="43.61101" lon="3.39336">
        <ele>163</ele>
        <time>2021-07-25T00:45:19Z</time>
      </trkpt>
      <trkpt lat="43.61102" lon="3.39372">
        <ele>160</ele>
        <time>2021-07-25T00:45:24Z</time>
      </trkpt>
      <trkpt lat="43.611" lon="3.39404">
        <ele>157</ele>
        <time>2021-07-25T00:45:28Z</time>
      </trkpt>
      <trkpt lat="43.61093" lon="3.39433">
        <ele>154</ele>
        <time>2021-07-25T00:45:32Z</time>
      </trkpt>
      <trkpt lat="43.61084" lon="3.39454">
        <ele>151</ele>
        <time>2021-07-25T00:45:35Z</time>
      </trkpt>
      <trkpt lat="43.61071" lon="3.39474">
        <ele>151</ele>
        <time>2021-07-25T00:45:38Z</time>
      </trkpt>
      <trkpt lat="43.61055" lon="3.39496">
        <ele>151</ele>
        <time>2021-07-25T00:45:42Z</time>
      </trkpt>
      <trkpt lat="43.61046" lon="3.39505">
        <ele>151</ele>
        <time>2021-07-25T00:45:44Z</time>
      </trkpt>
      <trkpt lat="43.6102" lon="3.39528">
        <ele>154</ele>
        <time>2021-07-25T00:45:50Z</time>
      </trkpt>
      <trkpt lat="43.60942" lon="3.39601">
        <ele>151</ele>
        <time>2021-07-25T00:46:06Z</time>
      </trkpt>
      <trkpt lat="43.60905" lon="3.39632">
        <ele>150</ele>
        <time>2021-07-25T00:46:14Z</time>
      </trkpt>
      <trkpt lat="43.60894" lon="3.39655">
        <ele>149</ele>
        <time>2021-07-25T00:46:18Z</time>
      </trkpt>
      <trkpt lat="43.6089" lon="3.39667">
        <ele>149</ele>
        <time>2021-07-25T00:46:19Z</time>
      </trkpt>
      <trkpt lat="43.6089" lon="3.3967">
        <ele>149</ele>
        <time>2021-07-25T00:46:20Z</time>
      </trkpt>
      <trkpt lat="43.60882" lon="3.39709">
        <ele>150</ele>
        <time>2021-07-25T00:46:25Z</time>
      </trkpt>
      <trkpt lat="43.60869" lon="3.39847">
        <ele>149</ele>
        <time>2021-07-25T00:46:43Z</time>
      </trkpt>
      <trkpt lat="43.60871" lon="3.39878">
        <ele>149</ele>
        <time>2021-07-25T00:46:47Z</time>
      </trkpt>
      <trkpt lat="43.60902" lon="3.40011">
        <ele>143</ele>
        <time>2021-07-25T00:47:05Z</time>
      </trkpt>
      <trkpt lat="43.60904" lon="3.40033">
        <ele>142</ele>
        <time>2021-07-25T00:47:08Z</time>
      </trkpt>
      <trkpt lat="43.60902" lon="3.40054">
        <ele>141</ele>
        <time>2021-07-25T00:47:11Z</time>
      </trkpt>
      <trkpt lat="43.60894" lon="3.40091">
        <ele>140</ele>
        <time>2021-07-25T00:47:16Z</time>
      </trkpt>
      <trkpt lat="43.60895" lon="3.40121">
        <ele>138</ele>
        <time>2021-07-25T00:47:19Z</time>
      </trkpt>
      <trkpt lat="43.60906" lon="3.40151">
        <ele>135</ele>
        <time>2021-07-25T00:47:24Z</time>
      </trkpt>
      <trkpt lat="43.60917" lon="3.40171">
        <ele>134</ele>
        <time>2021-07-25T00:47:27Z</time>
      </trkpt>
      <trkpt lat="43.60923" lon="3.40176">
        <ele>134</ele>
        <time>2021-07-25T00:47:28Z</time>
      </trkpt>
      <trkpt lat="43.6095" lon="3.40184">
        <ele>135</ele>
        <time>2021-07-25T00:47:33Z</time>
      </trkpt>
      <trkpt lat="43.60963" lon="3.40192">
        <ele>135</ele>
        <time>2021-07-25T00:47:36Z</time>
      </trkpt>
      <trkpt lat="43.60998" lon="3.40236">
        <ele>135</ele>
        <time>2021-07-25T00:47:44Z</time>
      </trkpt>
      <trkpt lat="43.61153" lon="3.40448">
        <ele>133</ele>
        <time>2021-07-25T00:48:23Z</time>
      </trkpt>
      <trkpt lat="43.61192" lon="3.40501">
        <ele>131</ele>
        <time>2021-07-25T00:48:33Z</time>
      </trkpt>
      <trkpt lat="43.61354" lon="3.4072">
        <ele>139</ele>
        <time>2021-07-25T00:49:13Z</time>
      </trkpt>
      <trkpt lat="43.61389" lon="3.40755">
        <ele>139</ele>
        <time>2021-07-25T00:49:21Z</time>
      </trkpt>
      <trkpt lat="43.61445" lon="3.40794">
        <ele>141</ele>
        <time>2021-07-25T00:49:32Z</time>
      </trkpt>
      <trkpt lat="43.61475" lon="3.40813">
        <ele>142</ele>
        <time>2021-07-25T00:49:38Z</time>
      </trkpt>
      <trkpt lat="43.61479" lon="3.40816">
        <ele>143</ele>
        <time>2021-07-25T00:49:38Z</time>
      </trkpt>
      <trkpt lat="43.61484" lon="3.40819">
        <ele>143</ele>
        <time>2021-07-25T00:49:39Z</time>
      </trkpt>
      <trkpt lat="43.61528" lon="3.40846">
        <ele>145</ele>
        <time>2021-07-25T00:49:48Z</time>
      </trkpt>
      <trkpt lat="43.61745" lon="3.40985">
        <ele>152</ele>
        <time>2021-07-25T00:50:31Z</time>
      </trkpt>
      <trkpt lat="43.61851" lon="3.41052">
        <ele>165</ele>
        <time>2021-07-25T00:50:51Z</time>
      </trkpt>
      <trkpt lat="43.61895" lon="3.4108">
        <ele>170</ele>
        <time>2021-07-25T00:51:00Z</time>
      </trkpt>
      <trkpt lat="43.61953" lon="3.41116">
        <ele>170</ele>
        <time>2021-07-25T00:51:11Z</time>
      </trkpt>
      <trkpt lat="43.61987" lon="3.41137">
        <ele>167</ele>
        <time>2021-07-25T00:51:18Z</time>
      </trkpt>
      <trkpt lat="43.62049" lon="3.41169">
        <ele>163</ele>
        <time>2021-07-25T00:51:30Z</time>
      </trkpt>
      <trkpt lat="43.62085" lon="3.41201">
        <ele>162</ele>
        <time>2021-07-25T00:51:37Z</time>
      </trkpt>
      <trkpt lat="43.62116" lon="3.41232">
        <ele>161</ele>
        <time>2021-07-25T00:51:44Z</time>
      </trkpt>
      <trkpt lat="43.6217" lon="3.41312">
        <ele>153</ele>
        <time>2021-07-25T00:51:58Z</time>
      </trkpt>
      <trkpt lat="43.62295" lon="3.41533">
        <ele>144</ele>
        <time>2021-07-25T00:52:34Z</time>
      </trkpt>
      <trkpt lat="43.62306" lon="3.41551">
        <ele>143</ele>
        <time>2021-07-25T00:52:37Z</time>
      </trkpt>
      <trkpt lat="43.62313" lon="3.41563">
        <ele>143</ele>
        <time>2021-07-25T00:52:39Z</time>
      </trkpt>
      <trkpt lat="43.62343" lon="3.41616">
        <ele>142</ele>
        <time>2021-07-25T00:52:48Z</time>
      </trkpt>
      <trkpt lat="43.62356" lon="3.41647">
        <ele>141</ele>
        <time>2021-07-25T00:52:53Z</time>
      </trkpt>
      <trkpt lat="43.62354" lon="3.41649">
        <ele>141</ele>
        <time>2021-07-25T00:52:53Z</time>
      </trkpt>
      <trkpt lat="43.62351" lon="3.41655">
        <ele>141</ele>
        <time>2021-07-25T00:52:54Z</time>
      </trkpt>
      <trkpt lat="43.62351" lon="3.41659">
        <ele>141</ele>
        <time>2021-07-25T00:52:54Z</time>
      </trkpt>
      <trkpt lat="43.62351" lon="3.41662">
        <ele>141</ele>
        <time>2021-07-25T00:52:55Z</time>
      </trkpt>
      <trkpt lat="43.62352" lon="3.41666">
        <ele>141</ele>
        <time>2021-07-25T00:52:55Z</time>
      </trkpt>
      <trkpt lat="43.62354" lon="3.41668">
        <ele>141</ele>
        <time>2021-07-25T00:52:56Z</time>
      </trkpt>
      <trkpt lat="43.62357" lon="3.4167">
        <ele>141</ele>
        <time>2021-07-25T00:52:56Z</time>
      </trkpt>
      <trkpt lat="43.62365" lon="3.41667">
        <ele>141</ele>
        <time>2021-07-25T00:52:58Z</time>
      </trkpt>
      <trkpt lat="43.62367" lon="3.41665">
        <ele>141</ele>
        <time>2021-07-25T00:52:58Z</time>
      </trkpt>
      <trkpt lat="43.62378" lon="3.41673">
        <ele>140</ele>
        <time>2021-07-25T00:53:01Z</time>
      </trkpt>
      <trkpt lat="43.62388" lon="3.41685">
        <ele>140</ele>
        <time>2021-07-25T00:53:03Z</time>
      </trkpt>
      <trkpt lat="43.62395" lon="3.41703">
        <ele>139</ele>
        <time>2021-07-25T00:53:06Z</time>
      </trkpt>
      <trkpt lat="43.62403" lon="3.41722">
        <ele>138</ele>
        <time>2021-07-25T00:53:08Z</time>
      </trkpt>
      <trkpt lat="43.62428" lon="3.41765">
        <ele>137</ele>
        <time>2021-07-25T00:53:15Z</time>
      </trkpt>
      <trkpt lat="43.62439" lon="3.41793">
        <ele>137</ele>
        <time>2021-07-25T00:53:20Z</time>
      </trkpt>
      <trkpt lat="43.62448" lon="3.41822">
        <ele>137</ele>
        <time>2021-07-25T00:53:24Z</time>
      </trkpt>
      <trkpt lat="43.62466" lon="3.41942">
        <ele>135</ele>
        <time>2021-07-25T00:53:39Z</time>
      </trkpt>
      <trkpt lat="43.62472" lon="3.41995">
        <ele>134</ele>
        <time>2021-07-25T00:53:46Z</time>
      </trkpt>
      <trkpt lat="43.62473" lon="3.42004">
        <ele>134</ele>
        <time>2021-07-25T00:53:48Z</time>
      </trkpt>
      <trkpt lat="43.62477" lon="3.42023">
        <ele>134</ele>
        <time>2021-07-25T00:53:50Z</time>
      </trkpt>
      <trkpt lat="43.62481" lon="3.42038">
        <ele>133</ele>
        <time>2021-07-25T00:53:52Z</time>
      </trkpt>
      <trkpt lat="43.62493" lon="3.42071">
        <ele>131</ele>
        <time>2021-07-25T00:53:57Z</time>
      </trkpt>
      <trkpt lat="43.62524" lon="3.42143">
        <ele>130</ele>
        <time>2021-07-25T00:54:08Z</time>
      </trkpt>
      <trkpt lat="43.62549" lon="3.42202">
        <ele>129</ele>
        <time>2021-07-25T00:54:16Z</time>
      </trkpt>
      <trkpt lat="43.62559" lon="3.42229">
        <ele>129</ele>
        <time>2021-07-25T00:54:20Z</time>
      </trkpt>
      <trkpt lat="43.62563" lon="3.42243">
        <ele>129</ele>
        <time>2021-07-25T00:54:22Z</time>
      </trkpt>
      <trkpt lat="43.62566" lon="3.42259">
        <ele>128</ele>
        <time>2021-07-25T00:54:24Z</time>
      </trkpt>
      <trkpt lat="43.62569" lon="3.42317">
        <ele>126</ele>
        <time>2021-07-25T00:54:32Z</time>
      </trkpt>
      <trkpt lat="43.6257" lon="3.42379">
        <ele>126</ele>
        <time>2021-07-25T00:54:40Z</time>
      </trkpt>
      <trkpt lat="43.62571" lon="3.42411">
        <ele>125</ele>
        <time>2021-07-25T00:54:44Z</time>
      </trkpt>
      <trkpt lat="43.62571" lon="3.42431">
        <ele>126</ele>
        <time>2021-07-25T00:54:47Z</time>
      </trkpt>
      <trkpt lat="43.62571" lon="3.42507">
        <ele>127</ele>
        <time>2021-07-25T00:54:56Z</time>
      </trkpt>
      <trkpt lat="43.62571" lon="3.42536">
        <ele>127</ele>
        <time>2021-07-25T00:55:00Z</time>
      </trkpt>
      <trkpt lat="43.62571" lon="3.42561">
        <ele>126</ele>
        <time>2021-07-25T00:55:03Z</time>
      </trkpt>
      <trkpt lat="43.62571" lon="3.42564">
        <ele>126</ele>
        <time>2021-07-25T00:55:04Z</time>
      </trkpt>
      <trkpt lat="43.62571" lon="3.42567">
        <ele>126</ele>
        <time>2021-07-25T00:55:04Z</time>
      </trkpt>
      <trkpt lat="43.62572" lon="3.42569">
        <ele>126</ele>
        <time>2021-07-25T00:55:04Z</time>
      </trkpt>
      <trkpt lat="43.62572" lon="3.42604">
        <ele>126</ele>
        <time>2021-07-25T00:55:09Z</time>
      </trkpt>
      <trkpt lat="43.62572" lon="3.42621">
        <ele>125</ele>
        <time>2021-07-25T00:55:11Z</time>
      </trkpt>
      <trkpt lat="43.62572" lon="3.42641">
        <ele>125</ele>
        <time>2021-07-25T00:55:14Z</time>
      </trkpt>
      <trkpt lat="43.62575" lon="3.42673">
        <ele>123</ele>
        <time>2021-07-25T00:55:18Z</time>
      </trkpt>
      <trkpt lat="43.62585" lon="3.42788">
        <ele>117</ele>
        <time>2021-07-25T00:55:33Z</time>
      </trkpt>
      <trkpt lat="43.62586" lon="3.42799">
        <ele>116</ele>
        <time>2021-07-25T00:55:34Z</time>
      </trkpt>
      <trkpt lat="43.62595" lon="3.42908">
        <ele>114</ele>
        <time>2021-07-25T00:55:48Z</time>
      </trkpt>
      <trkpt lat="43.62596" lon="3.42936">
        <ele>114</ele>
        <time>2021-07-25T00:55:52Z</time>
      </trkpt>
      <trkpt lat="43.62596" lon="3.42947">
        <ele>114</ele>
        <time>2021-07-25T00:55:53Z</time>
      </trkpt>
      <trkpt lat="43.62598" lon="3.43004">
        <ele>113</ele>
        <time>2021-07-25T00:56:01Z</time>
      </trkpt>
      <trkpt lat="43.62598" lon="3.43029">
        <ele>112</ele>
        <time>2021-07-25T00:56:04Z</time>
      </trkpt>
      <trkpt lat="43.62597" lon="3.43053">
        <ele>112</ele>
        <time>2021-07-25T00:56:07Z</time>
      </trkpt>
      <trkpt lat="43.62593" lon="3.43076">
        <ele>111</ele>
        <time>2021-07-25T00:56:10Z</time>
      </trkpt>
      <trkpt lat="43.62591" lon="3.43094">
        <ele>111</ele>
        <time>2021-07-25T00:56:12Z</time>
      </trkpt>
      <trkpt lat="43.62588" lon="3.43112">
        <ele>110</ele>
        <time>2021-07-25T00:56:15Z</time>
      </trkpt>
      <trkpt lat="43.62583" lon="3.43134">
        <ele>109</ele>
        <time>2021-07-25T00:56:18Z</time>
      </trkpt>
      <trkpt lat="43.6257" lon="3.43188">
        <ele>110</ele>
        <time>2021-07-25T00:56:25Z</time>
      </trkpt>
      <trkpt lat="43.62566" lon="3.43201">
        <ele>110</ele>
        <time>2021-07-25T00:56:27Z</time>
      </trkpt>
      <trkpt lat="43.62551" lon="3.4325">
        <ele>111</ele>
        <time>2021-07-25T00:56:34Z</time>
      </trkpt>
      <trkpt lat="43.6255" lon="3.43255">
        <ele>111</ele>
        <time>2021-07-25T00:56:34Z</time>
      </trkpt>
      <trkpt lat="43.62529" lon="3.43324">
        <ele>106</ele>
        <time>2021-07-25T00:56:44Z</time>
      </trkpt>
      <trkpt lat="43.62539" lon="3.43328">
        <ele>105</ele>
        <time>2021-07-25T00:56:46Z</time>
      </trkpt>
      <trkpt lat="43.6256" lon="3.43335">
        <ele>104</ele>
        <time>2021-07-25T00:56:50Z</time>
      </trkpt>
      <trkpt lat="43.62564" lon="3.43337">
        <ele>104</ele>
        <time>2021-07-25T00:56:51Z</time>
      </trkpt>
      <trkpt lat="43.62578" lon="3.43342">
        <ele>103</ele>
        <time>2021-07-25T00:56:53Z</time>
      </trkpt>
      <trkpt lat="43.62585" lon="3.43345">
        <ele>103</ele>
        <time>2021-07-25T00:56:54Z</time>
      </trkpt>
      <trkpt lat="43.62604" lon="3.43352">
        <ele>103</ele>
        <time>2021-07-25T00:56:58Z</time>
      </trkpt>
      <trkpt lat="43.62606" lon="3.43353">
        <ele>103</ele>
        <time>2021-07-25T00:56:58Z</time>
      </trkpt>
      <trkpt lat="43.6261" lon="3.43354">
        <ele>103</ele>
        <time>2021-07-25T00:56:59Z</time>
      </trkpt>
      <trkpt lat="43.62671" lon="3.43379">
        <ele>103</ele>
        <time>2021-07-25T00:57:10Z</time>
      </trkpt>
      <trkpt lat="43.62672" lon="3.43379">
        <ele>103</ele>
        <time>2021-07-25T00:57:11Z</time>
      </trkpt>
      <trkpt lat="43.62686" lon="3.43384">
        <ele>103</ele>
        <time>2021-07-25T00:57:13Z</time>
      </trkpt>
      <trkpt lat="43.62691" lon="3.43386">
        <ele>103</ele>
        <time>2021-07-25T00:57:14Z</time>
      </trkpt>
      <trkpt lat="43.627" lon="3.4339">
        <ele>103</ele>
        <time>2021-07-25T00:57:16Z</time>
      </trkpt>
      <trkpt lat="43.6271" lon="3.43394">
        <ele>103</ele>
        <time>2021-07-25T00:57:18Z</time>
      </trkpt>
      <trkpt lat="43.62735" lon="3.43404">
        <ele>102</ele>
        <time>2021-07-25T00:57:22Z</time>
      </trkpt>
      <trkpt lat="43.62746" lon="3.43409">
        <ele>102</ele>
        <time>2021-07-25T00:57:24Z</time>
      </trkpt>
      <trkpt lat="43.62755" lon="3.43413">
        <ele>102</ele>
        <time>2021-07-25T00:57:26Z</time>
      </trkpt>
      <trkpt lat="43.62762" lon="3.43415">
        <ele>102</ele>
        <time>2021-07-25T00:57:27Z</time>
      </trkpt>
      <trkpt lat="43.62782" lon="3.43423">
        <ele>101</ele>
        <time>2021-07-25T00:57:31Z</time>
      </trkpt>
      <trkpt lat="43.6284" lon="3.43446">
        <ele>99</ele>
        <time>2021-07-25T00:57:42Z</time>
      </trkpt>
      <trkpt lat="43.62846" lon="3.43448">
        <ele>98</ele>
        <time>2021-07-25T00:57:43Z</time>
      </trkpt>
      <trkpt lat="43.6285" lon="3.4345">
        <ele>98</ele>
        <time>2021-07-25T00:57:44Z</time>
      </trkpt>
      <trkpt lat="43.62858" lon="3.43453">
        <ele>98</ele>
        <time>2021-07-25T00:57:45Z</time>
      </trkpt>
      <trkpt lat="43.62889" lon="3.43466">
        <ele>97</ele>
        <time>2021-07-25T00:57:51Z</time>
      </trkpt>
      <trkpt lat="43.62902" lon="3.4347">
        <ele>96</ele>
        <time>2021-07-25T00:57:53Z</time>
      </trkpt>
      <trkpt lat="43.62933" lon="3.43483">
        <ele>95</ele>
        <time>2021-07-25T00:57:59Z</time>
      </trkpt>
      <trkpt lat="43.62956" lon="3.43501">
        <ele>94</ele>
        <time>2021-07-25T00:58:04Z</time>
      </trkpt>
      <trkpt lat="43.63015" lon="3.43553">
        <ele>92</ele>
        <time>2021-07-25T00:58:16Z</time>
      </trkpt>
      <trkpt lat="43.63025" lon="3.43561">
        <ele>92</ele>
        <time>2021-07-25T00:58:18Z</time>
      </trkpt>
      <trkpt lat="43.63031" lon="3.43565">
        <ele>92</ele>
        <time>2021-07-25T00:58:19Z</time>
      </trkpt>
      <trkpt lat="43.63073" lon="3.43592">
        <ele>92</ele>
        <time>2021-07-25T00:58:28Z</time>
      </trkpt>
      <trkpt lat="43.63081" lon="3.43597">
        <ele>92</ele>
        <time>2021-07-25T00:58:29Z</time>
      </trkpt>
      <trkpt lat="43.63097" lon="3.43612">
        <ele>92</ele>
        <time>2021-07-25T00:58:33Z</time>
      </trkpt>
      <trkpt lat="43.63111" lon="3.43627">
        <ele>92</ele>
        <time>2021-07-25T00:58:36Z</time>
      </trkpt>
      <trkpt lat="43.6313" lon="3.43649">
        <ele>93</ele>
        <time>2021-07-25T00:58:40Z</time>
      </trkpt>
      <trkpt lat="43.63142" lon="3.43672">
        <ele>92</ele>
        <time>2021-07-25T00:58:44Z</time>
      </trkpt>
      <trkpt lat="43.63167" lon="3.43717">
        <ele>91</ele>
        <time>2021-07-25T00:58:51Z</time>
      </trkpt>
      <trkpt lat="43.63191" lon="3.43768">
        <ele>90</ele>
        <time>2021-07-25T00:58:59Z</time>
      </trkpt>
      <trkpt lat="43.63226" lon="3.4384">
        <ele>90</ele>
        <time>2021-07-25T00:59:10Z</time>
      </trkpt>
      <trkpt lat="43.6328" lon="3.43954">
        <ele>90</ele>
        <time>2021-07-25T00:59:28Z</time>
      </trkpt>
      <trkpt lat="43.63282" lon="3.43959">
        <ele>90</ele>
        <time>2021-07-25T00:59:28Z</time>
      </trkpt>
      <trkpt lat="43.63292" lon="3.43982">
        <ele>90</ele>
        <time>2021-07-25T00:59:32Z</time>
      </trkpt>
      <trkpt lat="43.63297" lon="3.4399">
        <ele>90</ele>
        <time>2021-07-25T00:59:33Z</time>
      </trkpt>
      <trkpt lat="43.633" lon="3.43999">
        <ele>90</ele>
        <time>2021-07-25T00:59:34Z</time>
      </trkpt>
      <trkpt lat="43.63301" lon="3.44012">
        <ele>89</ele>
        <time>2021-07-25T00:59:36Z</time>
      </trkpt>
      <trkpt lat="43.63298" lon="3.44015">
        <ele>89</ele>
        <time>2021-07-25T00:59:37Z</time>
      </trkpt>
      <trkpt lat="43.63296" lon="3.44018">
        <ele>89</ele>
        <time>2021-07-25T00:59:37Z</time>
      </trkpt>
      <trkpt lat="43.63294" lon="3.44022">
        <ele>89</ele>
        <time>2021-07-25T00:59:38Z</time>
      </trkpt>
      <trkpt lat="43.63292" lon="3.44028">
        <ele>89</ele>
        <time>2021-07-25T00:59:39Z</time>
      </trkpt>
      <trkpt lat="43.63292" lon="3.44033">
        <ele>88</ele>
        <time>2021-07-25T00:59:39Z</time>
      </trkpt>
      <trkpt lat="43.63293" lon="3.44039">
        <ele>88</ele>
        <time>2021-07-25T00:59:40Z</time>
      </trkpt>
      <trkpt lat="43.63294" lon="3.44043">
        <ele>88</ele>
        <time>2021-07-25T00:59:41Z</time>
      </trkpt>
      <trkpt lat="43.63296" lon="3.44047">
        <ele>88</ele>
        <time>2021-07-25T00:59:41Z</time>
      </trkpt>
      <trkpt lat="43.63299" lon="3.44051">
        <ele>87</ele>
        <time>2021-07-25T00:59:42Z</time>
      </trkpt>
      <trkpt lat="43.63303" lon="3.44053">
        <ele>87</ele>
        <time>2021-07-25T00:59:43Z</time>
      </trkpt>
      <trkpt lat="43.63306" lon="3.44054">
        <ele>87</ele>
        <time>2021-07-25T00:59:43Z</time>
      </trkpt>
      <trkpt lat="43.6331" lon="3.44054">
        <ele>87</ele>
        <time>2021-07-25T00:59:44Z</time>
      </trkpt>
      <trkpt lat="43.63314" lon="3.44052">
        <ele>87</ele>
        <time>2021-07-25T00:59:45Z</time>
      </trkpt>
      <trkpt lat="43.63318" lon="3.44049">
        <ele>87</ele>
        <time>2021-07-25T00:59:46Z</time>
      </trkpt>
      <trkpt lat="43.6333" lon="3.44048">
        <ele>87</ele>
        <time>2021-07-25T00:59:48Z</time>
      </trkpt>
      <trkpt lat="43.63355" lon="3.44055">
        <ele>87</ele>
        <time>2021-07-25T00:59:52Z</time>
      </trkpt>
      <trkpt lat="43.63371" lon="3.4406">
        <ele>87</ele>
        <time>2021-07-25T00:59:55Z</time>
      </trkpt>
      <trkpt lat="43.63408" lon="3.44076">
        <ele>88</ele>
        <time>2021-07-25T01:00:02Z</time>
      </trkpt>
      <trkpt lat="43.63439" lon="3.44092">
        <ele>88</ele>
        <time>2021-07-25T01:00:08Z</time>
      </trkpt>
      <trkpt lat="43.63611" lon="3.44187">
        <ele>84</ele>
        <time>2021-07-25T01:00:41Z</time>
      </trkpt>
      <trkpt lat="43.63646" lon="3.44203">
        <ele>83</ele>
        <time>2021-07-25T01:00:48Z</time>
      </trkpt>
      <trkpt lat="43.63673" lon="3.44212">
        <ele>82</ele>
        <time>2021-07-25T01:00:53Z</time>
      </trkpt>
      <trkpt lat="43.63695" lon="3.44217">
        <ele>80</ele>
        <time>2021-07-25T01:00:57Z</time>
      </trkpt>
      <trkpt lat="43.63716" lon="3.44223">
        <ele>79</ele>
        <time>2021-07-25T01:01:00Z</time>
      </trkpt>
      <trkpt lat="43.63795" lon="3.44244">
        <ele>76</ele>
        <time>2021-07-25T01:01:15Z</time>
      </trkpt>
      <trkpt lat="43.63826" lon="3.44258">
        <ele>75</ele>
        <time>2021-07-25T01:01:20Z</time>
      </trkpt>
      <trkpt lat="43.63848" lon="3.44276">
        <ele>75</ele>
        <time>2021-07-25T01:01:25Z</time>
      </trkpt>
      <trkpt lat="43.63933" lon="3.44367">
        <ele>71</ele>
        <time>2021-07-25T01:01:44Z</time>
      </trkpt>
      <trkpt lat="43.64017" lon="3.44458">
        <ele>67</ele>
        <time>2021-07-25T01:02:03Z</time>
      </trkpt>
      <trkpt lat="43.6408" lon="3.4452">
        <ele>65</ele>
        <time>2021-07-25T01:02:17Z</time>
      </trkpt>
      <trkpt lat="43.64109" lon="3.44539">
        <ele>66</ele>
        <time>2021-07-25T01:02:23Z</time>
      </trkpt>
      <trkpt lat="43.64152" lon="3.44553">
        <ele>66</ele>
        <time>2021-07-25T01:02:30Z</time>
      </trkpt>
      <trkpt lat="43.64187" lon="3.44559">
        <ele>65</ele>
        <time>2021-07-25T01:02:37Z</time>
      </trkpt>
      <trkpt lat="43.64248" lon="3.4456">
        <ele>62</ele>
        <time>2021-07-25T01:02:48Z</time>
      </trkpt>
      <trkpt lat="43.64278" lon="3.4457">
        <ele>62</ele>
        <time>2021-07-25T01:02:53Z</time>
      </trkpt>
      <trkpt lat="43.64302" lon="3.44586">
        <ele>62</ele>
        <time>2021-07-25T01:02:58Z</time>
      </trkpt>
      <trkpt lat="43.64325" lon="3.44608">
        <ele>61</ele>
        <time>2021-07-25T01:03:03Z</time>
      </trkpt>
      <trkpt lat="43.6434" lon="3.44631">
        <ele>60</ele>
        <time>2021-07-25T01:03:07Z</time>
      </trkpt>
      <trkpt lat="43.64352" lon="3.44658">
        <ele>58</ele>
        <time>2021-07-25T01:03:11Z</time>
      </trkpt>
      <trkpt lat="43.64363" lon="3.44691">
        <ele>56</ele>
        <time>2021-07-25T01:03:16Z</time>
      </trkpt>
      <trkpt lat="43.64369" lon="3.44731">
        <ele>54</ele>
        <time>2021-07-25T01:03:21Z</time>
      </trkpt>
      <trkpt lat="43.64372" lon="3.44768">
        <ele>52</ele>
        <time>2021-07-25T01:03:26Z</time>
      </trkpt>
      <trkpt lat="43.64381" lon="3.44844">
        <ele>50</ele>
        <time>2021-07-25T01:03:35Z</time>
      </trkpt>
      <trkpt lat="43.64392" lon="3.44893">
        <ele>49</ele>
        <time>2021-07-25T01:03:42Z</time>
      </trkpt>
      <trkpt lat="43.64434" lon="3.45048">
        <ele>51</ele>
        <time>2021-07-25T01:04:03Z</time>
      </trkpt>
      <trkpt lat="43.64463" lon="3.45145">
        <ele>54</ele>
        <time>2021-07-25T01:04:17Z</time>
      </trkpt>
      <trkpt lat="43.64466" lon="3.45166">
        <ele>55</ele>
        <time>2021-07-25T01:04:20Z</time>
      </trkpt>
      <trkpt lat="43.64464" lon="3.45175">
        <ele>55</ele>
        <time>2021-07-25T01:04:21Z</time>
      </trkpt>
      <trkpt lat="43.64465" lon="3.45184">
        <ele>55</ele>
        <time>2021-07-25T01:04:22Z</time>
      </trkpt>
      <trkpt lat="43.64469" lon="3.45192">
        <ele>56</ele>
        <time>2021-07-25T01:04:23Z</time>
      </trkpt>
      <trkpt lat="43.6447" lon="3.45205">
        <ele>57</ele>
        <time>2021-07-25T01:04:25Z</time>
      </trkpt>
      <trkpt lat="43.64469" lon="3.45222">
        <ele>57</ele>
        <time>2021-07-25T01:04:27Z</time>
      </trkpt>
      <trkpt lat="43.64463" lon="3.45273">
        <ele>59</ele>
        <time>2021-07-25T01:04:34Z</time>
      </trkpt>
      <trkpt lat="43.64451" lon="3.45334">
        <ele>60</ele>
        <time>2021-07-25T01:04:42Z</time>
      </trkpt>
      <trkpt lat="43.6443" lon="3.4539">
        <ele>61</ele>
        <time>2021-07-25T01:04:50Z</time>
      </trkpt>
      <trkpt lat="43.64402" lon="3.4546">
        <ele>62</ele>
        <time>2021-07-25T01:05:00Z</time>
      </trkpt>
      <trkpt lat="43.64399" lon="3.45486">
        <ele>63</ele>
        <time>2021-07-25T01:05:04Z</time>
      </trkpt>
      <trkpt lat="43.644" lon="3.45508">
        <ele>64</ele>
        <time>2021-07-25T01:05:07Z</time>
      </trkpt>
      <trkpt lat="43.64404" lon="3.45529">
        <ele>65</ele>
        <time>2021-07-25T01:05:09Z</time>
      </trkpt>
      <trkpt lat="43.64411" lon="3.45547">
        <ele>67</ele>
        <time>2021-07-25T01:05:12Z</time>
      </trkpt>
      <trkpt lat="43.64503" lon="3.45716">
        <ele>66</ele>
        <time>2021-07-25T01:05:39Z</time>
      </trkpt>
      <trkpt lat="43.64523" lon="3.45757">
        <ele>65</ele>
        <time>2021-07-25T01:05:46Z</time>
      </trkpt>
      <trkpt lat="43.64527" lon="3.45768">
        <ele>66</ele>
        <time>2021-07-25T01:05:47Z</time>
      </trkpt>
      <trkpt lat="43.64523" lon="3.45777">
        <ele>66</ele>
        <time>2021-07-25T01:05:49Z</time>
      </trkpt>
      <trkpt lat="43.64527" lon="3.45783">
        <ele>66</ele>
        <time>2021-07-25T01:05:50Z</time>
      </trkpt>
      <trkpt lat="43.64522" lon="3.45874">
        <ele>68</ele>
        <time>2021-07-25T01:06:01Z</time>
      </trkpt>
      <trkpt lat="43.6452" lon="3.45893">
        <ele>68</ele>
        <time>2021-07-25T01:06:04Z</time>
      </trkpt>
      <trkpt lat="43.64515" lon="3.45905">
        <ele>68</ele>
        <time>2021-07-25T01:06:06Z</time>
      </trkpt>
      <trkpt lat="43.64473" lon="3.45982">
        <ele>67</ele>
        <time>2021-07-25T01:06:18Z</time>
      </trkpt>
      <trkpt lat="43.64465" lon="3.46009">
        <ele>66</ele>
        <time>2021-07-25T01:06:22Z</time>
      </trkpt>
      <trkpt lat="43.64457" lon="3.46063">
        <ele>65</ele>
        <time>2021-07-25T01:06:29Z</time>
      </trkpt>
      <trkpt lat="43.64449" lon="3.46121">
        <ele>64</ele>
        <time>2021-07-25T01:06:37Z</time>
      </trkpt>
      <trkpt lat="43.64445" lon="3.46155">
        <ele>64</ele>
        <time>2021-07-25T01:06:41Z</time>
      </trkpt>
      <trkpt lat="43.64441" lon="3.46176">
        <ele>64</ele>
        <time>2021-07-25T01:06:44Z</time>
      </trkpt>
      <trkpt lat="43.64439" lon="3.46191">
        <ele>64</ele>
        <time>2021-07-25T01:06:46Z</time>
      </trkpt>
      <trkpt lat="43.64423" lon="3.46305">
        <ele>63</ele>
        <time>2021-07-25T01:07:01Z</time>
      </trkpt>
      <trkpt lat="43.64414" lon="3.46383">
        <ele>63</ele>
        <time>2021-07-25T01:07:11Z</time>
      </trkpt>
      <trkpt lat="43.64409" lon="3.46418">
        <ele>64</ele>
        <time>2021-07-25T01:07:15Z</time>
      </trkpt>
      <trkpt lat="43.64396" lon="3.46517">
        <ele>61</ele>
        <time>2021-07-25T01:07:28Z</time>
      </trkpt>
      <trkpt lat="43.64374" lon="3.46682">
        <ele>60</ele>
        <time>2021-07-25T01:07:50Z</time>
      </trkpt>
      <trkpt lat="43.64372" lon="3.46691">
        <ele>60</ele>
        <time>2021-07-25T01:07:51Z</time>
      </trkpt>
      <trkpt lat="43.6436" lon="3.46785">
        <ele>60</ele>
        <time>2021-07-25T01:08:04Z</time>
      </trkpt>
      <trkpt lat="43.64355" lon="3.46868">
        <ele>59</ele>
        <time>2021-07-25T01:08:14Z</time>
      </trkpt>
      <trkpt lat="43.64356" lon="3.46917">
        <ele>60</ele>
        <time>2021-07-25T01:08:21Z</time>
      </trkpt>
      <trkpt lat="43.64361" lon="3.46967">
        <ele>61</ele>
        <time>2021-07-25T01:08:27Z</time>
      </trkpt>
      <trkpt lat="43.64371" lon="3.4704">
        <ele>61</ele>
        <time>2021-07-25T01:08:37Z</time>
      </trkpt>
      <trkpt lat="43.64423" lon="3.47353">
        <ele>64</ele>
        <time>2021-07-25T01:09:18Z</time>
      </trkpt>
      <trkpt lat="43.64432" lon="3.47409">
        <ele>64</ele>
        <time>2021-07-25T01:09:25Z</time>
      </trkpt>
      <trkpt lat="43.64434" lon="3.47416">
        <ele>64</ele>
        <time>2021-07-25T01:09:26Z</time>
      </trkpt>
      <trkpt lat="43.64436" lon="3.47433">
        <ele>64</ele>
        <time>2021-07-25T01:09:29Z</time>
      </trkpt>
      <trkpt lat="43.64439" lon="3.47449">
        <ele>65</ele>
        <time>2021-07-25T01:09:31Z</time>
      </trkpt>
      <trkpt lat="43.64522" lon="3.47968">
        <ele>68</ele>
        <time>2021-07-25T01:10:39Z</time>
      </trkpt>
      <trkpt lat="43.64598" lon="3.48442">
        <ele>66</ele>
        <time>2021-07-25T01:11:42Z</time>
      </trkpt>
      <trkpt lat="43.64644" lon="3.48726">
        <ele>68</ele>
        <time>2021-07-25T01:12:19Z</time>
      </trkpt>
      <trkpt lat="43.64694" lon="3.49035">
        <ele>69</ele>
        <time>2021-07-25T01:13:00Z</time>
      </trkpt>
      <trkpt lat="43.64706" lon="3.49102">
        <ele>69</ele>
        <time>2021-07-25T01:13:09Z</time>
      </trkpt>
      <trkpt lat="43.64718" lon="3.49156">
        <ele>68</ele>
        <time>2021-07-25T01:13:16Z</time>
      </trkpt>
      <trkpt lat="43.64737" lon="3.49235">
        <ele>69</ele>
        <time>2021-07-25T01:13:27Z</time>
      </trkpt>
      <trkpt lat="43.64772" lon="3.49349">
        <ele>68</ele>
        <time>2021-07-25T01:13:43Z</time>
      </trkpt>
      <trkpt lat="43.64806" lon="3.49458">
        <ele>69</ele>
        <time>2021-07-25T01:13:58Z</time>
      </trkpt>
      <trkpt lat="43.64815" lon="3.49484">
        <ele>69</ele>
        <time>2021-07-25T01:14:02Z</time>
      </trkpt>
      <trkpt lat="43.6482" lon="3.49499">
        <ele>70</ele>
        <time>2021-07-25T01:14:04Z</time>
      </trkpt>
      <trkpt lat="43.64834" lon="3.49565">
        <ele>70</ele>
        <time>2021-07-25T01:14:13Z</time>
      </trkpt>
      <trkpt lat="43.64835" lon="3.4957">
        <ele>70</ele>
        <time>2021-07-25T01:14:13Z</time>
      </trkpt>
      <trkpt lat="43.64836" lon="3.49577">
        <ele>70</ele>
        <time>2021-07-25T01:14:14Z</time>
      </trkpt>
      <trkpt lat="43.6484" lon="3.49593">
        <ele>70</ele>
        <time>2021-07-25T01:14:16Z</time>
      </trkpt>
      <trkpt lat="43.64839" lon="3.49596">
        <ele>70</ele>
        <time>2021-07-25T01:14:17Z</time>
      </trkpt>
      <trkpt lat="43.64839" lon="3.49599">
        <ele>70</ele>
        <time>2021-07-25T01:14:17Z</time>
      </trkpt>
      <trkpt lat="43.6484" lon="3.49602">
        <ele>70</ele>
        <time>2021-07-25T01:14:18Z</time>
      </trkpt>
      <trkpt lat="43.64842" lon="3.49605">
        <ele>70</ele>
        <time>2021-07-25T01:14:18Z</time>
      </trkpt>
      <trkpt lat="43.64843" lon="3.49608">
        <ele>70</ele>
        <time>2021-07-25T01:14:19Z</time>
      </trkpt>
      <trkpt lat="43.64846" lon="3.4961">
        <ele>70</ele>
        <time>2021-07-25T01:14:19Z</time>
      </trkpt>
      <trkpt lat="43.64848" lon="3.4961">
        <ele>71</ele>
        <time>2021-07-25T01:14:20Z</time>
      </trkpt>
      <trkpt lat="43.6485" lon="3.4961">
        <ele>71</ele>
        <time>2021-07-25T01:14:20Z</time>
      </trkpt>
      <trkpt lat="43.64856" lon="3.4962">
        <ele>71</ele>
        <time>2021-07-25T01:14:22Z</time>
      </trkpt>
      <trkpt lat="43.64863" lon="3.49628">
        <ele>71</ele>
        <time>2021-07-25T01:14:23Z</time>
      </trkpt>
      <trkpt lat="43.64868" lon="3.49648">
        <ele>71</ele>
        <time>2021-07-25T01:14:26Z</time>
      </trkpt>
      <trkpt lat="43.64886" lon="3.49714">
        <ele>72</ele>
        <time>2021-07-25T01:14:35Z</time>
      </trkpt>
      <trkpt lat="43.64951" lon="3.49926">
        <ele>72</ele>
        <time>2021-07-25T01:15:05Z</time>
      </trkpt>
      <trkpt lat="43.64954" lon="3.49937">
        <ele>72</ele>
        <time>2021-07-25T01:15:06Z</time>
      </trkpt>
      <trkpt lat="43.65032" lon="3.50177">
        <ele>71</ele>
        <time>2021-07-25T01:15:40Z</time>
      </trkpt>
      <trkpt lat="43.65045" lon="3.50231">
        <ele>72</ele>
        <time>2021-07-25T01:15:47Z</time>
      </trkpt>
      <trkpt lat="43.65005" lon="3.50437">
        <ele>70</ele>
        <time>2021-07-25T01:16:15Z</time>
      </trkpt>
      <trkpt lat="43.65004" lon="3.50454">
        <ele>70</ele>
        <time>2021-07-25T01:16:17Z</time>
      </trkpt>
      <trkpt lat="43.65018" lon="3.50652">
        <ele>71</ele>
        <time>2021-07-25T01:16:43Z</time>
      </trkpt>
      <trkpt lat="43.65022" lon="3.50679">
        <ele>71</ele>
        <time>2021-07-25T01:16:46Z</time>
      </trkpt>
      <trkpt lat="43.65059" lon="3.50873">
        <ele>70</ele>
        <time>2021-07-25T01:17:12Z</time>
      </trkpt>
      <trkpt lat="43.65063" lon="3.50895">
        <ele>69</ele>
        <time>2021-07-25T01:17:15Z</time>
      </trkpt>
      <trkpt lat="43.65078" lon="3.50975">
        <ele>67</ele>
        <time>2021-07-25T01:17:26Z</time>
      </trkpt>
      <trkpt lat="43.65094" lon="3.51065">
        <ele>68</ele>
        <time>2021-07-25T01:17:37Z</time>
      </trkpt>
      <trkpt lat="43.65096" lon="3.51077">
        <ele>68</ele>
        <time>2021-07-25T01:17:39Z</time>
      </trkpt>
      <trkpt lat="43.6509" lon="3.51084">
        <ele>68</ele>
        <time>2021-07-25T01:17:40Z</time>
      </trkpt>
      <trkpt lat="43.65088" lon="3.51095">
        <ele>68</ele>
        <time>2021-07-25T01:17:42Z</time>
      </trkpt>
      <trkpt lat="43.6509" lon="3.51105">
        <ele>68</ele>
        <time>2021-07-25T01:17:43Z</time>
      </trkpt>
      <trkpt lat="43.65093" lon="3.51109">
        <ele>68</ele>
        <time>2021-07-25T01:17:44Z</time>
      </trkpt>
      <trkpt lat="43.651" lon="3.51113">
        <ele>68</ele>
        <time>2021-07-25T01:17:45Z</time>
      </trkpt>
      <trkpt lat="43.65104" lon="3.51113">
        <ele>68</ele>
        <time>2021-07-25T01:17:46Z</time>
      </trkpt>
      <trkpt lat="43.65108" lon="3.51132">
        <ele>68</ele>
        <time>2021-07-25T01:17:49Z</time>
      </trkpt>
      <trkpt lat="43.65135" lon="3.5127">
        <ele>68</ele>
        <time>2021-07-25T01:18:07Z</time>
      </trkpt>
      <trkpt lat="43.65141" lon="3.51319">
        <ele>67</ele>
        <time>2021-07-25T01:18:13Z</time>
      </trkpt>
      <trkpt lat="43.65141" lon="3.51339">
        <ele>66</ele>
        <time>2021-07-25T01:18:16Z</time>
      </trkpt>
      <trkpt lat="43.65138" lon="3.5134">
        <ele>66</ele>
        <time>2021-07-25T01:18:17Z</time>
      </trkpt>
      <trkpt lat="43.65131" lon="3.51348">
        <ele>66</ele>
        <time>2021-07-25T01:18:18Z</time>
      </trkpt>
      <trkpt lat="43.6513" lon="3.51356">
        <ele>66</ele>
        <time>2021-07-25T01:18:19Z</time>
      </trkpt>
      <trkpt lat="43.65132" lon="3.51363">
        <ele>66</ele>
        <time>2021-07-25T01:18:20Z</time>
      </trkpt>
      <trkpt lat="43.65137" lon="3.51368">
        <ele>66</ele>
        <time>2021-07-25T01:18:21Z</time>
      </trkpt>
      <trkpt lat="43.65146" lon="3.51366">
        <ele>66</ele>
        <time>2021-07-25T01:18:23Z</time>
      </trkpt>
      <trkpt lat="43.6516" lon="3.51401">
        <ele>65</ele>
        <time>2021-07-25T01:18:28Z</time>
      </trkpt>
      <trkpt lat="43.65192" lon="3.51562">
        <ele>65</ele>
        <time>2021-07-25T01:18:50Z</time>
      </trkpt>
      <trkpt lat="43.65193" lon="3.51569">
        <ele>65</ele>
        <time>2021-07-25T01:18:50Z</time>
      </trkpt>
      <trkpt lat="43.65195" lon="3.51577">
        <ele>65</ele>
        <time>2021-07-25T01:18:52Z</time>
      </trkpt>
      <trkpt lat="43.65227" lon="3.51751">
        <ele>65</ele>
        <time>2021-07-25T01:19:15Z</time>
      </trkpt>
      <trkpt lat="43.65231" lon="3.51773">
        <ele>65</ele>
        <time>2021-07-25T01:19:18Z</time>
      </trkpt>
      <trkpt lat="43.65249" lon="3.51863">
        <ele>64</ele>
        <time>2021-07-25T01:19:30Z</time>
      </trkpt>
      <trkpt lat="43.65255" lon="3.51894">
        <ele>64</ele>
        <time>2021-07-25T01:19:34Z</time>
      </trkpt>
      <trkpt lat="43.65261" lon="3.51921">
        <ele>63</ele>
        <time>2021-07-25T01:19:37Z</time>
      </trkpt>
      <trkpt lat="43.65286" lon="3.5205">
        <ele>65</ele>
        <time>2021-07-25T01:19:55Z</time>
      </trkpt>
      <trkpt lat="43.6529" lon="3.52066">
        <ele>65</ele>
        <time>2021-07-25T01:19:57Z</time>
      </trkpt>
      <trkpt lat="43.65305" lon="3.52114">
        <ele>66</ele>
        <time>2021-07-25T01:20:03Z</time>
      </trkpt>
      <trkpt lat="43.65306" lon="3.52121">
        <ele>66</ele>
        <time>2021-07-25T01:20:04Z</time>
      </trkpt>
      <trkpt lat="43.65306" lon="3.5213">
        <ele>66</ele>
        <time>2021-07-25T01:20:06Z</time>
      </trkpt>
      <trkpt lat="43.65302" lon="3.52139">
        <ele>66</ele>
        <time>2021-07-25T01:20:07Z</time>
      </trkpt>
      <trkpt lat="43.65298" lon="3.52154">
        <ele>66</ele>
        <time>2021-07-25T01:20:09Z</time>
      </trkpt>
      <trkpt lat="43.65299" lon="3.5217">
        <ele>66</ele>
        <time>2021-07-25T01:20:11Z</time>
      </trkpt>
      <trkpt lat="43.65303" lon="3.52184">
        <ele>65</ele>
        <time>2021-07-25T01:20:13Z</time>
      </trkpt>
      <trkpt lat="43.65305" lon="3.52188">
        <ele>65</ele>
        <time>2021-07-25T01:20:14Z</time>
      </trkpt>
      <trkpt lat="43.65309" lon="3.52194">
        <ele>65</ele>
        <time>2021-07-25T01:20:15Z</time>
      </trkpt>
      <trkpt lat="43.65311" lon="3.52197">
        <ele>65</ele>
        <time>2021-07-25T01:20:15Z</time>
      </trkpt>
      <trkpt lat="43.65313" lon="3.52203">
        <ele>65</ele>
        <time>2021-07-25T01:20:16Z</time>
      </trkpt>
      <trkpt lat="43.65326" lon="3.52251">
        <ele>64</ele>
        <time>2021-07-25T01:20:23Z</time>
      </trkpt>
      <trkpt lat="43.65335" lon="3.52277">
        <ele>64</ele>
        <time>2021-07-25T01:20:26Z</time>
      </trkpt>
      <trkpt lat="43.65378" lon="3.5244">
        <ele>64</ele>
        <time>2021-07-25T01:20:49Z</time>
      </trkpt>
      <trkpt lat="43.65414" lon="3.52585">
        <ele>62</ele>
        <time>2021-07-25T01:21:08Z</time>
      </trkpt>
      <trkpt lat="43.65418" lon="3.52622">
        <ele>61</ele>
        <time>2021-07-25T01:21:13Z</time>
      </trkpt>
      <trkpt lat="43.65422" lon="3.5276">
        <ele>59</ele>
        <time>2021-07-25T01:21:31Z</time>
      </trkpt>
      <trkpt lat="43.65433" lon="3.52847">
        <ele>58</ele>
        <time>2021-07-25T01:21:42Z</time>
      </trkpt>
      <trkpt lat="43.65442" lon="3.52941">
        <ele>58</ele>
        <time>2021-07-25T01:21:55Z</time>
      </trkpt>
      <trkpt lat="43.65444" lon="3.53025">
        <ele>57</ele>
        <time>2021-07-25T01:22:05Z</time>
      </trkpt>
      <trkpt lat="43.65439" lon="3.53125">
        <ele>55</ele>
        <time>2021-07-25T01:22:18Z</time>
      </trkpt>
      <trkpt lat="43.65431" lon="3.53198">
        <ele>53</ele>
        <time>2021-07-25T01:22:28Z</time>
      </trkpt>
      <trkpt lat="43.65386" lon="3.53454">
        <ele>49</ele>
        <time>2021-07-25T01:23:02Z</time>
      </trkpt>
      <trkpt lat="43.65373" lon="3.53527">
        <ele>41</ele>
        <time>2021-07-25T01:23:11Z</time>
      </trkpt>
      <trkpt lat="43.65345" lon="3.53689">
        <ele>45</ele>
        <time>2021-07-25T01:23:33Z</time>
      </trkpt>
      <trkpt lat="43.65342" lon="3.53708">
        <ele>47</ele>
        <time>2021-07-25T01:23:35Z</time>
      </trkpt>
      <trkpt lat="43.65334" lon="3.53756">
        <ele>51</ele>
        <time>2021-07-25T01:23:42Z</time>
      </trkpt>
      <trkpt lat="43.65311" lon="3.53884">
        <ele>49</ele>
        <time>2021-07-25T01:23:59Z</time>
      </trkpt>
      <trkpt lat="43.65307" lon="3.53905">
        <ele>48</ele>
        <time>2021-07-25T01:24:01Z</time>
      </trkpt>
      <trkpt lat="43.65291" lon="3.53998">
        <ele>49</ele>
        <time>2021-07-25T01:24:14Z</time>
      </trkpt>
      <trkpt lat="43.65276" lon="3.54084">
        <ele>51</ele>
        <time>2021-07-25T01:24:25Z</time>
      </trkpt>
      <trkpt lat="43.65274" lon="3.54096">
        <ele>51</ele>
        <time>2021-07-25T01:24:27Z</time>
      </trkpt>
      <trkpt lat="43.65273" lon="3.54102">
        <ele>51</ele>
        <time>2021-07-25T01:24:28Z</time>
      </trkpt>
      <trkpt lat="43.6527" lon="3.54117">
        <ele>51</ele>
        <time>2021-07-25T01:24:30Z</time>
      </trkpt>
      <trkpt lat="43.65246" lon="3.54262">
        <ele>53</ele>
        <time>2021-07-25T01:24:49Z</time>
      </trkpt>
      <trkpt lat="43.65242" lon="3.54281">
        <ele>52</ele>
        <time>2021-07-25T01:24:51Z</time>
      </trkpt>
      <trkpt lat="43.65241" lon="3.54285">
        <ele>52</ele>
        <time>2021-07-25T01:24:52Z</time>
      </trkpt>
      <trkpt lat="43.65237" lon="3.54293">
        <ele>52</ele>
        <time>2021-07-25T01:24:53Z</time>
      </trkpt>
      <trkpt lat="43.65234" lon="3.54296">
        <ele>52</ele>
        <time>2021-07-25T01:24:54Z</time>
      </trkpt>
      <trkpt lat="43.65232" lon="3.54297">
        <ele>52</ele>
        <time>2021-07-25T01:24:54Z</time>
      </trkpt>
      <trkpt lat="43.65231" lon="3.54299">
        <ele>52</ele>
        <time>2021-07-25T01:24:54Z</time>
      </trkpt>
      <trkpt lat="43.65228" lon="3.54304">
        <ele>52</ele>
        <time>2021-07-25T01:24:55Z</time>
      </trkpt>
      <trkpt lat="43.65228" lon="3.54306">
        <ele>52</ele>
        <time>2021-07-25T01:24:55Z</time>
      </trkpt>
      <trkpt lat="43.65228" lon="3.54308">
        <ele>52</ele>
        <time>2021-07-25T01:24:56Z</time>
      </trkpt>
      <trkpt lat="43.65228" lon="3.54311">
        <ele>52</ele>
        <time>2021-07-25T01:24:56Z</time>
      </trkpt>
      <trkpt lat="43.65228" lon="3.54313">
        <ele>52</ele>
        <time>2021-07-25T01:24:56Z</time>
      </trkpt>
      <trkpt lat="43.65232" lon="3.5432">
        <ele>51</ele>
        <time>2021-07-25T01:24:58Z</time>
      </trkpt>
      <trkpt lat="43.65233" lon="3.54321">
        <ele>51</ele>
        <time>2021-07-25T01:24:58Z</time>
      </trkpt>
      <trkpt lat="43.65234" lon="3.54322">
        <ele>51</ele>
        <time>2021-07-25T01:24:58Z</time>
      </trkpt>
      <trkpt lat="43.65235" lon="3.54322">
        <ele>51</ele>
        <time>2021-07-25T01:24:58Z</time>
      </trkpt>
      <trkpt lat="43.65237" lon="3.54327">
        <ele>51</ele>
        <time>2021-07-25T01:24:59Z</time>
      </trkpt>
      <trkpt lat="43.65238" lon="3.54332">
        <ele>51</ele>
        <time>2021-07-25T01:25:00Z</time>
      </trkpt>
      <trkpt lat="43.65238" lon="3.54337">
        <ele>51</ele>
        <time>2021-07-25T01:25:00Z</time>
      </trkpt>
      <trkpt lat="43.65235" lon="3.54352">
        <ele>51</ele>
        <time>2021-07-25T01:25:02Z</time>
      </trkpt>
      <trkpt lat="43.65229" lon="3.54364">
        <ele>51</ele>
        <time>2021-07-25T01:25:04Z</time>
      </trkpt>
      <trkpt lat="43.65225" lon="3.54377">
        <ele>51</ele>
        <time>2021-07-25T01:25:06Z</time>
      </trkpt>
      <trkpt lat="43.65181" lon="3.5463">
        <ele>57</ele>
        <time>2021-07-25T01:25:39Z</time>
      </trkpt>
      <trkpt lat="43.6515" lon="3.54797">
        <ele>62</ele>
        <time>2021-07-25T01:26:02Z</time>
      </trkpt>
      <trkpt lat="43.6518" lon="3.54825">
        <ele>63</ele>
        <time>2021-07-25T01:26:08Z</time>
      </trkpt>
      <trkpt lat="43.65216" lon="3.54864">
        <ele>65</ele>
        <time>2021-07-25T01:26:16Z</time>
      </trkpt>
      <trkpt lat="43.65243" lon="3.54898">
        <ele>67</ele>
        <time>2021-07-25T01:26:23Z</time>
      </trkpt>
      <trkpt lat="43.65273" lon="3.54956">
        <ele>69</ele>
        <time>2021-07-25T01:26:32Z</time>
      </trkpt>
      <trkpt lat="43.65338" lon="3.55147">
        <ele>65</ele>
        <time>2021-07-25T01:26:59Z</time>
      </trkpt>
      <trkpt lat="43.65336" lon="3.55173">
        <ele>66</ele>
        <time>2021-07-25T01:27:02Z</time>
      </trkpt>
      <trkpt lat="43.65331" lon="3.55197">
        <ele>67</ele>
        <time>2021-07-25T01:27:06Z</time>
      </trkpt>
      <trkpt lat="43.65329" lon="3.55207">
        <ele>68</ele>
        <time>2021-07-25T01:27:07Z</time>
      </trkpt>
      <trkpt lat="43.65317" lon="3.55251">
        <ele>70</ele>
        <time>2021-07-25T01:27:13Z</time>
      </trkpt>
      <trkpt lat="43.65312" lon="3.55264">
        <ele>71</ele>
        <time>2021-07-25T01:27:15Z</time>
      </trkpt>
      <trkpt lat="43.6531" lon="3.55268">
        <ele>71</ele>
        <time>2021-07-25T01:27:15Z</time>
      </trkpt>
      <trkpt lat="43.65298" lon="3.55289">
        <ele>72</ele>
        <time>2021-07-25T01:27:19Z</time>
      </trkpt>
      <trkpt lat="43.65287" lon="3.55304">
        <ele>72</ele>
        <time>2021-07-25T01:27:22Z</time>
      </trkpt>
      <trkpt lat="43.6527" lon="3.55322">
        <ele>72</ele>
        <time>2021-07-25T01:27:25Z</time>
      </trkpt>
      <trkpt lat="43.65235" lon="3.55356">
        <ele>73</ele>
        <time>2021-07-25T01:27:33Z</time>
      </trkpt>
      <trkpt lat="43.6523" lon="3.55361">
        <ele>73</ele>
        <time>2021-07-25T01:27:34Z</time>
      </trkpt>
      <trkpt lat="43.65215" lon="3.55377">
        <ele>75</ele>
        <time>2021-07-25T01:27:38Z</time>
      </trkpt>
      <trkpt lat="43.65173" lon="3.55418">
        <ele>78</ele>
        <time>2021-07-25T01:27:47Z</time>
      </trkpt>
      <trkpt lat="43.65162" lon="3.55428">
        <ele>78</ele>
        <time>2021-07-25T01:27:49Z</time>
      </trkpt>
      <trkpt lat="43.65154" lon="3.55436">
        <ele>79</ele>
        <time>2021-07-25T01:27:51Z</time>
      </trkpt>
      <trkpt lat="43.65141" lon="3.5545">
        <ele>79</ele>
        <time>2021-07-25T01:27:54Z</time>
      </trkpt>
      <trkpt lat="43.65022" lon="3.55566">
        <ele>84</ele>
        <time>2021-07-25T01:28:20Z</time>
      </trkpt>
      <trkpt lat="43.64951" lon="3.55639">
        <ele>87</ele>
        <time>2021-07-25T01:28:35Z</time>
      </trkpt>
      <trkpt lat="43.64918" lon="3.55667">
        <ele>88</ele>
        <time>2021-07-25T01:28:42Z</time>
      </trkpt>
      <trkpt lat="43.64873" lon="3.55715">
        <ele>88</ele>
        <time>2021-07-25T01:28:52Z</time>
      </trkpt>
      <trkpt lat="43.64845" lon="3.55742">
        <ele>88</ele>
        <time>2021-07-25T01:28:58Z</time>
      </trkpt>
      <trkpt lat="43.64819" lon="3.55767">
        <ele>88</ele>
        <time>2021-07-25T01:29:04Z</time>
      </trkpt>
      <trkpt lat="43.64765" lon="3.5582">
        <ele>89</ele>
        <time>2021-07-25T01:29:16Z</time>
      </trkpt>
      <trkpt lat="43.64762" lon="3.55822">
        <ele>89</ele>
        <time>2021-07-25T01:29:17Z</time>
      </trkpt>
      <trkpt lat="43.64756" lon="3.5583">
        <ele>90</ele>
        <time>2021-07-25T01:29:18Z</time>
      </trkpt>
      <trkpt lat="43.64754" lon="3.55828">
        <ele>90</ele>
        <time>2021-07-25T01:29:18Z</time>
      </trkpt>
      <trkpt lat="43.6475" lon="3.55826">
        <ele>90</ele>
        <time>2021-07-25T01:29:19Z</time>
      </trkpt>
      <trkpt lat="43.64746" lon="3.55827">
        <ele>90</ele>
        <time>2021-07-25T01:29:20Z</time>
      </trkpt>
      <trkpt lat="43.64744" lon="3.5583">
        <ele>90</ele>
        <time>2021-07-25T01:29:20Z</time>
      </trkpt>
      <trkpt lat="43.64743" lon="3.55832">
        <ele>90</ele>
        <time>2021-07-25T01:29:21Z</time>
      </trkpt>
      <trkpt lat="43.64744" lon="3.5584">
        <ele>90</ele>
        <time>2021-07-25T01:29:22Z</time>
      </trkpt>
      <trkpt lat="43.64745" lon="3.55842">
        <ele>90</ele>
        <time>2021-07-25T01:29:22Z</time>
      </trkpt>
      <trkpt lat="43.64737" lon="3.55848">
        <ele>90</ele>
        <time>2021-07-25T01:29:24Z</time>
      </trkpt>
      <trkpt lat="43.64687" lon="3.55899">
        <ele>93</ele>
        <time>2021-07-25T01:29:35Z</time>
      </trkpt>
      <trkpt lat="43.64681" lon="3.55905">
        <ele>93</ele>
        <time>2021-07-25T01:29:36Z</time>
      </trkpt>
      <trkpt lat="43.64592" lon="3.56002">
        <ele>97</ele>
        <time>2021-07-25T01:29:56Z</time>
      </trkpt>
      <trkpt lat="43.64555" lon="3.56049">
        <ele>97</ele>
        <time>2021-07-25T01:30:05Z</time>
      </trkpt>
      <trkpt lat="43.64536" lon="3.56081">
        <ele>97</ele>
        <time>2021-07-25T01:30:11Z</time>
      </trkpt>
      <trkpt lat="43.6449" lon="3.56179">
        <ele>101</ele>
        <time>2021-07-25T01:30:26Z</time>
      </trkpt>
      <trkpt lat="43.64471" lon="3.56224">
        <ele>101</ele>
        <time>2021-07-25T01:30:32Z</time>
      </trkpt>
      <trkpt lat="43.64461" lon="3.56248">
        <ele>102</ele>
        <time>2021-07-25T01:30:36Z</time>
      </trkpt>
      <trkpt lat="43.64452" lon="3.56272">
        <ele>101</ele>
        <time>2021-07-25T01:30:39Z</time>
      </trkpt>
      <trkpt lat="43.64443" lon="3.56301">
        <ele>102</ele>
        <time>2021-07-25T01:30:43Z</time>
      </trkpt>
      <trkpt lat="43.64416" lon="3.56404">
        <ele>102</ele>
        <time>2021-07-25T01:30:57Z</time>
      </trkpt>
      <trkpt lat="43.64369" lon="3.56591">
        <ele>107</ele>
        <time>2021-07-25T01:31:23Z</time>
      </trkpt>
      <trkpt lat="43.64312" lon="3.56768">
        <ele>115</ele>
        <time>2021-07-25T01:31:48Z</time>
      </trkpt>
      <trkpt lat="43.64297" lon="3.56826">
        <ele>118</ele>
        <time>2021-07-25T01:31:56Z</time>
      </trkpt>
      <trkpt lat="43.64273" lon="3.56934">
        <ele>118</ele>
        <time>2021-07-25T01:32:10Z</time>
      </trkpt>
      <trkpt lat="43.64251" lon="3.57042">
        <ele>119</ele>
        <time>2021-07-25T01:32:25Z</time>
      </trkpt>
      <trkpt lat="43.64243" lon="3.57075">
        <ele>119</ele>
        <time>2021-07-25T01:32:29Z</time>
      </trkpt>
      <trkpt lat="43.64238" lon="3.57094">
        <ele>120</ele>
        <time>2021-07-25T01:32:32Z</time>
      </trkpt>
      <trkpt lat="43.64223" lon="3.57144">
        <ele>120</ele>
        <time>2021-07-25T01:32:39Z</time>
      </trkpt>
      <trkpt lat="43.64205" lon="3.57181">
        <ele>119</ele>
        <time>2021-07-25T01:32:45Z</time>
      </trkpt>
      <trkpt lat="43.64195" lon="3.57202">
        <ele>119</ele>
        <time>2021-07-25T01:32:48Z</time>
      </trkpt>
      <trkpt lat="43.64188" lon="3.57211">
        <ele>119</ele>
        <time>2021-07-25T01:32:50Z</time>
      </trkpt>
      <trkpt lat="43.64183" lon="3.57215">
        <ele>119</ele>
        <time>2021-07-25T01:32:51Z</time>
      </trkpt>
      <trkpt lat="43.64182" lon="3.57218">
        <ele>119</ele>
        <time>2021-07-25T01:32:51Z</time>
      </trkpt>
      <trkpt lat="43.64178" lon="3.57219">
        <ele>119</ele>
        <time>2021-07-25T01:32:52Z</time>
      </trkpt>
      <trkpt lat="43.6417" lon="3.57221">
        <ele>119</ele>
        <time>2021-07-25T01:32:53Z</time>
      </trkpt>
      <trkpt lat="43.64161" lon="3.57229">
        <ele>119</ele>
        <time>2021-07-25T01:32:55Z</time>
      </trkpt>
      <trkpt lat="43.64158" lon="3.57233">
        <ele>120</ele>
        <time>2021-07-25T01:32:56Z</time>
      </trkpt>
      <trkpt lat="43.64154" lon="3.57233">
        <ele>120</ele>
        <time>2021-07-25T01:32:57Z</time>
      </trkpt>
      <trkpt lat="43.64146" lon="3.57234">
        <ele>120</ele>
        <time>2021-07-25T01:32:58Z</time>
      </trkpt>
      <trkpt lat="43.64136" lon="3.57236">
        <ele>120</ele>
        <time>2021-07-25T01:33:00Z</time>
      </trkpt>
      <trkpt lat="43.64113" lon="3.57223">
        <ele>119</ele>
        <time>2021-07-25T01:33:04Z</time>
      </trkpt>
      <trkpt lat="43.64078" lon="3.57205">
        <ele>118</ele>
        <time>2021-07-25T01:33:11Z</time>
      </trkpt>
      <trkpt lat="43.64058" lon="3.57193">
        <ele>117</ele>
        <time>2021-07-25T01:33:15Z</time>
      </trkpt>
      <trkpt lat="43.64041" lon="3.57168">
        <ele>117</ele>
        <time>2021-07-25T01:33:19Z</time>
      </trkpt>
      <trkpt lat="43.6404" lon="3.57159">
        <ele>117</ele>
        <time>2021-07-25T01:33:20Z</time>
      </trkpt>
      <trkpt lat="43.64037" lon="3.57147">
        <ele>116</ele>
        <time>2021-07-25T01:33:22Z</time>
      </trkpt>
      <trkpt lat="43.64031" lon="3.57137">
        <ele>116</ele>
        <time>2021-07-25T01:33:24Z</time>
      </trkpt>
      <trkpt lat="43.64021" lon="3.57129">
        <ele>116</ele>
        <time>2021-07-25T01:33:26Z</time>
      </trkpt>
      <trkpt lat="43.64012" lon="3.57127">
        <ele>116</ele>
        <time>2021-07-25T01:33:27Z</time>
      </trkpt>
      <trkpt lat="43.64006" lon="3.57128">
        <ele>116</ele>
        <time>2021-07-25T01:33:28Z</time>
      </trkpt>
      <trkpt lat="43.63998" lon="3.57132">
        <ele>117</ele>
        <time>2021-07-25T01:33:30Z</time>
      </trkpt>
      <trkpt lat="43.63991" lon="3.5714">
        <ele>116</ele>
        <time>2021-07-25T01:33:32Z</time>
      </trkpt>
      <trkpt lat="43.63987" lon="3.57148">
        <ele>116</ele>
        <time>2021-07-25T01:33:33Z</time>
      </trkpt>
      <trkpt lat="43.63984" lon="3.57159">
        <ele>116</ele>
        <time>2021-07-25T01:33:34Z</time>
      </trkpt>
      <trkpt lat="43.63983" lon="3.5717">
        <ele>117</ele>
        <time>2021-07-25T01:33:36Z</time>
      </trkpt>
      <trkpt lat="43.63988" lon="3.57188">
        <ele>117</ele>
        <time>2021-07-25T01:33:38Z</time>
      </trkpt>
      <trkpt lat="43.63994" lon="3.57197">
        <ele>117</ele>
        <time>2021-07-25T01:33:40Z</time>
      </trkpt>
      <trkpt lat="43.64005" lon="3.57205">
        <ele>118</ele>
        <time>2021-07-25T01:33:42Z</time>
      </trkpt>
      <trkpt lat="43.63914" lon="3.57648">
        <ele>116</ele>
        <time>2021-07-25T01:34:41Z</time>
      </trkpt>
      <trkpt lat="43.63889" lon="3.57736">
        <ele>117</ele>
        <time>2021-07-25T01:34:53Z</time>
      </trkpt>
      <trkpt lat="43.63865" lon="3.57808">
        <ele>117</ele>
        <time>2021-07-25T01:35:04Z</time>
      </trkpt>
      <trkpt lat="43.63833" lon="3.57886">
        <ele>119</ele>
        <time>2021-07-25T01:35:15Z</time>
      </trkpt>
      <trkpt lat="43.63805" lon="3.57943">
        <ele>118</ele>
        <time>2021-07-25T01:35:24Z</time>
      </trkpt>
      <trkpt lat="43.6376" lon="3.58022">
        <ele>115</ele>
        <time>2021-07-25T01:35:37Z</time>
      </trkpt>
      <trkpt lat="43.63718" lon="3.58086">
        <ele>114</ele>
        <time>2021-07-25T01:35:48Z</time>
      </trkpt>
      <trkpt lat="43.63431" lon="3.58481">
        <ele>126</ele>
        <time>2021-07-25T01:37:00Z</time>
      </trkpt>
      <trkpt lat="43.63283" lon="3.58641">
        <ele>117</ele>
        <time>2021-07-25T01:37:34Z</time>
      </trkpt>
      <trkpt lat="43.63232" lon="3.58705">
        <ele>117</ele>
        <time>2021-07-25T01:37:46Z</time>
      </trkpt>
      <trkpt lat="43.63179" lon="3.58785">
        <ele>119</ele>
        <time>2021-07-25T01:38:00Z</time>
      </trkpt>
      <trkpt lat="43.63139" lon="3.58854">
        <ele>123</ele>
        <time>2021-07-25T01:38:11Z</time>
      </trkpt>
      <trkpt lat="43.63108" lon="3.589">
        <ele>126</ele>
        <time>2021-07-25T01:38:19Z</time>
      </trkpt>
      <trkpt lat="43.63006" lon="3.59044">
        <ele>137</ele>
        <time>2021-07-25T01:38:45Z</time>
      </trkpt>
      <trkpt lat="43.62936" lon="3.59139">
        <ele>139</ele>
        <time>2021-07-25T01:39:03Z</time>
      </trkpt>
      <trkpt lat="43.62828" lon="3.59311">
        <ele>145</ele>
        <time>2021-07-25T01:39:32Z</time>
      </trkpt>
      <trkpt lat="43.62782" lon="3.59391">
        <ele>147</ele>
        <time>2021-07-25T01:39:45Z</time>
      </trkpt>
      <trkpt lat="43.62757" lon="3.59448">
        <ele>149</ele>
        <time>2021-07-25T01:39:54Z</time>
      </trkpt>
      <trkpt lat="43.62731" lon="3.59525">
        <ele>152</ele>
        <time>2021-07-25T01:40:05Z</time>
      </trkpt>
      <trkpt lat="43.62654" lon="3.5981">
        <ele>159</ele>
        <time>2021-07-25T01:40:44Z</time>
      </trkpt>
      <trkpt lat="43.62633" lon="3.59911">
        <ele>160</ele>
        <time>2021-07-25T01:40:57Z</time>
      </trkpt>
      <trkpt lat="43.62619" lon="3.59993">
        <ele>162</ele>
        <time>2021-07-25T01:41:08Z</time>
      </trkpt>
      <trkpt lat="43.62601" lon="3.60144">
        <ele>168</ele>
        <time>2021-07-25T01:41:28Z</time>
      </trkpt>
      <trkpt lat="43.62598" lon="3.60209">
        <ele>169</ele>
        <time>2021-07-25T01:41:36Z</time>
      </trkpt>
      <trkpt lat="43.626" lon="3.60258">
        <ele>170</ele>
        <time>2021-07-25T01:41:43Z</time>
      </trkpt>
      <trkpt lat="43.62623" lon="3.6041">
        <ele>179</ele>
        <time>2021-07-25T01:42:03Z</time>
      </trkpt>
      <trkpt lat="43.62633" lon="3.6049">
        <ele>181</ele>
        <time>2021-07-25T01:42:13Z</time>
      </trkpt>
      <trkpt lat="43.62633" lon="3.60548">
        <ele>183</ele>
        <time>2021-07-25T01:42:21Z</time>
      </trkpt>
      <trkpt lat="43.6263" lon="3.60594">
        <ele>184</ele>
        <time>2021-07-25T01:42:27Z</time>
      </trkpt>
      <trkpt lat="43.62618" lon="3.60651">
        <ele>187</ele>
        <time>2021-07-25T01:42:34Z</time>
      </trkpt>
      <trkpt lat="43.62595" lon="3.6072">
        <ele>190</ele>
        <time>2021-07-25T01:42:44Z</time>
      </trkpt>
      <trkpt lat="43.62542" lon="3.6086">
        <ele>193</ele>
        <time>2021-07-25T01:43:04Z</time>
      </trkpt>
      <trkpt lat="43.62522" lon="3.60925">
        <ele>196</ele>
        <time>2021-07-25T01:43:14Z</time>
      </trkpt>
      <trkpt lat="43.62508" lon="3.60983">
        <ele>194</ele>
        <time>2021-07-25T01:43:21Z</time>
      </trkpt>
      <trkpt lat="43.62499" lon="3.61044">
        <ele>196</ele>
        <time>2021-07-25T01:43:29Z</time>
      </trkpt>
      <trkpt lat="43.62495" lon="3.61091">
        <ele>198</ele>
        <time>2021-07-25T01:43:36Z</time>
      </trkpt>
      <trkpt lat="43.62495" lon="3.61148">
        <ele>201</ele>
        <time>2021-07-25T01:43:43Z</time>
      </trkpt>
      <trkpt lat="43.625" lon="3.61353">
        <ele>203</ele>
        <time>2021-07-25T01:44:09Z</time>
      </trkpt>
      <trkpt lat="43.62495" lon="3.61402">
        <ele>207</ele>
        <time>2021-07-25T01:44:16Z</time>
      </trkpt>
      <trkpt lat="43.62489" lon="3.61433">
        <ele>209</ele>
        <time>2021-07-25T01:44:20Z</time>
      </trkpt>
      <trkpt lat="43.62476" lon="3.61478">
        <ele>214</ele>
        <time>2021-07-25T01:44:26Z</time>
      </trkpt>
      <trkpt lat="43.62454" lon="3.61527">
        <ele>217</ele>
        <time>2021-07-25T01:44:33Z</time>
      </trkpt>
      <trkpt lat="43.62417" lon="3.6158">
        <ele>220</ele>
        <time>2021-07-25T01:44:43Z</time>
      </trkpt>
      <trkpt lat="43.62315" lon="3.61702">
        <ele>227</ele>
        <time>2021-07-25T01:45:07Z</time>
      </trkpt>
      <trkpt lat="43.62267" lon="3.61767">
        <ele>229</ele>
        <time>2021-07-25T01:45:19Z</time>
      </trkpt>
      <trkpt lat="43.62226" lon="3.61846">
        <ele>231</ele>
        <time>2021-07-25T01:45:31Z</time>
      </trkpt>
      <trkpt lat="43.62208" lon="3.61894">
        <ele>230</ele>
        <time>2021-07-25T01:45:38Z</time>
      </trkpt>
      <trkpt lat="43.62191" lon="3.61948">
        <ele>230</ele>
        <time>2021-07-25T01:45:46Z</time>
      </trkpt>
      <trkpt lat="43.62174" lon="3.62038">
        <ele>230</ele>
        <time>2021-07-25T01:45:58Z</time>
      </trkpt>
      <trkpt lat="43.62172" lon="3.62088">
        <ele>230</ele>
        <time>2021-07-25T01:46:04Z</time>
      </trkpt>
      <trkpt lat="43.62173" lon="3.62124">
        <ele>229</ele>
        <time>2021-07-25T01:46:09Z</time>
      </trkpt>
      <trkpt lat="43.62175" lon="3.62155">
        <ele>228</ele>
        <time>2021-07-25T01:46:13Z</time>
      </trkpt>
      <trkpt lat="43.62203" lon="3.62292">
        <ele>227</ele>
        <time>2021-07-25T01:46:31Z</time>
      </trkpt>
      <trkpt lat="43.62252" lon="3.62575">
        <ele>221</ele>
        <time>2021-07-25T01:47:09Z</time>
      </trkpt>
      <trkpt lat="43.62377" lon="3.63605">
        <ele>207</ele>
        <time>2021-07-25T01:49:23Z</time>
      </trkpt>
      <trkpt lat="43.62451" lon="3.64232">
        <ele>196</ele>
        <time>2021-07-25T01:50:45Z</time>
      </trkpt>
      <trkpt lat="43.62459" lon="3.64289">
        <ele>195</ele>
        <time>2021-07-25T01:50:53Z</time>
      </trkpt>
      <trkpt lat="43.62502" lon="3.64485">
        <ele>190</ele>
        <time>2021-07-25T01:51:19Z</time>
      </trkpt>
      <trkpt lat="43.62524" lon="3.64661">
        <ele>182</ele>
        <time>2021-07-25T01:51:42Z</time>
      </trkpt>
      <trkpt lat="43.62534" lon="3.64791">
        <ele>176</ele>
        <time>2021-07-25T01:51:59Z</time>
      </trkpt>
      <trkpt lat="43.62538" lon="3.64925">
        <ele>173</ele>
        <time>2021-07-25T01:52:16Z</time>
      </trkpt>
      <trkpt lat="43.62531" lon="3.65052">
        <ele>169</ele>
        <time>2021-07-25T01:52:33Z</time>
      </trkpt>
      <trkpt lat="43.62505" lon="3.65256">
        <ele>161</ele>
        <time>2021-07-25T01:52:59Z</time>
      </trkpt>
      <trkpt lat="43.62501" lon="3.65299">
        <ele>160</ele>
        <time>2021-07-25T01:53:05Z</time>
      </trkpt>
      <trkpt lat="43.62503" lon="3.65336">
        <ele>160</ele>
        <time>2021-07-25T01:53:10Z</time>
      </trkpt>
      <trkpt lat="43.62518" lon="3.65431">
        <ele>159</ele>
        <time>2021-07-25T01:53:22Z</time>
      </trkpt>
      <trkpt lat="43.62536" lon="3.65494">
        <ele>160</ele>
        <time>2021-07-25T01:53:31Z</time>
      </trkpt>
      <trkpt lat="43.62571" lon="3.65585">
        <ele>158</ele>
        <time>2021-07-25T01:53:44Z</time>
      </trkpt>
      <trkpt lat="43.62625" lon="3.65762">
        <ele>153</ele>
        <time>2021-07-25T01:54:09Z</time>
      </trkpt>
      <trkpt lat="43.62634" lon="3.65807">
        <ele>152</ele>
        <time>2021-07-25T01:54:15Z</time>
      </trkpt>
      <trkpt lat="43.6264" lon="3.65845">
        <ele>151</ele>
        <time>2021-07-25T01:54:20Z</time>
      </trkpt>
      <trkpt lat="43.62644" lon="3.6589">
        <ele>150</ele>
        <time>2021-07-25T01:54:26Z</time>
      </trkpt>
      <trkpt lat="43.62645" lon="3.65949">
        <ele>147</ele>
        <time>2021-07-25T01:54:33Z</time>
      </trkpt>
      <trkpt lat="43.62641" lon="3.66009">
        <ele>143</ele>
        <time>2021-07-25T01:54:41Z</time>
      </trkpt>
      <trkpt lat="43.62639" lon="3.66051">
        <ele>142</ele>
        <time>2021-07-25T01:54:47Z</time>
      </trkpt>
      <trkpt lat="43.62638" lon="3.66073">
        <ele>141</ele>
        <time>2021-07-25T01:54:49Z</time>
      </trkpt>
      <trkpt lat="43.62631" lon="3.66179">
        <ele>147</ele>
        <time>2021-07-25T01:55:03Z</time>
      </trkpt>
      <trkpt lat="43.62625" lon="3.6626">
        <ele>146</ele>
        <time>2021-07-25T01:55:14Z</time>
      </trkpt>
      <trkpt lat="43.62622" lon="3.66307">
        <ele>146</ele>
        <time>2021-07-25T01:55:20Z</time>
      </trkpt>
      <trkpt lat="43.62613" lon="3.66436">
        <ele>150</ele>
        <time>2021-07-25T01:55:36Z</time>
      </trkpt>
      <trkpt lat="43.62611" lon="3.66469">
        <ele>150</ele>
        <time>2021-07-25T01:55:41Z</time>
      </trkpt>
      <trkpt lat="43.62601" lon="3.66609">
        <ele>150</ele>
        <time>2021-07-25T01:55:59Z</time>
      </trkpt>
      <trkpt lat="43.62595" lon="3.66718">
        <ele>150</ele>
        <time>2021-07-25T01:56:13Z</time>
      </trkpt>
      <trkpt lat="43.62581" lon="3.66911">
        <ele>148</ele>
        <time>2021-07-25T01:56:38Z</time>
      </trkpt>
      <trkpt lat="43.62575" lon="3.66997">
        <ele>147</ele>
        <time>2021-07-25T01:56:49Z</time>
      </trkpt>
      <trkpt lat="43.62574" lon="3.67025">
        <ele>148</ele>
        <time>2021-07-25T01:56:52Z</time>
      </trkpt>
      <trkpt lat="43.62563" lon="3.67176">
        <ele>151</ele>
        <time>2021-07-25T01:57:12Z</time>
      </trkpt>
      <trkpt lat="43.62562" lon="3.67221">
        <ele>151</ele>
        <time>2021-07-25T01:57:18Z</time>
      </trkpt>
      <trkpt lat="43.62565" lon="3.67269">
        <ele>150</ele>
        <time>2021-07-25T01:57:24Z</time>
      </trkpt>
      <trkpt lat="43.62566" lon="3.67279">
        <ele>150</ele>
        <time>2021-07-25T01:57:25Z</time>
      </trkpt>
      <trkpt lat="43.62569" lon="3.67305">
        <ele>148</ele>
        <time>2021-07-25T01:57:29Z</time>
      </trkpt>
      <trkpt lat="43.62573" lon="3.67328">
        <ele>147</ele>
        <time>2021-07-25T01:57:32Z</time>
      </trkpt>
      <trkpt lat="43.62593" lon="3.67406">
        <ele>146</ele>
        <time>2021-07-25T01:57:42Z</time>
      </trkpt>
      <trkpt lat="43.62597" lon="3.67421">
        <ele>146</ele>
        <time>2021-07-25T01:57:45Z</time>
      </trkpt>
      <trkpt lat="43.62604" lon="3.67459">
        <ele>147</ele>
        <time>2021-07-25T01:57:50Z</time>
      </trkpt>
      <trkpt lat="43.6261" lon="3.6748">
        <ele>148</ele>
        <time>2021-07-25T01:57:52Z</time>
      </trkpt>
      <trkpt lat="43.62613" lon="3.67501">
        <ele>148</ele>
        <time>2021-07-25T01:57:55Z</time>
      </trkpt>
      <trkpt lat="43.62614" lon="3.67511">
        <ele>149</ele>
        <time>2021-07-25T01:57:57Z</time>
      </trkpt>
      <trkpt lat="43.62615" lon="3.67523">
        <ele>149</ele>
        <time>2021-07-25T01:57:58Z</time>
      </trkpt>
      <trkpt lat="43.62618" lon="3.67544">
        <ele>149</ele>
        <time>2021-07-25T01:58:01Z</time>
      </trkpt>
      <trkpt lat="43.62619" lon="3.67556">
        <ele>149</ele>
        <time>2021-07-25T01:58:02Z</time>
      </trkpt>
      <trkpt lat="43.62621" lon="3.67579">
        <ele>149</ele>
        <time>2021-07-25T01:58:05Z</time>
      </trkpt>
      <trkpt lat="43.62627" lon="3.67677">
        <ele>149</ele>
        <time>2021-07-25T01:58:18Z</time>
      </trkpt>
      <trkpt lat="43.6265" lon="3.67787">
        <ele>148</ele>
        <time>2021-07-25T01:58:33Z</time>
      </trkpt>
      <trkpt lat="43.6266" lon="3.67834">
        <ele>148</ele>
        <time>2021-07-25T01:58:39Z</time>
      </trkpt>
      <trkpt lat="43.62664" lon="3.67848">
        <ele>148</ele>
        <time>2021-07-25T01:58:41Z</time>
      </trkpt>
      <trkpt lat="43.62696" lon="3.67992">
        <ele>153</ele>
        <time>2021-07-25T01:59:00Z</time>
      </trkpt>
      <trkpt lat="43.62717" lon="3.68103">
        <ele>155</ele>
        <time>2021-07-25T01:59:15Z</time>
      </trkpt>
      <trkpt lat="43.62756" lon="3.68274">
        <ele>158</ele>
        <time>2021-07-25T01:59:38Z</time>
      </trkpt>
      <trkpt lat="43.6276" lon="3.68313">
        <ele>159</ele>
        <time>2021-07-25T01:59:43Z</time>
      </trkpt>
      <trkpt lat="43.62758" lon="3.68348">
        <ele>159</ele>
        <time>2021-07-25T01:59:48Z</time>
      </trkpt>
      <trkpt lat="43.62747" lon="3.68454">
        <ele>155</ele>
        <time>2021-07-25T02:00:02Z</time>
      </trkpt>
      <trkpt lat="43.62743" lon="3.68504">
        <ele>153</ele>
        <time>2021-07-25T02:00:08Z</time>
      </trkpt>
      <trkpt lat="43.62741" lon="3.68553">
        <ele>150</ele>
        <time>2021-07-25T02:00:14Z</time>
      </trkpt>
      <trkpt lat="43.62742" lon="3.68589">
        <ele>148</ele>
        <time>2021-07-25T02:00:19Z</time>
      </trkpt>
      <trkpt lat="43.62742" lon="3.68597">
        <ele>147</ele>
        <time>2021-07-25T02:00:20Z</time>
      </trkpt>
      <trkpt lat="43.62742" lon="3.68613">
        <ele>146</ele>
        <time>2021-07-25T02:00:22Z</time>
      </trkpt>
      <trkpt lat="43.62742" lon="3.68623">
        <ele>146</ele>
        <time>2021-07-25T02:00:24Z</time>
      </trkpt>
      <trkpt lat="43.62743" lon="3.68638">
        <ele>145</ele>
        <time>2021-07-25T02:00:25Z</time>
      </trkpt>
      <trkpt lat="43.62743" lon="3.68643">
        <ele>144</ele>
        <time>2021-07-25T02:00:26Z</time>
      </trkpt>
      <trkpt lat="43.62744" lon="3.68662">
        <ele>143</ele>
        <time>2021-07-25T02:00:29Z</time>
      </trkpt>
      <trkpt lat="43.62748" lon="3.68685">
        <ele>142</ele>
        <time>2021-07-25T02:00:32Z</time>
      </trkpt>
      <trkpt lat="43.62759" lon="3.68765">
        <ele>139</ele>
        <time>2021-07-25T02:00:42Z</time>
      </trkpt>
      <trkpt lat="43.62779" lon="3.68863">
        <ele>136</ele>
        <time>2021-07-25T02:00:55Z</time>
      </trkpt>
      <trkpt lat="43.62797" lon="3.68935">
        <ele>135</ele>
        <time>2021-07-25T02:01:05Z</time>
      </trkpt>
      <trkpt lat="43.62806" lon="3.68968">
        <ele>135</ele>
        <time>2021-07-25T02:01:10Z</time>
      </trkpt>
      <trkpt lat="43.62826" lon="3.6905">
        <ele>134</ele>
        <time>2021-07-25T02:01:21Z</time>
      </trkpt>
      <trkpt lat="43.62827" lon="3.69058">
        <ele>134</ele>
        <time>2021-07-25T02:01:22Z</time>
      </trkpt>
      <trkpt lat="43.62831" lon="3.69078">
        <ele>134</ele>
        <time>2021-07-25T02:01:24Z</time>
      </trkpt>
      <trkpt lat="43.62834" lon="3.69114">
        <ele>134</ele>
        <time>2021-07-25T02:01:29Z</time>
      </trkpt>
      <trkpt lat="43.62835" lon="3.69133">
        <ele>133</ele>
        <time>2021-07-25T02:01:32Z</time>
      </trkpt>
      <trkpt lat="43.62836" lon="3.69142">
        <ele>133</ele>
        <time>2021-07-25T02:01:33Z</time>
      </trkpt>
      <trkpt lat="43.62836" lon="3.69147">
        <ele>133</ele>
        <time>2021-07-25T02:01:33Z</time>
      </trkpt>
      <trkpt lat="43.62836" lon="3.69156">
        <ele>133</ele>
        <time>2021-07-25T02:01:34Z</time>
      </trkpt>
      <trkpt lat="43.62836" lon="3.69171">
        <ele>133</ele>
        <time>2021-07-25T02:01:36Z</time>
      </trkpt>
      <trkpt lat="43.62834" lon="3.69192">
        <ele>133</ele>
        <time>2021-07-25T02:01:39Z</time>
      </trkpt>
      <trkpt lat="43.62833" lon="3.69224">
        <ele>134</ele>
        <time>2021-07-25T02:01:43Z</time>
      </trkpt>
      <trkpt lat="43.62833" lon="3.69242">
        <ele>134</ele>
        <time>2021-07-25T02:01:46Z</time>
      </trkpt>
      <trkpt lat="43.62832" lon="3.69258">
        <ele>134</ele>
        <time>2021-07-25T02:01:48Z</time>
      </trkpt>
      <trkpt lat="43.62827" lon="3.69269">
        <ele>134</ele>
        <time>2021-07-25T02:01:49Z</time>
      </trkpt>
      <trkpt lat="43.62823" lon="3.69282">
        <ele>134</ele>
        <time>2021-07-25T02:01:51Z</time>
      </trkpt>
      <trkpt lat="43.62823" lon="3.69296">
        <ele>133</ele>
        <time>2021-07-25T02:01:53Z</time>
      </trkpt>
      <trkpt lat="43.62825" lon="3.69304">
        <ele>133</ele>
        <time>2021-07-25T02:01:54Z</time>
      </trkpt>
      <trkpt lat="43.62828" lon="3.69312">
        <ele>133</ele>
        <time>2021-07-25T02:01:55Z</time>
      </trkpt>
      <trkpt lat="43.62832" lon="3.69319">
        <ele>133</ele>
        <time>2021-07-25T02:01:56Z</time>
      </trkpt>
      <trkpt lat="43.62838" lon="3.69326">
        <ele>133</ele>
        <time>2021-07-25T02:01:58Z</time>
      </trkpt>
      <trkpt lat="43.62846" lon="3.6933">
        <ele>133</ele>
        <time>2021-07-25T02:01:59Z</time>
      </trkpt>
      <trkpt lat="43.62854" lon="3.69332">
        <ele>133</ele>
        <time>2021-07-25T02:02:01Z</time>
      </trkpt>
      <trkpt lat="43.62862" lon="3.6933">
        <ele>133</ele>
        <time>2021-07-25T02:02:02Z</time>
      </trkpt>
      <trkpt lat="43.6287" lon="3.69325">
        <ele>133</ele>
        <time>2021-07-25T02:02:04Z</time>
      </trkpt>
      <trkpt lat="43.62876" lon="3.69318">
        <ele>134</ele>
        <time>2021-07-25T02:02:05Z</time>
      </trkpt>
      <trkpt lat="43.62885" lon="3.69315">
        <ele>134</ele>
        <time>2021-07-25T02:02:07Z</time>
      </trkpt>
      <trkpt lat="43.62906" lon="3.69315">
        <ele>134</ele>
        <time>2021-07-25T02:02:11Z</time>
      </trkpt>
      <trkpt lat="43.62963" lon="3.69337">
        <ele>132</ele>
        <time>2021-07-25T02:02:21Z</time>
      </trkpt>
      <trkpt lat="43.62981" lon="3.69348">
        <ele>132</ele>
        <time>2021-07-25T02:02:25Z</time>
      </trkpt>
      <trkpt lat="43.62986" lon="3.69352">
        <ele>132</ele>
        <time>2021-07-25T02:02:26Z</time>
      </trkpt>
      <trkpt lat="43.62993" lon="3.69362">
        <ele>132</ele>
        <time>2021-07-25T02:02:27Z</time>
      </trkpt>
      <trkpt lat="43.62996" lon="3.69369">
        <ele>132</ele>
        <time>2021-07-25T02:02:28Z</time>
      </trkpt>
      <trkpt lat="43.62999" lon="3.69379">
        <ele>132</ele>
        <time>2021-07-25T02:02:30Z</time>
      </trkpt>
      <trkpt lat="43.63004" lon="3.69388">
        <ele>131</ele>
        <time>2021-07-25T02:02:31Z</time>
      </trkpt>
      <trkpt lat="43.63009" lon="3.69395">
        <ele>131</ele>
        <time>2021-07-25T02:02:33Z</time>
      </trkpt>
      <trkpt lat="43.63013" lon="3.69398">
        <ele>131</ele>
        <time>2021-07-25T02:02:33Z</time>
      </trkpt>
      <trkpt lat="43.63018" lon="3.694">
        <ele>131</ele>
        <time>2021-07-25T02:02:34Z</time>
      </trkpt>
      <trkpt lat="43.63023" lon="3.69407">
        <ele>130</ele>
        <time>2021-07-25T02:02:36Z</time>
      </trkpt>
      <trkpt lat="43.63027" lon="3.69415">
        <ele>130</ele>
        <time>2021-07-25T02:02:37Z</time>
      </trkpt>
      <trkpt lat="43.63031" lon="3.69425">
        <ele>130</ele>
        <time>2021-07-25T02:02:38Z</time>
      </trkpt>
      <trkpt lat="43.63032" lon="3.69443">
        <ele>130</ele>
        <time>2021-07-25T02:02:41Z</time>
      </trkpt>
      <trkpt lat="43.6303" lon="3.6946">
        <ele>130</ele>
        <time>2021-07-25T02:02:43Z</time>
      </trkpt>
      <trkpt lat="43.63022" lon="3.69503">
        <ele>130</ele>
        <time>2021-07-25T02:02:49Z</time>
      </trkpt>
      <trkpt lat="43.63018" lon="3.69524">
        <ele>130</ele>
        <time>2021-07-25T02:02:51Z</time>
      </trkpt>
      <trkpt lat="43.63" lon="3.69588">
        <ele>133</ele>
        <time>2021-07-25T02:03:00Z</time>
      </trkpt>
      <trkpt lat="43.62992" lon="3.69616">
        <ele>133</ele>
        <time>2021-07-25T02:03:04Z</time>
      </trkpt>
      <trkpt lat="43.62988" lon="3.69648">
        <ele>133</ele>
        <time>2021-07-25T02:03:08Z</time>
      </trkpt>
      <trkpt lat="43.62985" lon="3.69677">
        <ele>133</ele>
        <time>2021-07-25T02:03:12Z</time>
      </trkpt>
      <trkpt lat="43.62986" lon="3.69707">
        <ele>133</ele>
        <time>2021-07-25T02:03:16Z</time>
      </trkpt>
      <trkpt lat="43.62993" lon="3.69755">
        <ele>132</ele>
        <time>2021-07-25T02:03:22Z</time>
      </trkpt>
      <trkpt lat="43.63032" lon="3.69924">
        <ele>133</ele>
        <time>2021-07-25T02:03:45Z</time>
      </trkpt>
      <trkpt lat="43.63058" lon="3.70033">
        <ele>133</ele>
        <time>2021-07-25T02:04:00Z</time>
      </trkpt>
      <trkpt lat="43.63061" lon="3.70048">
        <ele>133</ele>
        <time>2021-07-25T02:04:02Z</time>
      </trkpt>
      <trkpt lat="43.6307" lon="3.70082">
        <ele>133</ele>
        <time>2021-07-25T02:04:06Z</time>
      </trkpt>
      <trkpt lat="43.63083" lon="3.70137">
        <ele>133</ele>
        <time>2021-07-25T02:04:14Z</time>
      </trkpt>
      <trkpt lat="43.63097" lon="3.70195">
        <ele>135</ele>
        <time>2021-07-25T02:04:22Z</time>
      </trkpt>
      <trkpt lat="43.63099" lon="3.70203">
        <ele>135</ele>
        <time>2021-07-25T02:04:23Z</time>
      </trkpt>
      <trkpt lat="43.63121" lon="3.70299">
        <ele>136</ele>
        <time>2021-07-25T02:04:36Z</time>
      </trkpt>
      <trkpt lat="43.63131" lon="3.70343">
        <ele>137</ele>
        <time>2021-07-25T02:04:42Z</time>
      </trkpt>
      <trkpt lat="43.63151" lon="3.70424">
        <ele>137</ele>
        <time>2021-07-25T02:04:53Z</time>
      </trkpt>
      <trkpt lat="43.63253" lon="3.70855">
        <ele>142</ele>
        <time>2021-07-25T02:05:51Z</time>
      </trkpt>
      <trkpt lat="43.633" lon="3.71053">
        <ele>145</ele>
        <time>2021-07-25T02:06:18Z</time>
      </trkpt>
      <trkpt lat="43.63378" lon="3.71379">
        <ele>146</ele>
        <time>2021-07-25T02:07:02Z</time>
      </trkpt>
      <trkpt lat="43.63398" lon="3.71468">
        <ele>147</ele>
        <time>2021-07-25T02:07:14Z</time>
      </trkpt>
      <trkpt lat="43.63418" lon="3.71556">
        <ele>150</ele>
        <time>2021-07-25T02:07:26Z</time>
      </trkpt>
      <trkpt lat="43.63459" lon="3.71725">
        <ele>151</ele>
        <time>2021-07-25T02:07:49Z</time>
      </trkpt>
      <trkpt lat="43.63494" lon="3.71875">
        <ele>154</ele>
        <time>2021-07-25T02:08:09Z</time>
      </trkpt>
      <trkpt lat="43.63538" lon="3.72061">
        <ele>159</ele>
        <time>2021-07-25T02:08:35Z</time>
      </trkpt>
      <trkpt lat="43.63647" lon="3.7252">
        <ele>169</ele>
        <time>2021-07-25T02:09:37Z</time>
      </trkpt>
      <trkpt lat="43.63653" lon="3.72561">
        <ele>168</ele>
        <time>2021-07-25T02:09:42Z</time>
      </trkpt>
      <trkpt lat="43.63655" lon="3.72602">
        <ele>168</ele>
        <time>2021-07-25T02:09:47Z</time>
      </trkpt>
      <trkpt lat="43.63646" lon="3.72727">
        <ele>165</ele>
        <time>2021-07-25T02:10:04Z</time>
      </trkpt>
      <trkpt lat="43.63637" lon="3.72847">
        <ele>164</ele>
        <time>2021-07-25T02:10:19Z</time>
      </trkpt>
      <trkpt lat="43.63635" lon="3.72863">
        <ele>165</ele>
        <time>2021-07-25T02:10:21Z</time>
      </trkpt>
      <trkpt lat="43.63611" lon="3.73183">
        <ele>173</ele>
        <time>2021-07-25T02:11:03Z</time>
      </trkpt>
      <trkpt lat="43.6361" lon="3.73252">
        <ele>173</ele>
        <time>2021-07-25T02:11:12Z</time>
      </trkpt>
      <trkpt lat="43.63669" lon="3.73728">
        <ele>174</ele>
        <time>2021-07-25T02:12:14Z</time>
      </trkpt>
      <trkpt lat="43.63671" lon="3.73783">
        <ele>173</ele>
        <time>2021-07-25T02:12:21Z</time>
      </trkpt>
      <trkpt lat="43.63655" lon="3.74079">
        <ele>174</ele>
        <time>2021-07-25T02:12:59Z</time>
      </trkpt>
      <trkpt lat="43.63654" lon="3.74146">
        <ele>174</ele>
        <time>2021-07-25T02:13:08Z</time>
      </trkpt>
      <trkpt lat="43.6366" lon="3.74191">
        <ele>174</ele>
        <time>2021-07-25T02:13:14Z</time>
      </trkpt>
      <trkpt lat="43.63669" lon="3.74233">
        <ele>173</ele>
        <time>2021-07-25T02:13:19Z</time>
      </trkpt>
      <trkpt lat="43.63845" lon="3.74837">
        <ele>163</ele>
        <time>2021-07-25T02:14:43Z</time>
      </trkpt>
      <trkpt lat="43.6385" lon="3.74861">
        <ele>163</ele>
        <time>2021-07-25T02:14:46Z</time>
      </trkpt>
      <trkpt lat="43.63853" lon="3.74885">
        <ele>163</ele>
        <time>2021-07-25T02:14:49Z</time>
      </trkpt>
      <trkpt lat="43.63856" lon="3.74937">
        <ele>162</ele>
        <time>2021-07-25T02:14:56Z</time>
      </trkpt>
      <trkpt lat="43.63855" lon="3.74949">
        <ele>161</ele>
        <time>2021-07-25T02:14:58Z</time>
      </trkpt>
      <trkpt lat="43.63854" lon="3.74972">
        <ele>160</ele>
        <time>2021-07-25T02:15:01Z</time>
      </trkpt>
      <trkpt lat="43.63851" lon="3.74992">
        <ele>160</ele>
        <time>2021-07-25T02:15:03Z</time>
      </trkpt>
      <trkpt lat="43.63845" lon="3.75019">
        <ele>159</ele>
        <time>2021-07-25T02:15:07Z</time>
      </trkpt>
      <trkpt lat="43.63842" lon="3.75029">
        <ele>158</ele>
        <time>2021-07-25T02:15:08Z</time>
      </trkpt>
      <trkpt lat="43.6384" lon="3.75038">
        <ele>158</ele>
        <time>2021-07-25T02:15:10Z</time>
      </trkpt>
      <trkpt lat="43.63842" lon="3.7504">
        <ele>158</ele>
        <time>2021-07-25T02:15:10Z</time>
      </trkpt>
      <trkpt lat="43.63846" lon="3.75041">
        <ele>158</ele>
        <time>2021-07-25T02:15:11Z</time>
      </trkpt>
      <trkpt lat="43.6385" lon="3.75039">
        <ele>158</ele>
        <time>2021-07-25T02:15:11Z</time>
      </trkpt>
      <trkpt lat="43.63853" lon="3.75037">
        <ele>158</ele>
        <time>2021-07-25T02:15:12Z</time>
      </trkpt>
      <trkpt lat="43.6386" lon="3.75024">
        <ele>158</ele>
        <time>2021-07-25T02:15:14Z</time>
      </trkpt>
      <trkpt lat="43.63869" lon="3.75007">
        <ele>159</ele>
        <time>2021-07-25T02:15:17Z</time>
      </trkpt>
      <trkpt lat="43.63898" lon="3.74957">
        <ele>159</ele>
        <time>2021-07-25T02:15:25Z</time>
      </trkpt>
      <trkpt lat="43.63901" lon="3.74958">
        <ele>158</ele>
        <time>2021-07-25T02:15:26Z</time>
      </trkpt>
      <trkpt lat="43.63945" lon="3.74955">
        <ele>156</ele>
        <time>2021-07-25T02:15:34Z</time>
      </trkpt>
      <trkpt lat="43.63958" lon="3.74959">
        <ele>155</ele>
        <time>2021-07-25T02:15:36Z</time>
      </trkpt>
      <trkpt lat="43.63966" lon="3.74963">
        <ele>155</ele>
        <time>2021-07-25T02:15:37Z</time>
      </trkpt>
      <trkpt lat="43.6397" lon="3.74966">
        <ele>155</ele>
        <time>2021-07-25T02:15:38Z</time>
      </trkpt>
      <trkpt lat="43.64035" lon="3.75012">
        <ele>151</ele>
        <time>2021-07-25T02:15:51Z</time>
      </trkpt>
      <trkpt lat="43.64045" lon="3.75028">
        <ele>151</ele>
        <time>2021-07-25T02:15:54Z</time>
      </trkpt>
      <trkpt lat="43.64064" lon="3.75074">
        <ele>151</ele>
        <time>2021-07-25T02:16:01Z</time>
      </trkpt>
      <trkpt lat="43.64139" lon="3.75215">
        <ele>147</ele>
        <time>2021-07-25T02:16:23Z</time>
      </trkpt>
      <trkpt lat="43.64182" lon="3.7531">
        <ele>144</ele>
        <time>2021-07-25T02:16:38Z</time>
      </trkpt>
      <trkpt lat="43.64233" lon="3.75472">
        <ele>141</ele>
        <time>2021-07-25T02:17:00Z</time>
      </trkpt>
      <trkpt lat="43.64261" lon="3.75583">
        <ele>137</ele>
        <time>2021-07-25T02:17:16Z</time>
      </trkpt>
      <trkpt lat="43.64277" lon="3.75613">
        <ele>137</ele>
        <time>2021-07-25T02:17:20Z</time>
      </trkpt>
      <trkpt lat="43.64318" lon="3.75771">
        <ele>136</ele>
        <time>2021-07-25T02:17:42Z</time>
      </trkpt>
      <trkpt lat="43.64393" lon="3.76134">
        <ele>139</ele>
        <time>2021-07-25T02:18:31Z</time>
      </trkpt>
      <trkpt lat="43.64417" lon="3.76195">
        <ele>137</ele>
        <time>2021-07-25T02:18:40Z</time>
      </trkpt>
      <trkpt lat="43.64431" lon="3.76281">
        <ele>137</ele>
        <time>2021-07-25T02:18:51Z</time>
      </trkpt>
      <trkpt lat="43.6446" lon="3.76379">
        <ele>137</ele>
        <time>2021-07-25T02:19:05Z</time>
      </trkpt>
      <trkpt lat="43.64472" lon="3.76439">
        <ele>136</ele>
        <time>2021-07-25T02:19:13Z</time>
      </trkpt>
      <trkpt lat="43.64487" lon="3.76586">
        <ele>134</ele>
        <time>2021-07-25T02:19:32Z</time>
      </trkpt>
      <trkpt lat="43.645" lon="3.76629">
        <ele>133</ele>
        <time>2021-07-25T02:19:38Z</time>
      </trkpt>
      <trkpt lat="43.64519" lon="3.76659">
        <ele>134</ele>
        <time>2021-07-25T02:19:43Z</time>
      </trkpt>
      <trkpt lat="43.64559" lon="3.76716">
        <ele>135</ele>
        <time>2021-07-25T02:19:53Z</time>
      </trkpt>
      <trkpt lat="43.64577" lon="3.76758">
        <ele>135</ele>
        <time>2021-07-25T02:19:59Z</time>
      </trkpt>
      <trkpt lat="43.64598" lon="3.76778">
        <ele>135</ele>
        <time>2021-07-25T02:20:04Z</time>
      </trkpt>
      <trkpt lat="43.64647" lon="3.76805">
        <ele>134</ele>
        <time>2021-07-25T02:20:13Z</time>
      </trkpt>
      <trkpt lat="43.64655" lon="3.76821">
        <ele>134</ele>
        <time>2021-07-25T02:20:16Z</time>
      </trkpt>
      <trkpt lat="43.64656" lon="3.76838">
        <ele>134</ele>
        <time>2021-07-25T02:20:18Z</time>
      </trkpt>
      <trkpt lat="43.64656" lon="3.76922">
        <ele>135</ele>
        <time>2021-07-25T02:20:29Z</time>
      </trkpt>
      <trkpt lat="43.64651" lon="3.77055">
        <ele>136</ele>
        <time>2021-07-25T02:20:46Z</time>
      </trkpt>
      <trkpt lat="43.64638" lon="3.77096">
        <ele>135</ele>
        <time>2021-07-25T02:20:52Z</time>
      </trkpt>
      <trkpt lat="43.64617" lon="3.77182">
        <ele>132</ele>
        <time>2021-07-25T02:21:03Z</time>
      </trkpt>
      <trkpt lat="43.64614" lon="3.77207">
        <ele>131</ele>
        <time>2021-07-25T02:21:07Z</time>
      </trkpt>
      <trkpt lat="43.64634" lon="3.77284">
        <ele>128</ele>
        <time>2021-07-25T02:21:17Z</time>
      </trkpt>
      <trkpt lat="43.64642" lon="3.77427">
        <ele>123</ele>
        <time>2021-07-25T02:21:36Z</time>
      </trkpt>
      <trkpt lat="43.64635" lon="3.7746">
        <ele>122</ele>
        <time>2021-07-25T02:21:40Z</time>
      </trkpt>
      <trkpt lat="43.64616" lon="3.77501">
        <ele>122</ele>
        <time>2021-07-25T02:21:46Z</time>
      </trkpt>
      <trkpt lat="43.64611" lon="3.77568">
        <ele>122</ele>
        <time>2021-07-25T02:21:55Z</time>
      </trkpt>
      <trkpt lat="43.64617" lon="3.77589">
        <ele>121</ele>
        <time>2021-07-25T02:21:58Z</time>
      </trkpt>
      <trkpt lat="43.64633" lon="3.776">
        <ele>120</ele>
        <time>2021-07-25T02:22:01Z</time>
      </trkpt>
      <trkpt lat="43.64656" lon="3.77606">
        <ele>118</ele>
        <time>2021-07-25T02:22:05Z</time>
      </trkpt>
      <trkpt lat="43.64677" lon="3.77616">
        <ele>116</ele>
        <time>2021-07-25T02:22:09Z</time>
      </trkpt>
      <trkpt lat="43.64693" lon="3.77633">
        <ele>115</ele>
        <time>2021-07-25T02:22:13Z</time>
      </trkpt>
      <trkpt lat="43.6473" lon="3.77702">
        <ele>115</ele>
        <time>2021-07-25T02:22:24Z</time>
      </trkpt>
      <trkpt lat="43.64751" lon="3.77721">
        <ele>113</ele>
        <time>2021-07-25T02:22:28Z</time>
      </trkpt>
      <trkpt lat="43.64821" lon="3.77741">
        <ele>111</ele>
        <time>2021-07-25T02:22:41Z</time>
      </trkpt>
      <trkpt lat="43.64828" lon="3.77741">
        <ele>110</ele>
        <time>2021-07-25T02:22:42Z</time>
      </trkpt>
      <trkpt lat="43.64839" lon="3.77738">
        <ele>109</ele>
        <time>2021-07-25T02:22:44Z</time>
      </trkpt>
      <trkpt lat="43.64865" lon="3.7773">
        <ele>107</ele>
        <time>2021-07-25T02:22:49Z</time>
      </trkpt>
      <trkpt lat="43.64894" lon="3.77732">
        <ele>106</ele>
        <time>2021-07-25T02:22:54Z</time>
      </trkpt>
      <trkpt lat="43.64987" lon="3.77744">
        <ele>99</ele>
        <time>2021-07-25T02:23:11Z</time>
      </trkpt>
      <trkpt lat="43.65022" lon="3.77748">
        <ele>96</ele>
        <time>2021-07-25T02:23:17Z</time>
      </trkpt>
      <trkpt lat="43.65039" lon="3.77756">
        <ele>96</ele>
        <time>2021-07-25T02:23:20Z</time>
      </trkpt>
      <trkpt lat="43.65056" lon="3.77781">
        <ele>96</ele>
        <time>2021-07-25T02:23:25Z</time>
      </trkpt>
      <trkpt lat="43.65083" lon="3.77836">
        <ele>95</ele>
        <time>2021-07-25T02:23:33Z</time>
      </trkpt>
      <trkpt lat="43.65102" lon="3.77911">
        <ele>95</ele>
        <time>2021-07-25T02:23:43Z</time>
      </trkpt>
      <trkpt lat="43.65115" lon="3.77985">
        <ele>91</ele>
        <time>2021-07-25T02:23:53Z</time>
      </trkpt>
      <trkpt lat="43.65121" lon="3.78021">
        <ele>89</ele>
        <time>2021-07-25T02:23:58Z</time>
      </trkpt>
      <trkpt lat="43.65123" lon="3.78027">
        <ele>89</ele>
        <time>2021-07-25T02:23:59Z</time>
      </trkpt>
      <trkpt lat="43.65126" lon="3.78033">
        <ele>88</ele>
        <time>2021-07-25T02:24:00Z</time>
      </trkpt>
      <trkpt lat="43.65131" lon="3.78038">
        <ele>88</ele>
        <time>2021-07-25T02:24:01Z</time>
      </trkpt>
      <trkpt lat="43.65137" lon="3.78039">
        <ele>87</ele>
        <time>2021-07-25T02:24:02Z</time>
      </trkpt>
      <trkpt lat="43.65154" lon="3.78036">
        <ele>86</ele>
        <time>2021-07-25T02:24:05Z</time>
      </trkpt>
      <trkpt lat="43.65163" lon="3.78041">
        <ele>85</ele>
        <time>2021-07-25T02:24:07Z</time>
      </trkpt>
      <trkpt lat="43.6517" lon="3.78055">
        <ele>84</ele>
        <time>2021-07-25T02:24:09Z</time>
      </trkpt>
      <trkpt lat="43.65179" lon="3.78098">
        <ele>84</ele>
        <time>2021-07-25T02:24:15Z</time>
      </trkpt>
      <trkpt lat="43.65182" lon="3.78121">
        <ele>83</ele>
        <time>2021-07-25T02:24:18Z</time>
      </trkpt>
      <trkpt lat="43.65178" lon="3.78152">
        <ele>83</ele>
        <time>2021-07-25T02:24:22Z</time>
      </trkpt>
      <trkpt lat="43.65173" lon="3.78178">
        <ele>82</ele>
        <time>2021-07-25T02:24:25Z</time>
      </trkpt>
      <trkpt lat="43.6517" lon="3.78188">
        <ele>82</ele>
        <time>2021-07-25T02:24:27Z</time>
      </trkpt>
      <trkpt lat="43.65168" lon="3.78198">
        <ele>82</ele>
        <time>2021-07-25T02:24:28Z</time>
      </trkpt>
      <trkpt lat="43.65167" lon="3.78234">
        <ele>81</ele>
        <time>2021-07-25T02:24:33Z</time>
      </trkpt>
      <trkpt lat="43.65169" lon="3.78271">
        <ele>80</ele>
        <time>2021-07-25T02:24:37Z</time>
      </trkpt>
      <trkpt lat="43.65176" lon="3.78332">
        <ele>78</ele>
        <time>2021-07-25T02:24:45Z</time>
      </trkpt>
      <trkpt lat="43.65187" lon="3.78392">
        <ele>77</ele>
        <time>2021-07-25T02:24:53Z</time>
      </trkpt>
      <trkpt lat="43.65191" lon="3.78411">
        <ele>77</ele>
        <time>2021-07-25T02:24:56Z</time>
      </trkpt>
      <trkpt lat="43.65198" lon="3.78458">
        <ele>76</ele>
        <time>2021-07-25T02:25:02Z</time>
      </trkpt>
      <trkpt lat="43.65198" lon="3.78478">
        <ele>75</ele>
        <time>2021-07-25T02:25:05Z</time>
      </trkpt>
      <trkpt lat="43.65192" lon="3.7852">
        <ele>74</ele>
        <time>2021-07-25T02:25:10Z</time>
      </trkpt>
      <trkpt lat="43.65192" lon="3.78544">
        <ele>73</ele>
        <time>2021-07-25T02:25:13Z</time>
      </trkpt>
      <trkpt lat="43.65205" lon="3.78635">
        <ele>70</ele>
        <time>2021-07-25T02:25:25Z</time>
      </trkpt>
      <trkpt lat="43.65212" lon="3.78745">
        <ele>67</ele>
        <time>2021-07-25T02:25:39Z</time>
      </trkpt>
      <trkpt lat="43.65208" lon="3.78757">
        <ele>66</ele>
        <time>2021-07-25T02:25:41Z</time>
      </trkpt>
      <trkpt lat="43.65203" lon="3.78766">
        <ele>66</ele>
        <time>2021-07-25T02:25:42Z</time>
      </trkpt>
      <trkpt lat="43.65196" lon="3.78773">
        <ele>66</ele>
        <time>2021-07-25T02:25:44Z</time>
      </trkpt>
      <trkpt lat="43.65147" lon="3.78811">
        <ele>66</ele>
        <time>2021-07-25T02:25:54Z</time>
      </trkpt>
      <trkpt lat="43.65141" lon="3.78814">
        <ele>66</ele>
        <time>2021-07-25T02:25:55Z</time>
      </trkpt>
      <trkpt lat="43.65108" lon="3.78838">
        <ele>67</ele>
        <time>2021-07-25T02:26:02Z</time>
      </trkpt>
      <trkpt lat="43.65091" lon="3.78852">
        <ele>67</ele>
        <time>2021-07-25T02:26:05Z</time>
      </trkpt>
      <trkpt lat="43.65077" lon="3.78871">
        <ele>67</ele>
        <time>2021-07-25T02:26:09Z</time>
      </trkpt>
      <trkpt lat="43.65074" lon="3.78878">
        <ele>67</ele>
        <time>2021-07-25T02:26:10Z</time>
      </trkpt>
      <trkpt lat="43.65071" lon="3.78886">
        <ele>66</ele>
        <time>2021-07-25T02:26:11Z</time>
      </trkpt>
      <trkpt lat="43.65071" lon="3.789">
        <ele>65</ele>
        <time>2021-07-25T02:26:13Z</time>
      </trkpt>
      <trkpt lat="43.65075" lon="3.78914">
        <ele>64</ele>
        <time>2021-07-25T02:26:15Z</time>
      </trkpt>
      <trkpt lat="43.65094" lon="3.78975">
        <ele>63</ele>
        <time>2021-07-25T02:26:23Z</time>
      </trkpt>
      <trkpt lat="43.65097" lon="3.78989">
        <ele>63</ele>
        <time>2021-07-25T02:26:25Z</time>
      </trkpt>
      <trkpt lat="43.65098" lon="3.79003">
        <ele>63</ele>
        <time>2021-07-25T02:26:27Z</time>
      </trkpt>
      <trkpt lat="43.65096" lon="3.79025">
        <ele>65</ele>
        <time>2021-07-25T02:26:30Z</time>
      </trkpt>
      <trkpt lat="43.65091" lon="3.79041">
        <ele>66</ele>
        <time>2021-07-25T02:26:32Z</time>
      </trkpt>
      <trkpt lat="43.65074" lon="3.79066">
        <ele>67</ele>
        <time>2021-07-25T02:26:36Z</time>
      </trkpt>
      <trkpt lat="43.65072" lon="3.79072">
        <ele>67</ele>
        <time>2021-07-25T02:26:37Z</time>
      </trkpt>
      <trkpt lat="43.65071" lon="3.79077">
        <ele>67</ele>
        <time>2021-07-25T02:26:38Z</time>
      </trkpt>
      <trkpt lat="43.65071" lon="3.79079">
        <ele>68</ele>
        <time>2021-07-25T02:26:38Z</time>
      </trkpt>
      <trkpt lat="43.65071" lon="3.79082">
        <ele>68</ele>
        <time>2021-07-25T02:26:39Z</time>
      </trkpt>
      <trkpt lat="43.65071" lon="3.79091">
        <ele>69</ele>
        <time>2021-07-25T02:26:40Z</time>
      </trkpt>
      <trkpt lat="43.65062" lon="3.791">
        <ele>69</ele>
        <time>2021-07-25T02:26:42Z</time>
      </trkpt>
      <trkpt lat="43.65049" lon="3.79121">
        <ele>69</ele>
        <time>2021-07-25T02:26:45Z</time>
      </trkpt>
      <trkpt lat="43.65037" lon="3.79155">
        <ele>71</ele>
        <time>2021-07-25T02:26:50Z</time>
      </trkpt>
      <trkpt lat="43.65006" lon="3.7919">
        <ele>70</ele>
        <time>2021-07-25T02:26:57Z</time>
      </trkpt>
      <trkpt lat="43.64996" lon="3.79213">
        <ele>70</ele>
        <time>2021-07-25T02:27:01Z</time>
      </trkpt>
      <trkpt lat="43.64963" lon="3.79378">
        <ele>70</ele>
        <time>2021-07-25T02:27:23Z</time>
      </trkpt>
      <trkpt lat="43.64956" lon="3.79402">
        <ele>69</ele>
        <time>2021-07-25T02:27:26Z</time>
      </trkpt>
      <trkpt lat="43.64934" lon="3.79458">
        <ele>67</ele>
        <time>2021-07-25T02:27:34Z</time>
      </trkpt>
      <trkpt lat="43.64897" lon="3.79537">
        <ele>66</ele>
        <time>2021-07-25T02:27:46Z</time>
      </trkpt>
      <trkpt lat="43.64824" lon="3.79681">
        <ele>68</ele>
        <time>2021-07-25T02:28:09Z</time>
      </trkpt>
      <trkpt lat="43.64811" lon="3.79714">
        <ele>67</ele>
        <time>2021-07-25T02:28:14Z</time>
      </trkpt>
      <trkpt lat="43.6479" lon="3.79746">
        <ele>66</ele>
        <time>2021-07-25T02:28:20Z</time>
      </trkpt>
      <trkpt lat="43.64774" lon="3.79778">
        <ele>65</ele>
        <time>2021-07-25T02:28:25Z</time>
      </trkpt>
      <trkpt lat="43.64766" lon="3.79806">
        <ele>65</ele>
        <time>2021-07-25T02:28:28Z</time>
      </trkpt>
      <trkpt lat="43.64752" lon="3.79987">
        <ele>67</ele>
        <time>2021-07-25T02:28:52Z</time>
      </trkpt>
      <trkpt lat="43.6475" lon="3.80002">
        <ele>67</ele>
        <time>2021-07-25T02:28:54Z</time>
      </trkpt>
      <trkpt lat="43.64746" lon="3.80019">
        <ele>67</ele>
        <time>2021-07-25T02:28:56Z</time>
      </trkpt>
      <trkpt lat="43.64732" lon="3.80062">
        <ele>67</ele>
        <time>2021-07-25T02:29:02Z</time>
      </trkpt>
      <trkpt lat="43.64718" lon="3.80095">
        <ele>66</ele>
        <time>2021-07-25T02:29:07Z</time>
      </trkpt>
      <trkpt lat="43.64704" lon="3.80132">
        <ele>65</ele>
        <time>2021-07-25T02:29:12Z</time>
      </trkpt>
      <trkpt lat="43.6469" lon="3.80177">
        <ele>63</ele>
        <time>2021-07-25T02:29:19Z</time>
      </trkpt>
      <trkpt lat="43.6468" lon="3.8024">
        <ele>62</ele>
        <time>2021-07-25T02:29:27Z</time>
      </trkpt>
      <trkpt lat="43.64679" lon="3.80247">
        <ele>62</ele>
        <time>2021-07-25T02:29:28Z</time>
      </trkpt>
      <trkpt lat="43.64677" lon="3.8027">
        <ele>61</ele>
        <time>2021-07-25T02:29:31Z</time>
      </trkpt>
      <trkpt lat="43.64676" lon="3.80285">
        <ele>61</ele>
        <time>2021-07-25T02:29:33Z</time>
      </trkpt>
      <trkpt lat="43.64675" lon="3.80303">
        <ele>61</ele>
        <time>2021-07-25T02:29:35Z</time>
      </trkpt>
      <trkpt lat="43.64669" lon="3.80384">
        <ele>62</ele>
        <time>2021-07-25T02:29:46Z</time>
      </trkpt>
      <trkpt lat="43.64668" lon="3.80403">
        <ele>62</ele>
        <time>2021-07-25T02:29:48Z</time>
      </trkpt>
      <trkpt lat="43.64668" lon="3.80418">
        <ele>62</ele>
        <time>2021-07-25T02:29:50Z</time>
      </trkpt>
      <trkpt lat="43.64668" lon="3.80425">
        <ele>62</ele>
        <time>2021-07-25T02:29:51Z</time>
      </trkpt>
      <trkpt lat="43.64669" lon="3.80444">
        <ele>62</ele>
        <time>2021-07-25T02:29:53Z</time>
      </trkpt>
      <trkpt lat="43.64672" lon="3.8047">
        <ele>61</ele>
        <time>2021-07-25T02:29:57Z</time>
      </trkpt>
      <trkpt lat="43.64674" lon="3.8049">
        <ele>61</ele>
        <time>2021-07-25T02:29:59Z</time>
      </trkpt>
      <trkpt lat="43.6468" lon="3.80545">
        <ele>62</ele>
        <time>2021-07-25T02:30:07Z</time>
      </trkpt>
      <trkpt lat="43.64683" lon="3.80576">
        <ele>63</ele>
        <time>2021-07-25T02:30:11Z</time>
      </trkpt>
      <trkpt lat="43.64684" lon="3.80586">
        <ele>63</ele>
        <time>2021-07-25T02:30:12Z</time>
      </trkpt>
      <trkpt lat="43.64684" lon="3.80594">
        <ele>64</ele>
        <time>2021-07-25T02:30:13Z</time>
      </trkpt>
      <trkpt lat="43.64685" lon="3.80609">
        <ele>64</ele>
        <time>2021-07-25T02:30:15Z</time>
      </trkpt>
      <trkpt lat="43.64685" lon="3.80623">
        <ele>64</ele>
        <time>2021-07-25T02:30:17Z</time>
      </trkpt>
      <trkpt lat="43.64682" lon="3.80682">
        <ele>66</ele>
        <time>2021-07-25T02:30:24Z</time>
      </trkpt>
      <trkpt lat="43.64681" lon="3.80691">
        <ele>66</ele>
        <time>2021-07-25T02:30:26Z</time>
      </trkpt>
      <trkpt lat="43.6468" lon="3.80698">
        <ele>66</ele>
        <time>2021-07-25T02:30:26Z</time>
      </trkpt>
      <trkpt lat="43.64678" lon="3.80721">
        <ele>66</ele>
        <time>2021-07-25T02:30:29Z</time>
      </trkpt>
      <trkpt lat="43.64673" lon="3.80741">
        <ele>65</ele>
        <time>2021-07-25T02:30:32Z</time>
      </trkpt>
      <trkpt lat="43.64668" lon="3.80758">
        <ele>65</ele>
        <time>2021-07-25T02:30:34Z</time>
      </trkpt>
      <trkpt lat="43.64664" lon="3.80769">
        <ele>65</ele>
        <time>2021-07-25T02:30:36Z</time>
      </trkpt>
      <trkpt lat="43.64658" lon="3.80785">
        <ele>65</ele>
        <time>2021-07-25T02:30:38Z</time>
      </trkpt>
      <trkpt lat="43.64658" lon="3.80787">
        <ele>65</ele>
        <time>2021-07-25T02:30:39Z</time>
      </trkpt>
      <trkpt lat="43.6465" lon="3.80814">
        <ele>64</ele>
        <time>2021-07-25T02:30:42Z</time>
      </trkpt>
      <trkpt lat="43.64648" lon="3.80818">
        <ele>64</ele>
        <time>2021-07-25T02:30:43Z</time>
      </trkpt>
      <trkpt lat="43.64645" lon="3.8083">
        <ele>64</ele>
        <time>2021-07-25T02:30:45Z</time>
      </trkpt>
      <trkpt lat="43.64641" lon="3.80843">
        <ele>64</ele>
        <time>2021-07-25T02:30:46Z</time>
      </trkpt>
      <trkpt lat="43.64636" lon="3.8086">
        <ele>64</ele>
        <time>2021-07-25T02:30:49Z</time>
      </trkpt>
      <trkpt lat="43.64622" lon="3.80917">
        <ele>63</ele>
        <time>2021-07-25T02:30:57Z</time>
      </trkpt>
      <trkpt lat="43.64619" lon="3.80933">
        <ele>63</ele>
        <time>2021-07-25T02:30:59Z</time>
      </trkpt>
      <trkpt lat="43.64609" lon="3.80981">
        <ele>64</ele>
        <time>2021-07-25T02:31:05Z</time>
      </trkpt>
      <trkpt lat="43.64598" lon="3.81007">
        <ele>64</ele>
        <time>2021-07-25T02:31:09Z</time>
      </trkpt>
      <trkpt lat="43.64593" lon="3.81026">
        <ele>64</ele>
        <time>2021-07-25T02:31:12Z</time>
      </trkpt>
      <trkpt lat="43.64591" lon="3.81029">
        <ele>64</ele>
        <time>2021-07-25T02:31:12Z</time>
      </trkpt>
      <trkpt lat="43.64589" lon="3.81032">
        <ele>64</ele>
        <time>2021-07-25T02:31:13Z</time>
      </trkpt>
      <trkpt lat="43.64589" lon="3.81036">
        <ele>64</ele>
        <time>2021-07-25T02:31:13Z</time>
      </trkpt>
      <trkpt lat="43.64592" lon="3.81047">
        <ele>64</ele>
        <time>2021-07-25T02:31:15Z</time>
      </trkpt>
      <trkpt lat="43.64594" lon="3.81049">
        <ele>64</ele>
        <time>2021-07-25T02:31:15Z</time>
      </trkpt>
      <trkpt lat="43.64597" lon="3.81057">
        <ele>64</ele>
        <time>2021-07-25T02:31:16Z</time>
      </trkpt>
      <trkpt lat="43.64594" lon="3.81089">
        <ele>64</ele>
        <time>2021-07-25T02:31:20Z</time>
      </trkpt>
      <trkpt lat="43.64592" lon="3.8111">
        <ele>64</ele>
        <time>2021-07-25T02:31:23Z</time>
      </trkpt>
      <trkpt lat="43.6459" lon="3.81134">
        <ele>64</ele>
        <time>2021-07-25T02:31:26Z</time>
      </trkpt>
      <trkpt lat="43.64591" lon="3.81158">
        <ele>64</ele>
        <time>2021-07-25T02:31:29Z</time>
      </trkpt>
      <trkpt lat="43.64591" lon="3.8116">
        <ele>64</ele>
        <time>2021-07-25T02:31:30Z</time>
      </trkpt>
      <trkpt lat="43.64591" lon="3.81178">
        <ele>64</ele>
        <time>2021-07-25T02:31:32Z</time>
      </trkpt>
      <trkpt lat="43.64591" lon="3.81188">
        <ele>64</ele>
        <time>2021-07-25T02:31:33Z</time>
      </trkpt>
      <trkpt lat="43.64591" lon="3.81194">
        <ele>64</ele>
        <time>2021-07-25T02:31:34Z</time>
      </trkpt>
      <trkpt lat="43.64597" lon="3.81433">
        <ele>71</ele>
        <time>2021-07-25T02:32:05Z</time>
      </trkpt>
      <trkpt lat="43.64595" lon="3.81465">
        <ele>73</ele>
        <time>2021-07-25T02:32:09Z</time>
      </trkpt>
      <trkpt lat="43.64594" lon="3.81479">
        <ele>73</ele>
        <time>2021-07-25T02:32:11Z</time>
      </trkpt>
      <trkpt lat="43.64591" lon="3.81481">
        <ele>74</ele>
        <time>2021-07-25T02:32:11Z</time>
      </trkpt>
      <trkpt lat="43.64588" lon="3.81489">
        <ele>74</ele>
        <time>2021-07-25T02:32:13Z</time>
      </trkpt>
      <trkpt lat="43.64588" lon="3.81494">
        <ele>74</ele>
        <time>2021-07-25T02:32:13Z</time>
      </trkpt>
      <trkpt lat="43.64588" lon="3.81498">
        <ele>75</ele>
        <time>2021-07-25T02:32:14Z</time>
      </trkpt>
      <trkpt lat="43.6459" lon="3.81502">
        <ele>75</ele>
        <time>2021-07-25T02:32:14Z</time>
      </trkpt>
      <trkpt lat="43.64593" lon="3.81505">
        <ele>75</ele>
        <time>2021-07-25T02:32:15Z</time>
      </trkpt>
      <trkpt lat="43.64594" lon="3.81505">
        <ele>75</ele>
        <time>2021-07-25T02:32:15Z</time>
      </trkpt>
      <trkpt lat="43.64598" lon="3.81522">
        <ele>75</ele>
        <time>2021-07-25T02:32:17Z</time>
      </trkpt>
      <trkpt lat="43.64601" lon="3.81552">
        <ele>75</ele>
        <time>2021-07-25T02:32:21Z</time>
      </trkpt>
      <trkpt lat="43.64614" lon="3.81969">
        <ele>88</ele>
        <time>2021-07-25T02:33:15Z</time>
      </trkpt>
      <trkpt lat="43.6461" lon="3.82036">
        <ele>88</ele>
        <time>2021-07-25T02:33:24Z</time>
      </trkpt>
      <trkpt lat="43.64602" lon="3.82082">
        <ele>88</ele>
        <time>2021-07-25T02:33:30Z</time>
      </trkpt>
      <trkpt lat="43.64583" lon="3.82139">
        <ele>94</ele>
        <time>2021-07-25T02:33:38Z</time>
      </trkpt>
      <trkpt lat="43.64561" lon="3.82185">
        <ele>97</ele>
        <time>2021-07-25T02:33:45Z</time>
      </trkpt>
      <trkpt lat="43.64537" lon="3.82221">
        <ele>97</ele>
        <time>2021-07-25T02:33:51Z</time>
      </trkpt>
      <trkpt lat="43.64512" lon="3.82247">
        <ele>96</ele>
        <time>2021-07-25T02:33:57Z</time>
      </trkpt>
      <trkpt lat="43.64496" lon="3.8226">
        <ele>96</ele>
        <time>2021-07-25T02:34:00Z</time>
      </trkpt>
      <trkpt lat="43.64463" lon="3.82278">
        <ele>97</ele>
        <time>2021-07-25T02:34:07Z</time>
      </trkpt>
      <trkpt lat="43.64457" lon="3.82278">
        <ele>97</ele>
        <time>2021-07-25T02:34:08Z</time>
      </trkpt>
      <trkpt lat="43.6445" lon="3.82276">
        <ele>97</ele>
        <time>2021-07-25T02:34:09Z</time>
      </trkpt>
      <trkpt lat="43.64443" lon="3.82272">
        <ele>97</ele>
        <time>2021-07-25T02:34:10Z</time>
      </trkpt>
      <trkpt lat="43.64438" lon="3.82267">
        <ele>97</ele>
        <time>2021-07-25T02:34:11Z</time>
      </trkpt>
      <trkpt lat="43.64428" lon="3.8226">
        <ele>97</ele>
        <time>2021-07-25T02:34:13Z</time>
      </trkpt>
      <trkpt lat="43.64416" lon="3.82256">
        <ele>97</ele>
        <time>2021-07-25T02:34:15Z</time>
      </trkpt>
      <trkpt lat="43.64406" lon="3.82256">
        <ele>98</ele>
        <time>2021-07-25T02:34:17Z</time>
      </trkpt>
      <trkpt lat="43.64395" lon="3.8226">
        <ele>98</ele>
        <time>2021-07-25T02:34:19Z</time>
      </trkpt>
      <trkpt lat="43.64389" lon="3.82264">
        <ele>99</ele>
        <time>2021-07-25T02:34:20Z</time>
      </trkpt>
      <trkpt lat="43.64378" lon="3.82277">
        <ele>99</ele>
        <time>2021-07-25T02:34:23Z</time>
      </trkpt>
      <trkpt lat="43.64375" lon="3.82285">
        <ele>99</ele>
        <time>2021-07-25T02:34:24Z</time>
      </trkpt>
      <trkpt lat="43.64371" lon="3.82295">
        <ele>99</ele>
        <time>2021-07-25T02:34:26Z</time>
      </trkpt>
      <trkpt lat="43.64369" lon="3.82306">
        <ele>99</ele>
        <time>2021-07-25T02:34:27Z</time>
      </trkpt>
      <trkpt lat="43.64368" lon="3.82324">
        <ele>99</ele>
        <time>2021-07-25T02:34:29Z</time>
      </trkpt>
      <trkpt lat="43.64364" lon="3.82334">
        <ele>99</ele>
        <time>2021-07-25T02:34:31Z</time>
      </trkpt>
      <trkpt lat="43.64358" lon="3.82346">
        <ele>98</ele>
        <time>2021-07-25T02:34:33Z</time>
      </trkpt>
      <trkpt lat="43.64348" lon="3.82356">
        <ele>98</ele>
        <time>2021-07-25T02:34:35Z</time>
      </trkpt>
      <trkpt lat="43.6434" lon="3.82368">
        <ele>98</ele>
        <time>2021-07-25T02:34:37Z</time>
      </trkpt>
      <trkpt lat="43.6433" lon="3.82378">
        <ele>97</ele>
        <time>2021-07-25T02:34:39Z</time>
      </trkpt>
      <trkpt lat="43.64311" lon="3.82403">
        <ele>97</ele>
        <time>2021-07-25T02:34:44Z</time>
      </trkpt>
      <trkpt lat="43.64309" lon="3.82405">
        <ele>97</ele>
        <time>2021-07-25T02:34:44Z</time>
      </trkpt>
      <trkpt lat="43.643" lon="3.82418">
        <ele>97</ele>
        <time>2021-07-25T02:34:47Z</time>
      </trkpt>
      <trkpt lat="43.64292" lon="3.82431">
        <ele>97</ele>
        <time>2021-07-25T02:34:49Z</time>
      </trkpt>
      <trkpt lat="43.64232" lon="3.8257">
        <ele>93</ele>
        <time>2021-07-25T02:35:10Z</time>
      </trkpt>
      <trkpt lat="43.64211" lon="3.82605">
        <ele>92</ele>
        <time>2021-07-25T02:35:16Z</time>
      </trkpt>
      <trkpt lat="43.64186" lon="3.8264">
        <ele>92</ele>
        <time>2021-07-25T02:35:22Z</time>
      </trkpt>
      <trkpt lat="43.64138" lon="3.82695">
        <ele>88</ele>
        <time>2021-07-25T02:35:33Z</time>
      </trkpt>
      <trkpt lat="43.64106" lon="3.82728">
        <ele>85</ele>
        <time>2021-07-25T02:35:40Z</time>
      </trkpt>
      <trkpt lat="43.64082" lon="3.82748">
        <ele>83</ele>
        <time>2021-07-25T02:35:45Z</time>
      </trkpt>
      <trkpt lat="43.64059" lon="3.82767">
        <ele>82</ele>
        <time>2021-07-25T02:35:50Z</time>
      </trkpt>
      <trkpt lat="43.64052" lon="3.82775">
        <ele>81</ele>
        <time>2021-07-25T02:35:52Z</time>
      </trkpt>
      <trkpt lat="43.6404" lon="3.82785">
        <ele>80</ele>
        <time>2021-07-25T02:35:54Z</time>
      </trkpt>
      <trkpt lat="43.64026" lon="3.82793">
        <ele>80</ele>
        <time>2021-07-25T02:35:57Z</time>
      </trkpt>
      <trkpt lat="43.64019" lon="3.82799">
        <ele>80</ele>
        <time>2021-07-25T02:35:58Z</time>
      </trkpt>
      <trkpt lat="43.64009" lon="3.82797">
        <ele>80</ele>
        <time>2021-07-25T02:36:00Z</time>
      </trkpt>
      <trkpt lat="43.64005" lon="3.82797">
        <ele>80</ele>
        <time>2021-07-25T02:36:01Z</time>
      </trkpt>
      <trkpt lat="43.6398" lon="3.82799">
        <ele>80</ele>
        <time>2021-07-25T02:36:05Z</time>
      </trkpt>
      <trkpt lat="43.63975" lon="3.828">
        <ele>80</ele>
        <time>2021-07-25T02:36:06Z</time>
      </trkpt>
      <trkpt lat="43.6397" lon="3.82803">
        <ele>80</ele>
        <time>2021-07-25T02:36:07Z</time>
      </trkpt>
      <trkpt lat="43.63955" lon="3.82824">
        <ele>79</ele>
        <time>2021-07-25T02:36:11Z</time>
      </trkpt>
      <trkpt lat="43.63952" lon="3.82827">
        <ele>79</ele>
        <time>2021-07-25T02:36:11Z</time>
      </trkpt>
      <trkpt lat="43.63948" lon="3.82833">
        <ele>78</ele>
        <time>2021-07-25T02:36:13Z</time>
      </trkpt>
      <trkpt lat="43.63944" lon="3.82843">
        <ele>78</ele>
        <time>2021-07-25T02:36:14Z</time>
      </trkpt>
      <trkpt lat="43.63939" lon="3.82851">
        <ele>78</ele>
        <time>2021-07-25T02:36:15Z</time>
      </trkpt>
      <trkpt lat="43.63945" lon="3.82867">
        <ele>78</ele>
        <time>2021-07-25T02:36:18Z</time>
      </trkpt>
      <trkpt lat="43.63953" lon="3.82879">
        <ele>78</ele>
        <time>2021-07-25T02:36:20Z</time>
      </trkpt>
      <trkpt lat="43.63966" lon="3.82898">
        <ele>79</ele>
        <time>2021-07-25T02:36:23Z</time>
      </trkpt>
      <trkpt lat="43.63991" lon="3.82933">
        <ele>79</ele>
        <time>2021-07-25T02:36:29Z</time>
      </trkpt>
      <trkpt lat="43.64003" lon="3.8295">
        <ele>79</ele>
        <time>2021-07-25T02:36:33Z</time>
      </trkpt>
      <trkpt lat="43.64071" lon="3.83047">
        <ele>77</ele>
        <time>2021-07-25T02:36:50Z</time>
      </trkpt>
      <trkpt lat="43.64087" lon="3.83076">
        <ele>76</ele>
        <time>2021-07-25T02:36:55Z</time>
      </trkpt>
      <trkpt lat="43.64109" lon="3.83133">
        <ele>75</ele>
        <time>2021-07-25T02:37:03Z</time>
      </trkpt>
      <trkpt lat="43.64123" lon="3.83176">
        <ele>76</ele>
        <time>2021-07-25T02:37:09Z</time>
      </trkpt>
      <trkpt lat="43.64158" lon="3.83244">
        <ele>74</ele>
        <time>2021-07-25T02:37:20Z</time>
      </trkpt>
      <trkpt lat="43.64163" lon="3.83257">
        <ele>74</ele>
        <time>2021-07-25T02:37:22Z</time>
      </trkpt>
      <trkpt lat="43.64166" lon="3.83272">
        <ele>73</ele>
        <time>2021-07-25T02:37:24Z</time>
      </trkpt>
      <trkpt lat="43.64166" lon="3.83296">
        <ele>72</ele>
        <time>2021-07-25T02:37:27Z</time>
      </trkpt>
      <trkpt lat="43.64165" lon="3.83322">
        <ele>71</ele>
        <time>2021-07-25T02:37:30Z</time>
      </trkpt>
      <trkpt lat="43.64162" lon="3.83353">
        <ele>71</ele>
        <time>2021-07-25T02:37:34Z</time>
      </trkpt>
      <trkpt lat="43.64152" lon="3.83398">
        <ele>69</ele>
        <time>2021-07-25T02:37:40Z</time>
      </trkpt>
      <trkpt lat="43.64126" lon="3.83476">
        <ele>68</ele>
        <time>2021-07-25T02:37:51Z</time>
      </trkpt>
      <trkpt lat="43.64127" lon="3.83483">
        <ele>68</ele>
        <time>2021-07-25T02:37:52Z</time>
      </trkpt>
      <trkpt lat="43.64117" lon="3.83497">
        <ele>68</ele>
        <time>2021-07-25T02:37:55Z</time>
      </trkpt>
      <trkpt lat="43.64092" lon="3.83551">
        <ele>68</ele>
        <time>2021-07-25T02:38:03Z</time>
      </trkpt>
      <trkpt lat="43.64077" lon="3.83588">
        <ele>67</ele>
        <time>2021-07-25T02:38:08Z</time>
      </trkpt>
      <trkpt lat="43.64063" lon="3.83633">
        <ele>66</ele>
        <time>2021-07-25T02:38:15Z</time>
      </trkpt>
      <trkpt lat="43.6405" lon="3.83718">
        <ele>63</ele>
        <time>2021-07-25T02:38:26Z</time>
      </trkpt>
      <trkpt lat="43.64045" lon="3.83723">
        <ele>63</ele>
        <time>2021-07-25T02:38:27Z</time>
      </trkpt>
      <trkpt lat="43.64034" lon="3.83763">
        <ele>62</ele>
        <time>2021-07-25T02:38:33Z</time>
      </trkpt>
      <trkpt lat="43.64007" lon="3.83822">
        <ele>61</ele>
        <time>2021-07-25T02:38:41Z</time>
      </trkpt>
      <trkpt lat="43.64006" lon="3.83832">
        <ele>61</ele>
        <time>2021-07-25T02:38:43Z</time>
      </trkpt>
      <trkpt lat="43.63956" lon="3.83946">
        <ele>62</ele>
        <time>2021-07-25T02:39:00Z</time>
      </trkpt>
      <trkpt lat="43.63945" lon="3.83975">
        <ele>61</ele>
        <time>2021-07-25T02:39:04Z</time>
      </trkpt>
      <trkpt lat="43.63941" lon="3.83991">
        <ele>60</ele>
        <time>2021-07-25T02:39:06Z</time>
      </trkpt>
      <trkpt lat="43.63938" lon="3.84067">
        <ele>60</ele>
        <time>2021-07-25T02:39:16Z</time>
      </trkpt>
      <trkpt lat="43.63942" lon="3.84067">
        <ele>60</ele>
        <time>2021-07-25T02:39:17Z</time>
      </trkpt>
      <trkpt lat="43.63955" lon="3.84088">
        <ele>61</ele>
        <time>2021-07-25T02:39:20Z</time>
      </trkpt>
      <trkpt lat="43.63969" lon="3.84107">
        <ele>62</ele>
        <time>2021-07-25T02:39:24Z</time>
      </trkpt>
      <trkpt lat="43.63982" lon="3.8412">
        <ele>63</ele>
        <time>2021-07-25T02:39:27Z</time>
      </trkpt>
      <trkpt lat="43.63995" lon="3.84128">
        <ele>64</ele>
        <time>2021-07-25T02:39:29Z</time>
      </trkpt>
      <trkpt lat="43.64006" lon="3.84132">
        <ele>65</ele>
        <time>2021-07-25T02:39:31Z</time>
      </trkpt>
      <trkpt lat="43.64024" lon="3.84133">
        <ele>68</ele>
        <time>2021-07-25T02:39:35Z</time>
      </trkpt>
      <trkpt lat="43.64043" lon="3.84125">
        <ele>71</ele>
        <time>2021-07-25T02:39:38Z</time>
      </trkpt>
      <trkpt lat="43.64051" lon="3.84125">
        <ele>72</ele>
        <time>2021-07-25T02:39:39Z</time>
      </trkpt>
      <trkpt lat="43.64055" lon="3.84126">
        <ele>73</ele>
        <time>2021-07-25T02:39:40Z</time>
      </trkpt>
      <trkpt lat="43.64062" lon="3.84132">
        <ele>74</ele>
        <time>2021-07-25T02:39:42Z</time>
      </trkpt>
      <trkpt lat="43.64065" lon="3.8414">
        <ele>74</ele>
        <time>2021-07-25T02:39:43Z</time>
      </trkpt>
      <trkpt lat="43.64066" lon="3.84152">
        <ele>74</ele>
        <time>2021-07-25T02:39:44Z</time>
      </trkpt>
      <trkpt lat="43.6406" lon="3.84196">
        <ele>74</ele>
        <time>2021-07-25T02:39:50Z</time>
      </trkpt>
      <trkpt lat="43.64047" lon="3.84237">
        <ele>74</ele>
        <time>2021-07-25T02:39:56Z</time>
      </trkpt>
      <trkpt lat="43.64026" lon="3.8428">
        <ele>72</ele>
        <time>2021-07-25T02:40:03Z</time>
      </trkpt>
      <trkpt lat="43.64012" lon="3.84304">
        <ele>70</ele>
        <time>2021-07-25T02:40:07Z</time>
      </trkpt>
      <trkpt lat="43.63996" lon="3.84356">
        <ele>69</ele>
        <time>2021-07-25T02:40:14Z</time>
      </trkpt>
      <trkpt lat="43.63992" lon="3.84388">
        <ele>67</ele>
        <time>2021-07-25T02:40:18Z</time>
      </trkpt>
      <trkpt lat="43.63991" lon="3.8442">
        <ele>66</ele>
        <time>2021-07-25T02:40:22Z</time>
      </trkpt>
      <trkpt lat="43.63994" lon="3.84449">
        <ele>64</ele>
        <time>2021-07-25T02:40:26Z</time>
      </trkpt>
      <trkpt lat="43.63998" lon="3.84457">
        <ele>64</ele>
        <time>2021-07-25T02:40:27Z</time>
      </trkpt>
      <trkpt lat="43.64046" lon="3.84483">
        <ele>66</ele>
        <time>2021-07-25T02:40:36Z</time>
      </trkpt>
      <trkpt lat="43.6406" lon="3.84507">
        <ele>65</ele>
        <time>2021-07-25T02:40:40Z</time>
      </trkpt>
      <trkpt lat="43.64073" lon="3.84536">
        <ele>64</ele>
        <time>2021-07-25T02:40:45Z</time>
      </trkpt>
      <trkpt lat="43.64073" lon="3.84546">
        <ele>64</ele>
        <time>2021-07-25T02:40:46Z</time>
      </trkpt>
      <trkpt lat="43.64084" lon="3.84574">
        <ele>62</ele>
        <time>2021-07-25T02:40:50Z</time>
      </trkpt>
      <trkpt lat="43.64083" lon="3.84586">
        <ele>61</ele>
        <time>2021-07-25T02:40:52Z</time>
      </trkpt>
      <trkpt lat="43.64073" lon="3.84615">
        <ele>59</ele>
        <time>2021-07-25T02:40:56Z</time>
      </trkpt>
      <trkpt lat="43.64071" lon="3.84637">
        <ele>58</ele>
        <time>2021-07-25T02:40:59Z</time>
      </trkpt>
      <trkpt lat="43.64063" lon="3.84664">
        <ele>57</ele>
        <time>2021-07-25T02:41:02Z</time>
      </trkpt>
      <trkpt lat="43.64054" lon="3.84673">
        <ele>58</ele>
        <time>2021-07-25T02:41:04Z</time>
      </trkpt>
      <trkpt lat="43.64049" lon="3.8468">
        <ele>58</ele>
        <time>2021-07-25T02:41:06Z</time>
      </trkpt>
      <trkpt lat="43.64042" lon="3.84696">
        <ele>58</ele>
        <time>2021-07-25T02:41:08Z</time>
      </trkpt>
      <trkpt lat="43.6404" lon="3.84718">
        <ele>59</ele>
        <time>2021-07-25T02:41:11Z</time>
      </trkpt>
      <trkpt lat="43.64041" lon="3.84731">
        <ele>59</ele>
        <time>2021-07-25T02:41:13Z</time>
      </trkpt>
      <trkpt lat="43.64045" lon="3.84742">
        <ele>60</ele>
        <time>2021-07-25T02:41:14Z</time>
      </trkpt>
      <trkpt lat="43.64056" lon="3.84759">
        <ele>61</ele>
        <time>2021-07-25T02:41:17Z</time>
      </trkpt>
      <trkpt lat="43.64069" lon="3.84769">
        <ele>62</ele>
        <time>2021-07-25T02:41:20Z</time>
      </trkpt>
      <trkpt lat="43.64085" lon="3.84771">
        <ele>62</ele>
        <time>2021-07-25T02:41:23Z</time>
      </trkpt>
      <trkpt lat="43.641" lon="3.84764">
        <ele>62</ele>
        <time>2021-07-25T02:41:25Z</time>
      </trkpt>
      <trkpt lat="43.64113" lon="3.84761">
        <ele>63</ele>
        <time>2021-07-25T02:41:28Z</time>
      </trkpt>
      <trkpt lat="43.64113" lon="3.84766">
        <ele>63</ele>
        <time>2021-07-25T02:41:28Z</time>
      </trkpt>
      <trkpt lat="43.64152" lon="3.84767">
        <ele>64</ele>
        <time>2021-07-25T02:41:35Z</time>
      </trkpt>
      <trkpt lat="43.64162" lon="3.84774">
        <ele>65</ele>
        <time>2021-07-25T02:41:37Z</time>
      </trkpt>
      <trkpt lat="43.64187" lon="3.84775">
        <ele>66</ele>
        <time>2021-07-25T02:41:42Z</time>
      </trkpt>
      <trkpt lat="43.642" lon="3.84778">
        <ele>67</ele>
        <time>2021-07-25T02:41:44Z</time>
      </trkpt>
      <trkpt lat="43.64214" lon="3.84786">
        <ele>68</ele>
        <time>2021-07-25T02:41:47Z</time>
      </trkpt>
      <trkpt lat="43.64238" lon="3.84803">
        <ele>70</ele>
        <time>2021-07-25T02:41:52Z</time>
      </trkpt>
      <trkpt lat="43.64274" lon="3.84837">
        <ele>72</ele>
        <time>2021-07-25T02:41:59Z</time>
      </trkpt>
      <trkpt lat="43.6429" lon="3.84858">
        <ele>73</ele>
        <time>2021-07-25T02:42:03Z</time>
      </trkpt>
      <trkpt lat="43.64306" lon="3.84884">
        <ele>74</ele>
        <time>2021-07-25T02:42:08Z</time>
      </trkpt>
      <trkpt lat="43.64323" lon="3.84919">
        <ele>75</ele>
        <time>2021-07-25T02:42:13Z</time>
      </trkpt>
      <trkpt lat="43.64347" lon="3.8498">
        <ele>76</ele>
        <time>2021-07-25T02:42:22Z</time>
      </trkpt>
      <trkpt lat="43.64368" lon="3.85026">
        <ele>76</ele>
        <time>2021-07-25T02:42:29Z</time>
      </trkpt>
      <trkpt lat="43.64467" lon="3.852">
        <ele>71</ele>
        <time>2021-07-25T02:42:58Z</time>
      </trkpt>
      <trkpt lat="43.64476" lon="3.8522">
        <ele>72</ele>
        <time>2021-07-25T02:43:01Z</time>
      </trkpt>
      <trkpt lat="43.6448" lon="3.85237">
        <ele>72</ele>
        <time>2021-07-25T02:43:03Z</time>
      </trkpt>
      <trkpt lat="43.6448" lon="3.85254">
        <ele>73</ele>
        <time>2021-07-25T02:43:05Z</time>
      </trkpt>
      <trkpt lat="43.64483" lon="3.85273">
        <ele>74</ele>
        <time>2021-07-25T02:43:08Z</time>
      </trkpt>
      <trkpt lat="43.64482" lon="3.85285">
        <ele>75</ele>
        <time>2021-07-25T02:43:09Z</time>
      </trkpt>
      <trkpt lat="43.64483" lon="3.85286">
        <ele>75</ele>
        <time>2021-07-25T02:43:09Z</time>
      </trkpt>
      <trkpt lat="43.64494" lon="3.85297">
        <ele>74</ele>
        <time>2021-07-25T02:43:12Z</time>
      </trkpt>
      <trkpt lat="43.64496" lon="3.853">
        <ele>74</ele>
        <time>2021-07-25T02:43:12Z</time>
      </trkpt>
      <trkpt lat="43.64504" lon="3.85293">
        <ele>73</ele>
        <time>2021-07-25T02:43:14Z</time>
      </trkpt>
      <trkpt lat="43.64516" lon="3.85294">
        <ele>72</ele>
        <time>2021-07-25T02:43:16Z</time>
      </trkpt>
      <trkpt lat="43.64522" lon="3.85298">
        <ele>72</ele>
        <time>2021-07-25T02:43:17Z</time>
      </trkpt>
      <trkpt lat="43.64551" lon="3.85345">
        <ele>72</ele>
        <time>2021-07-25T02:43:25Z</time>
      </trkpt>
      <trkpt lat="43.64566" lon="3.85364">
        <ele>71</ele>
        <time>2021-07-25T02:43:29Z</time>
      </trkpt>
      <trkpt lat="43.64592" lon="3.8539">
        <ele>69</ele>
        <time>2021-07-25T02:43:35Z</time>
      </trkpt>
      <trkpt lat="43.64608" lon="3.85402">
        <ele>68</ele>
        <time>2021-07-25T02:43:38Z</time>
      </trkpt>
      <trkpt lat="43.64692" lon="3.85447">
        <ele>66</ele>
        <time>2021-07-25T02:43:54Z</time>
      </trkpt>
      <trkpt lat="43.64757" lon="3.85476">
        <ele>62</ele>
        <time>2021-07-25T02:44:06Z</time>
      </trkpt>
      <trkpt lat="43.64794" lon="3.855">
        <ele>60</ele>
        <time>2021-07-25T02:44:13Z</time>
      </trkpt>
      <trkpt lat="43.64829" lon="3.85527">
        <ele>58</ele>
        <time>2021-07-25T02:44:20Z</time>
      </trkpt>
      <trkpt lat="43.64857" lon="3.85557">
        <ele>58</ele>
        <time>2021-07-25T02:44:27Z</time>
      </trkpt>
      <trkpt lat="43.64894" lon="3.85605">
        <ele>59</ele>
        <time>2021-07-25T02:44:36Z</time>
      </trkpt>
      <trkpt lat="43.6492" lon="3.8565">
        <ele>59</ele>
        <time>2021-07-25T02:44:43Z</time>
      </trkpt>
      <trkpt lat="43.64945" lon="3.85706">
        <ele>57</ele>
        <time>2021-07-25T02:44:52Z</time>
      </trkpt>
      <trkpt lat="43.64958" lon="3.85742">
        <ele>56</ele>
        <time>2021-07-25T02:44:57Z</time>
      </trkpt>
      <trkpt lat="43.64981" lon="3.85834">
        <ele>57</ele>
        <time>2021-07-25T02:45:09Z</time>
      </trkpt>
      <trkpt lat="43.65011" lon="3.85962">
        <ele>54</ele>
        <time>2021-07-25T02:45:27Z</time>
      </trkpt>
      <trkpt lat="43.65022" lon="3.86057">
        <ele>52</ele>
        <time>2021-07-25T02:45:39Z</time>
      </trkpt>
      <trkpt lat="43.65046" lon="3.86308">
        <ele>47</ele>
        <time>2021-07-25T02:46:12Z</time>
      </trkpt>
      <trkpt lat="43.65056" lon="3.86442">
        <ele>47</ele>
        <time>2021-07-25T02:46:29Z</time>
      </trkpt>
      <trkpt lat="43.65064" lon="3.86532">
        <ele>47</ele>
        <time>2021-07-25T02:46:41Z</time>
      </trkpt>
      <trkpt lat="43.65065" lon="3.86566">
        <ele>47</ele>
        <time>2021-07-25T02:46:45Z</time>
      </trkpt>
      <trkpt lat="43.65064" lon="3.86575">
        <ele>47</ele>
        <time>2021-07-25T02:46:46Z</time>
      </trkpt>
      <trkpt lat="43.65067" lon="3.86577">
        <ele>47</ele>
        <time>2021-07-25T02:46:47Z</time>
      </trkpt>
      <trkpt lat="43.65065" lon="3.86584">
        <ele>47</ele>
        <time>2021-07-25T02:46:48Z</time>
      </trkpt>
      <trkpt lat="43.65062" lon="3.86587">
        <ele>47</ele>
        <time>2021-07-25T02:46:48Z</time>
      </trkpt>
      <trkpt lat="43.6506" lon="3.86591">
        <ele>47</ele>
        <time>2021-07-25T02:46:49Z</time>
      </trkpt>
      <trkpt lat="43.65054" lon="3.86595">
        <ele>47</ele>
        <time>2021-07-25T02:46:50Z</time>
      </trkpt>
      <trkpt lat="43.65052" lon="3.86601">
        <ele>47</ele>
        <time>2021-07-25T02:46:51Z</time>
      </trkpt>
      <trkpt lat="43.6505" lon="3.86609">
        <ele>47</ele>
        <time>2021-07-25T02:46:52Z</time>
      </trkpt>
      <trkpt lat="43.65051" lon="3.86623">
        <ele>47</ele>
        <time>2021-07-25T02:46:54Z</time>
      </trkpt>
      <trkpt lat="43.65056" lon="3.86633">
        <ele>47</ele>
        <time>2021-07-25T02:46:56Z</time>
      </trkpt>
      <trkpt lat="43.65066" lon="3.8664">
        <ele>47</ele>
        <time>2021-07-25T02:46:58Z</time>
      </trkpt>
      <trkpt lat="43.65075" lon="3.86652">
        <ele>47</ele>
        <time>2021-07-25T02:47:00Z</time>
      </trkpt>
      <trkpt lat="43.6507" lon="3.86655">
        <ele>47</ele>
        <time>2021-07-25T02:47:01Z</time>
      </trkpt>
      <trkpt lat="43.65072" lon="3.86666">
        <ele>47</ele>
        <time>2021-07-25T02:47:02Z</time>
      </trkpt>
      <trkpt lat="43.65078" lon="3.86695">
        <ele>47</ele>
        <time>2021-07-25T02:47:06Z</time>
      </trkpt>
      <trkpt lat="43.65085" lon="3.86771">
        <ele>45</ele>
        <time>2021-07-25T02:47:16Z</time>
      </trkpt>
      <trkpt lat="43.65091" lon="3.86811">
        <ele>45</ele>
        <time>2021-07-25T02:47:21Z</time>
      </trkpt>
      <trkpt lat="43.65118" lon="3.86916">
        <ele>44</ele>
        <time>2021-07-25T02:47:36Z</time>
      </trkpt>
      <trkpt lat="43.65129" lon="3.86949">
        <ele>45</ele>
        <time>2021-07-25T02:47:40Z</time>
      </trkpt>
      <trkpt lat="43.65153" lon="3.87014">
        <ele>44</ele>
        <time>2021-07-25T02:47:50Z</time>
      </trkpt>
      <trkpt lat="43.65158" lon="3.87025">
        <ele>44</ele>
        <time>2021-07-25T02:47:51Z</time>
      </trkpt>
      <trkpt lat="43.65179" lon="3.87081">
        <ele>42</ele>
        <time>2021-07-25T02:47:59Z</time>
      </trkpt>
      <trkpt lat="43.65193" lon="3.87112">
        <ele>41</ele>
        <time>2021-07-25T02:48:04Z</time>
      </trkpt>
      <trkpt lat="43.65207" lon="3.87136">
        <ele>41</ele>
        <time>2021-07-25T02:48:08Z</time>
      </trkpt>
      <trkpt lat="43.6525" lon="3.87197">
        <ele>40</ele>
        <time>2021-07-25T02:48:19Z</time>
      </trkpt>
      <trkpt lat="43.65281" lon="3.87229">
        <ele>41</ele>
        <time>2021-07-25T02:48:26Z</time>
      </trkpt>
      <trkpt lat="43.65325" lon="3.87268">
        <ele>43</ele>
        <time>2021-07-25T02:48:35Z</time>
      </trkpt>
      <trkpt lat="43.65328" lon="3.87302">
        <ele>44</ele>
        <time>2021-07-25T02:48:40Z</time>
      </trkpt>
      <trkpt lat="43.65337" lon="3.87327">
        <ele>44</ele>
        <time>2021-07-25T02:48:43Z</time>
      </trkpt>
      <trkpt lat="43.65358" lon="3.87359">
        <ele>45</ele>
        <time>2021-07-25T02:48:49Z</time>
      </trkpt>
      <trkpt lat="43.65391" lon="3.87394">
        <ele>47</ele>
        <time>2021-07-25T02:48:56Z</time>
      </trkpt>
      <trkpt lat="43.65396" lon="3.87404">
        <ele>48</ele>
        <time>2021-07-25T02:48:58Z</time>
      </trkpt>
      <trkpt lat="43.65416" lon="3.87421">
        <ele>50</ele>
        <time>2021-07-25T02:49:02Z</time>
      </trkpt>
      <trkpt lat="43.65411" lon="3.87437">
        <ele>49</ele>
        <time>2021-07-25T02:49:04Z</time>
      </trkpt>
      <trkpt lat="43.65426" lon="3.8745">
        <ele>50</ele>
        <time>2021-07-25T02:49:07Z</time>
      </trkpt>
      <trkpt lat="43.65439" lon="3.87449">
        <ele>51</ele>
        <time>2021-07-25T02:49:10Z</time>
      </trkpt>
      <trkpt lat="43.65455" lon="3.87459">
        <ele>51</ele>
        <time>2021-07-25T02:49:13Z</time>
      </trkpt>
      <trkpt lat="43.65461" lon="3.87458">
        <ele>52</ele>
        <time>2021-07-25T02:49:14Z</time>
      </trkpt>
      <trkpt lat="43.65493" lon="3.87448">
        <ele>54</ele>
        <time>2021-07-25T02:49:20Z</time>
      </trkpt>
      <trkpt lat="43.65497" lon="3.8745">
        <ele>54</ele>
        <time>2021-07-25T02:49:21Z</time>
      </trkpt>
      <trkpt lat="43.65499" lon="3.87452">
        <ele>54</ele>
        <time>2021-07-25T02:49:21Z</time>
      </trkpt>
      <trkpt lat="43.65501" lon="3.87458">
        <ele>54</ele>
        <time>2021-07-25T02:49:22Z</time>
      </trkpt>
      <trkpt lat="43.65502" lon="3.87551">
        <ele>52</ele>
        <time>2021-07-25T02:49:34Z</time>
      </trkpt>
      <trkpt lat="43.65498" lon="3.87555">
        <ele>52</ele>
        <time>2021-07-25T02:49:35Z</time>
      </trkpt>
      <trkpt lat="43.65498" lon="3.87566">
        <ele>51</ele>
        <time>2021-07-25T02:49:36Z</time>
      </trkpt>
      <trkpt lat="43.65496" lon="3.87646">
        <ele>51</ele>
        <time>2021-07-25T02:49:46Z</time>
      </trkpt>
      <trkpt lat="43.65493" lon="3.87763">
        <ele>52</ele>
        <time>2021-07-25T02:50:01Z</time>
      </trkpt>
      <trkpt lat="43.65491" lon="3.87829">
        <ele>52</ele>
        <time>2021-07-25T02:50:10Z</time>
      </trkpt>
      <trkpt lat="43.65488" lon="3.87867">
        <ele>51</ele>
        <time>2021-07-25T02:50:15Z</time>
      </trkpt>
      <trkpt lat="43.65493" lon="3.87876">
        <ele>51</ele>
        <time>2021-07-25T02:50:16Z</time>
      </trkpt>
      <trkpt lat="43.65504" lon="3.87915">
        <ele>50</ele>
        <time>2021-07-25T02:50:22Z</time>
      </trkpt>
      <trkpt lat="43.65507" lon="3.87921">
        <ele>50</ele>
        <time>2021-07-25T02:50:23Z</time>
      </trkpt>
      <trkpt lat="43.65509" lon="3.87927">
        <ele>51</ele>
        <time>2021-07-25T02:50:24Z</time>
      </trkpt>
      <trkpt lat="43.65514" lon="3.87949">
        <ele>51</ele>
        <time>2021-07-25T02:50:26Z</time>
      </trkpt>
      <trkpt lat="43.65519" lon="3.87968">
        <ele>52</ele>
        <time>2021-07-25T02:50:29Z</time>
      </trkpt>
      <trkpt lat="43.65523" lon="3.87983">
        <ele>52</ele>
        <time>2021-07-25T02:50:31Z</time>
      </trkpt>
      <trkpt lat="43.65538" lon="3.88042">
        <ele>54</ele>
        <time>2021-07-25T02:50:39Z</time>
      </trkpt>
      <trkpt lat="43.65541" lon="3.88053">
        <ele>55</ele>
        <time>2021-07-25T02:50:41Z</time>
      </trkpt>
      <trkpt lat="43.65544" lon="3.88064">
        <ele>55</ele>
        <time>2021-07-25T02:50:42Z</time>
      </trkpt>
      <trkpt lat="43.65545" lon="3.88068">
        <ele>56</ele>
        <time>2021-07-25T02:50:43Z</time>
      </trkpt>
      <trkpt lat="43.65543" lon="3.8807">
        <ele>56</ele>
        <time>2021-07-25T02:50:43Z</time>
      </trkpt>
      <trkpt lat="43.65538" lon="3.88087">
        <ele>56</ele>
        <time>2021-07-25T02:50:46Z</time>
      </trkpt>
      <trkpt lat="43.65532" lon="3.88096">
        <ele>56</ele>
        <time>2021-07-25T02:50:47Z</time>
      </trkpt>
      <trkpt lat="43.65528" lon="3.88096">
        <ele>56</ele>
        <time>2021-07-25T02:50:48Z</time>
      </trkpt>
      <trkpt lat="43.65524" lon="3.88099">
        <ele>56</ele>
        <time>2021-07-25T02:50:49Z</time>
      </trkpt>
      <trkpt lat="43.65522" lon="3.88105">
        <ele>56</ele>
        <time>2021-07-25T02:50:50Z</time>
      </trkpt>
      <trkpt lat="43.65523" lon="3.8811">
        <ele>56</ele>
        <time>2021-07-25T02:50:50Z</time>
      </trkpt>
      <trkpt lat="43.65526" lon="3.88115">
        <ele>56</ele>
        <time>2021-07-25T02:50:51Z</time>
      </trkpt>
      <trkpt lat="43.65543" lon="3.8812">
        <ele>56</ele>
        <time>2021-07-25T02:50:54Z</time>
      </trkpt>
      <trkpt lat="43.65548" lon="3.88126">
        <ele>56</ele>
        <time>2021-07-25T02:50:55Z</time>
      </trkpt>
      <trkpt lat="43.65557" lon="3.88146">
        <ele>56</ele>
        <time>2021-07-25T02:50:58Z</time>
      </trkpt>
      <trkpt lat="43.65598" lon="3.8826">
        <ele>56</ele>
        <time>2021-07-25T02:51:15Z</time>
      </trkpt>
      <trkpt lat="43.6565" lon="3.88392">
        <ele>58</ele>
        <time>2021-07-25T02:51:34Z</time>
      </trkpt>
      <trkpt lat="43.65662" lon="3.88454">
        <ele>59</ele>
        <time>2021-07-25T02:51:42Z</time>
      </trkpt>
      <trkpt lat="43.65702" lon="3.88658">
        <ele>65</ele>
        <time>2021-07-25T02:52:10Z</time>
      </trkpt>
      <trkpt lat="43.65717" lon="3.88725">
        <ele>67</ele>
        <time>2021-07-25T02:52:19Z</time>
      </trkpt>
      <trkpt lat="43.65719" lon="3.88751">
        <ele>68</ele>
        <time>2021-07-25T02:52:22Z</time>
      </trkpt>
      <trkpt lat="43.65718" lon="3.88785">
        <ele>69</ele>
        <time>2021-07-25T02:52:26Z</time>
      </trkpt>
      <trkpt lat="43.65713" lon="3.88803">
        <ele>70</ele>
        <time>2021-07-25T02:52:29Z</time>
      </trkpt>
      <trkpt lat="43.65706" lon="3.88822">
        <ele>70</ele>
        <time>2021-07-25T02:52:32Z</time>
      </trkpt>
      <trkpt lat="43.65705" lon="3.88833">
        <ele>70</ele>
        <time>2021-07-25T02:52:33Z</time>
      </trkpt>
      <trkpt lat="43.6573" lon="3.88829">
        <ele>73</ele>
        <time>2021-07-25T02:52:37Z</time>
      </trkpt>
      <trkpt lat="43.65735" lon="3.88835">
        <ele>73</ele>
        <time>2021-07-25T02:52:39Z</time>
      </trkpt>
      <trkpt lat="43.65748" lon="3.8886">
        <ele>76</ele>
        <time>2021-07-25T02:52:43Z</time>
      </trkpt>
      <trkpt lat="43.6576" lon="3.8889">
        <ele>77</ele>
        <time>2021-07-25T02:52:47Z</time>
      </trkpt>
      <trkpt lat="43.65764" lon="3.88915">
        <ele>79</ele>
        <time>2021-07-25T02:52:50Z</time>
      </trkpt>
      <trkpt lat="43.65766" lon="3.88979">
        <ele>76</ele>
        <time>2021-07-25T02:52:59Z</time>
      </trkpt>
      <trkpt lat="43.65769" lon="3.89016">
        <ele>75</ele>
        <time>2021-07-25T02:53:03Z</time>
      </trkpt>
      <trkpt lat="43.65775" lon="3.8904">
        <ele>75</ele>
        <time>2021-07-25T02:53:07Z</time>
      </trkpt>
      <trkpt lat="43.65789" lon="3.8908">
        <ele>75</ele>
        <time>2021-07-25T02:53:12Z</time>
      </trkpt>
      <trkpt lat="43.65791" lon="3.89095">
        <ele>75</ele>
        <time>2021-07-25T02:53:14Z</time>
      </trkpt>
      <trkpt lat="43.6579" lon="3.89187">
        <ele>71</ele>
        <time>2021-07-25T02:53:26Z</time>
      </trkpt>
      <trkpt lat="43.65793" lon="3.89216">
        <ele>70</ele>
        <time>2021-07-25T02:53:30Z</time>
      </trkpt>
      <trkpt lat="43.65807" lon="3.89255">
        <ele>69</ele>
        <time>2021-07-25T02:53:36Z</time>
      </trkpt>
      <trkpt lat="43.65868" lon="3.89392">
        <ele>69</ele>
        <time>2021-07-25T02:53:56Z</time>
      </trkpt>
      <trkpt lat="43.65875" lon="3.89416">
        <ele>69</ele>
        <time>2021-07-25T02:54:00Z</time>
      </trkpt>
      <trkpt lat="43.65903" lon="3.89495">
        <ele>65</ele>
        <time>2021-07-25T02:54:11Z</time>
      </trkpt>
      <trkpt lat="43.65911" lon="3.89523">
        <ele>64</ele>
        <time>2021-07-25T02:54:15Z</time>
      </trkpt>
      <trkpt lat="43.65917" lon="3.89518">
        <ele>64</ele>
        <time>2021-07-25T02:54:16Z</time>
      </trkpt>
      <trkpt lat="43.65954" lon="3.89571">
        <ele>65</ele>
        <time>2021-07-25T02:54:25Z</time>
      </trkpt>
      <trkpt lat="43.65954" lon="3.89581">
        <ele>65</ele>
        <time>2021-07-25T02:54:27Z</time>
      </trkpt>
      <trkpt lat="43.65952" lon="3.89586">
        <ele>66</ele>
        <time>2021-07-25T02:54:27Z</time>
      </trkpt>
      <trkpt lat="43.65986" lon="3.8961">
        <ele>67</ele>
        <time>2021-07-25T02:54:34Z</time>
      </trkpt>
      <trkpt lat="43.65994" lon="3.89621">
        <ele>68</ele>
        <time>2021-07-25T02:54:36Z</time>
      </trkpt>
      <trkpt lat="43.66001" lon="3.89633">
        <ele>68</ele>
        <time>2021-07-25T02:54:38Z</time>
      </trkpt>
      <trkpt lat="43.66" lon="3.89638">
        <ele>69</ele>
        <time>2021-07-25T02:54:39Z</time>
      </trkpt>
      <trkpt lat="43.66003" lon="3.89647">
        <ele>69</ele>
        <time>2021-07-25T02:54:40Z</time>
      </trkpt>
      <trkpt lat="43.66006" lon="3.89649">
        <ele>69</ele>
        <time>2021-07-25T02:54:41Z</time>
      </trkpt>
      <trkpt lat="43.66008" lon="3.89667">
        <ele>70</ele>
        <time>2021-07-25T02:54:43Z</time>
      </trkpt>
      <trkpt lat="43.65999" lon="3.89773">
        <ele>68</ele>
        <time>2021-07-25T02:54:57Z</time>
      </trkpt>
      <trkpt lat="43.65999" lon="3.89851">
        <ele>67</ele>
        <time>2021-07-25T02:55:07Z</time>
      </trkpt>
      <trkpt lat="43.65988" lon="3.8994">
        <ele>64</ele>
        <time>2021-07-25T02:55:19Z</time>
      </trkpt>
      <trkpt lat="43.65969" lon="3.90042">
        <ele>62</ele>
        <time>2021-07-25T02:55:32Z</time>
      </trkpt>
      <trkpt lat="43.65964" lon="3.90053">
        <ele>62</ele>
        <time>2021-07-25T02:55:34Z</time>
      </trkpt>
      <trkpt lat="43.65956" lon="3.90061">
        <ele>62</ele>
        <time>2021-07-25T02:55:36Z</time>
      </trkpt>
      <trkpt lat="43.65938" lon="3.90064">
        <ele>63</ele>
        <time>2021-07-25T02:55:39Z</time>
      </trkpt>
      <trkpt lat="43.65924" lon="3.90076">
        <ele>63</ele>
        <time>2021-07-25T02:55:42Z</time>
      </trkpt>
      <trkpt lat="43.65914" lon="3.90094">
        <ele>63</ele>
        <time>2021-07-25T02:55:45Z</time>
      </trkpt>
      <trkpt lat="43.6591" lon="3.90111">
        <ele>63</ele>
        <time>2021-07-25T02:55:47Z</time>
      </trkpt>
      <trkpt lat="43.65909" lon="3.9013">
        <ele>63</ele>
        <time>2021-07-25T02:55:49Z</time>
      </trkpt>
      <trkpt lat="43.65913" lon="3.90149">
        <ele>63</ele>
        <time>2021-07-25T02:55:52Z</time>
      </trkpt>
      <trkpt lat="43.65921" lon="3.90165">
        <ele>63</ele>
        <time>2021-07-25T02:55:54Z</time>
      </trkpt>
      <trkpt lat="43.65932" lon="3.90177">
        <ele>63</ele>
        <time>2021-07-25T02:55:57Z</time>
      </trkpt>
      <trkpt lat="43.65938" lon="3.90181">
        <ele>63</ele>
        <time>2021-07-25T02:55:58Z</time>
      </trkpt>
      <trkpt lat="43.65948" lon="3.90197">
        <ele>63</ele>
        <time>2021-07-25T02:56:01Z</time>
      </trkpt>
      <trkpt lat="43.65955" lon="3.90216">
        <ele>63</ele>
        <time>2021-07-25T02:56:04Z</time>
      </trkpt>
      <trkpt lat="43.65959" lon="3.90251">
        <ele>63</ele>
        <time>2021-07-25T02:56:08Z</time>
      </trkpt>
      <trkpt lat="43.65958" lon="3.90353">
        <ele>62</ele>
        <time>2021-07-25T02:56:21Z</time>
      </trkpt>
      <trkpt lat="43.6596" lon="3.90402">
        <ele>62</ele>
        <time>2021-07-25T02:56:28Z</time>
      </trkpt>
      <trkpt lat="43.65957" lon="3.90411">
        <ele>62</ele>
        <time>2021-07-25T02:56:29Z</time>
      </trkpt>
      <trkpt lat="43.65957" lon="3.90415">
        <ele>62</ele>
        <time>2021-07-25T02:56:29Z</time>
      </trkpt>
      <trkpt lat="43.65959" lon="3.90422">
        <ele>61</ele>
        <time>2021-07-25T02:56:30Z</time>
      </trkpt>
      <trkpt lat="43.65962" lon="3.90424">
        <ele>61</ele>
        <time>2021-07-25T02:56:31Z</time>
      </trkpt>
      <trkpt lat="43.65965" lon="3.90449">
        <ele>61</ele>
        <time>2021-07-25T02:56:34Z</time>
      </trkpt>
      <trkpt lat="43.65967" lon="3.90452">
        <ele>61</ele>
        <time>2021-07-25T02:56:35Z</time>
      </trkpt>
      <trkpt lat="43.65967" lon="3.90516">
        <ele>61</ele>
        <time>2021-07-25T02:56:43Z</time>
      </trkpt>
      <trkpt lat="43.65964" lon="3.90565">
        <ele>61</ele>
        <time>2021-07-25T02:56:49Z</time>
      </trkpt>
      <trkpt lat="43.6595" lon="3.90665">
        <ele>61</ele>
        <time>2021-07-25T02:57:02Z</time>
      </trkpt>
      <trkpt lat="43.65948" lon="3.9067">
        <ele>61</ele>
        <time>2021-07-25T02:57:03Z</time>
      </trkpt>
      <trkpt lat="43.65945" lon="3.90681">
        <ele>62</ele>
        <time>2021-07-25T02:57:05Z</time>
      </trkpt>
      <trkpt lat="43.65939" lon="3.90688">
        <ele>62</ele>
        <time>2021-07-25T02:57:06Z</time>
      </trkpt>
      <trkpt lat="43.65937" lon="3.90696">
        <ele>62</ele>
        <time>2021-07-25T02:57:07Z</time>
      </trkpt>
      <trkpt lat="43.65938" lon="3.90703">
        <ele>62</ele>
        <time>2021-07-25T02:57:08Z</time>
      </trkpt>
      <trkpt lat="43.65945" lon="3.90711">
        <ele>62</ele>
        <time>2021-07-25T02:57:10Z</time>
      </trkpt>
      <trkpt lat="43.65948" lon="3.90732">
        <ele>63</ele>
        <time>2021-07-25T02:57:12Z</time>
      </trkpt>
      <trkpt lat="43.65927" lon="3.90867">
        <ele>65</ele>
        <time>2021-07-25T02:57:30Z</time>
      </trkpt>
      <trkpt lat="43.65912" lon="3.90984">
        <ele>65</ele>
        <time>2021-07-25T02:57:45Z</time>
      </trkpt>
      <trkpt lat="43.65906" lon="3.91043">
        <ele>67</ele>
        <time>2021-07-25T02:57:53Z</time>
      </trkpt>
      <trkpt lat="43.65904" lon="3.91103">
        <ele>68</ele>
        <time>2021-07-25T02:58:01Z</time>
      </trkpt>
      <trkpt lat="43.65905" lon="3.91136">
        <ele>68</ele>
        <time>2021-07-25T02:58:05Z</time>
      </trkpt>
      <trkpt lat="43.65911" lon="3.91185">
        <ele>68</ele>
        <time>2021-07-25T02:58:12Z</time>
      </trkpt>
      <trkpt lat="43.65902" lon="3.91192">
        <ele>68</ele>
        <time>2021-07-25T02:58:13Z</time>
      </trkpt>
      <trkpt lat="43.659" lon="3.91198">
        <ele>68</ele>
        <time>2021-07-25T02:58:14Z</time>
      </trkpt>
      <trkpt lat="43.65901" lon="3.91209">
        <ele>68</ele>
        <time>2021-07-25T02:58:16Z</time>
      </trkpt>
      <trkpt lat="43.65903" lon="3.91214">
        <ele>68</ele>
        <time>2021-07-25T02:58:16Z</time>
      </trkpt>
      <trkpt lat="43.65908" lon="3.91219">
        <ele>68</ele>
        <time>2021-07-25T02:58:17Z</time>
      </trkpt>
      <trkpt lat="43.65914" lon="3.9122">
        <ele>67</ele>
        <time>2021-07-25T02:58:19Z</time>
      </trkpt>
      <trkpt lat="43.65919" lon="3.91218">
        <ele>67</ele>
        <time>2021-07-25T02:58:19Z</time>
      </trkpt>
      <trkpt lat="43.65941" lon="3.91334">
        <ele>65</ele>
        <time>2021-07-25T02:58:35Z</time>
      </trkpt>
      <trkpt lat="43.65959" lon="3.91402">
        <ele>64</ele>
        <time>2021-07-25T02:58:44Z</time>
      </trkpt>
      <trkpt lat="43.65972" lon="3.91434">
        <ele>63</ele>
        <time>2021-07-25T02:58:49Z</time>
      </trkpt>
      <trkpt lat="43.65983" lon="3.9146">
        <ele>63</ele>
        <time>2021-07-25T02:58:53Z</time>
      </trkpt>
      <trkpt lat="43.66027" lon="3.9154">
        <ele>61</ele>
        <time>2021-07-25T02:59:06Z</time>
      </trkpt>
      <trkpt lat="43.66067" lon="3.91745">
        <ele>63</ele>
        <time>2021-07-25T02:59:33Z</time>
      </trkpt>
      <trkpt lat="43.66077" lon="3.91786">
        <ele>62</ele>
        <time>2021-07-25T02:59:39Z</time>
      </trkpt>
      <trkpt lat="43.66085" lon="3.91806">
        <ele>61</ele>
        <time>2021-07-25T02:59:42Z</time>
      </trkpt>
      <trkpt lat="43.66114" lon="3.91866">
        <ele>60</ele>
        <time>2021-07-25T02:59:51Z</time>
      </trkpt>
      <trkpt lat="43.66139" lon="3.91939">
        <ele>59</ele>
        <time>2021-07-25T03:00:01Z</time>
      </trkpt>
      <trkpt lat="43.66225" lon="3.92215">
        <ele>53</ele>
        <time>2021-07-25T03:00:40Z</time>
      </trkpt>
      <trkpt lat="43.66236" lon="3.92256">
        <ele>52</ele>
        <time>2021-07-25T03:00:46Z</time>
      </trkpt>
      <trkpt lat="43.66237" lon="3.92268">
        <ele>52</ele>
        <time>2021-07-25T03:00:47Z</time>
      </trkpt>
      <trkpt lat="43.66229" lon="3.92406">
        <ele>54</ele>
        <time>2021-07-25T03:01:05Z</time>
      </trkpt>
      <trkpt lat="43.66225" lon="3.92436">
        <ele>54</ele>
        <time>2021-07-25T03:01:09Z</time>
      </trkpt>
      <trkpt lat="43.66206" lon="3.92506">
        <ele>56</ele>
        <time>2021-07-25T03:01:19Z</time>
      </trkpt>
      <trkpt lat="43.662" lon="3.9254">
        <ele>54</ele>
        <time>2021-07-25T03:01:23Z</time>
      </trkpt>
      <trkpt lat="43.66195" lon="3.92549">
        <ele>54</ele>
        <time>2021-07-25T03:01:25Z</time>
      </trkpt>
      <trkpt lat="43.66196" lon="3.92558">
        <ele>53</ele>
        <time>2021-07-25T03:01:26Z</time>
      </trkpt>
      <trkpt lat="43.66197" lon="3.92562">
        <ele>53</ele>
        <time>2021-07-25T03:01:26Z</time>
      </trkpt>
      <trkpt lat="43.66202" lon="3.92566">
        <ele>52</ele>
        <time>2021-07-25T03:01:27Z</time>
      </trkpt>
      <trkpt lat="43.66203" lon="3.92573">
        <ele>51</ele>
        <time>2021-07-25T03:01:28Z</time>
      </trkpt>
      <trkpt lat="43.6621" lon="3.92583">
        <ele>50</ele>
        <time>2021-07-25T03:01:30Z</time>
      </trkpt>
      <trkpt lat="43.66216" lon="3.92588">
        <ele>49</ele>
        <time>2021-07-25T03:01:31Z</time>
      </trkpt>
      <trkpt lat="43.66206" lon="3.92609">
        <ele>49</ele>
        <time>2021-07-25T03:01:34Z</time>
      </trkpt>
      <trkpt lat="43.66181" lon="3.92635">
        <ele>49</ele>
        <time>2021-07-25T03:01:40Z</time>
      </trkpt>
      <trkpt lat="43.6615" lon="3.92677">
        <ele>48</ele>
        <time>2021-07-25T03:01:48Z</time>
      </trkpt>
      <trkpt lat="43.66054" lon="3.92843">
        <ele>48</ele>
        <time>2021-07-25T03:02:15Z</time>
      </trkpt>
      <trkpt lat="43.66043" lon="3.92855">
        <ele>49</ele>
        <time>2021-07-25T03:02:18Z</time>
      </trkpt>
      <trkpt lat="43.66033" lon="3.92861">
        <ele>49</ele>
        <time>2021-07-25T03:02:20Z</time>
      </trkpt>
      <trkpt lat="43.66019" lon="3.92855">
        <ele>50</ele>
        <time>2021-07-25T03:02:22Z</time>
      </trkpt>
      <trkpt lat="43.66003" lon="3.92854">
        <ele>50</ele>
        <time>2021-07-25T03:02:25Z</time>
      </trkpt>
      <trkpt lat="43.65995" lon="3.92856">
        <ele>51</ele>
        <time>2021-07-25T03:02:26Z</time>
      </trkpt>
      <trkpt lat="43.65989" lon="3.92862">
        <ele>51</ele>
        <time>2021-07-25T03:02:28Z</time>
      </trkpt>
      <trkpt lat="43.65984" lon="3.92869">
        <ele>52</ele>
        <time>2021-07-25T03:02:29Z</time>
      </trkpt>
      <trkpt lat="43.65968" lon="3.92896">
        <ele>53</ele>
        <time>2021-07-25T03:02:34Z</time>
      </trkpt>
      <trkpt lat="43.65953" lon="3.92926">
        <ele>53</ele>
        <time>2021-07-25T03:02:38Z</time>
      </trkpt>
      <trkpt lat="43.65944" lon="3.92955">
        <ele>52</ele>
        <time>2021-07-25T03:02:42Z</time>
      </trkpt>
      <trkpt lat="43.65936" lon="3.92987">
        <ele>51</ele>
        <time>2021-07-25T03:02:47Z</time>
      </trkpt>
      <trkpt lat="43.65932" lon="3.93013">
        <ele>50</ele>
        <time>2021-07-25T03:02:50Z</time>
      </trkpt>
      <trkpt lat="43.65932" lon="3.93034">
        <ele>49</ele>
        <time>2021-07-25T03:02:53Z</time>
      </trkpt>
      <trkpt lat="43.65935" lon="3.93049">
        <ele>49</ele>
        <time>2021-07-25T03:02:55Z</time>
      </trkpt>
      <trkpt lat="43.65938" lon="3.93057">
        <ele>48</ele>
        <time>2021-07-25T03:02:56Z</time>
      </trkpt>
      <trkpt lat="43.6595" lon="3.93074">
        <ele>48</ele>
        <time>2021-07-25T03:02:59Z</time>
      </trkpt>
      <trkpt lat="43.65954" lon="3.93077">
        <ele>48</ele>
        <time>2021-07-25T03:03:00Z</time>
      </trkpt>
      <trkpt lat="43.65959" lon="3.93092">
        <ele>48</ele>
        <time>2021-07-25T03:03:02Z</time>
      </trkpt>
      <trkpt lat="43.6596" lon="3.93104">
        <ele>48</ele>
        <time>2021-07-25T03:03:03Z</time>
      </trkpt>
      <trkpt lat="43.65959" lon="3.93133">
        <ele>48</ele>
        <time>2021-07-25T03:03:07Z</time>
      </trkpt>
      <trkpt lat="43.65938" lon="3.93246">
        <ele>47</ele>
        <time>2021-07-25T03:03:22Z</time>
      </trkpt>
      <trkpt lat="43.6592" lon="3.9334">
        <ele>47</ele>
        <time>2021-07-25T03:03:35Z</time>
      </trkpt>
      <trkpt lat="43.6591" lon="3.93385">
        <ele>45</ele>
        <time>2021-07-25T03:03:41Z</time>
      </trkpt>
      <trkpt lat="43.65903" lon="3.93406">
        <ele>45</ele>
        <time>2021-07-25T03:03:44Z</time>
      </trkpt>
      <trkpt lat="43.65896" lon="3.93426">
        <ele>44</ele>
        <time>2021-07-25T03:03:47Z</time>
      </trkpt>
      <trkpt lat="43.65892" lon="3.93439">
        <ele>45</ele>
        <time>2021-07-25T03:03:48Z</time>
      </trkpt>
      <trkpt lat="43.65879" lon="3.93479">
        <ele>45</ele>
        <time>2021-07-25T03:03:54Z</time>
      </trkpt>
      <trkpt lat="43.65873" lon="3.93508">
        <ele>45</ele>
        <time>2021-07-25T03:03:58Z</time>
      </trkpt>
      <trkpt lat="43.65867" lon="3.93526">
        <ele>45</ele>
        <time>2021-07-25T03:04:01Z</time>
      </trkpt>
      <trkpt lat="43.65858" lon="3.93543">
        <ele>45</ele>
        <time>2021-07-25T03:04:03Z</time>
      </trkpt>
      <trkpt lat="43.65853" lon="3.93552">
        <ele>45</ele>
        <time>2021-07-25T03:04:05Z</time>
      </trkpt>
      <trkpt lat="43.6585" lon="3.93562">
        <ele>44</ele>
        <time>2021-07-25T03:04:06Z</time>
      </trkpt>
      <trkpt lat="43.65839" lon="3.93584">
        <ele>44</ele>
        <time>2021-07-25T03:04:10Z</time>
      </trkpt>
      <trkpt lat="43.65843" lon="3.93606">
        <ele>45</ele>
        <time>2021-07-25T03:04:12Z</time>
      </trkpt>
      <trkpt lat="43.65881" lon="3.93636">
        <ele>45</ele>
        <time>2021-07-25T03:04:20Z</time>
      </trkpt>
      <trkpt lat="43.6589" lon="3.93648">
        <ele>45</ele>
        <time>2021-07-25T03:04:22Z</time>
      </trkpt>
      <trkpt lat="43.65928" lon="3.9373">
        <ele>46</ele>
        <time>2021-07-25T03:04:35Z</time>
      </trkpt>
      <trkpt lat="43.65933" lon="3.93748">
        <ele>46</ele>
        <time>2021-07-25T03:04:37Z</time>
      </trkpt>
      <trkpt lat="43.65991" lon="3.94039">
        <ele>53</ele>
        <time>2021-07-25T03:05:16Z</time>
      </trkpt>
      <trkpt lat="43.66038" lon="3.94275">
        <ele>55</ele>
        <time>2021-07-25T03:05:48Z</time>
      </trkpt>
      <trkpt lat="43.66043" lon="3.94313">
        <ele>54</ele>
        <time>2021-07-25T03:05:53Z</time>
      </trkpt>
      <trkpt lat="43.66047" lon="3.94348">
        <ele>54</ele>
        <time>2021-07-25T03:05:57Z</time>
      </trkpt>
      <trkpt lat="43.66048" lon="3.94411">
        <ele>55</ele>
        <time>2021-07-25T03:06:05Z</time>
      </trkpt>
      <trkpt lat="43.66045" lon="3.94544">
        <ele>57</ele>
        <time>2021-07-25T03:06:23Z</time>
      </trkpt>
      <trkpt lat="43.66046" lon="3.94553">
        <ele>57</ele>
        <time>2021-07-25T03:06:24Z</time>
      </trkpt>
      <trkpt lat="43.66052" lon="3.94562">
        <ele>57</ele>
        <time>2021-07-25T03:06:25Z</time>
      </trkpt>
      <trkpt lat="43.66053" lon="3.94568">
        <ele>57</ele>
        <time>2021-07-25T03:06:26Z</time>
      </trkpt>
      <trkpt lat="43.66048" lon="3.94582">
        <ele>57</ele>
        <time>2021-07-25T03:06:28Z</time>
      </trkpt>
      <trkpt lat="43.66041" lon="3.94604">
        <ele>57</ele>
        <time>2021-07-25T03:06:31Z</time>
      </trkpt>
      <trkpt lat="43.66041" lon="3.9461">
        <ele>57</ele>
        <time>2021-07-25T03:06:32Z</time>
      </trkpt>
      <trkpt lat="43.66042" lon="3.94622">
        <ele>57</ele>
        <time>2021-07-25T03:06:34Z</time>
      </trkpt>
      <trkpt lat="43.66046" lon="3.94691">
        <ele>56</ele>
        <time>2021-07-25T03:06:42Z</time>
      </trkpt>
      <trkpt lat="43.66043" lon="3.94749">
        <ele>55</ele>
        <time>2021-07-25T03:06:50Z</time>
      </trkpt>
      <trkpt lat="43.66039" lon="3.94784">
        <ele>56</ele>
        <time>2021-07-25T03:06:55Z</time>
      </trkpt>
      <trkpt lat="43.66033" lon="3.94811">
        <ele>56</ele>
        <time>2021-07-25T03:06:58Z</time>
      </trkpt>
      <trkpt lat="43.66018" lon="3.94865">
        <ele>55</ele>
        <time>2021-07-25T03:07:06Z</time>
      </trkpt>
      <trkpt lat="43.65971" lon="3.95016">
        <ele>55</ele>
        <time>2021-07-25T03:07:27Z</time>
      </trkpt>
      <trkpt lat="43.65955" lon="3.9505">
        <ele>56</ele>
        <time>2021-07-25T03:07:32Z</time>
      </trkpt>
      <trkpt lat="43.65949" lon="3.95055">
        <ele>55</ele>
        <time>2021-07-25T03:07:33Z</time>
      </trkpt>
      <trkpt lat="43.65936" lon="3.95061">
        <ele>55</ele>
        <time>2021-07-25T03:07:36Z</time>
      </trkpt>
      <trkpt lat="43.65924" lon="3.95071">
        <ele>55</ele>
        <time>2021-07-25T03:07:38Z</time>
      </trkpt>
      <trkpt lat="43.65917" lon="3.95086">
        <ele>55</ele>
        <time>2021-07-25T03:07:40Z</time>
      </trkpt>
      <trkpt lat="43.65914" lon="3.951">
        <ele>55</ele>
        <time>2021-07-25T03:07:42Z</time>
      </trkpt>
      <trkpt lat="43.65912" lon="3.95114">
        <ele>55</ele>
        <time>2021-07-25T03:07:44Z</time>
      </trkpt>
      <trkpt lat="43.65915" lon="3.95129">
        <ele>54</ele>
        <time>2021-07-25T03:07:46Z</time>
      </trkpt>
      <trkpt lat="43.65928" lon="3.95168">
        <ele>54</ele>
        <time>2021-07-25T03:07:52Z</time>
      </trkpt>
      <trkpt lat="43.65929" lon="3.95179">
        <ele>54</ele>
        <time>2021-07-25T03:07:53Z</time>
      </trkpt>
      <trkpt lat="43.65927" lon="3.95192">
        <ele>55</ele>
        <time>2021-07-25T03:07:55Z</time>
      </trkpt>
      <trkpt lat="43.6588" lon="3.95492">
        <ele>51</ele>
        <time>2021-07-25T03:08:34Z</time>
      </trkpt>
      <trkpt lat="43.65807" lon="3.95883">
        <ele>50</ele>
        <time>2021-07-25T03:09:26Z</time>
      </trkpt>
      <trkpt lat="43.65804" lon="3.95941">
        <ele>48</ele>
        <time>2021-07-25T03:09:34Z</time>
      </trkpt>
      <trkpt lat="43.65811" lon="3.96127">
        <ele>45</ele>
        <time>2021-07-25T03:09:58Z</time>
      </trkpt>
      <trkpt lat="43.65822" lon="3.9613">
        <ele>45</ele>
        <time>2021-07-25T03:10:00Z</time>
      </trkpt>
      <trkpt lat="43.65825" lon="3.96207">
        <ele>44</ele>
        <time>2021-07-25T03:10:10Z</time>
      </trkpt>
      <trkpt lat="43.65821" lon="3.96222">
        <ele>44</ele>
        <time>2021-07-25T03:10:12Z</time>
      </trkpt>
      <trkpt lat="43.65824" lon="3.96292">
        <ele>43</ele>
        <time>2021-07-25T03:10:21Z</time>
      </trkpt>
      <trkpt lat="43.65824" lon="3.96304">
        <ele>43</ele>
        <time>2021-07-25T03:10:22Z</time>
      </trkpt>
      <trkpt lat="43.65821" lon="3.96327">
        <ele>43</ele>
        <time>2021-07-25T03:10:25Z</time>
      </trkpt>
      <trkpt lat="43.65833" lon="3.96339">
        <ele>43</ele>
        <time>2021-07-25T03:10:28Z</time>
      </trkpt>
      <trkpt lat="43.65901" lon="3.96398">
        <ele>45</ele>
        <time>2021-07-25T03:10:42Z</time>
      </trkpt>
      <trkpt lat="43.66016" lon="3.9649">
        <ele>43</ele>
        <time>2021-07-25T03:11:06Z</time>
      </trkpt>
      <trkpt lat="43.66056" lon="3.96537">
        <ele>44</ele>
        <time>2021-07-25T03:11:15Z</time>
      </trkpt>
      <trkpt lat="43.66151" lon="3.96641">
        <ele>46</ele>
        <time>2021-07-25T03:11:37Z</time>
      </trkpt>
      <trkpt lat="43.66254" lon="3.9676">
        <ele>46</ele>
        <time>2021-07-25T03:12:01Z</time>
      </trkpt>
      <trkpt lat="43.66294" lon="3.96808">
        <ele>47</ele>
        <time>2021-07-25T03:12:10Z</time>
      </trkpt>
      <trkpt lat="43.66352" lon="3.96887">
        <ele>46</ele>
        <time>2021-07-25T03:12:25Z</time>
      </trkpt>
      <trkpt lat="43.66386" lon="3.96926">
        <ele>45</ele>
        <time>2021-07-25T03:12:33Z</time>
      </trkpt>
      <trkpt lat="43.66449" lon="3.96983">
        <ele>44</ele>
        <time>2021-07-25T03:12:46Z</time>
      </trkpt>
      <trkpt lat="43.66472" lon="3.97002">
        <ele>44</ele>
        <time>2021-07-25T03:12:51Z</time>
      </trkpt>
      <trkpt lat="43.66493" lon="3.97014">
        <ele>44</ele>
        <time>2021-07-25T03:12:55Z</time>
      </trkpt>
      <trkpt lat="43.66582" lon="3.97089">
        <ele>49</ele>
        <time>2021-07-25T03:13:13Z</time>
      </trkpt>
      <trkpt lat="43.66651" lon="3.97154">
        <ele>46</ele>
        <time>2021-07-25T03:13:28Z</time>
      </trkpt>
      <trkpt lat="43.66674" lon="3.9718">
        <ele>46</ele>
        <time>2021-07-25T03:13:33Z</time>
      </trkpt>
      <trkpt lat="43.66692" lon="3.97205">
        <ele>47</ele>
        <time>2021-07-25T03:13:38Z</time>
      </trkpt>
      <trkpt lat="43.66715" lon="3.97253">
        <ele>48</ele>
        <time>2021-07-25T03:13:45Z</time>
      </trkpt>
      <trkpt lat="43.66731" lon="3.9731">
        <ele>50</ele>
        <time>2021-07-25T03:13:53Z</time>
      </trkpt>
      <trkpt lat="43.66748" lon="3.97401">
        <ele>49</ele>
        <time>2021-07-25T03:14:05Z</time>
      </trkpt>
      <trkpt lat="43.66755" lon="3.97426">
        <ele>48</ele>
        <time>2021-07-25T03:14:09Z</time>
      </trkpt>
      <trkpt lat="43.66772" lon="3.97463">
        <ele>47</ele>
        <time>2021-07-25T03:14:14Z</time>
      </trkpt>
      <trkpt lat="43.66778" lon="3.97483">
        <ele>47</ele>
        <time>2021-07-25T03:14:17Z</time>
      </trkpt>
      <trkpt lat="43.66775" lon="3.97502">
        <ele>47</ele>
        <time>2021-07-25T03:14:20Z</time>
      </trkpt>
      <trkpt lat="43.66776" lon="3.97521">
        <ele>46</ele>
        <time>2021-07-25T03:14:22Z</time>
      </trkpt>
      <trkpt lat="43.66781" lon="3.9754">
        <ele>46</ele>
        <time>2021-07-25T03:14:25Z</time>
      </trkpt>
      <trkpt lat="43.66788" lon="3.97554">
        <ele>46</ele>
        <time>2021-07-25T03:14:27Z</time>
      </trkpt>
      <trkpt lat="43.66798" lon="3.97565">
        <ele>46</ele>
        <time>2021-07-25T03:14:29Z</time>
      </trkpt>
      <trkpt lat="43.66809" lon="3.97572">
        <ele>47</ele>
        <time>2021-07-25T03:14:31Z</time>
      </trkpt>
      <trkpt lat="43.66825" lon="3.97575">
        <ele>47</ele>
        <time>2021-07-25T03:14:34Z</time>
      </trkpt>
      <trkpt lat="43.6684" lon="3.97571">
        <ele>47</ele>
        <time>2021-07-25T03:14:37Z</time>
      </trkpt>
      <trkpt lat="43.66852" lon="3.97563">
        <ele>48</ele>
        <time>2021-07-25T03:14:39Z</time>
      </trkpt>
      <trkpt lat="43.66862" lon="3.9755">
        <ele>48</ele>
        <time>2021-07-25T03:14:42Z</time>
      </trkpt>
      <trkpt lat="43.66874" lon="3.97541">
        <ele>48</ele>
        <time>2021-07-25T03:14:44Z</time>
      </trkpt>
      <trkpt lat="43.66884" lon="3.9754">
        <ele>48</ele>
        <time>2021-07-25T03:14:46Z</time>
      </trkpt>
      <trkpt lat="43.66895" lon="3.97542">
        <ele>49</ele>
        <time>2021-07-25T03:14:48Z</time>
      </trkpt>
      <trkpt lat="43.66921" lon="3.97559">
        <ele>49</ele>
        <time>2021-07-25T03:14:53Z</time>
      </trkpt>
      <trkpt lat="43.66949" lon="3.97587">
        <ele>49</ele>
        <time>2021-07-25T03:14:59Z</time>
      </trkpt>
      <trkpt lat="43.66964" lon="3.97608">
        <ele>48</ele>
        <time>2021-07-25T03:15:03Z</time>
      </trkpt>
      <trkpt lat="43.66979" lon="3.97634">
        <ele>48</ele>
        <time>2021-07-25T03:15:07Z</time>
      </trkpt>
      <trkpt lat="43.66994" lon="3.97661">
        <ele>48</ele>
        <time>2021-07-25T03:15:12Z</time>
      </trkpt>
      <trkpt lat="43.67037" lon="3.97736">
        <ele>50</ele>
        <time>2021-07-25T03:15:24Z</time>
      </trkpt>
      <trkpt lat="43.6705" lon="3.97758">
        <ele>50</ele>
        <time>2021-07-25T03:15:28Z</time>
      </trkpt>
      <trkpt lat="43.67062" lon="3.97779">
        <ele>49</ele>
        <time>2021-07-25T03:15:31Z</time>
      </trkpt>
      <trkpt lat="43.67086" lon="3.97823">
        <ele>48</ele>
        <time>2021-07-25T03:15:38Z</time>
      </trkpt>
      <trkpt lat="43.67124" lon="3.97907">
        <ele>48</ele>
        <time>2021-07-25T03:15:51Z</time>
      </trkpt>
      <trkpt lat="43.67152" lon="3.97969">
        <ele>46</ele>
        <time>2021-07-25T03:16:00Z</time>
      </trkpt>
      <trkpt lat="43.67159" lon="3.97983">
        <ele>46</ele>
        <time>2021-07-25T03:16:03Z</time>
      </trkpt>
      <trkpt lat="43.67162" lon="3.97989">
        <ele>46</ele>
        <time>2021-07-25T03:16:03Z</time>
      </trkpt>
      <trkpt lat="43.67191" lon="3.98035">
        <ele>45</ele>
        <time>2021-07-25T03:16:11Z</time>
      </trkpt>
      <trkpt lat="43.67209" lon="3.98061">
        <ele>45</ele>
        <time>2021-07-25T03:16:16Z</time>
      </trkpt>
      <trkpt lat="43.67221" lon="3.98076">
        <ele>45</ele>
        <time>2021-07-25T03:16:19Z</time>
      </trkpt>
      <trkpt lat="43.67245" lon="3.98103">
        <ele>45</ele>
        <time>2021-07-25T03:16:24Z</time>
      </trkpt>
      <trkpt lat="43.67266" lon="3.98126">
        <ele>46</ele>
        <time>2021-07-25T03:16:29Z</time>
      </trkpt>
      <trkpt lat="43.6729" lon="3.98151">
        <ele>47</ele>
        <time>2021-07-25T03:16:34Z</time>
      </trkpt>
      <trkpt lat="43.67361" lon="3.98211">
        <ele>50</ele>
        <time>2021-07-25T03:16:49Z</time>
      </trkpt>
      <trkpt lat="43.67381" lon="3.98237">
        <ele>50</ele>
        <time>2021-07-25T03:16:54Z</time>
      </trkpt>
      <trkpt lat="43.67391" lon="3.98245">
        <ele>50</ele>
        <time>2021-07-25T03:16:56Z</time>
      </trkpt>
      <trkpt lat="43.67405" lon="3.9825">
        <ele>50</ele>
        <time>2021-07-25T03:16:59Z</time>
      </trkpt>
      <trkpt lat="43.67416" lon="3.98249">
        <ele>50</ele>
        <time>2021-07-25T03:17:01Z</time>
      </trkpt>
      <trkpt lat="43.67428" lon="3.98249">
        <ele>50</ele>
        <time>2021-07-25T03:17:03Z</time>
      </trkpt>
      <trkpt lat="43.67435" lon="3.98252">
        <ele>50</ele>
        <time>2021-07-25T03:17:04Z</time>
      </trkpt>
      <trkpt lat="43.67442" lon="3.9826">
        <ele>50</ele>
        <time>2021-07-25T03:17:06Z</time>
      </trkpt>
      <trkpt lat="43.67454" lon="3.98262">
        <ele>50</ele>
        <time>2021-07-25T03:17:08Z</time>
      </trkpt>
      <trkpt lat="43.67479" lon="3.98285">
        <ele>50</ele>
        <time>2021-07-25T03:17:13Z</time>
      </trkpt>
      <trkpt lat="43.67504" lon="3.983">
        <ele>50</ele>
        <time>2021-07-25T03:17:18Z</time>
      </trkpt>
      <trkpt lat="43.67531" lon="3.9832">
        <ele>51</ele>
        <time>2021-07-25T03:17:24Z</time>
      </trkpt>
      <trkpt lat="43.67538" lon="3.98321">
        <ele>51</ele>
        <time>2021-07-25T03:17:25Z</time>
      </trkpt>
      <trkpt lat="43.67611" lon="3.98369">
        <ele>53</ele>
        <time>2021-07-25T03:17:39Z</time>
      </trkpt>
      <trkpt lat="43.67624" lon="3.98375">
        <ele>53</ele>
        <time>2021-07-25T03:17:42Z</time>
      </trkpt>
      <trkpt lat="43.67785" lon="3.98383">
        <ele>59</ele>
        <time>2021-07-25T03:18:10Z</time>
      </trkpt>
      <trkpt lat="43.67799" lon="3.98385">
        <ele>60</ele>
        <time>2021-07-25T03:18:13Z</time>
      </trkpt>
      <trkpt lat="43.67809" lon="3.98389">
        <ele>60</ele>
        <time>2021-07-25T03:18:15Z</time>
      </trkpt>
      <trkpt lat="43.67817" lon="3.98398">
        <ele>60</ele>
        <time>2021-07-25T03:18:17Z</time>
      </trkpt>
      <trkpt lat="43.67831" lon="3.98412">
        <ele>61</ele>
        <time>2021-07-25T03:18:20Z</time>
      </trkpt>
      <trkpt lat="43.67846" lon="3.98435">
        <ele>63</ele>
        <time>2021-07-25T03:18:24Z</time>
      </trkpt>
      <trkpt lat="43.67866" lon="3.98476">
        <ele>65</ele>
        <time>2021-07-25T03:18:30Z</time>
      </trkpt>
      <trkpt lat="43.6787" lon="3.98483">
        <ele>65</ele>
        <time>2021-07-25T03:18:31Z</time>
      </trkpt>
      <trkpt lat="43.67876" lon="3.98495">
        <ele>66</ele>
        <time>2021-07-25T03:18:33Z</time>
      </trkpt>
      <trkpt lat="43.67878" lon="3.98501">
        <ele>66</ele>
        <time>2021-07-25T03:18:34Z</time>
      </trkpt>
      <trkpt lat="43.67892" lon="3.98534">
        <ele>67</ele>
        <time>2021-07-25T03:18:39Z</time>
      </trkpt>
      <trkpt lat="43.67904" lon="3.98567">
        <ele>68</ele>
        <time>2021-07-25T03:18:44Z</time>
      </trkpt>
      <trkpt lat="43.67907" lon="3.98573">
        <ele>68</ele>
        <time>2021-07-25T03:18:44Z</time>
      </trkpt>
      <trkpt lat="43.67913" lon="3.98591">
        <ele>68</ele>
        <time>2021-07-25T03:18:47Z</time>
      </trkpt>
      <trkpt lat="43.67916" lon="3.98602">
        <ele>68</ele>
        <time>2021-07-25T03:18:49Z</time>
      </trkpt>
      <trkpt lat="43.67923" lon="3.98624">
        <ele>67</ele>
        <time>2021-07-25T03:18:52Z</time>
      </trkpt>
      <trkpt lat="43.67924" lon="3.98627">
        <ele>67</ele>
        <time>2021-07-25T03:18:52Z</time>
      </trkpt>
      <trkpt lat="43.67966" lon="3.98751">
        <ele>65</ele>
        <time>2021-07-25T03:19:10Z</time>
      </trkpt>
      <trkpt lat="43.67972" lon="3.98768">
        <ele>64</ele>
        <time>2021-07-25T03:19:12Z</time>
      </trkpt>
      <trkpt lat="43.67976" lon="3.98778">
        <ele>64</ele>
        <time>2021-07-25T03:19:14Z</time>
      </trkpt>
      <trkpt lat="43.67982" lon="3.98797">
        <ele>64</ele>
        <time>2021-07-25T03:19:16Z</time>
      </trkpt>
      <trkpt lat="43.67994" lon="3.98823">
        <ele>64</ele>
        <time>2021-07-25T03:19:20Z</time>
      </trkpt>
      <trkpt lat="43.68024" lon="3.98879">
        <ele>61</ele>
        <time>2021-07-25T03:19:29Z</time>
      </trkpt>
      <trkpt lat="43.68056" lon="3.98935">
        <ele>60</ele>
        <time>2021-07-25T03:19:38Z</time>
      </trkpt>
      <trkpt lat="43.68061" lon="3.98945">
        <ele>59</ele>
        <time>2021-07-25T03:19:40Z</time>
      </trkpt>
      <trkpt lat="43.68088" lon="3.98992">
        <ele>59</ele>
        <time>2021-07-25T03:19:48Z</time>
      </trkpt>
      <trkpt lat="43.68088" lon="3.98998">
        <ele>59</ele>
        <time>2021-07-25T03:19:48Z</time>
      </trkpt>
      <trkpt lat="43.68109" lon="3.99033">
        <ele>58</ele>
        <time>2021-07-25T03:19:54Z</time>
      </trkpt>
      <trkpt lat="43.68132" lon="3.99074">
        <ele>57</ele>
        <time>2021-07-25T03:20:01Z</time>
      </trkpt>
      <trkpt lat="43.68135" lon="3.99077">
        <ele>57</ele>
        <time>2021-07-25T03:20:02Z</time>
      </trkpt>
      <trkpt lat="43.68159" lon="3.99118">
        <ele>55</ele>
        <time>2021-07-25T03:20:08Z</time>
      </trkpt>
      <trkpt lat="43.68173" lon="3.99143">
        <ele>53</ele>
        <time>2021-07-25T03:20:12Z</time>
      </trkpt>
      <trkpt lat="43.68189" lon="3.99165">
        <ele>52</ele>
        <time>2021-07-25T03:20:16Z</time>
      </trkpt>
      <trkpt lat="43.6828" lon="3.99262">
        <ele>51</ele>
        <time>2021-07-25T03:20:37Z</time>
      </trkpt>
      <trkpt lat="43.68301" lon="3.99282">
        <ele>51</ele>
        <time>2021-07-25T03:20:41Z</time>
      </trkpt>
      <trkpt lat="43.6835" lon="3.99343">
        <ele>48</ele>
        <time>2021-07-25T03:20:53Z</time>
      </trkpt>
      <trkpt lat="43.68363" lon="3.99359">
        <ele>48</ele>
        <time>2021-07-25T03:20:56Z</time>
      </trkpt>
      <trkpt lat="43.68432" lon="3.99448">
        <ele>45</ele>
        <time>2021-07-25T03:21:13Z</time>
      </trkpt>
      <trkpt lat="43.68445" lon="3.9946">
        <ele>45</ele>
        <time>2021-07-25T03:21:16Z</time>
      </trkpt>
      <trkpt lat="43.68464" lon="3.99474">
        <ele>45</ele>
        <time>2021-07-25T03:21:20Z</time>
      </trkpt>
      <trkpt lat="43.68552" lon="3.99526">
        <ele>46</ele>
        <time>2021-07-25T03:21:37Z</time>
      </trkpt>
      <trkpt lat="43.68659" lon="3.99596">
        <ele>45</ele>
        <time>2021-07-25T03:21:58Z</time>
      </trkpt>
      <trkpt lat="43.68722" lon="3.9964">
        <ele>46</ele>
        <time>2021-07-25T03:22:10Z</time>
      </trkpt>
      <trkpt lat="43.6875" lon="3.99666">
        <ele>46</ele>
        <time>2021-07-25T03:22:16Z</time>
      </trkpt>
      <trkpt lat="43.68792" lon="3.9971">
        <ele>49</ele>
        <time>2021-07-25T03:22:26Z</time>
      </trkpt>
      <trkpt lat="43.68808" lon="3.99731">
        <ele>49</ele>
        <time>2021-07-25T03:22:30Z</time>
      </trkpt>
      <trkpt lat="43.68817" lon="3.99746">
        <ele>50</ele>
        <time>2021-07-25T03:22:32Z</time>
      </trkpt>
      <trkpt lat="43.68821" lon="3.99761">
        <ele>50</ele>
        <time>2021-07-25T03:22:34Z</time>
      </trkpt>
      <trkpt lat="43.68825" lon="3.99772">
        <ele>50</ele>
        <time>2021-07-25T03:22:36Z</time>
      </trkpt>
      <trkpt lat="43.68842" lon="3.99836">
        <ele>50</ele>
        <time>2021-07-25T03:22:45Z</time>
      </trkpt>
      <trkpt lat="43.68854" lon="3.9989">
        <ele>48</ele>
        <time>2021-07-25T03:22:52Z</time>
      </trkpt>
      <trkpt lat="43.68857" lon="3.99904">
        <ele>48</ele>
        <time>2021-07-25T03:22:54Z</time>
      </trkpt>
      <trkpt lat="43.68858" lon="3.99941">
        <ele>47</ele>
        <time>2021-07-25T03:22:58Z</time>
      </trkpt>
      <trkpt lat="43.68856" lon="3.99955">
        <ele>47</ele>
        <time>2021-07-25T03:23:00Z</time>
      </trkpt>
      <trkpt lat="43.68846" lon="3.99976">
        <ele>46</ele>
        <time>2021-07-25T03:23:04Z</time>
      </trkpt>
      <trkpt lat="43.68841" lon="3.99983">
        <ele>45</ele>
        <time>2021-07-25T03:23:05Z</time>
      </trkpt>
      <trkpt lat="43.68837" lon="3.99985">
        <ele>45</ele>
        <time>2021-07-25T03:23:06Z</time>
      </trkpt>
      <trkpt lat="43.68833" lon="3.99987">
        <ele>45</ele>
        <time>2021-07-25T03:23:06Z</time>
      </trkpt>
      <trkpt lat="43.68829" lon="3.99991">
        <ele>45</ele>
        <time>2021-07-25T03:23:07Z</time>
      </trkpt>
      <trkpt lat="43.68825" lon="3.99997">
        <ele>45</ele>
        <time>2021-07-25T03:23:08Z</time>
      </trkpt>
      <trkpt lat="43.68822" lon="4.00004">
        <ele>45</ele>
        <time>2021-07-25T03:23:09Z</time>
      </trkpt>
      <trkpt lat="43.68821" lon="4.00013">
        <ele>44</ele>
        <time>2021-07-25T03:23:10Z</time>
      </trkpt>
      <trkpt lat="43.68821" lon="4.0002">
        <ele>44</ele>
        <time>2021-07-25T03:23:11Z</time>
      </trkpt>
      <trkpt lat="43.68823" lon="4.00027">
        <ele>44</ele>
        <time>2021-07-25T03:23:12Z</time>
      </trkpt>
      <trkpt lat="43.68825" lon="4.00033">
        <ele>44</ele>
        <time>2021-07-25T03:23:13Z</time>
      </trkpt>
      <trkpt lat="43.68828" lon="4.00038">
        <ele>44</ele>
        <time>2021-07-25T03:23:14Z</time>
      </trkpt>
      <trkpt lat="43.68836" lon="4.00045">
        <ele>44</ele>
        <time>2021-07-25T03:23:16Z</time>
      </trkpt>
      <trkpt lat="43.68841" lon="4.00046">
        <ele>44</ele>
        <time>2021-07-25T03:23:17Z</time>
      </trkpt>
      <trkpt lat="43.68846" lon="4.00047">
        <ele>44</ele>
        <time>2021-07-25T03:23:17Z</time>
      </trkpt>
      <trkpt lat="43.68851" lon="4.00045">
        <ele>44</ele>
        <time>2021-07-25T03:23:18Z</time>
      </trkpt>
      <trkpt lat="43.68856" lon="4.00042">
        <ele>45</ele>
        <time>2021-07-25T03:23:19Z</time>
      </trkpt>
      <trkpt lat="43.68882" lon="4.00051">
        <ele>46</ele>
        <time>2021-07-25T03:23:24Z</time>
      </trkpt>
      <trkpt lat="43.68902" lon="4.00072">
        <ele>46</ele>
        <time>2021-07-25T03:23:29Z</time>
      </trkpt>
      <trkpt lat="43.68914" lon="4.00083">
        <ele>46</ele>
        <time>2021-07-25T03:23:31Z</time>
      </trkpt>
      <trkpt lat="43.68935" lon="4.00122">
        <ele>47</ele>
        <time>2021-07-25T03:23:37Z</time>
      </trkpt>
      <trkpt lat="43.68976" lon="4.00199">
        <ele>47</ele>
        <time>2021-07-25T03:23:50Z</time>
      </trkpt>
      <trkpt lat="43.69004" lon="4.00252">
        <ele>48</ele>
        <time>2021-07-25T03:23:58Z</time>
      </trkpt>
      <trkpt lat="43.69019" lon="4.00287">
        <ele>48</ele>
        <time>2021-07-25T03:24:03Z</time>
      </trkpt>
      <trkpt lat="43.69037" lon="4.0035">
        <ele>47</ele>
        <time>2021-07-25T03:24:12Z</time>
      </trkpt>
      <trkpt lat="43.69081" lon="4.00574">
        <ele>42</ele>
        <time>2021-07-25T03:24:42Z</time>
      </trkpt>
      <trkpt lat="43.69094" lon="4.00614">
        <ele>42</ele>
        <time>2021-07-25T03:24:48Z</time>
      </trkpt>
      <trkpt lat="43.69105" lon="4.00638">
        <ele>43</ele>
        <time>2021-07-25T03:24:51Z</time>
      </trkpt>
      <trkpt lat="43.69113" lon="4.0065">
        <ele>43</ele>
        <time>2021-07-25T03:24:53Z</time>
      </trkpt>
      <trkpt lat="43.69123" lon="4.00665">
        <ele>43</ele>
        <time>2021-07-25T03:24:56Z</time>
      </trkpt>
      <trkpt lat="43.69239" lon="4.0084">
        <ele>48</ele>
        <time>2021-07-25T03:25:27Z</time>
      </trkpt>
      <trkpt lat="43.69289" lon="4.0091">
        <ele>49</ele>
        <time>2021-07-25T03:25:39Z</time>
      </trkpt>
      <trkpt lat="43.69301" lon="4.00928">
        <ele>48</ele>
        <time>2021-07-25T03:25:42Z</time>
      </trkpt>
      <trkpt lat="43.69374" lon="4.01045">
        <ele>41</ele>
        <time>2021-07-25T03:26:02Z</time>
      </trkpt>
      <trkpt lat="43.69393" lon="4.01076">
        <ele>39</ele>
        <time>2021-07-25T03:26:07Z</time>
      </trkpt>
      <trkpt lat="43.69424" lon="4.01129">
        <ele>40</ele>
        <time>2021-07-25T03:26:16Z</time>
      </trkpt>
      <trkpt lat="43.6948" lon="4.01229">
        <ele>45</ele>
        <time>2021-07-25T03:26:33Z</time>
      </trkpt>
      <trkpt lat="43.69511" lon="4.0128">
        <ele>44</ele>
        <time>2021-07-25T03:26:41Z</time>
      </trkpt>
      <trkpt lat="43.69597" lon="4.01385">
        <ele>46</ele>
        <time>2021-07-25T03:27:01Z</time>
      </trkpt>
      <trkpt lat="43.69624" lon="4.01417">
        <ele>48</ele>
        <time>2021-07-25T03:27:08Z</time>
      </trkpt>
      <trkpt lat="43.69662" lon="4.01463">
        <ele>51</ele>
        <time>2021-07-25T03:27:17Z</time>
      </trkpt>
      <trkpt lat="43.6971" lon="4.01521">
        <ele>52</ele>
        <time>2021-07-25T03:27:28Z</time>
      </trkpt>
      <trkpt lat="43.69787" lon="4.01614">
        <ele>53</ele>
        <time>2021-07-25T03:27:46Z</time>
      </trkpt>
      <trkpt lat="43.69885" lon="4.01732">
        <ele>56</ele>
        <time>2021-07-25T03:28:09Z</time>
      </trkpt>
      <trkpt lat="43.6989" lon="4.01737">
        <ele>56</ele>
        <time>2021-07-25T03:28:11Z</time>
      </trkpt>
      <trkpt lat="43.69942" lon="4.018">
        <ele>57</ele>
        <time>2021-07-25T03:28:23Z</time>
      </trkpt>
      <trkpt lat="43.69941" lon="4.01802">
        <ele>58</ele>
        <time>2021-07-25T03:28:23Z</time>
      </trkpt>
      <trkpt lat="43.69941" lon="4.01807">
        <ele>58</ele>
        <time>2021-07-25T03:28:24Z</time>
      </trkpt>
      <trkpt lat="43.69943" lon="4.01811">
        <ele>58</ele>
        <time>2021-07-25T03:28:24Z</time>
      </trkpt>
      <trkpt lat="43.69945" lon="4.01813">
        <ele>58</ele>
        <time>2021-07-25T03:28:25Z</time>
      </trkpt>
      <trkpt lat="43.69946" lon="4.01813">
        <ele>58</ele>
        <time>2021-07-25T03:28:25Z</time>
      </trkpt>
      <trkpt lat="43.69948" lon="4.01813">
        <ele>58</ele>
        <time>2021-07-25T03:28:25Z</time>
      </trkpt>
      <trkpt lat="43.6995" lon="4.01812">
        <ele>58</ele>
        <time>2021-07-25T03:28:26Z</time>
      </trkpt>
      <trkpt lat="43.69951" lon="4.0181">
        <ele>58</ele>
        <time>2021-07-25T03:28:26Z</time>
      </trkpt>
      <trkpt lat="43.70032" lon="4.01907">
        <ele>61</ele>
        <time>2021-07-25T03:28:45Z</time>
      </trkpt>
      <trkpt lat="43.70049" lon="4.0193">
        <ele>61</ele>
        <time>2021-07-25T03:28:49Z</time>
      </trkpt>
      <trkpt lat="43.70064" lon="4.01952">
        <ele>62</ele>
        <time>2021-07-25T03:28:53Z</time>
      </trkpt>
      <trkpt lat="43.70072" lon="4.01964">
        <ele>62</ele>
        <time>2021-07-25T03:28:55Z</time>
      </trkpt>
      <trkpt lat="43.70144" lon="4.02087">
        <ele>65</ele>
        <time>2021-07-25T03:29:16Z</time>
      </trkpt>
      <trkpt lat="43.70212" lon="4.022">
        <ele>67</ele>
        <time>2021-07-25T03:29:35Z</time>
      </trkpt>
      <trkpt lat="43.70218" lon="4.0221">
        <ele>68</ele>
        <time>2021-07-25T03:29:36Z</time>
      </trkpt>
      <trkpt lat="43.70269" lon="4.02291">
        <ele>70</ele>
        <time>2021-07-25T03:29:50Z</time>
      </trkpt>
      <trkpt lat="43.70288" lon="4.02319">
        <ele>71</ele>
        <time>2021-07-25T03:29:55Z</time>
      </trkpt>
      <trkpt lat="43.70393" lon="4.02441">
        <ele>78</ele>
        <time>2021-07-25T03:30:19Z</time>
      </trkpt>
      <trkpt lat="43.70442" lon="4.02484">
        <ele>77</ele>
        <time>2021-07-25T03:30:30Z</time>
      </trkpt>
      <trkpt lat="43.70457" lon="4.02493">
        <ele>77</ele>
        <time>2021-07-25T03:30:33Z</time>
      </trkpt>
      <trkpt lat="43.70481" lon="4.02506">
        <ele>77</ele>
        <time>2021-07-25T03:30:37Z</time>
      </trkpt>
      <trkpt lat="43.70686" lon="4.02613">
        <ele>81</ele>
        <time>2021-07-25T03:31:16Z</time>
      </trkpt>
      <trkpt lat="43.7103" lon="4.02793">
        <ele>94</ele>
        <time>2021-07-25T03:32:22Z</time>
      </trkpt>
      <trkpt lat="43.71067" lon="4.0281">
        <ele>94</ele>
        <time>2021-07-25T03:32:29Z</time>
      </trkpt>
      <trkpt lat="43.71125" lon="4.02824">
        <ele>90</ele>
        <time>2021-07-25T03:32:39Z</time>
      </trkpt>
      <trkpt lat="43.71133" lon="4.02826">
        <ele>89</ele>
        <time>2021-07-25T03:32:41Z</time>
      </trkpt>
      <trkpt lat="43.71158" lon="4.02835">
        <ele>87</ele>
        <time>2021-07-25T03:32:45Z</time>
      </trkpt>
      <trkpt lat="43.71175" lon="4.02843">
        <ele>85</ele>
        <time>2021-07-25T03:32:48Z</time>
      </trkpt>
      <trkpt lat="43.71394" lon="4.02992">
        <ele>78</ele>
        <time>2021-07-25T03:33:32Z</time>
      </trkpt>
      <trkpt lat="43.71429" lon="4.03018">
        <ele>77</ele>
        <time>2021-07-25T03:33:39Z</time>
      </trkpt>
      <trkpt lat="43.71454" lon="4.03038">
        <ele>77</ele>
        <time>2021-07-25T03:33:44Z</time>
      </trkpt>
      <trkpt lat="43.7155" lon="4.03118">
        <ele>74</ele>
        <time>2021-07-25T03:34:04Z</time>
      </trkpt>
      <trkpt lat="43.71555" lon="4.03123">
        <ele>74</ele>
        <time>2021-07-25T03:34:05Z</time>
      </trkpt>
      <trkpt lat="43.71613" lon="4.03172">
        <ele>75</ele>
        <time>2021-07-25T03:34:17Z</time>
      </trkpt>
      <trkpt lat="43.71659" lon="4.0321">
        <ele>77</ele>
        <time>2021-07-25T03:34:27Z</time>
      </trkpt>
      <trkpt lat="43.71695" lon="4.03241">
        <ele>79</ele>
        <time>2021-07-25T03:34:34Z</time>
      </trkpt>
      <trkpt lat="43.7175" lon="4.03288">
        <ele>83</ele>
        <time>2021-07-25T03:34:46Z</time>
      </trkpt>
      <trkpt lat="43.71769" lon="4.03306">
        <ele>85</ele>
        <time>2021-07-25T03:34:50Z</time>
      </trkpt>
      <trkpt lat="43.71803" lon="4.03351">
        <ele>88</ele>
        <time>2021-07-25T03:34:58Z</time>
      </trkpt>
      <trkpt lat="43.71848" lon="4.03411">
        <ele>91</ele>
        <time>2021-07-25T03:35:09Z</time>
      </trkpt>
      <trkpt lat="43.71845" lon="4.03416">
        <ele>90</ele>
        <time>2021-07-25T03:35:10Z</time>
      </trkpt>
      <trkpt lat="43.71842" lon="4.03429">
        <ele>90</ele>
        <time>2021-07-25T03:35:12Z</time>
      </trkpt>
      <trkpt lat="43.71846" lon="4.03442">
        <ele>89</ele>
        <time>2021-07-25T03:35:14Z</time>
      </trkpt>
      <trkpt lat="43.7185" lon="4.03446">
        <ele>89</ele>
        <time>2021-07-25T03:35:15Z</time>
      </trkpt>
      <trkpt lat="43.71855" lon="4.03448">
        <ele>89</ele>
        <time>2021-07-25T03:35:16Z</time>
      </trkpt>
      <trkpt lat="43.71864" lon="4.03446">
        <ele>90</ele>
        <time>2021-07-25T03:35:17Z</time>
      </trkpt>
      <trkpt lat="43.71868" lon="4.03442">
        <ele>90</ele>
        <time>2021-07-25T03:35:18Z</time>
      </trkpt>
      <trkpt lat="43.71871" lon="4.03437">
        <ele>90</ele>
        <time>2021-07-25T03:35:19Z</time>
      </trkpt>
      <trkpt lat="43.71877" lon="4.03445">
        <ele>90</ele>
        <time>2021-07-25T03:35:20Z</time>
      </trkpt>
      <trkpt lat="43.71895" lon="4.03463">
        <ele>89</ele>
        <time>2021-07-25T03:35:24Z</time>
      </trkpt>
      <trkpt lat="43.71939" lon="4.03492">
        <ele>89</ele>
        <time>2021-07-25T03:35:33Z</time>
      </trkpt>
      <trkpt lat="43.72014" lon="4.03536">
        <ele>90</ele>
        <time>2021-07-25T03:35:47Z</time>
      </trkpt>
      <trkpt lat="43.72058" lon="4.0356">
        <ele>91</ele>
        <time>2021-07-25T03:35:56Z</time>
      </trkpt>
      <trkpt lat="43.72096" lon="4.03581">
        <ele>92</ele>
        <time>2021-07-25T03:36:03Z</time>
      </trkpt>
      <trkpt lat="43.7212" lon="4.03587">
        <ele>92</ele>
        <time>2021-07-25T03:36:07Z</time>
      </trkpt>
      <trkpt lat="43.72124" lon="4.03587">
        <ele>92</ele>
        <time>2021-07-25T03:36:08Z</time>
      </trkpt>
      <trkpt lat="43.72162" lon="4.03593">
        <ele>91</ele>
        <time>2021-07-25T03:36:15Z</time>
      </trkpt>
      <trkpt lat="43.72199" lon="4.03603">
        <ele>89</ele>
        <time>2021-07-25T03:36:22Z</time>
      </trkpt>
      <trkpt lat="43.72205" lon="4.03606">
        <ele>88</ele>
        <time>2021-07-25T03:36:23Z</time>
      </trkpt>
      <trkpt lat="43.72249" lon="4.03625">
        <ele>85</ele>
        <time>2021-07-25T03:36:31Z</time>
      </trkpt>
      <trkpt lat="43.72266" lon="4.03635">
        <ele>84</ele>
        <time>2021-07-25T03:36:34Z</time>
      </trkpt>
      <trkpt lat="43.72274" lon="4.03648">
        <ele>84</ele>
        <time>2021-07-25T03:36:37Z</time>
      </trkpt>
      <trkpt lat="43.72291" lon="4.03679">
        <ele>83</ele>
        <time>2021-07-25T03:36:42Z</time>
      </trkpt>
      <trkpt lat="43.72312" lon="4.03719">
        <ele>83</ele>
        <time>2021-07-25T03:36:48Z</time>
      </trkpt>
      <trkpt lat="43.7232" lon="4.03734">
        <ele>83</ele>
        <time>2021-07-25T03:36:50Z</time>
      </trkpt>
      <trkpt lat="43.72351" lon="4.03789">
        <ele>85</ele>
        <time>2021-07-25T03:36:59Z</time>
      </trkpt>
      <trkpt lat="43.72366" lon="4.03816">
        <ele>85</ele>
        <time>2021-07-25T03:37:04Z</time>
      </trkpt>
      <trkpt lat="43.72368" lon="4.03822">
        <ele>85</ele>
        <time>2021-07-25T03:37:04Z</time>
      </trkpt>
      <trkpt lat="43.72372" lon="4.03834">
        <ele>85</ele>
        <time>2021-07-25T03:37:06Z</time>
      </trkpt>
      <trkpt lat="43.72376" lon="4.03845">
        <ele>84</ele>
        <time>2021-07-25T03:37:08Z</time>
      </trkpt>
      <trkpt lat="43.72378" lon="4.0385">
        <ele>84</ele>
        <time>2021-07-25T03:37:09Z</time>
      </trkpt>
      <trkpt lat="43.72382" lon="4.03861">
        <ele>84</ele>
        <time>2021-07-25T03:37:10Z</time>
      </trkpt>
      <trkpt lat="43.72384" lon="4.03874">
        <ele>84</ele>
        <time>2021-07-25T03:37:12Z</time>
      </trkpt>
      <trkpt lat="43.72387" lon="4.03896">
        <ele>84</ele>
        <time>2021-07-25T03:37:15Z</time>
      </trkpt>
      <trkpt lat="43.72391" lon="4.03902">
        <ele>84</ele>
        <time>2021-07-25T03:37:16Z</time>
      </trkpt>
      <trkpt lat="43.72401" lon="4.03917">
        <ele>84</ele>
        <time>2021-07-25T03:37:18Z</time>
      </trkpt>
      <trkpt lat="43.72478" lon="4.03981">
        <ele>81</ele>
        <time>2021-07-25T03:37:34Z</time>
      </trkpt>
      <trkpt lat="43.72484" lon="4.03986">
        <ele>81</ele>
        <time>2021-07-25T03:37:36Z</time>
      </trkpt>
      <trkpt lat="43.72525" lon="4.0402">
        <ele>83</ele>
        <time>2021-07-25T03:37:44Z</time>
      </trkpt>
      <trkpt lat="43.72639" lon="4.04113">
        <ele>86</ele>
        <time>2021-07-25T03:38:08Z</time>
      </trkpt>
      <trkpt lat="43.72727" lon="4.04185">
        <ele>87</ele>
        <time>2021-07-25T03:38:26Z</time>
      </trkpt>
      <trkpt lat="43.72769" lon="4.0422">
        <ele>90</ele>
        <time>2021-07-25T03:38:35Z</time>
      </trkpt>
      <trkpt lat="43.72952" lon="4.04371">
        <ele>92</ele>
        <time>2021-07-25T03:39:12Z</time>
      </trkpt>
      <trkpt lat="43.72976" lon="4.044">
        <ele>92</ele>
        <time>2021-07-25T03:39:18Z</time>
      </trkpt>
      <trkpt lat="43.72988" lon="4.04416">
        <ele>93</ele>
        <time>2021-07-25T03:39:21Z</time>
      </trkpt>
      <trkpt lat="43.72999" lon="4.04431">
        <ele>93</ele>
        <time>2021-07-25T03:39:24Z</time>
      </trkpt>
      <trkpt lat="43.73029" lon="4.04484">
        <ele>94</ele>
        <time>2021-07-25T03:39:32Z</time>
      </trkpt>
      <trkpt lat="43.73113" lon="4.04667">
        <ele>93</ele>
        <time>2021-07-25T03:40:00Z</time>
      </trkpt>
      <trkpt lat="43.73143" lon="4.04715">
        <ele>92</ele>
        <time>2021-07-25T03:40:09Z</time>
      </trkpt>
      <trkpt lat="43.73182" lon="4.0476">
        <ele>91</ele>
        <time>2021-07-25T03:40:18Z</time>
      </trkpt>
      <trkpt lat="43.73228" lon="4.048">
        <ele>88</ele>
        <time>2021-07-25T03:40:27Z</time>
      </trkpt>
      <trkpt lat="43.7325" lon="4.04816">
        <ele>87</ele>
        <time>2021-07-25T03:40:32Z</time>
      </trkpt>
      <trkpt lat="43.73274" lon="4.04828">
        <ele>86</ele>
        <time>2021-07-25T03:40:36Z</time>
      </trkpt>
      <trkpt lat="43.74166" lon="4.05087">
        <ele>75</ele>
        <time>2021-07-25T03:43:18Z</time>
      </trkpt>
      <trkpt lat="43.7439" lon="4.0515">
        <ele>71</ele>
        <time>2021-07-25T03:43:59Z</time>
      </trkpt>
      <trkpt lat="43.74444" lon="4.05168">
        <ele>72</ele>
        <time>2021-07-25T03:44:09Z</time>
      </trkpt>
      <trkpt lat="43.74484" lon="4.05185">
        <ele>71</ele>
        <time>2021-07-25T03:44:16Z</time>
      </trkpt>
      <trkpt lat="43.74527" lon="4.05218">
        <ele>70</ele>
        <time>2021-07-25T03:44:25Z</time>
      </trkpt>
      <trkpt lat="43.74591" lon="4.05275">
        <ele>69</ele>
        <time>2021-07-25T03:44:39Z</time>
      </trkpt>
      <trkpt lat="43.74657" lon="4.05348">
        <ele>72</ele>
        <time>2021-07-25T03:44:54Z</time>
      </trkpt>
      <trkpt lat="43.74876" lon="4.05567">
        <ele>73</ele>
        <time>2021-07-25T03:45:42Z</time>
      </trkpt>
      <trkpt lat="43.74899" lon="4.05597">
        <ele>73</ele>
        <time>2021-07-25T03:45:47Z</time>
      </trkpt>
      <trkpt lat="43.74917" lon="4.05626">
        <ele>73</ele>
        <time>2021-07-25T03:45:52Z</time>
      </trkpt>
      <trkpt lat="43.74931" lon="4.05654">
        <ele>73</ele>
        <time>2021-07-25T03:45:57Z</time>
      </trkpt>
      <trkpt lat="43.74951" lon="4.05718">
        <ele>74</ele>
        <time>2021-07-25T03:46:06Z</time>
      </trkpt>
      <trkpt lat="43.74955" lon="4.05738">
        <ele>74</ele>
        <time>2021-07-25T03:46:08Z</time>
      </trkpt>
      <trkpt lat="43.74957" lon="4.05777">
        <ele>73</ele>
        <time>2021-07-25T03:46:13Z</time>
      </trkpt>
      <trkpt lat="43.74955" lon="4.05831">
        <ele>73</ele>
        <time>2021-07-25T03:46:20Z</time>
      </trkpt>
      <trkpt lat="43.74936" lon="4.06023">
        <ele>74</ele>
        <time>2021-07-25T03:46:45Z</time>
      </trkpt>
      <trkpt lat="43.74921" lon="4.06211">
        <ele>73</ele>
        <time>2021-07-25T03:47:09Z</time>
      </trkpt>
      <trkpt lat="43.7492" lon="4.06276">
        <ele>72</ele>
        <time>2021-07-25T03:47:18Z</time>
      </trkpt>
      <trkpt lat="43.74923" lon="4.06307">
        <ele>71</ele>
        <time>2021-07-25T03:47:22Z</time>
      </trkpt>
      <trkpt lat="43.7493" lon="4.06362">
        <ele>69</ele>
        <time>2021-07-25T03:47:29Z</time>
      </trkpt>
      <trkpt lat="43.74939" lon="4.06412">
        <ele>68</ele>
        <time>2021-07-25T03:47:36Z</time>
      </trkpt>
      <trkpt lat="43.75123" lon="4.07049">
        <ele>58</ele>
        <time>2021-07-25T03:49:04Z</time>
      </trkpt>
      <trkpt lat="43.75134" lon="4.07078">
        <ele>57</ele>
        <time>2021-07-25T03:49:08Z</time>
      </trkpt>
      <trkpt lat="43.75144" lon="4.07097">
        <ele>57</ele>
        <time>2021-07-25T03:49:11Z</time>
      </trkpt>
      <trkpt lat="43.75444" lon="4.07469">
        <ele>58</ele>
        <time>2021-07-25T03:50:23Z</time>
      </trkpt>
      <trkpt lat="43.7557" lon="4.07596">
        <ele>56</ele>
        <time>2021-07-25T03:50:50Z</time>
      </trkpt>
      <trkpt lat="43.7559" lon="4.07613">
        <ele>56</ele>
        <time>2021-07-25T03:50:55Z</time>
      </trkpt>
      <trkpt lat="43.75596" lon="4.07622">
        <ele>55</ele>
        <time>2021-07-25T03:50:56Z</time>
      </trkpt>
      <trkpt lat="43.75615" lon="4.07634">
        <ele>55</ele>
        <time>2021-07-25T03:51:00Z</time>
      </trkpt>
      <trkpt lat="43.75631" lon="4.07641">
        <ele>55</ele>
        <time>2021-07-25T03:51:03Z</time>
      </trkpt>
      <trkpt lat="43.75683" lon="4.07655">
        <ele>54</ele>
        <time>2021-07-25T03:51:12Z</time>
      </trkpt>
      <trkpt lat="43.75689" lon="4.07653">
        <ele>54</ele>
        <time>2021-07-25T03:51:13Z</time>
      </trkpt>
      <trkpt lat="43.75713" lon="4.07654">
        <ele>53</ele>
        <time>2021-07-25T03:51:18Z</time>
      </trkpt>
      <trkpt lat="43.75783" lon="4.07645">
        <ele>51</ele>
        <time>2021-07-25T03:51:30Z</time>
      </trkpt>
      <trkpt lat="43.75795" lon="4.07648">
        <ele>51</ele>
        <time>2021-07-25T03:51:32Z</time>
      </trkpt>
      <trkpt lat="43.7582" lon="4.07661">
        <ele>50</ele>
        <time>2021-07-25T03:51:37Z</time>
      </trkpt>
      <trkpt lat="43.75848" lon="4.0769">
        <ele>47</ele>
        <time>2021-07-25T03:51:43Z</time>
      </trkpt>
      <trkpt lat="43.75865" lon="4.07717">
        <ele>45</ele>
        <time>2021-07-25T03:51:48Z</time>
      </trkpt>
      <trkpt lat="43.76098" lon="4.08098">
        <ele>30</ele>
        <time>2021-07-25T03:52:52Z</time>
      </trkpt>
      <trkpt lat="43.76121" lon="4.08116">
        <ele>29</ele>
        <time>2021-07-25T03:52:57Z</time>
      </trkpt>
      <trkpt lat="43.76158" lon="4.08123">
        <ele>27</ele>
        <time>2021-07-25T03:53:03Z</time>
      </trkpt>
      <trkpt lat="43.7619" lon="4.08133">
        <ele>28</ele>
        <time>2021-07-25T03:53:09Z</time>
      </trkpt>
      <trkpt lat="43.76217" lon="4.08142">
        <ele>29</ele>
        <time>2021-07-25T03:53:14Z</time>
      </trkpt>
      <trkpt lat="43.76237" lon="4.08155">
        <ele>30</ele>
        <time>2021-07-25T03:53:18Z</time>
      </trkpt>
      <trkpt lat="43.76278" lon="4.08191">
        <ele>31</ele>
        <time>2021-07-25T03:53:27Z</time>
      </trkpt>
      <trkpt lat="43.76322" lon="4.08229">
        <ele>31</ele>
        <time>2021-07-25T03:53:36Z</time>
      </trkpt>
      <trkpt lat="43.76344" lon="4.08246">
        <ele>31</ele>
        <time>2021-07-25T03:53:41Z</time>
      </trkpt>
      <trkpt lat="43.76496" lon="4.08325">
        <ele>24</ele>
        <time>2021-07-25T03:54:09Z</time>
      </trkpt>
      <trkpt lat="43.76525" lon="4.08345">
        <ele>24</ele>
        <time>2021-07-25T03:54:15Z</time>
      </trkpt>
      <trkpt lat="43.76533" lon="4.08353">
        <ele>24</ele>
        <time>2021-07-25T03:54:17Z</time>
      </trkpt>
      <trkpt lat="43.76536" lon="4.08364">
        <ele>24</ele>
        <time>2021-07-25T03:54:18Z</time>
      </trkpt>
      <trkpt lat="43.76542" lon="4.08373">
        <ele>24</ele>
        <time>2021-07-25T03:54:20Z</time>
      </trkpt>
      <trkpt lat="43.7655" lon="4.08378">
        <ele>24</ele>
        <time>2021-07-25T03:54:22Z</time>
      </trkpt>
      <trkpt lat="43.76556" lon="4.08378">
        <ele>24</ele>
        <time>2021-07-25T03:54:23Z</time>
      </trkpt>
      <trkpt lat="43.76562" lon="4.08375">
        <ele>24</ele>
        <time>2021-07-25T03:54:24Z</time>
      </trkpt>
      <trkpt lat="43.76567" lon="4.0837">
        <ele>24</ele>
        <time>2021-07-25T03:54:25Z</time>
      </trkpt>
      <trkpt lat="43.7657" lon="4.08364">
        <ele>24</ele>
        <time>2021-07-25T03:54:26Z</time>
      </trkpt>
      <trkpt lat="43.76582" lon="4.08358">
        <ele>25</ele>
        <time>2021-07-25T03:54:28Z</time>
      </trkpt>
      <trkpt lat="43.76609" lon="4.08354">
        <ele>25</ele>
        <time>2021-07-25T03:54:33Z</time>
      </trkpt>
      <trkpt lat="43.76661" lon="4.08357">
        <ele>25</ele>
        <time>2021-07-25T03:54:42Z</time>
      </trkpt>
      <trkpt lat="43.76783" lon="4.08358">
        <ele>26</ele>
        <time>2021-07-25T03:55:04Z</time>
      </trkpt>
      <trkpt lat="43.76899" lon="4.08374">
        <ele>25</ele>
        <time>2021-07-25T03:55:25Z</time>
      </trkpt>
      <trkpt lat="43.76973" lon="4.0839">
        <ele>25</ele>
        <time>2021-07-25T03:55:38Z</time>
      </trkpt>
      <trkpt lat="43.77147" lon="4.08463">
        <ele>26</ele>
        <time>2021-07-25T03:56:10Z</time>
      </trkpt>
      <trkpt lat="43.77498" lon="4.0869">
        <ele>24</ele>
        <time>2021-07-25T03:57:19Z</time>
      </trkpt>
      <trkpt lat="43.77531" lon="4.08702">
        <ele>24</ele>
        <time>2021-07-25T03:57:25Z</time>
      </trkpt>
      <trkpt lat="43.77554" lon="4.08707">
        <ele>24</ele>
        <time>2021-07-25T03:57:29Z</time>
      </trkpt>
      <trkpt lat="43.77576" lon="4.08708">
        <ele>24</ele>
        <time>2021-07-25T03:57:33Z</time>
      </trkpt>
      <trkpt lat="43.77607" lon="4.08707">
        <ele>25</ele>
        <time>2021-07-25T03:57:39Z</time>
      </trkpt>
      <trkpt lat="43.77639" lon="4.08696">
        <ele>26</ele>
        <time>2021-07-25T03:57:45Z</time>
      </trkpt>
      <trkpt lat="43.77668" lon="4.08684">
        <ele>26</ele>
        <time>2021-07-25T03:57:50Z</time>
      </trkpt>
      <trkpt lat="43.77714" lon="4.08658">
        <ele>25</ele>
        <time>2021-07-25T03:57:59Z</time>
      </trkpt>
      <trkpt lat="43.77758" lon="4.08642">
        <ele>25</ele>
        <time>2021-07-25T03:58:07Z</time>
      </trkpt>
      <trkpt lat="43.778" lon="4.08638">
        <ele>25</ele>
        <time>2021-07-25T03:58:15Z</time>
      </trkpt>
      <trkpt lat="43.77829" lon="4.0864">
        <ele>25</ele>
        <time>2021-07-25T03:58:20Z</time>
      </trkpt>
      <trkpt lat="43.77867" lon="4.08649">
        <ele>25</ele>
        <time>2021-07-25T03:58:27Z</time>
      </trkpt>
      <trkpt lat="43.77878" lon="4.08657">
        <ele>25</ele>
        <time>2021-07-25T03:58:29Z</time>
      </trkpt>
      <trkpt lat="43.77885" lon="4.08667">
        <ele>26</ele>
        <time>2021-07-25T03:58:31Z</time>
      </trkpt>
      <trkpt lat="43.77886" lon="4.08673">
        <ele>26</ele>
        <time>2021-07-25T03:58:31Z</time>
      </trkpt>
      <trkpt lat="43.77887" lon="4.0868">
        <ele>26</ele>
        <time>2021-07-25T03:58:32Z</time>
      </trkpt>
      <trkpt lat="43.77889" lon="4.08696">
        <ele>26</ele>
        <time>2021-07-25T03:58:34Z</time>
      </trkpt>
      <trkpt lat="43.7789" lon="4.08714">
        <ele>26</ele>
        <time>2021-07-25T03:58:37Z</time>
      </trkpt>
      <trkpt lat="43.77889" lon="4.0874">
        <ele>27</ele>
        <time>2021-07-25T03:58:40Z</time>
      </trkpt>
      <trkpt lat="43.77891" lon="4.0876">
        <ele>27</ele>
        <time>2021-07-25T03:58:43Z</time>
      </trkpt>
      <trkpt lat="43.77895" lon="4.0877">
        <ele>27</ele>
        <time>2021-07-25T03:58:44Z</time>
      </trkpt>
      <trkpt lat="43.779" lon="4.08778">
        <ele>27</ele>
        <time>2021-07-25T03:58:45Z</time>
      </trkpt>
      <trkpt lat="43.77916" lon="4.0879">
        <ele>27</ele>
        <time>2021-07-25T03:58:49Z</time>
      </trkpt>
      <trkpt lat="43.77989" lon="4.08796">
        <ele>29</ele>
        <time>2021-07-25T03:59:02Z</time>
      </trkpt>
      <trkpt lat="43.78022" lon="4.088">
        <ele>28</ele>
        <time>2021-07-25T03:59:08Z</time>
      </trkpt>
      <trkpt lat="43.7804" lon="4.08803">
        <ele>28</ele>
        <time>2021-07-25T03:59:11Z</time>
      </trkpt>
      <trkpt lat="43.78061" lon="4.08805">
        <ele>28</ele>
        <time>2021-07-25T03:59:15Z</time>
      </trkpt>
      <trkpt lat="43.78062" lon="4.08805">
        <ele>28</ele>
        <time>2021-07-25T03:59:15Z</time>
      </trkpt>
      <trkpt lat="43.78163" lon="4.08802">
        <ele>30</ele>
        <time>2021-07-25T03:59:33Z</time>
      </trkpt>
      <trkpt lat="43.78166" lon="4.08802">
        <ele>30</ele>
        <time>2021-07-25T03:59:33Z</time>
      </trkpt>
      <trkpt lat="43.78176" lon="4.08801">
        <ele>30</ele>
        <time>2021-07-25T03:59:35Z</time>
      </trkpt>
      <trkpt lat="43.78181" lon="4.08806">
        <ele>30</ele>
        <time>2021-07-25T03:59:36Z</time>
      </trkpt>
      <trkpt lat="43.78184" lon="4.0881">
        <ele>30</ele>
        <time>2021-07-25T03:59:37Z</time>
      </trkpt>
      <trkpt lat="43.78187" lon="4.08816">
        <ele>30</ele>
        <time>2021-07-25T03:59:38Z</time>
      </trkpt>
      <trkpt lat="43.78201" lon="4.08843">
        <ele>30</ele>
        <time>2021-07-25T03:59:42Z</time>
      </trkpt>
      <trkpt lat="43.78239" lon="4.08933">
        <ele>29</ele>
        <time>2021-07-25T03:59:55Z</time>
      </trkpt>
      <trkpt lat="43.78243" lon="4.08943">
        <ele>30</ele>
        <time>2021-07-25T03:59:57Z</time>
      </trkpt>
      <trkpt lat="43.78188" lon="4.09008">
        <ele>29</ele>
        <time>2021-07-25T04:00:10Z</time>
      </trkpt>
      <trkpt lat="43.78169" lon="4.09027">
        <ele>29</ele>
        <time>2021-07-25T04:00:14Z</time>
      </trkpt>
      <trkpt lat="43.78163" lon="4.09031">
        <ele>30</ele>
        <time>2021-07-25T04:00:15Z</time>
      </trkpt>
      <trkpt lat="43.78114" lon="4.09053">
        <ele>30</ele>
        <time>2021-07-25T04:00:24Z</time>
      </trkpt>
      <trkpt lat="43.78099" lon="4.09062">
        <ele>30</ele>
        <time>2021-07-25T04:00:27Z</time>
      </trkpt>
      <trkpt lat="43.78091" lon="4.09072">
        <ele>31</ele>
        <time>2021-07-25T04:00:29Z</time>
      </trkpt>
      <trkpt lat="43.78087" lon="4.09089">
        <ele>32</ele>
        <time>2021-07-25T04:00:31Z</time>
      </trkpt>
      <trkpt lat="43.78094" lon="4.09146">
        <ele>37</ele>
        <time>2021-07-25T04:00:39Z</time>
      </trkpt>
      <trkpt lat="43.78092" lon="4.09158">
        <ele>37</ele>
        <time>2021-07-25T04:00:40Z</time>
      </trkpt>
      <trkpt lat="43.78085" lon="4.09167">
        <ele>37</ele>
        <time>2021-07-25T04:00:42Z</time>
      </trkpt>
      <trkpt lat="43.78074" lon="4.09175">
        <ele>37</ele>
        <time>2021-07-25T04:00:44Z</time>
      </trkpt>
      <trkpt lat="43.78007" lon="4.09192">
        <ele>35</ele>
        <time>2021-07-25T04:00:56Z</time>
      </trkpt>
      <trkpt lat="43.78" lon="4.09208">
        <ele>36</ele>
        <time>2021-07-25T04:00:59Z</time>
      </trkpt>
      <trkpt lat="43.77897" lon="4.09232">
        <ele>33</ele>
        <time>2021-07-25T04:01:17Z</time>
      </trkpt>
      <trkpt lat="43.77818" lon="4.09264">
        <ele>33</ele>
        <time>2021-07-25T04:01:32Z</time>
      </trkpt>
      <trkpt lat="43.77815" lon="4.09269">
        <ele>34</ele>
        <time>2021-07-25T04:01:33Z</time>
      </trkpt>
      <trkpt lat="43.77819" lon="4.09328">
        <ele>40</ele>
        <time>2021-07-25T04:01:41Z</time>
      </trkpt>
      <trkpt lat="43.77818" lon="4.09336">
        <ele>41</ele>
        <time>2021-07-25T04:01:42Z</time>
      </trkpt>
      <trkpt lat="43.77811" lon="4.09341">
        <ele>42</ele>
        <time>2021-07-25T04:01:43Z</time>
      </trkpt>
      <trkpt lat="43.77738" lon="4.09354">
        <ele>44</ele>
        <time>2021-07-25T04:01:56Z</time>
      </trkpt>
      <trkpt lat="43.77711" lon="4.09354">
        <ele>45</ele>
        <time>2021-07-25T04:02:01Z</time>
      </trkpt>
      <trkpt lat="43.77666" lon="4.09347">
        <ele>45</ele>
        <time>2021-07-25T04:02:09Z</time>
      </trkpt>
      <trkpt lat="43.77643" lon="4.0934">
        <ele>42</ele>
        <time>2021-07-25T04:02:13Z</time>
      </trkpt>
      <trkpt lat="43.7761" lon="4.09327">
        <ele>38</ele>
        <time>2021-07-25T04:02:19Z</time>
      </trkpt>
      <trkpt lat="43.77597" lon="4.0932">
        <ele>37</ele>
        <time>2021-07-25T04:02:22Z</time>
      </trkpt>
      <trkpt lat="43.7757" lon="4.09309">
        <ele>35</ele>
        <time>2021-07-25T04:02:27Z</time>
      </trkpt>
      <trkpt lat="43.77541" lon="4.09304">
        <ele>35</ele>
        <time>2021-07-25T04:02:32Z</time>
      </trkpt>
      <trkpt lat="43.77536" lon="4.09303">
        <ele>35</ele>
        <time>2021-07-25T04:02:33Z</time>
      </trkpt>
      <trkpt lat="43.77526" lon="4.09301">
        <ele>35</ele>
        <time>2021-07-25T04:02:35Z</time>
      </trkpt>
      <trkpt lat="43.77461" lon="4.09279">
        <ele>34</ele>
        <time>2021-07-25T04:02:47Z</time>
      </trkpt>
      <trkpt lat="43.77405" lon="4.09271">
        <ele>35</ele>
        <time>2021-07-25T04:02:57Z</time>
      </trkpt>
      <trkpt lat="43.77383" lon="4.09275">
        <ele>38</ele>
        <time>2021-07-25T04:03:01Z</time>
      </trkpt>
      <trkpt lat="43.77329" lon="4.09266">
        <ele>39</ele>
        <time>2021-07-25T04:03:10Z</time>
      </trkpt>
      <trkpt lat="43.77272" lon="4.09263">
        <ele>38</ele>
        <time>2021-07-25T04:03:20Z</time>
      </trkpt>
      <trkpt lat="43.77194" lon="4.09272">
        <ele>37</ele>
        <time>2021-07-25T04:03:34Z</time>
      </trkpt>
      <trkpt lat="43.77108" lon="4.09275">
        <ele>36</ele>
        <time>2021-07-25T04:03:50Z</time>
      </trkpt>
      <trkpt lat="43.77077" lon="4.09274">
        <ele>36</ele>
        <time>2021-07-25T04:03:55Z</time>
      </trkpt>
      <trkpt lat="43.77053" lon="4.09268">
        <ele>36</ele>
        <time>2021-07-25T04:03:59Z</time>
      </trkpt>
      <trkpt lat="43.76998" lon="4.09272">
        <ele>38</ele>
        <time>2021-07-25T04:04:09Z</time>
      </trkpt>
      <trkpt lat="43.76977" lon="4.09281">
        <ele>38</ele>
        <time>2021-07-25T04:04:13Z</time>
      </trkpt>
      <trkpt lat="43.76913" lon="4.09297">
        <ele>39</ele>
        <time>2021-07-25T04:04:25Z</time>
      </trkpt>
      <trkpt lat="43.7688" lon="4.09312">
        <ele>40</ele>
        <time>2021-07-25T04:04:31Z</time>
      </trkpt>
      <trkpt lat="43.76823" lon="4.09347">
        <ele>42</ele>
        <time>2021-07-25T04:04:42Z</time>
      </trkpt>
      <trkpt lat="43.76794" lon="4.09373">
        <ele>42</ele>
        <time>2021-07-25T04:04:48Z</time>
      </trkpt>
      <trkpt lat="43.76754" lon="4.09418">
        <ele>41</ele>
        <time>2021-07-25T04:04:57Z</time>
      </trkpt>
      <trkpt lat="43.76742" lon="4.09435">
        <ele>40</ele>
        <time>2021-07-25T04:05:00Z</time>
      </trkpt>
      <trkpt lat="43.76718" lon="4.09473">
        <ele>41</ele>
        <time>2021-07-25T04:05:07Z</time>
      </trkpt>
      <trkpt lat="43.76696" lon="4.09517">
        <ele>42</ele>
        <time>2021-07-25T04:05:14Z</time>
      </trkpt>
      <trkpt lat="43.76678" lon="4.09566">
        <ele>43</ele>
        <time>2021-07-25T04:05:21Z</time>
      </trkpt>
      <trkpt lat="43.76667" lon="4.09601">
        <ele>43</ele>
        <time>2021-07-25T04:05:26Z</time>
      </trkpt>
      <trkpt lat="43.76642" lon="4.09725">
        <ele>45</ele>
        <time>2021-07-25T04:05:42Z</time>
      </trkpt>
      <trkpt lat="43.76616" lon="4.09868">
        <ele>44</ele>
        <time>2021-07-25T04:06:01Z</time>
      </trkpt>
      <trkpt lat="43.76609" lon="4.09912">
        <ele>44</ele>
        <time>2021-07-25T04:06:07Z</time>
      </trkpt>
      <trkpt lat="43.76606" lon="4.0994">
        <ele>44</ele>
        <time>2021-07-25T04:06:11Z</time>
      </trkpt>
      <trkpt lat="43.76604" lon="4.09973">
        <ele>44</ele>
        <time>2021-07-25T04:06:15Z</time>
      </trkpt>
      <trkpt lat="43.76604" lon="4.10017">
        <ele>44</ele>
        <time>2021-07-25T04:06:21Z</time>
      </trkpt>
      <trkpt lat="43.76607" lon="4.10053">
        <ele>43</ele>
        <time>2021-07-25T04:06:25Z</time>
      </trkpt>
      <trkpt lat="43.76614" lon="4.10097">
        <ele>43</ele>
        <time>2021-07-25T04:06:31Z</time>
      </trkpt>
      <trkpt lat="43.76632" lon="4.10161">
        <ele>42</ele>
        <time>2021-07-25T04:06:40Z</time>
      </trkpt>
      <trkpt lat="43.76649" lon="4.10202">
        <ele>41</ele>
        <time>2021-07-25T04:06:46Z</time>
      </trkpt>
      <trkpt lat="43.76661" lon="4.10226">
        <ele>40</ele>
        <time>2021-07-25T04:06:50Z</time>
      </trkpt>
      <trkpt lat="43.76686" lon="4.10262">
        <ele>40</ele>
        <time>2021-07-25T04:06:56Z</time>
      </trkpt>
      <trkpt lat="43.76705" lon="4.10286">
        <ele>40</ele>
        <time>2021-07-25T04:07:01Z</time>
      </trkpt>
      <trkpt lat="43.76733" lon="4.10313">
        <ele>41</ele>
        <time>2021-07-25T04:07:07Z</time>
      </trkpt>
      <trkpt lat="43.77092" lon="4.10598">
        <ele>43</ele>
        <time>2021-07-25T04:08:20Z</time>
      </trkpt>
      <trkpt lat="43.77107" lon="4.1061">
        <ele>43</ele>
        <time>2021-07-25T04:08:23Z</time>
      </trkpt>
      <trkpt lat="43.77166" lon="4.10659">
        <ele>44</ele>
        <time>2021-07-25T04:08:36Z</time>
      </trkpt>
      <trkpt lat="43.7726" lon="4.10727">
        <ele>47</ele>
        <time>2021-07-25T04:08:55Z</time>
      </trkpt>
      <trkpt lat="43.77334" lon="4.10768">
        <ele>50</ele>
        <time>2021-07-25T04:09:09Z</time>
      </trkpt>
      <trkpt lat="43.77479" lon="4.10841">
        <ele>50</ele>
        <time>2021-07-25T04:09:36Z</time>
      </trkpt>
      <trkpt lat="43.77505" lon="4.10852">
        <ele>51</ele>
        <time>2021-07-25T04:09:41Z</time>
      </trkpt>
      <trkpt lat="43.77544" lon="4.10862">
        <ele>54</ele>
        <time>2021-07-25T04:09:48Z</time>
      </trkpt>
      <trkpt lat="43.77584" lon="4.10868">
        <ele>57</ele>
        <time>2021-07-25T04:09:55Z</time>
      </trkpt>
      <trkpt lat="43.77685" lon="4.10889">
        <ele>56</ele>
        <time>2021-07-25T04:10:13Z</time>
      </trkpt>
      <trkpt lat="43.77722" lon="4.10902">
        <ele>57</ele>
        <time>2021-07-25T04:10:20Z</time>
      </trkpt>
      <trkpt lat="43.77753" lon="4.10918">
        <ele>57</ele>
        <time>2021-07-25T04:10:26Z</time>
      </trkpt>
      <trkpt lat="43.77778" lon="4.10936">
        <ele>57</ele>
        <time>2021-07-25T04:10:31Z</time>
      </trkpt>
      <trkpt lat="43.77804" lon="4.10962">
        <ele>56</ele>
        <time>2021-07-25T04:10:37Z</time>
      </trkpt>
      <trkpt lat="43.77824" lon="4.10984">
        <ele>54</ele>
        <time>2021-07-25T04:10:41Z</time>
      </trkpt>
      <trkpt lat="43.77846" lon="4.11017">
        <ele>52</ele>
        <time>2021-07-25T04:10:47Z</time>
      </trkpt>
      <trkpt lat="43.77863" lon="4.11048">
        <ele>51</ele>
        <time>2021-07-25T04:10:52Z</time>
      </trkpt>
      <trkpt lat="43.7788" lon="4.11093">
        <ele>49</ele>
        <time>2021-07-25T04:10:59Z</time>
      </trkpt>
      <trkpt lat="43.77899" lon="4.11157">
        <ele>51</ele>
        <time>2021-07-25T04:11:07Z</time>
      </trkpt>
      <trkpt lat="43.77908" lon="4.11223">
        <ele>56</ele>
        <time>2021-07-25T04:11:16Z</time>
      </trkpt>
      <trkpt lat="43.7791" lon="4.11248">
        <ele>58</ele>
        <time>2021-07-25T04:11:19Z</time>
      </trkpt>
      <trkpt lat="43.77909" lon="4.1129">
        <ele>60</ele>
        <time>2021-07-25T04:11:25Z</time>
      </trkpt>
      <trkpt lat="43.77906" lon="4.11323">
        <ele>62</ele>
        <time>2021-07-25T04:11:29Z</time>
      </trkpt>
      <trkpt lat="43.77899" lon="4.11361">
        <ele>62</ele>
        <time>2021-07-25T04:11:34Z</time>
      </trkpt>
      <trkpt lat="43.7789" lon="4.11398">
        <ele>61</ele>
        <time>2021-07-25T04:11:39Z</time>
      </trkpt>
      <trkpt lat="43.7777" lon="4.11733">
        <ele>56</ele>
        <time>2021-07-25T04:12:27Z</time>
      </trkpt>
      <trkpt lat="43.77755" lon="4.11778">
        <ele>56</ele>
        <time>2021-07-25T04:12:33Z</time>
      </trkpt>
      <trkpt lat="43.77743" lon="4.11823">
        <ele>57</ele>
        <time>2021-07-25T04:12:40Z</time>
      </trkpt>
      <trkpt lat="43.77733" lon="4.11875">
        <ele>58</ele>
        <time>2021-07-25T04:12:47Z</time>
      </trkpt>
      <trkpt lat="43.7773" lon="4.11895">
        <ele>59</ele>
        <time>2021-07-25T04:12:49Z</time>
      </trkpt>
      <trkpt lat="43.77728" lon="4.11913">
        <ele>59</ele>
        <time>2021-07-25T04:12:52Z</time>
      </trkpt>
      <trkpt lat="43.7772" lon="4.11975">
        <ele>60</ele>
        <time>2021-07-25T04:13:00Z</time>
      </trkpt>
      <trkpt lat="43.77709" lon="4.11986">
        <ele>61</ele>
        <time>2021-07-25T04:13:02Z</time>
      </trkpt>
      <trkpt lat="43.77708" lon="4.11993">
        <ele>61</ele>
        <time>2021-07-25T04:13:03Z</time>
      </trkpt>
      <trkpt lat="43.77709" lon="4.12051">
        <ele>62</ele>
        <time>2021-07-25T04:13:10Z</time>
      </trkpt>
      <trkpt lat="43.77703" lon="4.12117">
        <ele>63</ele>
        <time>2021-07-25T04:13:19Z</time>
      </trkpt>
      <trkpt lat="43.777" lon="4.12169">
        <ele>64</ele>
        <time>2021-07-25T04:13:26Z</time>
      </trkpt>
      <trkpt lat="43.77702" lon="4.12256">
        <ele>66</ele>
        <time>2021-07-25T04:13:37Z</time>
      </trkpt>
      <trkpt lat="43.77715" lon="4.1239">
        <ele>68</ele>
        <time>2021-07-25T04:13:54Z</time>
      </trkpt>
      <trkpt lat="43.77722" lon="4.12484">
        <ele>66</ele>
        <time>2021-07-25T04:14:06Z</time>
      </trkpt>
      <trkpt lat="43.77723" lon="4.12565">
        <ele>65</ele>
        <time>2021-07-25T04:14:17Z</time>
      </trkpt>
      <trkpt lat="43.77721" lon="4.126">
        <ele>65</ele>
        <time>2021-07-25T04:14:21Z</time>
      </trkpt>
      <trkpt lat="43.77715" lon="4.12648">
        <ele>64</ele>
        <time>2021-07-25T04:14:28Z</time>
      </trkpt>
      <trkpt lat="43.77706" lon="4.1269">
        <ele>63</ele>
        <time>2021-07-25T04:14:33Z</time>
      </trkpt>
      <trkpt lat="43.77694" lon="4.12735">
        <ele>62</ele>
        <time>2021-07-25T04:14:39Z</time>
      </trkpt>
      <trkpt lat="43.77679" lon="4.12778">
        <ele>62</ele>
        <time>2021-07-25T04:14:45Z</time>
      </trkpt>
      <trkpt lat="43.77566" lon="4.13035">
        <ele>65</ele>
        <time>2021-07-25T04:15:24Z</time>
      </trkpt>
      <trkpt lat="43.77536" lon="4.13116">
        <ele>65</ele>
        <time>2021-07-25T04:15:36Z</time>
      </trkpt>
      <trkpt lat="43.77511" lon="4.13192">
        <ele>65</ele>
        <time>2021-07-25T04:15:47Z</time>
      </trkpt>
      <trkpt lat="43.7749" lon="4.13264">
        <ele>66</ele>
        <time>2021-07-25T04:15:57Z</time>
      </trkpt>
      <trkpt lat="43.77468" lon="4.13351">
        <ele>66</ele>
        <time>2021-07-25T04:16:08Z</time>
      </trkpt>
      <trkpt lat="43.77438" lon="4.13502">
        <ele>65</ele>
        <time>2021-07-25T04:16:28Z</time>
      </trkpt>
      <trkpt lat="43.77352" lon="4.14122">
        <ele>65</ele>
        <time>2021-07-25T04:17:50Z</time>
      </trkpt>
      <trkpt lat="43.77347" lon="4.14156">
        <ele>65</ele>
        <time>2021-07-25T04:17:54Z</time>
      </trkpt>
      <trkpt lat="43.77303" lon="4.14478">
        <ele>63</ele>
        <time>2021-07-25T04:18:36Z</time>
      </trkpt>
      <trkpt lat="43.77292" lon="4.14587">
        <ele>63</ele>
        <time>2021-07-25T04:18:50Z</time>
      </trkpt>
      <trkpt lat="43.77281" lon="4.14754">
        <ele>63</ele>
        <time>2021-07-25T04:19:12Z</time>
      </trkpt>
      <trkpt lat="43.77278" lon="4.14882">
        <ele>65</ele>
        <time>2021-07-25T04:19:28Z</time>
      </trkpt>
      <trkpt lat="43.77281" lon="4.15024">
        <ele>65</ele>
        <time>2021-07-25T04:19:47Z</time>
      </trkpt>
      <trkpt lat="43.77285" lon="4.15087">
        <ele>65</ele>
        <time>2021-07-25T04:19:55Z</time>
      </trkpt>
      <trkpt lat="43.77299" lon="4.15297">
        <ele>66</ele>
        <time>2021-07-25T04:20:22Z</time>
      </trkpt>
      <trkpt lat="43.77324" lon="4.1559">
        <ele>67</ele>
        <time>2021-07-25T04:21:00Z</time>
      </trkpt>
      <trkpt lat="43.7734" lon="4.15875">
        <ele>67</ele>
        <time>2021-07-25T04:21:36Z</time>
      </trkpt>
      <trkpt lat="43.77347" lon="4.15912">
        <ele>66</ele>
        <time>2021-07-25T04:21:41Z</time>
      </trkpt>
      <trkpt lat="43.77346" lon="4.15916">
        <ele>66</ele>
        <time>2021-07-25T04:21:42Z</time>
      </trkpt>
      <trkpt lat="43.77341" lon="4.15924">
        <ele>66</ele>
        <time>2021-07-25T04:21:43Z</time>
      </trkpt>
      <trkpt lat="43.77338" lon="4.15938">
        <ele>66</ele>
        <time>2021-07-25T04:21:45Z</time>
      </trkpt>
      <trkpt lat="43.77352" lon="4.15987">
        <ele>65</ele>
        <time>2021-07-25T04:21:52Z</time>
      </trkpt>
      <trkpt lat="43.77354" lon="4.16005">
        <ele>65</ele>
        <time>2021-07-25T04:21:54Z</time>
      </trkpt>
      <trkpt lat="43.77364" lon="4.1616">
        <ele>63</ele>
        <time>2021-07-25T04:22:14Z</time>
      </trkpt>
      <trkpt lat="43.77362" lon="4.16179">
        <ele>63</ele>
        <time>2021-07-25T04:22:17Z</time>
      </trkpt>
      <trkpt lat="43.77364" lon="4.1621">
        <ele>64</ele>
        <time>2021-07-25T04:22:21Z</time>
      </trkpt>
      <trkpt lat="43.77366" lon="4.16236">
        <ele>64</ele>
        <time>2021-07-25T04:22:24Z</time>
      </trkpt>
      <trkpt lat="43.77448" lon="4.17386">
        <ele>58</ele>
        <time>2021-07-25T04:24:52Z</time>
      </trkpt>
      <trkpt lat="43.77459" lon="4.17535">
        <ele>57</ele>
        <time>2021-07-25T04:25:12Z</time>
      </trkpt>
      <trkpt lat="43.77468" lon="4.17622">
        <ele>56</ele>
        <time>2021-07-25T04:25:23Z</time>
      </trkpt>
      <trkpt lat="43.7747" lon="4.17637">
        <ele>56</ele>
        <time>2021-07-25T04:25:25Z</time>
      </trkpt>
      <trkpt lat="43.77481" lon="4.1773">
        <ele>55</ele>
        <time>2021-07-25T04:25:37Z</time>
      </trkpt>
      <trkpt lat="43.77513" lon="4.17942">
        <ele>54</ele>
        <time>2021-07-25T04:26:05Z</time>
      </trkpt>
      <trkpt lat="43.7754" lon="4.18081">
        <ele>52</ele>
        <time>2021-07-25T04:26:23Z</time>
      </trkpt>
      <trkpt lat="43.7757" lon="4.18219">
        <ele>51</ele>
        <time>2021-07-25T04:26:42Z</time>
      </trkpt>
      <trkpt lat="43.77596" lon="4.18321">
        <ele>51</ele>
        <time>2021-07-25T04:26:56Z</time>
      </trkpt>
      <trkpt lat="43.77651" lon="4.18516">
        <ele>50</ele>
        <time>2021-07-25T04:27:23Z</time>
      </trkpt>
      <trkpt lat="43.77686" lon="4.18623">
        <ele>50</ele>
        <time>2021-07-25T04:27:38Z</time>
      </trkpt>
      <trkpt lat="43.77688" lon="4.18628">
        <ele>50</ele>
        <time>2021-07-25T04:27:39Z</time>
      </trkpt>
      <trkpt lat="43.77706" lon="4.18684">
        <ele>50</ele>
        <time>2021-07-25T04:27:46Z</time>
      </trkpt>
      <trkpt lat="43.7771" lon="4.18713">
        <ele>50</ele>
        <time>2021-07-25T04:27:50Z</time>
      </trkpt>
      <trkpt lat="43.77757" lon="4.18849">
        <ele>49</ele>
        <time>2021-07-25T04:28:10Z</time>
      </trkpt>
      <trkpt lat="43.77762" lon="4.18857">
        <ele>50</ele>
        <time>2021-07-25T04:28:11Z</time>
      </trkpt>
      <trkpt lat="43.77781" lon="4.18878">
        <ele>50</ele>
        <time>2021-07-25T04:28:15Z</time>
      </trkpt>
      <trkpt lat="43.77795" lon="4.18921">
        <ele>51</ele>
        <time>2021-07-25T04:28:21Z</time>
      </trkpt>
      <trkpt lat="43.77838" lon="4.19021">
        <ele>50</ele>
        <time>2021-07-25T04:28:36Z</time>
      </trkpt>
      <trkpt lat="43.77848" lon="4.19053">
        <ele>50</ele>
        <time>2021-07-25T04:28:41Z</time>
      </trkpt>
      <trkpt lat="43.77856" lon="4.1908">
        <ele>49</ele>
        <time>2021-07-25T04:28:45Z</time>
      </trkpt>
      <trkpt lat="43.77868" lon="4.19115">
        <ele>50</ele>
        <time>2021-07-25T04:28:49Z</time>
      </trkpt>
      <trkpt lat="43.77894" lon="4.19169">
        <ele>50</ele>
        <time>2021-07-25T04:28:58Z</time>
      </trkpt>
      <trkpt lat="43.77916" lon="4.19229">
        <ele>51</ele>
        <time>2021-07-25T04:29:06Z</time>
      </trkpt>
      <trkpt lat="43.77927" lon="4.19246">
        <ele>51</ele>
        <time>2021-07-25T04:29:09Z</time>
      </trkpt>
      <trkpt lat="43.77935" lon="4.19263">
        <ele>50</ele>
        <time>2021-07-25T04:29:12Z</time>
      </trkpt>
      <trkpt lat="43.77944" lon="4.19317">
        <ele>48</ele>
        <time>2021-07-25T04:29:19Z</time>
      </trkpt>
      <trkpt lat="43.77981" lon="4.194">
        <ele>47</ele>
        <time>2021-07-25T04:29:32Z</time>
      </trkpt>
      <trkpt lat="43.77997" lon="4.19415">
        <ele>48</ele>
        <time>2021-07-25T04:29:35Z</time>
      </trkpt>
      <trkpt lat="43.77999" lon="4.19421">
        <ele>48</ele>
        <time>2021-07-25T04:29:36Z</time>
      </trkpt>
      <trkpt lat="43.7801" lon="4.19447">
        <ele>47</ele>
        <time>2021-07-25T04:29:40Z</time>
      </trkpt>
      <trkpt lat="43.78073" lon="4.19609">
        <ele>45</ele>
        <time>2021-07-25T04:30:03Z</time>
      </trkpt>
      <trkpt lat="43.78079" lon="4.19623">
        <ele>45</ele>
        <time>2021-07-25T04:30:06Z</time>
      </trkpt>
      <trkpt lat="43.78109" lon="4.19696">
        <ele>46</ele>
        <time>2021-07-25T04:30:16Z</time>
      </trkpt>
      <trkpt lat="43.78151" lon="4.19797">
        <ele>47</ele>
        <time>2021-07-25T04:30:31Z</time>
      </trkpt>
      <trkpt lat="43.78154" lon="4.19803">
        <ele>47</ele>
        <time>2021-07-25T04:30:32Z</time>
      </trkpt>
      <trkpt lat="43.78128" lon="4.19827">
        <ele>45</ele>
        <time>2021-07-25T04:30:38Z</time>
      </trkpt>
      <trkpt lat="43.78101" lon="4.19843">
        <ele>44</ele>
        <time>2021-07-25T04:30:43Z</time>
      </trkpt>
      <trkpt lat="43.78098" lon="4.19848">
        <ele>44</ele>
        <time>2021-07-25T04:30:44Z</time>
      </trkpt>
      <trkpt lat="43.78097" lon="4.19854">
        <ele>44</ele>
        <time>2021-07-25T04:30:45Z</time>
      </trkpt>
      <trkpt lat="43.78093" lon="4.19859">
        <ele>44</ele>
        <time>2021-07-25T04:30:46Z</time>
      </trkpt>
      <trkpt lat="43.78065" lon="4.19911">
        <ele>44</ele>
        <time>2021-07-25T04:30:54Z</time>
      </trkpt>
      <trkpt lat="43.78021" lon="4.19973">
        <ele>44</ele>
        <time>2021-07-25T04:31:05Z</time>
      </trkpt>
      <trkpt lat="43.77992" lon="4.2003">
        <ele>44</ele>
        <time>2021-07-25T04:31:14Z</time>
      </trkpt>
      <trkpt lat="43.77987" lon="4.2005">
        <ele>44</ele>
        <time>2021-07-25T04:31:17Z</time>
      </trkpt>
      <trkpt lat="43.77982" lon="4.20087">
        <ele>44</ele>
        <time>2021-07-25T04:31:22Z</time>
      </trkpt>
      <trkpt lat="43.77978" lon="4.20097">
        <ele>44</ele>
        <time>2021-07-25T04:31:23Z</time>
      </trkpt>
      <trkpt lat="43.77972" lon="4.201">
        <ele>43</ele>
        <time>2021-07-25T04:31:24Z</time>
      </trkpt>
      <trkpt lat="43.7795" lon="4.20105">
        <ele>43</ele>
        <time>2021-07-25T04:31:28Z</time>
      </trkpt>
      <trkpt lat="43.77946" lon="4.20116">
        <ele>43</ele>
        <time>2021-07-25T04:31:30Z</time>
      </trkpt>
      <trkpt lat="43.77981" lon="4.2039">
        <ele>40</ele>
        <time>2021-07-25T04:32:06Z</time>
      </trkpt>
      <trkpt lat="43.7798" lon="4.2042">
        <ele>40</ele>
        <time>2021-07-25T04:32:09Z</time>
      </trkpt>
      <trkpt lat="43.77977" lon="4.20442">
        <ele>40</ele>
        <time>2021-07-25T04:32:12Z</time>
      </trkpt>
      <trkpt lat="43.77953" lon="4.20538">
        <ele>39</ele>
        <time>2021-07-25T04:32:25Z</time>
      </trkpt>
      <trkpt lat="43.77952" lon="4.20578">
        <ele>40</ele>
        <time>2021-07-25T04:32:30Z</time>
      </trkpt>
      <trkpt lat="43.77954" lon="4.20637">
        <ele>41</ele>
        <time>2021-07-25T04:32:38Z</time>
      </trkpt>
      <trkpt lat="43.77938" lon="4.20641">
        <ele>41</ele>
        <time>2021-07-25T04:32:41Z</time>
      </trkpt>
      <trkpt lat="43.7793" lon="4.20654">
        <ele>41</ele>
        <time>2021-07-25T04:32:43Z</time>
      </trkpt>
      <trkpt lat="43.77922" lon="4.20679">
        <ele>42</ele>
        <time>2021-07-25T04:32:47Z</time>
      </trkpt>
      <trkpt lat="43.77902" lon="4.20772">
        <ele>41</ele>
        <time>2021-07-25T04:32:59Z</time>
      </trkpt>
      <trkpt lat="43.77898" lon="4.20792">
        <ele>40</ele>
        <time>2021-07-25T04:33:02Z</time>
      </trkpt>
      <trkpt lat="43.77891" lon="4.20829">
        <ele>39</ele>
        <time>2021-07-25T04:33:07Z</time>
      </trkpt>
      <trkpt lat="43.77883" lon="4.20876">
        <ele>38</ele>
        <time>2021-07-25T04:33:13Z</time>
      </trkpt>
      <trkpt lat="43.77881" lon="4.20895">
        <ele>38</ele>
        <time>2021-07-25T04:33:15Z</time>
      </trkpt>
      <trkpt lat="43.77881" lon="4.20906">
        <ele>38</ele>
        <time>2021-07-25T04:33:17Z</time>
      </trkpt>
      <trkpt lat="43.77882" lon="4.20944">
        <ele>38</ele>
        <time>2021-07-25T04:33:22Z</time>
      </trkpt>
      <trkpt lat="43.77881" lon="4.20962">
        <ele>38</ele>
        <time>2021-07-25T04:33:24Z</time>
      </trkpt>
      <trkpt lat="43.77876" lon="4.20992">
        <ele>38</ele>
        <time>2021-07-25T04:33:28Z</time>
      </trkpt>
      <trkpt lat="43.77869" lon="4.2102">
        <ele>38</ele>
        <time>2021-07-25T04:33:32Z</time>
      </trkpt>
      <trkpt lat="43.7786" lon="4.21037">
        <ele>38</ele>
        <time>2021-07-25T04:33:34Z</time>
      </trkpt>
      <trkpt lat="43.77847" lon="4.21049">
        <ele>37</ele>
        <time>2021-07-25T04:33:37Z</time>
      </trkpt>
      <trkpt lat="43.77803" lon="4.21061">
        <ele>38</ele>
        <time>2021-07-25T04:33:45Z</time>
      </trkpt>
      <trkpt lat="43.77785" lon="4.21077">
        <ele>38</ele>
        <time>2021-07-25T04:33:49Z</time>
      </trkpt>
      <trkpt lat="43.77767" lon="4.21089">
        <ele>38</ele>
        <time>2021-07-25T04:33:53Z</time>
      </trkpt>
      <trkpt lat="43.77759" lon="4.21094">
        <ele>38</ele>
        <time>2021-07-25T04:33:54Z</time>
      </trkpt>
      <trkpt lat="43.77741" lon="4.21101">
        <ele>38</ele>
        <time>2021-07-25T04:33:57Z</time>
      </trkpt>
      <trkpt lat="43.77736" lon="4.21107">
        <ele>38</ele>
        <time>2021-07-25T04:33:59Z</time>
      </trkpt>
      <trkpt lat="43.77734" lon="4.21116">
        <ele>37</ele>
        <time>2021-07-25T04:34:00Z</time>
      </trkpt>
      <trkpt lat="43.77738" lon="4.21136">
        <ele>37</ele>
        <time>2021-07-25T04:34:03Z</time>
      </trkpt>
      <trkpt lat="43.7775" lon="4.21179">
        <ele>36</ele>
        <time>2021-07-25T04:34:08Z</time>
      </trkpt>
      <trkpt lat="43.77753" lon="4.21211">
        <ele>34</ele>
        <time>2021-07-25T04:34:13Z</time>
      </trkpt>
      <trkpt lat="43.77758" lon="4.21287">
        <ele>33</ele>
        <time>2021-07-25T04:34:22Z</time>
      </trkpt>
      <trkpt lat="43.77774" lon="4.2155">
        <ele>32</ele>
        <time>2021-07-25T04:34:56Z</time>
      </trkpt>
      <trkpt lat="43.77775" lon="4.21566">
        <ele>32</ele>
        <time>2021-07-25T04:34:58Z</time>
      </trkpt>
      <trkpt lat="43.77794" lon="4.21656">
        <ele>31</ele>
        <time>2021-07-25T04:35:10Z</time>
      </trkpt>
      <trkpt lat="43.77801" lon="4.21684">
        <ele>30</ele>
        <time>2021-07-25T04:35:14Z</time>
      </trkpt>
      <trkpt lat="43.77816" lon="4.21748">
        <ele>31</ele>
        <time>2021-07-25T04:35:23Z</time>
      </trkpt>
      <trkpt lat="43.77853" lon="4.21888">
        <ele>31</ele>
        <time>2021-07-25T04:35:42Z</time>
      </trkpt>
      <trkpt lat="43.7786" lon="4.21928">
        <ele>31</ele>
        <time>2021-07-25T04:35:47Z</time>
      </trkpt>
      <trkpt lat="43.77862" lon="4.2196">
        <ele>30</ele>
        <time>2021-07-25T04:35:51Z</time>
      </trkpt>
      <trkpt lat="43.77861" lon="4.22003">
        <ele>30</ele>
        <time>2021-07-25T04:35:57Z</time>
      </trkpt>
      <trkpt lat="43.7785" lon="4.22119">
        <ele>31</ele>
        <time>2021-07-25T04:36:12Z</time>
      </trkpt>
      <trkpt lat="43.77846" lon="4.22147">
        <ele>31</ele>
        <time>2021-07-25T04:36:16Z</time>
      </trkpt>
      <trkpt lat="43.77837" lon="4.22179">
        <ele>32</ele>
        <time>2021-07-25T04:36:20Z</time>
      </trkpt>
      <trkpt lat="43.77817" lon="4.22234">
        <ele>33</ele>
        <time>2021-07-25T04:36:28Z</time>
      </trkpt>
      <trkpt lat="43.77798" lon="4.22274">
        <ele>33</ele>
        <time>2021-07-25T04:36:34Z</time>
      </trkpt>
      <trkpt lat="43.77698" lon="4.22454">
        <ele>34</ele>
        <time>2021-07-25T04:37:03Z</time>
      </trkpt>
      <trkpt lat="43.77686" lon="4.22488">
        <ele>33</ele>
        <time>2021-07-25T04:37:08Z</time>
      </trkpt>
      <trkpt lat="43.77648" lon="4.22639">
        <ele>35</ele>
        <time>2021-07-25T04:37:29Z</time>
      </trkpt>
      <trkpt lat="43.77636" lon="4.22697">
        <ele>35</ele>
        <time>2021-07-25T04:37:36Z</time>
      </trkpt>
      <trkpt lat="43.77633" lon="4.2272">
        <ele>35</ele>
        <time>2021-07-25T04:37:39Z</time>
      </trkpt>
      <trkpt lat="43.77633" lon="4.22807">
        <ele>35</ele>
        <time>2021-07-25T04:37:51Z</time>
      </trkpt>
      <trkpt lat="43.77626" lon="4.22841">
        <ele>36</ele>
        <time>2021-07-25T04:37:55Z</time>
      </trkpt>
      <trkpt lat="43.77606" lon="4.22895">
        <ele>36</ele>
        <time>2021-07-25T04:38:03Z</time>
      </trkpt>
      <trkpt lat="43.77583" lon="4.22948">
        <ele>37</ele>
        <time>2021-07-25T04:38:11Z</time>
      </trkpt>
      <trkpt lat="43.77579" lon="4.22968">
        <ele>37</ele>
        <time>2021-07-25T04:38:14Z</time>
      </trkpt>
      <trkpt lat="43.77578" lon="4.22982">
        <ele>37</ele>
        <time>2021-07-25T04:38:15Z</time>
      </trkpt>
      <trkpt lat="43.77662" lon="4.23198">
        <ele>41</ele>
        <time>2021-07-25T04:38:47Z</time>
      </trkpt>
      <trkpt lat="43.77671" lon="4.2323">
        <ele>41</ele>
        <time>2021-07-25T04:38:51Z</time>
      </trkpt>
      <trkpt lat="43.77684" lon="4.23378">
        <ele>45</ele>
        <time>2021-07-25T04:39:10Z</time>
      </trkpt>
      <trkpt lat="43.77677" lon="4.23402">
        <ele>46</ele>
        <time>2021-07-25T04:39:14Z</time>
      </trkpt>
      <trkpt lat="43.77656" lon="4.23429">
        <ele>47</ele>
        <time>2021-07-25T04:39:19Z</time>
      </trkpt>
      <trkpt lat="43.77562" lon="4.23519">
        <ele>51</ele>
        <time>2021-07-25T04:39:39Z</time>
      </trkpt>
      <trkpt lat="43.77498" lon="4.23572">
        <ele>51</ele>
        <time>2021-07-25T04:39:52Z</time>
      </trkpt>
      <trkpt lat="43.77487" lon="4.23585">
        <ele>51</ele>
        <time>2021-07-25T04:39:55Z</time>
      </trkpt>
      <trkpt lat="43.7746" lon="4.23636">
        <ele>53</ele>
        <time>2021-07-25T04:40:03Z</time>
      </trkpt>
      <trkpt lat="43.7744" lon="4.23665">
        <ele>54</ele>
        <time>2021-07-25T04:40:08Z</time>
      </trkpt>
      <trkpt lat="43.77364" lon="4.23765">
        <ele>57</ele>
        <time>2021-07-25T04:40:27Z</time>
      </trkpt>
      <trkpt lat="43.77352" lon="4.23779">
        <ele>58</ele>
        <time>2021-07-25T04:40:30Z</time>
      </trkpt>
      <trkpt lat="43.77288" lon="4.23836">
        <ele>62</ele>
        <time>2021-07-25T04:40:43Z</time>
      </trkpt>
      <trkpt lat="43.77246" lon="4.23862">
        <ele>65</ele>
        <time>2021-07-25T04:40:52Z</time>
      </trkpt>
      <trkpt lat="43.77209" lon="4.23878">
        <ele>68</ele>
        <time>2021-07-25T04:40:58Z</time>
      </trkpt>
      <trkpt lat="43.7717" lon="4.23889">
        <ele>69</ele>
        <time>2021-07-25T04:41:05Z</time>
      </trkpt>
      <trkpt lat="43.7715" lon="4.23902">
        <ele>69</ele>
        <time>2021-07-25T04:41:09Z</time>
      </trkpt>
      <trkpt lat="43.77134" lon="4.23918">
        <ele>69</ele>
        <time>2021-07-25T04:41:13Z</time>
      </trkpt>
      <trkpt lat="43.77097" lon="4.23974">
        <ele>71</ele>
        <time>2021-07-25T04:41:23Z</time>
      </trkpt>
      <trkpt lat="43.77056" lon="4.24045">
        <ele>71</ele>
        <time>2021-07-25T04:41:34Z</time>
      </trkpt>
      <trkpt lat="43.77036" lon="4.24087">
        <ele>71</ele>
        <time>2021-07-25T04:41:41Z</time>
      </trkpt>
      <trkpt lat="43.77011" lon="4.24147">
        <ele>70</ele>
        <time>2021-07-25T04:41:50Z</time>
      </trkpt>
      <trkpt lat="43.76895" lon="4.24398">
        <ele>60</ele>
        <time>2021-07-25T04:42:28Z</time>
      </trkpt>
      <trkpt lat="43.76871" lon="4.24454">
        <ele>58</ele>
        <time>2021-07-25T04:42:36Z</time>
      </trkpt>
      <trkpt lat="43.76837" lon="4.24587">
        <ele>55</ele>
        <time>2021-07-25T04:42:55Z</time>
      </trkpt>
      <trkpt lat="43.7677" lon="4.24777">
        <ele>49</ele>
        <time>2021-07-25T04:43:22Z</time>
      </trkpt>
      <trkpt lat="43.76703" lon="4.24956">
        <ele>44</ele>
        <time>2021-07-25T04:43:48Z</time>
      </trkpt>
      <trkpt lat="43.76686" lon="4.24992">
        <ele>43</ele>
        <time>2021-07-25T04:43:53Z</time>
      </trkpt>
      <trkpt lat="43.76448" lon="4.2537">
        <ele>40</ele>
        <time>2021-07-25T04:44:58Z</time>
      </trkpt>
      <trkpt lat="43.76425" lon="4.25399">
        <ele>39</ele>
        <time>2021-07-25T04:45:03Z</time>
      </trkpt>
      <trkpt lat="43.76368" lon="4.25448">
        <ele>38</ele>
        <time>2021-07-25T04:45:15Z</time>
      </trkpt>
      <trkpt lat="43.76252" lon="4.25583">
        <ele>33</ele>
        <time>2021-07-25T04:45:42Z</time>
      </trkpt>
      <trkpt lat="43.76211" lon="4.25648">
        <ele>33</ele>
        <time>2021-07-25T04:45:53Z</time>
      </trkpt>
      <trkpt lat="43.76186" lon="4.25681">
        <ele>32</ele>
        <time>2021-07-25T04:45:59Z</time>
      </trkpt>
      <trkpt lat="43.76086" lon="4.25803">
        <ele>33</ele>
        <time>2021-07-25T04:46:23Z</time>
      </trkpt>
      <trkpt lat="43.76055" lon="4.25858">
        <ele>32</ele>
        <time>2021-07-25T04:46:32Z</time>
      </trkpt>
      <trkpt lat="43.75976" lon="4.26029">
        <ele>30</ele>
        <time>2021-07-25T04:46:58Z</time>
      </trkpt>
      <trkpt lat="43.75944" lon="4.26087">
        <ele>32</ele>
        <time>2021-07-25T04:47:07Z</time>
      </trkpt>
      <trkpt lat="43.75874" lon="4.26193">
        <ele>33</ele>
        <time>2021-07-25T04:47:26Z</time>
      </trkpt>
      <trkpt lat="43.75836" lon="4.2625">
        <ele>36</ele>
        <time>2021-07-25T04:47:36Z</time>
      </trkpt>
      <trkpt lat="43.75798" lon="4.26309">
        <ele>34</ele>
        <time>2021-07-25T04:47:46Z</time>
      </trkpt>
      <trkpt lat="43.75794" lon="4.26318">
        <ele>34</ele>
        <time>2021-07-25T04:47:47Z</time>
      </trkpt>
      <trkpt lat="43.7579" lon="4.26331">
        <ele>34</ele>
        <time>2021-07-25T04:47:49Z</time>
      </trkpt>
      <trkpt lat="43.75791" lon="4.2635">
        <ele>33</ele>
        <time>2021-07-25T04:47:52Z</time>
      </trkpt>
      <trkpt lat="43.75813" lon="4.26437">
        <ele>30</ele>
        <time>2021-07-25T04:48:03Z</time>
      </trkpt>
      <trkpt lat="43.75829" lon="4.26487">
        <ele>29</ele>
        <time>2021-07-25T04:48:10Z</time>
      </trkpt>
      <trkpt lat="43.75844" lon="4.26529">
        <ele>30</ele>
        <time>2021-07-25T04:48:16Z</time>
      </trkpt>
      <trkpt lat="43.75848" lon="4.2655">
        <ele>30</ele>
        <time>2021-07-25T04:48:19Z</time>
      </trkpt>
      <trkpt lat="43.7585" lon="4.26567">
        <ele>30</ele>
        <time>2021-07-25T04:48:21Z</time>
      </trkpt>
      <trkpt lat="43.75849" lon="4.26582">
        <ele>30</ele>
        <time>2021-07-25T04:48:23Z</time>
      </trkpt>
      <trkpt lat="43.75842" lon="4.26607">
        <ele>30</ele>
        <time>2021-07-25T04:48:27Z</time>
      </trkpt>
      <trkpt lat="43.75814" lon="4.26679">
        <ele>29</ele>
        <time>2021-07-25T04:48:37Z</time>
      </trkpt>
      <trkpt lat="43.75813" lon="4.26692">
        <ele>29</ele>
        <time>2021-07-25T04:48:39Z</time>
      </trkpt>
      <trkpt lat="43.75817" lon="4.26717">
        <ele>29</ele>
        <time>2021-07-25T04:48:42Z</time>
      </trkpt>
      <trkpt lat="43.75829" lon="4.26769">
        <ele>30</ele>
        <time>2021-07-25T04:48:49Z</time>
      </trkpt>
      <trkpt lat="43.75832" lon="4.26775">
        <ele>30</ele>
        <time>2021-07-25T04:48:50Z</time>
      </trkpt>
      <trkpt lat="43.75815" lon="4.26787">
        <ele>29</ele>
        <time>2021-07-25T04:48:54Z</time>
      </trkpt>
      <trkpt lat="43.75815" lon="4.26796">
        <ele>29</ele>
        <time>2021-07-25T04:48:55Z</time>
      </trkpt>
      <trkpt lat="43.75858" lon="4.26882">
        <ele>30</ele>
        <time>2021-07-25T04:49:08Z</time>
      </trkpt>
      <trkpt lat="43.75859" lon="4.26888">
        <ele>30</ele>
        <time>2021-07-25T04:49:09Z</time>
      </trkpt>
      <trkpt lat="43.75857" lon="4.26893">
        <ele>30</ele>
        <time>2021-07-25T04:49:10Z</time>
      </trkpt>
      <trkpt lat="43.75829" lon="4.26911">
        <ele>29</ele>
        <time>2021-07-25T04:49:15Z</time>
      </trkpt>
      <trkpt lat="43.75903" lon="4.27142">
        <ele>24</ele>
        <time>2021-07-25T04:49:48Z</time>
      </trkpt>
      <trkpt lat="43.75903" lon="4.27152">
        <ele>24</ele>
        <time>2021-07-25T04:49:49Z</time>
      </trkpt>
      <trkpt lat="43.75907" lon="4.27166">
        <ele>24</ele>
        <time>2021-07-25T04:49:51Z</time>
      </trkpt>
      <trkpt lat="43.75939" lon="4.27205">
        <ele>24</ele>
        <time>2021-07-25T04:49:59Z</time>
      </trkpt>
      <trkpt lat="43.75998" lon="4.27273">
        <ele>24</ele>
        <time>2021-07-25T04:50:12Z</time>
      </trkpt>
      <trkpt lat="43.76109" lon="4.27383">
        <ele>25</ele>
        <time>2021-07-25T04:50:37Z</time>
      </trkpt>
      <trkpt lat="43.76118" lon="4.27399">
        <ele>25</ele>
        <time>2021-07-25T04:50:39Z</time>
      </trkpt>
      <trkpt lat="43.76164" lon="4.27496">
        <ele>24</ele>
        <time>2021-07-25T04:50:54Z</time>
      </trkpt>
      <trkpt lat="43.76259" lon="4.27708">
        <ele>22</ele>
        <time>2021-07-25T04:51:26Z</time>
      </trkpt>
      <trkpt lat="43.76297" lon="4.27786">
        <ele>20</ele>
        <time>2021-07-25T04:51:38Z</time>
      </trkpt>
      <trkpt lat="43.76342" lon="4.27845">
        <ele>21</ele>
        <time>2021-07-25T04:51:49Z</time>
      </trkpt>
      <trkpt lat="43.76356" lon="4.27868">
        <ele>21</ele>
        <time>2021-07-25T04:51:53Z</time>
      </trkpt>
      <trkpt lat="43.7639" lon="4.27955">
        <ele>22</ele>
        <time>2021-07-25T04:52:06Z</time>
      </trkpt>
      <trkpt lat="43.76425" lon="4.28047">
        <ele>22</ele>
        <time>2021-07-25T04:52:19Z</time>
      </trkpt>
      <trkpt lat="43.76435" lon="4.28081">
        <ele>21</ele>
        <time>2021-07-25T04:52:24Z</time>
      </trkpt>
      <trkpt lat="43.76459" lon="4.2819">
        <ele>21</ele>
        <time>2021-07-25T04:52:39Z</time>
      </trkpt>
      <trkpt lat="43.76503" lon="4.28398">
        <ele>24</ele>
        <time>2021-07-25T04:53:06Z</time>
      </trkpt>
      <trkpt lat="43.76518" lon="4.28485">
        <ele>25</ele>
        <time>2021-07-25T04:53:18Z</time>
      </trkpt>
      <trkpt lat="43.76545" lon="4.28502">
        <ele>24</ele>
        <time>2021-07-25T04:53:23Z</time>
      </trkpt>
      <trkpt lat="43.76573" lon="4.28521">
        <ele>24</ele>
        <time>2021-07-25T04:53:29Z</time>
      </trkpt>
      <trkpt lat="43.76608" lon="4.28568">
        <ele>25</ele>
        <time>2021-07-25T04:53:37Z</time>
      </trkpt>
      <trkpt lat="43.76618" lon="4.28608">
        <ele>25</ele>
        <time>2021-07-25T04:53:43Z</time>
      </trkpt>
      <trkpt lat="43.76627" lon="4.28666">
        <ele>25</ele>
        <time>2021-07-25T04:53:50Z</time>
      </trkpt>
      <trkpt lat="43.76624" lon="4.2869">
        <ele>25</ele>
        <time>2021-07-25T04:53:54Z</time>
      </trkpt>
      <trkpt lat="43.76606" lon="4.28735">
        <ele>25</ele>
        <time>2021-07-25T04:54:00Z</time>
      </trkpt>
      <trkpt lat="43.76603" lon="4.28733">
        <ele>25</ele>
        <time>2021-07-25T04:54:01Z</time>
      </trkpt>
      <trkpt lat="43.766" lon="4.28733">
        <ele>25</ele>
        <time>2021-07-25T04:54:01Z</time>
      </trkpt>
      <trkpt lat="43.76598" lon="4.28736">
        <ele>25</ele>
        <time>2021-07-25T04:54:02Z</time>
      </trkpt>
      <trkpt lat="43.76597" lon="4.2874">
        <ele>25</ele>
        <time>2021-07-25T04:54:02Z</time>
      </trkpt>
      <trkpt lat="43.76599" lon="4.28744">
        <ele>25</ele>
        <time>2021-07-25T04:54:03Z</time>
      </trkpt>
      <trkpt lat="43.76605" lon="4.28744">
        <ele>25</ele>
        <time>2021-07-25T04:54:04Z</time>
      </trkpt>
      <trkpt lat="43.76619" lon="4.28794">
        <ele>25</ele>
        <time>2021-07-25T04:54:11Z</time>
      </trkpt>
      <trkpt lat="43.76625" lon="4.28811">
        <ele>25</ele>
        <time>2021-07-25T04:54:13Z</time>
      </trkpt>
      <trkpt lat="43.76636" lon="4.28836">
        <ele>25</ele>
        <time>2021-07-25T04:54:17Z</time>
      </trkpt>
      <trkpt lat="43.7664" lon="4.28878">
        <ele>24</ele>
        <time>2021-07-25T04:54:23Z</time>
      </trkpt>
      <trkpt lat="43.76597" lon="4.2891">
        <ele>23</ele>
        <time>2021-07-25T04:54:31Z</time>
      </trkpt>
      <trkpt lat="43.76566" lon="4.28931">
        <ele>23</ele>
        <time>2021-07-25T04:54:37Z</time>
      </trkpt>
      <trkpt lat="43.76532" lon="4.28951">
        <ele>22</ele>
        <time>2021-07-25T04:54:44Z</time>
      </trkpt>
      <trkpt lat="43.76458" lon="4.29012">
        <ele>19</ele>
        <time>2021-07-25T04:54:59Z</time>
      </trkpt>
      <trkpt lat="43.76453" lon="4.29021">
        <ele>19</ele>
        <time>2021-07-25T04:55:01Z</time>
      </trkpt>
      <trkpt lat="43.76452" lon="4.29041">
        <ele>19</ele>
        <time>2021-07-25T04:55:03Z</time>
      </trkpt>
      <trkpt lat="43.76523" lon="4.29339">
        <ele>21</ele>
        <time>2021-07-25T04:55:44Z</time>
      </trkpt>
      <trkpt lat="43.76504" lon="4.29404">
        <ele>19</ele>
        <time>2021-07-25T04:55:53Z</time>
      </trkpt>
      <trkpt lat="43.76502" lon="4.29418">
        <ele>19</ele>
        <time>2021-07-25T04:55:55Z</time>
      </trkpt>
      <trkpt lat="43.76505" lon="4.29449">
        <ele>19</ele>
        <time>2021-07-25T04:55:59Z</time>
      </trkpt>
      <trkpt lat="43.76526" lon="4.2953">
        <ele>19</ele>
        <time>2021-07-25T04:56:10Z</time>
      </trkpt>
      <trkpt lat="43.7653" lon="4.29563">
        <ele>20</ele>
        <time>2021-07-25T04:56:14Z</time>
      </trkpt>
      <trkpt lat="43.76531" lon="4.296">
        <ele>20</ele>
        <time>2021-07-25T04:56:19Z</time>
      </trkpt>
      <trkpt lat="43.76529" lon="4.2964">
        <ele>19</ele>
        <time>2021-07-25T04:56:24Z</time>
      </trkpt>
      <trkpt lat="43.7652" lon="4.29696">
        <ele>19</ele>
        <time>2021-07-25T04:56:31Z</time>
      </trkpt>
      <trkpt lat="43.76519" lon="4.29745">
        <ele>19</ele>
        <time>2021-07-25T04:56:37Z</time>
      </trkpt>
      <trkpt lat="43.76521" lon="4.29772">
        <ele>19</ele>
        <time>2021-07-25T04:56:41Z</time>
      </trkpt>
      <trkpt lat="43.76529" lon="4.29814">
        <ele>18</ele>
        <time>2021-07-25T04:56:47Z</time>
      </trkpt>
      <trkpt lat="43.7654" lon="4.29853">
        <ele>18</ele>
        <time>2021-07-25T04:56:52Z</time>
      </trkpt>
      <trkpt lat="43.7654" lon="4.29864">
        <ele>18</ele>
        <time>2021-07-25T04:56:53Z</time>
      </trkpt>
      <trkpt lat="43.76537" lon="4.29872">
        <ele>18</ele>
        <time>2021-07-25T04:56:54Z</time>
      </trkpt>
      <trkpt lat="43.76522" lon="4.29886">
        <ele>18</ele>
        <time>2021-07-25T04:56:58Z</time>
      </trkpt>
      <trkpt lat="43.76513" lon="4.29898">
        <ele>17</ele>
        <time>2021-07-25T04:57:00Z</time>
      </trkpt>
      <trkpt lat="43.76506" lon="4.29917">
        <ele>17</ele>
        <time>2021-07-25T04:57:03Z</time>
      </trkpt>
      <trkpt lat="43.76501" lon="4.29954">
        <ele>17</ele>
        <time>2021-07-25T04:57:08Z</time>
      </trkpt>
      <trkpt lat="43.765" lon="4.29981">
        <ele>18</ele>
        <time>2021-07-25T04:57:11Z</time>
      </trkpt>
      <trkpt lat="43.76507" lon="4.30046">
        <ele>19</ele>
        <time>2021-07-25T04:57:19Z</time>
      </trkpt>
      <trkpt lat="43.76504" lon="4.30069">
        <ele>19</ele>
        <time>2021-07-25T04:57:22Z</time>
      </trkpt>
      <trkpt lat="43.76499" lon="4.30078">
        <ele>19</ele>
        <time>2021-07-25T04:57:24Z</time>
      </trkpt>
      <trkpt lat="43.76433" lon="4.30142">
        <ele>18</ele>
        <time>2021-07-25T04:57:38Z</time>
      </trkpt>
      <trkpt lat="43.76346" lon="4.30327">
        <ele>19</ele>
        <time>2021-07-25T04:58:07Z</time>
      </trkpt>
      <trkpt lat="43.76335" lon="4.30351">
        <ele>18</ele>
        <time>2021-07-25T04:58:10Z</time>
      </trkpt>
      <trkpt lat="43.7633" lon="4.30366">
        <ele>18</ele>
        <time>2021-07-25T04:58:12Z</time>
      </trkpt>
      <trkpt lat="43.76281" lon="4.30581">
        <ele>17</ele>
        <time>2021-07-25T04:58:41Z</time>
      </trkpt>
      <trkpt lat="43.76273" lon="4.30605">
        <ele>18</ele>
        <time>2021-07-25T04:58:45Z</time>
      </trkpt>
      <trkpt lat="43.76261" lon="4.30622">
        <ele>19</ele>
        <time>2021-07-25T04:58:48Z</time>
      </trkpt>
      <trkpt lat="43.76199" lon="4.30707">
        <ele>19</ele>
        <time>2021-07-25T04:59:03Z</time>
      </trkpt>
      <trkpt lat="43.76165" lon="4.30748">
        <ele>20</ele>
        <time>2021-07-25T04:59:11Z</time>
      </trkpt>
      <trkpt lat="43.76147" lon="4.30781">
        <ele>20</ele>
        <time>2021-07-25T04:59:17Z</time>
      </trkpt>
      <trkpt lat="43.76146" lon="4.30794">
        <ele>20</ele>
        <time>2021-07-25T04:59:18Z</time>
      </trkpt>
      <trkpt lat="43.76147" lon="4.30809">
        <ele>20</ele>
        <time>2021-07-25T04:59:20Z</time>
      </trkpt>
      <trkpt lat="43.7617" lon="4.30925">
        <ele>20</ele>
        <time>2021-07-25T04:59:36Z</time>
      </trkpt>
      <trkpt lat="43.7617" lon="4.30944">
        <ele>20</ele>
        <time>2021-07-25T04:59:38Z</time>
      </trkpt>
      <trkpt lat="43.76167" lon="4.30954">
        <ele>20</ele>
        <time>2021-07-25T04:59:40Z</time>
      </trkpt>
      <trkpt lat="43.76166" lon="4.30957">
        <ele>20</ele>
        <time>2021-07-25T04:59:40Z</time>
      </trkpt>
      <trkpt lat="43.76156" lon="4.30969">
        <ele>21</ele>
        <time>2021-07-25T04:59:42Z</time>
      </trkpt>
      <trkpt lat="43.76101" lon="4.31007">
        <ele>21</ele>
        <time>2021-07-25T04:59:53Z</time>
      </trkpt>
      <trkpt lat="43.76097" lon="4.3101">
        <ele>21</ele>
        <time>2021-07-25T04:59:54Z</time>
      </trkpt>
      <trkpt lat="43.76044" lon="4.31047">
        <ele>22</ele>
        <time>2021-07-25T05:00:05Z</time>
      </trkpt>
      <trkpt lat="43.76027" lon="4.31059">
        <ele>22</ele>
        <time>2021-07-25T05:00:08Z</time>
      </trkpt>
      <trkpt lat="43.75982" lon="4.31092">
        <ele>22</ele>
        <time>2021-07-25T05:00:17Z</time>
      </trkpt>
      <trkpt lat="43.75959" lon="4.31102">
        <ele>22</ele>
        <time>2021-07-25T05:00:21Z</time>
      </trkpt>
      <trkpt lat="43.75945" lon="4.31103">
        <ele>22</ele>
        <time>2021-07-25T05:00:24Z</time>
      </trkpt>
      <trkpt lat="43.75936" lon="4.311">
        <ele>22</ele>
        <time>2021-07-25T05:00:26Z</time>
      </trkpt>
      <trkpt lat="43.75928" lon="4.31097">
        <ele>22</ele>
        <time>2021-07-25T05:00:27Z</time>
      </trkpt>
      <trkpt lat="43.75908" lon="4.31089">
        <ele>22</ele>
        <time>2021-07-25T05:00:31Z</time>
      </trkpt>
      <trkpt lat="43.75894" lon="4.31089">
        <ele>22</ele>
        <time>2021-07-25T05:00:33Z</time>
      </trkpt>
      <trkpt lat="43.75876" lon="4.31094">
        <ele>22</ele>
        <time>2021-07-25T05:00:36Z</time>
      </trkpt>
      <trkpt lat="43.75868" lon="4.31096">
        <ele>22</ele>
        <time>2021-07-25T05:00:38Z</time>
      </trkpt>
      <trkpt lat="43.7586" lon="4.31098">
        <ele>22</ele>
        <time>2021-07-25T05:00:39Z</time>
      </trkpt>
      <trkpt lat="43.75853" lon="4.31095">
        <ele>22</ele>
        <time>2021-07-25T05:00:41Z</time>
      </trkpt>
      <trkpt lat="43.75846" lon="4.31094">
        <ele>22</ele>
        <time>2021-07-25T05:00:42Z</time>
      </trkpt>
      <trkpt lat="43.7584" lon="4.31096">
        <ele>22</ele>
        <time>2021-07-25T05:00:43Z</time>
      </trkpt>
      <trkpt lat="43.75834" lon="4.311">
        <ele>22</ele>
        <time>2021-07-25T05:00:44Z</time>
      </trkpt>
      <trkpt lat="43.75828" lon="4.31107">
        <ele>22</ele>
        <time>2021-07-25T05:00:46Z</time>
      </trkpt>
      <trkpt lat="43.75825" lon="4.31115">
        <ele>22</ele>
        <time>2021-07-25T05:00:47Z</time>
      </trkpt>
      <trkpt lat="43.75823" lon="4.31124">
        <ele>22</ele>
        <time>2021-07-25T05:00:48Z</time>
      </trkpt>
      <trkpt lat="43.75823" lon="4.31133">
        <ele>22</ele>
        <time>2021-07-25T05:00:49Z</time>
      </trkpt>
      <trkpt lat="43.75825" lon="4.31145">
        <ele>22</ele>
        <time>2021-07-25T05:00:51Z</time>
      </trkpt>
      <trkpt lat="43.7583" lon="4.31155">
        <ele>22</ele>
        <time>2021-07-25T05:00:52Z</time>
      </trkpt>
      <trkpt lat="43.75836" lon="4.31161">
        <ele>22</ele>
        <time>2021-07-25T05:00:54Z</time>
      </trkpt>
      <trkpt lat="43.75844" lon="4.31164">
        <ele>22</ele>
        <time>2021-07-25T05:00:55Z</time>
      </trkpt>
      <trkpt lat="43.75851" lon="4.31165">
        <ele>22</ele>
        <time>2021-07-25T05:00:56Z</time>
      </trkpt>
      <trkpt lat="43.75859" lon="4.31162">
        <ele>22</ele>
        <time>2021-07-25T05:00:58Z</time>
      </trkpt>
      <trkpt lat="43.75865" lon="4.31156">
        <ele>22</ele>
        <time>2021-07-25T05:00:59Z</time>
      </trkpt>
      <trkpt lat="43.75874" lon="4.31157">
        <ele>22</ele>
        <time>2021-07-25T05:01:01Z</time>
      </trkpt>
      <trkpt lat="43.75884" lon="4.31164">
        <ele>21</ele>
        <time>2021-07-25T05:01:03Z</time>
      </trkpt>
      <trkpt lat="43.75923" lon="4.31194">
        <ele>21</ele>
        <time>2021-07-25T05:01:11Z</time>
      </trkpt>
      <trkpt lat="43.75946" lon="4.31218">
        <ele>21</ele>
        <time>2021-07-25T05:01:16Z</time>
      </trkpt>
      <trkpt lat="43.75968" lon="4.3124">
        <ele>21</ele>
        <time>2021-07-25T05:01:21Z</time>
      </trkpt>
      <trkpt lat="43.75981" lon="4.31256">
        <ele>20</ele>
        <time>2021-07-25T05:01:24Z</time>
      </trkpt>
      <trkpt lat="43.75992" lon="4.31271">
        <ele>20</ele>
        <time>2021-07-25T05:01:26Z</time>
      </trkpt>
      <trkpt lat="43.76" lon="4.31284">
        <ele>20</ele>
        <time>2021-07-25T05:01:29Z</time>
      </trkpt>
      <trkpt lat="43.76032" lon="4.31336">
        <ele>19</ele>
        <time>2021-07-25T05:01:37Z</time>
      </trkpt>
      <trkpt lat="43.76102" lon="4.31494">
        <ele>20</ele>
        <time>2021-07-25T05:02:01Z</time>
      </trkpt>
      <trkpt lat="43.76107" lon="4.31504">
        <ele>20</ele>
        <time>2021-07-25T05:02:03Z</time>
      </trkpt>
      <trkpt lat="43.7612" lon="4.31526">
        <ele>21</ele>
        <time>2021-07-25T05:02:06Z</time>
      </trkpt>
      <trkpt lat="43.76132" lon="4.31548">
        <ele>21</ele>
        <time>2021-07-25T05:02:10Z</time>
      </trkpt>
      <trkpt lat="43.76172" lon="4.31596">
        <ele>21</ele>
        <time>2021-07-25T05:02:19Z</time>
      </trkpt>
      <trkpt lat="43.76361" lon="4.31776">
        <ele>22</ele>
        <time>2021-07-25T05:03:00Z</time>
      </trkpt>
      <trkpt lat="43.76516" lon="4.31953">
        <ele>22</ele>
        <time>2021-07-25T05:03:36Z</time>
      </trkpt>
      <trkpt lat="43.76693" lon="4.32241">
        <ele>23</ele>
        <time>2021-07-25T05:04:25Z</time>
      </trkpt>
      <trkpt lat="43.76699" lon="4.32248">
        <ele>23</ele>
        <time>2021-07-25T05:04:26Z</time>
      </trkpt>
      <trkpt lat="43.76896" lon="4.32517">
        <ele>22</ele>
        <time>2021-07-25T05:05:15Z</time>
      </trkpt>
      <trkpt lat="43.76931" lon="4.32583">
        <ele>22</ele>
        <time>2021-07-25T05:05:26Z</time>
      </trkpt>
      <trkpt lat="43.76931" lon="4.32592">
        <ele>22</ele>
        <time>2021-07-25T05:05:27Z</time>
      </trkpt>
      <trkpt lat="43.7693" lon="4.32603">
        <ele>22</ele>
        <time>2021-07-25T05:05:28Z</time>
      </trkpt>
      <trkpt lat="43.76931" lon="4.32614">
        <ele>22</ele>
        <time>2021-07-25T05:05:30Z</time>
      </trkpt>
      <trkpt lat="43.76934" lon="4.32624">
        <ele>22</ele>
        <time>2021-07-25T05:05:31Z</time>
      </trkpt>
      <trkpt lat="43.76939" lon="4.32632">
        <ele>22</ele>
        <time>2021-07-25T05:05:32Z</time>
      </trkpt>
      <trkpt lat="43.76945" lon="4.32638">
        <ele>22</ele>
        <time>2021-07-25T05:05:34Z</time>
      </trkpt>
      <trkpt lat="43.76952" lon="4.32641">
        <ele>22</ele>
        <time>2021-07-25T05:05:35Z</time>
      </trkpt>
      <trkpt lat="43.76957" lon="4.32641">
        <ele>22</ele>
        <time>2021-07-25T05:05:36Z</time>
      </trkpt>
      <trkpt lat="43.76962" lon="4.3264">
        <ele>21</ele>
        <time>2021-07-25T05:05:37Z</time>
      </trkpt>
      <trkpt lat="43.76982" lon="4.32655">
        <ele>21</ele>
        <time>2021-07-25T05:05:41Z</time>
      </trkpt>
      <trkpt lat="43.7701" lon="4.32699">
        <ele>21</ele>
        <time>2021-07-25T05:05:48Z</time>
      </trkpt>
      <trkpt lat="43.77031" lon="4.32744">
        <ele>21</ele>
        <time>2021-07-25T05:05:55Z</time>
      </trkpt>
      <trkpt lat="43.77097" lon="4.32857">
        <ele>22</ele>
        <time>2021-07-25T05:06:14Z</time>
      </trkpt>
      <trkpt lat="43.77131" lon="4.3291">
        <ele>23</ele>
        <time>2021-07-25T05:06:23Z</time>
      </trkpt>
      <trkpt lat="43.77153" lon="4.3295">
        <ele>23</ele>
        <time>2021-07-25T05:06:30Z</time>
      </trkpt>
      <trkpt lat="43.77249" lon="4.33156">
        <ele>23</ele>
        <time>2021-07-25T05:07:01Z</time>
      </trkpt>
      <trkpt lat="43.77293" lon="4.33236">
        <ele>22</ele>
        <time>2021-07-25T05:07:14Z</time>
      </trkpt>
      <trkpt lat="43.77524" lon="4.33574">
        <ele>24</ele>
        <time>2021-07-25T05:08:14Z</time>
      </trkpt>
      <trkpt lat="43.77532" lon="4.33585">
        <ele>24</ele>
        <time>2021-07-25T05:08:16Z</time>
      </trkpt>
      <trkpt lat="43.77533" lon="4.33587">
        <ele>24</ele>
        <time>2021-07-25T05:08:16Z</time>
      </trkpt>
      <trkpt lat="43.77553" lon="4.33615">
        <ele>24</ele>
        <time>2021-07-25T05:08:21Z</time>
      </trkpt>
      <trkpt lat="43.77576" lon="4.33647">
        <ele>24</ele>
        <time>2021-07-25T05:08:27Z</time>
      </trkpt>
      <trkpt lat="43.77647" lon="4.3376">
        <ele>23</ele>
        <time>2021-07-25T05:08:46Z</time>
      </trkpt>
      <trkpt lat="43.77745" lon="4.33947">
        <ele>24</ele>
        <time>2021-07-25T05:09:16Z</time>
      </trkpt>
      <trkpt lat="43.77791" lon="4.34064">
        <ele>24</ele>
        <time>2021-07-25T05:09:33Z</time>
      </trkpt>
      <trkpt lat="43.77839" lon="4.34276">
        <ele>25</ele>
        <time>2021-07-25T05:10:02Z</time>
      </trkpt>
      <trkpt lat="43.77843" lon="4.34296">
        <ele>26</ele>
        <time>2021-07-25T05:10:04Z</time>
      </trkpt>
      <trkpt lat="43.77858" lon="4.34351">
        <ele>26</ele>
        <time>2021-07-25T05:10:12Z</time>
      </trkpt>
      <trkpt lat="43.77861" lon="4.34364">
        <ele>26</ele>
        <time>2021-07-25T05:10:14Z</time>
      </trkpt>
      <trkpt lat="43.77878" lon="4.34467">
        <ele>26</ele>
        <time>2021-07-25T05:10:27Z</time>
      </trkpt>
      <trkpt lat="43.7791" lon="4.34583">
        <ele>27</ele>
        <time>2021-07-25T05:10:43Z</time>
      </trkpt>
      <trkpt lat="43.77941" lon="4.34679">
        <ele>29</ele>
        <time>2021-07-25T05:10:57Z</time>
      </trkpt>
      <trkpt lat="43.7799" lon="4.34816">
        <ele>28</ele>
        <time>2021-07-25T05:11:16Z</time>
      </trkpt>
      <trkpt lat="43.7803" lon="4.34893">
        <ele>26</ele>
        <time>2021-07-25T05:11:28Z</time>
      </trkpt>
      <trkpt lat="43.78136" lon="4.35098">
        <ele>26</ele>
        <time>2021-07-25T05:12:01Z</time>
      </trkpt>
      <trkpt lat="43.78218" lon="4.35236">
        <ele>25</ele>
        <time>2021-07-25T05:12:24Z</time>
      </trkpt>
      <trkpt lat="43.78336" lon="4.35452">
        <ele>25</ele>
        <time>2021-07-25T05:12:59Z</time>
      </trkpt>
      <trkpt lat="43.78342" lon="4.35477">
        <ele>25</ele>
        <time>2021-07-25T05:13:02Z</time>
      </trkpt>
      <trkpt lat="43.78342" lon="4.35489">
        <ele>26</ele>
        <time>2021-07-25T05:13:03Z</time>
      </trkpt>
      <trkpt lat="43.78343" lon="4.355">
        <ele>26</ele>
        <time>2021-07-25T05:13:05Z</time>
      </trkpt>
      <trkpt lat="43.78348" lon="4.3551">
        <ele>26</ele>
        <time>2021-07-25T05:13:06Z</time>
      </trkpt>
      <trkpt lat="43.78354" lon="4.35517">
        <ele>26</ele>
        <time>2021-07-25T05:13:08Z</time>
      </trkpt>
      <trkpt lat="43.78362" lon="4.35522">
        <ele>26</ele>
        <time>2021-07-25T05:13:09Z</time>
      </trkpt>
      <trkpt lat="43.7837" lon="4.35523">
        <ele>26</ele>
        <time>2021-07-25T05:13:11Z</time>
      </trkpt>
      <trkpt lat="43.78378" lon="4.3552">
        <ele>26</ele>
        <time>2021-07-25T05:13:12Z</time>
      </trkpt>
      <trkpt lat="43.78391" lon="4.35537">
        <ele>26</ele>
        <time>2021-07-25T05:13:15Z</time>
      </trkpt>
      <trkpt lat="43.7843" lon="4.35598">
        <ele>26</ele>
        <time>2021-07-25T05:13:26Z</time>
      </trkpt>
      <trkpt lat="43.78533" lon="4.35789">
        <ele>25</ele>
        <time>2021-07-25T05:13:57Z</time>
      </trkpt>
      <trkpt lat="43.78688" lon="4.36025">
        <ele>25</ele>
        <time>2021-07-25T05:14:38Z</time>
      </trkpt>
      <trkpt lat="43.78867" lon="4.36285">
        <ele>26</ele>
        <time>2021-07-25T05:15:24Z</time>
      </trkpt>
      <trkpt lat="43.78931" lon="4.36397">
        <ele>27</ele>
        <time>2021-07-25T05:15:42Z</time>
      </trkpt>
      <trkpt lat="43.7909" lon="4.36759">
        <ele>26</ele>
        <time>2021-07-25T05:16:36Z</time>
      </trkpt>
      <trkpt lat="43.79143" lon="4.36987">
        <ele>26</ele>
        <time>2021-07-25T05:17:07Z</time>
      </trkpt>
      <trkpt lat="43.79171" lon="4.37185">
        <ele>29</ele>
        <time>2021-07-25T05:17:33Z</time>
      </trkpt>
      <trkpt lat="43.79171" lon="4.37316">
        <ele>30</ele>
        <time>2021-07-25T05:17:50Z</time>
      </trkpt>
      <trkpt lat="43.79172" lon="4.3734">
        <ele>30</ele>
        <time>2021-07-25T05:17:53Z</time>
      </trkpt>
      <trkpt lat="43.79177" lon="4.37382">
        <ele>30</ele>
        <time>2021-07-25T05:17:59Z</time>
      </trkpt>
      <trkpt lat="43.79202" lon="4.37558">
        <ele>28</ele>
        <time>2021-07-25T05:18:22Z</time>
      </trkpt>
      <trkpt lat="43.79204" lon="4.37658">
        <ele>29</ele>
        <time>2021-07-25T05:18:34Z</time>
      </trkpt>
      <trkpt lat="43.79187" lon="4.37853">
        <ele>31</ele>
        <time>2021-07-25T05:19:00Z</time>
      </trkpt>
      <trkpt lat="43.79183" lon="4.37929">
        <ele>33</ele>
        <time>2021-07-25T05:19:09Z</time>
      </trkpt>
      <trkpt lat="43.79186" lon="4.3801">
        <ele>33</ele>
        <time>2021-07-25T05:19:20Z</time>
      </trkpt>
      <trkpt lat="43.79202" lon="4.38099">
        <ele>32</ele>
        <time>2021-07-25T05:19:32Z</time>
      </trkpt>
      <trkpt lat="43.79219" lon="4.38154">
        <ele>31</ele>
        <time>2021-07-25T05:19:39Z</time>
      </trkpt>
      <trkpt lat="43.79232" lon="4.38189">
        <ele>31</ele>
        <time>2021-07-25T05:19:44Z</time>
      </trkpt>
      <trkpt lat="43.79292" lon="4.38332">
        <ele>33</ele>
        <time>2021-07-25T05:20:06Z</time>
      </trkpt>
      <trkpt lat="43.79338" lon="4.38453">
        <ele>32</ele>
        <time>2021-07-25T05:20:23Z</time>
      </trkpt>
      <trkpt lat="43.79341" lon="4.38466">
        <ele>33</ele>
        <time>2021-07-25T05:20:25Z</time>
      </trkpt>
      <trkpt lat="43.79338" lon="4.38477">
        <ele>33</ele>
        <time>2021-07-25T05:20:26Z</time>
      </trkpt>
      <trkpt lat="43.79339" lon="4.38487">
        <ele>33</ele>
        <time>2021-07-25T05:20:28Z</time>
      </trkpt>
      <trkpt lat="43.79341" lon="4.38496">
        <ele>33</ele>
        <time>2021-07-25T05:20:29Z</time>
      </trkpt>
      <trkpt lat="43.79345" lon="4.38506">
        <ele>33</ele>
        <time>2021-07-25T05:20:30Z</time>
      </trkpt>
      <trkpt lat="43.79352" lon="4.38513">
        <ele>33</ele>
        <time>2021-07-25T05:20:32Z</time>
      </trkpt>
      <trkpt lat="43.7936" lon="4.38517">
        <ele>33</ele>
        <time>2021-07-25T05:20:33Z</time>
      </trkpt>
      <trkpt lat="43.79365" lon="4.38528">
        <ele>33</ele>
        <time>2021-07-25T05:20:35Z</time>
      </trkpt>
      <trkpt lat="43.79405" lon="4.38747">
        <ele>37</ele>
        <time>2021-07-25T05:21:04Z</time>
      </trkpt>
      <trkpt lat="43.7942" lon="4.38798">
        <ele>38</ele>
        <time>2021-07-25T05:21:11Z</time>
      </trkpt>
      <trkpt lat="43.79438" lon="4.38847">
        <ele>38</ele>
        <time>2021-07-25T05:21:18Z</time>
      </trkpt>
      <trkpt lat="43.79464" lon="4.38895">
        <ele>37</ele>
        <time>2021-07-25T05:21:26Z</time>
      </trkpt>
      <trkpt lat="43.79529" lon="4.38987">
        <ele>35</ele>
        <time>2021-07-25T05:21:43Z</time>
      </trkpt>
      <trkpt lat="43.79561" lon="4.3904">
        <ele>35</ele>
        <time>2021-07-25T05:21:51Z</time>
      </trkpt>
      <trkpt lat="43.79578" lon="4.39069">
        <ele>35</ele>
        <time>2021-07-25T05:21:56Z</time>
      </trkpt>
      <trkpt lat="43.79603" lon="4.39115">
        <ele>34</ele>
        <time>2021-07-25T05:22:04Z</time>
      </trkpt>
      <trkpt lat="43.79621" lon="4.39148">
        <ele>34</ele>
        <time>2021-07-25T05:22:09Z</time>
      </trkpt>
      <trkpt lat="43.79655" lon="4.39219">
        <ele>34</ele>
        <time>2021-07-25T05:22:20Z</time>
      </trkpt>
      <trkpt lat="43.79676" lon="4.39276">
        <ele>34</ele>
        <time>2021-07-25T05:22:28Z</time>
      </trkpt>
      <trkpt lat="43.79784" lon="4.39613">
        <ele>32</ele>
        <time>2021-07-25T05:23:15Z</time>
      </trkpt>
      <trkpt lat="43.79888" lon="4.39955">
        <ele>34</ele>
        <time>2021-07-25T05:24:03Z</time>
      </trkpt>
      <trkpt lat="43.80005" lon="4.40187">
        <ele>36</ele>
        <time>2021-07-25T05:24:39Z</time>
      </trkpt>
      <trkpt lat="43.80049" lon="4.40239">
        <ele>37</ele>
        <time>2021-07-25T05:24:50Z</time>
      </trkpt>
      <trkpt lat="43.80137" lon="4.40312">
        <ele>36</ele>
        <time>2021-07-25T05:25:08Z</time>
      </trkpt>
      <trkpt lat="43.80259" lon="4.40381">
        <ele>35</ele>
        <time>2021-07-25T05:25:31Z</time>
      </trkpt>
      <trkpt lat="43.803" lon="4.40417">
        <ele>34</ele>
        <time>2021-07-25T05:25:40Z</time>
      </trkpt>
      <trkpt lat="43.80326" lon="4.40446">
        <ele>34</ele>
        <time>2021-07-25T05:25:46Z</time>
      </trkpt>
      <trkpt lat="43.80353" lon="4.40485">
        <ele>34</ele>
        <time>2021-07-25T05:25:53Z</time>
      </trkpt>
      <trkpt lat="43.80365" lon="4.40514">
        <ele>34</ele>
        <time>2021-07-25T05:25:57Z</time>
      </trkpt>
      <trkpt lat="43.80361" lon="4.4052">
        <ele>34</ele>
        <time>2021-07-25T05:25:58Z</time>
      </trkpt>
      <trkpt lat="43.80356" lon="4.40538">
        <ele>34</ele>
        <time>2021-07-25T05:26:01Z</time>
      </trkpt>
      <trkpt lat="43.80357" lon="4.40555">
        <ele>33</ele>
        <time>2021-07-25T05:26:03Z</time>
      </trkpt>
      <trkpt lat="43.8033" lon="4.40581">
        <ele>33</ele>
        <time>2021-07-25T05:26:09Z</time>
      </trkpt>
      <trkpt lat="43.80289" lon="4.40615">
        <ele>34</ele>
        <time>2021-07-25T05:26:17Z</time>
      </trkpt>
      <trkpt lat="43.8022" lon="4.407">
        <ele>36</ele>
        <time>2021-07-25T05:26:34Z</time>
      </trkpt>
      <trkpt lat="43.80107" lon="4.40873">
        <ele>40</ele>
        <time>2021-07-25T05:27:04Z</time>
      </trkpt>
      <trkpt lat="43.80087" lon="4.40895">
        <ele>41</ele>
        <time>2021-07-25T05:27:08Z</time>
      </trkpt>
      <trkpt lat="43.80077" lon="4.40915">
        <ele>41</ele>
        <time>2021-07-25T05:27:11Z</time>
      </trkpt>
      <trkpt lat="43.80019" lon="4.41">
        <ele>41</ele>
        <time>2021-07-25T05:27:26Z</time>
      </trkpt>
      <trkpt lat="43.8002" lon="4.41009">
        <ele>41</ele>
        <time>2021-07-25T05:27:28Z</time>
      </trkpt>
      <trkpt lat="43.80033" lon="4.41021">
        <ele>41</ele>
        <time>2021-07-25T05:27:30Z</time>
      </trkpt>
      <trkpt lat="43.80042" lon="4.41039">
        <ele>41</ele>
        <time>2021-07-25T05:27:33Z</time>
      </trkpt>
      <trkpt lat="43.80044" lon="4.41057">
        <ele>41</ele>
        <time>2021-07-25T05:27:35Z</time>
      </trkpt>
      <trkpt lat="43.80051" lon="4.41087">
        <ele>41</ele>
        <time>2021-07-25T05:27:40Z</time>
      </trkpt>
      <trkpt lat="43.80062" lon="4.41148">
        <ele>42</ele>
        <time>2021-07-25T05:27:48Z</time>
      </trkpt>
      <trkpt lat="43.80093" lon="4.41311">
        <ele>42</ele>
        <time>2021-07-25T05:28:09Z</time>
      </trkpt>
      <trkpt lat="43.80099" lon="4.41379">
        <ele>42</ele>
        <time>2021-07-25T05:28:18Z</time>
      </trkpt>
      <trkpt lat="43.80096" lon="4.41425">
        <ele>43</ele>
        <time>2021-07-25T05:28:24Z</time>
      </trkpt>
      <trkpt lat="43.80089" lon="4.41482">
        <ele>45</ele>
        <time>2021-07-25T05:28:31Z</time>
      </trkpt>
      <trkpt lat="43.80077" lon="4.41538">
        <ele>47</ele>
        <time>2021-07-25T05:28:39Z</time>
      </trkpt>
      <trkpt lat="43.80046" lon="4.41632">
        <ele>50</ele>
        <time>2021-07-25T05:28:52Z</time>
      </trkpt>
      <trkpt lat="43.8004" lon="4.41655">
        <ele>50</ele>
        <time>2021-07-25T05:28:55Z</time>
      </trkpt>
      <trkpt lat="43.80039" lon="4.4166">
        <ele>50</ele>
        <time>2021-07-25T05:28:56Z</time>
      </trkpt>
      <trkpt lat="43.80035" lon="4.41676">
        <ele>51</ele>
        <time>2021-07-25T05:28:58Z</time>
      </trkpt>
      <trkpt lat="43.80031" lon="4.41703">
        <ele>50</ele>
        <time>2021-07-25T05:29:02Z</time>
      </trkpt>
      <trkpt lat="43.80027" lon="4.41747">
        <ele>50</ele>
        <time>2021-07-25T05:29:07Z</time>
      </trkpt>
      <trkpt lat="43.8003" lon="4.41798">
        <ele>52</ele>
        <time>2021-07-25T05:29:14Z</time>
      </trkpt>
      <trkpt lat="43.8003" lon="4.41804">
        <ele>52</ele>
        <time>2021-07-25T05:29:15Z</time>
      </trkpt>
      <trkpt lat="43.80039" lon="4.41864">
        <ele>53</ele>
        <time>2021-07-25T05:29:23Z</time>
      </trkpt>
      <trkpt lat="43.80043" lon="4.41894">
        <ele>53</ele>
        <time>2021-07-25T05:29:27Z</time>
      </trkpt>
      <trkpt lat="43.80046" lon="4.4191">
        <ele>53</ele>
        <time>2021-07-25T05:29:29Z</time>
      </trkpt>
      <trkpt lat="43.80056" lon="4.4196">
        <ele>53</ele>
        <time>2021-07-25T05:29:35Z</time>
      </trkpt>
      <trkpt lat="43.80065" lon="4.42014">
        <ele>54</ele>
        <time>2021-07-25T05:29:42Z</time>
      </trkpt>
      <trkpt lat="43.8007" lon="4.4205">
        <ele>55</ele>
        <time>2021-07-25T05:29:47Z</time>
      </trkpt>
      <trkpt lat="43.80072" lon="4.42059">
        <ele>55</ele>
        <time>2021-07-25T05:29:48Z</time>
      </trkpt>
      <trkpt lat="43.80075" lon="4.42084">
        <ele>55</ele>
        <time>2021-07-25T05:29:52Z</time>
      </trkpt>
      <trkpt lat="43.8008" lon="4.42122">
        <ele>56</ele>
        <time>2021-07-25T05:29:57Z</time>
      </trkpt>
      <trkpt lat="43.80081" lon="4.42126">
        <ele>56</ele>
        <time>2021-07-25T05:29:57Z</time>
      </trkpt>
      <trkpt lat="43.80084" lon="4.4215">
        <ele>56</ele>
        <time>2021-07-25T05:30:00Z</time>
      </trkpt>
      <trkpt lat="43.80091" lon="4.42192">
        <ele>56</ele>
        <time>2021-07-25T05:30:06Z</time>
      </trkpt>
      <trkpt lat="43.80092" lon="4.42206">
        <ele>57</ele>
        <time>2021-07-25T05:30:08Z</time>
      </trkpt>
      <trkpt lat="43.80105" lon="4.42196">
        <ele>56</ele>
        <time>2021-07-25T05:30:10Z</time>
      </trkpt>
      <trkpt lat="43.80106" lon="4.42199">
        <ele>56</ele>
        <time>2021-07-25T05:30:11Z</time>
      </trkpt>
      <trkpt lat="43.8014" lon="4.42323">
        <ele>57</ele>
        <time>2021-07-25T05:30:28Z</time>
      </trkpt>
      <trkpt lat="43.80145" lon="4.42327">
        <ele>57</ele>
        <time>2021-07-25T05:30:29Z</time>
      </trkpt>
      <trkpt lat="43.80148" lon="4.42329">
        <ele>57</ele>
        <time>2021-07-25T05:30:29Z</time>
      </trkpt>
      <trkpt lat="43.80146" lon="4.42337">
        <ele>57</ele>
        <time>2021-07-25T05:30:30Z</time>
      </trkpt>
      <trkpt lat="43.80147" lon="4.42344">
        <ele>57</ele>
        <time>2021-07-25T05:30:31Z</time>
      </trkpt>
      <trkpt lat="43.8015" lon="4.42354">
        <ele>57</ele>
        <time>2021-07-25T05:30:33Z</time>
      </trkpt>
      <trkpt lat="43.80168" lon="4.42413">
        <ele>58</ele>
        <time>2021-07-25T05:30:41Z</time>
      </trkpt>
      <trkpt lat="43.80214" lon="4.42557">
        <ele>59</ele>
        <time>2021-07-25T05:31:01Z</time>
      </trkpt>
      <trkpt lat="43.80215" lon="4.42562">
        <ele>59</ele>
        <time>2021-07-25T05:31:02Z</time>
      </trkpt>
      <trkpt lat="43.80216" lon="4.42565">
        <ele>59</ele>
        <time>2021-07-25T05:31:02Z</time>
      </trkpt>
      <trkpt lat="43.80222" lon="4.42585">
        <ele>59</ele>
        <time>2021-07-25T05:31:05Z</time>
      </trkpt>
      <trkpt lat="43.80223" lon="4.42638">
        <ele>60</ele>
        <time>2021-07-25T05:31:12Z</time>
      </trkpt>
      <trkpt lat="43.80223" lon="4.42641">
        <ele>60</ele>
        <time>2021-07-25T05:31:12Z</time>
      </trkpt>
      <trkpt lat="43.80222" lon="4.42662">
        <ele>60</ele>
        <time>2021-07-25T05:31:15Z</time>
      </trkpt>
      <trkpt lat="43.80228" lon="4.42727">
        <ele>60</ele>
        <time>2021-07-25T05:31:23Z</time>
      </trkpt>
      <trkpt lat="43.80238" lon="4.42776">
        <ele>60</ele>
        <time>2021-07-25T05:31:30Z</time>
      </trkpt>
      <trkpt lat="43.80247" lon="4.42807">
        <ele>60</ele>
        <time>2021-07-25T05:31:34Z</time>
      </trkpt>
      <trkpt lat="43.80256" lon="4.42826">
        <ele>61</ele>
        <time>2021-07-25T05:31:37Z</time>
      </trkpt>
      <trkpt lat="43.80271" lon="4.4286">
        <ele>61</ele>
        <time>2021-07-25T05:31:42Z</time>
      </trkpt>
      <trkpt lat="43.80295" lon="4.4291">
        <ele>61</ele>
        <time>2021-07-25T05:31:50Z</time>
      </trkpt>
      <trkpt lat="43.80301" lon="4.4293">
        <ele>61</ele>
        <time>2021-07-25T05:31:53Z</time>
      </trkpt>
      <trkpt lat="43.80305" lon="4.42938">
        <ele>61</ele>
        <time>2021-07-25T05:31:54Z</time>
      </trkpt>
      <trkpt lat="43.80311" lon="4.42949">
        <ele>60</ele>
        <time>2021-07-25T05:31:56Z</time>
      </trkpt>
      <trkpt lat="43.80315" lon="4.42952">
        <ele>60</ele>
        <time>2021-07-25T05:31:57Z</time>
      </trkpt>
      <trkpt lat="43.80324" lon="4.42962">
        <ele>60</ele>
        <time>2021-07-25T05:31:59Z</time>
      </trkpt>
      <trkpt lat="43.80353" lon="4.42996">
        <ele>59</ele>
        <time>2021-07-25T05:32:05Z</time>
      </trkpt>
      <trkpt lat="43.80382" lon="4.43046">
        <ele>58</ele>
        <time>2021-07-25T05:32:14Z</time>
      </trkpt>
      <trkpt lat="43.80441" lon="4.43158">
        <ele>57</ele>
        <time>2021-07-25T05:32:31Z</time>
      </trkpt>
      <trkpt lat="43.80453" lon="4.43184">
        <ele>57</ele>
        <time>2021-07-25T05:32:35Z</time>
      </trkpt>
      <trkpt lat="43.80457" lon="4.43192">
        <ele>57</ele>
        <time>2021-07-25T05:32:37Z</time>
      </trkpt>
      <trkpt lat="43.80452" lon="4.43198">
        <ele>57</ele>
        <time>2021-07-25T05:32:38Z</time>
      </trkpt>
      <trkpt lat="43.80451" lon="4.43206">
        <ele>57</ele>
        <time>2021-07-25T05:32:39Z</time>
      </trkpt>
      <trkpt lat="43.80454" lon="4.43217">
        <ele>57</ele>
        <time>2021-07-25T05:32:40Z</time>
      </trkpt>
      <trkpt lat="43.80461" lon="4.43222">
        <ele>56</ele>
        <time>2021-07-25T05:32:42Z</time>
      </trkpt>
      <trkpt lat="43.80469" lon="4.4322">
        <ele>56</ele>
        <time>2021-07-25T05:32:43Z</time>
      </trkpt>
      <trkpt lat="43.80471" lon="4.43227">
        <ele>56</ele>
        <time>2021-07-25T05:32:44Z</time>
      </trkpt>
      <trkpt lat="43.80484" lon="4.43265">
        <ele>56</ele>
        <time>2021-07-25T05:32:50Z</time>
      </trkpt>
      <trkpt lat="43.80506" lon="4.4333">
        <ele>56</ele>
        <time>2021-07-25T05:32:59Z</time>
      </trkpt>
      <trkpt lat="43.80517" lon="4.43362">
        <ele>56</ele>
        <time>2021-07-25T05:33:03Z</time>
      </trkpt>
      <trkpt lat="43.80531" lon="4.43417">
        <ele>57</ele>
        <time>2021-07-25T05:33:11Z</time>
      </trkpt>
      <trkpt lat="43.80535" lon="4.43433">
        <ele>57</ele>
        <time>2021-07-25T05:33:13Z</time>
      </trkpt>
      <trkpt lat="43.80549" lon="4.43478">
        <ele>57</ele>
        <time>2021-07-25T05:33:19Z</time>
      </trkpt>
      <trkpt lat="43.80545" lon="4.4348">
        <ele>57</ele>
        <time>2021-07-25T05:33:20Z</time>
      </trkpt>
      <trkpt lat="43.80541" lon="4.43485">
        <ele>57</ele>
        <time>2021-07-25T05:33:21Z</time>
      </trkpt>
      <trkpt lat="43.80538" lon="4.43497">
        <ele>57</ele>
        <time>2021-07-25T05:33:23Z</time>
      </trkpt>
      <trkpt lat="43.8054" lon="4.43504">
        <ele>57</ele>
        <time>2021-07-25T05:33:24Z</time>
      </trkpt>
      <trkpt lat="43.80542" lon="4.43509">
        <ele>57</ele>
        <time>2021-07-25T05:33:24Z</time>
      </trkpt>
      <trkpt lat="43.80549" lon="4.43514">
        <ele>57</ele>
        <time>2021-07-25T05:33:26Z</time>
      </trkpt>
      <trkpt lat="43.80554" lon="4.43514">
        <ele>57</ele>
        <time>2021-07-25T05:33:27Z</time>
      </trkpt>
      <trkpt lat="43.80558" lon="4.43513">
        <ele>57</ele>
        <time>2021-07-25T05:33:27Z</time>
      </trkpt>
      <trkpt lat="43.80561" lon="4.43524">
        <ele>57</ele>
        <time>2021-07-25T05:33:29Z</time>
      </trkpt>
      <trkpt lat="43.80639" lon="4.43733">
        <ele>57</ele>
        <time>2021-07-25T05:33:59Z</time>
      </trkpt>
      <trkpt lat="43.80648" lon="4.43751">
        <ele>57</ele>
        <time>2021-07-25T05:34:02Z</time>
      </trkpt>
      <trkpt lat="43.80665" lon="4.43779">
        <ele>58</ele>
        <time>2021-07-25T05:34:07Z</time>
      </trkpt>
      <trkpt lat="43.80741" lon="4.43877">
        <ele>58</ele>
        <time>2021-07-25T05:34:25Z</time>
      </trkpt>
      <trkpt lat="43.80817" lon="4.43984">
        <ele>58</ele>
        <time>2021-07-25T05:34:44Z</time>
      </trkpt>
      <trkpt lat="43.80836" lon="4.44019">
        <ele>58</ele>
        <time>2021-07-25T05:34:50Z</time>
      </trkpt>
      <trkpt lat="43.8085" lon="4.44052">
        <ele>58</ele>
        <time>2021-07-25T05:34:55Z</time>
      </trkpt>
      <trkpt lat="43.80865" lon="4.44092">
        <ele>58</ele>
        <time>2021-07-25T05:35:01Z</time>
      </trkpt>
      <trkpt lat="43.80923" lon="4.44256">
        <ele>57</ele>
        <time>2021-07-25T05:35:24Z</time>
      </trkpt>
      <trkpt lat="43.80938" lon="4.44307">
        <ele>56</ele>
        <time>2021-07-25T05:35:31Z</time>
      </trkpt>
      <trkpt lat="43.80972" lon="4.44437">
        <ele>55</ele>
        <time>2021-07-25T05:35:49Z</time>
      </trkpt>
      <trkpt lat="43.80986" lon="4.44517">
        <ele>54</ele>
        <time>2021-07-25T05:35:59Z</time>
      </trkpt>
      <trkpt lat="43.81004" lon="4.44595">
        <ele>54</ele>
        <time>2021-07-25T05:36:10Z</time>
      </trkpt>
      <trkpt lat="43.81024" lon="4.44661">
        <ele>55</ele>
        <time>2021-07-25T05:36:19Z</time>
      </trkpt>
      <trkpt lat="43.81037" lon="4.44712">
        <ele>55</ele>
        <time>2021-07-25T05:36:26Z</time>
      </trkpt>
      <trkpt lat="43.8104" lon="4.44728">
        <ele>55</ele>
        <time>2021-07-25T05:36:28Z</time>
      </trkpt>
      <trkpt lat="43.81041" lon="4.4474">
        <ele>55</ele>
        <time>2021-07-25T05:36:30Z</time>
      </trkpt>
      <trkpt lat="43.81035" lon="4.44746">
        <ele>55</ele>
        <time>2021-07-25T05:36:31Z</time>
      </trkpt>
      <trkpt lat="43.81031" lon="4.44755">
        <ele>55</ele>
        <time>2021-07-25T05:36:32Z</time>
      </trkpt>
      <trkpt lat="43.8103" lon="4.44767">
        <ele>55</ele>
        <time>2021-07-25T05:36:34Z</time>
      </trkpt>
      <trkpt lat="43.81032" lon="4.4478">
        <ele>54</ele>
        <time>2021-07-25T05:36:36Z</time>
      </trkpt>
      <trkpt lat="43.81036" lon="4.44789">
        <ele>54</ele>
        <time>2021-07-25T05:36:37Z</time>
      </trkpt>
      <trkpt lat="43.81043" lon="4.44795">
        <ele>54</ele>
        <time>2021-07-25T05:36:39Z</time>
      </trkpt>
      <trkpt lat="43.81049" lon="4.44797">
        <ele>54</ele>
        <time>2021-07-25T05:36:40Z</time>
      </trkpt>
      <trkpt lat="43.81055" lon="4.44797">
        <ele>54</ele>
        <time>2021-07-25T05:36:41Z</time>
      </trkpt>
      <trkpt lat="43.81063" lon="4.44806">
        <ele>54</ele>
        <time>2021-07-25T05:36:43Z</time>
      </trkpt>
      <trkpt lat="43.81068" lon="4.44814">
        <ele>54</ele>
        <time>2021-07-25T05:36:44Z</time>
      </trkpt>
      <trkpt lat="43.81091" lon="4.44856">
        <ele>54</ele>
        <time>2021-07-25T05:36:51Z</time>
      </trkpt>
      <trkpt lat="43.81107" lon="4.44888">
        <ele>54</ele>
        <time>2021-07-25T05:36:56Z</time>
      </trkpt>
      <trkpt lat="43.81144" lon="4.44951">
        <ele>53</ele>
        <time>2021-07-25T05:37:06Z</time>
      </trkpt>
      <trkpt lat="43.81162" lon="4.44987">
        <ele>52</ele>
        <time>2021-07-25T05:37:12Z</time>
      </trkpt>
      <trkpt lat="43.8118" lon="4.45034">
        <ele>53</ele>
        <time>2021-07-25T05:37:19Z</time>
      </trkpt>
      <trkpt lat="43.81195" lon="4.45083">
        <ele>53</ele>
        <time>2021-07-25T05:37:25Z</time>
      </trkpt>
      <trkpt lat="43.81204" lon="4.4514">
        <ele>53</ele>
        <time>2021-07-25T05:37:33Z</time>
      </trkpt>
      <trkpt lat="43.81212" lon="4.452">
        <ele>52</ele>
        <time>2021-07-25T05:37:41Z</time>
      </trkpt>
      <trkpt lat="43.81215" lon="4.45221">
        <ele>52</ele>
        <time>2021-07-25T05:37:43Z</time>
      </trkpt>
      <trkpt lat="43.81221" lon="4.45252">
        <ele>52</ele>
        <time>2021-07-25T05:37:48Z</time>
      </trkpt>
      <trkpt lat="43.81234" lon="4.45316">
        <ele>53</ele>
        <time>2021-07-25T05:37:56Z</time>
      </trkpt>
      <trkpt lat="43.81251" lon="4.45407">
        <ele>54</ele>
        <time>2021-07-25T05:38:08Z</time>
      </trkpt>
      <trkpt lat="43.81264" lon="4.45468">
        <ele>54</ele>
        <time>2021-07-25T05:38:16Z</time>
      </trkpt>
      <trkpt lat="43.81282" lon="4.45607">
        <ele>53</ele>
        <time>2021-07-25T05:38:35Z</time>
      </trkpt>
      <trkpt lat="43.81286" lon="4.45631">
        <ele>54</ele>
        <time>2021-07-25T05:38:38Z</time>
      </trkpt>
      <trkpt lat="43.81359" lon="4.45876">
        <ele>54</ele>
        <time>2021-07-25T05:39:12Z</time>
      </trkpt>
      <trkpt lat="43.81399" lon="4.46019">
        <ele>54</ele>
        <time>2021-07-25T05:39:31Z</time>
      </trkpt>
      <trkpt lat="43.81401" lon="4.46028">
        <ele>54</ele>
        <time>2021-07-25T05:39:33Z</time>
      </trkpt>
      <trkpt lat="43.81412" lon="4.46065">
        <ele>55</ele>
        <time>2021-07-25T05:39:38Z</time>
      </trkpt>
      <trkpt lat="43.81419" lon="4.46114">
        <ele>55</ele>
        <time>2021-07-25T05:39:44Z</time>
      </trkpt>
      <trkpt lat="43.81419" lon="4.46128">
        <ele>56</ele>
        <time>2021-07-25T05:39:46Z</time>
      </trkpt>
      <trkpt lat="43.81419" lon="4.46142">
        <ele>56</ele>
        <time>2021-07-25T05:39:48Z</time>
      </trkpt>
      <trkpt lat="43.8142" lon="4.46155">
        <ele>56</ele>
        <time>2021-07-25T05:39:49Z</time>
      </trkpt>
      <trkpt lat="43.8142" lon="4.4616">
        <ele>56</ele>
        <time>2021-07-25T05:39:50Z</time>
      </trkpt>
      <trkpt lat="43.81421" lon="4.46201">
        <ele>56</ele>
        <time>2021-07-25T05:39:55Z</time>
      </trkpt>
      <trkpt lat="43.81421" lon="4.46214">
        <ele>56</ele>
        <time>2021-07-25T05:39:57Z</time>
      </trkpt>
      <trkpt lat="43.81435" lon="4.46286">
        <ele>56</ele>
        <time>2021-07-25T05:40:07Z</time>
      </trkpt>
      <trkpt lat="43.81442" lon="4.46303">
        <ele>56</ele>
        <time>2021-07-25T05:40:09Z</time>
      </trkpt>
      <trkpt lat="43.81454" lon="4.46331">
        <ele>57</ele>
        <time>2021-07-25T05:40:13Z</time>
      </trkpt>
      <trkpt lat="43.81456" lon="4.46335">
        <ele>57</ele>
        <time>2021-07-25T05:40:14Z</time>
      </trkpt>
      <trkpt lat="43.81464" lon="4.46349">
        <ele>57</ele>
        <time>2021-07-25T05:40:16Z</time>
      </trkpt>
      <trkpt lat="43.81469" lon="4.46358">
        <ele>57</ele>
        <time>2021-07-25T05:40:18Z</time>
      </trkpt>
      <trkpt lat="43.81474" lon="4.46367">
        <ele>57</ele>
        <time>2021-07-25T05:40:19Z</time>
      </trkpt>
      <trkpt lat="43.81478" lon="4.46372">
        <ele>57</ele>
        <time>2021-07-25T05:40:20Z</time>
      </trkpt>
      <trkpt lat="43.81488" lon="4.46384">
        <ele>57</ele>
        <time>2021-07-25T05:40:22Z</time>
      </trkpt>
      <trkpt lat="43.81531" lon="4.46441">
        <ele>57</ele>
        <time>2021-07-25T05:40:33Z</time>
      </trkpt>
      <trkpt lat="43.81557" lon="4.46471">
        <ele>57</ele>
        <time>2021-07-25T05:40:39Z</time>
      </trkpt>
      <trkpt lat="43.81567" lon="4.4649">
        <ele>57</ele>
        <time>2021-07-25T05:40:42Z</time>
      </trkpt>
      <trkpt lat="43.8159" lon="4.46525">
        <ele>57</ele>
        <time>2021-07-25T05:40:48Z</time>
      </trkpt>
      <trkpt lat="43.8162" lon="4.46584">
        <ele>56</ele>
        <time>2021-07-25T05:40:57Z</time>
      </trkpt>
      <trkpt lat="43.81629" lon="4.46599">
        <ele>56</ele>
        <time>2021-07-25T05:41:00Z</time>
      </trkpt>
      <trkpt lat="43.81632" lon="4.46606">
        <ele>56</ele>
        <time>2021-07-25T05:41:01Z</time>
      </trkpt>
      <trkpt lat="43.81634" lon="4.46609">
        <ele>56</ele>
        <time>2021-07-25T05:41:01Z</time>
      </trkpt>
      <trkpt lat="43.81644" lon="4.46639">
        <ele>55</ele>
        <time>2021-07-25T05:41:06Z</time>
      </trkpt>
      <trkpt lat="43.81651" lon="4.4666">
        <ele>55</ele>
        <time>2021-07-25T05:41:09Z</time>
      </trkpt>
      <trkpt lat="43.81657" lon="4.46678">
        <ele>55</ele>
        <time>2021-07-25T05:41:11Z</time>
      </trkpt>
      <trkpt lat="43.81664" lon="4.46698">
        <ele>55</ele>
        <time>2021-07-25T05:41:14Z</time>
      </trkpt>
      <trkpt lat="43.81674" lon="4.46736">
        <ele>55</ele>
        <time>2021-07-25T05:41:19Z</time>
      </trkpt>
      <trkpt lat="43.81688" lon="4.46771">
        <ele>55</ele>
        <time>2021-07-25T05:41:24Z</time>
      </trkpt>
      <trkpt lat="43.81749" lon="4.4692">
        <ele>55</ele>
        <time>2021-07-25T05:41:46Z</time>
      </trkpt>
      <trkpt lat="43.81766" lon="4.46952">
        <ele>55</ele>
        <time>2021-07-25T05:41:52Z</time>
      </trkpt>
      <trkpt lat="43.81773" lon="4.46965">
        <ele>55</ele>
        <time>2021-07-25T05:41:54Z</time>
      </trkpt>
      <trkpt lat="43.81781" lon="4.46977">
        <ele>55</ele>
        <time>2021-07-25T05:41:56Z</time>
      </trkpt>
      <trkpt lat="43.81796" lon="4.46994">
        <ele>56</ele>
        <time>2021-07-25T05:41:59Z</time>
      </trkpt>
      <trkpt lat="43.81835" lon="4.47014">
        <ele>56</ele>
        <time>2021-07-25T05:42:07Z</time>
      </trkpt>
      <trkpt lat="43.81848" lon="4.4702">
        <ele>56</ele>
        <time>2021-07-25T05:42:09Z</time>
      </trkpt>
      <trkpt lat="43.81853" lon="4.47022">
        <ele>56</ele>
        <time>2021-07-25T05:42:10Z</time>
      </trkpt>
      <trkpt lat="43.81865" lon="4.47021">
        <ele>56</ele>
        <time>2021-07-25T05:42:12Z</time>
      </trkpt>
      <trkpt lat="43.819" lon="4.47088">
        <ele>56</ele>
        <time>2021-07-25T05:42:23Z</time>
      </trkpt>
      <trkpt lat="43.81907" lon="4.47152">
        <ele>58</ele>
        <time>2021-07-25T05:42:31Z</time>
      </trkpt>
      <trkpt lat="43.81902" lon="4.47188">
        <ele>58</ele>
        <time>2021-07-25T05:42:36Z</time>
      </trkpt>
      <trkpt lat="43.81873" lon="4.47191">
        <ele>57</ele>
        <time>2021-07-25T05:42:41Z</time>
      </trkpt>
      <trkpt lat="43.81867" lon="4.47197">
        <ele>57</ele>
        <time>2021-07-25T05:42:42Z</time>
      </trkpt>
      <trkpt lat="43.81865" lon="4.47204">
        <ele>57</ele>
        <time>2021-07-25T05:42:43Z</time>
      </trkpt>
      <trkpt lat="43.81864" lon="4.47218">
        <ele>57</ele>
        <time>2021-07-25T05:42:45Z</time>
      </trkpt>
      <trkpt lat="43.81853" lon="4.47248">
        <ele>57</ele>
        <time>2021-07-25T05:42:49Z</time>
      </trkpt>
      <trkpt lat="43.81846" lon="4.47335">
        <ele>57</ele>
        <time>2021-07-25T05:43:00Z</time>
      </trkpt>
      <trkpt lat="43.81846" lon="4.47359">
        <ele>57</ele>
        <time>2021-07-25T05:43:04Z</time>
      </trkpt>
      <trkpt lat="43.81851" lon="4.47362">
        <ele>57</ele>
        <time>2021-07-25T05:43:05Z</time>
      </trkpt>
      <trkpt lat="43.81857" lon="4.47361">
        <ele>56</ele>
        <time>2021-07-25T05:43:06Z</time>
      </trkpt>
      <trkpt lat="43.81898" lon="4.47392">
        <ele>56</ele>
        <time>2021-07-25T05:43:14Z</time>
      </trkpt>
      <trkpt lat="43.81902" lon="4.47396">
        <ele>56</ele>
        <time>2021-07-25T05:43:15Z</time>
      </trkpt>
      <trkpt lat="43.81904" lon="4.47401">
        <ele>56</ele>
        <time>2021-07-25T05:43:16Z</time>
      </trkpt>
      <trkpt lat="43.81901" lon="4.47426">
        <ele>56</ele>
        <time>2021-07-25T05:43:19Z</time>
      </trkpt>
      <trkpt lat="43.81907" lon="4.47452">
        <ele>56</ele>
        <time>2021-07-25T05:43:22Z</time>
      </trkpt>
      <trkpt lat="43.81902" lon="4.47462">
        <ele>56</ele>
        <time>2021-07-25T05:43:24Z</time>
      </trkpt>
      <trkpt lat="43.8187" lon="4.47586">
        <ele>55</ele>
        <time>2021-07-25T05:43:41Z</time>
      </trkpt>
      <trkpt lat="43.81854" lon="4.47678">
        <ele>54</ele>
        <time>2021-07-25T05:43:53Z</time>
      </trkpt>
      <trkpt lat="43.81855" lon="4.47709">
        <ele>54</ele>
        <time>2021-07-25T05:43:57Z</time>
      </trkpt>
      <trkpt lat="43.81861" lon="4.47774">
        <ele>54</ele>
        <time>2021-07-25T05:44:05Z</time>
      </trkpt>
      <trkpt lat="43.81882" lon="4.47953">
        <ele>54</ele>
        <time>2021-07-25T05:44:29Z</time>
      </trkpt>
      <trkpt lat="43.81903" lon="4.48049">
        <ele>54</ele>
        <time>2021-07-25T05:44:41Z</time>
      </trkpt>
      <trkpt lat="43.81902" lon="4.48099">
        <ele>53</ele>
        <time>2021-07-25T05:44:48Z</time>
      </trkpt>
      <trkpt lat="43.81898" lon="4.48119">
        <ele>54</ele>
        <time>2021-07-25T05:44:51Z</time>
      </trkpt>
      <trkpt lat="43.81853" lon="4.48271">
        <ele>56</ele>
        <time>2021-07-25T05:45:12Z</time>
      </trkpt>
      <trkpt lat="43.8182" lon="4.48358">
        <ele>56</ele>
        <time>2021-07-25T05:45:24Z</time>
      </trkpt>
      <trkpt lat="43.8181" lon="4.48408">
        <ele>55</ele>
        <time>2021-07-25T05:45:31Z</time>
      </trkpt>
      <trkpt lat="43.81807" lon="4.48428">
        <ele>55</ele>
        <time>2021-07-25T05:45:34Z</time>
      </trkpt>
      <trkpt lat="43.81801" lon="4.4843">
        <ele>55</ele>
        <time>2021-07-25T05:45:35Z</time>
      </trkpt>
      <trkpt lat="43.81798" lon="4.48437">
        <ele>55</ele>
        <time>2021-07-25T05:45:36Z</time>
      </trkpt>
      <trkpt lat="43.818" lon="4.48445">
        <ele>55</ele>
        <time>2021-07-25T05:45:37Z</time>
      </trkpt>
      <trkpt lat="43.81805" lon="4.48449">
        <ele>55</ele>
        <time>2021-07-25T05:45:38Z</time>
      </trkpt>
      <trkpt lat="43.81804" lon="4.48472">
        <ele>56</ele>
        <time>2021-07-25T05:45:41Z</time>
      </trkpt>
      <trkpt lat="43.81796" lon="4.48524">
        <ele>56</ele>
        <time>2021-07-25T05:45:48Z</time>
      </trkpt>
      <trkpt lat="43.81776" lon="4.48608">
        <ele>57</ele>
        <time>2021-07-25T05:45:59Z</time>
      </trkpt>
      <trkpt lat="43.81768" lon="4.48661">
        <ele>57</ele>
        <time>2021-07-25T05:46:06Z</time>
      </trkpt>
      <trkpt lat="43.81761" lon="4.48683">
        <ele>57</ele>
        <time>2021-07-25T05:46:09Z</time>
      </trkpt>
      <trkpt lat="43.81886" lon="4.48797">
        <ele>57</ele>
        <time>2021-07-25T05:46:36Z</time>
      </trkpt>
      <trkpt lat="43.81908" lon="4.48809">
        <ele>57</ele>
        <time>2021-07-25T05:46:40Z</time>
      </trkpt>
      <trkpt lat="43.81929" lon="4.48829">
        <ele>57</ele>
        <time>2021-07-25T05:46:44Z</time>
      </trkpt>
      <trkpt lat="43.81933" lon="4.48849">
        <ele>58</ele>
        <time>2021-07-25T05:46:47Z</time>
      </trkpt>
      <trkpt lat="43.81932" lon="4.48856">
        <ele>58</ele>
        <time>2021-07-25T05:46:48Z</time>
      </trkpt>
      <trkpt lat="43.81934" lon="4.48862">
        <ele>58</ele>
        <time>2021-07-25T05:46:49Z</time>
      </trkpt>
      <trkpt lat="43.81937" lon="4.48867">
        <ele>58</ele>
        <time>2021-07-25T05:46:50Z</time>
      </trkpt>
      <trkpt lat="43.81863" lon="4.49004">
        <ele>59</ele>
        <time>2021-07-25T05:47:12Z</time>
      </trkpt>
      <trkpt lat="43.81919" lon="4.49054">
        <ele>59</ele>
        <time>2021-07-25T05:47:23Z</time>
      </trkpt>
      <trkpt lat="43.8194" lon="4.49072">
        <ele>59</ele>
        <time>2021-07-25T05:47:28Z</time>
      </trkpt>
      <trkpt lat="43.81965" lon="4.49101">
        <ele>60</ele>
        <time>2021-07-25T05:47:34Z</time>
      </trkpt>
      <trkpt lat="43.81991" lon="4.49134">
        <ele>60</ele>
        <time>2021-07-25T05:47:40Z</time>
      </trkpt>
      <trkpt lat="43.82002" lon="4.49156">
        <ele>60</ele>
        <time>2021-07-25T05:47:43Z</time>
      </trkpt>
      <trkpt lat="43.82006" lon="4.49173">
        <ele>60</ele>
        <time>2021-07-25T05:47:46Z</time>
      </trkpt>
      <trkpt lat="43.82008" lon="4.49183">
        <ele>60</ele>
        <time>2021-07-25T05:47:47Z</time>
      </trkpt>
      <trkpt lat="43.82007" lon="4.49188">
        <ele>60</ele>
        <time>2021-07-25T05:47:48Z</time>
      </trkpt>
      <trkpt lat="43.82008" lon="4.49199">
        <ele>60</ele>
        <time>2021-07-25T05:47:49Z</time>
      </trkpt>
      <trkpt lat="43.82011" lon="4.49207">
        <ele>60</ele>
        <time>2021-07-25T05:47:50Z</time>
      </trkpt>
      <trkpt lat="43.82018" lon="4.49216">
        <ele>60</ele>
        <time>2021-07-25T05:47:52Z</time>
      </trkpt>
      <trkpt lat="43.8203" lon="4.49219">
        <ele>61</ele>
        <time>2021-07-25T05:47:54Z</time>
      </trkpt>
      <trkpt lat="43.82033" lon="4.49218">
        <ele>61</ele>
        <time>2021-07-25T05:47:55Z</time>
      </trkpt>
      <trkpt lat="43.82037" lon="4.49219">
        <ele>61</ele>
        <time>2021-07-25T05:47:55Z</time>
      </trkpt>
      <trkpt lat="43.82044" lon="4.4922">
        <ele>61</ele>
        <time>2021-07-25T05:47:57Z</time>
      </trkpt>
      <trkpt lat="43.82056" lon="4.49229">
        <ele>61</ele>
        <time>2021-07-25T05:47:59Z</time>
      </trkpt>
      <trkpt lat="43.82066" lon="4.49235">
        <ele>61</ele>
        <time>2021-07-25T05:48:01Z</time>
      </trkpt>
      <trkpt lat="43.821" lon="4.49271">
        <ele>61</ele>
        <time>2021-07-25T05:48:09Z</time>
      </trkpt>
      <trkpt lat="43.82141" lon="4.49305">
        <ele>60</ele>
        <time>2021-07-25T05:48:17Z</time>
      </trkpt>
      <trkpt lat="43.82199" lon="4.49343">
        <ele>59</ele>
        <time>2021-07-25T05:48:29Z</time>
      </trkpt>
      <trkpt lat="43.82227" lon="4.49361">
        <ele>60</ele>
        <time>2021-07-25T05:48:34Z</time>
      </trkpt>
      <trkpt lat="43.82315" lon="4.49413">
        <ele>60</ele>
        <time>2021-07-25T05:48:51Z</time>
      </trkpt>
      <trkpt lat="43.82341" lon="4.4943">
        <ele>60</ele>
        <time>2021-07-25T05:48:56Z</time>
      </trkpt>
      <trkpt lat="43.82449" lon="4.49498">
        <ele>60</ele>
        <time>2021-07-25T05:49:17Z</time>
      </trkpt>
      <trkpt lat="43.82508" lon="4.49533">
        <ele>60</ele>
        <time>2021-07-25T05:49:29Z</time>
      </trkpt>
      <trkpt lat="43.82553" lon="4.49552">
        <ele>60</ele>
        <time>2021-07-25T05:49:37Z</time>
      </trkpt>
      <trkpt lat="43.82563" lon="4.49561">
        <ele>60</ele>
        <time>2021-07-25T05:49:39Z</time>
      </trkpt>
      <trkpt lat="43.82569" lon="4.49566">
        <ele>60</ele>
        <time>2021-07-25T05:49:40Z</time>
      </trkpt>
      <trkpt lat="43.82576" lon="4.49578">
        <ele>60</ele>
        <time>2021-07-25T05:49:42Z</time>
      </trkpt>
      <trkpt lat="43.8258" lon="4.49586">
        <ele>60</ele>
        <time>2021-07-25T05:49:44Z</time>
      </trkpt>
      <trkpt lat="43.8258" lon="4.49592">
        <ele>60</ele>
        <time>2021-07-25T05:49:44Z</time>
      </trkpt>
      <trkpt lat="43.82582" lon="4.496">
        <ele>60</ele>
        <time>2021-07-25T05:49:45Z</time>
      </trkpt>
      <trkpt lat="43.82584" lon="4.49607">
        <ele>60</ele>
        <time>2021-07-25T05:49:46Z</time>
      </trkpt>
      <trkpt lat="43.82587" lon="4.49613">
        <ele>60</ele>
        <time>2021-07-25T05:49:47Z</time>
      </trkpt>
      <trkpt lat="43.82589" lon="4.49615">
        <ele>60</ele>
        <time>2021-07-25T05:49:48Z</time>
      </trkpt>
      <trkpt lat="43.82595" lon="4.49633">
        <ele>59</ele>
        <time>2021-07-25T05:49:50Z</time>
      </trkpt>
      <trkpt lat="43.82599" lon="4.49654">
        <ele>59</ele>
        <time>2021-07-25T05:49:53Z</time>
      </trkpt>
      <trkpt lat="43.82602" lon="4.49683">
        <ele>59</ele>
        <time>2021-07-25T05:49:57Z</time>
      </trkpt>
      <trkpt lat="43.82598" lon="4.49766">
        <ele>60</ele>
        <time>2021-07-25T05:50:08Z</time>
      </trkpt>
      <trkpt lat="43.82597" lon="4.49774">
        <ele>60</ele>
        <time>2021-07-25T05:50:09Z</time>
      </trkpt>
      <trkpt lat="43.82589" lon="4.4989">
        <ele>60</ele>
        <time>2021-07-25T05:50:24Z</time>
      </trkpt>
      <trkpt lat="43.82585" lon="4.49951">
        <ele>60</ele>
        <time>2021-07-25T05:50:31Z</time>
      </trkpt>
      <trkpt lat="43.82583" lon="4.5001">
        <ele>60</ele>
        <time>2021-07-25T05:50:39Z</time>
      </trkpt>
      <trkpt lat="43.82587" lon="4.50049">
        <ele>61</ele>
        <time>2021-07-25T05:50:44Z</time>
      </trkpt>
      <trkpt lat="43.82591" lon="4.50075">
        <ele>61</ele>
        <time>2021-07-25T05:50:48Z</time>
      </trkpt>
      <trkpt lat="43.82599" lon="4.50101">
        <ele>61</ele>
        <time>2021-07-25T05:50:51Z</time>
      </trkpt>
      <trkpt lat="43.82607" lon="4.50123">
        <ele>61</ele>
        <time>2021-07-25T05:50:54Z</time>
      </trkpt>
      <trkpt lat="43.82607" lon="4.50124">
        <ele>61</ele>
        <time>2021-07-25T05:50:54Z</time>
      </trkpt>
      <trkpt lat="43.82628" lon="4.50185">
        <ele>62</ele>
        <time>2021-07-25T05:51:03Z</time>
      </trkpt>
      <trkpt lat="43.82632" lon="4.50196">
        <ele>62</ele>
        <time>2021-07-25T05:51:05Z</time>
      </trkpt>
      <trkpt lat="43.82672" lon="4.50306">
        <ele>63</ele>
        <time>2021-07-25T05:51:21Z</time>
      </trkpt>
      <trkpt lat="43.8268" lon="4.50332">
        <ele>63</ele>
        <time>2021-07-25T05:51:24Z</time>
      </trkpt>
      <trkpt lat="43.82686" lon="4.50357">
        <ele>63</ele>
        <time>2021-07-25T05:51:28Z</time>
      </trkpt>
      <trkpt lat="43.82691" lon="4.5039">
        <ele>63</ele>
        <time>2021-07-25T05:51:32Z</time>
      </trkpt>
      <trkpt lat="43.82695" lon="4.50428">
        <ele>63</ele>
        <time>2021-07-25T05:51:37Z</time>
      </trkpt>
      <trkpt lat="43.82698" lon="4.50492">
        <ele>63</ele>
        <time>2021-07-25T05:51:45Z</time>
      </trkpt>
      <trkpt lat="43.82701" lon="4.50617">
        <ele>62</ele>
        <time>2021-07-25T05:52:01Z</time>
      </trkpt>
      <trkpt lat="43.82702" lon="4.50652">
        <ele>62</ele>
        <time>2021-07-25T05:52:06Z</time>
      </trkpt>
      <trkpt lat="43.82704" lon="4.50794">
        <ele>64</ele>
        <time>2021-07-25T05:52:24Z</time>
      </trkpt>
      <trkpt lat="43.82713" lon="4.51312">
        <ele>66</ele>
        <time>2021-07-25T05:53:30Z</time>
      </trkpt>
      <trkpt lat="43.82715" lon="4.51467">
        <ele>66</ele>
        <time>2021-07-25T05:53:50Z</time>
      </trkpt>
      <trkpt lat="43.82716" lon="4.51631">
        <ele>65</ele>
        <time>2021-07-25T05:54:11Z</time>
      </trkpt>
      <trkpt lat="43.82716" lon="4.51819">
        <ele>64</ele>
        <time>2021-07-25T05:54:35Z</time>
      </trkpt>
      <trkpt lat="43.82711" lon="4.52187">
        <ele>63</ele>
        <time>2021-07-25T05:55:23Z</time>
      </trkpt>
      <trkpt lat="43.82711" lon="4.52243">
        <ele>63</ele>
        <time>2021-07-25T05:55:30Z</time>
      </trkpt>
      <trkpt lat="43.8271" lon="4.52295">
        <ele>64</ele>
        <time>2021-07-25T05:55:36Z</time>
      </trkpt>
      <trkpt lat="43.82708" lon="4.5237">
        <ele>64</ele>
        <time>2021-07-25T05:55:46Z</time>
      </trkpt>
      <trkpt lat="43.82708" lon="4.5237">
        <ele>64</ele>
        <time>2021-07-25T05:55:46Z</time>
      </trkpt>
      <trkpt lat="43.82708" lon="4.52424">
        <ele>63</ele>
        <time>2021-07-25T05:55:53Z</time>
      </trkpt>
      <trkpt lat="43.82706" lon="4.52533">
        <ele>63</ele>
        <time>2021-07-25T05:56:07Z</time>
      </trkpt>
      <trkpt lat="43.82707" lon="4.53022">
        <ele>55</ele>
        <time>2021-07-25T05:57:10Z</time>
      </trkpt>
      <trkpt lat="43.82707" lon="4.53186">
        <ele>54</ele>
        <time>2021-07-25T05:57:31Z</time>
      </trkpt>
      <trkpt lat="43.82707" lon="4.53266">
        <ele>53</ele>
        <time>2021-07-25T05:57:41Z</time>
      </trkpt>
      <trkpt lat="43.82707" lon="4.53485">
        <ele>55</ele>
        <time>2021-07-25T05:58:09Z</time>
      </trkpt>
      <trkpt lat="43.82712" lon="4.53535">
        <ele>55</ele>
        <time>2021-07-25T05:58:16Z</time>
      </trkpt>
      <trkpt lat="43.82841" lon="4.54326">
        <ele>54</ele>
        <time>2021-07-25T06:00:00Z</time>
      </trkpt>
      <trkpt lat="43.82881" lon="4.54583">
        <ele>52</ele>
        <time>2021-07-25T06:00:34Z</time>
      </trkpt>
      <trkpt lat="43.82892" lon="4.54644">
        <ele>51</ele>
        <time>2021-07-25T06:00:42Z</time>
      </trkpt>
      <trkpt lat="43.82893" lon="4.54675">
        <ele>51</ele>
        <time>2021-07-25T06:00:46Z</time>
      </trkpt>
      <trkpt lat="43.82896" lon="4.5471">
        <ele>52</ele>
        <time>2021-07-25T06:00:50Z</time>
      </trkpt>
      <trkpt lat="43.82897" lon="4.54743">
        <ele>53</ele>
        <time>2021-07-25T06:00:54Z</time>
      </trkpt>
      <trkpt lat="43.82894" lon="4.5475">
        <ele>53</ele>
        <time>2021-07-25T06:00:55Z</time>
      </trkpt>
      <trkpt lat="43.82892" lon="4.54752">
        <ele>53</ele>
        <time>2021-07-25T06:00:56Z</time>
      </trkpt>
      <trkpt lat="43.8289" lon="4.54756">
        <ele>53</ele>
        <time>2021-07-25T06:00:57Z</time>
      </trkpt>
      <trkpt lat="43.82889" lon="4.54761">
        <ele>53</ele>
        <time>2021-07-25T06:00:57Z</time>
      </trkpt>
      <trkpt lat="43.82889" lon="4.54764">
        <ele>53</ele>
        <time>2021-07-25T06:00:58Z</time>
      </trkpt>
      <trkpt lat="43.82889" lon="4.54768">
        <ele>53</ele>
        <time>2021-07-25T06:00:58Z</time>
      </trkpt>
      <trkpt lat="43.8289" lon="4.54774">
        <ele>53</ele>
        <time>2021-07-25T06:00:59Z</time>
      </trkpt>
      <trkpt lat="43.82895" lon="4.54779">
        <ele>53</ele>
        <time>2021-07-25T06:01:00Z</time>
      </trkpt>
      <trkpt lat="43.82899" lon="4.54782">
        <ele>53</ele>
        <time>2021-07-25T06:01:01Z</time>
      </trkpt>
      <trkpt lat="43.82905" lon="4.54786">
        <ele>53</ele>
        <time>2021-07-25T06:01:02Z</time>
      </trkpt>
      <trkpt lat="43.8291" lon="4.54793">
        <ele>53</ele>
        <time>2021-07-25T06:01:03Z</time>
      </trkpt>
      <trkpt lat="43.82916" lon="4.54806">
        <ele>53</ele>
        <time>2021-07-25T06:01:05Z</time>
      </trkpt>
      <trkpt lat="43.8292" lon="4.54815">
        <ele>53</ele>
        <time>2021-07-25T06:01:07Z</time>
      </trkpt>
      <trkpt lat="43.82929" lon="4.54874">
        <ele>53</ele>
        <time>2021-07-25T06:01:14Z</time>
      </trkpt>
      <trkpt lat="43.82975" lon="4.55099">
        <ele>53</ele>
        <time>2021-07-25T06:01:44Z</time>
      </trkpt>
      <trkpt lat="43.82978" lon="4.55111">
        <ele>53</ele>
        <time>2021-07-25T06:01:46Z</time>
      </trkpt>
      <trkpt lat="43.82995" lon="4.55176">
        <ele>50</ele>
        <time>2021-07-25T06:01:55Z</time>
      </trkpt>
      <trkpt lat="43.83008" lon="4.5522">
        <ele>48</ele>
        <time>2021-07-25T06:02:01Z</time>
      </trkpt>
      <trkpt lat="43.83023" lon="4.55281">
        <ele>48</ele>
        <time>2021-07-25T06:02:09Z</time>
      </trkpt>
      <trkpt lat="43.83035" lon="4.55345">
        <ele>49</ele>
        <time>2021-07-25T06:02:18Z</time>
      </trkpt>
      <trkpt lat="43.83038" lon="4.55359">
        <ele>49</ele>
        <time>2021-07-25T06:02:20Z</time>
      </trkpt>
      <trkpt lat="43.83042" lon="4.55373">
        <ele>49</ele>
        <time>2021-07-25T06:02:21Z</time>
      </trkpt>
      <trkpt lat="43.83055" lon="4.55428">
        <ele>49</ele>
        <time>2021-07-25T06:02:29Z</time>
      </trkpt>
      <trkpt lat="43.83062" lon="4.55472">
        <ele>49</ele>
        <time>2021-07-25T06:02:35Z</time>
      </trkpt>
      <trkpt lat="43.83062" lon="4.55534">
        <ele>48</ele>
        <time>2021-07-25T06:02:43Z</time>
      </trkpt>
      <trkpt lat="43.83059" lon="4.55664">
        <ele>46</ele>
        <time>2021-07-25T06:02:59Z</time>
      </trkpt>
      <trkpt lat="43.83061" lon="4.55828">
        <ele>44</ele>
        <time>2021-07-25T06:03:20Z</time>
      </trkpt>
      <trkpt lat="43.83062" lon="4.55873">
        <ele>44</ele>
        <time>2021-07-25T06:03:26Z</time>
      </trkpt>
      <trkpt lat="43.83062" lon="4.55887">
        <ele>44</ele>
        <time>2021-07-25T06:03:28Z</time>
      </trkpt>
      <trkpt lat="43.83065" lon="4.56056">
        <ele>43</ele>
        <time>2021-07-25T06:03:50Z</time>
      </trkpt>
      <trkpt lat="43.83064" lon="4.5607">
        <ele>43</ele>
        <time>2021-07-25T06:03:51Z</time>
      </trkpt>
      <trkpt lat="43.83064" lon="4.56089">
        <ele>44</ele>
        <time>2021-07-25T06:03:54Z</time>
      </trkpt>
      <trkpt lat="43.83063" lon="4.56103">
        <ele>44</ele>
        <time>2021-07-25T06:03:56Z</time>
      </trkpt>
      <trkpt lat="43.83056" lon="4.5617">
        <ele>44</ele>
        <time>2021-07-25T06:04:04Z</time>
      </trkpt>
      <trkpt lat="43.83055" lon="4.5618">
        <ele>44</ele>
        <time>2021-07-25T06:04:06Z</time>
      </trkpt>
      <trkpt lat="43.83046" lon="4.56272">
        <ele>41</ele>
        <time>2021-07-25T06:04:18Z</time>
      </trkpt>
      <trkpt lat="43.8304" lon="4.56327">
        <ele>38</ele>
        <time>2021-07-25T06:04:25Z</time>
      </trkpt>
      <trkpt lat="43.83035" lon="4.56375">
        <ele>37</ele>
        <time>2021-07-25T06:04:31Z</time>
      </trkpt>
      <trkpt lat="43.83025" lon="4.56473">
        <ele>36</ele>
        <time>2021-07-25T06:04:44Z</time>
      </trkpt>
      <trkpt lat="43.8302" lon="4.56569">
        <ele>34</ele>
        <time>2021-07-25T06:04:56Z</time>
      </trkpt>
      <trkpt lat="43.83052" lon="4.56763">
        <ele>31</ele>
        <time>2021-07-25T06:05:22Z</time>
      </trkpt>
      <trkpt lat="43.83079" lon="4.56936">
        <ele>31</ele>
        <time>2021-07-25T06:05:44Z</time>
      </trkpt>
      <trkpt lat="43.83083" lon="4.56954">
        <ele>31</ele>
        <time>2021-07-25T06:05:47Z</time>
      </trkpt>
      <trkpt lat="43.8308" lon="4.56964">
        <ele>30</ele>
        <time>2021-07-25T06:05:48Z</time>
      </trkpt>
      <trkpt lat="43.83071" lon="4.56975">
        <ele>30</ele>
        <time>2021-07-25T06:05:50Z</time>
      </trkpt>
      <trkpt lat="43.83067" lon="4.56977">
        <ele>30</ele>
        <time>2021-07-25T06:05:51Z</time>
      </trkpt>
      <trkpt lat="43.83076" lon="4.57008">
        <ele>30</ele>
        <time>2021-07-25T06:05:55Z</time>
      </trkpt>
      <trkpt lat="43.8308" lon="4.57055">
        <ele>29</ele>
        <time>2021-07-25T06:06:01Z</time>
      </trkpt>
      <trkpt lat="43.8308" lon="4.57065">
        <ele>29</ele>
        <time>2021-07-25T06:06:03Z</time>
      </trkpt>
      <trkpt lat="43.83083" lon="4.57074">
        <ele>29</ele>
        <time>2021-07-25T06:06:04Z</time>
      </trkpt>
      <trkpt lat="43.83088" lon="4.57081">
        <ele>29</ele>
        <time>2021-07-25T06:06:05Z</time>
      </trkpt>
      <trkpt lat="43.83094" lon="4.57096">
        <ele>29</ele>
        <time>2021-07-25T06:06:07Z</time>
      </trkpt>
      <trkpt lat="43.83101" lon="4.57141">
        <ele>28</ele>
        <time>2021-07-25T06:06:13Z</time>
      </trkpt>
      <trkpt lat="43.83104" lon="4.57158">
        <ele>28</ele>
        <time>2021-07-25T06:06:16Z</time>
      </trkpt>
      <trkpt lat="43.83109" lon="4.57206">
        <ele>27</ele>
        <time>2021-07-25T06:06:22Z</time>
      </trkpt>
      <trkpt lat="43.83121" lon="4.57358">
        <ele>24</ele>
        <time>2021-07-25T06:06:41Z</time>
      </trkpt>
      <trkpt lat="43.83138" lon="4.57575">
        <ele>20</ele>
        <time>2021-07-25T06:07:09Z</time>
      </trkpt>
      <trkpt lat="43.8314" lon="4.57599">
        <ele>19</ele>
        <time>2021-07-25T06:07:13Z</time>
      </trkpt>
      <trkpt lat="43.8314" lon="4.57624">
        <ele>19</ele>
        <time>2021-07-25T06:07:16Z</time>
      </trkpt>
      <trkpt lat="43.83128" lon="4.58003">
        <ele>23</ele>
        <time>2021-07-25T06:08:04Z</time>
      </trkpt>
      <trkpt lat="43.83124" lon="4.58121">
        <ele>20</ele>
        <time>2021-07-25T06:08:20Z</time>
      </trkpt>
      <trkpt lat="43.83121" lon="4.58202">
        <ele>21</ele>
        <time>2021-07-25T06:08:30Z</time>
      </trkpt>
      <trkpt lat="43.83117" lon="4.58238">
        <ele>21</ele>
        <time>2021-07-25T06:08:35Z</time>
      </trkpt>
      <trkpt lat="43.8296" lon="4.58881">
        <ele>24</ele>
        <time>2021-07-25T06:10:02Z</time>
      </trkpt>
      <trkpt lat="43.82903" lon="4.59016">
        <ele>28</ele>
        <time>2021-07-25T06:10:22Z</time>
      </trkpt>
      <trkpt lat="43.82879" lon="4.5906">
        <ele>29</ele>
        <time>2021-07-25T06:10:29Z</time>
      </trkpt>
      <trkpt lat="43.82856" lon="4.59098">
        <ele>30</ele>
        <time>2021-07-25T06:10:35Z</time>
      </trkpt>
      <trkpt lat="43.82849" lon="4.5911">
        <ele>30</ele>
        <time>2021-07-25T06:10:37Z</time>
      </trkpt>
      <trkpt lat="43.82839" lon="4.59123">
        <ele>31</ele>
        <time>2021-07-25T06:10:40Z</time>
      </trkpt>
      <trkpt lat="43.82807" lon="4.59157">
        <ele>34</ele>
        <time>2021-07-25T06:10:47Z</time>
      </trkpt>
      <trkpt lat="43.8277" lon="4.59188">
        <ele>38</ele>
        <time>2021-07-25T06:10:55Z</time>
      </trkpt>
      <trkpt lat="43.82624" lon="4.59282">
        <ele>54</ele>
        <time>2021-07-25T06:11:23Z</time>
      </trkpt>
      <trkpt lat="43.82566" lon="4.59338">
        <ele>53</ele>
        <time>2021-07-25T06:11:36Z</time>
      </trkpt>
      <trkpt lat="43.82504" lon="4.59435">
        <ele>57</ele>
        <time>2021-07-25T06:11:52Z</time>
      </trkpt>
      <trkpt lat="43.82479" lon="4.59492">
        <ele>61</ele>
        <time>2021-07-25T06:12:01Z</time>
      </trkpt>
      <trkpt lat="43.8246" lon="4.59545">
        <ele>63</ele>
        <time>2021-07-25T06:12:09Z</time>
      </trkpt>
      <trkpt lat="43.82446" lon="4.59577">
        <ele>63</ele>
        <time>2021-07-25T06:12:13Z</time>
      </trkpt>
      <trkpt lat="43.8244" lon="4.5959">
        <ele>63</ele>
        <time>2021-07-25T06:12:15Z</time>
      </trkpt>
      <trkpt lat="43.82427" lon="4.59612">
        <ele>63</ele>
        <time>2021-07-25T06:12:19Z</time>
      </trkpt>
      <trkpt lat="43.82381" lon="4.59685">
        <ele>63</ele>
        <time>2021-07-25T06:12:32Z</time>
      </trkpt>
      <trkpt lat="43.82246" lon="4.5989">
        <ele>61</ele>
        <time>2021-07-25T06:13:07Z</time>
      </trkpt>
      <trkpt lat="43.82189" lon="4.59978">
        <ele>62</ele>
        <time>2021-07-25T06:13:22Z</time>
      </trkpt>
      <trkpt lat="43.82109" lon="4.60093">
        <ele>63</ele>
        <time>2021-07-25T06:13:43Z</time>
      </trkpt>
      <trkpt lat="43.82078" lon="4.60146">
        <ele>63</ele>
        <time>2021-07-25T06:13:52Z</time>
      </trkpt>
      <trkpt lat="43.82052" lon="4.60196">
        <ele>63</ele>
        <time>2021-07-25T06:14:00Z</time>
      </trkpt>
      <trkpt lat="43.82019" lon="4.60273">
        <ele>64</ele>
        <time>2021-07-25T06:14:11Z</time>
      </trkpt>
      <trkpt lat="43.82005" lon="4.60319">
        <ele>64</ele>
        <time>2021-07-25T06:14:17Z</time>
      </trkpt>
      <trkpt lat="43.81993" lon="4.60361">
        <ele>65</ele>
        <time>2021-07-25T06:14:23Z</time>
      </trkpt>
      <trkpt lat="43.81977" lon="4.60449">
        <ele>66</ele>
        <time>2021-07-25T06:14:35Z</time>
      </trkpt>
      <trkpt lat="43.81968" lon="4.60535">
        <ele>65</ele>
        <time>2021-07-25T06:14:46Z</time>
      </trkpt>
      <trkpt lat="43.81963" lon="4.60617">
        <ele>65</ele>
        <time>2021-07-25T06:14:57Z</time>
      </trkpt>
      <trkpt lat="43.81961" lon="4.60724">
        <ele>65</ele>
        <time>2021-07-25T06:15:10Z</time>
      </trkpt>
      <trkpt lat="43.81956" lon="4.60815">
        <ele>62</ele>
        <time>2021-07-25T06:15:22Z</time>
      </trkpt>
      <trkpt lat="43.81948" lon="4.6089">
        <ele>57</ele>
        <time>2021-07-25T06:15:32Z</time>
      </trkpt>
      <trkpt lat="43.81939" lon="4.60936">
        <ele>53</ele>
        <time>2021-07-25T06:15:38Z</time>
      </trkpt>
      <trkpt lat="43.81909" lon="4.61028">
        <ele>44</ele>
        <time>2021-07-25T06:15:51Z</time>
      </trkpt>
      <trkpt lat="43.81871" lon="4.61127">
        <ele>39</ele>
        <time>2021-07-25T06:16:05Z</time>
      </trkpt>
      <trkpt lat="43.8186" lon="4.61144">
        <ele>38</ele>
        <time>2021-07-25T06:16:08Z</time>
      </trkpt>
      <trkpt lat="43.81851" lon="4.61151">
        <ele>37</ele>
        <time>2021-07-25T06:16:10Z</time>
      </trkpt>
      <trkpt lat="43.8184" lon="4.61152">
        <ele>36</ele>
        <time>2021-07-25T06:16:12Z</time>
      </trkpt>
      <trkpt lat="43.8183" lon="4.61158">
        <ele>35</ele>
        <time>2021-07-25T06:16:14Z</time>
      </trkpt>
      <trkpt lat="43.81823" lon="4.61168">
        <ele>34</ele>
        <time>2021-07-25T06:16:16Z</time>
      </trkpt>
      <trkpt lat="43.81819" lon="4.61178">
        <ele>34</ele>
        <time>2021-07-25T06:16:17Z</time>
      </trkpt>
      <trkpt lat="43.81817" lon="4.61189">
        <ele>34</ele>
        <time>2021-07-25T06:16:19Z</time>
      </trkpt>
      <trkpt lat="43.81818" lon="4.612">
        <ele>34</ele>
        <time>2021-07-25T06:16:20Z</time>
      </trkpt>
      <trkpt lat="43.8182" lon="4.6121">
        <ele>34</ele>
        <time>2021-07-25T06:16:21Z</time>
      </trkpt>
      <trkpt lat="43.81825" lon="4.61219">
        <ele>34</ele>
        <time>2021-07-25T06:16:23Z</time>
      </trkpt>
      <trkpt lat="43.81831" lon="4.61227">
        <ele>35</ele>
        <time>2021-07-25T06:16:24Z</time>
      </trkpt>
      <trkpt lat="43.81811" lon="4.61272">
        <ele>33</ele>
        <time>2021-07-25T06:16:31Z</time>
      </trkpt>
      <trkpt lat="43.81774" lon="4.61379">
        <ele>31</ele>
        <time>2021-07-25T06:16:46Z</time>
      </trkpt>
      <trkpt lat="43.81755" lon="4.61455">
        <ele>32</ele>
        <time>2021-07-25T06:16:57Z</time>
      </trkpt>
      <trkpt lat="43.81744" lon="4.61531">
        <ele>32</ele>
        <time>2021-07-25T06:17:07Z</time>
      </trkpt>
      <trkpt lat="43.81735" lon="4.61564">
        <ele>32</ele>
        <time>2021-07-25T06:17:11Z</time>
      </trkpt>
      <trkpt lat="43.81727" lon="4.61581">
        <ele>31</ele>
        <time>2021-07-25T06:17:14Z</time>
      </trkpt>
      <trkpt lat="43.81717" lon="4.6159">
        <ele>31</ele>
        <time>2021-07-25T06:17:16Z</time>
      </trkpt>
      <trkpt lat="43.81713" lon="4.61599">
        <ele>31</ele>
        <time>2021-07-25T06:17:17Z</time>
      </trkpt>
      <trkpt lat="43.81711" lon="4.61613">
        <ele>31</ele>
        <time>2021-07-25T06:17:19Z</time>
      </trkpt>
      <trkpt lat="43.81712" lon="4.6162">
        <ele>31</ele>
        <time>2021-07-25T06:17:20Z</time>
      </trkpt>
      <trkpt lat="43.81715" lon="4.61627">
        <ele>32</ele>
        <time>2021-07-25T06:17:21Z</time>
      </trkpt>
      <trkpt lat="43.81723" lon="4.61637">
        <ele>33</ele>
        <time>2021-07-25T06:17:23Z</time>
      </trkpt>
      <trkpt lat="43.81719" lon="4.61688">
        <ele>33</ele>
        <time>2021-07-25T06:17:30Z</time>
      </trkpt>
      <trkpt lat="43.81703" lon="4.61751">
        <ele>32</ele>
        <time>2021-07-25T06:17:38Z</time>
      </trkpt>
      <trkpt lat="43.81694" lon="4.61779">
        <ele>31</ele>
        <time>2021-07-25T06:17:42Z</time>
      </trkpt>
      <trkpt lat="43.81656" lon="4.61862">
        <ele>28</ele>
        <time>2021-07-25T06:17:55Z</time>
      </trkpt>
      <trkpt lat="43.81563" lon="4.6203">
        <ele>25</ele>
        <time>2021-07-25T06:18:22Z</time>
      </trkpt>
      <trkpt lat="43.81528" lon="4.62089">
        <ele>25</ele>
        <time>2021-07-25T06:18:32Z</time>
      </trkpt>
      <trkpt lat="43.815" lon="4.62108">
        <ele>24</ele>
        <time>2021-07-25T06:18:37Z</time>
      </trkpt>
      <trkpt lat="43.81497" lon="4.62105">
        <ele>24</ele>
        <time>2021-07-25T06:18:38Z</time>
      </trkpt>
      <trkpt lat="43.8149" lon="4.62102">
        <ele>24</ele>
        <time>2021-07-25T06:18:39Z</time>
      </trkpt>
      <trkpt lat="43.81487" lon="4.62103">
        <ele>24</ele>
        <time>2021-07-25T06:18:40Z</time>
      </trkpt>
      <trkpt lat="43.81483" lon="4.62105">
        <ele>24</ele>
        <time>2021-07-25T06:18:40Z</time>
      </trkpt>
      <trkpt lat="43.81477" lon="4.62114">
        <ele>24</ele>
        <time>2021-07-25T06:18:42Z</time>
      </trkpt>
      <trkpt lat="43.81476" lon="4.62126">
        <ele>24</ele>
        <time>2021-07-25T06:18:44Z</time>
      </trkpt>
      <trkpt lat="43.81478" lon="4.62132">
        <ele>24</ele>
        <time>2021-07-25T06:18:44Z</time>
      </trkpt>
      <trkpt lat="43.81475" lon="4.62147">
        <ele>25</ele>
        <time>2021-07-25T06:18:46Z</time>
      </trkpt>
      <trkpt lat="43.81461" lon="4.62197">
        <ele>25</ele>
        <time>2021-07-25T06:18:53Z</time>
      </trkpt>
      <trkpt lat="43.81455" lon="4.62226">
        <ele>25</ele>
        <time>2021-07-25T06:18:57Z</time>
      </trkpt>
      <trkpt lat="43.81425" lon="4.62298">
        <ele>25</ele>
        <time>2021-07-25T06:19:08Z</time>
      </trkpt>
      <trkpt lat="43.81381" lon="4.62435">
        <ele>26</ele>
        <time>2021-07-25T06:19:27Z</time>
      </trkpt>
      <trkpt lat="43.81327" lon="4.62624">
        <ele>26</ele>
        <time>2021-07-25T06:19:53Z</time>
      </trkpt>
      <trkpt lat="43.81296" lon="4.62736">
        <ele>24</ele>
        <time>2021-07-25T06:20:09Z</time>
      </trkpt>
      <trkpt lat="43.8128" lon="4.62772">
        <ele>24</ele>
        <time>2021-07-25T06:20:14Z</time>
      </trkpt>
      <trkpt lat="43.81276" lon="4.62773">
        <ele>24</ele>
        <time>2021-07-25T06:20:15Z</time>
      </trkpt>
      <trkpt lat="43.81271" lon="4.62782">
        <ele>24</ele>
        <time>2021-07-25T06:20:16Z</time>
      </trkpt>
      <trkpt lat="43.81274" lon="4.62792">
        <ele>24</ele>
        <time>2021-07-25T06:20:18Z</time>
      </trkpt>
      <trkpt lat="43.8127" lon="4.62833">
        <ele>23</ele>
        <time>2021-07-25T06:20:23Z</time>
      </trkpt>
      <trkpt lat="43.81261" lon="4.62869">
        <ele>24</ele>
        <time>2021-07-25T06:20:28Z</time>
      </trkpt>
      <trkpt lat="43.81235" lon="4.62965">
        <ele>25</ele>
        <time>2021-07-25T06:20:41Z</time>
      </trkpt>
      <trkpt lat="43.81193" lon="4.63145">
        <ele>25</ele>
        <time>2021-07-25T06:21:05Z</time>
      </trkpt>
      <trkpt lat="43.81177" lon="4.63179">
        <ele>25</ele>
        <time>2021-07-25T06:21:11Z</time>
      </trkpt>
      <trkpt lat="43.81169" lon="4.63183">
        <ele>25</ele>
        <time>2021-07-25T06:21:12Z</time>
      </trkpt>
      <trkpt lat="43.81167" lon="4.63189">
        <ele>25</ele>
        <time>2021-07-25T06:21:13Z</time>
      </trkpt>
      <trkpt lat="43.81168" lon="4.63197">
        <ele>25</ele>
        <time>2021-07-25T06:21:14Z</time>
      </trkpt>
      <trkpt lat="43.81172" lon="4.63202">
        <ele>25</ele>
        <time>2021-07-25T06:21:15Z</time>
      </trkpt>
      <trkpt lat="43.81173" lon="4.63236">
        <ele>26</ele>
        <time>2021-07-25T06:21:19Z</time>
      </trkpt>
      <trkpt lat="43.81133" lon="4.63399">
        <ele>24</ele>
        <time>2021-07-25T06:21:41Z</time>
      </trkpt>
      <trkpt lat="43.8113" lon="4.63421">
        <ele>24</ele>
        <time>2021-07-25T06:21:44Z</time>
      </trkpt>
      <trkpt lat="43.81129" lon="4.63453">
        <ele>24</ele>
        <time>2021-07-25T06:21:48Z</time>
      </trkpt>
      <trkpt lat="43.81131" lon="4.63484">
        <ele>24</ele>
        <time>2021-07-25T06:21:52Z</time>
      </trkpt>
      <trkpt lat="43.81133" lon="4.63499">
        <ele>24</ele>
        <time>2021-07-25T06:21:54Z</time>
      </trkpt>
      <trkpt lat="43.81129" lon="4.63503">
        <ele>24</ele>
        <time>2021-07-25T06:21:55Z</time>
      </trkpt>
      <trkpt lat="43.81128" lon="4.63509">
        <ele>24</ele>
        <time>2021-07-25T06:21:56Z</time>
      </trkpt>
      <trkpt lat="43.81128" lon="4.63516">
        <ele>24</ele>
        <time>2021-07-25T06:21:57Z</time>
      </trkpt>
      <trkpt lat="43.8113" lon="4.63521">
        <ele>24</ele>
        <time>2021-07-25T06:21:58Z</time>
      </trkpt>
      <trkpt lat="43.81134" lon="4.63525">
        <ele>25</ele>
        <time>2021-07-25T06:21:58Z</time>
      </trkpt>
      <trkpt lat="43.81116" lon="4.63574">
        <ele>24</ele>
        <time>2021-07-25T06:22:06Z</time>
      </trkpt>
      <trkpt lat="43.81064" lon="4.63663">
        <ele>22</ele>
        <time>2021-07-25T06:22:20Z</time>
      </trkpt>
      <trkpt lat="43.81015" lon="4.63738">
        <ele>21</ele>
        <time>2021-07-25T06:22:33Z</time>
      </trkpt>
      <trkpt lat="43.81001" lon="4.63766">
        <ele>20</ele>
        <time>2021-07-25T06:22:38Z</time>
      </trkpt>
      <trkpt lat="43.80979" lon="4.63826">
        <ele>18</ele>
        <time>2021-07-25T06:22:46Z</time>
      </trkpt>
      <trkpt lat="43.80968" lon="4.63842">
        <ele>17</ele>
        <time>2021-07-25T06:22:49Z</time>
      </trkpt>
      <trkpt lat="43.80965" lon="4.63839">
        <ele>17</ele>
        <time>2021-07-25T06:22:50Z</time>
      </trkpt>
      <trkpt lat="43.80957" lon="4.63836">
        <ele>17</ele>
        <time>2021-07-25T06:22:51Z</time>
      </trkpt>
      <trkpt lat="43.80953" lon="4.63837">
        <ele>17</ele>
        <time>2021-07-25T06:22:52Z</time>
      </trkpt>
      <trkpt lat="43.80949" lon="4.63841">
        <ele>16</ele>
        <time>2021-07-25T06:22:53Z</time>
      </trkpt>
      <trkpt lat="43.80946" lon="4.63848">
        <ele>16</ele>
        <time>2021-07-25T06:22:54Z</time>
      </trkpt>
      <trkpt lat="43.80937" lon="4.63849">
        <ele>16</ele>
        <time>2021-07-25T06:22:55Z</time>
      </trkpt>
      <trkpt lat="43.80907" lon="4.63845">
        <ele>15</ele>
        <time>2021-07-25T06:23:01Z</time>
      </trkpt>
      <trkpt lat="43.80867" lon="4.63839">
        <ele>14</ele>
        <time>2021-07-25T06:23:08Z</time>
      </trkpt>
      <trkpt lat="43.80842" lon="4.63835">
        <ele>13</ele>
        <time>2021-07-25T06:23:12Z</time>
      </trkpt>
      <trkpt lat="43.80836" lon="4.63834">
        <ele>13</ele>
        <time>2021-07-25T06:23:14Z</time>
      </trkpt>
      <trkpt lat="43.80811" lon="4.63831">
        <ele>12</ele>
        <time>2021-07-25T06:23:18Z</time>
      </trkpt>
      <trkpt lat="43.80804" lon="4.6383">
        <ele>12</ele>
        <time>2021-07-25T06:23:19Z</time>
      </trkpt>
      <trkpt lat="43.80753" lon="4.63823">
        <ele>10</ele>
        <time>2021-07-25T06:23:28Z</time>
      </trkpt>
      <trkpt lat="43.8072" lon="4.63818">
        <ele>9</ele>
        <time>2021-07-25T06:23:34Z</time>
      </trkpt>
      <trkpt lat="43.80709" lon="4.63815">
        <ele>8</ele>
        <time>2021-07-25T06:23:36Z</time>
      </trkpt>
      <trkpt lat="43.80707" lon="4.63811">
        <ele>8</ele>
        <time>2021-07-25T06:23:37Z</time>
      </trkpt>
      <trkpt lat="43.80704" lon="4.63809">
        <ele>8</ele>
        <time>2021-07-25T06:23:37Z</time>
      </trkpt>
      <trkpt lat="43.80701" lon="4.63808">
        <ele>8</ele>
        <time>2021-07-25T06:23:38Z</time>
      </trkpt>
      <trkpt lat="43.80697" lon="4.63809">
        <ele>8</ele>
        <time>2021-07-25T06:23:39Z</time>
      </trkpt>
      <trkpt lat="43.80695" lon="4.63811">
        <ele>8</ele>
        <time>2021-07-25T06:23:39Z</time>
      </trkpt>
      <trkpt lat="43.80693" lon="4.63814">
        <ele>8</ele>
        <time>2021-07-25T06:23:40Z</time>
      </trkpt>
      <trkpt lat="43.80691" lon="4.63819">
        <ele>8</ele>
        <time>2021-07-25T06:23:40Z</time>
      </trkpt>
      <trkpt lat="43.80683" lon="4.63817">
        <ele>7</ele>
        <time>2021-07-25T06:23:42Z</time>
      </trkpt>
      <trkpt lat="43.80664" lon="4.63814">
        <ele>7</ele>
        <time>2021-07-25T06:23:45Z</time>
      </trkpt>
      <trkpt lat="43.80641" lon="4.63811">
        <ele>7</ele>
        <time>2021-07-25T06:23:49Z</time>
      </trkpt>
      <trkpt lat="43.80636" lon="4.6381">
        <ele>7</ele>
        <time>2021-07-25T06:23:50Z</time>
      </trkpt>
      <trkpt lat="43.80623" lon="4.63808">
        <ele>7</ele>
        <time>2021-07-25T06:23:53Z</time>
      </trkpt>
      <trkpt lat="43.80613" lon="4.63808">
        <ele>7</ele>
        <time>2021-07-25T06:23:54Z</time>
      </trkpt>
      <trkpt lat="43.80608" lon="4.63806">
        <ele>7</ele>
        <time>2021-07-25T06:23:55Z</time>
      </trkpt>
      <trkpt lat="43.80599" lon="4.63809">
        <ele>7</ele>
        <time>2021-07-25T06:23:57Z</time>
      </trkpt>
      <trkpt lat="43.80594" lon="4.63808">
        <ele>7</ele>
        <time>2021-07-25T06:23:58Z</time>
      </trkpt>
      <trkpt lat="43.80591" lon="4.63806">
        <ele>7</ele>
        <time>2021-07-25T06:23:58Z</time>
      </trkpt>
      <trkpt lat="43.80584" lon="4.63807">
        <ele>7</ele>
        <time>2021-07-25T06:24:00Z</time>
      </trkpt>
      <trkpt lat="43.80579" lon="4.63812">
        <ele>8</ele>
        <time>2021-07-25T06:24:01Z</time>
      </trkpt>
      <trkpt lat="43.80577" lon="4.63824">
        <ele>8</ele>
        <time>2021-07-25T06:24:02Z</time>
      </trkpt>
      <trkpt lat="43.80578" lon="4.63828">
        <ele>8</ele>
        <time>2021-07-25T06:24:03Z</time>
      </trkpt>
      <trkpt lat="43.80584" lon="4.63835">
        <ele>8</ele>
        <time>2021-07-25T06:24:04Z</time>
      </trkpt>
      <trkpt lat="43.80587" lon="4.63845">
        <ele>8</ele>
        <time>2021-07-25T06:24:06Z</time>
      </trkpt>
      <trkpt lat="43.80589" lon="4.63862">
        <ele>7</ele>
        <time>2021-07-25T06:24:08Z</time>
      </trkpt>
      <trkpt lat="43.80588" lon="4.63875">
        <ele>7</ele>
        <time>2021-07-25T06:24:10Z</time>
      </trkpt>
      <trkpt lat="43.80585" lon="4.63902">
        <ele>6</ele>
        <time>2021-07-25T06:24:13Z</time>
      </trkpt>
      <trkpt lat="43.80585" lon="4.63906">
        <ele>6</ele>
        <time>2021-07-25T06:24:14Z</time>
      </trkpt>
      <trkpt lat="43.80583" lon="4.63921">
        <ele>6</ele>
        <time>2021-07-25T06:24:16Z</time>
      </trkpt>
      <trkpt lat="43.80548" lon="4.64155">
        <ele>7</ele>
        <time>2021-07-25T06:24:46Z</time>
      </trkpt>
      <trkpt lat="43.80539" lon="4.64221">
        <ele>7</ele>
        <time>2021-07-25T06:24:55Z</time>
      </trkpt>
      <trkpt lat="43.80531" lon="4.64282">
        <ele>7</ele>
        <time>2021-07-25T06:25:03Z</time>
      </trkpt>
      <trkpt lat="43.80526" lon="4.64314">
        <ele>8</ele>
        <time>2021-07-25T06:25:07Z</time>
      </trkpt>
      <trkpt lat="43.80521" lon="4.64349">
        <ele>8</ele>
        <time>2021-07-25T06:25:12Z</time>
      </trkpt>
      <trkpt lat="43.8051" lon="4.64432">
        <ele>8</ele>
        <time>2021-07-25T06:25:23Z</time>
      </trkpt>
      <trkpt lat="43.80504" lon="4.64476">
        <ele>8</ele>
        <time>2021-07-25T06:25:28Z</time>
      </trkpt>
      <trkpt lat="43.80499" lon="4.64514">
        <ele>8</ele>
        <time>2021-07-25T06:25:33Z</time>
      </trkpt>
      <trkpt lat="43.80493" lon="4.64525">
        <ele>7</ele>
        <time>2021-07-25T06:25:35Z</time>
      </trkpt>
      <trkpt lat="43.80488" lon="4.64528">
        <ele>7</ele>
        <time>2021-07-25T06:25:36Z</time>
      </trkpt>
      <trkpt lat="43.80478" lon="4.6453">
        <ele>8</ele>
        <time>2021-07-25T06:25:38Z</time>
      </trkpt>
      <trkpt lat="43.80467" lon="4.64533">
        <ele>8</ele>
        <time>2021-07-25T06:25:40Z</time>
      </trkpt>
      <trkpt lat="43.80462" lon="4.64542">
        <ele>7</ele>
        <time>2021-07-25T06:25:41Z</time>
      </trkpt>
      <trkpt lat="43.80461" lon="4.64547">
        <ele>7</ele>
        <time>2021-07-25T06:25:42Z</time>
      </trkpt>
      <trkpt lat="43.80462" lon="4.64557">
        <ele>7</ele>
        <time>2021-07-25T06:25:43Z</time>
      </trkpt>
      <trkpt lat="43.80468" lon="4.64598">
        <ele>7</ele>
        <time>2021-07-25T06:25:49Z</time>
      </trkpt>
      <trkpt lat="43.80472" lon="4.64614">
        <ele>7</ele>
        <time>2021-07-25T06:25:51Z</time>
      </trkpt>
      <trkpt lat="43.80475" lon="4.64619">
        <ele>7</ele>
        <time>2021-07-25T06:25:52Z</time>
      </trkpt>
      <trkpt lat="43.80483" lon="4.64644">
        <ele>8</ele>
        <time>2021-07-25T06:25:55Z</time>
      </trkpt>
      <trkpt lat="43.80491" lon="4.64684">
        <ele>8</ele>
        <time>2021-07-25T06:26:00Z</time>
      </trkpt>
      <trkpt lat="43.80497" lon="4.6473">
        <ele>9</ele>
        <time>2021-07-25T06:26:06Z</time>
      </trkpt>
      <trkpt lat="43.80468" lon="4.64855">
        <ele>9</ele>
        <time>2021-07-25T06:26:23Z</time>
      </trkpt>
      <trkpt lat="43.80466" lon="4.6487">
        <ele>9</ele>
        <time>2021-07-25T06:26:25Z</time>
      </trkpt>
      <trkpt lat="43.80465" lon="4.64895">
        <ele>8</ele>
        <time>2021-07-25T06:26:28Z</time>
      </trkpt>
      <trkpt lat="43.8047" lon="4.65437">
        <ele>7</ele>
        <time>2021-07-25T06:27:38Z</time>
      </trkpt>
      <trkpt lat="43.80467" lon="4.65447">
        <ele>8</ele>
        <time>2021-07-25T06:27:39Z</time>
      </trkpt>
      <trkpt lat="43.80466" lon="4.655">
        <ele>10</ele>
        <time>2021-07-25T06:27:46Z</time>
      </trkpt>
      <trkpt lat="43.80461" lon="4.65513">
        <ele>10</ele>
        <time>2021-07-25T06:27:48Z</time>
      </trkpt>
      <trkpt lat="43.80452" lon="4.65531">
        <ele>11</ele>
        <time>2021-07-25T06:27:51Z</time>
      </trkpt>
      <trkpt lat="43.80418" lon="4.65573">
        <ele>12</ele>
        <time>2021-07-25T06:27:59Z</time>
      </trkpt>
      <trkpt lat="43.804" lon="4.65587">
        <ele>12</ele>
        <time>2021-07-25T06:28:03Z</time>
      </trkpt>
      <trkpt lat="43.80394" lon="4.65589">
        <ele>13</ele>
        <time>2021-07-25T06:28:04Z</time>
      </trkpt>
      <trkpt lat="43.80391" lon="4.65594">
        <ele>13</ele>
        <time>2021-07-25T06:28:05Z</time>
      </trkpt>
      <trkpt lat="43.80391" lon="4.65602">
        <ele>12</ele>
        <time>2021-07-25T06:28:06Z</time>
      </trkpt>
      <trkpt lat="43.80373" lon="4.65626">
        <ele>13</ele>
        <time>2021-07-25T06:28:10Z</time>
      </trkpt>
      <trkpt lat="43.80327" lon="4.65682">
        <ele>12</ele>
        <time>2021-07-25T06:28:21Z</time>
      </trkpt>
      <trkpt lat="43.80256" lon="4.65773">
        <ele>12</ele>
        <time>2021-07-25T06:28:38Z</time>
      </trkpt>
      <trkpt lat="43.80254" lon="4.65779">
        <ele>12</ele>
        <time>2021-07-25T06:28:39Z</time>
      </trkpt>
      <trkpt lat="43.80254" lon="4.65786">
        <ele>12</ele>
        <time>2021-07-25T06:28:40Z</time>
      </trkpt>
      <trkpt lat="43.80255" lon="4.65792">
        <ele>12</ele>
        <time>2021-07-25T06:28:41Z</time>
      </trkpt>
      <trkpt lat="43.80269" lon="4.65813">
        <ele>12</ele>
        <time>2021-07-25T06:28:44Z</time>
      </trkpt>
      <trkpt lat="43.80311" lon="4.65859">
        <ele>13</ele>
        <time>2021-07-25T06:28:54Z</time>
      </trkpt>
      <trkpt lat="43.80314" lon="4.65867">
        <ele>13</ele>
        <time>2021-07-25T06:28:55Z</time>
      </trkpt>
      <trkpt lat="43.80329" lon="4.65997">
        <ele>11</ele>
        <time>2021-07-25T06:29:12Z</time>
      </trkpt>
      <trkpt lat="43.80329" lon="4.66013">
        <ele>11</ele>
        <time>2021-07-25T06:29:14Z</time>
      </trkpt>
      <trkpt lat="43.80324" lon="4.66057">
        <ele>11</ele>
        <time>2021-07-25T06:29:20Z</time>
      </trkpt>
      <trkpt lat="43.80314" lon="4.66103">
        <ele>11</ele>
        <time>2021-07-25T06:29:26Z</time>
      </trkpt>
      <trkpt lat="43.80276" lon="4.66202">
        <ele>11</ele>
        <time>2021-07-25T06:29:40Z</time>
      </trkpt>
      <trkpt lat="43.80271" lon="4.66213">
        <ele>11</ele>
        <time>2021-07-25T06:29:42Z</time>
      </trkpt>
      <trkpt lat="43.8026" lon="4.66236">
        <ele>11</ele>
        <time>2021-07-25T06:29:46Z</time>
      </trkpt>
      <trkpt lat="43.8025" lon="4.66264">
        <ele>11</ele>
        <time>2021-07-25T06:29:50Z</time>
      </trkpt>
      <trkpt lat="43.80247" lon="4.66266">
        <ele>11</ele>
        <time>2021-07-25T06:29:50Z</time>
      </trkpt>
      <trkpt lat="43.80243" lon="4.66275">
        <ele>10</ele>
        <time>2021-07-25T06:29:52Z</time>
      </trkpt>
      <trkpt lat="43.80243" lon="4.6628">
        <ele>10</ele>
        <time>2021-07-25T06:29:52Z</time>
      </trkpt>
      <trkpt lat="43.80227" lon="4.66306">
        <ele>10</ele>
        <time>2021-07-25T06:29:57Z</time>
      </trkpt>
      <trkpt lat="43.80221" lon="4.66324">
        <ele>10</ele>
        <time>2021-07-25T06:29:59Z</time>
      </trkpt>
      <trkpt lat="43.8022" lon="4.66333">
        <ele>9</ele>
        <time>2021-07-25T06:30:00Z</time>
      </trkpt>
      <trkpt lat="43.80182" lon="4.66497">
        <ele>9</ele>
        <time>2021-07-25T06:30:22Z</time>
      </trkpt>
      <trkpt lat="43.8018" lon="4.66508">
        <ele>9</ele>
        <time>2021-07-25T06:30:24Z</time>
      </trkpt>
      <trkpt lat="43.8017" lon="4.66524">
        <ele>9</ele>
        <time>2021-07-25T06:30:27Z</time>
      </trkpt>
      <trkpt lat="43.8017" lon="4.66531">
        <ele>9</ele>
        <time>2021-07-25T06:30:27Z</time>
      </trkpt>
      <trkpt lat="43.80174" lon="4.66537">
        <ele>9</ele>
        <time>2021-07-25T06:30:29Z</time>
      </trkpt>
      <trkpt lat="43.80185" lon="4.66563">
        <ele>10</ele>
        <time>2021-07-25T06:30:32Z</time>
      </trkpt>
      <trkpt lat="43.80198" lon="4.66616">
        <ele>9</ele>
        <time>2021-07-25T06:30:40Z</time>
      </trkpt>
      <trkpt lat="43.802" lon="4.66643">
        <ele>9</ele>
        <time>2021-07-25T06:30:43Z</time>
      </trkpt>
      <trkpt lat="43.80183" lon="4.66788">
        <ele>10</ele>
        <time>2021-07-25T06:31:02Z</time>
      </trkpt>
      <trkpt lat="43.80182" lon="4.66795">
        <ele>10</ele>
        <time>2021-07-25T06:31:03Z</time>
      </trkpt>
      <trkpt lat="43.8018" lon="4.66805">
        <ele>10</ele>
        <time>2021-07-25T06:31:04Z</time>
      </trkpt>
      <trkpt lat="43.80169" lon="4.66865">
        <ele>10</ele>
        <time>2021-07-25T06:31:12Z</time>
      </trkpt>
      <trkpt lat="43.80168" lon="4.66872">
        <ele>10</ele>
        <time>2021-07-25T06:31:13Z</time>
      </trkpt>
      <trkpt lat="43.80162" lon="4.66898">
        <ele>10</ele>
        <time>2021-07-25T06:31:17Z</time>
      </trkpt>
      <trkpt lat="43.80153" lon="4.66928">
        <ele>10</ele>
        <time>2021-07-25T06:31:21Z</time>
      </trkpt>
      <trkpt lat="43.80139" lon="4.66964">
        <ele>10</ele>
        <time>2021-07-25T06:31:26Z</time>
      </trkpt>
      <trkpt lat="43.80135" lon="4.66974">
        <ele>10</ele>
        <time>2021-07-25T06:31:27Z</time>
      </trkpt>
      <trkpt lat="43.80123" lon="4.67003">
        <ele>9</ele>
        <time>2021-07-25T06:31:32Z</time>
      </trkpt>
      <trkpt lat="43.80113" lon="4.67027">
        <ele>9</ele>
        <time>2021-07-25T06:31:35Z</time>
      </trkpt>
      <trkpt lat="43.80092" lon="4.67082">
        <ele>8</ele>
        <time>2021-07-25T06:31:43Z</time>
      </trkpt>
      <trkpt lat="43.80088" lon="4.67091">
        <ele>8</ele>
        <time>2021-07-25T06:31:45Z</time>
      </trkpt>
      <trkpt lat="43.8008" lon="4.67118">
        <ele>8</ele>
        <time>2021-07-25T06:31:48Z</time>
      </trkpt>
      <trkpt lat="43.80066" lon="4.67166">
        <ele>8</ele>
        <time>2021-07-25T06:31:55Z</time>
      </trkpt>
      <trkpt lat="43.80053" lon="4.67219">
        <ele>9</ele>
        <time>2021-07-25T06:32:02Z</time>
      </trkpt>
      <trkpt lat="43.80044" lon="4.67282">
        <ele>9</ele>
        <time>2021-07-25T06:32:10Z</time>
      </trkpt>
      <trkpt lat="43.80045" lon="4.67353">
        <ele>8</ele>
        <time>2021-07-25T06:32:20Z</time>
      </trkpt>
      <trkpt lat="43.8005" lon="4.67426">
        <ele>8</ele>
        <time>2021-07-25T06:32:29Z</time>
      </trkpt>
      <trkpt lat="43.8005" lon="4.67459">
        <ele>8</ele>
        <time>2021-07-25T06:32:33Z</time>
      </trkpt>
      <trkpt lat="43.8005" lon="4.6748">
        <ele>8</ele>
        <time>2021-07-25T06:32:36Z</time>
      </trkpt>
      <trkpt lat="43.8005" lon="4.67493">
        <ele>8</ele>
        <time>2021-07-25T06:32:38Z</time>
      </trkpt>
      <trkpt lat="43.8005" lon="4.67502">
        <ele>8</ele>
        <time>2021-07-25T06:32:39Z</time>
      </trkpt>
      <trkpt lat="43.8005" lon="4.67522">
        <ele>8</ele>
        <time>2021-07-25T06:32:41Z</time>
      </trkpt>
      <trkpt lat="43.80043" lon="4.67587">
        <ele>9</ele>
        <time>2021-07-25T06:32:50Z</time>
      </trkpt>
      <trkpt lat="43.80033" lon="4.67643">
        <ele>10</ele>
        <time>2021-07-25T06:32:57Z</time>
      </trkpt>
      <trkpt lat="43.80021" lon="4.67692">
        <ele>10</ele>
        <time>2021-07-25T06:33:04Z</time>
      </trkpt>
      <trkpt lat="43.80006" lon="4.67742">
        <ele>9</ele>
        <time>2021-07-25T06:33:11Z</time>
      </trkpt>
      <trkpt lat="43.80002" lon="4.67753">
        <ele>9</ele>
        <time>2021-07-25T06:33:12Z</time>
      </trkpt>
      <trkpt lat="43.79992" lon="4.67777">
        <ele>9</ele>
        <time>2021-07-25T06:33:16Z</time>
      </trkpt>
      <trkpt lat="43.79976" lon="4.67813">
        <ele>9</ele>
        <time>2021-07-25T06:33:21Z</time>
      </trkpt>
      <trkpt lat="43.79935" lon="4.67893">
        <ele>8</ele>
        <time>2021-07-25T06:33:34Z</time>
      </trkpt>
      <trkpt lat="43.79908" lon="4.67956">
        <ele>7</ele>
        <time>2021-07-25T06:33:43Z</time>
      </trkpt>
      <trkpt lat="43.79887" lon="4.68013">
        <ele>7</ele>
        <time>2021-07-25T06:33:52Z</time>
      </trkpt>
      <trkpt lat="43.79875" lon="4.68052">
        <ele>6</ele>
        <time>2021-07-25T06:33:57Z</time>
      </trkpt>
      <trkpt lat="43.79867" lon="4.68087">
        <ele>6</ele>
        <time>2021-07-25T06:34:02Z</time>
      </trkpt>
      <trkpt lat="43.79858" lon="4.68137">
        <ele>7</ele>
        <time>2021-07-25T06:34:08Z</time>
      </trkpt>
      <trkpt lat="43.79855" lon="4.68171">
        <ele>7</ele>
        <time>2021-07-25T06:34:13Z</time>
      </trkpt>
      <trkpt lat="43.7985" lon="4.68214">
        <ele>7</ele>
        <time>2021-07-25T06:34:18Z</time>
      </trkpt>
      <trkpt lat="43.7984" lon="4.68307">
        <ele>8</ele>
        <time>2021-07-25T06:34:30Z</time>
      </trkpt>
      <trkpt lat="43.79839" lon="4.68324">
        <ele>8</ele>
        <time>2021-07-25T06:34:33Z</time>
      </trkpt>
      <trkpt lat="43.79833" lon="4.68369">
        <ele>9</ele>
        <time>2021-07-25T06:34:39Z</time>
      </trkpt>
      <trkpt lat="43.7983" lon="4.6839">
        <ele>10</ele>
        <time>2021-07-25T06:34:41Z</time>
      </trkpt>
      <trkpt lat="43.79817" lon="4.68465">
        <ele>9</ele>
        <time>2021-07-25T06:34:51Z</time>
      </trkpt>
      <trkpt lat="43.79799" lon="4.6858">
        <ele>8</ele>
        <time>2021-07-25T06:35:06Z</time>
      </trkpt>
      <trkpt lat="43.79787" lon="4.68646">
        <ele>7</ele>
        <time>2021-07-25T06:35:15Z</time>
      </trkpt>
      <trkpt lat="43.79782" lon="4.68676">
        <ele>7</ele>
        <time>2021-07-25T06:35:19Z</time>
      </trkpt>
      <trkpt lat="43.79768" lon="4.68734">
        <ele>7</ele>
        <time>2021-07-25T06:35:27Z</time>
      </trkpt>
      <trkpt lat="43.79762" lon="4.68757">
        <ele>7</ele>
        <time>2021-07-25T06:35:30Z</time>
      </trkpt>
      <trkpt lat="43.79746" lon="4.68813">
        <ele>7</ele>
        <time>2021-07-25T06:35:38Z</time>
      </trkpt>
      <trkpt lat="43.79726" lon="4.68874">
        <ele>7</ele>
        <time>2021-07-25T06:35:46Z</time>
      </trkpt>
      <trkpt lat="43.79712" lon="4.6892">
        <ele>6</ele>
        <time>2021-07-25T06:35:53Z</time>
      </trkpt>
      <trkpt lat="43.79695" lon="4.6897">
        <ele>5</ele>
        <time>2021-07-25T06:36:00Z</time>
      </trkpt>
      <trkpt lat="43.79688" lon="4.68995">
        <ele>5</ele>
        <time>2021-07-25T06:36:03Z</time>
      </trkpt>
      <trkpt lat="43.79675" lon="4.69039">
        <ele>5</ele>
        <time>2021-07-25T06:36:09Z</time>
      </trkpt>
      <trkpt lat="43.7967" lon="4.69056">
        <ele>5</ele>
        <time>2021-07-25T06:36:12Z</time>
      </trkpt>
      <trkpt lat="43.7966" lon="4.69086">
        <ele>5</ele>
        <time>2021-07-25T06:36:16Z</time>
      </trkpt>
      <trkpt lat="43.79638" lon="4.69183">
        <ele>8</ele>
        <time>2021-07-25T06:36:29Z</time>
      </trkpt>
      <trkpt lat="43.79614" lon="4.69299">
        <ele>6</ele>
        <time>2021-07-25T06:36:45Z</time>
      </trkpt>
      <trkpt lat="43.79595" lon="4.69421">
        <ele>8</ele>
        <time>2021-07-25T06:37:01Z</time>
      </trkpt>
      <trkpt lat="43.7957" lon="4.6952">
        <ele>7</ele>
        <time>2021-07-25T06:37:14Z</time>
      </trkpt>
      <trkpt lat="43.79557" lon="4.6956">
        <ele>8</ele>
        <time>2021-07-25T06:37:20Z</time>
      </trkpt>
      <trkpt lat="43.79542" lon="4.69587">
        <ele>8</ele>
        <time>2021-07-25T06:37:24Z</time>
      </trkpt>
      <trkpt lat="43.79535" lon="4.69596">
        <ele>7</ele>
        <time>2021-07-25T06:37:26Z</time>
      </trkpt>
      <trkpt lat="43.79528" lon="4.69603">
        <ele>7</ele>
        <time>2021-07-25T06:37:27Z</time>
      </trkpt>
      <trkpt lat="43.79523" lon="4.69602">
        <ele>7</ele>
        <time>2021-07-25T06:37:28Z</time>
      </trkpt>
      <trkpt lat="43.79518" lon="4.69602">
        <ele>7</ele>
        <time>2021-07-25T06:37:29Z</time>
      </trkpt>
      <trkpt lat="43.79509" lon="4.69605">
        <ele>7</ele>
        <time>2021-07-25T06:37:31Z</time>
      </trkpt>
      <trkpt lat="43.79502" lon="4.69611">
        <ele>7</ele>
        <time>2021-07-25T06:37:32Z</time>
      </trkpt>
      <trkpt lat="43.79496" lon="4.69618">
        <ele>7</ele>
        <time>2021-07-25T06:37:34Z</time>
      </trkpt>
      <trkpt lat="43.79492" lon="4.69629">
        <ele>7</ele>
        <time>2021-07-25T06:37:35Z</time>
      </trkpt>
      <trkpt lat="43.7949" lon="4.69642">
        <ele>7</ele>
        <time>2021-07-25T06:37:37Z</time>
      </trkpt>
      <trkpt lat="43.79491" lon="4.69655">
        <ele>7</ele>
        <time>2021-07-25T06:37:39Z</time>
      </trkpt>
      <trkpt lat="43.79493" lon="4.69664">
        <ele>7</ele>
        <time>2021-07-25T06:37:40Z</time>
      </trkpt>
      <trkpt lat="43.79502" lon="4.69678">
        <ele>7</ele>
        <time>2021-07-25T06:37:42Z</time>
      </trkpt>
      <trkpt lat="43.79515" lon="4.69685">
        <ele>7</ele>
        <time>2021-07-25T06:37:45Z</time>
      </trkpt>
      <trkpt lat="43.79521" lon="4.69686">
        <ele>7</ele>
        <time>2021-07-25T06:37:46Z</time>
      </trkpt>
      <trkpt lat="43.79529" lon="4.69695">
        <ele>7</ele>
        <time>2021-07-25T06:37:48Z</time>
      </trkpt>
      <trkpt lat="43.79536" lon="4.69709">
        <ele>7</ele>
        <time>2021-07-25T06:37:50Z</time>
      </trkpt>
      <trkpt lat="43.79543" lon="4.69734">
        <ele>8</ele>
        <time>2021-07-25T06:37:53Z</time>
      </trkpt>
      <trkpt lat="43.7955" lon="4.69762">
        <ele>8</ele>
        <time>2021-07-25T06:37:57Z</time>
      </trkpt>
      <trkpt lat="43.79554" lon="4.69826">
        <ele>8</ele>
        <time>2021-07-25T06:38:05Z</time>
      </trkpt>
      <trkpt lat="43.79558" lon="4.70136">
        <ele>6</ele>
        <time>2021-07-25T06:38:45Z</time>
      </trkpt>
      <trkpt lat="43.79554" lon="4.70217">
        <ele>6</ele>
        <time>2021-07-25T06:38:55Z</time>
      </trkpt>
      <trkpt lat="43.79546" lon="4.70273">
        <ele>7</ele>
        <time>2021-07-25T06:39:03Z</time>
      </trkpt>
      <trkpt lat="43.79528" lon="4.70349">
        <ele>7</ele>
        <time>2021-07-25T06:39:13Z</time>
      </trkpt>
      <trkpt lat="43.79515" lon="4.70388">
        <ele>7</ele>
        <time>2021-07-25T06:39:19Z</time>
      </trkpt>
      <trkpt lat="43.79496" lon="4.70432">
        <ele>7</ele>
        <time>2021-07-25T06:39:25Z</time>
      </trkpt>
      <trkpt lat="43.79481" lon="4.7046">
        <ele>7</ele>
        <time>2021-07-25T06:39:30Z</time>
      </trkpt>
      <trkpt lat="43.79407" lon="4.7058">
        <ele>3</ele>
        <time>2021-07-25T06:39:50Z</time>
      </trkpt>
      <trkpt lat="43.79386" lon="4.70618">
        <ele>5</ele>
        <time>2021-07-25T06:39:56Z</time>
      </trkpt>
      <trkpt lat="43.79368" lon="4.70655">
        <ele>6</ele>
        <time>2021-07-25T06:40:02Z</time>
      </trkpt>
      <trkpt lat="43.79351" lon="4.70702">
        <ele>6</ele>
        <time>2021-07-25T06:40:09Z</time>
      </trkpt>
      <trkpt lat="43.79338" lon="4.70746">
        <ele>6</ele>
        <time>2021-07-25T06:40:15Z</time>
      </trkpt>
      <trkpt lat="43.79329" lon="4.70784">
        <ele>6</ele>
        <time>2021-07-25T06:40:20Z</time>
      </trkpt>
      <trkpt lat="43.79319" lon="4.70844">
        <ele>6</ele>
        <time>2021-07-25T06:40:28Z</time>
      </trkpt>
      <trkpt lat="43.79304" lon="4.70963">
        <ele>7</ele>
        <time>2021-07-25T06:40:43Z</time>
      </trkpt>
      <trkpt lat="43.79293" lon="4.71033">
        <ele>7</ele>
        <time>2021-07-25T06:40:52Z</time>
      </trkpt>
      <trkpt lat="43.79281" lon="4.71084">
        <ele>8</ele>
        <time>2021-07-25T06:40:59Z</time>
      </trkpt>
      <trkpt lat="43.79257" lon="4.71125">
        <ele>7</ele>
        <time>2021-07-25T06:41:06Z</time>
      </trkpt>
      <trkpt lat="43.7925" lon="4.71131">
        <ele>7</ele>
        <time>2021-07-25T06:41:08Z</time>
      </trkpt>
      <trkpt lat="43.79235" lon="4.71132">
        <ele>8</ele>
        <time>2021-07-25T06:41:10Z</time>
      </trkpt>
      <trkpt lat="43.7923" lon="4.71129">
        <ele>8</ele>
        <time>2021-07-25T06:41:11Z</time>
      </trkpt>
      <trkpt lat="43.79218" lon="4.71128">
        <ele>8</ele>
        <time>2021-07-25T06:41:13Z</time>
      </trkpt>
      <trkpt lat="43.79206" lon="4.71136">
        <ele>8</ele>
        <time>2021-07-25T06:41:16Z</time>
      </trkpt>
      <trkpt lat="43.79201" lon="4.71144">
        <ele>8</ele>
        <time>2021-07-25T06:41:17Z</time>
      </trkpt>
      <trkpt lat="43.79197" lon="4.71161">
        <ele>8</ele>
        <time>2021-07-25T06:41:19Z</time>
      </trkpt>
      <trkpt lat="43.79198" lon="4.71173">
        <ele>8</ele>
        <time>2021-07-25T06:41:21Z</time>
      </trkpt>
      <trkpt lat="43.79204" lon="4.71188">
        <ele>8</ele>
        <time>2021-07-25T06:41:23Z</time>
      </trkpt>
      <trkpt lat="43.79205" lon="4.71212">
        <ele>8</ele>
        <time>2021-07-25T06:41:26Z</time>
      </trkpt>
      <trkpt lat="43.79195" lon="4.71252">
        <ele>8</ele>
        <time>2021-07-25T06:41:32Z</time>
      </trkpt>
      <trkpt lat="43.79023" lon="4.71564">
        <ele>10</ele>
        <time>2021-07-25T06:42:22Z</time>
      </trkpt>
      <trkpt lat="43.79008" lon="4.71592">
        <ele>11</ele>
        <time>2021-07-25T06:42:27Z</time>
      </trkpt>
      <trkpt lat="43.78994" lon="4.71611">
        <ele>11</ele>
        <time>2021-07-25T06:42:30Z</time>
      </trkpt>
      <trkpt lat="43.78979" lon="4.71627">
        <ele>11</ele>
        <time>2021-07-25T06:42:33Z</time>
      </trkpt>
      <trkpt lat="43.78819" lon="4.71754">
        <ele>12</ele>
        <time>2021-07-25T06:43:06Z</time>
      </trkpt>
      <trkpt lat="43.78778" lon="4.71787">
        <ele>12</ele>
        <time>2021-07-25T06:43:15Z</time>
      </trkpt>
      <trkpt lat="43.78776" lon="4.71789">
        <ele>12</ele>
        <time>2021-07-25T06:43:15Z</time>
      </trkpt>
      <trkpt lat="43.78741" lon="4.71817">
        <ele>11</ele>
        <time>2021-07-25T06:43:22Z</time>
      </trkpt>
      <trkpt lat="43.78712" lon="4.71841">
        <ele>9</ele>
        <time>2021-07-25T06:43:28Z</time>
      </trkpt>
      <trkpt lat="43.78691" lon="4.71856">
        <ele>9</ele>
        <time>2021-07-25T06:43:32Z</time>
      </trkpt>
      <trkpt lat="43.78685" lon="4.7186">
        <ele>9</ele>
        <time>2021-07-25T06:43:34Z</time>
      </trkpt>
      <trkpt lat="43.78679" lon="4.7186">
        <ele>9</ele>
        <time>2021-07-25T06:43:35Z</time>
      </trkpt>
      <trkpt lat="43.78671" lon="4.71865">
        <ele>9</ele>
        <time>2021-07-25T06:43:36Z</time>
      </trkpt>
      <trkpt lat="43.78669" lon="4.71867">
        <ele>9</ele>
        <time>2021-07-25T06:43:37Z</time>
      </trkpt>
      <trkpt lat="43.78667" lon="4.71866">
        <ele>9</ele>
        <time>2021-07-25T06:43:37Z</time>
      </trkpt>
      <trkpt lat="43.78664" lon="4.71865">
        <ele>9</ele>
        <time>2021-07-25T06:43:38Z</time>
      </trkpt>
      <trkpt lat="43.78658" lon="4.71865">
        <ele>9</ele>
        <time>2021-07-25T06:43:39Z</time>
      </trkpt>
      <trkpt lat="43.78655" lon="4.71866">
        <ele>9</ele>
        <time>2021-07-25T06:43:39Z</time>
      </trkpt>
      <trkpt lat="43.78653" lon="4.71868">
        <ele>9</ele>
        <time>2021-07-25T06:43:40Z</time>
      </trkpt>
      <trkpt lat="43.78649" lon="4.71875">
        <ele>9</ele>
        <time>2021-07-25T06:43:41Z</time>
      </trkpt>
      <trkpt lat="43.78648" lon="4.71878">
        <ele>9</ele>
        <time>2021-07-25T06:43:41Z</time>
      </trkpt>
      <trkpt lat="43.78648" lon="4.71881">
        <ele>9</ele>
        <time>2021-07-25T06:43:42Z</time>
      </trkpt>
      <trkpt lat="43.78647" lon="4.71884">
        <ele>9</ele>
        <time>2021-07-25T06:43:42Z</time>
      </trkpt>
      <trkpt lat="43.78643" lon="4.71891">
        <ele>9</ele>
        <time>2021-07-25T06:43:43Z</time>
      </trkpt>
      <trkpt lat="43.78632" lon="4.71902">
        <ele>9</ele>
        <time>2021-07-25T06:43:46Z</time>
      </trkpt>
      <trkpt lat="43.78609" lon="4.7192">
        <ele>10</ele>
        <time>2021-07-25T06:43:50Z</time>
      </trkpt>
      <trkpt lat="43.78572" lon="4.71962">
        <ele>11</ele>
        <time>2021-07-25T06:43:59Z</time>
      </trkpt>
      <trkpt lat="43.78562" lon="4.71978">
        <ele>11</ele>
        <time>2021-07-25T06:44:02Z</time>
      </trkpt>
      <trkpt lat="43.78547" lon="4.72011">
        <ele>11</ele>
        <time>2021-07-25T06:44:07Z</time>
      </trkpt>
      <trkpt lat="43.78524" lon="4.7207">
        <ele>11</ele>
        <time>2021-07-25T06:44:15Z</time>
      </trkpt>
      <trkpt lat="43.78513" lon="4.72099">
        <ele>11</ele>
        <time>2021-07-25T06:44:19Z</time>
      </trkpt>
      <trkpt lat="43.78471" lon="4.72212">
        <ele>9</ele>
        <time>2021-07-25T06:44:36Z</time>
      </trkpt>
      <trkpt lat="43.78337" lon="4.72564">
        <ele>9</ele>
        <time>2021-07-25T06:45:27Z</time>
      </trkpt>
      <trkpt lat="43.78325" lon="4.72595">
        <ele>9</ele>
        <time>2021-07-25T06:45:31Z</time>
      </trkpt>
      <trkpt lat="43.78316" lon="4.72605">
        <ele>10</ele>
        <time>2021-07-25T06:45:33Z</time>
      </trkpt>
      <trkpt lat="43.7831" lon="4.72621">
        <ele>10</ele>
        <time>2021-07-25T06:45:36Z</time>
      </trkpt>
      <trkpt lat="43.78307" lon="4.72641">
        <ele>10</ele>
        <time>2021-07-25T06:45:38Z</time>
      </trkpt>
      <trkpt lat="43.78304" lon="4.72647">
        <ele>10</ele>
        <time>2021-07-25T06:45:39Z</time>
      </trkpt>
      <trkpt lat="43.78301" lon="4.72653">
        <ele>10</ele>
        <time>2021-07-25T06:45:40Z</time>
      </trkpt>
      <trkpt lat="43.78297" lon="4.72653">
        <ele>11</ele>
        <time>2021-07-25T06:45:41Z</time>
      </trkpt>
      <trkpt lat="43.78292" lon="4.72656">
        <ele>11</ele>
        <time>2021-07-25T06:45:42Z</time>
      </trkpt>
      <trkpt lat="43.78289" lon="4.72662">
        <ele>11</ele>
        <time>2021-07-25T06:45:43Z</time>
      </trkpt>
      <trkpt lat="43.78287" lon="4.72669">
        <ele>11</ele>
        <time>2021-07-25T06:45:44Z</time>
      </trkpt>
      <trkpt lat="43.78287" lon="4.72677">
        <ele>11</ele>
        <time>2021-07-25T06:45:45Z</time>
      </trkpt>
      <trkpt lat="43.78286" lon="4.72688">
        <ele>11</ele>
        <time>2021-07-25T06:45:46Z</time>
      </trkpt>
      <trkpt lat="43.78282" lon="4.72706">
        <ele>12</ele>
        <time>2021-07-25T06:45:49Z</time>
      </trkpt>
      <trkpt lat="43.78276" lon="4.72731">
        <ele>12</ele>
        <time>2021-07-25T06:45:52Z</time>
      </trkpt>
      <trkpt lat="43.78245" lon="4.72812">
        <ele>12</ele>
        <time>2021-07-25T06:46:04Z</time>
      </trkpt>
      <trkpt lat="43.782" lon="4.72929">
        <ele>12</ele>
        <time>2021-07-25T06:46:21Z</time>
      </trkpt>
      <trkpt lat="43.78175" lon="4.73003">
        <ele>13</ele>
        <time>2021-07-25T06:46:31Z</time>
      </trkpt>
      <trkpt lat="43.78161" lon="4.73059">
        <ele>12</ele>
        <time>2021-07-25T06:46:39Z</time>
      </trkpt>
      <trkpt lat="43.78157" lon="4.73078">
        <ele>12</ele>
        <time>2021-07-25T06:46:42Z</time>
      </trkpt>
      <trkpt lat="43.7815" lon="4.73111">
        <ele>12</ele>
        <time>2021-07-25T06:46:46Z</time>
      </trkpt>
      <trkpt lat="43.78149" lon="4.73135">
        <ele>12</ele>
        <time>2021-07-25T06:46:49Z</time>
      </trkpt>
      <trkpt lat="43.78149" lon="4.73154">
        <ele>12</ele>
        <time>2021-07-25T06:46:52Z</time>
      </trkpt>
      <trkpt lat="43.78152" lon="4.73173">
        <ele>11</ele>
        <time>2021-07-25T06:46:54Z</time>
      </trkpt>
      <trkpt lat="43.78158" lon="4.73211">
        <ele>12</ele>
        <time>2021-07-25T06:46:59Z</time>
      </trkpt>
      <trkpt lat="43.78181" lon="4.73394">
        <ele>11</ele>
        <time>2021-07-25T06:47:23Z</time>
      </trkpt>
      <trkpt lat="43.78199" lon="4.73444">
        <ele>11</ele>
        <time>2021-07-25T06:47:30Z</time>
      </trkpt>
      <trkpt lat="43.78224" lon="4.73496">
        <ele>12</ele>
        <time>2021-07-25T06:47:38Z</time>
      </trkpt>
      <trkpt lat="43.78252" lon="4.73538">
        <ele>12</ele>
        <time>2021-07-25T06:47:45Z</time>
      </trkpt>
      <trkpt lat="43.7826" lon="4.73557">
        <ele>12</ele>
        <time>2021-07-25T06:47:48Z</time>
      </trkpt>
      <trkpt lat="43.78275" lon="4.7355">
        <ele>11</ele>
        <time>2021-07-25T06:47:51Z</time>
      </trkpt>
      <trkpt lat="43.78298" lon="4.73611">
        <ele>11</ele>
        <time>2021-07-25T06:48:00Z</time>
      </trkpt>
      <trkpt lat="43.78311" lon="4.73673">
        <ele>11</ele>
        <time>2021-07-25T06:48:08Z</time>
      </trkpt>
      <trkpt lat="43.78325" lon="4.73751">
        <ele>11</ele>
        <time>2021-07-25T06:48:19Z</time>
      </trkpt>
      <trkpt lat="43.78328" lon="4.73758">
        <ele>11</ele>
        <time>2021-07-25T06:48:20Z</time>
      </trkpt>
      <trkpt lat="43.78331" lon="4.7379">
        <ele>12</ele>
        <time>2021-07-25T06:48:24Z</time>
      </trkpt>
      <trkpt lat="43.78339" lon="4.73824">
        <ele>13</ele>
        <time>2021-07-25T06:48:28Z</time>
      </trkpt>
      <trkpt lat="43.78354" lon="4.73869">
        <ele>13</ele>
        <time>2021-07-25T06:48:35Z</time>
      </trkpt>
      <trkpt lat="43.7839" lon="4.73966">
        <ele>13</ele>
        <time>2021-07-25T06:48:49Z</time>
      </trkpt>
      <trkpt lat="43.78407" lon="4.74001">
        <ele>13</ele>
        <time>2021-07-25T06:48:54Z</time>
      </trkpt>
      <trkpt lat="43.78465" lon="4.73969">
        <ele>11</ele>
        <time>2021-07-25T06:49:05Z</time>
      </trkpt>
      <trkpt lat="43.78468" lon="4.73976">
        <ele>11</ele>
        <time>2021-07-25T06:49:06Z</time>
      </trkpt>
      <trkpt lat="43.78598" lon="4.74259">
        <ele>11</ele>
        <time>2021-07-25T06:49:49Z</time>
      </trkpt>
      <trkpt lat="43.78666" lon="4.74405">
        <ele>8</ele>
        <time>2021-07-25T06:50:12Z</time>
      </trkpt>
      <trkpt lat="43.78696" lon="4.74487">
        <ele>10</ele>
        <time>2021-07-25T06:50:23Z</time>
      </trkpt>
      <trkpt lat="43.78722" lon="4.746">
        <ele>10</ele>
        <time>2021-07-25T06:50:39Z</time>
      </trkpt>
      <trkpt lat="43.78727" lon="4.7465">
        <ele>10</ele>
        <time>2021-07-25T06:50:45Z</time>
      </trkpt>
      <trkpt lat="43.78736" lon="4.74771">
        <ele>12</ele>
        <time>2021-07-25T06:51:01Z</time>
      </trkpt>
      <trkpt lat="43.78747" lon="4.74889">
        <ele>11</ele>
        <time>2021-07-25T06:51:16Z</time>
      </trkpt>
      <trkpt lat="43.78767" lon="4.74989">
        <ele>10</ele>
        <time>2021-07-25T06:51:29Z</time>
      </trkpt>
      <trkpt lat="43.78798" lon="4.75097">
        <ele>11</ele>
        <time>2021-07-25T06:51:44Z</time>
      </trkpt>
      <trkpt lat="43.78846" lon="4.75196">
        <ele>10</ele>
        <time>2021-07-25T06:52:00Z</time>
      </trkpt>
      <trkpt lat="43.7895" lon="4.75382">
        <ele>11</ele>
        <time>2021-07-25T06:52:30Z</time>
      </trkpt>
      <trkpt lat="43.78988" lon="4.75453">
        <ele>12</ele>
        <time>2021-07-25T06:52:41Z</time>
      </trkpt>
      <trkpt lat="43.78989" lon="4.75455">
        <ele>12</ele>
        <time>2021-07-25T06:52:42Z</time>
      </trkpt>
      <trkpt lat="43.78991" lon="4.75459">
        <ele>12</ele>
        <time>2021-07-25T06:52:42Z</time>
      </trkpt>
      <trkpt lat="43.79022" lon="4.75517">
        <ele>10</ele>
        <time>2021-07-25T06:52:51Z</time>
      </trkpt>
      <trkpt lat="43.79023" lon="4.75519">
        <ele>10</ele>
        <time>2021-07-25T06:52:52Z</time>
      </trkpt>
      <trkpt lat="43.79075" lon="4.75617">
        <ele>8</ele>
        <time>2021-07-25T06:53:07Z</time>
      </trkpt>
      <trkpt lat="43.79152" lon="4.75754">
        <ele>8</ele>
        <time>2021-07-25T06:53:30Z</time>
      </trkpt>
      <trkpt lat="43.79254" lon="4.7594">
        <ele>10</ele>
        <time>2021-07-25T06:54:00Z</time>
      </trkpt>
      <trkpt lat="43.79286" lon="4.76005">
        <ele>10</ele>
        <time>2021-07-25T06:54:10Z</time>
      </trkpt>
      <trkpt lat="43.79315" lon="4.76076">
        <ele>9</ele>
        <time>2021-07-25T06:54:20Z</time>
      </trkpt>
      <trkpt lat="43.79341" lon="4.76163">
        <ele>10</ele>
        <time>2021-07-25T06:54:32Z</time>
      </trkpt>
      <trkpt lat="43.79387" lon="4.76343">
        <ele>12</ele>
        <time>2021-07-25T06:54:57Z</time>
      </trkpt>
      <trkpt lat="43.79452" lon="4.76635">
        <ele>10</ele>
        <time>2021-07-25T06:55:36Z</time>
      </trkpt>
      <trkpt lat="43.7947" lon="4.76725">
        <ele>10</ele>
        <time>2021-07-25T06:55:48Z</time>
      </trkpt>
      <trkpt lat="43.79482" lon="4.76828">
        <ele>12</ele>
        <time>2021-07-25T06:56:02Z</time>
      </trkpt>
      <trkpt lat="43.79508" lon="4.77071">
        <ele>10</ele>
        <time>2021-07-25T06:56:33Z</time>
      </trkpt>
      <trkpt lat="43.79541" lon="4.7733">
        <ele>12</ele>
        <time>2021-07-25T06:57:07Z</time>
      </trkpt>
      <trkpt lat="43.79578" lon="4.7765">
        <ele>12</ele>
        <time>2021-07-25T06:57:48Z</time>
      </trkpt>
      <trkpt lat="43.79599" lon="4.77851">
        <ele>15</ele>
        <time>2021-07-25T06:58:15Z</time>
      </trkpt>
      <trkpt lat="43.79604" lon="4.77893">
        <ele>16</ele>
        <time>2021-07-25T06:58:20Z</time>
      </trkpt>
      <trkpt lat="43.79611" lon="4.77952">
        <ele>16</ele>
        <time>2021-07-25T06:58:28Z</time>
      </trkpt>
      <trkpt lat="43.79626" lon="4.78074">
        <ele>18</ele>
        <time>2021-07-25T06:58:44Z</time>
      </trkpt>
      <trkpt lat="43.79638" lon="4.78167">
        <ele>18</ele>
        <time>2021-07-25T06:58:56Z</time>
      </trkpt>
      <trkpt lat="43.79654" lon="4.78266">
        <ele>17</ele>
        <time>2021-07-25T06:59:09Z</time>
      </trkpt>
      <trkpt lat="43.79675" lon="4.78367">
        <ele>18</ele>
        <time>2021-07-25T06:59:22Z</time>
      </trkpt>
      <trkpt lat="43.79785" lon="4.78849">
        <ele>16</ele>
        <time>2021-07-25T07:00:27Z</time>
      </trkpt>
      <trkpt lat="43.7979" lon="4.78878">
        <ele>16</ele>
        <time>2021-07-25T07:00:31Z</time>
      </trkpt>
      <trkpt lat="43.79797" lon="4.78944">
        <ele>16</ele>
        <time>2021-07-25T07:00:40Z</time>
      </trkpt>
      <trkpt lat="43.798" lon="4.79001">
        <ele>16</ele>
        <time>2021-07-25T07:00:47Z</time>
      </trkpt>
      <trkpt lat="43.79796" lon="4.79453">
        <ele>14</ele>
        <time>2021-07-25T07:01:45Z</time>
      </trkpt>
      <trkpt lat="43.79791" lon="4.79756">
        <ele>17</ele>
        <time>2021-07-25T07:02:24Z</time>
      </trkpt>
      <trkpt lat="43.7979" lon="4.79849">
        <ele>17</ele>
        <time>2021-07-25T07:02:36Z</time>
      </trkpt>
      <trkpt lat="43.79789" lon="4.79944">
        <ele>19</ele>
        <time>2021-07-25T07:02:48Z</time>
      </trkpt>
      <trkpt lat="43.79789" lon="4.79955">
        <ele>19</ele>
        <time>2021-07-25T07:02:49Z</time>
      </trkpt>
      <trkpt lat="43.79789" lon="4.79998">
        <ele>19</ele>
        <time>2021-07-25T07:02:55Z</time>
      </trkpt>
      <trkpt lat="43.79789" lon="4.80007">
        <ele>19</ele>
        <time>2021-07-25T07:02:56Z</time>
      </trkpt>
      <trkpt lat="43.79787" lon="4.8017">
        <ele>17</ele>
        <time>2021-07-25T07:03:17Z</time>
      </trkpt>
      <trkpt lat="43.79791" lon="4.80485">
        <ele>18</ele>
        <time>2021-07-25T07:03:58Z</time>
      </trkpt>
      <trkpt lat="43.79791" lon="4.80501">
        <ele>18</ele>
        <time>2021-07-25T07:04:00Z</time>
      </trkpt>
      <trkpt lat="43.79795" lon="4.80618">
        <ele>19</ele>
        <time>2021-07-25T07:04:15Z</time>
      </trkpt>
      <trkpt lat="43.79797" lon="4.80801">
        <ele>20</ele>
        <time>2021-07-25T07:04:38Z</time>
      </trkpt>
      <trkpt lat="43.79791" lon="4.80897">
        <ele>20</ele>
        <time>2021-07-25T07:04:50Z</time>
      </trkpt>
      <trkpt lat="43.79786" lon="4.80947">
        <ele>20</ele>
        <time>2021-07-25T07:04:57Z</time>
      </trkpt>
      <trkpt lat="43.7978" lon="4.8099">
        <ele>20</ele>
        <time>2021-07-25T07:05:03Z</time>
      </trkpt>
      <trkpt lat="43.79768" lon="4.81053">
        <ele>21</ele>
        <time>2021-07-25T07:05:11Z</time>
      </trkpt>
      <trkpt lat="43.79752" lon="4.81118">
        <ele>21</ele>
        <time>2021-07-25T07:05:20Z</time>
      </trkpt>
      <trkpt lat="43.79723" lon="4.81213">
        <ele>22</ele>
        <time>2021-07-25T07:05:33Z</time>
      </trkpt>
      <trkpt lat="43.79677" lon="4.8133">
        <ele>25</ele>
        <time>2021-07-25T07:05:50Z</time>
      </trkpt>
      <trkpt lat="43.79619" lon="4.81442">
        <ele>27</ele>
        <time>2021-07-25T07:06:08Z</time>
      </trkpt>
      <trkpt lat="43.79535" lon="4.81615">
        <ele>31</ele>
        <time>2021-07-25T07:06:35Z</time>
      </trkpt>
      <trkpt lat="43.79531" lon="4.81622">
        <ele>31</ele>
        <time>2021-07-25T07:06:36Z</time>
      </trkpt>
      <trkpt lat="43.79504" lon="4.81677">
        <ele>32</ele>
        <time>2021-07-25T07:06:44Z</time>
      </trkpt>
      <trkpt lat="43.7949" lon="4.81687">
        <ele>32</ele>
        <time>2021-07-25T07:06:47Z</time>
      </trkpt>
      <trkpt lat="43.7948" lon="4.81688">
        <ele>32</ele>
        <time>2021-07-25T07:06:49Z</time>
      </trkpt>
      <trkpt lat="43.79468" lon="4.81784">
        <ele>31</ele>
        <time>2021-07-25T07:07:01Z</time>
      </trkpt>
      <trkpt lat="43.79437" lon="4.81927">
        <ele>32</ele>
        <time>2021-07-25T07:07:21Z</time>
      </trkpt>
      <trkpt lat="43.79327" lon="4.82409">
        <ele>39</ele>
        <time>2021-07-25T07:08:26Z</time>
      </trkpt>
      <trkpt lat="43.79314" lon="4.8248">
        <ele>40</ele>
        <time>2021-07-25T07:08:35Z</time>
      </trkpt>
      <trkpt lat="43.79309" lon="4.82515">
        <ele>40</ele>
        <time>2021-07-25T07:08:40Z</time>
      </trkpt>
      <trkpt lat="43.79307" lon="4.82544">
        <ele>40</ele>
        <time>2021-07-25T07:08:43Z</time>
      </trkpt>
      <trkpt lat="43.79309" lon="4.82585">
        <ele>41</ele>
        <time>2021-07-25T07:08:49Z</time>
      </trkpt>
      <trkpt lat="43.79306" lon="4.82586">
        <ele>41</ele>
        <time>2021-07-25T07:08:49Z</time>
      </trkpt>
      <trkpt lat="43.79298" lon="4.82589">
        <ele>41</ele>
        <time>2021-07-25T07:08:51Z</time>
      </trkpt>
      <trkpt lat="43.79292" lon="4.826">
        <ele>41</ele>
        <time>2021-07-25T07:08:52Z</time>
      </trkpt>
      <trkpt lat="43.79286" lon="4.82607">
        <ele>41</ele>
        <time>2021-07-25T07:08:54Z</time>
      </trkpt>
      <trkpt lat="43.79285" lon="4.82613">
        <ele>41</ele>
        <time>2021-07-25T07:08:55Z</time>
      </trkpt>
      <trkpt lat="43.79285" lon="4.82626">
        <ele>41</ele>
        <time>2021-07-25T07:08:56Z</time>
      </trkpt>
      <trkpt lat="43.79292" lon="4.82647">
        <ele>41</ele>
        <time>2021-07-25T07:08:59Z</time>
      </trkpt>
      <trkpt lat="43.79296" lon="4.82696">
        <ele>42</ele>
        <time>2021-07-25T07:09:05Z</time>
      </trkpt>
      <trkpt lat="43.79315" lon="4.82929">
        <ele>43</ele>
        <time>2021-07-25T07:09:36Z</time>
      </trkpt>
      <trkpt lat="43.79312" lon="4.82944">
        <ele>43</ele>
        <time>2021-07-25T07:09:38Z</time>
      </trkpt>
      <trkpt lat="43.79308" lon="4.82957">
        <ele>43</ele>
        <time>2021-07-25T07:09:39Z</time>
      </trkpt>
      <trkpt lat="43.79303" lon="4.82968">
        <ele>43</ele>
        <time>2021-07-25T07:09:41Z</time>
      </trkpt>
      <trkpt lat="43.79302" lon="4.82975">
        <ele>44</ele>
        <time>2021-07-25T07:09:42Z</time>
      </trkpt>
      <trkpt lat="43.79305" lon="4.82988">
        <ele>44</ele>
        <time>2021-07-25T07:09:44Z</time>
      </trkpt>
      <trkpt lat="43.79308" lon="4.82993">
        <ele>44</ele>
        <time>2021-07-25T07:09:45Z</time>
      </trkpt>
      <trkpt lat="43.79314" lon="4.82997">
        <ele>43</ele>
        <time>2021-07-25T07:09:46Z</time>
      </trkpt>
      <trkpt lat="43.79319" lon="4.83012">
        <ele>43</ele>
        <time>2021-07-25T07:09:48Z</time>
      </trkpt>
      <trkpt lat="43.79325" lon="4.83045">
        <ele>43</ele>
        <time>2021-07-25T07:09:52Z</time>
      </trkpt>
      <trkpt lat="43.79324" lon="4.83064">
        <ele>43</ele>
        <time>2021-07-25T07:09:55Z</time>
      </trkpt>
      <trkpt lat="43.7932" lon="4.83084">
        <ele>42</ele>
        <time>2021-07-25T07:09:57Z</time>
      </trkpt>
      <trkpt lat="43.79291" lon="4.83196">
        <ele>44</ele>
        <time>2021-07-25T07:10:13Z</time>
      </trkpt>
      <trkpt lat="43.79276" lon="4.83279">
        <ele>46</ele>
        <time>2021-07-25T07:10:24Z</time>
      </trkpt>
      <trkpt lat="43.79272" lon="4.83295">
        <ele>46</ele>
        <time>2021-07-25T07:10:26Z</time>
      </trkpt>
      <trkpt lat="43.79272" lon="4.83315">
        <ele>47</ele>
        <time>2021-07-25T07:10:28Z</time>
      </trkpt>
      <trkpt lat="43.79271" lon="4.83325">
        <ele>47</ele>
        <time>2021-07-25T07:10:30Z</time>
      </trkpt>
      <trkpt lat="43.79265" lon="4.83337">
        <ele>47</ele>
        <time>2021-07-25T07:10:32Z</time>
      </trkpt>
      <trkpt lat="43.79264" lon="4.83342">
        <ele>47</ele>
        <time>2021-07-25T07:10:32Z</time>
      </trkpt>
      <trkpt lat="43.79271" lon="4.83368">
        <ele>47</ele>
        <time>2021-07-25T07:10:36Z</time>
      </trkpt>
      <trkpt lat="43.79271" lon="4.83382">
        <ele>48</ele>
        <time>2021-07-25T07:10:38Z</time>
      </trkpt>
      <trkpt lat="43.79267" lon="4.83424">
        <ele>48</ele>
        <time>2021-07-25T07:10:43Z</time>
      </trkpt>
      <trkpt lat="43.79267" lon="4.83448">
        <ele>48</ele>
        <time>2021-07-25T07:10:46Z</time>
      </trkpt>
      <trkpt lat="43.79263" lon="4.83476">
        <ele>49</ele>
        <time>2021-07-25T07:10:50Z</time>
      </trkpt>
      <trkpt lat="43.79244" lon="4.83563">
        <ele>50</ele>
        <time>2021-07-25T07:11:01Z</time>
      </trkpt>
      <trkpt lat="43.7924" lon="4.83591">
        <ele>50</ele>
        <time>2021-07-25T07:11:05Z</time>
      </trkpt>
      <trkpt lat="43.79239" lon="4.83637">
        <ele>50</ele>
        <time>2021-07-25T07:11:11Z</time>
      </trkpt>
      <trkpt lat="43.79243" lon="4.83637">
        <ele>49</ele>
        <time>2021-07-25T07:11:12Z</time>
      </trkpt>
      <trkpt lat="43.79245" lon="4.83637">
        <ele>49</ele>
        <time>2021-07-25T07:11:12Z</time>
      </trkpt>
      <trkpt lat="43.79248" lon="4.83669">
        <ele>49</ele>
        <time>2021-07-25T07:11:16Z</time>
      </trkpt>
      <trkpt lat="43.79251" lon="4.83675">
        <ele>49</ele>
        <time>2021-07-25T07:11:17Z</time>
      </trkpt>
      <trkpt lat="43.79249" lon="4.83681">
        <ele>49</ele>
        <time>2021-07-25T07:11:18Z</time>
      </trkpt>
      <trkpt lat="43.7925" lon="4.83732">
        <ele>49</ele>
        <time>2021-07-25T07:11:25Z</time>
      </trkpt>
      <trkpt lat="43.7925" lon="4.83768">
        <ele>49</ele>
        <time>2021-07-25T07:11:29Z</time>
      </trkpt>
      <trkpt lat="43.79248" lon="4.83826">
        <ele>50</ele>
        <time>2021-07-25T07:11:37Z</time>
      </trkpt>
      <trkpt lat="43.79247" lon="4.83868">
        <ele>50</ele>
        <time>2021-07-25T07:11:42Z</time>
      </trkpt>
      <trkpt lat="43.79248" lon="4.83901">
        <ele>50</ele>
        <time>2021-07-25T07:11:46Z</time>
      </trkpt>
      <trkpt lat="43.79251" lon="4.83914">
        <ele>50</ele>
        <time>2021-07-25T07:11:48Z</time>
      </trkpt>
      <trkpt lat="43.79259" lon="4.83915">
        <ele>50</ele>
        <time>2021-07-25T07:11:49Z</time>
      </trkpt>
      <trkpt lat="43.7926" lon="4.8392">
        <ele>50</ele>
        <time>2021-07-25T07:11:50Z</time>
      </trkpt>
      <trkpt lat="43.79261" lon="4.83924">
        <ele>50</ele>
        <time>2021-07-25T07:11:51Z</time>
      </trkpt>
      <trkpt lat="43.79262" lon="4.83928">
        <ele>49</ele>
        <time>2021-07-25T07:11:51Z</time>
      </trkpt>
      <trkpt lat="43.79246" lon="4.83953">
        <ele>50</ele>
        <time>2021-07-25T07:11:56Z</time>
      </trkpt>
      <trkpt lat="43.79241" lon="4.83958">
        <ele>50</ele>
        <time>2021-07-25T07:11:57Z</time>
      </trkpt>
      <trkpt lat="43.7924" lon="4.83968">
        <ele>50</ele>
        <time>2021-07-25T07:11:58Z</time>
      </trkpt>
      <trkpt lat="43.79225" lon="4.84091">
        <ele>49</ele>
        <time>2021-07-25T07:12:14Z</time>
      </trkpt>
      <trkpt lat="43.79222" lon="4.84132">
        <ele>49</ele>
        <time>2021-07-25T07:12:19Z</time>
      </trkpt>
      <trkpt lat="43.79217" lon="4.84149">
        <ele>50</ele>
        <time>2021-07-25T07:12:22Z</time>
      </trkpt>
      <trkpt lat="43.79212" lon="4.84164">
        <ele>50</ele>
        <time>2021-07-25T07:12:24Z</time>
      </trkpt>
      <trkpt lat="43.792" lon="4.84199">
        <ele>51</ele>
        <time>2021-07-25T07:12:29Z</time>
      </trkpt>
      <trkpt lat="43.79185" lon="4.84235">
        <ele>52</ele>
        <time>2021-07-25T07:12:34Z</time>
      </trkpt>
      <trkpt lat="43.79141" lon="4.84335">
        <ele>52</ele>
        <time>2021-07-25T07:12:49Z</time>
      </trkpt>
      <trkpt lat="43.79109" lon="4.84411">
        <ele>52</ele>
        <time>2021-07-25T07:13:00Z</time>
      </trkpt>
      <trkpt lat="43.79099" lon="4.84444">
        <ele>53</ele>
        <time>2021-07-25T07:13:05Z</time>
      </trkpt>
      <trkpt lat="43.7909" lon="4.84492">
        <ele>54</ele>
        <time>2021-07-25T07:13:11Z</time>
      </trkpt>
      <trkpt lat="43.7909" lon="4.84506">
        <ele>54</ele>
        <time>2021-07-25T07:13:13Z</time>
      </trkpt>
      <trkpt lat="43.79097" lon="4.84525">
        <ele>54</ele>
        <time>2021-07-25T07:13:16Z</time>
      </trkpt>
      <trkpt lat="43.79098" lon="4.84539">
        <ele>54</ele>
        <time>2021-07-25T07:13:18Z</time>
      </trkpt>
      <trkpt lat="43.79097" lon="4.84553">
        <ele>55</ele>
        <time>2021-07-25T07:13:19Z</time>
      </trkpt>
      <trkpt lat="43.79095" lon="4.84564">
        <ele>55</ele>
        <time>2021-07-25T07:13:21Z</time>
      </trkpt>
      <trkpt lat="43.79095" lon="4.84571">
        <ele>55</ele>
        <time>2021-07-25T07:13:22Z</time>
      </trkpt>
      <trkpt lat="43.7909" lon="4.8458">
        <ele>55</ele>
        <time>2021-07-25T07:13:23Z</time>
      </trkpt>
      <trkpt lat="43.79083" lon="4.84587">
        <ele>55</ele>
        <time>2021-07-25T07:13:25Z</time>
      </trkpt>
      <trkpt lat="43.7908" lon="4.84595">
        <ele>55</ele>
        <time>2021-07-25T07:13:26Z</time>
      </trkpt>
      <trkpt lat="43.79068" lon="4.84682">
        <ele>55</ele>
        <time>2021-07-25T07:13:37Z</time>
      </trkpt>
      <trkpt lat="43.79059" lon="4.84751">
        <ele>56</ele>
        <time>2021-07-25T07:13:46Z</time>
      </trkpt>
      <trkpt lat="43.79056" lon="4.84778">
        <ele>56</ele>
        <time>2021-07-25T07:13:50Z</time>
      </trkpt>
      <trkpt lat="43.79055" lon="4.84796">
        <ele>56</ele>
        <time>2021-07-25T07:13:52Z</time>
      </trkpt>
      <trkpt lat="43.79056" lon="4.84818">
        <ele>56</ele>
        <time>2021-07-25T07:13:55Z</time>
      </trkpt>
      <trkpt lat="43.79059" lon="4.84841">
        <ele>56</ele>
        <time>2021-07-25T07:13:58Z</time>
      </trkpt>
      <trkpt lat="43.79068" lon="4.84891">
        <ele>57</ele>
        <time>2021-07-25T07:14:05Z</time>
      </trkpt>
      <trkpt lat="43.79076" lon="4.84903">
        <ele>57</ele>
        <time>2021-07-25T07:14:07Z</time>
      </trkpt>
      <trkpt lat="43.79086" lon="4.84926">
        <ele>57</ele>
        <time>2021-07-25T07:14:10Z</time>
      </trkpt>
      <trkpt lat="43.79089" lon="4.84941">
        <ele>57</ele>
        <time>2021-07-25T07:14:12Z</time>
      </trkpt>
      <trkpt lat="43.79088" lon="4.84951">
        <ele>57</ele>
        <time>2021-07-25T07:14:14Z</time>
      </trkpt>
      <trkpt lat="43.79082" lon="4.8496">
        <ele>57</ele>
        <time>2021-07-25T07:14:15Z</time>
      </trkpt>
      <trkpt lat="43.79078" lon="4.84964">
        <ele>57</ele>
        <time>2021-07-25T07:14:16Z</time>
      </trkpt>
      <trkpt lat="43.79076" lon="4.84968">
        <ele>57</ele>
        <time>2021-07-25T07:14:17Z</time>
      </trkpt>
      <trkpt lat="43.79094" lon="4.84982">
        <ele>56</ele>
        <time>2021-07-25T07:14:20Z</time>
      </trkpt>
      <trkpt lat="43.79114" lon="4.85019">
        <ele>56</ele>
        <time>2021-07-25T07:14:26Z</time>
      </trkpt>
      <trkpt lat="43.79123" lon="4.85036">
        <ele>55</ele>
        <time>2021-07-25T07:14:29Z</time>
      </trkpt>
      <trkpt lat="43.79151" lon="4.85073">
        <ele>55</ele>
        <time>2021-07-25T07:14:36Z</time>
      </trkpt>
      <trkpt lat="43.79207" lon="4.85124">
        <ele>55</ele>
        <time>2021-07-25T07:14:48Z</time>
      </trkpt>
      <trkpt lat="43.79238" lon="4.85158">
        <ele>54</ele>
        <time>2021-07-25T07:14:55Z</time>
      </trkpt>
      <trkpt lat="43.79269" lon="4.85204">
        <ele>54</ele>
        <time>2021-07-25T07:15:03Z</time>
      </trkpt>
      <trkpt lat="43.79286" lon="4.85233">
        <ele>54</ele>
        <time>2021-07-25T07:15:08Z</time>
      </trkpt>
      <trkpt lat="43.79299" lon="4.85259">
        <ele>53</ele>
        <time>2021-07-25T07:15:12Z</time>
      </trkpt>
      <trkpt lat="43.79369" lon="4.85444">
        <ele>54</ele>
        <time>2021-07-25T07:15:39Z</time>
      </trkpt>
      <trkpt lat="43.79382" lon="4.85476">
        <ele>54</ele>
        <time>2021-07-25T07:15:43Z</time>
      </trkpt>
      <trkpt lat="43.79392" lon="4.85495">
        <ele>54</ele>
        <time>2021-07-25T07:15:46Z</time>
      </trkpt>
      <trkpt lat="43.79409" lon="4.85519">
        <ele>53</ele>
        <time>2021-07-25T07:15:51Z</time>
      </trkpt>
      <trkpt lat="43.79423" lon="4.85534">
        <ele>53</ele>
        <time>2021-07-25T07:15:54Z</time>
      </trkpt>
      <trkpt lat="43.79423" lon="4.85543">
        <ele>53</ele>
        <time>2021-07-25T07:15:55Z</time>
      </trkpt>
      <trkpt lat="43.79426" lon="4.85551">
        <ele>53</ele>
        <time>2021-07-25T07:15:56Z</time>
      </trkpt>
      <trkpt lat="43.79427" lon="4.85563">
        <ele>53</ele>
        <time>2021-07-25T07:15:58Z</time>
      </trkpt>
      <trkpt lat="43.79435" lon="4.85585">
        <ele>53</ele>
        <time>2021-07-25T07:16:01Z</time>
      </trkpt>
      <trkpt lat="43.7944" lon="4.85603">
        <ele>53</ele>
        <time>2021-07-25T07:16:03Z</time>
      </trkpt>
      <trkpt lat="43.79444" lon="4.8562">
        <ele>53</ele>
        <time>2021-07-25T07:16:06Z</time>
      </trkpt>
      <trkpt lat="43.7946" lon="4.85658">
        <ele>52</ele>
        <time>2021-07-25T07:16:11Z</time>
      </trkpt>
      <trkpt lat="43.7948" lon="4.85714">
        <ele>52</ele>
        <time>2021-07-25T07:16:19Z</time>
      </trkpt>
      <trkpt lat="43.79487" lon="4.85744">
        <ele>52</ele>
        <time>2021-07-25T07:16:23Z</time>
      </trkpt>
      <trkpt lat="43.79492" lon="4.85791">
        <ele>51</ele>
        <time>2021-07-25T07:16:29Z</time>
      </trkpt>
      <trkpt lat="43.79495" lon="4.85925">
        <ele>49</ele>
        <time>2021-07-25T07:16:47Z</time>
      </trkpt>
      <trkpt lat="43.79497" lon="4.86096">
        <ele>50</ele>
        <time>2021-07-25T07:17:09Z</time>
      </trkpt>
      <trkpt lat="43.79502" lon="4.86191">
        <ele>50</ele>
        <time>2021-07-25T07:17:21Z</time>
      </trkpt>
      <trkpt lat="43.79506" lon="4.86225">
        <ele>51</ele>
        <time>2021-07-25T07:17:25Z</time>
      </trkpt>
      <trkpt lat="43.79506" lon="4.86262">
        <ele>51</ele>
        <time>2021-07-25T07:17:30Z</time>
      </trkpt>
      <trkpt lat="43.79498" lon="4.86361">
        <ele>51</ele>
        <time>2021-07-25T07:17:43Z</time>
      </trkpt>
      <trkpt lat="43.7949" lon="4.86428">
        <ele>50</ele>
        <time>2021-07-25T07:17:51Z</time>
      </trkpt>
      <trkpt lat="43.79481" lon="4.86556">
        <ele>50</ele>
        <time>2021-07-25T07:18:08Z</time>
      </trkpt>
      <trkpt lat="43.79477" lon="4.86659">
        <ele>50</ele>
        <time>2021-07-25T07:18:21Z</time>
      </trkpt>
      <trkpt lat="43.79478" lon="4.86687">
        <ele>50</ele>
        <time>2021-07-25T07:18:25Z</time>
      </trkpt>
      <trkpt lat="43.79478" lon="4.86693">
        <ele>50</ele>
        <time>2021-07-25T07:18:26Z</time>
      </trkpt>
      <trkpt lat="43.79481" lon="4.86703">
        <ele>50</ele>
        <time>2021-07-25T07:18:27Z</time>
      </trkpt>
      <trkpt lat="43.79486" lon="4.86715">
        <ele>50</ele>
        <time>2021-07-25T07:18:29Z</time>
      </trkpt>
      <trkpt lat="43.79497" lon="4.86725">
        <ele>49</ele>
        <time>2021-07-25T07:18:31Z</time>
      </trkpt>
      <trkpt lat="43.79513" lon="4.86729">
        <ele>49</ele>
        <time>2021-07-25T07:18:34Z</time>
      </trkpt>
      <trkpt lat="43.79646" lon="4.86704">
        <ele>48</ele>
        <time>2021-07-25T07:18:58Z</time>
      </trkpt>
      <trkpt lat="43.7967" lon="4.86702">
        <ele>47</ele>
        <time>2021-07-25T07:19:02Z</time>
      </trkpt>
      <trkpt lat="43.79691" lon="4.86706">
        <ele>47</ele>
        <time>2021-07-25T07:19:06Z</time>
      </trkpt>
      <trkpt lat="43.79697" lon="4.86713">
        <ele>48</ele>
        <time>2021-07-25T07:19:07Z</time>
      </trkpt>
      <trkpt lat="43.79702" lon="4.86725">
        <ele>48</ele>
        <time>2021-07-25T07:19:09Z</time>
      </trkpt>
      <trkpt lat="43.79782" lon="4.87065">
        <ele>47</ele>
        <time>2021-07-25T07:19:55Z</time>
      </trkpt>
      <trkpt lat="43.79789" lon="4.87087">
        <ele>47</ele>
        <time>2021-07-25T07:19:58Z</time>
      </trkpt>
      <trkpt lat="43.79797" lon="4.87097">
        <ele>46</ele>
        <time>2021-07-25T07:20:00Z</time>
      </trkpt>
      <trkpt lat="43.79808" lon="4.87102">
        <ele>46</ele>
        <time>2021-07-25T07:20:02Z</time>
      </trkpt>
      <trkpt lat="43.79943" lon="4.87064">
        <ele>48</ele>
        <time>2021-07-25T07:20:27Z</time>
      </trkpt>
      <trkpt lat="43.80141" lon="4.87038">
        <ele>48</ele>
        <time>2021-07-25T07:21:02Z</time>
      </trkpt>
      <trkpt lat="43.80291" lon="4.8709">
        <ele>48</ele>
        <time>2021-07-25T07:21:30Z</time>
      </trkpt>
      <trkpt lat="43.80462" lon="4.87169">
        <ele>47</ele>
        <time>2021-07-25T07:22:02Z</time>
      </trkpt>
      <trkpt lat="43.80479" lon="4.87185">
        <ele>47</ele>
        <time>2021-07-25T07:22:05Z</time>
      </trkpt>
      <trkpt lat="43.80476" lon="4.87195">
        <ele>47</ele>
        <time>2021-07-25T07:22:07Z</time>
      </trkpt>
      <trkpt lat="43.80475" lon="4.87198">
        <ele>47</ele>
        <time>2021-07-25T07:22:07Z</time>
      </trkpt>
      <trkpt lat="43.80474" lon="4.87209">
        <ele>47</ele>
        <time>2021-07-25T07:22:08Z</time>
      </trkpt>
      <trkpt lat="43.80446" lon="4.87375">
        <ele>46</ele>
        <time>2021-07-25T07:22:30Z</time>
      </trkpt>
      <trkpt lat="43.80323" lon="4.88288">
        <ele>47</ele>
        <time>2021-07-25T07:24:30Z</time>
      </trkpt>
      <trkpt lat="43.80474" lon="4.88345">
        <ele>46</ele>
        <time>2021-07-25T07:24:57Z</time>
      </trkpt>
      <trkpt lat="43.80483" lon="4.88352">
        <ele>46</ele>
        <time>2021-07-25T07:24:59Z</time>
      </trkpt>
      <trkpt lat="43.80487" lon="4.88365">
        <ele>45</ele>
        <time>2021-07-25T07:25:01Z</time>
      </trkpt>
      <trkpt lat="43.80499" lon="4.8877">
        <ele>45</ele>
        <time>2021-07-25T07:25:53Z</time>
      </trkpt>
      <trkpt lat="43.805" lon="4.88789">
        <ele>45</ele>
        <time>2021-07-25T07:25:56Z</time>
      </trkpt>
      <trkpt lat="43.80509" lon="4.89054">
        <ele>47</ele>
        <time>2021-07-25T07:26:30Z</time>
      </trkpt>
      <trkpt lat="43.80518" lon="4.89263">
        <ele>47</ele>
        <time>2021-07-25T07:26:57Z</time>
      </trkpt>
      <trkpt lat="43.80528" lon="4.89538">
        <ele>46</ele>
        <time>2021-07-25T07:27:32Z</time>
      </trkpt>
      <trkpt lat="43.80528" lon="4.89557">
        <ele>46</ele>
        <time>2021-07-25T07:27:34Z</time>
      </trkpt>
      <trkpt lat="43.80524" lon="4.89588">
        <ele>46</ele>
        <time>2021-07-25T07:27:38Z</time>
      </trkpt>
      <trkpt lat="43.80503" lon="4.89689">
        <ele>45</ele>
        <time>2021-07-25T07:27:52Z</time>
      </trkpt>
      <trkpt lat="43.80476" lon="4.89808">
        <ele>47</ele>
        <time>2021-07-25T07:28:08Z</time>
      </trkpt>
      <trkpt lat="43.80426" lon="4.90013">
        <ele>49</ele>
        <time>2021-07-25T07:28:36Z</time>
      </trkpt>
      <trkpt lat="43.80425" lon="4.90021">
        <ele>49</ele>
        <time>2021-07-25T07:28:37Z</time>
      </trkpt>
      <trkpt lat="43.80424" lon="4.90035">
        <ele>49</ele>
        <time>2021-07-25T07:28:39Z</time>
      </trkpt>
      <trkpt lat="43.80407" lon="4.90151">
        <ele>49</ele>
        <time>2021-07-25T07:28:54Z</time>
      </trkpt>
      <trkpt lat="43.804" lon="4.90225">
        <ele>47</ele>
        <time>2021-07-25T07:29:03Z</time>
      </trkpt>
      <trkpt lat="43.80401" lon="4.9042">
        <ele>46</ele>
        <time>2021-07-25T07:29:28Z</time>
      </trkpt>
      <trkpt lat="43.80405" lon="4.90559">
        <ele>48</ele>
        <time>2021-07-25T07:29:46Z</time>
      </trkpt>
      <trkpt lat="43.80402" lon="4.90626">
        <ele>48</ele>
        <time>2021-07-25T07:29:55Z</time>
      </trkpt>
      <trkpt lat="43.80397" lon="4.9066">
        <ele>47</ele>
        <time>2021-07-25T07:29:59Z</time>
      </trkpt>
      <trkpt lat="43.80389" lon="4.90693">
        <ele>47</ele>
        <time>2021-07-25T07:30:04Z</time>
      </trkpt>
      <trkpt lat="43.80355" lon="4.90806">
        <ele>49</ele>
        <time>2021-07-25T07:30:20Z</time>
      </trkpt>
      <trkpt lat="43.80318" lon="4.90922">
        <ele>49</ele>
        <time>2021-07-25T07:30:36Z</time>
      </trkpt>
      <trkpt lat="43.80312" lon="4.90945">
        <ele>48</ele>
        <time>2021-07-25T07:30:39Z</time>
      </trkpt>
      <trkpt lat="43.8031" lon="4.90957">
        <ele>48</ele>
        <time>2021-07-25T07:30:41Z</time>
      </trkpt>
      <trkpt lat="43.80306" lon="4.90977">
        <ele>48</ele>
        <time>2021-07-25T07:30:43Z</time>
      </trkpt>
      <trkpt lat="43.80295" lon="4.91104">
        <ele>49</ele>
        <time>2021-07-25T07:31:00Z</time>
      </trkpt>
      <trkpt lat="43.80295" lon="4.91154">
        <ele>49</ele>
        <time>2021-07-25T07:31:06Z</time>
      </trkpt>
      <trkpt lat="43.80298" lon="4.91186">
        <ele>49</ele>
        <time>2021-07-25T07:31:10Z</time>
      </trkpt>
      <trkpt lat="43.80304" lon="4.91217">
        <ele>49</ele>
        <time>2021-07-25T07:31:14Z</time>
      </trkpt>
      <trkpt lat="43.80328" lon="4.91295">
        <ele>48</ele>
        <time>2021-07-25T07:31:25Z</time>
      </trkpt>
      <trkpt lat="43.80339" lon="4.9134">
        <ele>48</ele>
        <time>2021-07-25T07:31:31Z</time>
      </trkpt>
      <trkpt lat="43.80348" lon="4.91467">
        <ele>48</ele>
        <time>2021-07-25T07:31:48Z</time>
      </trkpt>
      <trkpt lat="43.8038" lon="4.91832">
        <ele>50</ele>
        <time>2021-07-25T07:32:35Z</time>
      </trkpt>
      <trkpt lat="43.80413" lon="4.92189">
        <ele>50</ele>
        <time>2021-07-25T07:33:21Z</time>
      </trkpt>
      <trkpt lat="43.80435" lon="4.92433">
        <ele>51</ele>
        <time>2021-07-25T07:33:53Z</time>
      </trkpt>
      <trkpt lat="43.80454" lon="4.92619">
        <ele>52</ele>
        <time>2021-07-25T07:34:17Z</time>
      </trkpt>
      <trkpt lat="43.80479" lon="4.9287">
        <ele>52</ele>
        <time>2021-07-25T07:34:49Z</time>
      </trkpt>
      <trkpt lat="43.8048" lon="4.9288">
        <ele>52</ele>
        <time>2021-07-25T07:34:51Z</time>
      </trkpt>
      <trkpt lat="43.80483" lon="4.92905">
        <ele>51</ele>
        <time>2021-07-25T07:34:54Z</time>
      </trkpt>
      <trkpt lat="43.80492" lon="4.92943">
        <ele>52</ele>
        <time>2021-07-25T07:34:59Z</time>
      </trkpt>
      <trkpt lat="43.80501" lon="4.92967">
        <ele>52</ele>
        <time>2021-07-25T07:35:03Z</time>
      </trkpt>
      <trkpt lat="43.80512" lon="4.92989">
        <ele>53</ele>
        <time>2021-07-25T07:35:06Z</time>
      </trkpt>
      <trkpt lat="43.80547" lon="4.93032">
        <ele>53</ele>
        <time>2021-07-25T07:35:14Z</time>
      </trkpt>
      <trkpt lat="43.80556" lon="4.93052">
        <ele>53</ele>
        <time>2021-07-25T07:35:17Z</time>
      </trkpt>
      <trkpt lat="43.8056" lon="4.93077">
        <ele>53</ele>
        <time>2021-07-25T07:35:21Z</time>
      </trkpt>
      <trkpt lat="43.80559" lon="4.93105">
        <ele>53</ele>
        <time>2021-07-25T07:35:24Z</time>
      </trkpt>
      <trkpt lat="43.80552" lon="4.93164">
        <ele>52</ele>
        <time>2021-07-25T07:35:32Z</time>
      </trkpt>
      <trkpt lat="43.80549" lon="4.93223">
        <ele>53</ele>
        <time>2021-07-25T07:35:39Z</time>
      </trkpt>
      <trkpt lat="43.80541" lon="4.93316">
        <ele>52</ele>
        <time>2021-07-25T07:35:51Z</time>
      </trkpt>
      <trkpt lat="43.80536" lon="4.93387">
        <ele>53</ele>
        <time>2021-07-25T07:36:01Z</time>
      </trkpt>
      <trkpt lat="43.80535" lon="4.93423">
        <ele>54</ele>
        <time>2021-07-25T07:36:05Z</time>
      </trkpt>
      <trkpt lat="43.80537" lon="4.93474">
        <ele>54</ele>
        <time>2021-07-25T07:36:12Z</time>
      </trkpt>
      <trkpt lat="43.80545" lon="4.93535">
        <ele>54</ele>
        <time>2021-07-25T07:36:20Z</time>
      </trkpt>
      <trkpt lat="43.80564" lon="4.93631">
        <ele>55</ele>
        <time>2021-07-25T07:36:33Z</time>
      </trkpt>
      <trkpt lat="43.80568" lon="4.9378">
        <ele>54</ele>
        <time>2021-07-25T07:36:52Z</time>
      </trkpt>
      <trkpt lat="43.80571" lon="4.93794">
        <ele>53</ele>
        <time>2021-07-25T07:36:54Z</time>
      </trkpt>
      <trkpt lat="43.80578" lon="4.93811">
        <ele>53</ele>
        <time>2021-07-25T07:36:56Z</time>
      </trkpt>
      <trkpt lat="43.80591" lon="4.93836">
        <ele>53</ele>
        <time>2021-07-25T07:37:00Z</time>
      </trkpt>
      <trkpt lat="43.80606" lon="4.93859">
        <ele>53</ele>
        <time>2021-07-25T07:37:04Z</time>
      </trkpt>
      <trkpt lat="43.80625" lon="4.93894">
        <ele>54</ele>
        <time>2021-07-25T07:37:10Z</time>
      </trkpt>
      <trkpt lat="43.80628" lon="4.93904">
        <ele>54</ele>
        <time>2021-07-25T07:37:11Z</time>
      </trkpt>
      <trkpt lat="43.8063" lon="4.93929">
        <ele>54</ele>
        <time>2021-07-25T07:37:14Z</time>
      </trkpt>
      <trkpt lat="43.80623" lon="4.94071">
        <ele>54</ele>
        <time>2021-07-25T07:37:33Z</time>
      </trkpt>
      <trkpt lat="43.80623" lon="4.94091">
        <ele>53</ele>
        <time>2021-07-25T07:37:35Z</time>
      </trkpt>
      <trkpt lat="43.8062" lon="4.94114">
        <ele>53</ele>
        <time>2021-07-25T07:37:38Z</time>
      </trkpt>
      <trkpt lat="43.80615" lon="4.94143">
        <ele>54</ele>
        <time>2021-07-25T07:37:42Z</time>
      </trkpt>
      <trkpt lat="43.80613" lon="4.94176">
        <ele>54</ele>
        <time>2021-07-25T07:37:46Z</time>
      </trkpt>
      <trkpt lat="43.80614" lon="4.94221">
        <ele>54</ele>
        <time>2021-07-25T07:37:52Z</time>
      </trkpt>
      <trkpt lat="43.80624" lon="4.94406">
        <ele>55</ele>
        <time>2021-07-25T07:38:16Z</time>
      </trkpt>
      <trkpt lat="43.80624" lon="4.9444">
        <ele>55</ele>
        <time>2021-07-25T07:38:20Z</time>
      </trkpt>
      <trkpt lat="43.80625" lon="4.94462">
        <ele>55</ele>
        <time>2021-07-25T07:38:23Z</time>
      </trkpt>
      <trkpt lat="43.80626" lon="4.94477">
        <ele>55</ele>
        <time>2021-07-25T07:38:25Z</time>
      </trkpt>
      <trkpt lat="43.80628" lon="4.94521">
        <ele>55</ele>
        <time>2021-07-25T07:38:31Z</time>
      </trkpt>
      <trkpt lat="43.80631" lon="4.9457">
        <ele>55</ele>
        <time>2021-07-25T07:38:37Z</time>
      </trkpt>
      <trkpt lat="43.80632" lon="4.94614">
        <ele>55</ele>
        <time>2021-07-25T07:38:43Z</time>
      </trkpt>
      <trkpt lat="43.80633" lon="4.9467">
        <ele>55</ele>
        <time>2021-07-25T07:38:50Z</time>
      </trkpt>
      <trkpt lat="43.80634" lon="4.947">
        <ele>55</ele>
        <time>2021-07-25T07:38:54Z</time>
      </trkpt>
      <trkpt lat="43.80633" lon="4.9475">
        <ele>56</ele>
        <time>2021-07-25T07:39:00Z</time>
      </trkpt>
      <trkpt lat="43.80633" lon="4.94801">
        <ele>56</ele>
        <time>2021-07-25T07:39:07Z</time>
      </trkpt>
      <trkpt lat="43.80634" lon="4.94829">
        <ele>56</ele>
        <time>2021-07-25T07:39:10Z</time>
      </trkpt>
      <trkpt lat="43.80635" lon="4.94889">
        <ele>57</ele>
        <time>2021-07-25T07:39:18Z</time>
      </trkpt>
      <trkpt lat="43.80635" lon="4.94912">
        <ele>57</ele>
        <time>2021-07-25T07:39:21Z</time>
      </trkpt>
      <trkpt lat="43.80635" lon="4.94916">
        <ele>57</ele>
        <time>2021-07-25T07:39:21Z</time>
      </trkpt>
      <trkpt lat="43.80636" lon="4.94941">
        <ele>57</ele>
        <time>2021-07-25T07:39:25Z</time>
      </trkpt>
      <trkpt lat="43.80635" lon="4.94954">
        <ele>57</ele>
        <time>2021-07-25T07:39:26Z</time>
      </trkpt>
      <trkpt lat="43.80637" lon="4.94963">
        <ele>57</ele>
        <time>2021-07-25T07:39:27Z</time>
      </trkpt>
      <trkpt lat="43.80643" lon="4.94966">
        <ele>57</ele>
        <time>2021-07-25T07:39:29Z</time>
      </trkpt>
      <trkpt lat="43.80643" lon="4.94969">
        <ele>57</ele>
        <time>2021-07-25T07:39:29Z</time>
      </trkpt>
      <trkpt lat="43.80643" lon="4.94971">
        <ele>57</ele>
        <time>2021-07-25T07:39:29Z</time>
      </trkpt>
      <trkpt lat="43.80644" lon="4.94973">
        <ele>57</ele>
        <time>2021-07-25T07:39:30Z</time>
      </trkpt>
      <trkpt lat="43.80645" lon="4.94975">
        <ele>57</ele>
        <time>2021-07-25T07:39:30Z</time>
      </trkpt>
      <trkpt lat="43.80647" lon="4.94976">
        <ele>57</ele>
        <time>2021-07-25T07:39:30Z</time>
      </trkpt>
      <trkpt lat="43.80649" lon="4.94977">
        <ele>57</ele>
        <time>2021-07-25T07:39:31Z</time>
      </trkpt>
      <trkpt lat="43.80653" lon="4.94983">
        <ele>57</ele>
        <time>2021-07-25T07:39:32Z</time>
      </trkpt>
      <trkpt lat="43.80656" lon="4.94994">
        <ele>57</ele>
        <time>2021-07-25T07:39:33Z</time>
      </trkpt>
      <trkpt lat="43.80661" lon="4.95041">
        <ele>57</ele>
        <time>2021-07-25T07:39:39Z</time>
      </trkpt>
      <trkpt lat="43.80665" lon="4.95096">
        <ele>57</ele>
        <time>2021-07-25T07:39:46Z</time>
      </trkpt>
      <trkpt lat="43.80678" lon="4.95294">
        <ele>56</ele>
        <time>2021-07-25T07:40:12Z</time>
      </trkpt>
      <trkpt lat="43.8068" lon="4.95322">
        <ele>56</ele>
        <time>2021-07-25T07:40:16Z</time>
      </trkpt>
      <trkpt lat="43.80684" lon="4.95404">
        <ele>56</ele>
        <time>2021-07-25T07:40:26Z</time>
      </trkpt>
      <trkpt lat="43.80685" lon="4.95481">
        <ele>57</ele>
        <time>2021-07-25T07:40:36Z</time>
      </trkpt>
      <trkpt lat="43.80683" lon="4.95498">
        <ele>57</ele>
        <time>2021-07-25T07:40:38Z</time>
      </trkpt>
      <trkpt lat="43.80679" lon="4.95518">
        <ele>57</ele>
        <time>2021-07-25T07:40:41Z</time>
      </trkpt>
      <trkpt lat="43.80636" lon="4.95641">
        <ele>58</ele>
        <time>2021-07-25T07:40:58Z</time>
      </trkpt>
      <trkpt lat="43.80627" lon="4.95679">
        <ele>58</ele>
        <time>2021-07-25T07:41:04Z</time>
      </trkpt>
      <trkpt lat="43.80624" lon="4.95706">
        <ele>58</ele>
        <time>2021-07-25T07:41:07Z</time>
      </trkpt>
      <trkpt lat="43.80623" lon="4.95736">
        <ele>58</ele>
        <time>2021-07-25T07:41:11Z</time>
      </trkpt>
      <trkpt lat="43.80624" lon="4.95776">
        <ele>58</ele>
        <time>2021-07-25T07:41:16Z</time>
      </trkpt>
      <trkpt lat="43.80627" lon="4.95809">
        <ele>58</ele>
        <time>2021-07-25T07:41:20Z</time>
      </trkpt>
      <trkpt lat="43.80633" lon="4.95868">
        <ele>58</ele>
        <time>2021-07-25T07:41:28Z</time>
      </trkpt>
      <trkpt lat="43.80635" lon="4.95901">
        <ele>58</ele>
        <time>2021-07-25T07:41:32Z</time>
      </trkpt>
      <trkpt lat="43.80636" lon="4.95929">
        <ele>58</ele>
        <time>2021-07-25T07:41:36Z</time>
      </trkpt>
      <trkpt lat="43.80635" lon="4.9597">
        <ele>57</ele>
        <time>2021-07-25T07:41:41Z</time>
      </trkpt>
      <trkpt lat="43.80624" lon="4.96129">
        <ele>57</ele>
        <time>2021-07-25T07:42:02Z</time>
      </trkpt>
      <trkpt lat="43.80606" lon="4.96381">
        <ele>59</ele>
        <time>2021-07-25T07:42:34Z</time>
      </trkpt>
      <trkpt lat="43.80603" lon="4.96433">
        <ele>60</ele>
        <time>2021-07-25T07:42:41Z</time>
      </trkpt>
      <trkpt lat="43.80597" lon="4.96528">
        <ele>59</ele>
        <time>2021-07-25T07:42:53Z</time>
      </trkpt>
      <trkpt lat="43.80593" lon="4.96628">
        <ele>58</ele>
        <time>2021-07-25T07:43:06Z</time>
      </trkpt>
      <trkpt lat="43.80593" lon="4.96707">
        <ele>59</ele>
        <time>2021-07-25T07:43:16Z</time>
      </trkpt>
      <trkpt lat="43.80602" lon="4.97189">
        <ele>61</ele>
        <time>2021-07-25T07:44:18Z</time>
      </trkpt>
      <trkpt lat="43.80602" lon="4.97293">
        <ele>60</ele>
        <time>2021-07-25T07:44:31Z</time>
      </trkpt>
      <trkpt lat="43.80594" lon="4.97503">
        <ele>62</ele>
        <time>2021-07-25T07:44:58Z</time>
      </trkpt>
      <trkpt lat="43.8059" lon="4.97555">
        <ele>61</ele>
        <time>2021-07-25T07:45:05Z</time>
      </trkpt>
      <trkpt lat="43.8058" lon="4.97629">
        <ele>60</ele>
        <time>2021-07-25T07:45:15Z</time>
      </trkpt>
      <trkpt lat="43.80575" lon="4.97655">
        <ele>60</ele>
        <time>2021-07-25T07:45:18Z</time>
      </trkpt>
      <trkpt lat="43.80557" lon="4.97724">
        <ele>61</ele>
        <time>2021-07-25T07:45:28Z</time>
      </trkpt>
      <trkpt lat="43.80458" lon="4.98018">
        <ele>61</ele>
        <time>2021-07-25T07:46:09Z</time>
      </trkpt>
      <trkpt lat="43.80451" lon="4.98042">
        <ele>61</ele>
        <time>2021-07-25T07:46:13Z</time>
      </trkpt>
      <trkpt lat="43.80441" lon="4.98089">
        <ele>61</ele>
        <time>2021-07-25T07:46:19Z</time>
      </trkpt>
      <trkpt lat="43.8043" lon="4.98165">
        <ele>63</ele>
        <time>2021-07-25T07:46:29Z</time>
      </trkpt>
      <trkpt lat="43.80418" lon="4.98295">
        <ele>64</ele>
        <time>2021-07-25T07:46:46Z</time>
      </trkpt>
      <trkpt lat="43.80406" lon="4.98425">
        <ele>63</ele>
        <time>2021-07-25T07:47:02Z</time>
      </trkpt>
      <trkpt lat="43.80397" lon="4.98486">
        <ele>63</ele>
        <time>2021-07-25T07:47:10Z</time>
      </trkpt>
      <trkpt lat="43.80388" lon="4.98543">
        <ele>64</ele>
        <time>2021-07-25T07:47:18Z</time>
      </trkpt>
      <trkpt lat="43.80372" lon="4.9864">
        <ele>64</ele>
        <time>2021-07-25T07:47:31Z</time>
      </trkpt>
      <trkpt lat="43.8036" lon="4.98719">
        <ele>65</ele>
        <time>2021-07-25T07:47:41Z</time>
      </trkpt>
      <trkpt lat="43.80356" lon="4.98744">
        <ele>65</ele>
        <time>2021-07-25T07:47:44Z</time>
      </trkpt>
      <trkpt lat="43.8035" lon="4.98764">
        <ele>66</ele>
        <time>2021-07-25T07:47:47Z</time>
      </trkpt>
      <trkpt lat="43.80346" lon="4.98777">
        <ele>66</ele>
        <time>2021-07-25T07:47:49Z</time>
      </trkpt>
      <trkpt lat="43.80341" lon="4.98784">
        <ele>66</ele>
        <time>2021-07-25T07:47:50Z</time>
      </trkpt>
      <trkpt lat="43.80339" lon="4.98788">
        <ele>66</ele>
        <time>2021-07-25T07:47:51Z</time>
      </trkpt>
      <trkpt lat="43.80341" lon="4.98791">
        <ele>66</ele>
        <time>2021-07-25T07:47:51Z</time>
      </trkpt>
      <trkpt lat="43.80366" lon="4.98838">
        <ele>66</ele>
        <time>2021-07-25T07:47:59Z</time>
      </trkpt>
      <trkpt lat="43.80374" lon="4.98852">
        <ele>66</ele>
        <time>2021-07-25T07:48:01Z</time>
      </trkpt>
      <trkpt lat="43.80461" lon="4.99014">
        <ele>65</ele>
        <time>2021-07-25T07:48:27Z</time>
      </trkpt>
      <trkpt lat="43.80567" lon="4.9921">
        <ele>67</ele>
        <time>2021-07-25T07:48:59Z</time>
      </trkpt>
      <trkpt lat="43.80662" lon="4.99386">
        <ele>68</ele>
        <time>2021-07-25T07:49:27Z</time>
      </trkpt>
      <trkpt lat="43.80682" lon="4.99423">
        <ele>68</ele>
        <time>2021-07-25T07:49:33Z</time>
      </trkpt>
      <trkpt lat="43.80726" lon="4.99504">
        <ele>70</ele>
        <time>2021-07-25T07:49:46Z</time>
      </trkpt>
      <trkpt lat="43.80741" lon="4.9953">
        <ele>70</ele>
        <time>2021-07-25T07:49:50Z</time>
      </trkpt>
      <trkpt lat="43.80746" lon="4.99541">
        <ele>70</ele>
        <time>2021-07-25T07:49:52Z</time>
      </trkpt>
      <trkpt lat="43.80752" lon="4.99556">
        <ele>70</ele>
        <time>2021-07-25T07:49:54Z</time>
      </trkpt>
      <trkpt lat="43.80782" lon="4.99608">
        <ele>70</ele>
        <time>2021-07-25T07:50:02Z</time>
      </trkpt>
      <trkpt lat="43.80787" lon="4.99617">
        <ele>70</ele>
        <time>2021-07-25T07:50:04Z</time>
      </trkpt>
      <trkpt lat="43.80797" lon="4.99635">
        <ele>71</ele>
        <time>2021-07-25T07:50:07Z</time>
      </trkpt>
      <trkpt lat="43.80809" lon="4.99655">
        <ele>71</ele>
        <time>2021-07-25T07:50:10Z</time>
      </trkpt>
      <trkpt lat="43.80824" lon="4.99682">
        <ele>71</ele>
        <time>2021-07-25T07:50:15Z</time>
      </trkpt>
      <trkpt lat="43.80833" lon="4.99698">
        <ele>71</ele>
        <time>2021-07-25T07:50:17Z</time>
      </trkpt>
      <trkpt lat="43.80847" lon="4.99722">
        <ele>71</ele>
        <time>2021-07-25T07:50:21Z</time>
      </trkpt>
      <trkpt lat="43.80858" lon="4.99741">
        <ele>71</ele>
        <time>2021-07-25T07:50:24Z</time>
      </trkpt>
      <trkpt lat="43.80866" lon="4.99754">
        <ele>71</ele>
        <time>2021-07-25T07:50:26Z</time>
      </trkpt>
      <trkpt lat="43.80891" lon="4.99797">
        <ele>71</ele>
        <time>2021-07-25T07:50:34Z</time>
      </trkpt>
      <trkpt lat="43.80899" lon="4.99812">
        <ele>71</ele>
        <time>2021-07-25T07:50:36Z</time>
      </trkpt>
      <trkpt lat="43.80906" lon="4.99823">
        <ele>72</ele>
        <time>2021-07-25T07:50:38Z</time>
      </trkpt>
      <trkpt lat="43.80914" lon="4.99838">
        <ele>72</ele>
        <time>2021-07-25T07:50:40Z</time>
      </trkpt>
      <trkpt lat="43.8092" lon="4.99848">
        <ele>72</ele>
        <time>2021-07-25T07:50:42Z</time>
      </trkpt>
      <trkpt lat="43.80928" lon="4.99861">
        <ele>72</ele>
        <time>2021-07-25T07:50:44Z</time>
      </trkpt>
      <trkpt lat="43.80934" lon="4.99871">
        <ele>71</ele>
        <time>2021-07-25T07:50:46Z</time>
      </trkpt>
      <trkpt lat="43.80936" lon="4.99876">
        <ele>71</ele>
        <time>2021-07-25T07:50:46Z</time>
      </trkpt>
      <trkpt lat="43.80941" lon="4.99883">
        <ele>71</ele>
        <time>2021-07-25T07:50:48Z</time>
      </trkpt>
      <trkpt lat="43.80966" lon="4.99928">
        <ele>72</ele>
        <time>2021-07-25T07:50:55Z</time>
      </trkpt>
      <trkpt lat="43.80976" lon="4.99945">
        <ele>72</ele>
        <time>2021-07-25T07:50:58Z</time>
      </trkpt>
      <trkpt lat="43.80986" lon="4.99962">
        <ele>72</ele>
        <time>2021-07-25T07:51:01Z</time>
      </trkpt>
      <trkpt lat="43.81006" lon="4.99998">
        <ele>72</ele>
        <time>2021-07-25T07:51:06Z</time>
      </trkpt>
      <trkpt lat="43.81015" lon="5.00014">
        <ele>72</ele>
        <time>2021-07-25T07:51:09Z</time>
      </trkpt>
      <trkpt lat="43.81037" lon="5.00053">
        <ele>71</ele>
        <time>2021-07-25T07:51:15Z</time>
      </trkpt>
      <trkpt lat="43.81057" lon="5.0009">
        <ele>71</ele>
        <time>2021-07-25T07:51:21Z</time>
      </trkpt>
      <trkpt lat="43.81064" lon="5.00103">
        <ele>71</ele>
        <time>2021-07-25T07:51:23Z</time>
      </trkpt>
      <trkpt lat="43.811" lon="5.00167">
        <ele>72</ele>
        <time>2021-07-25T07:51:34Z</time>
      </trkpt>
      <trkpt lat="43.81102" lon="5.00171">
        <ele>72</ele>
        <time>2021-07-25T07:51:35Z</time>
      </trkpt>
      <trkpt lat="43.81119" lon="5.00201">
        <ele>72</ele>
        <time>2021-07-25T07:51:39Z</time>
      </trkpt>
      <trkpt lat="43.8114" lon="5.00239">
        <ele>73</ele>
        <time>2021-07-25T07:51:46Z</time>
      </trkpt>
      <trkpt lat="43.8118" lon="5.00316">
        <ele>71</ele>
        <time>2021-07-25T07:51:58Z</time>
      </trkpt>
      <trkpt lat="43.81183" lon="5.00324">
        <ele>71</ele>
        <time>2021-07-25T07:51:59Z</time>
      </trkpt>
      <trkpt lat="43.81188" lon="5.00338">
        <ele>71</ele>
        <time>2021-07-25T07:52:01Z</time>
      </trkpt>
      <trkpt lat="43.8125" lon="5.00453">
        <ele>72</ele>
        <time>2021-07-25T07:52:19Z</time>
      </trkpt>
      <trkpt lat="43.81263" lon="5.00466">
        <ele>72</ele>
        <time>2021-07-25T07:52:22Z</time>
      </trkpt>
      <trkpt lat="43.81264" lon="5.00468">
        <ele>72</ele>
        <time>2021-07-25T07:52:23Z</time>
      </trkpt>
      <trkpt lat="43.81294" lon="5.0052">
        <ele>71</ele>
        <time>2021-07-25T07:52:31Z</time>
      </trkpt>
      <trkpt lat="43.81347" lon="5.00615">
        <ele>72</ele>
        <time>2021-07-25T07:52:46Z</time>
      </trkpt>
      <trkpt lat="43.81362" lon="5.00646">
        <ele>73</ele>
        <time>2021-07-25T07:52:51Z</time>
      </trkpt>
      <trkpt lat="43.81409" lon="5.0073">
        <ele>72</ele>
        <time>2021-07-25T07:53:05Z</time>
      </trkpt>
      <trkpt lat="43.81416" lon="5.00743">
        <ele>72</ele>
        <time>2021-07-25T07:53:07Z</time>
      </trkpt>
      <trkpt lat="43.81426" lon="5.00766">
        <ele>72</ele>
        <time>2021-07-25T07:53:10Z</time>
      </trkpt>
      <trkpt lat="43.81436" lon="5.00788">
        <ele>72</ele>
        <time>2021-07-25T07:53:14Z</time>
      </trkpt>
      <trkpt lat="43.81449" lon="5.00815">
        <ele>72</ele>
        <time>2021-07-25T07:53:18Z</time>
      </trkpt>
      <trkpt lat="43.81512" lon="5.0093">
        <ele>72</ele>
        <time>2021-07-25T07:53:36Z</time>
      </trkpt>
      <trkpt lat="43.81544" lon="5.00987">
        <ele>71</ele>
        <time>2021-07-25T07:53:46Z</time>
      </trkpt>
      <trkpt lat="43.81725" lon="5.01303">
        <ele>72</ele>
        <time>2021-07-25T07:54:38Z</time>
      </trkpt>
      <trkpt lat="43.81741" lon="5.01327">
        <ele>72</ele>
        <time>2021-07-25T07:54:42Z</time>
      </trkpt>
      <trkpt lat="43.81747" lon="5.01335">
        <ele>72</ele>
        <time>2021-07-25T07:54:43Z</time>
      </trkpt>
      <trkpt lat="43.81754" lon="5.01349">
        <ele>72</ele>
        <time>2021-07-25T07:54:45Z</time>
      </trkpt>
      <trkpt lat="43.81759" lon="5.01359">
        <ele>72</ele>
        <time>2021-07-25T07:54:47Z</time>
      </trkpt>
      <trkpt lat="43.81763" lon="5.01368">
        <ele>72</ele>
        <time>2021-07-25T07:54:48Z</time>
      </trkpt>
      <trkpt lat="43.81764" lon="5.01374">
        <ele>72</ele>
        <time>2021-07-25T07:54:49Z</time>
      </trkpt>
      <trkpt lat="43.81771" lon="5.01384">
        <ele>72</ele>
        <time>2021-07-25T07:54:51Z</time>
      </trkpt>
      <trkpt lat="43.81776" lon="5.01385">
        <ele>72</ele>
        <time>2021-07-25T07:54:52Z</time>
      </trkpt>
      <trkpt lat="43.81782" lon="5.01397">
        <ele>72</ele>
        <time>2021-07-25T07:54:54Z</time>
      </trkpt>
      <trkpt lat="43.81792" lon="5.01422">
        <ele>72</ele>
        <time>2021-07-25T07:54:57Z</time>
      </trkpt>
      <trkpt lat="43.8183" lon="5.01513">
        <ele>73</ele>
        <time>2021-07-25T07:55:11Z</time>
      </trkpt>
      <trkpt lat="43.81834" lon="5.0155">
        <ele>72</ele>
        <time>2021-07-25T07:55:16Z</time>
      </trkpt>
      <trkpt lat="43.81831" lon="5.01553">
        <ele>72</ele>
        <time>2021-07-25T07:55:16Z</time>
      </trkpt>
      <trkpt lat="43.81825" lon="5.01568">
        <ele>71</ele>
        <time>2021-07-25T07:55:19Z</time>
      </trkpt>
      <trkpt lat="43.81825" lon="5.0158">
        <ele>71</ele>
        <time>2021-07-25T07:55:20Z</time>
      </trkpt>
      <trkpt lat="43.81826" lon="5.01585">
        <ele>71</ele>
        <time>2021-07-25T07:55:21Z</time>
      </trkpt>
      <trkpt lat="43.81831" lon="5.01594">
        <ele>71</ele>
        <time>2021-07-25T07:55:22Z</time>
      </trkpt>
      <trkpt lat="43.8184" lon="5.016">
        <ele>71</ele>
        <time>2021-07-25T07:55:24Z</time>
      </trkpt>
      <trkpt lat="43.81844" lon="5.016">
        <ele>71</ele>
        <time>2021-07-25T07:55:25Z</time>
      </trkpt>
      <trkpt lat="43.81854" lon="5.01607">
        <ele>71</ele>
        <time>2021-07-25T07:55:27Z</time>
      </trkpt>
      <trkpt lat="43.81877" lon="5.01639">
        <ele>72</ele>
        <time>2021-07-25T07:55:32Z</time>
      </trkpt>
      <trkpt lat="43.81897" lon="5.01678">
        <ele>72</ele>
        <time>2021-07-25T07:55:39Z</time>
      </trkpt>
      <trkpt lat="43.81954" lon="5.01811">
        <ele>72</ele>
        <time>2021-07-25T07:55:58Z</time>
      </trkpt>
      <trkpt lat="43.81977" lon="5.01859">
        <ele>71</ele>
        <time>2021-07-25T07:56:06Z</time>
      </trkpt>
      <trkpt lat="43.82107" lon="5.0209">
        <ele>71</ele>
        <time>2021-07-25T07:56:43Z</time>
      </trkpt>
      <trkpt lat="43.82121" lon="5.02118">
        <ele>70</ele>
        <time>2021-07-25T07:56:48Z</time>
      </trkpt>
      <trkpt lat="43.82125" lon="5.02133">
        <ele>70</ele>
        <time>2021-07-25T07:56:50Z</time>
      </trkpt>
      <trkpt lat="43.82126" lon="5.0214">
        <ele>70</ele>
        <time>2021-07-25T07:56:51Z</time>
      </trkpt>
      <trkpt lat="43.82124" lon="5.02146">
        <ele>70</ele>
        <time>2021-07-25T07:56:52Z</time>
      </trkpt>
      <trkpt lat="43.82123" lon="5.02165">
        <ele>70</ele>
        <time>2021-07-25T07:56:54Z</time>
      </trkpt>
      <trkpt lat="43.82126" lon="5.02177">
        <ele>70</ele>
        <time>2021-07-25T07:56:56Z</time>
      </trkpt>
      <trkpt lat="43.82132" lon="5.02187">
        <ele>70</ele>
        <time>2021-07-25T07:56:57Z</time>
      </trkpt>
      <trkpt lat="43.8214" lon="5.02194">
        <ele>70</ele>
        <time>2021-07-25T07:56:59Z</time>
      </trkpt>
      <trkpt lat="43.82149" lon="5.02197">
        <ele>70</ele>
        <time>2021-07-25T07:57:01Z</time>
      </trkpt>
      <trkpt lat="43.82163" lon="5.02193">
        <ele>70</ele>
        <time>2021-07-25T07:57:03Z</time>
      </trkpt>
      <trkpt lat="43.82169" lon="5.02187">
        <ele>70</ele>
        <time>2021-07-25T07:57:05Z</time>
      </trkpt>
      <trkpt lat="43.82176" lon="5.02174">
        <ele>70</ele>
        <time>2021-07-25T07:57:07Z</time>
      </trkpt>
      <trkpt lat="43.82182" lon="5.02203">
        <ele>70</ele>
        <time>2021-07-25T07:57:11Z</time>
      </trkpt>
      <trkpt lat="43.82198" lon="5.02251">
        <ele>70</ele>
        <time>2021-07-25T07:57:17Z</time>
      </trkpt>
      <trkpt lat="43.82214" lon="5.02284">
        <ele>71</ele>
        <time>2021-07-25T07:57:22Z</time>
      </trkpt>
      <trkpt lat="43.82242" lon="5.02334">
        <ele>72</ele>
        <time>2021-07-25T07:57:31Z</time>
      </trkpt>
      <trkpt lat="43.82327" lon="5.02472">
        <ele>71</ele>
        <time>2021-07-25T07:57:54Z</time>
      </trkpt>
      <trkpt lat="43.82391" lon="5.02592">
        <ele>71</ele>
        <time>2021-07-25T07:58:13Z</time>
      </trkpt>
      <trkpt lat="43.8245" lon="5.02691">
        <ele>71</ele>
        <time>2021-07-25T07:58:30Z</time>
      </trkpt>
      <trkpt lat="43.8248" lon="5.0274">
        <ele>71</ele>
        <time>2021-07-25T07:58:38Z</time>
      </trkpt>
      <trkpt lat="43.82522" lon="5.02816">
        <ele>72</ele>
        <time>2021-07-25T07:58:50Z</time>
      </trkpt>
      <trkpt lat="43.82553" lon="5.02863">
        <ele>71</ele>
        <time>2021-07-25T07:58:58Z</time>
      </trkpt>
      <trkpt lat="43.82559" lon="5.02868">
        <ele>70</ele>
        <time>2021-07-25T07:58:59Z</time>
      </trkpt>
      <trkpt lat="43.82579" lon="5.02911">
        <ele>70</ele>
        <time>2021-07-25T07:59:06Z</time>
      </trkpt>
      <trkpt lat="43.82626" lon="5.02991">
        <ele>67</ele>
        <time>2021-07-25T07:59:19Z</time>
      </trkpt>
      <trkpt lat="43.82762" lon="5.03235">
        <ele>68</ele>
        <time>2021-07-25T07:59:59Z</time>
      </trkpt>
      <trkpt lat="43.8277" lon="5.03248">
        <ele>68</ele>
        <time>2021-07-25T08:00:01Z</time>
      </trkpt>
      <trkpt lat="43.82772" lon="5.03252">
        <ele>69</ele>
        <time>2021-07-25T08:00:02Z</time>
      </trkpt>
      <trkpt lat="43.82775" lon="5.03255">
        <ele>69</ele>
        <time>2021-07-25T08:00:02Z</time>
      </trkpt>
      <trkpt lat="43.82791" lon="5.03342">
        <ele>71</ele>
        <time>2021-07-25T08:00:14Z</time>
      </trkpt>
      <trkpt lat="43.82791" lon="5.03347">
        <ele>71</ele>
        <time>2021-07-25T08:00:14Z</time>
      </trkpt>
      <trkpt lat="43.82793" lon="5.03352">
        <ele>71</ele>
        <time>2021-07-25T08:00:15Z</time>
      </trkpt>
      <trkpt lat="43.82796" lon="5.03355">
        <ele>71</ele>
        <time>2021-07-25T08:00:16Z</time>
      </trkpt>
      <trkpt lat="43.82801" lon="5.03359">
        <ele>71</ele>
        <time>2021-07-25T08:00:17Z</time>
      </trkpt>
      <trkpt lat="43.82807" lon="5.0336">
        <ele>72</ele>
        <time>2021-07-25T08:00:18Z</time>
      </trkpt>
      <trkpt lat="43.8281" lon="5.03362">
        <ele>72</ele>
        <time>2021-07-25T08:00:19Z</time>
      </trkpt>
      <trkpt lat="43.82815" lon="5.03363">
        <ele>72</ele>
        <time>2021-07-25T08:00:19Z</time>
      </trkpt>
      <trkpt lat="43.82823" lon="5.03356">
        <ele>72</ele>
        <time>2021-07-25T08:00:21Z</time>
      </trkpt>
      <trkpt lat="43.82828" lon="5.03356">
        <ele>72</ele>
        <time>2021-07-25T08:00:22Z</time>
      </trkpt>
      <trkpt lat="43.82844" lon="5.03383">
        <ele>72</ele>
        <time>2021-07-25T08:00:27Z</time>
      </trkpt>
      <trkpt lat="43.82852" lon="5.03388">
        <ele>72</ele>
        <time>2021-07-25T08:00:28Z</time>
      </trkpt>
      <trkpt lat="43.82857" lon="5.03396">
        <ele>72</ele>
        <time>2021-07-25T08:00:29Z</time>
      </trkpt>
      <trkpt lat="43.82853" lon="5.03402">
        <ele>72</ele>
        <time>2021-07-25T08:00:31Z</time>
      </trkpt>
      <trkpt lat="43.82849" lon="5.03416">
        <ele>72</ele>
        <time>2021-07-25T08:00:32Z</time>
      </trkpt>
      <trkpt lat="43.82846" lon="5.03431">
        <ele>72</ele>
        <time>2021-07-25T08:00:34Z</time>
      </trkpt>
      <trkpt lat="43.82868" lon="5.03443">
        <ele>72</ele>
        <time>2021-07-25T08:00:39Z</time>
      </trkpt>
      <trkpt lat="43.82877" lon="5.03454">
        <ele>72</ele>
        <time>2021-07-25T08:00:41Z</time>
      </trkpt>
      <trkpt lat="43.82921" lon="5.03534">
        <ele>72</ele>
        <time>2021-07-25T08:00:54Z</time>
      </trkpt>
      <trkpt lat="43.82962" lon="5.03605">
        <ele>72</ele>
        <time>2021-07-25T08:01:05Z</time>
      </trkpt>
      <trkpt lat="43.83048" lon="5.03736">
        <ele>73</ele>
        <time>2021-07-25T08:01:28Z</time>
      </trkpt>
      <trkpt lat="43.83149" lon="5.03915">
        <ele>73</ele>
        <time>2021-07-25T08:01:57Z</time>
      </trkpt>
      <trkpt lat="43.83175" lon="5.03949">
        <ele>73</ele>
        <time>2021-07-25T08:02:04Z</time>
      </trkpt>
      <trkpt lat="43.83204" lon="5.03979">
        <ele>74</ele>
        <time>2021-07-25T08:02:10Z</time>
      </trkpt>
      <trkpt lat="43.83233" lon="5.04003">
        <ele>75</ele>
        <time>2021-07-25T08:02:16Z</time>
      </trkpt>
      <trkpt lat="43.8328" lon="5.04038">
        <ele>74</ele>
        <time>2021-07-25T08:02:26Z</time>
      </trkpt>
      <trkpt lat="43.83301" lon="5.04049">
        <ele>74</ele>
        <time>2021-07-25T08:02:30Z</time>
      </trkpt>
      <trkpt lat="43.83335" lon="5.04062">
        <ele>74</ele>
        <time>2021-07-25T08:02:36Z</time>
      </trkpt>
      <trkpt lat="43.83349" lon="5.04066">
        <ele>74</ele>
        <time>2021-07-25T08:02:38Z</time>
      </trkpt>
      <trkpt lat="43.83366" lon="5.04066">
        <ele>74</ele>
        <time>2021-07-25T08:02:41Z</time>
      </trkpt>
      <trkpt lat="43.83371" lon="5.04068">
        <ele>75</ele>
        <time>2021-07-25T08:02:42Z</time>
      </trkpt>
      <trkpt lat="43.83378" lon="5.04077">
        <ele>75</ele>
        <time>2021-07-25T08:02:44Z</time>
      </trkpt>
      <trkpt lat="43.83377" lon="5.04086">
        <ele>75</ele>
        <time>2021-07-25T08:02:45Z</time>
      </trkpt>
      <trkpt lat="43.83379" lon="5.04092">
        <ele>75</ele>
        <time>2021-07-25T08:02:46Z</time>
      </trkpt>
      <trkpt lat="43.83383" lon="5.04095">
        <ele>75</ele>
        <time>2021-07-25T08:02:47Z</time>
      </trkpt>
      <trkpt lat="43.8339" lon="5.04091">
        <ele>75</ele>
        <time>2021-07-25T08:02:48Z</time>
      </trkpt>
      <trkpt lat="43.83391" lon="5.04088">
        <ele>75</ele>
        <time>2021-07-25T08:02:49Z</time>
      </trkpt>
      <trkpt lat="43.83401" lon="5.04089">
        <ele>76</ele>
        <time>2021-07-25T08:02:50Z</time>
      </trkpt>
      <trkpt lat="43.83434" lon="5.04086">
        <ele>76</ele>
        <time>2021-07-25T08:02:56Z</time>
      </trkpt>
      <trkpt lat="43.83439" lon="5.04088">
        <ele>76</ele>
        <time>2021-07-25T08:02:57Z</time>
      </trkpt>
      <trkpt lat="43.83444" lon="5.04102">
        <ele>76</ele>
        <time>2021-07-25T08:02:59Z</time>
      </trkpt>
      <trkpt lat="43.83445" lon="5.04116">
        <ele>76</ele>
        <time>2021-07-25T08:03:01Z</time>
      </trkpt>
      <trkpt lat="43.8345" lon="5.04285">
        <ele>76</ele>
        <time>2021-07-25T08:03:23Z</time>
      </trkpt>
      <trkpt lat="43.83453" lon="5.04308">
        <ele>76</ele>
        <time>2021-07-25T08:03:26Z</time>
      </trkpt>
      <trkpt lat="43.83451" lon="5.04309">
        <ele>76</ele>
        <time>2021-07-25T08:03:26Z</time>
      </trkpt>
      <trkpt lat="43.83449" lon="5.04317">
        <ele>76</ele>
        <time>2021-07-25T08:03:27Z</time>
      </trkpt>
      <trkpt lat="43.83452" lon="5.04321">
        <ele>76</ele>
        <time>2021-07-25T08:03:28Z</time>
      </trkpt>
      <trkpt lat="43.83472" lon="5.04318">
        <ele>76</ele>
        <time>2021-07-25T08:03:32Z</time>
      </trkpt>
      <trkpt lat="43.83574" lon="5.04288">
        <ele>76</ele>
        <time>2021-07-25T08:03:50Z</time>
      </trkpt>
      <trkpt lat="43.83608" lon="5.04285">
        <ele>76</ele>
        <time>2021-07-25T08:03:56Z</time>
      </trkpt>
      <trkpt lat="43.83715" lon="5.04254">
        <ele>75</ele>
        <time>2021-07-25T08:04:16Z</time>
      </trkpt>
      <trkpt lat="43.8372" lon="5.04258">
        <ele>75</ele>
        <time>2021-07-25T08:04:17Z</time>
      </trkpt>
      <trkpt lat="43.83725" lon="5.04265">
        <ele>75</ele>
        <time>2021-07-25T08:04:18Z</time>
      </trkpt>
      <trkpt lat="43.83733" lon="5.04291">
        <ele>75</ele>
        <time>2021-07-25T08:04:22Z</time>
      </trkpt>
      <trkpt lat="43.83739" lon="5.04308">
        <ele>74</ele>
        <time>2021-07-25T08:04:24Z</time>
      </trkpt>
      <trkpt lat="43.83742" lon="5.04324">
        <ele>74</ele>
        <time>2021-07-25T08:04:26Z</time>
      </trkpt>
      <trkpt lat="43.83744" lon="5.04333">
        <ele>74</ele>
        <time>2021-07-25T08:04:27Z</time>
      </trkpt>
      <trkpt lat="43.83746" lon="5.0434">
        <ele>74</ele>
        <time>2021-07-25T08:04:28Z</time>
      </trkpt>
      <trkpt lat="43.8375" lon="5.04357">
        <ele>74</ele>
        <time>2021-07-25T08:04:31Z</time>
      </trkpt>
      <trkpt lat="43.83756" lon="5.04372">
        <ele>74</ele>
        <time>2021-07-25T08:04:33Z</time>
      </trkpt>
      <trkpt lat="43.83852" lon="5.04678">
        <ele>75</ele>
        <time>2021-07-25T08:05:16Z</time>
      </trkpt>
      <trkpt lat="43.8386" lon="5.04719">
        <ele>75</ele>
        <time>2021-07-25T08:05:21Z</time>
      </trkpt>
      <trkpt lat="43.8387" lon="5.048">
        <ele>74</ele>
        <time>2021-07-25T08:05:32Z</time>
      </trkpt>
      <trkpt lat="43.83874" lon="5.04839">
        <ele>73</ele>
        <time>2021-07-25T08:05:37Z</time>
      </trkpt>
      <trkpt lat="43.83874" lon="5.04843">
        <ele>73</ele>
        <time>2021-07-25T08:05:37Z</time>
      </trkpt>
      <trkpt lat="43.83875" lon="5.04846">
        <ele>73</ele>
        <time>2021-07-25T08:05:38Z</time>
      </trkpt>
      <trkpt lat="43.83876" lon="5.0486">
        <ele>74</ele>
        <time>2021-07-25T08:05:39Z</time>
      </trkpt>
      <trkpt lat="43.83877" lon="5.04868">
        <ele>74</ele>
        <time>2021-07-25T08:05:40Z</time>
      </trkpt>
      <trkpt lat="43.83879" lon="5.04886">
        <ele>74</ele>
        <time>2021-07-25T08:05:43Z</time>
      </trkpt>
      <trkpt lat="43.83883" lon="5.04912">
        <ele>74</ele>
        <time>2021-07-25T08:05:46Z</time>
      </trkpt>
      <trkpt lat="43.83891" lon="5.04976">
        <ele>73</ele>
        <time>2021-07-25T08:05:54Z</time>
      </trkpt>
      <trkpt lat="43.83895" lon="5.05008">
        <ele>73</ele>
        <time>2021-07-25T08:05:59Z</time>
      </trkpt>
      <trkpt lat="43.83897" lon="5.05025">
        <ele>73</ele>
        <time>2021-07-25T08:06:01Z</time>
      </trkpt>
      <trkpt lat="43.83916" lon="5.05168">
        <ele>74</ele>
        <time>2021-07-25T08:06:20Z</time>
      </trkpt>
      <trkpt lat="43.83937" lon="5.05321">
        <ele>74</ele>
        <time>2021-07-25T08:06:40Z</time>
      </trkpt>
      <trkpt lat="43.83939" lon="5.05361">
        <ele>74</ele>
        <time>2021-07-25T08:06:45Z</time>
      </trkpt>
      <trkpt lat="43.83937" lon="5.0537">
        <ele>74</ele>
        <time>2021-07-25T08:06:46Z</time>
      </trkpt>
      <trkpt lat="43.83939" lon="5.05378">
        <ele>74</ele>
        <time>2021-07-25T08:06:47Z</time>
      </trkpt>
      <trkpt lat="43.83942" lon="5.05383">
        <ele>74</ele>
        <time>2021-07-25T08:06:48Z</time>
      </trkpt>
      <trkpt lat="43.83952" lon="5.05503">
        <ele>74</ele>
        <time>2021-07-25T08:07:03Z</time>
      </trkpt>
      <trkpt lat="43.83992" lon="5.05836">
        <ele>75</ele>
        <time>2021-07-25T08:07:47Z</time>
      </trkpt>
      <trkpt lat="43.84014" lon="5.06059">
        <ele>75</ele>
        <time>2021-07-25T08:08:16Z</time>
      </trkpt>
      <trkpt lat="43.84032" lon="5.06186">
        <ele>76</ele>
        <time>2021-07-25T08:08:32Z</time>
      </trkpt>
      <trkpt lat="43.84056" lon="5.06286">
        <ele>75</ele>
        <time>2021-07-25T08:08:46Z</time>
      </trkpt>
      <trkpt lat="43.84123" lon="5.06537">
        <ele>76</ele>
        <time>2021-07-25T08:09:20Z</time>
      </trkpt>
      <trkpt lat="43.84141" lon="5.06648">
        <ele>77</ele>
        <time>2021-07-25T08:09:35Z</time>
      </trkpt>
      <trkpt lat="43.84189" lon="5.06894">
        <ele>77</ele>
        <time>2021-07-25T08:10:07Z</time>
      </trkpt>
      <trkpt lat="43.84201" lon="5.06944">
        <ele>78</ele>
        <time>2021-07-25T08:10:14Z</time>
      </trkpt>
      <trkpt lat="43.84254" lon="5.0712">
        <ele>77</ele>
        <time>2021-07-25T08:10:39Z</time>
      </trkpt>
      <trkpt lat="43.84287" lon="5.07267">
        <ele>78</ele>
        <time>2021-07-25T08:10:58Z</time>
      </trkpt>
      <trkpt lat="43.84294" lon="5.0731">
        <ele>78</ele>
        <time>2021-07-25T08:11:04Z</time>
      </trkpt>
      <trkpt lat="43.84299" lon="5.07345">
        <ele>78</ele>
        <time>2021-07-25T08:11:09Z</time>
      </trkpt>
      <trkpt lat="43.84303" lon="5.07414">
        <ele>79</ele>
        <time>2021-07-25T08:11:17Z</time>
      </trkpt>
      <trkpt lat="43.84306" lon="5.07506">
        <ele>80</ele>
        <time>2021-07-25T08:11:29Z</time>
      </trkpt>
      <trkpt lat="43.84309" lon="5.07555">
        <ele>79</ele>
        <time>2021-07-25T08:11:36Z</time>
      </trkpt>
      <trkpt lat="43.84317" lon="5.07642">
        <ele>79</ele>
        <time>2021-07-25T08:11:47Z</time>
      </trkpt>
      <trkpt lat="43.84331" lon="5.07771">
        <ele>81</ele>
        <time>2021-07-25T08:12:04Z</time>
      </trkpt>
      <trkpt lat="43.84359" lon="5.07925">
        <ele>82</ele>
        <time>2021-07-25T08:12:24Z</time>
      </trkpt>
      <trkpt lat="43.84363" lon="5.07961">
        <ele>83</ele>
        <time>2021-07-25T08:12:29Z</time>
      </trkpt>
      <trkpt lat="43.84362" lon="5.07968">
        <ele>83</ele>
        <time>2021-07-25T08:12:30Z</time>
      </trkpt>
      <trkpt lat="43.84357" lon="5.07976">
        <ele>83</ele>
        <time>2021-07-25T08:12:31Z</time>
      </trkpt>
      <trkpt lat="43.84356" lon="5.07987">
        <ele>83</ele>
        <time>2021-07-25T08:12:32Z</time>
      </trkpt>
      <trkpt lat="43.84361" lon="5.07997">
        <ele>84</ele>
        <time>2021-07-25T08:12:34Z</time>
      </trkpt>
      <trkpt lat="43.84367" lon="5.08001">
        <ele>84</ele>
        <time>2021-07-25T08:12:35Z</time>
      </trkpt>
      <trkpt lat="43.84378" lon="5.08026">
        <ele>84</ele>
        <time>2021-07-25T08:12:39Z</time>
      </trkpt>
      <trkpt lat="43.84461" lon="5.084">
        <ele>87</ele>
        <time>2021-07-25T08:13:29Z</time>
      </trkpt>
      <trkpt lat="43.84498" lon="5.08541">
        <ele>88</ele>
        <time>2021-07-25T08:13:48Z</time>
      </trkpt>
      <trkpt lat="43.8451" lon="5.08625">
        <ele>89</ele>
        <time>2021-07-25T08:13:59Z</time>
      </trkpt>
      <trkpt lat="43.8451" lon="5.08651">
        <ele>90</ele>
        <time>2021-07-25T08:14:03Z</time>
      </trkpt>
      <trkpt lat="43.84504" lon="5.08661">
        <ele>90</ele>
        <time>2021-07-25T08:14:04Z</time>
      </trkpt>
      <trkpt lat="43.84505" lon="5.08673">
        <ele>90</ele>
        <time>2021-07-25T08:14:06Z</time>
      </trkpt>
      <trkpt lat="43.84507" lon="5.08679">
        <ele>90</ele>
        <time>2021-07-25T08:14:07Z</time>
      </trkpt>
      <trkpt lat="43.84514" lon="5.08686">
        <ele>90</ele>
        <time>2021-07-25T08:14:08Z</time>
      </trkpt>
      <trkpt lat="43.84523" lon="5.08686">
        <ele>90</ele>
        <time>2021-07-25T08:14:10Z</time>
      </trkpt>
      <trkpt lat="43.8453" lon="5.08678">
        <ele>90</ele>
        <time>2021-07-25T08:14:11Z</time>
      </trkpt>
      <trkpt lat="43.84543" lon="5.08671">
        <ele>90</ele>
        <time>2021-07-25T08:14:14Z</time>
      </trkpt>
      <trkpt lat="43.84608" lon="5.08676">
        <ele>90</ele>
        <time>2021-07-25T08:14:25Z</time>
      </trkpt>
      <trkpt lat="43.84633" lon="5.08682">
        <ele>90</ele>
        <time>2021-07-25T08:14:30Z</time>
      </trkpt>
      <trkpt lat="43.84685" lon="5.08768">
        <ele>90</ele>
        <time>2021-07-25T08:14:44Z</time>
      </trkpt>
      <trkpt lat="43.84764" lon="5.08914">
        <ele>92</ele>
        <time>2021-07-25T08:15:08Z</time>
      </trkpt>
      <trkpt lat="43.84777" lon="5.08946">
        <ele>92</ele>
        <time>2021-07-25T08:15:13Z</time>
      </trkpt>
      <trkpt lat="43.84798" lon="5.09017">
        <ele>91</ele>
        <time>2021-07-25T08:15:22Z</time>
      </trkpt>
      <trkpt lat="43.84816" lon="5.09047">
        <ele>91</ele>
        <time>2021-07-25T08:15:27Z</time>
      </trkpt>
      <trkpt lat="43.84861" lon="5.09088">
        <ele>90</ele>
        <time>2021-07-25T08:15:37Z</time>
      </trkpt>
      <trkpt lat="43.84906" lon="5.09116">
        <ele>90</ele>
        <time>2021-07-25T08:15:46Z</time>
      </trkpt>
      <trkpt lat="43.84929" lon="5.09135">
        <ele>90</ele>
        <time>2021-07-25T08:15:50Z</time>
      </trkpt>
      <trkpt lat="43.84935" lon="5.09141">
        <ele>90</ele>
        <time>2021-07-25T08:15:52Z</time>
      </trkpt>
      <trkpt lat="43.84938" lon="5.09148">
        <ele>90</ele>
        <time>2021-07-25T08:15:53Z</time>
      </trkpt>
      <trkpt lat="43.84941" lon="5.09166">
        <ele>91</ele>
        <time>2021-07-25T08:15:55Z</time>
      </trkpt>
      <trkpt lat="43.84931" lon="5.09238">
        <ele>93</ele>
        <time>2021-07-25T08:16:05Z</time>
      </trkpt>
      <trkpt lat="43.84929" lon="5.09272">
        <ele>93</ele>
        <time>2021-07-25T08:16:09Z</time>
      </trkpt>
      <trkpt lat="43.84928" lon="5.09353">
        <ele>93</ele>
        <time>2021-07-25T08:16:19Z</time>
      </trkpt>
      <trkpt lat="43.8493" lon="5.09403">
        <ele>93</ele>
        <time>2021-07-25T08:16:26Z</time>
      </trkpt>
      <trkpt lat="43.84933" lon="5.09435">
        <ele>93</ele>
        <time>2021-07-25T08:16:30Z</time>
      </trkpt>
      <trkpt lat="43.8495" lon="5.09529">
        <ele>93</ele>
        <time>2021-07-25T08:16:42Z</time>
      </trkpt>
      <trkpt lat="43.84964" lon="5.0958">
        <ele>93</ele>
        <time>2021-07-25T08:16:49Z</time>
      </trkpt>
      <trkpt lat="43.84979" lon="5.09626">
        <ele>93</ele>
        <time>2021-07-25T08:16:56Z</time>
      </trkpt>
      <trkpt lat="43.85024" lon="5.09727">
        <ele>93</ele>
        <time>2021-07-25T08:17:11Z</time>
      </trkpt>
      <trkpt lat="43.85029" lon="5.09727">
        <ele>93</ele>
        <time>2021-07-25T08:17:12Z</time>
      </trkpt>
      <trkpt lat="43.85034" lon="5.09723">
        <ele>94</ele>
        <time>2021-07-25T08:17:13Z</time>
      </trkpt>
      <trkpt lat="43.85053" lon="5.09753">
        <ele>95</ele>
        <time>2021-07-25T08:17:18Z</time>
      </trkpt>
      <trkpt lat="43.85217" lon="5.09971">
        <ele>95</ele>
        <time>2021-07-25T08:17:59Z</time>
      </trkpt>
      <trkpt lat="43.85282" lon="5.10064">
        <ele>95</ele>
        <time>2021-07-25T08:18:15Z</time>
      </trkpt>
      <trkpt lat="43.85315" lon="5.10127">
        <ele>95</ele>
        <time>2021-07-25T08:18:25Z</time>
      </trkpt>
      <trkpt lat="43.85347" lon="5.10207">
        <ele>97</ele>
        <time>2021-07-25T08:18:37Z</time>
      </trkpt>
      <trkpt lat="43.85353" lon="5.10221">
        <ele>98</ele>
        <time>2021-07-25T08:18:39Z</time>
      </trkpt>
      <trkpt lat="43.85356" lon="5.1023">
        <ele>99</ele>
        <time>2021-07-25T08:18:40Z</time>
      </trkpt>
      <trkpt lat="43.85488" lon="5.10577">
        <ele>95</ele>
        <time>2021-07-25T08:19:31Z</time>
      </trkpt>
      <trkpt lat="43.8556" lon="5.10763">
        <ele>97</ele>
        <time>2021-07-25T08:19:58Z</time>
      </trkpt>
      <trkpt lat="43.85634" lon="5.10957">
        <ele>96</ele>
        <time>2021-07-25T08:20:26Z</time>
      </trkpt>
      <trkpt lat="43.85637" lon="5.10964">
        <ele>96</ele>
        <time>2021-07-25T08:20:27Z</time>
      </trkpt>
      <trkpt lat="43.85639" lon="5.10972">
        <ele>96</ele>
        <time>2021-07-25T08:20:28Z</time>
      </trkpt>
      <trkpt lat="43.85677" lon="5.11073">
        <ele>96</ele>
        <time>2021-07-25T08:20:43Z</time>
      </trkpt>
      <trkpt lat="43.85684" lon="5.11091">
        <ele>96</ele>
        <time>2021-07-25T08:20:45Z</time>
      </trkpt>
      <trkpt lat="43.85729" lon="5.11204">
        <ele>97</ele>
        <time>2021-07-25T08:21:02Z</time>
      </trkpt>
      <trkpt lat="43.85751" lon="5.11247">
        <ele>96</ele>
        <time>2021-07-25T08:21:09Z</time>
      </trkpt>
      <trkpt lat="43.85765" lon="5.1127">
        <ele>96</ele>
        <time>2021-07-25T08:21:12Z</time>
      </trkpt>
      <trkpt lat="43.85775" lon="5.11284">
        <ele>96</ele>
        <time>2021-07-25T08:21:15Z</time>
      </trkpt>
      <trkpt lat="43.8581" lon="5.11329">
        <ele>96</ele>
        <time>2021-07-25T08:21:23Z</time>
      </trkpt>
      <trkpt lat="43.85834" lon="5.11353">
        <ele>95</ele>
        <time>2021-07-25T08:21:29Z</time>
      </trkpt>
      <trkpt lat="43.8586" lon="5.11374">
        <ele>94</ele>
        <time>2021-07-25T08:21:34Z</time>
      </trkpt>
      <trkpt lat="43.85888" lon="5.11392">
        <ele>93</ele>
        <time>2021-07-25T08:21:40Z</time>
      </trkpt>
      <trkpt lat="43.85929" lon="5.11413">
        <ele>93</ele>
        <time>2021-07-25T08:21:47Z</time>
      </trkpt>
      <trkpt lat="43.85962" lon="5.11429">
        <ele>93</ele>
        <time>2021-07-25T08:21:54Z</time>
      </trkpt>
      <trkpt lat="43.85996" lon="5.11446">
        <ele>93</ele>
        <time>2021-07-25T08:22:00Z</time>
      </trkpt>
      <trkpt lat="43.86003" lon="5.11449">
        <ele>93</ele>
        <time>2021-07-25T08:22:01Z</time>
      </trkpt>
      <trkpt lat="43.86051" lon="5.11473">
        <ele>93</ele>
        <time>2021-07-25T08:22:10Z</time>
      </trkpt>
      <trkpt lat="43.86098" lon="5.11496">
        <ele>94</ele>
        <time>2021-07-25T08:22:19Z</time>
      </trkpt>
      <trkpt lat="43.8615" lon="5.11529">
        <ele>93</ele>
        <time>2021-07-25T08:22:29Z</time>
      </trkpt>
      <trkpt lat="43.86179" lon="5.11552">
        <ele>93</ele>
        <time>2021-07-25T08:22:35Z</time>
      </trkpt>
      <trkpt lat="43.86206" lon="5.11578">
        <ele>94</ele>
        <time>2021-07-25T08:22:41Z</time>
      </trkpt>
      <trkpt lat="43.86231" lon="5.11606">
        <ele>94</ele>
        <time>2021-07-25T08:22:47Z</time>
      </trkpt>
      <trkpt lat="43.86268" lon="5.11656">
        <ele>94</ele>
        <time>2021-07-25T08:22:56Z</time>
      </trkpt>
      <trkpt lat="43.86281" lon="5.11679">
        <ele>94</ele>
        <time>2021-07-25T08:23:00Z</time>
      </trkpt>
      <trkpt lat="43.86297" lon="5.11715">
        <ele>93</ele>
        <time>2021-07-25T08:23:05Z</time>
      </trkpt>
      <trkpt lat="43.863" lon="5.11721">
        <ele>93</ele>
        <time>2021-07-25T08:23:06Z</time>
      </trkpt>
      <trkpt lat="43.86302" lon="5.11726">
        <ele>93</ele>
        <time>2021-07-25T08:23:07Z</time>
      </trkpt>
      <trkpt lat="43.86329" lon="5.11768">
        <ele>93</ele>
        <time>2021-07-25T08:23:14Z</time>
      </trkpt>
      <trkpt lat="43.86351" lon="5.11829">
        <ele>94</ele>
        <time>2021-07-25T08:23:23Z</time>
      </trkpt>
      <trkpt lat="43.86359" lon="5.11858">
        <ele>94</ele>
        <time>2021-07-25T08:23:27Z</time>
      </trkpt>
      <trkpt lat="43.86367" lon="5.11893">
        <ele>94</ele>
        <time>2021-07-25T08:23:32Z</time>
      </trkpt>
      <trkpt lat="43.86385" lon="5.11975">
        <ele>94</ele>
        <time>2021-07-25T08:23:43Z</time>
      </trkpt>
      <trkpt lat="43.86462" lon="5.1233">
        <ele>96</ele>
        <time>2021-07-25T08:24:30Z</time>
      </trkpt>
      <trkpt lat="43.86463" lon="5.12337">
        <ele>96</ele>
        <time>2021-07-25T08:24:31Z</time>
      </trkpt>
      <trkpt lat="43.86465" lon="5.12347">
        <ele>96</ele>
        <time>2021-07-25T08:24:32Z</time>
      </trkpt>
      <trkpt lat="43.86478" lon="5.12408">
        <ele>96</ele>
        <time>2021-07-25T08:24:41Z</time>
      </trkpt>
      <trkpt lat="43.86652" lon="5.13218">
        <ele>96</ele>
        <time>2021-07-25T08:26:29Z</time>
      </trkpt>
      <trkpt lat="43.86676" lon="5.13328">
        <ele>99</ele>
        <time>2021-07-25T08:26:44Z</time>
      </trkpt>
      <trkpt lat="43.86696" lon="5.13439">
        <ele>98</ele>
        <time>2021-07-25T08:26:58Z</time>
      </trkpt>
      <trkpt lat="43.86706" lon="5.13504">
        <ele>98</ele>
        <time>2021-07-25T08:27:07Z</time>
      </trkpt>
      <trkpt lat="43.86724" lon="5.13649">
        <ele>100</ele>
        <time>2021-07-25T08:27:26Z</time>
      </trkpt>
      <trkpt lat="43.86729" lon="5.13728">
        <ele>101</ele>
        <time>2021-07-25T08:27:36Z</time>
      </trkpt>
      <trkpt lat="43.8673" lon="5.13736">
        <ele>101</ele>
        <time>2021-07-25T08:27:37Z</time>
      </trkpt>
      <trkpt lat="43.86722" lon="5.13737">
        <ele>101</ele>
        <time>2021-07-25T08:27:38Z</time>
      </trkpt>
      <trkpt lat="43.86721" lon="5.13742">
        <ele>101</ele>
        <time>2021-07-25T08:27:39Z</time>
      </trkpt>
      <trkpt lat="43.8673" lon="5.13888">
        <ele>102</ele>
        <time>2021-07-25T08:27:58Z</time>
      </trkpt>
      <trkpt lat="43.8673" lon="5.14049">
        <ele>102</ele>
        <time>2021-07-25T08:28:19Z</time>
      </trkpt>
      <trkpt lat="43.86723" lon="5.1417">
        <ele>105</ele>
        <time>2021-07-25T08:28:34Z</time>
      </trkpt>
      <trkpt lat="43.86719" lon="5.14182">
        <ele>105</ele>
        <time>2021-07-25T08:28:36Z</time>
      </trkpt>
      <trkpt lat="43.86729" lon="5.14198">
        <ele>105</ele>
        <time>2021-07-25T08:28:39Z</time>
      </trkpt>
      <trkpt lat="43.86729" lon="5.14204">
        <ele>105</ele>
        <time>2021-07-25T08:28:39Z</time>
      </trkpt>
      <trkpt lat="43.8673" lon="5.14207">
        <ele>105</ele>
        <time>2021-07-25T08:28:40Z</time>
      </trkpt>
      <trkpt lat="43.86732" lon="5.14211">
        <ele>105</ele>
        <time>2021-07-25T08:28:40Z</time>
      </trkpt>
      <trkpt lat="43.86734" lon="5.14217">
        <ele>105</ele>
        <time>2021-07-25T08:28:41Z</time>
      </trkpt>
      <trkpt lat="43.86728" lon="5.14353">
        <ele>107</ele>
        <time>2021-07-25T08:28:59Z</time>
      </trkpt>
      <trkpt lat="43.86725" lon="5.14413">
        <ele>106</ele>
        <time>2021-07-25T08:29:06Z</time>
      </trkpt>
      <trkpt lat="43.86719" lon="5.14528">
        <ele>106</ele>
        <time>2021-07-25T08:29:21Z</time>
      </trkpt>
      <trkpt lat="43.86715" lon="5.14664">
        <ele>105</ele>
        <time>2021-07-25T08:29:39Z</time>
      </trkpt>
      <trkpt lat="43.86709" lon="5.14755">
        <ele>104</ele>
        <time>2021-07-25T08:29:50Z</time>
      </trkpt>
      <trkpt lat="43.86704" lon="5.14823">
        <ele>105</ele>
        <time>2021-07-25T08:29:59Z</time>
      </trkpt>
      <trkpt lat="43.86695" lon="5.14939">
        <ele>105</ele>
        <time>2021-07-25T08:30:14Z</time>
      </trkpt>
      <trkpt lat="43.8669" lon="5.14993">
        <ele>105</ele>
        <time>2021-07-25T08:30:21Z</time>
      </trkpt>
      <trkpt lat="43.86687" lon="5.15014">
        <ele>105</ele>
        <time>2021-07-25T08:30:24Z</time>
      </trkpt>
      <trkpt lat="43.86683" lon="5.15031">
        <ele>105</ele>
        <time>2021-07-25T08:30:26Z</time>
      </trkpt>
      <trkpt lat="43.86679" lon="5.15069">
        <ele>105</ele>
        <time>2021-07-25T08:30:31Z</time>
      </trkpt>
      <trkpt lat="43.86668" lon="5.15143">
        <ele>106</ele>
        <time>2021-07-25T08:30:41Z</time>
      </trkpt>
      <trkpt lat="43.86642" lon="5.15287">
        <ele>107</ele>
        <time>2021-07-25T08:31:00Z</time>
      </trkpt>
      <trkpt lat="43.86562" lon="5.15703">
        <ele>109</ele>
        <time>2021-07-25T08:31:55Z</time>
      </trkpt>
      <trkpt lat="43.86454" lon="5.16259">
        <ele>110</ele>
        <time>2021-07-25T08:33:09Z</time>
      </trkpt>
      <trkpt lat="43.86414" lon="5.16466">
        <ele>112</ele>
        <time>2021-07-25T08:33:36Z</time>
      </trkpt>
      <trkpt lat="43.8641" lon="5.16489">
        <ele>112</ele>
        <time>2021-07-25T08:33:39Z</time>
      </trkpt>
      <trkpt lat="43.86268" lon="5.17223">
        <ele>113</ele>
        <time>2021-07-25T08:35:17Z</time>
      </trkpt>
      <trkpt lat="43.86183" lon="5.17667">
        <ele>116</ele>
        <time>2021-07-25T08:36:16Z</time>
      </trkpt>
      <trkpt lat="43.8618" lon="5.17682">
        <ele>116</ele>
        <time>2021-07-25T08:36:18Z</time>
      </trkpt>
      <trkpt lat="43.86177" lon="5.17697">
        <ele>116</ele>
        <time>2021-07-25T08:36:20Z</time>
      </trkpt>
      <trkpt lat="43.86066" lon="5.18271">
        <ele>118</ele>
        <time>2021-07-25T08:37:36Z</time>
      </trkpt>
      <trkpt lat="43.86056" lon="5.18324">
        <ele>118</ele>
        <time>2021-07-25T08:37:43Z</time>
      </trkpt>
      <trkpt lat="43.85972" lon="5.18754">
        <ele>120</ele>
        <time>2021-07-25T08:38:40Z</time>
      </trkpt>
      <trkpt lat="43.85936" lon="5.18955">
        <ele>120</ele>
        <time>2021-07-25T08:39:07Z</time>
      </trkpt>
      <trkpt lat="43.85925" lon="5.19032">
        <ele>120</ele>
        <time>2021-07-25T08:39:17Z</time>
      </trkpt>
      <trkpt lat="43.85906" lon="5.19199">
        <ele>122</ele>
        <time>2021-07-25T08:39:39Z</time>
      </trkpt>
      <trkpt lat="43.85891" lon="5.19339">
        <ele>122</ele>
        <time>2021-07-25T08:39:57Z</time>
      </trkpt>
      <trkpt lat="43.85888" lon="5.19345">
        <ele>122</ele>
        <time>2021-07-25T08:39:58Z</time>
      </trkpt>
      <trkpt lat="43.85881" lon="5.19352">
        <ele>122</ele>
        <time>2021-07-25T08:39:59Z</time>
      </trkpt>
      <trkpt lat="43.85879" lon="5.19363">
        <ele>122</ele>
        <time>2021-07-25T08:40:01Z</time>
      </trkpt>
      <trkpt lat="43.85899" lon="5.19367">
        <ele>122</ele>
        <time>2021-07-25T08:40:04Z</time>
      </trkpt>
      <trkpt lat="43.85912" lon="5.19373">
        <ele>122</ele>
        <time>2021-07-25T08:40:07Z</time>
      </trkpt>
      <trkpt lat="43.85923" lon="5.1938">
        <ele>123</ele>
        <time>2021-07-25T08:40:09Z</time>
      </trkpt>
      <trkpt lat="43.85931" lon="5.19398">
        <ele>123</ele>
        <time>2021-07-25T08:40:12Z</time>
      </trkpt>
      <trkpt lat="43.85934" lon="5.19402">
        <ele>123</ele>
        <time>2021-07-25T08:40:12Z</time>
      </trkpt>
      <trkpt lat="43.85938" lon="5.19405">
        <ele>123</ele>
        <time>2021-07-25T08:40:13Z</time>
      </trkpt>
      <trkpt lat="43.85941" lon="5.19416">
        <ele>123</ele>
        <time>2021-07-25T08:40:15Z</time>
      </trkpt>
      <trkpt lat="43.85937" lon="5.19432">
        <ele>123</ele>
        <time>2021-07-25T08:40:17Z</time>
      </trkpt>
      <trkpt lat="43.85948" lon="5.1945">
        <ele>124</ele>
        <time>2021-07-25T08:40:20Z</time>
      </trkpt>
      <trkpt lat="43.85952" lon="5.19464">
        <ele>124</ele>
        <time>2021-07-25T08:40:22Z</time>
      </trkpt>
      <trkpt lat="43.85981" lon="5.19601">
        <ele>126</ele>
        <time>2021-07-25T08:40:40Z</time>
      </trkpt>
      <trkpt lat="43.85984" lon="5.19619">
        <ele>126</ele>
        <time>2021-07-25T08:40:42Z</time>
      </trkpt>
      <trkpt lat="43.85985" lon="5.19651">
        <ele>125</ele>
        <time>2021-07-25T08:40:47Z</time>
      </trkpt>
      <trkpt lat="43.85983" lon="5.19665">
        <ele>125</ele>
        <time>2021-07-25T08:40:48Z</time>
      </trkpt>
      <trkpt lat="43.85979" lon="5.19682">
        <ele>125</ele>
        <time>2021-07-25T08:40:51Z</time>
      </trkpt>
      <trkpt lat="43.85976" lon="5.1969">
        <ele>125</ele>
        <time>2021-07-25T08:40:52Z</time>
      </trkpt>
      <trkpt lat="43.85969" lon="5.197">
        <ele>124</ele>
        <time>2021-07-25T08:40:54Z</time>
      </trkpt>
      <trkpt lat="43.85968" lon="5.19714">
        <ele>124</ele>
        <time>2021-07-25T08:40:55Z</time>
      </trkpt>
      <trkpt lat="43.8597" lon="5.19723">
        <ele>124</ele>
        <time>2021-07-25T08:40:57Z</time>
      </trkpt>
      <trkpt lat="43.85975" lon="5.1973">
        <ele>124</ele>
        <time>2021-07-25T08:40:58Z</time>
      </trkpt>
      <trkpt lat="43.85977" lon="5.19736">
        <ele>124</ele>
        <time>2021-07-25T08:40:59Z</time>
      </trkpt>
      <trkpt lat="43.85978" lon="5.19743">
        <ele>124</ele>
        <time>2021-07-25T08:41:00Z</time>
      </trkpt>
      <trkpt lat="43.85978" lon="5.19767">
        <ele>124</ele>
        <time>2021-07-25T08:41:03Z</time>
      </trkpt>
      <trkpt lat="43.85966" lon="5.19817">
        <ele>125</ele>
        <time>2021-07-25T08:41:10Z</time>
      </trkpt>
      <trkpt lat="43.85835" lon="5.20187">
        <ele>129</ele>
        <time>2021-07-25T08:42:02Z</time>
      </trkpt>
      <trkpt lat="43.85832" lon="5.20204">
        <ele>130</ele>
        <time>2021-07-25T08:42:05Z</time>
      </trkpt>
      <trkpt lat="43.85832" lon="5.20238">
        <ele>131</ele>
        <time>2021-07-25T08:42:09Z</time>
      </trkpt>
      <trkpt lat="43.85804" lon="5.20239">
        <ele>129</ele>
        <time>2021-07-25T08:42:14Z</time>
      </trkpt>
      <trkpt lat="43.85795" lon="5.20238">
        <ele>128</ele>
        <time>2021-07-25T08:42:16Z</time>
      </trkpt>
      <trkpt lat="43.85783" lon="5.20237">
        <ele>127</ele>
        <time>2021-07-25T08:42:18Z</time>
      </trkpt>
      <trkpt lat="43.85761" lon="5.20234">
        <ele>126</ele>
        <time>2021-07-25T08:42:22Z</time>
      </trkpt>
      <trkpt lat="43.85759" lon="5.20236">
        <ele>126</ele>
        <time>2021-07-25T08:42:22Z</time>
      </trkpt>
      <trkpt lat="43.85758" lon="5.20241">
        <ele>126</ele>
        <time>2021-07-25T08:42:23Z</time>
      </trkpt>
      <trkpt lat="43.85759" lon="5.20248">
        <ele>126</ele>
        <time>2021-07-25T08:42:24Z</time>
      </trkpt>
      <trkpt lat="43.85766" lon="5.20262">
        <ele>126</ele>
        <time>2021-07-25T08:42:26Z</time>
      </trkpt>
      <trkpt lat="43.85768" lon="5.20287">
        <ele>126</ele>
        <time>2021-07-25T08:42:29Z</time>
      </trkpt>
      <trkpt lat="43.85767" lon="5.2036">
        <ele>126</ele>
        <time>2021-07-25T08:42:38Z</time>
      </trkpt>
      <trkpt lat="43.85772" lon="5.20398">
        <ele>126</ele>
        <time>2021-07-25T08:42:43Z</time>
      </trkpt>
      <trkpt lat="43.8578" lon="5.20432">
        <ele>127</ele>
        <time>2021-07-25T08:42:48Z</time>
      </trkpt>
      <trkpt lat="43.85781" lon="5.20449">
        <ele>127</ele>
        <time>2021-07-25T08:42:50Z</time>
      </trkpt>
      <trkpt lat="43.85783" lon="5.20602">
        <ele>126</ele>
        <time>2021-07-25T08:43:10Z</time>
      </trkpt>
      <trkpt lat="43.8578" lon="5.20679">
        <ele>128</ele>
        <time>2021-07-25T08:43:20Z</time>
      </trkpt>
      <trkpt lat="43.85782" lon="5.20738">
        <ele>130</ele>
        <time>2021-07-25T08:43:27Z</time>
      </trkpt>
      <trkpt lat="43.85782" lon="5.20772">
        <ele>131</ele>
        <time>2021-07-25T08:43:32Z</time>
      </trkpt>
      <trkpt lat="43.8578" lon="5.20795">
        <ele>131</ele>
        <time>2021-07-25T08:43:35Z</time>
      </trkpt>
      <trkpt lat="43.85781" lon="5.20806">
        <ele>131</ele>
        <time>2021-07-25T08:43:36Z</time>
      </trkpt>
      <trkpt lat="43.85793" lon="5.20876">
        <ele>134</ele>
        <time>2021-07-25T08:43:45Z</time>
      </trkpt>
      <trkpt lat="43.85811" lon="5.20954">
        <ele>134</ele>
        <time>2021-07-25T08:43:56Z</time>
      </trkpt>
      <trkpt lat="43.85814" lon="5.20974">
        <ele>133</ele>
        <time>2021-07-25T08:43:58Z</time>
      </trkpt>
      <trkpt lat="43.85822" lon="5.21004">
        <ele>132</ele>
        <time>2021-07-25T08:44:03Z</time>
      </trkpt>
      <trkpt lat="43.85854" lon="5.21103">
        <ele>135</ele>
        <time>2021-07-25T08:44:16Z</time>
      </trkpt>
      <trkpt lat="43.85855" lon="5.21109">
        <ele>135</ele>
        <time>2021-07-25T08:44:17Z</time>
      </trkpt>
      <trkpt lat="43.85855" lon="5.21116">
        <ele>134</ele>
        <time>2021-07-25T08:44:18Z</time>
      </trkpt>
      <trkpt lat="43.85887" lon="5.21183">
        <ele>138</ele>
        <time>2021-07-25T08:44:28Z</time>
      </trkpt>
      <trkpt lat="43.8591" lon="5.21264">
        <ele>137</ele>
        <time>2021-07-25T08:44:40Z</time>
      </trkpt>
      <trkpt lat="43.85914" lon="5.21266">
        <ele>137</ele>
        <time>2021-07-25T08:44:40Z</time>
      </trkpt>
      <trkpt lat="43.85923" lon="5.21269">
        <ele>139</ele>
        <time>2021-07-25T08:44:42Z</time>
      </trkpt>
      <trkpt lat="43.85925" lon="5.21275">
        <ele>139</ele>
        <time>2021-07-25T08:44:43Z</time>
      </trkpt>
      <trkpt lat="43.85949" lon="5.21353">
        <ele>138</ele>
        <time>2021-07-25T08:44:54Z</time>
      </trkpt>
      <trkpt lat="43.85985" lon="5.21466">
        <ele>137</ele>
        <time>2021-07-25T08:45:10Z</time>
      </trkpt>
      <trkpt lat="43.86072" lon="5.2176">
        <ele>138</ele>
        <time>2021-07-25T08:45:50Z</time>
      </trkpt>
      <trkpt lat="43.86085" lon="5.21813">
        <ele>137</ele>
        <time>2021-07-25T08:45:58Z</time>
      </trkpt>
      <trkpt lat="43.86094" lon="5.21866">
        <ele>140</ele>
        <time>2021-07-25T08:46:05Z</time>
      </trkpt>
      <trkpt lat="43.86103" lon="5.21931">
        <ele>142</ele>
        <time>2021-07-25T08:46:13Z</time>
      </trkpt>
      <trkpt lat="43.86107" lon="5.21996">
        <ele>144</ele>
        <time>2021-07-25T08:46:21Z</time>
      </trkpt>
      <trkpt lat="43.86106" lon="5.22056">
        <ele>142</ele>
        <time>2021-07-25T08:46:29Z</time>
      </trkpt>
      <trkpt lat="43.86103" lon="5.22115">
        <ele>140</ele>
        <time>2021-07-25T08:46:37Z</time>
      </trkpt>
      <trkpt lat="43.86101" lon="5.2213">
        <ele>139</ele>
        <time>2021-07-25T08:46:39Z</time>
      </trkpt>
      <trkpt lat="43.86096" lon="5.22172">
        <ele>137</ele>
        <time>2021-07-25T08:46:44Z</time>
      </trkpt>
      <trkpt lat="43.86087" lon="5.22221">
        <ele>139</ele>
        <time>2021-07-25T08:46:51Z</time>
      </trkpt>
      <trkpt lat="43.86067" lon="5.22306">
        <ele>145</ele>
        <time>2021-07-25T08:47:02Z</time>
      </trkpt>
      <trkpt lat="43.86032" lon="5.22402">
        <ele>145</ele>
        <time>2021-07-25T08:47:16Z</time>
      </trkpt>
      <trkpt lat="43.85994" lon="5.22481">
        <ele>140</ele>
        <time>2021-07-25T08:47:28Z</time>
      </trkpt>
      <trkpt lat="43.85992" lon="5.22485">
        <ele>140</ele>
        <time>2021-07-25T08:47:29Z</time>
      </trkpt>
      <trkpt lat="43.85706" lon="5.23065">
        <ele>138</ele>
        <time>2021-07-25T08:48:59Z</time>
      </trkpt>
      <trkpt lat="43.85704" lon="5.2307">
        <ele>138</ele>
        <time>2021-07-25T08:49:00Z</time>
      </trkpt>
      <trkpt lat="43.85686" lon="5.23105">
        <ele>139</ele>
        <time>2021-07-25T08:49:05Z</time>
      </trkpt>
      <trkpt lat="43.85666" lon="5.23144">
        <ele>139</ele>
        <time>2021-07-25T08:49:11Z</time>
      </trkpt>
      <trkpt lat="43.85615" lon="5.23247">
        <ele>140</ele>
        <time>2021-07-25T08:49:27Z</time>
      </trkpt>
      <trkpt lat="43.85587" lon="5.23309">
        <ele>140</ele>
        <time>2021-07-25T08:49:37Z</time>
      </trkpt>
      <trkpt lat="43.85566" lon="5.23361">
        <ele>140</ele>
        <time>2021-07-25T08:49:44Z</time>
      </trkpt>
      <trkpt lat="43.85547" lon="5.23414">
        <ele>140</ele>
        <time>2021-07-25T08:49:52Z</time>
      </trkpt>
      <trkpt lat="43.85527" lon="5.23482">
        <ele>139</ele>
        <time>2021-07-25T08:50:01Z</time>
      </trkpt>
      <trkpt lat="43.85514" lon="5.23538">
        <ele>139</ele>
        <time>2021-07-25T08:50:09Z</time>
      </trkpt>
      <trkpt lat="43.85502" lon="5.23608">
        <ele>140</ele>
        <time>2021-07-25T08:50:18Z</time>
      </trkpt>
      <trkpt lat="43.85433" lon="5.23976">
        <ele>143</ele>
        <time>2021-07-25T08:51:07Z</time>
      </trkpt>
      <trkpt lat="43.85408" lon="5.24098">
        <ele>147</ele>
        <time>2021-07-25T08:51:23Z</time>
      </trkpt>
      <trkpt lat="43.85306" lon="5.24639">
        <ele>145</ele>
        <time>2021-07-25T08:52:35Z</time>
      </trkpt>
      <trkpt lat="43.85305" lon="5.24648">
        <ele>145</ele>
        <time>2021-07-25T08:52:36Z</time>
      </trkpt>
      <trkpt lat="43.8519" lon="5.25248">
        <ele>150</ele>
        <time>2021-07-25T08:53:56Z</time>
      </trkpt>
      <trkpt lat="43.85175" lon="5.25333">
        <ele>152</ele>
        <time>2021-07-25T08:54:07Z</time>
      </trkpt>
      <trkpt lat="43.85167" lon="5.25399">
        <ele>152</ele>
        <time>2021-07-25T08:54:16Z</time>
      </trkpt>
      <trkpt lat="43.85162" lon="5.25463">
        <ele>152</ele>
        <time>2021-07-25T08:54:24Z</time>
      </trkpt>
      <trkpt lat="43.85159" lon="5.25549">
        <ele>152</ele>
        <time>2021-07-25T08:54:35Z</time>
      </trkpt>
      <trkpt lat="43.85159" lon="5.25618">
        <ele>152</ele>
        <time>2021-07-25T08:54:44Z</time>
      </trkpt>
      <trkpt lat="43.85161" lon="5.25682">
        <ele>152</ele>
        <time>2021-07-25T08:54:52Z</time>
      </trkpt>
      <trkpt lat="43.85165" lon="5.25735">
        <ele>151</ele>
        <time>2021-07-25T08:54:59Z</time>
      </trkpt>
      <trkpt lat="43.85175" lon="5.25814">
        <ele>151</ele>
        <time>2021-07-25T08:55:09Z</time>
      </trkpt>
      <trkpt lat="43.85187" lon="5.25894">
        <ele>151</ele>
        <time>2021-07-25T08:55:20Z</time>
      </trkpt>
      <trkpt lat="43.85304" lon="5.26594">
        <ele>154</ele>
        <time>2021-07-25T08:56:52Z</time>
      </trkpt>
      <trkpt lat="43.85307" lon="5.26616">
        <ele>154</ele>
        <time>2021-07-25T08:56:55Z</time>
      </trkpt>
      <trkpt lat="43.85339" lon="5.26804">
        <ele>154</ele>
        <time>2021-07-25T08:57:19Z</time>
      </trkpt>
      <trkpt lat="43.85355" lon="5.26922">
        <ele>155</ele>
        <time>2021-07-25T08:57:35Z</time>
      </trkpt>
      <trkpt lat="43.85375" lon="5.27036">
        <ele>157</ele>
        <time>2021-07-25T08:57:50Z</time>
      </trkpt>
      <trkpt lat="43.85385" lon="5.27106">
        <ele>158</ele>
        <time>2021-07-25T08:57:59Z</time>
      </trkpt>
      <trkpt lat="43.8539" lon="5.27138">
        <ele>159</ele>
        <time>2021-07-25T08:58:03Z</time>
      </trkpt>
      <trkpt lat="43.85391" lon="5.27148">
        <ele>159</ele>
        <time>2021-07-25T08:58:04Z</time>
      </trkpt>
      <trkpt lat="43.85383" lon="5.27231">
        <ele>160</ele>
        <time>2021-07-25T08:58:15Z</time>
      </trkpt>
      <trkpt lat="43.85379" lon="5.2725">
        <ele>160</ele>
        <time>2021-07-25T08:58:18Z</time>
      </trkpt>
      <trkpt lat="43.85376" lon="5.27259">
        <ele>160</ele>
        <time>2021-07-25T08:58:19Z</time>
      </trkpt>
      <trkpt lat="43.85382" lon="5.27285">
        <ele>161</ele>
        <time>2021-07-25T08:58:23Z</time>
      </trkpt>
      <trkpt lat="43.85392" lon="5.2736">
        <ele>161</ele>
        <time>2021-07-25T08:58:32Z</time>
      </trkpt>
      <trkpt lat="43.85399" lon="5.27386">
        <ele>161</ele>
        <time>2021-07-25T08:58:36Z</time>
      </trkpt>
      <trkpt lat="43.85411" lon="5.27401">
        <ele>160</ele>
        <time>2021-07-25T08:58:39Z</time>
      </trkpt>
      <trkpt lat="43.85415" lon="5.27393">
        <ele>161</ele>
        <time>2021-07-25T08:58:40Z</time>
      </trkpt>
      <trkpt lat="43.85425" lon="5.274">
        <ele>160</ele>
        <time>2021-07-25T08:58:42Z</time>
      </trkpt>
      <trkpt lat="43.85428" lon="5.27401">
        <ele>160</ele>
        <time>2021-07-25T08:58:43Z</time>
      </trkpt>
      <trkpt lat="43.85433" lon="5.27403">
        <ele>160</ele>
        <time>2021-07-25T08:58:43Z</time>
      </trkpt>
      <trkpt lat="43.85436" lon="5.27408">
        <ele>160</ele>
        <time>2021-07-25T08:58:44Z</time>
      </trkpt>
      <trkpt lat="43.85437" lon="5.27412">
        <ele>160</ele>
        <time>2021-07-25T08:58:45Z</time>
      </trkpt>
      <trkpt lat="43.85439" lon="5.2742">
        <ele>159</ele>
        <time>2021-07-25T08:58:46Z</time>
      </trkpt>
      <trkpt lat="43.85446" lon="5.27462">
        <ele>158</ele>
        <time>2021-07-25T08:58:51Z</time>
      </trkpt>
      <trkpt lat="43.855" lon="5.27772">
        <ele>160</ele>
        <time>2021-07-25T08:59:32Z</time>
      </trkpt>
      <trkpt lat="43.8567" lon="5.28809">
        <ele>162</ele>
        <time>2021-07-25T09:01:49Z</time>
      </trkpt>
      <trkpt lat="43.85671" lon="5.28814">
        <ele>162</ele>
        <time>2021-07-25T09:01:50Z</time>
      </trkpt>
      <trkpt lat="43.85673" lon="5.2882">
        <ele>162</ele>
        <time>2021-07-25T09:01:50Z</time>
      </trkpt>
      <trkpt lat="43.85744" lon="5.29253">
        <ele>165</ele>
        <time>2021-07-25T09:02:47Z</time>
      </trkpt>
      <trkpt lat="43.858" lon="5.29593">
        <ele>168</ele>
        <time>2021-07-25T09:03:32Z</time>
      </trkpt>
      <trkpt lat="43.85827" lon="5.29752">
        <ele>167</ele>
        <time>2021-07-25T09:03:53Z</time>
      </trkpt>
      <trkpt lat="43.85828" lon="5.29759">
        <ele>167</ele>
        <time>2021-07-25T09:03:54Z</time>
      </trkpt>
      <trkpt lat="43.8583" lon="5.29768">
        <ele>167</ele>
        <time>2021-07-25T09:03:55Z</time>
      </trkpt>
      <trkpt lat="43.85852" lon="5.29888">
        <ele>168</ele>
        <time>2021-07-25T09:04:11Z</time>
      </trkpt>
      <trkpt lat="43.85862" lon="5.29928">
        <ele>168</ele>
        <time>2021-07-25T09:04:16Z</time>
      </trkpt>
      <trkpt lat="43.85898" lon="5.30058">
        <ele>169</ele>
        <time>2021-07-25T09:04:34Z</time>
      </trkpt>
      <trkpt lat="43.85931" lon="5.30182">
        <ele>171</ele>
        <time>2021-07-25T09:04:51Z</time>
      </trkpt>
      <trkpt lat="43.85934" lon="5.30192">
        <ele>171</ele>
        <time>2021-07-25T09:04:53Z</time>
      </trkpt>
      <trkpt lat="43.86009" lon="5.30466">
        <ele>173</ele>
        <time>2021-07-25T09:05:30Z</time>
      </trkpt>
      <trkpt lat="43.86022" lon="5.30507">
        <ele>172</ele>
        <time>2021-07-25T09:05:36Z</time>
      </trkpt>
      <trkpt lat="43.86035" lon="5.30536">
        <ele>172</ele>
        <time>2021-07-25T09:05:40Z</time>
      </trkpt>
      <trkpt lat="43.86063" lon="5.30592">
        <ele>172</ele>
        <time>2021-07-25T09:05:49Z</time>
      </trkpt>
      <trkpt lat="43.86069" lon="5.306">
        <ele>173</ele>
        <time>2021-07-25T09:05:51Z</time>
      </trkpt>
      <trkpt lat="43.86074" lon="5.30602">
        <ele>172</ele>
        <time>2021-07-25T09:05:52Z</time>
      </trkpt>
      <trkpt lat="43.8608" lon="5.306">
        <ele>172</ele>
        <time>2021-07-25T09:05:53Z</time>
      </trkpt>
      <trkpt lat="43.86149" lon="5.30545">
        <ele>169</ele>
        <time>2021-07-25T09:06:07Z</time>
      </trkpt>
      <trkpt lat="43.8616" lon="5.30544">
        <ele>169</ele>
        <time>2021-07-25T09:06:09Z</time>
      </trkpt>
      <trkpt lat="43.86166" lon="5.30548">
        <ele>169</ele>
        <time>2021-07-25T09:06:10Z</time>
      </trkpt>
      <trkpt lat="43.8617" lon="5.30555">
        <ele>169</ele>
        <time>2021-07-25T09:06:11Z</time>
      </trkpt>
      <trkpt lat="43.86186" lon="5.30588">
        <ele>170</ele>
        <time>2021-07-25T09:06:16Z</time>
      </trkpt>
      <trkpt lat="43.86201" lon="5.30626">
        <ele>170</ele>
        <time>2021-07-25T09:06:22Z</time>
      </trkpt>
      <trkpt lat="43.8621" lon="5.30654">
        <ele>170</ele>
        <time>2021-07-25T09:06:26Z</time>
      </trkpt>
      <trkpt lat="43.86216" lon="5.3066">
        <ele>170</ele>
        <time>2021-07-25T09:06:27Z</time>
      </trkpt>
      <trkpt lat="43.86227" lon="5.3066">
        <ele>169</ele>
        <time>2021-07-25T09:06:29Z</time>
      </trkpt>
      <trkpt lat="43.8632" lon="5.30634">
        <ele>170</ele>
        <time>2021-07-25T09:06:46Z</time>
      </trkpt>
      <trkpt lat="43.8635" lon="5.30623">
        <ele>171</ele>
        <time>2021-07-25T09:06:51Z</time>
      </trkpt>
      <trkpt lat="43.86363" lon="5.30613">
        <ele>171</ele>
        <time>2021-07-25T09:06:54Z</time>
      </trkpt>
      <trkpt lat="43.86366" lon="5.30618">
        <ele>171</ele>
        <time>2021-07-25T09:06:55Z</time>
      </trkpt>
      <trkpt lat="43.86364" lon="5.30628">
        <ele>171</ele>
        <time>2021-07-25T09:06:56Z</time>
      </trkpt>
      <trkpt lat="43.86329" lon="5.30684">
        <ele>172</ele>
        <time>2021-07-25T09:07:06Z</time>
      </trkpt>
      <trkpt lat="43.86317" lon="5.30695">
        <ele>172</ele>
        <time>2021-07-25T09:07:08Z</time>
      </trkpt>
      <trkpt lat="43.86287" lon="5.30715">
        <ele>172</ele>
        <time>2021-07-25T09:07:14Z</time>
      </trkpt>
      <trkpt lat="43.86286" lon="5.30727">
        <ele>172</ele>
        <time>2021-07-25T09:07:16Z</time>
      </trkpt>
      <trkpt lat="43.86292" lon="5.30748">
        <ele>173</ele>
        <time>2021-07-25T09:07:19Z</time>
      </trkpt>
      <trkpt lat="43.86296" lon="5.30749">
        <ele>173</ele>
        <time>2021-07-25T09:07:19Z</time>
      </trkpt>
      <trkpt lat="43.86309" lon="5.30742">
        <ele>173</ele>
        <time>2021-07-25T09:07:22Z</time>
      </trkpt>
      <trkpt lat="43.86314" lon="5.30742">
        <ele>173</ele>
        <time>2021-07-25T09:07:23Z</time>
      </trkpt>
      <trkpt lat="43.86318" lon="5.30748">
        <ele>174</ele>
        <time>2021-07-25T09:07:24Z</time>
      </trkpt>
      <trkpt lat="43.86318" lon="5.30757">
        <ele>174</ele>
        <time>2021-07-25T09:07:25Z</time>
      </trkpt>
      <trkpt lat="43.86314" lon="5.30762">
        <ele>174</ele>
        <time>2021-07-25T09:07:26Z</time>
      </trkpt>
      <trkpt lat="43.86305" lon="5.30766">
        <ele>174</ele>
        <time>2021-07-25T09:07:28Z</time>
      </trkpt>
      <trkpt lat="43.86302" lon="5.3077">
        <ele>174</ele>
        <time>2021-07-25T09:07:28Z</time>
      </trkpt>
      <trkpt lat="43.863" lon="5.30776">
        <ele>174</ele>
        <time>2021-07-25T09:07:29Z</time>
      </trkpt>
      <trkpt lat="43.86301" lon="5.3078">
        <ele>174</ele>
        <time>2021-07-25T09:07:30Z</time>
      </trkpt>
      <trkpt lat="43.86368" lon="5.30845">
        <ele>177</ele>
        <time>2021-07-25T09:07:44Z</time>
      </trkpt>
      <trkpt lat="43.86388" lon="5.30862">
        <ele>178</ele>
        <time>2021-07-25T09:07:48Z</time>
      </trkpt>
      <trkpt lat="43.86394" lon="5.30868">
        <ele>179</ele>
        <time>2021-07-25T09:07:50Z</time>
      </trkpt>
      <trkpt lat="43.86427" lon="5.30905">
        <ele>180</ele>
        <time>2021-07-25T09:07:57Z</time>
      </trkpt>
      <trkpt lat="43.86444" lon="5.3093">
        <ele>180</ele>
        <time>2021-07-25T09:08:02Z</time>
      </trkpt>
      <trkpt lat="43.86472" lon="5.30979">
        <ele>181</ele>
        <time>2021-07-25T09:08:10Z</time>
      </trkpt>
      <trkpt lat="43.86476" lon="5.30986">
        <ele>181</ele>
        <time>2021-07-25T09:08:11Z</time>
      </trkpt>
      <trkpt lat="43.86484" lon="5.31001">
        <ele>181</ele>
        <time>2021-07-25T09:08:13Z</time>
      </trkpt>
      <trkpt lat="43.86501" lon="5.31044">
        <ele>183</ele>
        <time>2021-07-25T09:08:20Z</time>
      </trkpt>
      <trkpt lat="43.8651" lon="5.31071">
        <ele>184</ele>
        <time>2021-07-25T09:08:23Z</time>
      </trkpt>
      <trkpt lat="43.86528" lon="5.31139">
        <ele>187</ele>
        <time>2021-07-25T09:08:33Z</time>
      </trkpt>
      <trkpt lat="43.86534" lon="5.3118">
        <ele>188</ele>
        <time>2021-07-25T09:08:38Z</time>
      </trkpt>
      <trkpt lat="43.86538" lon="5.31217">
        <ele>188</ele>
        <time>2021-07-25T09:08:43Z</time>
      </trkpt>
      <trkpt lat="43.86539" lon="5.31251">
        <ele>189</ele>
        <time>2021-07-25T09:08:47Z</time>
      </trkpt>
      <trkpt lat="43.86539" lon="5.31305">
        <ele>190</ele>
        <time>2021-07-25T09:08:54Z</time>
      </trkpt>
      <trkpt lat="43.86534" lon="5.31354">
        <ele>191</ele>
        <time>2021-07-25T09:09:00Z</time>
      </trkpt>
      <trkpt lat="43.86525" lon="5.31406">
        <ele>193</ele>
        <time>2021-07-25T09:09:07Z</time>
      </trkpt>
      <trkpt lat="43.865" lon="5.3154">
        <ele>197</ele>
        <time>2021-07-25T09:09:25Z</time>
      </trkpt>
      <trkpt lat="43.86494" lon="5.31577">
        <ele>198</ele>
        <time>2021-07-25T09:09:30Z</time>
      </trkpt>
      <trkpt lat="43.86491" lon="5.31621">
        <ele>198</ele>
        <time>2021-07-25T09:09:36Z</time>
      </trkpt>
      <trkpt lat="43.86496" lon="5.317">
        <ele>198</ele>
        <time>2021-07-25T09:09:46Z</time>
      </trkpt>
      <trkpt lat="43.86504" lon="5.31756">
        <ele>200</ele>
        <time>2021-07-25T09:09:53Z</time>
      </trkpt>
      <trkpt lat="43.86516" lon="5.31814">
        <ele>198</ele>
        <time>2021-07-25T09:10:01Z</time>
      </trkpt>
      <trkpt lat="43.86525" lon="5.31847">
        <ele>198</ele>
        <time>2021-07-25T09:10:05Z</time>
      </trkpt>
      <trkpt lat="43.86534" lon="5.31874">
        <ele>197</ele>
        <time>2021-07-25T09:10:09Z</time>
      </trkpt>
      <trkpt lat="43.86556" lon="5.31923">
        <ele>196</ele>
        <time>2021-07-25T09:10:17Z</time>
      </trkpt>
      <trkpt lat="43.86593" lon="5.31985">
        <ele>197</ele>
        <time>2021-07-25T09:10:27Z</time>
      </trkpt>
      <trkpt lat="43.86642" lon="5.32054">
        <ele>200</ele>
        <time>2021-07-25T09:10:39Z</time>
      </trkpt>
      <trkpt lat="43.86706" lon="5.32131">
        <ele>202</ele>
        <time>2021-07-25T09:10:54Z</time>
      </trkpt>
      <trkpt lat="43.86735" lon="5.32165">
        <ele>201</ele>
        <time>2021-07-25T09:11:01Z</time>
      </trkpt>
      <trkpt lat="43.86761" lon="5.32191">
        <ele>201</ele>
        <time>2021-07-25T09:11:07Z</time>
      </trkpt>
      <trkpt lat="43.86813" lon="5.32231">
        <ele>202</ele>
        <time>2021-07-25T09:11:17Z</time>
      </trkpt>
      <trkpt lat="43.86857" lon="5.32254">
        <ele>203</ele>
        <time>2021-07-25T09:11:26Z</time>
      </trkpt>
      <trkpt lat="43.86926" lon="5.32285">
        <ele>206</ele>
        <time>2021-07-25T09:11:39Z</time>
      </trkpt>
      <trkpt lat="43.86975" lon="5.32313">
        <ele>207</ele>
        <time>2021-07-25T09:11:48Z</time>
      </trkpt>
      <trkpt lat="43.86991" lon="5.32326">
        <ele>206</ele>
        <time>2021-07-25T09:11:51Z</time>
      </trkpt>
      <trkpt lat="43.8701" lon="5.3234">
        <ele>206</ele>
        <time>2021-07-25T09:11:55Z</time>
      </trkpt>
      <trkpt lat="43.87027" lon="5.32355">
        <ele>207</ele>
        <time>2021-07-25T09:11:59Z</time>
      </trkpt>
      <trkpt lat="43.87065" lon="5.32398">
        <ele>208</ele>
        <time>2021-07-25T09:12:08Z</time>
      </trkpt>
      <trkpt lat="43.87087" lon="5.32431">
        <ele>208</ele>
        <time>2021-07-25T09:12:13Z</time>
      </trkpt>
      <trkpt lat="43.87098" lon="5.32448">
        <ele>208</ele>
        <time>2021-07-25T09:12:16Z</time>
      </trkpt>
      <trkpt lat="43.87115" lon="5.32478">
        <ele>208</ele>
        <time>2021-07-25T09:12:21Z</time>
      </trkpt>
      <trkpt lat="43.87129" lon="5.3251">
        <ele>208</ele>
        <time>2021-07-25T09:12:26Z</time>
      </trkpt>
      <trkpt lat="43.87141" lon="5.32539">
        <ele>208</ele>
        <time>2021-07-25T09:12:30Z</time>
      </trkpt>
      <trkpt lat="43.87156" lon="5.32587">
        <ele>208</ele>
        <time>2021-07-25T09:12:37Z</time>
      </trkpt>
      <trkpt lat="43.87167" lon="5.32633">
        <ele>208</ele>
        <time>2021-07-25T09:12:43Z</time>
      </trkpt>
      <trkpt lat="43.87173" lon="5.32678">
        <ele>208</ele>
        <time>2021-07-25T09:12:49Z</time>
      </trkpt>
      <trkpt lat="43.87192" lon="5.32838">
        <ele>210</ele>
        <time>2021-07-25T09:13:10Z</time>
      </trkpt>
      <trkpt lat="43.87193" lon="5.32844">
        <ele>210</ele>
        <time>2021-07-25T09:13:11Z</time>
      </trkpt>
      <trkpt lat="43.87194" lon="5.32856">
        <ele>210</ele>
        <time>2021-07-25T09:13:12Z</time>
      </trkpt>
      <trkpt lat="43.87206" lon="5.32933">
        <ele>209</ele>
        <time>2021-07-25T09:13:22Z</time>
      </trkpt>
      <trkpt lat="43.87214" lon="5.32976">
        <ele>209</ele>
        <time>2021-07-25T09:13:28Z</time>
      </trkpt>
      <trkpt lat="43.87222" lon="5.33014">
        <ele>210</ele>
        <time>2021-07-25T09:13:33Z</time>
      </trkpt>
      <trkpt lat="43.87242" lon="5.33078">
        <ele>211</ele>
        <time>2021-07-25T09:13:42Z</time>
      </trkpt>
      <trkpt lat="43.87275" lon="5.33156">
        <ele>212</ele>
        <time>2021-07-25T09:13:54Z</time>
      </trkpt>
      <trkpt lat="43.87303" lon="5.33209">
        <ele>212</ele>
        <time>2021-07-25T09:14:02Z</time>
      </trkpt>
      <trkpt lat="43.87327" lon="5.33246">
        <ele>212</ele>
        <time>2021-07-25T09:14:08Z</time>
      </trkpt>
      <trkpt lat="43.87366" lon="5.33299">
        <ele>211</ele>
        <time>2021-07-25T09:14:18Z</time>
      </trkpt>
      <trkpt lat="43.87384" lon="5.3332">
        <ele>210</ele>
        <time>2021-07-25T09:14:22Z</time>
      </trkpt>
      <trkpt lat="43.87409" lon="5.33344">
        <ele>210</ele>
        <time>2021-07-25T09:14:28Z</time>
      </trkpt>
      <trkpt lat="43.87467" lon="5.3339">
        <ele>208</ele>
        <time>2021-07-25T09:14:40Z</time>
      </trkpt>
      <trkpt lat="43.875" lon="5.33409">
        <ele>207</ele>
        <time>2021-07-25T09:14:46Z</time>
      </trkpt>
      <trkpt lat="43.87696" lon="5.33502">
        <ele>207</ele>
        <time>2021-07-25T09:15:23Z</time>
      </trkpt>
      <trkpt lat="43.87743" lon="5.33526">
        <ele>208</ele>
        <time>2021-07-25T09:15:32Z</time>
      </trkpt>
      <trkpt lat="43.8775" lon="5.3353">
        <ele>208</ele>
        <time>2021-07-25T09:15:33Z</time>
      </trkpt>
      <trkpt lat="43.87759" lon="5.33536">
        <ele>208</ele>
        <time>2021-07-25T09:15:35Z</time>
      </trkpt>
      <trkpt lat="43.87784" lon="5.33554">
        <ele>209</ele>
        <time>2021-07-25T09:15:40Z</time>
      </trkpt>
      <trkpt lat="43.87803" lon="5.33572">
        <ele>209</ele>
        <time>2021-07-25T09:15:44Z</time>
      </trkpt>
      <trkpt lat="43.87831" lon="5.336">
        <ele>209</ele>
        <time>2021-07-25T09:15:50Z</time>
      </trkpt>
      <trkpt lat="43.87847" lon="5.33621">
        <ele>209</ele>
        <time>2021-07-25T09:15:54Z</time>
      </trkpt>
      <trkpt lat="43.87881" lon="5.33678">
        <ele>209</ele>
        <time>2021-07-25T09:16:04Z</time>
      </trkpt>
      <trkpt lat="43.87897" lon="5.33714">
        <ele>209</ele>
        <time>2021-07-25T09:16:09Z</time>
      </trkpt>
      <trkpt lat="43.87909" lon="5.33746">
        <ele>209</ele>
        <time>2021-07-25T09:16:14Z</time>
      </trkpt>
      <trkpt lat="43.87912" lon="5.33758">
        <ele>209</ele>
        <time>2021-07-25T09:16:15Z</time>
      </trkpt>
      <trkpt lat="43.87918" lon="5.33784">
        <ele>209</ele>
        <time>2021-07-25T09:16:19Z</time>
      </trkpt>
      <trkpt lat="43.87919" lon="5.33791">
        <ele>209</ele>
        <time>2021-07-25T09:16:20Z</time>
      </trkpt>
      <trkpt lat="43.8792" lon="5.3381">
        <ele>209</ele>
        <time>2021-07-25T09:16:22Z</time>
      </trkpt>
      <trkpt lat="43.87927" lon="5.33849">
        <ele>208</ele>
        <time>2021-07-25T09:16:27Z</time>
      </trkpt>
      <trkpt lat="43.8793" lon="5.33883">
        <ele>207</ele>
        <time>2021-07-25T09:16:32Z</time>
      </trkpt>
      <trkpt lat="43.87932" lon="5.34004">
        <ele>206</ele>
        <time>2021-07-25T09:16:47Z</time>
      </trkpt>
      <trkpt lat="43.87951" lon="5.34002">
        <ele>206</ele>
        <time>2021-07-25T09:16:51Z</time>
      </trkpt>
      <trkpt lat="43.87964" lon="5.34002">
        <ele>206</ele>
        <time>2021-07-25T09:16:53Z</time>
      </trkpt>
      <trkpt lat="43.87997" lon="5.34001">
        <ele>206</ele>
        <time>2021-07-25T09:16:59Z</time>
      </trkpt>
      <trkpt lat="43.88009" lon="5.33996">
        <ele>206</ele>
        <time>2021-07-25T09:17:01Z</time>
      </trkpt>
      <trkpt lat="43.88011" lon="5.33996">
        <ele>206</ele>
        <time>2021-07-25T09:17:01Z</time>
      </trkpt>
      <trkpt lat="43.88013" lon="5.33995">
        <ele>206</ele>
        <time>2021-07-25T09:17:02Z</time>
      </trkpt>
      <trkpt lat="43.88027" lon="5.34056">
        <ele>206</ele>
        <time>2021-07-25T09:17:10Z</time>
      </trkpt>
      <trkpt lat="43.88037" lon="5.34104">
        <ele>206</ele>
        <time>2021-07-25T09:17:16Z</time>
      </trkpt>
      <trkpt lat="43.88038" lon="5.34112">
        <ele>205</ele>
        <time>2021-07-25T09:17:17Z</time>
      </trkpt>
      <trkpt lat="43.88045" lon="5.34146">
        <ele>205</ele>
        <time>2021-07-25T09:17:22Z</time>
      </trkpt>
      <trkpt lat="43.88051" lon="5.34179">
        <ele>205</ele>
        <time>2021-07-25T09:17:26Z</time>
      </trkpt>
      <trkpt lat="43.88052" lon="5.34182">
        <ele>205</ele>
        <time>2021-07-25T09:17:27Z</time>
      </trkpt>
      <trkpt lat="43.88063" lon="5.34244">
        <ele>204</ele>
        <time>2021-07-25T09:17:35Z</time>
      </trkpt>
      <trkpt lat="43.88065" lon="5.34257">
        <ele>204</ele>
        <time>2021-07-25T09:17:37Z</time>
      </trkpt>
      <trkpt lat="43.88068" lon="5.34299">
        <ele>205</ele>
        <time>2021-07-25T09:17:42Z</time>
      </trkpt>
      <trkpt lat="43.88071" lon="5.34315">
        <ele>205</ele>
        <time>2021-07-25T09:17:44Z</time>
      </trkpt>
      <trkpt lat="43.88076" lon="5.34342">
        <ele>205</ele>
        <time>2021-07-25T09:17:48Z</time>
      </trkpt>
      <trkpt lat="43.88077" lon="5.3435">
        <ele>206</ele>
        <time>2021-07-25T09:17:49Z</time>
      </trkpt>
      <trkpt lat="43.88091" lon="5.34434">
        <ele>207</ele>
        <time>2021-07-25T09:18:00Z</time>
      </trkpt>
      <trkpt lat="43.88101" lon="5.34472">
        <ele>207</ele>
        <time>2021-07-25T09:18:05Z</time>
      </trkpt>
      <trkpt lat="43.88113" lon="5.34544">
        <ele>208</ele>
        <time>2021-07-25T09:18:14Z</time>
      </trkpt>
      <trkpt lat="43.88119" lon="5.34581">
        <ele>208</ele>
        <time>2021-07-25T09:18:19Z</time>
      </trkpt>
      <trkpt lat="43.88116" lon="5.34582">
        <ele>208</ele>
        <time>2021-07-25T09:18:20Z</time>
      </trkpt>
      <trkpt lat="43.88111" lon="5.34587">
        <ele>208</ele>
        <time>2021-07-25T09:18:21Z</time>
      </trkpt>
      <trkpt lat="43.88091" lon="5.3462">
        <ele>208</ele>
        <time>2021-07-25T09:18:26Z</time>
      </trkpt>
      <trkpt lat="43.88085" lon="5.34625">
        <ele>208</ele>
        <time>2021-07-25T09:18:28Z</time>
      </trkpt>
      <trkpt lat="43.88079" lon="5.34623">
        <ele>208</ele>
        <time>2021-07-25T09:18:29Z</time>
      </trkpt>
      <trkpt lat="43.88076" lon="5.34619">
        <ele>208</ele>
        <time>2021-07-25T09:18:30Z</time>
      </trkpt>
      <trkpt lat="43.88066" lon="5.34599">
        <ele>208</ele>
        <time>2021-07-25T09:18:33Z</time>
      </trkpt>
      <trkpt lat="43.88062" lon="5.34595">
        <ele>208</ele>
        <time>2021-07-25T09:18:34Z</time>
      </trkpt>
      <trkpt lat="43.8806" lon="5.34595">
        <ele>208</ele>
        <time>2021-07-25T09:18:34Z</time>
      </trkpt>
      <trkpt lat="43.88056" lon="5.34596">
        <ele>208</ele>
        <time>2021-07-25T09:18:35Z</time>
      </trkpt>
      <trkpt lat="43.88045" lon="5.34603">
        <ele>207</ele>
        <time>2021-07-25T09:18:37Z</time>
      </trkpt>
      <trkpt lat="43.88036" lon="5.34608">
        <ele>207</ele>
        <time>2021-07-25T09:18:39Z</time>
      </trkpt>
      <trkpt lat="43.88035" lon="5.34615">
        <ele>207</ele>
        <time>2021-07-25T09:18:39Z</time>
      </trkpt>
      <trkpt lat="43.88039" lon="5.34633">
        <ele>208</ele>
        <time>2021-07-25T09:18:42Z</time>
      </trkpt>
      <trkpt lat="43.88056" lon="5.34663">
        <ele>208</ele>
        <time>2021-07-25T09:18:47Z</time>
      </trkpt>
      <trkpt lat="43.88072" lon="5.34703">
        <ele>208</ele>
        <time>2021-07-25T09:18:53Z</time>
      </trkpt>
      <trkpt lat="43.88186" lon="5.35043">
        <ele>214</ele>
        <time>2021-07-25T09:19:41Z</time>
      </trkpt>
      <trkpt lat="43.8821" lon="5.35117">
        <ele>215</ele>
        <time>2021-07-25T09:19:51Z</time>
      </trkpt>
      <trkpt lat="43.88292" lon="5.35402">
        <ele>220</ele>
        <time>2021-07-25T09:20:30Z</time>
      </trkpt>
      <trkpt lat="43.88304" lon="5.35445">
        <ele>220</ele>
        <time>2021-07-25T09:20:36Z</time>
      </trkpt>
      <trkpt lat="43.88309" lon="5.35467">
        <ele>220</ele>
        <time>2021-07-25T09:20:39Z</time>
      </trkpt>
      <trkpt lat="43.88309" lon="5.35482">
        <ele>220</ele>
        <time>2021-07-25T09:20:41Z</time>
      </trkpt>
      <trkpt lat="43.88307" lon="5.35497">
        <ele>220</ele>
        <time>2021-07-25T09:20:43Z</time>
      </trkpt>
      <trkpt lat="43.88305" lon="5.35502">
        <ele>220</ele>
        <time>2021-07-25T09:20:44Z</time>
      </trkpt>
      <trkpt lat="43.88302" lon="5.35514">
        <ele>221</ele>
        <time>2021-07-25T09:20:46Z</time>
      </trkpt>
      <trkpt lat="43.88299" lon="5.35528">
        <ele>221</ele>
        <time>2021-07-25T09:20:47Z</time>
      </trkpt>
      <trkpt lat="43.88299" lon="5.35575">
        <ele>221</ele>
        <time>2021-07-25T09:20:53Z</time>
      </trkpt>
      <trkpt lat="43.88291" lon="5.35633">
        <ele>221</ele>
        <time>2021-07-25T09:21:01Z</time>
      </trkpt>
      <trkpt lat="43.88292" lon="5.35649">
        <ele>221</ele>
        <time>2021-07-25T09:21:03Z</time>
      </trkpt>
      <trkpt lat="43.88308" lon="5.35702">
        <ele>220</ele>
        <time>2021-07-25T09:21:10Z</time>
      </trkpt>
      <trkpt lat="43.88341" lon="5.35832">
        <ele>219</ele>
        <time>2021-07-25T09:21:28Z</time>
      </trkpt>
      <trkpt lat="43.88348" lon="5.35889">
        <ele>218</ele>
        <time>2021-07-25T09:21:36Z</time>
      </trkpt>
      <trkpt lat="43.88372" lon="5.36009">
        <ele>216</ele>
        <time>2021-07-25T09:21:52Z</time>
      </trkpt>
      <trkpt lat="43.88375" lon="5.36028">
        <ele>215</ele>
        <time>2021-07-25T09:21:54Z</time>
      </trkpt>
      <trkpt lat="43.88384" lon="5.36044">
        <ele>215</ele>
        <time>2021-07-25T09:21:57Z</time>
      </trkpt>
      <trkpt lat="43.88416" lon="5.36034">
        <ele>214</ele>
        <time>2021-07-25T09:22:02Z</time>
      </trkpt>
      <trkpt lat="43.88429" lon="5.36037">
        <ele>214</ele>
        <time>2021-07-25T09:22:05Z</time>
      </trkpt>
      <trkpt lat="43.88431" lon="5.36043">
        <ele>214</ele>
        <time>2021-07-25T09:22:06Z</time>
      </trkpt>
      <trkpt lat="43.88482" lon="5.36318">
        <ele>215</ele>
        <time>2021-07-25T09:22:42Z</time>
      </trkpt>
      <trkpt lat="43.88539" lon="5.36631">
        <ele>212</ele>
        <time>2021-07-25T09:23:23Z</time>
      </trkpt>
      <trkpt lat="43.88544" lon="5.36654">
        <ele>212</ele>
        <time>2021-07-25T09:23:27Z</time>
      </trkpt>
      <trkpt lat="43.88553" lon="5.36702">
        <ele>211</ele>
        <time>2021-07-25T09:23:33Z</time>
      </trkpt>
      <trkpt lat="43.88596" lon="5.36937">
        <ele>213</ele>
        <time>2021-07-25T09:24:04Z</time>
      </trkpt>
      <trkpt lat="43.88608" lon="5.37002">
        <ele>212</ele>
        <time>2021-07-25T09:24:13Z</time>
      </trkpt>
      <trkpt lat="43.88673" lon="5.37354">
        <ele>216</ele>
        <time>2021-07-25T09:24:59Z</time>
      </trkpt>
      <trkpt lat="43.88682" lon="5.37426">
        <ele>217</ele>
        <time>2021-07-25T09:25:09Z</time>
      </trkpt>
      <trkpt lat="43.88685" lon="5.37469">
        <ele>217</ele>
        <time>2021-07-25T09:25:14Z</time>
      </trkpt>
      <trkpt lat="43.88685" lon="5.3756">
        <ele>219</ele>
        <time>2021-07-25T09:25:26Z</time>
      </trkpt>
      <trkpt lat="43.88683" lon="5.37603">
        <ele>219</ele>
        <time>2021-07-25T09:25:31Z</time>
      </trkpt>
      <trkpt lat="43.8868" lon="5.37637">
        <ele>220</ele>
        <time>2021-07-25T09:25:36Z</time>
      </trkpt>
      <trkpt lat="43.88678" lon="5.37655">
        <ele>220</ele>
        <time>2021-07-25T09:25:38Z</time>
      </trkpt>
      <trkpt lat="43.88668" lon="5.37731">
        <ele>220</ele>
        <time>2021-07-25T09:25:48Z</time>
      </trkpt>
      <trkpt lat="43.88652" lon="5.37808">
        <ele>219</ele>
        <time>2021-07-25T09:25:58Z</time>
      </trkpt>
      <trkpt lat="43.8863" lon="5.3788">
        <ele>216</ele>
        <time>2021-07-25T09:26:08Z</time>
      </trkpt>
      <trkpt lat="43.88614" lon="5.37923">
        <ele>215</ele>
        <time>2021-07-25T09:26:14Z</time>
      </trkpt>
      <trkpt lat="43.88574" lon="5.38017">
        <ele>216</ele>
        <time>2021-07-25T09:26:28Z</time>
      </trkpt>
      <trkpt lat="43.88524" lon="5.38107">
        <ele>222</ele>
        <time>2021-07-25T09:26:43Z</time>
      </trkpt>
      <trkpt lat="43.88514" lon="5.38127">
        <ele>224</ele>
        <time>2021-07-25T09:26:46Z</time>
      </trkpt>
      <trkpt lat="43.88495" lon="5.38154">
        <ele>227</ele>
        <time>2021-07-25T09:26:51Z</time>
      </trkpt>
      <trkpt lat="43.88477" lon="5.38175">
        <ele>229</ele>
        <time>2021-07-25T09:26:55Z</time>
      </trkpt>
      <trkpt lat="43.88452" lon="5.38201">
        <ele>232</ele>
        <time>2021-07-25T09:27:01Z</time>
      </trkpt>
      <trkpt lat="43.88377" lon="5.38266">
        <ele>234</ele>
        <time>2021-07-25T09:27:16Z</time>
      </trkpt>
      <trkpt lat="43.88216" lon="5.38395">
        <ele>232</ele>
        <time>2021-07-25T09:27:50Z</time>
      </trkpt>
      <trkpt lat="43.88105" lon="5.38475">
        <ele>233</ele>
        <time>2021-07-25T09:28:12Z</time>
      </trkpt>
      <trkpt lat="43.88102" lon="5.38474">
        <ele>232</ele>
        <time>2021-07-25T09:28:12Z</time>
      </trkpt>
      <trkpt lat="43.88098" lon="5.38463">
        <ele>232</ele>
        <time>2021-07-25T09:28:14Z</time>
      </trkpt>
      <trkpt lat="43.8809" lon="5.3847">
        <ele>232</ele>
        <time>2021-07-25T09:28:16Z</time>
      </trkpt>
      <trkpt lat="43.88086" lon="5.38459">
        <ele>232</ele>
        <time>2021-07-25T09:28:17Z</time>
      </trkpt>
      <trkpt lat="43.88079" lon="5.38454">
        <ele>232</ele>
        <time>2021-07-25T09:28:19Z</time>
      </trkpt>
      <trkpt lat="43.8807" lon="5.38453">
        <ele>232</ele>
        <time>2021-07-25T09:28:20Z</time>
      </trkpt>
      <trkpt lat="43.8795" lon="5.38549">
        <ele>232</ele>
        <time>2021-07-25T09:28:45Z</time>
      </trkpt>
      <trkpt lat="43.87947" lon="5.38557">
        <ele>232</ele>
        <time>2021-07-25T09:28:46Z</time>
      </trkpt>
      <trkpt lat="43.87949" lon="5.38576">
        <ele>233</ele>
        <time>2021-07-25T09:28:48Z</time>
      </trkpt>
      <trkpt lat="43.87953" lon="5.38588">
        <ele>234</ele>
        <time>2021-07-25T09:28:50Z</time>
      </trkpt>
      <trkpt lat="43.87957" lon="5.38593">
        <ele>234</ele>
        <time>2021-07-25T09:28:51Z</time>
      </trkpt>
      <trkpt lat="43.87961" lon="5.38595">
        <ele>235</ele>
        <time>2021-07-25T09:28:52Z</time>
      </trkpt>
      <trkpt lat="43.87959" lon="5.38603">
        <ele>235</ele>
        <time>2021-07-25T09:28:53Z</time>
      </trkpt>
      <trkpt lat="43.87949" lon="5.3863">
        <ele>236</ele>
        <time>2021-07-25T09:28:57Z</time>
      </trkpt>
      <trkpt lat="43.87939" lon="5.38654">
        <ele>236</ele>
        <time>2021-07-25T09:29:00Z</time>
      </trkpt>
      <trkpt lat="43.87923" lon="5.38696">
        <ele>237</ele>
        <time>2021-07-25T09:29:07Z</time>
      </trkpt>
      <trkpt lat="43.87917" lon="5.38715">
        <ele>237</ele>
        <time>2021-07-25T09:29:09Z</time>
      </trkpt>
      <trkpt lat="43.87912" lon="5.38732">
        <ele>237</ele>
        <time>2021-07-25T09:29:12Z</time>
      </trkpt>
      <trkpt lat="43.87916" lon="5.38735">
        <ele>237</ele>
        <time>2021-07-25T09:29:12Z</time>
      </trkpt>
      <trkpt lat="43.87933" lon="5.38742">
        <ele>239</ele>
        <time>2021-07-25T09:29:15Z</time>
      </trkpt>
      <trkpt lat="43.87941" lon="5.38743">
        <ele>240</ele>
        <time>2021-07-25T09:29:17Z</time>
      </trkpt>
      <trkpt lat="43.87936" lon="5.38769">
        <ele>241</ele>
        <time>2021-07-25T09:29:20Z</time>
      </trkpt>
      <trkpt lat="43.87933" lon="5.38789">
        <ele>241</ele>
        <time>2021-07-25T09:29:23Z</time>
      </trkpt>
      <trkpt lat="43.87932" lon="5.38805">
        <ele>241</ele>
        <time>2021-07-25T09:29:25Z</time>
      </trkpt>
      <trkpt lat="43.87933" lon="5.38816">
        <ele>242</ele>
        <time>2021-07-25T09:29:26Z</time>
      </trkpt>
      <trkpt lat="43.87931" lon="5.38829">
        <ele>242</ele>
        <time>2021-07-25T09:29:28Z</time>
      </trkpt>
      <trkpt lat="43.87913" lon="5.38983">
        <ele>237</ele>
        <time>2021-07-25T09:29:48Z</time>
      </trkpt>
      <trkpt lat="43.87907" lon="5.38983">
        <ele>236</ele>
        <time>2021-07-25T09:29:49Z</time>
      </trkpt>
      <trkpt lat="43.87903" lon="5.38986">
        <ele>235</ele>
        <time>2021-07-25T09:29:50Z</time>
      </trkpt>
      <trkpt lat="43.87901" lon="5.38993">
        <ele>235</ele>
        <time>2021-07-25T09:29:51Z</time>
      </trkpt>
      <trkpt lat="43.87899" lon="5.39008">
        <ele>235</ele>
        <time>2021-07-25T09:29:53Z</time>
      </trkpt>
      <trkpt lat="43.87885" lon="5.39116">
        <ele>241</ele>
        <time>2021-07-25T09:30:07Z</time>
      </trkpt>
      <trkpt lat="43.87871" lon="5.39206">
        <ele>240</ele>
        <time>2021-07-25T09:30:19Z</time>
      </trkpt>
      <trkpt lat="43.87867" lon="5.39225">
        <ele>239</ele>
        <time>2021-07-25T09:30:21Z</time>
      </trkpt>
      <trkpt lat="43.87862" lon="5.39253">
        <ele>239</ele>
        <time>2021-07-25T09:30:25Z</time>
      </trkpt>
      <trkpt lat="43.87848" lon="5.39339">
        <ele>238</ele>
        <time>2021-07-25T09:30:36Z</time>
      </trkpt>
      <trkpt lat="43.87841" lon="5.39391">
        <ele>236</ele>
        <time>2021-07-25T09:30:43Z</time>
      </trkpt>
      <trkpt lat="43.87839" lon="5.39408">
        <ele>236</ele>
        <time>2021-07-25T09:30:45Z</time>
      </trkpt>
      <trkpt lat="43.87836" lon="5.39431">
        <ele>236</ele>
        <time>2021-07-25T09:30:48Z</time>
      </trkpt>
      <trkpt lat="43.87829" lon="5.39496">
        <ele>236</ele>
        <time>2021-07-25T09:30:57Z</time>
      </trkpt>
      <trkpt lat="43.8781" lon="5.39611">
        <ele>242</ele>
        <time>2021-07-25T09:31:12Z</time>
      </trkpt>
      <trkpt lat="43.8778" lon="5.39762">
        <ele>243</ele>
        <time>2021-07-25T09:31:32Z</time>
      </trkpt>
      <trkpt lat="43.87763" lon="5.3985">
        <ele>241</ele>
        <time>2021-07-25T09:31:44Z</time>
      </trkpt>
      <trkpt lat="43.87748" lon="5.3992">
        <ele>239</ele>
        <time>2021-07-25T09:31:53Z</time>
      </trkpt>
      <trkpt lat="43.87738" lon="5.39985">
        <ele>238</ele>
        <time>2021-07-25T09:32:02Z</time>
      </trkpt>
      <trkpt lat="43.87735" lon="5.40016">
        <ele>237</ele>
        <time>2021-07-25T09:32:06Z</time>
      </trkpt>
      <trkpt lat="43.87734" lon="5.40026">
        <ele>237</ele>
        <time>2021-07-25T09:32:07Z</time>
      </trkpt>
      <trkpt lat="43.87734" lon="5.40067">
        <ele>237</ele>
        <time>2021-07-25T09:32:12Z</time>
      </trkpt>
      <trkpt lat="43.87741" lon="5.40169">
        <ele>234</ele>
        <time>2021-07-25T09:32:25Z</time>
      </trkpt>
      <trkpt lat="43.87741" lon="5.40187">
        <ele>233</ele>
        <time>2021-07-25T09:32:28Z</time>
      </trkpt>
      <trkpt lat="43.87741" lon="5.40188">
        <ele>233</ele>
        <time>2021-07-25T09:32:28Z</time>
      </trkpt>
      <trkpt lat="43.87742" lon="5.40211">
        <ele>231</ele>
        <time>2021-07-25T09:32:31Z</time>
      </trkpt>
      <trkpt lat="43.87744" lon="5.40273">
        <ele>228</ele>
        <time>2021-07-25T09:32:39Z</time>
      </trkpt>
      <trkpt lat="43.87745" lon="5.40327">
        <ele>227</ele>
        <time>2021-07-25T09:32:46Z</time>
      </trkpt>
      <trkpt lat="43.87747" lon="5.40415">
        <ele>226</ele>
        <time>2021-07-25T09:32:57Z</time>
      </trkpt>
      <trkpt lat="43.87742" lon="5.40473">
        <ele>226</ele>
        <time>2021-07-25T09:33:04Z</time>
      </trkpt>
      <trkpt lat="43.87739" lon="5.40497">
        <ele>226</ele>
        <time>2021-07-25T09:33:08Z</time>
      </trkpt>
      <trkpt lat="43.87732" lon="5.40558">
        <ele>228</ele>
        <time>2021-07-25T09:33:15Z</time>
      </trkpt>
      <trkpt lat="43.87724" lon="5.40605">
        <ele>231</ele>
        <time>2021-07-25T09:33:22Z</time>
      </trkpt>
      <trkpt lat="43.87718" lon="5.40649">
        <ele>232</ele>
        <time>2021-07-25T09:33:27Z</time>
      </trkpt>
      <trkpt lat="43.87714" lon="5.40681">
        <ele>233</ele>
        <time>2021-07-25T09:33:32Z</time>
      </trkpt>
      <trkpt lat="43.87712" lon="5.40745">
        <ele>233</ele>
        <time>2021-07-25T09:33:40Z</time>
      </trkpt>
      <trkpt lat="43.87713" lon="5.40762">
        <ele>233</ele>
        <time>2021-07-25T09:33:42Z</time>
      </trkpt>
      <trkpt lat="43.87737" lon="5.40938">
        <ele>233</ele>
        <time>2021-07-25T09:34:05Z</time>
      </trkpt>
      <trkpt lat="43.87779" lon="5.41233">
        <ele>238</ele>
        <time>2021-07-25T09:34:43Z</time>
      </trkpt>
      <trkpt lat="43.87799" lon="5.41508">
        <ele>238</ele>
        <time>2021-07-25T09:35:19Z</time>
      </trkpt>
      <trkpt lat="43.87812" lon="5.41653">
        <ele>241</ele>
        <time>2021-07-25T09:35:38Z</time>
      </trkpt>
      <trkpt lat="43.87819" lon="5.41773">
        <ele>240</ele>
        <time>2021-07-25T09:35:53Z</time>
      </trkpt>
      <trkpt lat="43.87834" lon="5.41944">
        <ele>242</ele>
        <time>2021-07-25T09:36:15Z</time>
      </trkpt>
      <trkpt lat="43.87841" lon="5.4201">
        <ele>241</ele>
        <time>2021-07-25T09:36:24Z</time>
      </trkpt>
      <trkpt lat="43.87864" lon="5.42152">
        <ele>245</ele>
        <time>2021-07-25T09:36:42Z</time>
      </trkpt>
      <trkpt lat="43.87867" lon="5.42204">
        <ele>245</ele>
        <time>2021-07-25T09:36:49Z</time>
      </trkpt>
      <trkpt lat="43.87865" lon="5.42258">
        <ele>245</ele>
        <time>2021-07-25T09:36:56Z</time>
      </trkpt>
      <trkpt lat="43.87848" lon="5.42425">
        <ele>245</ele>
        <time>2021-07-25T09:37:18Z</time>
      </trkpt>
      <trkpt lat="43.87847" lon="5.42482">
        <ele>246</ele>
        <time>2021-07-25T09:37:25Z</time>
      </trkpt>
      <trkpt lat="43.87849" lon="5.42519">
        <ele>246</ele>
        <time>2021-07-25T09:37:30Z</time>
      </trkpt>
      <trkpt lat="43.87864" lon="5.42594">
        <ele>244</ele>
        <time>2021-07-25T09:37:40Z</time>
      </trkpt>
      <trkpt lat="43.87874" lon="5.42622">
        <ele>245</ele>
        <time>2021-07-25T09:37:44Z</time>
      </trkpt>
      <trkpt lat="43.87958" lon="5.42823">
        <ele>242</ele>
        <time>2021-07-25T09:38:14Z</time>
      </trkpt>
      <trkpt lat="43.87967" lon="5.4286">
        <ele>242</ele>
        <time>2021-07-25T09:38:19Z</time>
      </trkpt>
      <trkpt lat="43.87973" lon="5.42903">
        <ele>242</ele>
        <time>2021-07-25T09:38:24Z</time>
      </trkpt>
      <trkpt lat="43.8799" lon="5.43055">
        <ele>243</ele>
        <time>2021-07-25T09:38:44Z</time>
      </trkpt>
      <trkpt lat="43.87993" lon="5.43104">
        <ele>243</ele>
        <time>2021-07-25T09:38:50Z</time>
      </trkpt>
      <trkpt lat="43.88021" lon="5.44161">
        <ele>251</ele>
        <time>2021-07-25T09:41:06Z</time>
      </trkpt>
      <trkpt lat="43.88021" lon="5.442">
        <ele>251</ele>
        <time>2021-07-25T09:41:11Z</time>
      </trkpt>
      <trkpt lat="43.88015" lon="5.44263">
        <ele>252</ele>
        <time>2021-07-25T09:41:19Z</time>
      </trkpt>
      <trkpt lat="43.88005" lon="5.44322">
        <ele>253</ele>
        <time>2021-07-25T09:41:27Z</time>
      </trkpt>
      <trkpt lat="43.87992" lon="5.44369">
        <ele>254</ele>
        <time>2021-07-25T09:41:33Z</time>
      </trkpt>
      <trkpt lat="43.87975" lon="5.44418">
        <ele>255</ele>
        <time>2021-07-25T09:41:40Z</time>
      </trkpt>
      <trkpt lat="43.87968" lon="5.44432">
        <ele>255</ele>
        <time>2021-07-25T09:41:42Z</time>
      </trkpt>
      <trkpt lat="43.87941" lon="5.4448">
        <ele>256</ele>
        <time>2021-07-25T09:41:50Z</time>
      </trkpt>
      <trkpt lat="43.87875" lon="5.44583">
        <ele>257</ele>
        <time>2021-07-25T09:42:08Z</time>
      </trkpt>
      <trkpt lat="43.87865" lon="5.44584">
        <ele>257</ele>
        <time>2021-07-25T09:42:10Z</time>
      </trkpt>
      <trkpt lat="43.87792" lon="5.44639">
        <ele>259</ele>
        <time>2021-07-25T09:42:24Z</time>
      </trkpt>
      <trkpt lat="43.87659" lon="5.44705">
        <ele>263</ele>
        <time>2021-07-25T09:42:50Z</time>
      </trkpt>
      <trkpt lat="43.87596" lon="5.44741">
        <ele>262</ele>
        <time>2021-07-25T09:43:02Z</time>
      </trkpt>
      <trkpt lat="43.87491" lon="5.44797">
        <ele>263</ele>
        <time>2021-07-25T09:43:22Z</time>
      </trkpt>
      <trkpt lat="43.87451" lon="5.44822">
        <ele>262</ele>
        <time>2021-07-25T09:43:30Z</time>
      </trkpt>
      <trkpt lat="43.87272" lon="5.44942">
        <ele>260</ele>
        <time>2021-07-25T09:44:05Z</time>
      </trkpt>
      <trkpt lat="43.87237" lon="5.44975">
        <ele>261</ele>
        <time>2021-07-25T09:44:12Z</time>
      </trkpt>
      <trkpt lat="43.87217" lon="5.44998">
        <ele>261</ele>
        <time>2021-07-25T09:44:17Z</time>
      </trkpt>
      <trkpt lat="43.87184" lon="5.45042">
        <ele>261</ele>
        <time>2021-07-25T09:44:25Z</time>
      </trkpt>
      <trkpt lat="43.87153" lon="5.4509">
        <ele>260</ele>
        <time>2021-07-25T09:44:33Z</time>
      </trkpt>
      <trkpt lat="43.87109" lon="5.45162">
        <ele>262</ele>
        <time>2021-07-25T09:44:46Z</time>
      </trkpt>
      <trkpt lat="43.87095" lon="5.45187">
        <ele>262</ele>
        <time>2021-07-25T09:44:50Z</time>
      </trkpt>
      <trkpt lat="43.87096" lon="5.45202">
        <ele>262</ele>
        <time>2021-07-25T09:44:52Z</time>
      </trkpt>
      <trkpt lat="43.87095" lon="5.45209">
        <ele>262</ele>
        <time>2021-07-25T09:44:52Z</time>
      </trkpt>
      <trkpt lat="43.87091" lon="5.45215">
        <ele>262</ele>
        <time>2021-07-25T09:44:54Z</time>
      </trkpt>
      <trkpt lat="43.8706" lon="5.45249">
        <ele>264</ele>
        <time>2021-07-25T09:45:01Z</time>
      </trkpt>
      <trkpt lat="43.87026" lon="5.45279">
        <ele>265</ele>
        <time>2021-07-25T09:45:08Z</time>
      </trkpt>
      <trkpt lat="43.8701" lon="5.45295">
        <ele>265</ele>
        <time>2021-07-25T09:45:11Z</time>
      </trkpt>
      <trkpt lat="43.86971" lon="5.45345">
        <ele>265</ele>
        <time>2021-07-25T09:45:21Z</time>
      </trkpt>
      <trkpt lat="43.86943" lon="5.45392">
        <ele>266</ele>
        <time>2021-07-25T09:45:29Z</time>
      </trkpt>
      <trkpt lat="43.86917" lon="5.45442">
        <ele>264</ele>
        <time>2021-07-25T09:45:36Z</time>
      </trkpt>
      <trkpt lat="43.86902" lon="5.4548">
        <ele>263</ele>
        <time>2021-07-25T09:45:42Z</time>
      </trkpt>
      <trkpt lat="43.86883" lon="5.45533">
        <ele>263</ele>
        <time>2021-07-25T09:45:50Z</time>
      </trkpt>
      <trkpt lat="43.86876" lon="5.45546">
        <ele>263</ele>
        <time>2021-07-25T09:45:52Z</time>
      </trkpt>
      <trkpt lat="43.86828" lon="5.45584">
        <ele>264</ele>
        <time>2021-07-25T09:46:01Z</time>
      </trkpt>
      <trkpt lat="43.86808" lon="5.45607">
        <ele>266</ele>
        <time>2021-07-25T09:46:06Z</time>
      </trkpt>
      <trkpt lat="43.86726" lon="5.45745">
        <ele>263</ele>
        <time>2021-07-25T09:46:29Z</time>
      </trkpt>
      <trkpt lat="43.86708" lon="5.4578">
        <ele>262</ele>
        <time>2021-07-25T09:46:35Z</time>
      </trkpt>
      <trkpt lat="43.86687" lon="5.45829">
        <ele>261</ele>
        <time>2021-07-25T09:46:42Z</time>
      </trkpt>
      <trkpt lat="43.8668" lon="5.4585">
        <ele>261</ele>
        <time>2021-07-25T09:46:45Z</time>
      </trkpt>
      <trkpt lat="43.86678" lon="5.4588">
        <ele>261</ele>
        <time>2021-07-25T09:46:49Z</time>
      </trkpt>
      <trkpt lat="43.86674" lon="5.45886">
        <ele>261</ele>
        <time>2021-07-25T09:46:50Z</time>
      </trkpt>
      <trkpt lat="43.8668" lon="5.45919">
        <ele>261</ele>
        <time>2021-07-25T09:46:54Z</time>
      </trkpt>
      <trkpt lat="43.86684" lon="5.45936">
        <ele>261</ele>
        <time>2021-07-25T09:46:56Z</time>
      </trkpt>
      <trkpt lat="43.86688" lon="5.45959">
        <ele>261</ele>
        <time>2021-07-25T09:46:59Z</time>
      </trkpt>
      <trkpt lat="43.86688" lon="5.45981">
        <ele>262</ele>
        <time>2021-07-25T09:47:02Z</time>
      </trkpt>
      <trkpt lat="43.86687" lon="5.4599">
        <ele>262</ele>
        <time>2021-07-25T09:47:03Z</time>
      </trkpt>
      <trkpt lat="43.86704" lon="5.4601">
        <ele>261</ele>
        <time>2021-07-25T09:47:07Z</time>
      </trkpt>
      <trkpt lat="43.86707" lon="5.46017">
        <ele>261</ele>
        <time>2021-07-25T09:47:08Z</time>
      </trkpt>
      <trkpt lat="43.867" lon="5.46033">
        <ele>261</ele>
        <time>2021-07-25T09:47:11Z</time>
      </trkpt>
      <trkpt lat="43.86489" lon="5.46293">
        <ele>263</ele>
        <time>2021-07-25T09:48:01Z</time>
      </trkpt>
      <trkpt lat="43.86395" lon="5.46413">
        <ele>268</ele>
        <time>2021-07-25T09:48:24Z</time>
      </trkpt>
      <trkpt lat="43.86354" lon="5.46471">
        <ele>269</ele>
        <time>2021-07-25T09:48:34Z</time>
      </trkpt>
      <trkpt lat="43.86191" lon="5.46707">
        <ele>274</ele>
        <time>2021-07-25T09:49:16Z</time>
      </trkpt>
      <trkpt lat="43.8618" lon="5.46727">
        <ele>275</ele>
        <time>2021-07-25T09:49:19Z</time>
      </trkpt>
      <trkpt lat="43.86069" lon="5.46969">
        <ele>272</ele>
        <time>2021-07-25T09:49:56Z</time>
      </trkpt>
      <trkpt lat="43.86022" lon="5.47075">
        <ele>272</ele>
        <time>2021-07-25T09:50:12Z</time>
      </trkpt>
      <trkpt lat="43.85925" lon="5.47308">
        <ele>275</ele>
        <time>2021-07-25T09:50:47Z</time>
      </trkpt>
      <trkpt lat="43.85919" lon="5.47335">
        <ele>276</ele>
        <time>2021-07-25T09:50:50Z</time>
      </trkpt>
      <trkpt lat="43.85915" lon="5.47378">
        <ele>281</ele>
        <time>2021-07-25T09:50:56Z</time>
      </trkpt>
      <trkpt lat="43.8591" lon="5.47395">
        <ele>283</ele>
        <time>2021-07-25T09:50:58Z</time>
      </trkpt>
      <trkpt lat="43.85903" lon="5.47406">
        <ele>284</ele>
        <time>2021-07-25T09:51:00Z</time>
      </trkpt>
      <trkpt lat="43.85891" lon="5.47421">
        <ele>284</ele>
        <time>2021-07-25T09:51:03Z</time>
      </trkpt>
      <trkpt lat="43.85874" lon="5.47438">
        <ele>284</ele>
        <time>2021-07-25T09:51:07Z</time>
      </trkpt>
      <trkpt lat="43.85856" lon="5.47443">
        <ele>282</ele>
        <time>2021-07-25T09:51:10Z</time>
      </trkpt>
      <trkpt lat="43.85832" lon="5.47476">
        <ele>281</ele>
        <time>2021-07-25T09:51:16Z</time>
      </trkpt>
      <trkpt lat="43.85809" lon="5.47499">
        <ele>280</ele>
        <time>2021-07-25T09:51:21Z</time>
      </trkpt>
      <trkpt lat="43.85773" lon="5.4753">
        <ele>281</ele>
        <time>2021-07-25T09:51:29Z</time>
      </trkpt>
      <trkpt lat="43.85744" lon="5.47552">
        <ele>281</ele>
        <time>2021-07-25T09:51:34Z</time>
      </trkpt>
      <trkpt lat="43.85672" lon="5.47599">
        <ele>281</ele>
        <time>2021-07-25T09:51:49Z</time>
      </trkpt>
      <trkpt lat="43.85599" lon="5.47642">
        <ele>283</ele>
        <time>2021-07-25T09:52:03Z</time>
      </trkpt>
      <trkpt lat="43.85525" lon="5.47669">
        <ele>283</ele>
        <time>2021-07-25T09:52:16Z</time>
      </trkpt>
      <trkpt lat="43.85357" lon="5.4772">
        <ele>286</ele>
        <time>2021-07-25T09:52:47Z</time>
      </trkpt>
      <trkpt lat="43.85334" lon="5.47728">
        <ele>286</ele>
        <time>2021-07-25T09:52:51Z</time>
      </trkpt>
      <trkpt lat="43.85312" lon="5.47739">
        <ele>287</ele>
        <time>2021-07-25T09:52:55Z</time>
      </trkpt>
      <trkpt lat="43.85216" lon="5.47817">
        <ele>285</ele>
        <time>2021-07-25T09:53:15Z</time>
      </trkpt>
      <trkpt lat="43.85183" lon="5.47839">
        <ele>283</ele>
        <time>2021-07-25T09:53:22Z</time>
      </trkpt>
      <trkpt lat="43.8514" lon="5.47879">
        <ele>286</ele>
        <time>2021-07-25T09:53:31Z</time>
      </trkpt>
      <trkpt lat="43.85095" lon="5.47919">
        <ele>286</ele>
        <time>2021-07-25T09:53:40Z</time>
      </trkpt>
      <trkpt lat="43.85078" lon="5.47938">
        <ele>289</ele>
        <time>2021-07-25T09:53:44Z</time>
      </trkpt>
      <trkpt lat="43.85062" lon="5.4796">
        <ele>291</ele>
        <time>2021-07-25T09:53:48Z</time>
      </trkpt>
      <trkpt lat="43.85047" lon="5.47986">
        <ele>292</ele>
        <time>2021-07-25T09:53:52Z</time>
      </trkpt>
      <trkpt lat="43.85033" lon="5.48013">
        <ele>291</ele>
        <time>2021-07-25T09:53:57Z</time>
      </trkpt>
      <trkpt lat="43.85022" lon="5.48044">
        <ele>291</ele>
        <time>2021-07-25T09:54:01Z</time>
      </trkpt>
      <trkpt lat="43.85007" lon="5.48111">
        <ele>288</ele>
        <time>2021-07-25T09:54:10Z</time>
      </trkpt>
      <trkpt lat="43.85004" lon="5.48144">
        <ele>287</ele>
        <time>2021-07-25T09:54:14Z</time>
      </trkpt>
      <trkpt lat="43.85004" lon="5.4818">
        <ele>286</ele>
        <time>2021-07-25T09:54:19Z</time>
      </trkpt>
      <trkpt lat="43.85006" lon="5.48215">
        <ele>286</ele>
        <time>2021-07-25T09:54:24Z</time>
      </trkpt>
      <trkpt lat="43.8501" lon="5.48245">
        <ele>286</ele>
        <time>2021-07-25T09:54:28Z</time>
      </trkpt>
      <trkpt lat="43.85076" lon="5.48558">
        <ele>287</ele>
        <time>2021-07-25T09:55:09Z</time>
      </trkpt>
      <trkpt lat="43.8508" lon="5.48588">
        <ele>287</ele>
        <time>2021-07-25T09:55:13Z</time>
      </trkpt>
      <trkpt lat="43.85082" lon="5.48646">
        <ele>286</ele>
        <time>2021-07-25T09:55:21Z</time>
      </trkpt>
      <trkpt lat="43.85078" lon="5.48711">
        <ele>286</ele>
        <time>2021-07-25T09:55:29Z</time>
      </trkpt>
      <trkpt lat="43.8507" lon="5.48755">
        <ele>286</ele>
        <time>2021-07-25T09:55:35Z</time>
      </trkpt>
      <trkpt lat="43.85023" lon="5.48974">
        <ele>294</ele>
        <time>2021-07-25T09:56:04Z</time>
      </trkpt>
      <trkpt lat="43.85016" lon="5.49036">
        <ele>296</ele>
        <time>2021-07-25T09:56:12Z</time>
      </trkpt>
      <trkpt lat="43.85014" lon="5.49102">
        <ele>298</ele>
        <time>2021-07-25T09:56:21Z</time>
      </trkpt>
      <trkpt lat="43.85035" lon="5.49378">
        <ele>300</ele>
        <time>2021-07-25T09:56:56Z</time>
      </trkpt>
      <trkpt lat="43.85033" lon="5.49388">
        <ele>300</ele>
        <time>2021-07-25T09:56:58Z</time>
      </trkpt>
      <trkpt lat="43.85011" lon="5.4943">
        <ele>299</ele>
        <time>2021-07-25T09:57:04Z</time>
      </trkpt>
      <trkpt lat="43.84988" lon="5.49461">
        <ele>298</ele>
        <time>2021-07-25T09:57:10Z</time>
      </trkpt>
      <trkpt lat="43.85028" lon="5.49486">
        <ele>301</ele>
        <time>2021-07-25T09:57:18Z</time>
      </trkpt>
      <trkpt lat="43.85055" lon="5.49496">
        <ele>304</ele>
        <time>2021-07-25T09:57:23Z</time>
      </trkpt>
      <trkpt lat="43.85071" lon="5.49772">
        <ele>303</ele>
        <time>2021-07-25T09:57:58Z</time>
      </trkpt>
      <trkpt lat="43.85075" lon="5.49841">
        <ele>301</ele>
        <time>2021-07-25T09:58:07Z</time>
      </trkpt>
      <trkpt lat="43.85074" lon="5.49868">
        <ele>301</ele>
        <time>2021-07-25T09:58:11Z</time>
      </trkpt>
      <trkpt lat="43.85072" lon="5.49906">
        <ele>301</ele>
        <time>2021-07-25T09:58:16Z</time>
      </trkpt>
      <trkpt lat="43.8507" lon="5.49927">
        <ele>301</ele>
        <time>2021-07-25T09:58:18Z</time>
      </trkpt>
      <trkpt lat="43.85049" lon="5.50284">
        <ele>303</ele>
        <time>2021-07-25T09:59:04Z</time>
      </trkpt>
      <trkpt lat="43.85052" lon="5.50332">
        <ele>304</ele>
        <time>2021-07-25T09:59:10Z</time>
      </trkpt>
      <trkpt lat="43.85071" lon="5.50482">
        <ele>305</ele>
        <time>2021-07-25T09:59:30Z</time>
      </trkpt>
      <trkpt lat="43.85074" lon="5.50507">
        <ele>305</ele>
        <time>2021-07-25T09:59:33Z</time>
      </trkpt>
      <trkpt lat="43.85084" lon="5.50583">
        <ele>302</ele>
        <time>2021-07-25T09:59:43Z</time>
      </trkpt>
      <trkpt lat="43.85094" lon="5.50618">
        <ele>302</ele>
        <time>2021-07-25T09:59:48Z</time>
      </trkpt>
      <trkpt lat="43.85112" lon="5.50658">
        <ele>303</ele>
        <time>2021-07-25T09:59:54Z</time>
      </trkpt>
      <trkpt lat="43.85128" lon="5.50689">
        <ele>304</ele>
        <time>2021-07-25T09:59:59Z</time>
      </trkpt>
      <trkpt lat="43.85252" lon="5.50919">
        <ele>310</ele>
        <time>2021-07-25T10:00:36Z</time>
      </trkpt>
      <trkpt lat="43.85297" lon="5.50997">
        <ele>310</ele>
        <time>2021-07-25T10:00:49Z</time>
      </trkpt>
      <trkpt lat="43.85319" lon="5.51039">
        <ele>310</ele>
        <time>2021-07-25T10:00:55Z</time>
      </trkpt>
      <trkpt lat="43.85331" lon="5.51069">
        <ele>309</ele>
        <time>2021-07-25T10:01:00Z</time>
      </trkpt>
      <trkpt lat="43.85338" lon="5.51089">
        <ele>309</ele>
        <time>2021-07-25T10:01:03Z</time>
      </trkpt>
      <trkpt lat="43.85346" lon="5.5112">
        <ele>310</ele>
        <time>2021-07-25T10:01:07Z</time>
      </trkpt>
      <trkpt lat="43.85357" lon="5.51175">
        <ele>313</ele>
        <time>2021-07-25T10:01:14Z</time>
      </trkpt>
      <trkpt lat="43.85359" lon="5.51204">
        <ele>313</ele>
        <time>2021-07-25T10:01:18Z</time>
      </trkpt>
      <trkpt lat="43.85361" lon="5.51264">
        <ele>314</ele>
        <time>2021-07-25T10:01:26Z</time>
      </trkpt>
      <trkpt lat="43.85364" lon="5.5152">
        <ele>325</ele>
        <time>2021-07-25T10:01:58Z</time>
      </trkpt>
      <trkpt lat="43.85362" lon="5.51551">
        <ele>325</ele>
        <time>2021-07-25T10:02:02Z</time>
      </trkpt>
      <trkpt lat="43.85356" lon="5.51577">
        <ele>323</ele>
        <time>2021-07-25T10:02:06Z</time>
      </trkpt>
      <trkpt lat="43.85331" lon="5.51652">
        <ele>319</ele>
        <time>2021-07-25T10:02:16Z</time>
      </trkpt>
      <trkpt lat="43.85281" lon="5.51728">
        <ele>319</ele>
        <time>2021-07-25T10:02:30Z</time>
      </trkpt>
      <trkpt lat="43.85275" lon="5.51741">
        <ele>319</ele>
        <time>2021-07-25T10:02:32Z</time>
      </trkpt>
      <trkpt lat="43.85264" lon="5.51769">
        <ele>318</ele>
        <time>2021-07-25T10:02:36Z</time>
      </trkpt>
      <trkpt lat="43.85231" lon="5.5192">
        <ele>313</ele>
        <time>2021-07-25T10:02:56Z</time>
      </trkpt>
      <trkpt lat="43.85223" lon="5.51955">
        <ele>314</ele>
        <time>2021-07-25T10:03:01Z</time>
      </trkpt>
      <trkpt lat="43.85221" lon="5.51962">
        <ele>314</ele>
        <time>2021-07-25T10:03:02Z</time>
      </trkpt>
      <trkpt lat="43.8522" lon="5.51966">
        <ele>314</ele>
        <time>2021-07-25T10:03:02Z</time>
      </trkpt>
      <trkpt lat="43.85208" lon="5.52025">
        <ele>316</ele>
        <time>2021-07-25T10:03:10Z</time>
      </trkpt>
      <trkpt lat="43.85203" lon="5.52048">
        <ele>316</ele>
        <time>2021-07-25T10:03:13Z</time>
      </trkpt>
      <trkpt lat="43.85202" lon="5.52052">
        <ele>316</ele>
        <time>2021-07-25T10:03:14Z</time>
      </trkpt>
      <trkpt lat="43.85197" lon="5.52073">
        <ele>316</ele>
        <time>2021-07-25T10:03:17Z</time>
      </trkpt>
      <trkpt lat="43.85164" lon="5.52227">
        <ele>316</ele>
        <time>2021-07-25T10:03:37Z</time>
      </trkpt>
      <trkpt lat="43.85162" lon="5.52236">
        <ele>316</ele>
        <time>2021-07-25T10:03:38Z</time>
      </trkpt>
      <trkpt lat="43.85162" lon="5.52274">
        <ele>317</ele>
        <time>2021-07-25T10:03:43Z</time>
      </trkpt>
      <trkpt lat="43.85173" lon="5.52392">
        <ele>321</ele>
        <time>2021-07-25T10:03:59Z</time>
      </trkpt>
      <trkpt lat="43.85174" lon="5.52406">
        <ele>322</ele>
        <time>2021-07-25T10:04:00Z</time>
      </trkpt>
      <trkpt lat="43.85174" lon="5.5241">
        <ele>322</ele>
        <time>2021-07-25T10:04:01Z</time>
      </trkpt>
      <trkpt lat="43.85172" lon="5.5244">
        <ele>322</ele>
        <time>2021-07-25T10:04:05Z</time>
      </trkpt>
      <trkpt lat="43.85169" lon="5.52458">
        <ele>322</ele>
        <time>2021-07-25T10:04:07Z</time>
      </trkpt>
      <trkpt lat="43.85162" lon="5.52498">
        <ele>322</ele>
        <time>2021-07-25T10:04:12Z</time>
      </trkpt>
      <trkpt lat="43.85143" lon="5.52607">
        <ele>322</ele>
        <time>2021-07-25T10:04:27Z</time>
      </trkpt>
      <trkpt lat="43.85141" lon="5.52648">
        <ele>321</ele>
        <time>2021-07-25T10:04:32Z</time>
      </trkpt>
      <trkpt lat="43.85143" lon="5.52687">
        <ele>321</ele>
        <time>2021-07-25T10:04:37Z</time>
      </trkpt>
      <trkpt lat="43.85145" lon="5.52704">
        <ele>320</ele>
        <time>2021-07-25T10:04:39Z</time>
      </trkpt>
      <trkpt lat="43.85155" lon="5.5275">
        <ele>321</ele>
        <time>2021-07-25T10:04:45Z</time>
      </trkpt>
      <trkpt lat="43.85191" lon="5.52895">
        <ele>319</ele>
        <time>2021-07-25T10:05:05Z</time>
      </trkpt>
      <trkpt lat="43.85195" lon="5.52916">
        <ele>319</ele>
        <time>2021-07-25T10:05:08Z</time>
      </trkpt>
      <trkpt lat="43.85199" lon="5.52945">
        <ele>319</ele>
        <time>2021-07-25T10:05:12Z</time>
      </trkpt>
      <trkpt lat="43.85198" lon="5.52994">
        <ele>318</ele>
        <time>2021-07-25T10:05:18Z</time>
      </trkpt>
      <trkpt lat="43.85194" lon="5.53112">
        <ele>318</ele>
        <time>2021-07-25T10:05:33Z</time>
      </trkpt>
      <trkpt lat="43.85189" lon="5.53164">
        <ele>320</ele>
        <time>2021-07-25T10:05:40Z</time>
      </trkpt>
      <trkpt lat="43.85175" lon="5.53224">
        <ele>319</ele>
        <time>2021-07-25T10:05:48Z</time>
      </trkpt>
      <trkpt lat="43.85172" lon="5.53265">
        <ele>319</ele>
        <time>2021-07-25T10:05:53Z</time>
      </trkpt>
      <trkpt lat="43.85177" lon="5.53618">
        <ele>322</ele>
        <time>2021-07-25T10:06:39Z</time>
      </trkpt>
      <trkpt lat="43.85179" lon="5.53643">
        <ele>322</ele>
        <time>2021-07-25T10:06:42Z</time>
      </trkpt>
      <trkpt lat="43.85188" lon="5.53706">
        <ele>322</ele>
        <time>2021-07-25T10:06:50Z</time>
      </trkpt>
      <trkpt lat="43.85197" lon="5.53738">
        <ele>322</ele>
        <time>2021-07-25T10:06:54Z</time>
      </trkpt>
      <trkpt lat="43.85256" lon="5.53952">
        <ele>322</ele>
        <time>2021-07-25T10:07:24Z</time>
      </trkpt>
      <trkpt lat="43.85271" lon="5.53999">
        <ele>323</ele>
        <time>2021-07-25T10:07:30Z</time>
      </trkpt>
      <trkpt lat="43.853" lon="5.54063">
        <ele>323</ele>
        <time>2021-07-25T10:07:40Z</time>
      </trkpt>
      <trkpt lat="43.85334" lon="5.54144">
        <ele>324</ele>
        <time>2021-07-25T10:07:52Z</time>
      </trkpt>
      <trkpt lat="43.85346" lon="5.54174">
        <ele>326</ele>
        <time>2021-07-25T10:07:56Z</time>
      </trkpt>
      <trkpt lat="43.85357" lon="5.54212">
        <ele>327</ele>
        <time>2021-07-25T10:08:02Z</time>
      </trkpt>
      <trkpt lat="43.85363" lon="5.5424">
        <ele>328</ele>
        <time>2021-07-25T10:08:05Z</time>
      </trkpt>
      <trkpt lat="43.85364" lon="5.54246">
        <ele>328</ele>
        <time>2021-07-25T10:08:06Z</time>
      </trkpt>
      <trkpt lat="43.85367" lon="5.54262">
        <ele>328</ele>
        <time>2021-07-25T10:08:08Z</time>
      </trkpt>
      <trkpt lat="43.85369" lon="5.5428">
        <ele>328</ele>
        <time>2021-07-25T10:08:11Z</time>
      </trkpt>
      <trkpt lat="43.85371" lon="5.54315">
        <ele>328</ele>
        <time>2021-07-25T10:08:15Z</time>
      </trkpt>
      <trkpt lat="43.85373" lon="5.54379">
        <ele>327</ele>
        <time>2021-07-25T10:08:23Z</time>
      </trkpt>
      <trkpt lat="43.85376" lon="5.54426">
        <ele>326</ele>
        <time>2021-07-25T10:08:30Z</time>
      </trkpt>
      <trkpt lat="43.8538" lon="5.54461">
        <ele>326</ele>
        <time>2021-07-25T10:08:34Z</time>
      </trkpt>
      <trkpt lat="43.85384" lon="5.54484">
        <ele>326</ele>
        <time>2021-07-25T10:08:37Z</time>
      </trkpt>
      <trkpt lat="43.8541" lon="5.54621">
        <ele>328</ele>
        <time>2021-07-25T10:08:55Z</time>
      </trkpt>
      <trkpt lat="43.85423" lon="5.54674">
        <ele>328</ele>
        <time>2021-07-25T10:09:02Z</time>
      </trkpt>
      <trkpt lat="43.85431" lon="5.547">
        <ele>328</ele>
        <time>2021-07-25T10:09:06Z</time>
      </trkpt>
      <trkpt lat="43.85437" lon="5.54718">
        <ele>328</ele>
        <time>2021-07-25T10:09:09Z</time>
      </trkpt>
      <trkpt lat="43.85444" lon="5.54737">
        <ele>329</ele>
        <time>2021-07-25T10:09:11Z</time>
      </trkpt>
      <trkpt lat="43.85488" lon="5.54854">
        <ele>328</ele>
        <time>2021-07-25T10:09:28Z</time>
      </trkpt>
      <trkpt lat="43.85503" lon="5.54897">
        <ele>328</ele>
        <time>2021-07-25T10:09:34Z</time>
      </trkpt>
      <trkpt lat="43.85515" lon="5.5494">
        <ele>329</ele>
        <time>2021-07-25T10:09:40Z</time>
      </trkpt>
      <trkpt lat="43.85565" lon="5.55146">
        <ele>331</ele>
        <time>2021-07-25T10:10:08Z</time>
      </trkpt>
      <trkpt lat="43.85578" lon="5.55194">
        <ele>331</ele>
        <time>2021-07-25T10:10:15Z</time>
      </trkpt>
      <trkpt lat="43.85591" lon="5.55224">
        <ele>330</ele>
        <time>2021-07-25T10:10:19Z</time>
      </trkpt>
      <trkpt lat="43.85631" lon="5.55289">
        <ele>332</ele>
        <time>2021-07-25T10:10:30Z</time>
      </trkpt>
      <trkpt lat="43.85644" lon="5.5531">
        <ele>332</ele>
        <time>2021-07-25T10:10:34Z</time>
      </trkpt>
      <trkpt lat="43.85677" lon="5.55364">
        <ele>333</ele>
        <time>2021-07-25T10:10:43Z</time>
      </trkpt>
      <trkpt lat="43.85697" lon="5.55403">
        <ele>334</ele>
        <time>2021-07-25T10:10:49Z</time>
      </trkpt>
      <trkpt lat="43.85708" lon="5.5543">
        <ele>335</ele>
        <time>2021-07-25T10:10:53Z</time>
      </trkpt>
      <trkpt lat="43.85753" lon="5.55563">
        <ele>334</ele>
        <time>2021-07-25T10:11:12Z</time>
      </trkpt>
      <trkpt lat="43.85794" lon="5.55686">
        <ele>331</ele>
        <time>2021-07-25T10:11:29Z</time>
      </trkpt>
      <trkpt lat="43.85796" lon="5.55704">
        <ele>331</ele>
        <time>2021-07-25T10:11:32Z</time>
      </trkpt>
      <trkpt lat="43.85801" lon="5.55717">
        <ele>331</ele>
        <time>2021-07-25T10:11:33Z</time>
      </trkpt>
      <trkpt lat="43.85804" lon="5.55733">
        <ele>331</ele>
        <time>2021-07-25T10:11:36Z</time>
      </trkpt>
      <trkpt lat="43.85803" lon="5.55735">
        <ele>331</ele>
        <time>2021-07-25T10:11:36Z</time>
      </trkpt>
      <trkpt lat="43.85803" lon="5.55745">
        <ele>331</ele>
        <time>2021-07-25T10:11:37Z</time>
      </trkpt>
      <trkpt lat="43.85804" lon="5.55754">
        <ele>331</ele>
        <time>2021-07-25T10:11:38Z</time>
      </trkpt>
      <trkpt lat="43.85807" lon="5.55786">
        <ele>330</ele>
        <time>2021-07-25T10:11:43Z</time>
      </trkpt>
      <trkpt lat="43.85808" lon="5.55817">
        <ele>329</ele>
        <time>2021-07-25T10:11:46Z</time>
      </trkpt>
      <trkpt lat="43.85807" lon="5.55859">
        <ele>329</ele>
        <time>2021-07-25T10:11:52Z</time>
      </trkpt>
      <trkpt lat="43.85798" lon="5.55916">
        <ele>329</ele>
        <time>2021-07-25T10:11:59Z</time>
      </trkpt>
      <trkpt lat="43.85796" lon="5.55935">
        <ele>329</ele>
        <time>2021-07-25T10:12:02Z</time>
      </trkpt>
      <trkpt lat="43.85791" lon="5.56023">
        <ele>328</ele>
        <time>2021-07-25T10:12:13Z</time>
      </trkpt>
      <trkpt lat="43.85787" lon="5.56049">
        <ele>329</ele>
        <time>2021-07-25T10:12:17Z</time>
      </trkpt>
      <trkpt lat="43.8578" lon="5.56075">
        <ele>329</ele>
        <time>2021-07-25T10:12:20Z</time>
      </trkpt>
      <trkpt lat="43.85775" lon="5.56088">
        <ele>329</ele>
        <time>2021-07-25T10:12:22Z</time>
      </trkpt>
      <trkpt lat="43.85766" lon="5.56106">
        <ele>329</ele>
        <time>2021-07-25T10:12:25Z</time>
      </trkpt>
      <trkpt lat="43.85755" lon="5.56121">
        <ele>329</ele>
        <time>2021-07-25T10:12:28Z</time>
      </trkpt>
      <trkpt lat="43.85718" lon="5.56176">
        <ele>331</ele>
        <time>2021-07-25T10:12:37Z</time>
      </trkpt>
      <trkpt lat="43.85704" lon="5.56195">
        <ele>332</ele>
        <time>2021-07-25T10:12:41Z</time>
      </trkpt>
      <trkpt lat="43.85655" lon="5.56263">
        <ele>334</ele>
        <time>2021-07-25T10:12:53Z</time>
      </trkpt>
      <trkpt lat="43.85651" lon="5.56258">
        <ele>334</ele>
        <time>2021-07-25T10:12:54Z</time>
      </trkpt>
      <trkpt lat="43.85637" lon="5.5625">
        <ele>334</ele>
        <time>2021-07-25T10:12:57Z</time>
      </trkpt>
      <trkpt lat="43.8564" lon="5.5626">
        <ele>335</ele>
        <time>2021-07-25T10:12:58Z</time>
      </trkpt>
      <trkpt lat="43.8564" lon="5.56269">
        <ele>335</ele>
        <time>2021-07-25T10:12:59Z</time>
      </trkpt>
      <trkpt lat="43.85607" lon="5.56316">
        <ele>337</ele>
        <time>2021-07-25T10:13:08Z</time>
      </trkpt>
      <trkpt lat="43.85573" lon="5.56371">
        <ele>340</ele>
        <time>2021-07-25T10:13:17Z</time>
      </trkpt>
      <trkpt lat="43.85572" lon="5.56382">
        <ele>341</ele>
        <time>2021-07-25T10:13:18Z</time>
      </trkpt>
      <trkpt lat="43.85458" lon="5.56542">
        <ele>350</ele>
        <time>2021-07-25T10:13:47Z</time>
      </trkpt>
      <trkpt lat="43.85454" lon="5.56556">
        <ele>351</ele>
        <time>2021-07-25T10:13:49Z</time>
      </trkpt>
      <trkpt lat="43.85452" lon="5.56571">
        <ele>351</ele>
        <time>2021-07-25T10:13:51Z</time>
      </trkpt>
      <trkpt lat="43.85459" lon="5.5671">
        <ele>362</ele>
        <time>2021-07-25T10:14:09Z</time>
      </trkpt>
      <trkpt lat="43.85462" lon="5.56738">
        <ele>364</ele>
        <time>2021-07-25T10:14:13Z</time>
      </trkpt>
      <trkpt lat="43.85465" lon="5.56752">
        <ele>365</ele>
        <time>2021-07-25T10:14:15Z</time>
      </trkpt>
      <trkpt lat="43.85477" lon="5.5679">
        <ele>369</ele>
        <time>2021-07-25T10:14:20Z</time>
      </trkpt>
      <trkpt lat="43.85556" lon="5.56974">
        <ele>384</ele>
        <time>2021-07-25T10:14:47Z</time>
      </trkpt>
      <trkpt lat="43.8557" lon="5.57001">
        <ele>385</ele>
        <time>2021-07-25T10:14:52Z</time>
      </trkpt>
      <trkpt lat="43.8558" lon="5.57012">
        <ele>386</ele>
        <time>2021-07-25T10:14:54Z</time>
      </trkpt>
      <trkpt lat="43.85589" lon="5.57021">
        <ele>387</ele>
        <time>2021-07-25T10:14:56Z</time>
      </trkpt>
      <trkpt lat="43.85601" lon="5.57027">
        <ele>387</ele>
        <time>2021-07-25T10:14:58Z</time>
      </trkpt>
      <trkpt lat="43.85647" lon="5.57044">
        <ele>389</ele>
        <time>2021-07-25T10:15:07Z</time>
      </trkpt>
      <trkpt lat="43.85668" lon="5.57054">
        <ele>389</ele>
        <time>2021-07-25T10:15:11Z</time>
      </trkpt>
      <trkpt lat="43.85677" lon="5.57062">
        <ele>388</ele>
        <time>2021-07-25T10:15:12Z</time>
      </trkpt>
      <trkpt lat="43.85684" lon="5.57073">
        <ele>388</ele>
        <time>2021-07-25T10:15:14Z</time>
      </trkpt>
      <trkpt lat="43.85688" lon="5.57085">
        <ele>388</ele>
        <time>2021-07-25T10:15:16Z</time>
      </trkpt>
      <trkpt lat="43.85689" lon="5.57116">
        <ele>391</ele>
        <time>2021-07-25T10:15:20Z</time>
      </trkpt>
      <trkpt lat="43.85671" lon="5.57234">
        <ele>401</ele>
        <time>2021-07-25T10:15:35Z</time>
      </trkpt>
      <trkpt lat="43.85671" lon="5.57248">
        <ele>402</ele>
        <time>2021-07-25T10:15:37Z</time>
      </trkpt>
      <trkpt lat="43.85673" lon="5.57261">
        <ele>404</ele>
        <time>2021-07-25T10:15:39Z</time>
      </trkpt>
      <trkpt lat="43.85678" lon="5.57273">
        <ele>406</ele>
        <time>2021-07-25T10:15:41Z</time>
      </trkpt>
      <trkpt lat="43.85684" lon="5.57282">
        <ele>407</ele>
        <time>2021-07-25T10:15:42Z</time>
      </trkpt>
      <trkpt lat="43.85694" lon="5.57289">
        <ele>408</ele>
        <time>2021-07-25T10:15:44Z</time>
      </trkpt>
      <trkpt lat="43.85786" lon="5.57341">
        <ele>409</ele>
        <time>2021-07-25T10:16:02Z</time>
      </trkpt>
      <trkpt lat="43.85793" lon="5.57347">
        <ele>410</ele>
        <time>2021-07-25T10:16:03Z</time>
      </trkpt>
      <trkpt lat="43.85797" lon="5.57355">
        <ele>411</ele>
        <time>2021-07-25T10:16:05Z</time>
      </trkpt>
      <trkpt lat="43.85798" lon="5.57363">
        <ele>412</ele>
        <time>2021-07-25T10:16:06Z</time>
      </trkpt>
      <trkpt lat="43.85796" lon="5.5737">
        <ele>414</ele>
        <time>2021-07-25T10:16:07Z</time>
      </trkpt>
      <trkpt lat="43.85791" lon="5.57374">
        <ele>415</ele>
        <time>2021-07-25T10:16:08Z</time>
      </trkpt>
      <trkpt lat="43.85785" lon="5.57374">
        <ele>416</ele>
        <time>2021-07-25T10:16:09Z</time>
      </trkpt>
      <trkpt lat="43.85682" lon="5.57345">
        <ele>417</ele>
        <time>2021-07-25T10:16:27Z</time>
      </trkpt>
      <trkpt lat="43.85672" lon="5.57346">
        <ele>418</ele>
        <time>2021-07-25T10:16:29Z</time>
      </trkpt>
      <trkpt lat="43.85662" lon="5.57349">
        <ele>419</ele>
        <time>2021-07-25T10:16:31Z</time>
      </trkpt>
      <trkpt lat="43.85653" lon="5.57355">
        <ele>420</ele>
        <time>2021-07-25T10:16:33Z</time>
      </trkpt>
      <trkpt lat="43.85628" lon="5.57383">
        <ele>425</ele>
        <time>2021-07-25T10:16:39Z</time>
      </trkpt>
      <trkpt lat="43.85618" lon="5.57393">
        <ele>427</ele>
        <time>2021-07-25T10:16:41Z</time>
      </trkpt>
      <trkpt lat="43.85552" lon="5.57425">
        <ele>433</ele>
        <time>2021-07-25T10:16:53Z</time>
      </trkpt>
      <trkpt lat="43.85535" lon="5.57442">
        <ele>435</ele>
        <time>2021-07-25T10:16:57Z</time>
      </trkpt>
      <trkpt lat="43.855" lon="5.57494">
        <ele>440</ele>
        <time>2021-07-25T10:17:06Z</time>
      </trkpt>
      <trkpt lat="43.85469" lon="5.5754">
        <ele>441</ele>
        <time>2021-07-25T10:17:14Z</time>
      </trkpt>
      <trkpt lat="43.85463" lon="5.57554">
        <ele>441</ele>
        <time>2021-07-25T10:17:16Z</time>
      </trkpt>
      <trkpt lat="43.85458" lon="5.57568">
        <ele>442</ele>
        <time>2021-07-25T10:17:18Z</time>
      </trkpt>
      <trkpt lat="43.85457" lon="5.57579">
        <ele>442</ele>
        <time>2021-07-25T10:17:20Z</time>
      </trkpt>
      <trkpt lat="43.85458" lon="5.57588">
        <ele>442</ele>
        <time>2021-07-25T10:17:21Z</time>
      </trkpt>
      <trkpt lat="43.85461" lon="5.57594">
        <ele>442</ele>
        <time>2021-07-25T10:17:22Z</time>
      </trkpt>
      <trkpt lat="43.8547" lon="5.57604">
        <ele>443</ele>
        <time>2021-07-25T10:17:24Z</time>
      </trkpt>
      <trkpt lat="43.85483" lon="5.57611">
        <ele>443</ele>
        <time>2021-07-25T10:17:26Z</time>
      </trkpt>
      <trkpt lat="43.85507" lon="5.57619">
        <ele>444</ele>
        <time>2021-07-25T10:17:31Z</time>
      </trkpt>
      <trkpt lat="43.85517" lon="5.57627">
        <ele>444</ele>
        <time>2021-07-25T10:17:33Z</time>
      </trkpt>
      <trkpt lat="43.85527" lon="5.57638">
        <ele>444</ele>
        <time>2021-07-25T10:17:35Z</time>
      </trkpt>
      <trkpt lat="43.85535" lon="5.5765">
        <ele>443</ele>
        <time>2021-07-25T10:17:37Z</time>
      </trkpt>
      <trkpt lat="43.85547" lon="5.57674">
        <ele>443</ele>
        <time>2021-07-25T10:17:41Z</time>
      </trkpt>
      <trkpt lat="43.8556" lon="5.57703">
        <ele>443</ele>
        <time>2021-07-25T10:17:45Z</time>
      </trkpt>
      <trkpt lat="43.85576" lon="5.57743">
        <ele>443</ele>
        <time>2021-07-25T10:17:51Z</time>
      </trkpt>
      <trkpt lat="43.85584" lon="5.57771">
        <ele>442</ele>
        <time>2021-07-25T10:17:55Z</time>
      </trkpt>
      <trkpt lat="43.85589" lon="5.57861">
        <ele>440</ele>
        <time>2021-07-25T10:18:07Z</time>
      </trkpt>
      <trkpt lat="43.85594" lon="5.57904">
        <ele>438</ele>
        <time>2021-07-25T10:18:12Z</time>
      </trkpt>
      <trkpt lat="43.85667" lon="5.58511">
        <ele>409</ele>
        <time>2021-07-25T10:19:31Z</time>
      </trkpt>
      <trkpt lat="43.85668" lon="5.58525">
        <ele>408</ele>
        <time>2021-07-25T10:19:33Z</time>
      </trkpt>
      <trkpt lat="43.85667" lon="5.58539">
        <ele>408</ele>
        <time>2021-07-25T10:19:35Z</time>
      </trkpt>
      <trkpt lat="43.8566" lon="5.58567">
        <ele>407</ele>
        <time>2021-07-25T10:19:39Z</time>
      </trkpt>
      <trkpt lat="43.85653" lon="5.5859">
        <ele>406</ele>
        <time>2021-07-25T10:19:42Z</time>
      </trkpt>
      <trkpt lat="43.85617" lon="5.58669">
        <ele>404</ele>
        <time>2021-07-25T10:19:54Z</time>
      </trkpt>
      <trkpt lat="43.85609" lon="5.58699">
        <ele>403</ele>
        <time>2021-07-25T10:19:58Z</time>
      </trkpt>
      <trkpt lat="43.85607" lon="5.58721">
        <ele>403</ele>
        <time>2021-07-25T10:20:01Z</time>
      </trkpt>
      <trkpt lat="43.85609" lon="5.58759">
        <ele>402</ele>
        <time>2021-07-25T10:20:06Z</time>
      </trkpt>
      <trkpt lat="43.85613" lon="5.58792">
        <ele>401</ele>
        <time>2021-07-25T10:20:10Z</time>
      </trkpt>
      <trkpt lat="43.85614" lon="5.58824">
        <ele>401</ele>
        <time>2021-07-25T10:20:14Z</time>
      </trkpt>
      <trkpt lat="43.85612" lon="5.58845">
        <ele>401</ele>
        <time>2021-07-25T10:20:17Z</time>
      </trkpt>
      <trkpt lat="43.85611" lon="5.58881">
        <ele>400</ele>
        <time>2021-07-25T10:20:21Z</time>
      </trkpt>
      <trkpt lat="43.85605" lon="5.58908">
        <ele>400</ele>
        <time>2021-07-25T10:20:25Z</time>
      </trkpt>
      <trkpt lat="43.85597" lon="5.58963">
        <ele>398</ele>
        <time>2021-07-25T10:20:32Z</time>
      </trkpt>
      <trkpt lat="43.85579" lon="5.59029">
        <ele>395</ele>
        <time>2021-07-25T10:20:41Z</time>
      </trkpt>
      <trkpt lat="43.85578" lon="5.59041">
        <ele>394</ele>
        <time>2021-07-25T10:20:43Z</time>
      </trkpt>
      <trkpt lat="43.85582" lon="5.59067">
        <ele>393</ele>
        <time>2021-07-25T10:20:46Z</time>
      </trkpt>
      <trkpt lat="43.85587" lon="5.59088">
        <ele>391</ele>
        <time>2021-07-25T10:20:49Z</time>
      </trkpt>
      <trkpt lat="43.85593" lon="5.59106">
        <ele>390</ele>
        <time>2021-07-25T10:20:52Z</time>
      </trkpt>
      <trkpt lat="43.85604" lon="5.5913">
        <ele>388</ele>
        <time>2021-07-25T10:20:55Z</time>
      </trkpt>
      <trkpt lat="43.85613" lon="5.59161">
        <ele>386</ele>
        <time>2021-07-25T10:20:59Z</time>
      </trkpt>
      <trkpt lat="43.85614" lon="5.59176">
        <ele>385</ele>
        <time>2021-07-25T10:21:01Z</time>
      </trkpt>
      <trkpt lat="43.85612" lon="5.59181">
        <ele>385</ele>
        <time>2021-07-25T10:21:02Z</time>
      </trkpt>
      <trkpt lat="43.85658" lon="5.59229">
        <ele>382</ele>
        <time>2021-07-25T10:21:12Z</time>
      </trkpt>
      <trkpt lat="43.85709" lon="5.59343">
        <ele>378</ele>
        <time>2021-07-25T10:21:30Z</time>
      </trkpt>
      <trkpt lat="43.85738" lon="5.59404">
        <ele>377</ele>
        <time>2021-07-25T10:21:39Z</time>
      </trkpt>
      <trkpt lat="43.85749" lon="5.59398">
        <ele>375</ele>
        <time>2021-07-25T10:21:41Z</time>
      </trkpt>
      <trkpt lat="43.85752" lon="5.59402">
        <ele>375</ele>
        <time>2021-07-25T10:21:42Z</time>
      </trkpt>
      <trkpt lat="43.85792" lon="5.5942">
        <ele>371</ele>
        <time>2021-07-25T10:21:49Z</time>
      </trkpt>
      <trkpt lat="43.85813" lon="5.5943">
        <ele>369</ele>
        <time>2021-07-25T10:21:53Z</time>
      </trkpt>
      <trkpt lat="43.8582" lon="5.59434">
        <ele>368</ele>
        <time>2021-07-25T10:21:55Z</time>
      </trkpt>
      <trkpt lat="43.85848" lon="5.59463">
        <ele>367</ele>
        <time>2021-07-25T10:22:01Z</time>
      </trkpt>
      <trkpt lat="43.85858" lon="5.59474">
        <ele>367</ele>
        <time>2021-07-25T10:22:03Z</time>
      </trkpt>
      <trkpt lat="43.85862" lon="5.59478">
        <ele>367</ele>
        <time>2021-07-25T10:22:04Z</time>
      </trkpt>
      <trkpt lat="43.8588" lon="5.59487">
        <ele>366</ele>
        <time>2021-07-25T10:22:07Z</time>
      </trkpt>
      <trkpt lat="43.85884" lon="5.59487">
        <ele>366</ele>
        <time>2021-07-25T10:22:08Z</time>
      </trkpt>
      <trkpt lat="43.8589" lon="5.59486">
        <ele>366</ele>
        <time>2021-07-25T10:22:09Z</time>
      </trkpt>
      <trkpt lat="43.85902" lon="5.59475">
        <ele>366</ele>
        <time>2021-07-25T10:22:12Z</time>
      </trkpt>
      <trkpt lat="43.85906" lon="5.59474">
        <ele>366</ele>
        <time>2021-07-25T10:22:12Z</time>
      </trkpt>
      <trkpt lat="43.85908" lon="5.59475">
        <ele>366</ele>
        <time>2021-07-25T10:22:13Z</time>
      </trkpt>
      <trkpt lat="43.85934" lon="5.59519">
        <ele>366</ele>
        <time>2021-07-25T10:22:20Z</time>
      </trkpt>
      <trkpt lat="43.8594" lon="5.59538">
        <ele>366</ele>
        <time>2021-07-25T10:22:23Z</time>
      </trkpt>
      <trkpt lat="43.85937" lon="5.59545">
        <ele>366</ele>
        <time>2021-07-25T10:22:24Z</time>
      </trkpt>
      <trkpt lat="43.85932" lon="5.59576">
        <ele>366</ele>
        <time>2021-07-25T10:22:28Z</time>
      </trkpt>
      <trkpt lat="43.85936" lon="5.59648">
        <ele>365</ele>
        <time>2021-07-25T10:22:37Z</time>
      </trkpt>
      <trkpt lat="43.85941" lon="5.59676">
        <ele>366</ele>
        <time>2021-07-25T10:22:41Z</time>
      </trkpt>
      <trkpt lat="43.8595" lon="5.59707">
        <ele>368</ele>
        <time>2021-07-25T10:22:45Z</time>
      </trkpt>
      <trkpt lat="43.85952" lon="5.59733">
        <ele>369</ele>
        <time>2021-07-25T10:22:48Z</time>
      </trkpt>
      <trkpt lat="43.85951" lon="5.59743">
        <ele>369</ele>
        <time>2021-07-25T10:22:50Z</time>
      </trkpt>
      <trkpt lat="43.85948" lon="5.5975">
        <ele>369</ele>
        <time>2021-07-25T10:22:51Z</time>
      </trkpt>
      <trkpt lat="43.85923" lon="5.59784">
        <ele>369</ele>
        <time>2021-07-25T10:22:57Z</time>
      </trkpt>
      <trkpt lat="43.85919" lon="5.598">
        <ele>369</ele>
        <time>2021-07-25T10:22:59Z</time>
      </trkpt>
      <trkpt lat="43.85915" lon="5.59954">
        <ele>371</ele>
        <time>2021-07-25T10:23:19Z</time>
      </trkpt>
      <trkpt lat="43.85905" lon="5.60032">
        <ele>371</ele>
        <time>2021-07-25T10:23:29Z</time>
      </trkpt>
      <trkpt lat="43.85903" lon="5.60133">
        <ele>370</ele>
        <time>2021-07-25T10:23:42Z</time>
      </trkpt>
      <trkpt lat="43.85895" lon="5.6027">
        <ele>369</ele>
        <time>2021-07-25T10:24:00Z</time>
      </trkpt>
      <trkpt lat="43.85895" lon="5.6029">
        <ele>369</ele>
        <time>2021-07-25T10:24:02Z</time>
      </trkpt>
      <trkpt lat="43.85899" lon="5.60317">
        <ele>369</ele>
        <time>2021-07-25T10:24:06Z</time>
      </trkpt>
      <trkpt lat="43.85896" lon="5.60323">
        <ele>369</ele>
        <time>2021-07-25T10:24:07Z</time>
      </trkpt>
      <trkpt lat="43.85897" lon="5.60331">
        <ele>369</ele>
        <time>2021-07-25T10:24:08Z</time>
      </trkpt>
      <trkpt lat="43.85916" lon="5.60383">
        <ele>371</ele>
        <time>2021-07-25T10:24:15Z</time>
      </trkpt>
      <trkpt lat="43.8594" lon="5.60428">
        <ele>372</ele>
        <time>2021-07-25T10:24:22Z</time>
      </trkpt>
      <trkpt lat="43.85944" lon="5.6047">
        <ele>372</ele>
        <time>2021-07-25T10:24:28Z</time>
      </trkpt>
      <trkpt lat="43.85954" lon="5.60525">
        <ele>371</ele>
        <time>2021-07-25T10:24:35Z</time>
      </trkpt>
      <trkpt lat="43.8602" lon="5.60807">
        <ele>373</ele>
        <time>2021-07-25T10:25:13Z</time>
      </trkpt>
      <trkpt lat="43.86047" lon="5.60936">
        <ele>376</ele>
        <time>2021-07-25T10:25:30Z</time>
      </trkpt>
      <trkpt lat="43.86052" lon="5.60988">
        <ele>376</ele>
        <time>2021-07-25T10:25:37Z</time>
      </trkpt>
      <trkpt lat="43.86053" lon="5.6103">
        <ele>377</ele>
        <time>2021-07-25T10:25:43Z</time>
      </trkpt>
      <trkpt lat="43.86052" lon="5.61053">
        <ele>377</ele>
        <time>2021-07-25T10:25:46Z</time>
      </trkpt>
      <trkpt lat="43.86041" lon="5.61132">
        <ele>379</ele>
        <time>2021-07-25T10:25:56Z</time>
      </trkpt>
      <trkpt lat="43.85985" lon="5.61321">
        <ele>384</ele>
        <time>2021-07-25T10:26:22Z</time>
      </trkpt>
      <trkpt lat="43.85974" lon="5.61365">
        <ele>386</ele>
        <time>2021-07-25T10:26:28Z</time>
      </trkpt>
      <trkpt lat="43.85942" lon="5.61474">
        <ele>391</ele>
        <time>2021-07-25T10:26:43Z</time>
      </trkpt>
      <trkpt lat="43.8589" lon="5.61665">
        <ele>389</ele>
        <time>2021-07-25T10:27:09Z</time>
      </trkpt>
      <trkpt lat="43.85887" lon="5.61671">
        <ele>389</ele>
        <time>2021-07-25T10:27:10Z</time>
      </trkpt>
      <trkpt lat="43.8588" lon="5.61679">
        <ele>389</ele>
        <time>2021-07-25T10:27:12Z</time>
      </trkpt>
      <trkpt lat="43.85875" lon="5.61681">
        <ele>388</ele>
        <time>2021-07-25T10:27:13Z</time>
      </trkpt>
      <trkpt lat="43.85878" lon="5.61697">
        <ele>389</ele>
        <time>2021-07-25T10:27:15Z</time>
      </trkpt>
      <trkpt lat="43.8588" lon="5.61707">
        <ele>389</ele>
        <time>2021-07-25T10:27:16Z</time>
      </trkpt>
      <trkpt lat="43.85924" lon="5.61947">
        <ele>394</ele>
        <time>2021-07-25T10:27:48Z</time>
      </trkpt>
      <trkpt lat="43.8594" lon="5.62043">
        <ele>397</ele>
        <time>2021-07-25T10:28:01Z</time>
      </trkpt>
      <trkpt lat="43.85946" lon="5.62072">
        <ele>397</ele>
        <time>2021-07-25T10:28:05Z</time>
      </trkpt>
      <trkpt lat="43.85964" lon="5.62143">
        <ele>398</ele>
        <time>2021-07-25T10:28:14Z</time>
      </trkpt>
      <trkpt lat="43.85977" lon="5.62213">
        <ele>399</ele>
        <time>2021-07-25T10:28:23Z</time>
      </trkpt>
      <trkpt lat="43.85987" lon="5.62285">
        <ele>398</ele>
        <time>2021-07-25T10:28:33Z</time>
      </trkpt>
      <trkpt lat="43.85998" lon="5.62411">
        <ele>394</ele>
        <time>2021-07-25T10:28:49Z</time>
      </trkpt>
      <trkpt lat="43.86012" lon="5.62553">
        <ele>397</ele>
        <time>2021-07-25T10:29:08Z</time>
      </trkpt>
      <trkpt lat="43.86015" lon="5.62584">
        <ele>399</ele>
        <time>2021-07-25T10:29:12Z</time>
      </trkpt>
      <trkpt lat="43.86017" lon="5.62616">
        <ele>399</ele>
        <time>2021-07-25T10:29:16Z</time>
      </trkpt>
      <trkpt lat="43.86016" lon="5.62637">
        <ele>400</ele>
        <time>2021-07-25T10:29:18Z</time>
      </trkpt>
      <trkpt lat="43.85936" lon="5.63088">
        <ele>399</ele>
        <time>2021-07-25T10:30:18Z</time>
      </trkpt>
      <trkpt lat="43.85925" lon="5.63166">
        <ele>397</ele>
        <time>2021-07-25T10:30:28Z</time>
      </trkpt>
      <trkpt lat="43.85922" lon="5.63189">
        <ele>397</ele>
        <time>2021-07-25T10:30:31Z</time>
      </trkpt>
      <trkpt lat="43.85914" lon="5.63246">
        <ele>395</ele>
        <time>2021-07-25T10:30:39Z</time>
      </trkpt>
      <trkpt lat="43.85913" lon="5.63265">
        <ele>395</ele>
        <time>2021-07-25T10:30:41Z</time>
      </trkpt>
      <trkpt lat="43.85914" lon="5.63289">
        <ele>396</ele>
        <time>2021-07-25T10:30:44Z</time>
      </trkpt>
      <trkpt lat="43.85923" lon="5.6333">
        <ele>397</ele>
        <time>2021-07-25T10:30:50Z</time>
      </trkpt>
      <trkpt lat="43.85947" lon="5.63432">
        <ele>398</ele>
        <time>2021-07-25T10:31:03Z</time>
      </trkpt>
      <trkpt lat="43.85951" lon="5.63458">
        <ele>398</ele>
        <time>2021-07-25T10:31:07Z</time>
      </trkpt>
      <trkpt lat="43.85953" lon="5.6348">
        <ele>397</ele>
        <time>2021-07-25T10:31:10Z</time>
      </trkpt>
      <trkpt lat="43.85957" lon="5.63534">
        <ele>397</ele>
        <time>2021-07-25T10:31:17Z</time>
      </trkpt>
      <trkpt lat="43.85958" lon="5.63543">
        <ele>397</ele>
        <time>2021-07-25T10:31:18Z</time>
      </trkpt>
      <trkpt lat="43.8596" lon="5.63577">
        <ele>398</ele>
        <time>2021-07-25T10:31:22Z</time>
      </trkpt>
      <trkpt lat="43.85966" lon="5.63649">
        <ele>398</ele>
        <time>2021-07-25T10:31:31Z</time>
      </trkpt>
      <trkpt lat="43.85967" lon="5.63697">
        <ele>399</ele>
        <time>2021-07-25T10:31:38Z</time>
      </trkpt>
      <trkpt lat="43.85962" lon="5.63756">
        <ele>400</ele>
        <time>2021-07-25T10:31:45Z</time>
      </trkpt>
      <trkpt lat="43.85955" lon="5.63793">
        <ele>401</ele>
        <time>2021-07-25T10:31:50Z</time>
      </trkpt>
      <trkpt lat="43.85946" lon="5.63829">
        <ele>402</ele>
        <time>2021-07-25T10:31:55Z</time>
      </trkpt>
      <trkpt lat="43.8594" lon="5.63847">
        <ele>403</ele>
        <time>2021-07-25T10:31:58Z</time>
      </trkpt>
      <trkpt lat="43.85927" lon="5.63875">
        <ele>404</ele>
        <time>2021-07-25T10:32:02Z</time>
      </trkpt>
      <trkpt lat="43.85898" lon="5.63929">
        <ele>404</ele>
        <time>2021-07-25T10:32:11Z</time>
      </trkpt>
      <trkpt lat="43.85892" lon="5.63944">
        <ele>405</ele>
        <time>2021-07-25T10:32:13Z</time>
      </trkpt>
      <trkpt lat="43.85883" lon="5.63973">
        <ele>406</ele>
        <time>2021-07-25T10:32:17Z</time>
      </trkpt>
      <trkpt lat="43.85862" lon="5.64084">
        <ele>408</ele>
        <time>2021-07-25T10:32:31Z</time>
      </trkpt>
      <trkpt lat="43.85785" lon="5.64419">
        <ele>405</ele>
        <time>2021-07-25T10:33:17Z</time>
      </trkpt>
      <trkpt lat="43.85783" lon="5.64465">
        <ele>406</ele>
        <time>2021-07-25T10:33:23Z</time>
      </trkpt>
      <trkpt lat="43.85788" lon="5.64507">
        <ele>407</ele>
        <time>2021-07-25T10:33:28Z</time>
      </trkpt>
      <trkpt lat="43.85793" lon="5.64538">
        <ele>407</ele>
        <time>2021-07-25T10:33:32Z</time>
      </trkpt>
      <trkpt lat="43.8582" lon="5.64675">
        <ele>409</ele>
        <time>2021-07-25T10:33:50Z</time>
      </trkpt>
      <trkpt lat="43.85858" lon="5.64863">
        <ele>412</ele>
        <time>2021-07-25T10:34:15Z</time>
      </trkpt>
      <trkpt lat="43.8587" lon="5.64909">
        <ele>414</ele>
        <time>2021-07-25T10:34:22Z</time>
      </trkpt>
      <trkpt lat="43.85889" lon="5.64965">
        <ele>415</ele>
        <time>2021-07-25T10:34:30Z</time>
      </trkpt>
      <trkpt lat="43.85922" lon="5.65056">
        <ele>418</ele>
        <time>2021-07-25T10:34:43Z</time>
      </trkpt>
      <trkpt lat="43.85989" lon="5.65235">
        <ele>425</ele>
        <time>2021-07-25T10:35:08Z</time>
      </trkpt>
      <trkpt lat="43.85998" lon="5.65259">
        <ele>426</ele>
        <time>2021-07-25T10:35:12Z</time>
      </trkpt>
      <trkpt lat="43.86012" lon="5.6529">
        <ele>426</ele>
        <time>2021-07-25T10:35:17Z</time>
      </trkpt>
      <trkpt lat="43.8605" lon="5.65364">
        <ele>426</ele>
        <time>2021-07-25T10:35:28Z</time>
      </trkpt>
      <trkpt lat="43.86064" lon="5.65394">
        <ele>426</ele>
        <time>2021-07-25T10:35:33Z</time>
      </trkpt>
      <trkpt lat="43.8608" lon="5.65432">
        <ele>427</ele>
        <time>2021-07-25T10:35:39Z</time>
      </trkpt>
      <trkpt lat="43.86094" lon="5.65472">
        <ele>427</ele>
        <time>2021-07-25T10:35:44Z</time>
      </trkpt>
      <trkpt lat="43.86104" lon="5.65508">
        <ele>427</ele>
        <time>2021-07-25T10:35:49Z</time>
      </trkpt>
      <trkpt lat="43.86114" lon="5.65537">
        <ele>426</ele>
        <time>2021-07-25T10:35:53Z</time>
      </trkpt>
      <trkpt lat="43.86124" lon="5.6556">
        <ele>426</ele>
        <time>2021-07-25T10:35:57Z</time>
      </trkpt>
      <trkpt lat="43.86137" lon="5.65588">
        <ele>426</ele>
        <time>2021-07-25T10:36:01Z</time>
      </trkpt>
      <trkpt lat="43.86147" lon="5.65607">
        <ele>425</ele>
        <time>2021-07-25T10:36:04Z</time>
      </trkpt>
      <trkpt lat="43.86178" lon="5.6565">
        <ele>425</ele>
        <time>2021-07-25T10:36:12Z</time>
      </trkpt>
      <trkpt lat="43.86196" lon="5.65675">
        <ele>425</ele>
        <time>2021-07-25T10:36:16Z</time>
      </trkpt>
      <trkpt lat="43.86213" lon="5.65699">
        <ele>425</ele>
        <time>2021-07-25T10:36:21Z</time>
      </trkpt>
      <trkpt lat="43.86232" lon="5.65733">
        <ele>424</ele>
        <time>2021-07-25T10:36:26Z</time>
      </trkpt>
      <trkpt lat="43.86249" lon="5.65769">
        <ele>424</ele>
        <time>2021-07-25T10:36:32Z</time>
      </trkpt>
      <trkpt lat="43.86266" lon="5.65817">
        <ele>423</ele>
        <time>2021-07-25T10:36:39Z</time>
      </trkpt>
      <trkpt lat="43.86272" lon="5.65839">
        <ele>424</ele>
        <time>2021-07-25T10:36:42Z</time>
      </trkpt>
      <trkpt lat="43.86274" lon="5.6585">
        <ele>424</ele>
        <time>2021-07-25T10:36:43Z</time>
      </trkpt>
      <trkpt lat="43.86276" lon="5.65861">
        <ele>425</ele>
        <time>2021-07-25T10:36:45Z</time>
      </trkpt>
      <trkpt lat="43.86281" lon="5.65888">
        <ele>426</ele>
        <time>2021-07-25T10:36:48Z</time>
      </trkpt>
      <trkpt lat="43.86307" lon="5.66103">
        <ele>429</ele>
        <time>2021-07-25T10:37:16Z</time>
      </trkpt>
      <trkpt lat="43.8633" lon="5.66218">
        <ele>432</ele>
        <time>2021-07-25T10:37:31Z</time>
      </trkpt>
      <trkpt lat="43.86339" lon="5.66277">
        <ele>433</ele>
        <time>2021-07-25T10:37:39Z</time>
      </trkpt>
      <trkpt lat="43.86341" lon="5.66299">
        <ele>433</ele>
        <time>2021-07-25T10:37:42Z</time>
      </trkpt>
      <trkpt lat="43.86342" lon="5.66311">
        <ele>434</ele>
        <time>2021-07-25T10:37:43Z</time>
      </trkpt>
      <trkpt lat="43.86343" lon="5.66328">
        <ele>434</ele>
        <time>2021-07-25T10:37:46Z</time>
      </trkpt>
      <trkpt lat="43.86344" lon="5.66346">
        <ele>434</ele>
        <time>2021-07-25T10:37:48Z</time>
      </trkpt>
      <trkpt lat="43.86345" lon="5.66367">
        <ele>434</ele>
        <time>2021-07-25T10:37:51Z</time>
      </trkpt>
      <trkpt lat="43.86344" lon="5.66436">
        <ele>434</ele>
        <time>2021-07-25T10:38:00Z</time>
      </trkpt>
      <trkpt lat="43.86343" lon="5.66467">
        <ele>434</ele>
        <time>2021-07-25T10:38:04Z</time>
      </trkpt>
      <trkpt lat="43.86335" lon="5.66541">
        <ele>436</ele>
        <time>2021-07-25T10:38:13Z</time>
      </trkpt>
      <trkpt lat="43.86327" lon="5.66653">
        <ele>438</ele>
        <time>2021-07-25T10:38:28Z</time>
      </trkpt>
      <trkpt lat="43.86308" lon="5.66855">
        <ele>441</ele>
        <time>2021-07-25T10:38:54Z</time>
      </trkpt>
      <trkpt lat="43.86303" lon="5.66941">
        <ele>442</ele>
        <time>2021-07-25T10:39:05Z</time>
      </trkpt>
      <trkpt lat="43.86303" lon="5.66988">
        <ele>443</ele>
        <time>2021-07-25T10:39:11Z</time>
      </trkpt>
      <trkpt lat="43.86301" lon="5.67278">
        <ele>456</ele>
        <time>2021-07-25T10:39:48Z</time>
      </trkpt>
      <trkpt lat="43.863" lon="5.67468">
        <ele>466</ele>
        <time>2021-07-25T10:40:12Z</time>
      </trkpt>
      <trkpt lat="43.863" lon="5.67633">
        <ele>474</ele>
        <time>2021-07-25T10:40:34Z</time>
      </trkpt>
      <trkpt lat="43.86301" lon="5.67664">
        <ele>475</ele>
        <time>2021-07-25T10:40:38Z</time>
      </trkpt>
      <trkpt lat="43.86306" lon="5.67702">
        <ele>478</ele>
        <time>2021-07-25T10:40:42Z</time>
      </trkpt>
      <trkpt lat="43.86311" lon="5.67735">
        <ele>481</ele>
        <time>2021-07-25T10:40:47Z</time>
      </trkpt>
      <trkpt lat="43.86318" lon="5.67764">
        <ele>482</ele>
        <time>2021-07-25T10:40:51Z</time>
      </trkpt>
      <trkpt lat="43.86332" lon="5.67817">
        <ele>484</ele>
        <time>2021-07-25T10:40:58Z</time>
      </trkpt>
      <trkpt lat="43.86344" lon="5.67847">
        <ele>485</ele>
        <time>2021-07-25T10:41:02Z</time>
      </trkpt>
      <trkpt lat="43.86355" lon="5.67873">
        <ele>486</ele>
        <time>2021-07-25T10:41:06Z</time>
      </trkpt>
      <trkpt lat="43.86377" lon="5.67915">
        <ele>488</ele>
        <time>2021-07-25T10:41:13Z</time>
      </trkpt>
      <trkpt lat="43.86409" lon="5.67972">
        <ele>490</ele>
        <time>2021-07-25T10:41:22Z</time>
      </trkpt>
      <trkpt lat="43.86412" lon="5.6798">
        <ele>490</ele>
        <time>2021-07-25T10:41:23Z</time>
      </trkpt>
      <trkpt lat="43.86414" lon="5.67997">
        <ele>491</ele>
        <time>2021-07-25T10:41:26Z</time>
      </trkpt>
      <trkpt lat="43.86413" lon="5.68006">
        <ele>491</ele>
        <time>2021-07-25T10:41:27Z</time>
      </trkpt>
      <trkpt lat="43.86394" lon="5.68043">
        <ele>490</ele>
        <time>2021-07-25T10:41:33Z</time>
      </trkpt>
      <trkpt lat="43.86391" lon="5.68053">
        <ele>490</ele>
        <time>2021-07-25T10:41:34Z</time>
      </trkpt>
      <trkpt lat="43.86375" lon="5.68084">
        <ele>489</ele>
        <time>2021-07-25T10:41:39Z</time>
      </trkpt>
      <trkpt lat="43.86362" lon="5.68117">
        <ele>490</ele>
        <time>2021-07-25T10:41:44Z</time>
      </trkpt>
      <trkpt lat="43.86349" lon="5.68154">
        <ele>491</ele>
        <time>2021-07-25T10:41:49Z</time>
      </trkpt>
      <trkpt lat="43.86348" lon="5.68157">
        <ele>491</ele>
        <time>2021-07-25T10:41:49Z</time>
      </trkpt>
      <trkpt lat="43.8633" lon="5.68213">
        <ele>493</ele>
        <time>2021-07-25T10:41:57Z</time>
      </trkpt>
      <trkpt lat="43.86318" lon="5.68245">
        <ele>493</ele>
        <time>2021-07-25T10:42:02Z</time>
      </trkpt>
      <trkpt lat="43.86308" lon="5.68266">
        <ele>493</ele>
        <time>2021-07-25T10:42:05Z</time>
      </trkpt>
      <trkpt lat="43.86285" lon="5.68316">
        <ele>491</ele>
        <time>2021-07-25T10:42:13Z</time>
      </trkpt>
      <trkpt lat="43.86274" lon="5.68337">
        <ele>491</ele>
        <time>2021-07-25T10:42:16Z</time>
      </trkpt>
      <trkpt lat="43.86267" lon="5.68348">
        <ele>491</ele>
        <time>2021-07-25T10:42:18Z</time>
      </trkpt>
      <trkpt lat="43.8625" lon="5.68369">
        <ele>491</ele>
        <time>2021-07-25T10:42:22Z</time>
      </trkpt>
      <trkpt lat="43.86235" lon="5.68383">
        <ele>492</ele>
        <time>2021-07-25T10:42:25Z</time>
      </trkpt>
      <trkpt lat="43.86226" lon="5.68389">
        <ele>492</ele>
        <time>2021-07-25T10:42:27Z</time>
      </trkpt>
      <trkpt lat="43.86217" lon="5.68393">
        <ele>492</ele>
        <time>2021-07-25T10:42:29Z</time>
      </trkpt>
      <trkpt lat="43.86215" lon="5.68401">
        <ele>492</ele>
        <time>2021-07-25T10:42:30Z</time>
      </trkpt>
      <trkpt lat="43.86214" lon="5.68405">
        <ele>493</ele>
        <time>2021-07-25T10:42:30Z</time>
      </trkpt>
      <trkpt lat="43.86158" lon="5.68493">
        <ele>495</ele>
        <time>2021-07-25T10:42:45Z</time>
      </trkpt>
      <trkpt lat="43.86144" lon="5.68522">
        <ele>496</ele>
        <time>2021-07-25T10:42:50Z</time>
      </trkpt>
      <trkpt lat="43.86142" lon="5.68527">
        <ele>496</ele>
        <time>2021-07-25T10:42:51Z</time>
      </trkpt>
      <trkpt lat="43.86139" lon="5.68535">
        <ele>496</ele>
        <time>2021-07-25T10:42:52Z</time>
      </trkpt>
      <trkpt lat="43.85855" lon="5.69259">
        <ele>526</ele>
        <time>2021-07-25T10:44:37Z</time>
      </trkpt>
      <trkpt lat="43.85854" lon="5.69278">
        <ele>528</ele>
        <time>2021-07-25T10:44:40Z</time>
      </trkpt>
      <trkpt lat="43.85854" lon="5.69284">
        <ele>528</ele>
        <time>2021-07-25T10:44:41Z</time>
      </trkpt>
      <trkpt lat="43.85856" lon="5.69373">
        <ele>535</ele>
        <time>2021-07-25T10:44:52Z</time>
      </trkpt>
      <trkpt lat="43.85855" lon="5.69403">
        <ele>537</ele>
        <time>2021-07-25T10:44:56Z</time>
      </trkpt>
      <trkpt lat="43.85845" lon="5.69504">
        <ele>544</ele>
        <time>2021-07-25T10:45:09Z</time>
      </trkpt>
      <trkpt lat="43.85843" lon="5.69538">
        <ele>549</ele>
        <time>2021-07-25T10:45:13Z</time>
      </trkpt>
      <trkpt lat="43.85848" lon="5.69589">
        <ele>555</ele>
        <time>2021-07-25T10:45:20Z</time>
      </trkpt>
      <trkpt lat="43.8585" lon="5.69608">
        <ele>557</ele>
        <time>2021-07-25T10:45:22Z</time>
      </trkpt>
      <trkpt lat="43.8587" lon="5.69738">
        <ele>567</ele>
        <time>2021-07-25T10:45:39Z</time>
      </trkpt>
      <trkpt lat="43.85882" lon="5.69865">
        <ele>571</ele>
        <time>2021-07-25T10:45:56Z</time>
      </trkpt>
      <trkpt lat="43.85923" lon="5.69997">
        <ele>571</ele>
        <time>2021-07-25T10:46:14Z</time>
      </trkpt>
      <trkpt lat="43.85926" lon="5.70007">
        <ele>570</ele>
        <time>2021-07-25T10:46:16Z</time>
      </trkpt>
      <trkpt lat="43.85929" lon="5.7004">
        <ele>568</ele>
        <time>2021-07-25T10:46:20Z</time>
      </trkpt>
      <trkpt lat="43.8593" lon="5.70063">
        <ele>567</ele>
        <time>2021-07-25T10:46:23Z</time>
      </trkpt>
      <trkpt lat="43.85931" lon="5.70078">
        <ele>566</ele>
        <time>2021-07-25T10:46:25Z</time>
      </trkpt>
      <trkpt lat="43.85928" lon="5.70094">
        <ele>565</ele>
        <time>2021-07-25T10:46:27Z</time>
      </trkpt>
      <trkpt lat="43.85922" lon="5.70097">
        <ele>567</ele>
        <time>2021-07-25T10:46:28Z</time>
      </trkpt>
      <trkpt lat="43.85916" lon="5.70098">
        <ele>568</ele>
        <time>2021-07-25T10:46:29Z</time>
      </trkpt>
      <trkpt lat="43.85914" lon="5.70096">
        <ele>568</ele>
        <time>2021-07-25T10:46:30Z</time>
      </trkpt>
      <trkpt lat="43.85908" lon="5.70086">
        <ele>571</ele>
        <time>2021-07-25T10:46:31Z</time>
      </trkpt>
      <trkpt lat="43.85902" lon="5.7008">
        <ele>572</ele>
        <time>2021-07-25T10:46:33Z</time>
      </trkpt>
      <trkpt lat="43.85889" lon="5.70078">
        <ele>574</ele>
        <time>2021-07-25T10:46:35Z</time>
      </trkpt>
      <trkpt lat="43.85883" lon="5.70076">
        <ele>575</ele>
        <time>2021-07-25T10:46:36Z</time>
      </trkpt>
      <trkpt lat="43.85881" lon="5.70075">
        <ele>575</ele>
        <time>2021-07-25T10:46:36Z</time>
      </trkpt>
      <trkpt lat="43.85861" lon="5.70078">
        <ele>578</ele>
        <time>2021-07-25T10:46:40Z</time>
      </trkpt>
      <trkpt lat="43.85858" lon="5.7008">
        <ele>578</ele>
        <time>2021-07-25T10:46:41Z</time>
      </trkpt>
      <trkpt lat="43.85819" lon="5.70117">
        <ele>578</ele>
        <time>2021-07-25T10:46:49Z</time>
      </trkpt>
      <trkpt lat="43.85815" lon="5.70125">
        <ele>577</ele>
        <time>2021-07-25T10:46:50Z</time>
      </trkpt>
      <trkpt lat="43.85816" lon="5.702">
        <ele>570</ele>
        <time>2021-07-25T10:47:00Z</time>
      </trkpt>
      <trkpt lat="43.85807" lon="5.70242">
        <ele>570</ele>
        <time>2021-07-25T10:47:06Z</time>
      </trkpt>
      <trkpt lat="43.85759" lon="5.70358">
        <ele>579</ele>
        <time>2021-07-25T10:47:23Z</time>
      </trkpt>
      <trkpt lat="43.85711" lon="5.70402">
        <ele>582</ele>
        <time>2021-07-25T10:47:33Z</time>
      </trkpt>
      <trkpt lat="43.85699" lon="5.70409">
        <ele>583</ele>
        <time>2021-07-25T10:47:35Z</time>
      </trkpt>
      <trkpt lat="43.85692" lon="5.70416">
        <ele>583</ele>
        <time>2021-07-25T10:47:37Z</time>
      </trkpt>
      <trkpt lat="43.85684" lon="5.70432">
        <ele>585</ele>
        <time>2021-07-25T10:47:39Z</time>
      </trkpt>
      <trkpt lat="43.85573" lon="5.70595">
        <ele>592</ele>
        <time>2021-07-25T10:48:08Z</time>
      </trkpt>
      <trkpt lat="43.85564" lon="5.70605">
        <ele>594</ele>
        <time>2021-07-25T10:48:10Z</time>
      </trkpt>
      <trkpt lat="43.85552" lon="5.70613">
        <ele>595</ele>
        <time>2021-07-25T10:48:12Z</time>
      </trkpt>
      <trkpt lat="43.85537" lon="5.70613">
        <ele>596</ele>
        <time>2021-07-25T10:48:15Z</time>
      </trkpt>
      <trkpt lat="43.85469" lon="5.70605">
        <ele>600</ele>
        <time>2021-07-25T10:48:27Z</time>
      </trkpt>
      <trkpt lat="43.85417" lon="5.70605">
        <ele>606</ele>
        <time>2021-07-25T10:48:37Z</time>
      </trkpt>
      <trkpt lat="43.85406" lon="5.70609">
        <ele>607</ele>
        <time>2021-07-25T10:48:39Z</time>
      </trkpt>
      <trkpt lat="43.85401" lon="5.70617">
        <ele>608</ele>
        <time>2021-07-25T10:48:40Z</time>
      </trkpt>
      <trkpt lat="43.854" lon="5.70627">
        <ele>609</ele>
        <time>2021-07-25T10:48:41Z</time>
      </trkpt>
      <trkpt lat="43.85402" lon="5.70635">
        <ele>610</ele>
        <time>2021-07-25T10:48:42Z</time>
      </trkpt>
      <trkpt lat="43.85433" lon="5.70667">
        <ele>610</ele>
        <time>2021-07-25T10:48:49Z</time>
      </trkpt>
      <trkpt lat="43.85444" lon="5.7069">
        <ele>612</ele>
        <time>2021-07-25T10:48:53Z</time>
      </trkpt>
      <trkpt lat="43.85494" lon="5.70832">
        <ele>624</ele>
        <time>2021-07-25T10:49:13Z</time>
      </trkpt>
      <trkpt lat="43.855" lon="5.70845">
        <ele>625</ele>
        <time>2021-07-25T10:49:15Z</time>
      </trkpt>
      <trkpt lat="43.85505" lon="5.70851">
        <ele>625</ele>
        <time>2021-07-25T10:49:16Z</time>
      </trkpt>
      <trkpt lat="43.85512" lon="5.70854">
        <ele>626</ele>
        <time>2021-07-25T10:49:17Z</time>
      </trkpt>
      <trkpt lat="43.85562" lon="5.70858">
        <ele>625</ele>
        <time>2021-07-25T10:49:26Z</time>
      </trkpt>
      <trkpt lat="43.85573" lon="5.70862">
        <ele>625</ele>
        <time>2021-07-25T10:49:28Z</time>
      </trkpt>
      <trkpt lat="43.8558" lon="5.70869">
        <ele>626</ele>
        <time>2021-07-25T10:49:30Z</time>
      </trkpt>
      <trkpt lat="43.85585" lon="5.70879">
        <ele>627</ele>
        <time>2021-07-25T10:49:31Z</time>
      </trkpt>
      <trkpt lat="43.85592" lon="5.70928">
        <ele>634</ele>
        <time>2021-07-25T10:49:38Z</time>
      </trkpt>
      <trkpt lat="43.85598" lon="5.7094">
        <ele>636</ele>
        <time>2021-07-25T10:49:40Z</time>
      </trkpt>
      <trkpt lat="43.85604" lon="5.70944">
        <ele>636</ele>
        <time>2021-07-25T10:49:41Z</time>
      </trkpt>
      <trkpt lat="43.85614" lon="5.70947">
        <ele>636</ele>
        <time>2021-07-25T10:49:43Z</time>
      </trkpt>
      <trkpt lat="43.85673" lon="5.70948">
        <ele>635</ele>
        <time>2021-07-25T10:49:53Z</time>
      </trkpt>
      <trkpt lat="43.85691" lon="5.70951">
        <ele>635</ele>
        <time>2021-07-25T10:49:56Z</time>
      </trkpt>
      <trkpt lat="43.85703" lon="5.70957">
        <ele>635</ele>
        <time>2021-07-25T10:49:59Z</time>
      </trkpt>
      <trkpt lat="43.85744" lon="5.70986">
        <ele>639</ele>
        <time>2021-07-25T10:50:07Z</time>
      </trkpt>
      <trkpt lat="43.85753" lon="5.70997">
        <ele>640</ele>
        <time>2021-07-25T10:50:09Z</time>
      </trkpt>
      <trkpt lat="43.85759" lon="5.71009">
        <ele>641</ele>
        <time>2021-07-25T10:50:11Z</time>
      </trkpt>
      <trkpt lat="43.85761" lon="5.71026">
        <ele>641</ele>
        <time>2021-07-25T10:50:13Z</time>
      </trkpt>
      <trkpt lat="43.85765" lon="5.71176">
        <ele>648</ele>
        <time>2021-07-25T10:50:32Z</time>
      </trkpt>
      <trkpt lat="43.85768" lon="5.71197">
        <ele>650</ele>
        <time>2021-07-25T10:50:35Z</time>
      </trkpt>
      <trkpt lat="43.85774" lon="5.71222">
        <ele>653</ele>
        <time>2021-07-25T10:50:39Z</time>
      </trkpt>
      <trkpt lat="43.85783" lon="5.71238">
        <ele>654</ele>
        <time>2021-07-25T10:50:41Z</time>
      </trkpt>
      <trkpt lat="43.8579" lon="5.71248">
        <ele>655</ele>
        <time>2021-07-25T10:50:43Z</time>
      </trkpt>
      <trkpt lat="43.85891" lon="5.71308">
        <ele>657</ele>
        <time>2021-07-25T10:51:02Z</time>
      </trkpt>
      <trkpt lat="43.85897" lon="5.71313">
        <ele>657</ele>
        <time>2021-07-25T10:51:04Z</time>
      </trkpt>
      <trkpt lat="43.859" lon="5.71321">
        <ele>658</ele>
        <time>2021-07-25T10:51:05Z</time>
      </trkpt>
      <trkpt lat="43.85902" lon="5.7133">
        <ele>659</ele>
        <time>2021-07-25T10:51:06Z</time>
      </trkpt>
      <trkpt lat="43.85901" lon="5.7134">
        <ele>659</ele>
        <time>2021-07-25T10:51:07Z</time>
      </trkpt>
      <trkpt lat="43.85898" lon="5.71349">
        <ele>658</ele>
        <time>2021-07-25T10:51:09Z</time>
      </trkpt>
      <trkpt lat="43.85893" lon="5.71356">
        <ele>658</ele>
        <time>2021-07-25T10:51:10Z</time>
      </trkpt>
      <trkpt lat="43.85887" lon="5.71361">
        <ele>658</ele>
        <time>2021-07-25T10:51:11Z</time>
      </trkpt>
      <trkpt lat="43.85839" lon="5.71385">
        <ele>658</ele>
        <time>2021-07-25T10:51:20Z</time>
      </trkpt>
      <trkpt lat="43.85828" lon="5.71393">
        <ele>659</ele>
        <time>2021-07-25T10:51:22Z</time>
      </trkpt>
      <trkpt lat="43.85816" lon="5.71409">
        <ele>661</ele>
        <time>2021-07-25T10:51:25Z</time>
      </trkpt>
      <trkpt lat="43.85789" lon="5.71455">
        <ele>663</ele>
        <time>2021-07-25T10:51:33Z</time>
      </trkpt>
      <trkpt lat="43.85781" lon="5.71475">
        <ele>662</ele>
        <time>2021-07-25T10:51:36Z</time>
      </trkpt>
      <trkpt lat="43.85769" lon="5.71531">
        <ele>659</ele>
        <time>2021-07-25T10:51:43Z</time>
      </trkpt>
      <trkpt lat="43.85748" lon="5.71652">
        <ele>651</ele>
        <time>2021-07-25T10:51:59Z</time>
      </trkpt>
      <trkpt lat="43.85743" lon="5.71672">
        <ele>650</ele>
        <time>2021-07-25T10:52:02Z</time>
      </trkpt>
      <trkpt lat="43.85735" lon="5.71693">
        <ele>649</ele>
        <time>2021-07-25T10:52:05Z</time>
      </trkpt>
      <trkpt lat="43.8567" lon="5.71813">
        <ele>645</ele>
        <time>2021-07-25T10:52:24Z</time>
      </trkpt>
      <trkpt lat="43.85629" lon="5.71916">
        <ele>643</ele>
        <time>2021-07-25T10:52:40Z</time>
      </trkpt>
      <trkpt lat="43.85619" lon="5.71931">
        <ele>643</ele>
        <time>2021-07-25T10:52:42Z</time>
      </trkpt>
      <trkpt lat="43.85569" lon="5.7198">
        <ele>644</ele>
        <time>2021-07-25T10:52:53Z</time>
      </trkpt>
      <trkpt lat="43.8556" lon="5.71992">
        <ele>644</ele>
        <time>2021-07-25T10:52:55Z</time>
      </trkpt>
      <trkpt lat="43.85557" lon="5.72001">
        <ele>643</ele>
        <time>2021-07-25T10:52:57Z</time>
      </trkpt>
      <trkpt lat="43.85558" lon="5.72013">
        <ele>641</ele>
        <time>2021-07-25T10:52:58Z</time>
      </trkpt>
      <trkpt lat="43.85563" lon="5.72036">
        <ele>637</ele>
        <time>2021-07-25T10:53:01Z</time>
      </trkpt>
      <trkpt lat="43.85565" lon="5.72052">
        <ele>635</ele>
        <time>2021-07-25T10:53:03Z</time>
      </trkpt>
      <trkpt lat="43.85563" lon="5.7207">
        <ele>633</ele>
        <time>2021-07-25T10:53:06Z</time>
      </trkpt>
      <trkpt lat="43.85533" lon="5.72178">
        <ele>627</ele>
        <time>2021-07-25T10:53:20Z</time>
      </trkpt>
      <trkpt lat="43.85526" lon="5.72186">
        <ele>627</ele>
        <time>2021-07-25T10:53:22Z</time>
      </trkpt>
      <trkpt lat="43.85492" lon="5.72207">
        <ele>629</ele>
        <time>2021-07-25T10:53:29Z</time>
      </trkpt>
      <trkpt lat="43.85481" lon="5.72216">
        <ele>628</ele>
        <time>2021-07-25T10:53:31Z</time>
      </trkpt>
      <trkpt lat="43.8538" lon="5.72346">
        <ele>614</ele>
        <time>2021-07-25T10:53:55Z</time>
      </trkpt>
      <trkpt lat="43.85369" lon="5.72356">
        <ele>614</ele>
        <time>2021-07-25T10:53:58Z</time>
      </trkpt>
      <trkpt lat="43.85355" lon="5.72361">
        <ele>614</ele>
        <time>2021-07-25T10:54:00Z</time>
      </trkpt>
      <trkpt lat="43.85306" lon="5.72363">
        <ele>614</ele>
        <time>2021-07-25T10:54:09Z</time>
      </trkpt>
      <trkpt lat="43.85282" lon="5.72359">
        <ele>613</ele>
        <time>2021-07-25T10:54:13Z</time>
      </trkpt>
      <trkpt lat="43.85238" lon="5.72338">
        <ele>611</ele>
        <time>2021-07-25T10:54:22Z</time>
      </trkpt>
      <trkpt lat="43.85216" lon="5.72332">
        <ele>610</ele>
        <time>2021-07-25T10:54:26Z</time>
      </trkpt>
      <trkpt lat="43.85202" lon="5.72335">
        <ele>608</ele>
        <time>2021-07-25T10:54:28Z</time>
      </trkpt>
      <trkpt lat="43.85192" lon="5.72346">
        <ele>606</ele>
        <time>2021-07-25T10:54:30Z</time>
      </trkpt>
      <trkpt lat="43.85179" lon="5.72374">
        <ele>602</ele>
        <time>2021-07-25T10:54:35Z</time>
      </trkpt>
      <trkpt lat="43.85183" lon="5.7239">
        <ele>601</ele>
        <time>2021-07-25T10:54:37Z</time>
      </trkpt>
      <trkpt lat="43.85202" lon="5.72469">
        <ele>596</ele>
        <time>2021-07-25T10:54:48Z</time>
      </trkpt>
      <trkpt lat="43.85209" lon="5.72484">
        <ele>595</ele>
        <time>2021-07-25T10:54:50Z</time>
      </trkpt>
      <trkpt lat="43.85217" lon="5.72495">
        <ele>595</ele>
        <time>2021-07-25T10:54:52Z</time>
      </trkpt>
      <trkpt lat="43.85227" lon="5.72504">
        <ele>595</ele>
        <time>2021-07-25T10:54:54Z</time>
      </trkpt>
      <trkpt lat="43.85272" lon="5.72524">
        <ele>596</ele>
        <time>2021-07-25T10:55:02Z</time>
      </trkpt>
      <trkpt lat="43.85278" lon="5.72528">
        <ele>596</ele>
        <time>2021-07-25T10:55:04Z</time>
      </trkpt>
      <trkpt lat="43.85283" lon="5.72534">
        <ele>595</ele>
        <time>2021-07-25T10:55:05Z</time>
      </trkpt>
      <trkpt lat="43.85286" lon="5.72545">
        <ele>594</ele>
        <time>2021-07-25T10:55:06Z</time>
      </trkpt>
      <trkpt lat="43.85288" lon="5.72566">
        <ele>592</ele>
        <time>2021-07-25T10:55:09Z</time>
      </trkpt>
      <trkpt lat="43.85288" lon="5.72578">
        <ele>591</ele>
        <time>2021-07-25T10:55:11Z</time>
      </trkpt>
      <trkpt lat="43.85285" lon="5.72591">
        <ele>590</ele>
        <time>2021-07-25T10:55:12Z</time>
      </trkpt>
      <trkpt lat="43.8528" lon="5.72601">
        <ele>589</ele>
        <time>2021-07-25T10:55:14Z</time>
      </trkpt>
      <trkpt lat="43.85275" lon="5.72607">
        <ele>589</ele>
        <time>2021-07-25T10:55:15Z</time>
      </trkpt>
      <trkpt lat="43.85267" lon="5.72609">
        <ele>589</ele>
        <time>2021-07-25T10:55:16Z</time>
      </trkpt>
      <trkpt lat="43.85238" lon="5.72604">
        <ele>588</ele>
        <time>2021-07-25T10:55:22Z</time>
      </trkpt>
      <trkpt lat="43.85232" lon="5.72608">
        <ele>588</ele>
        <time>2021-07-25T10:55:23Z</time>
      </trkpt>
      <trkpt lat="43.85228" lon="5.72616">
        <ele>587</ele>
        <time>2021-07-25T10:55:24Z</time>
      </trkpt>
      <trkpt lat="43.85227" lon="5.72629">
        <ele>587</ele>
        <time>2021-07-25T10:55:26Z</time>
      </trkpt>
      <trkpt lat="43.8523" lon="5.7264">
        <ele>587</ele>
        <time>2021-07-25T10:55:27Z</time>
      </trkpt>
      <trkpt lat="43.85234" lon="5.72647">
        <ele>587</ele>
        <time>2021-07-25T10:55:28Z</time>
      </trkpt>
      <trkpt lat="43.85277" lon="5.72692">
        <ele>585</ele>
        <time>2021-07-25T10:55:38Z</time>
      </trkpt>
      <trkpt lat="43.85288" lon="5.72708">
        <ele>584</ele>
        <time>2021-07-25T10:55:41Z</time>
      </trkpt>
      <trkpt lat="43.85292" lon="5.7272">
        <ele>583</ele>
        <time>2021-07-25T10:55:43Z</time>
      </trkpt>
      <trkpt lat="43.85294" lon="5.72733">
        <ele>582</ele>
        <time>2021-07-25T10:55:44Z</time>
      </trkpt>
      <trkpt lat="43.85293" lon="5.72749">
        <ele>582</ele>
        <time>2021-07-25T10:55:46Z</time>
      </trkpt>
      <trkpt lat="43.85278" lon="5.72814">
        <ele>581</ele>
        <time>2021-07-25T10:55:55Z</time>
      </trkpt>
      <trkpt lat="43.85269" lon="5.72852">
        <ele>581</ele>
        <time>2021-07-25T10:56:00Z</time>
      </trkpt>
      <trkpt lat="43.85268" lon="5.72856">
        <ele>581</ele>
        <time>2021-07-25T10:56:01Z</time>
      </trkpt>
      <trkpt lat="43.85266" lon="5.7286">
        <ele>581</ele>
        <time>2021-07-25T10:56:01Z</time>
      </trkpt>
      <trkpt lat="43.85261" lon="5.72871">
        <ele>581</ele>
        <time>2021-07-25T10:56:03Z</time>
      </trkpt>
      <trkpt lat="43.85256" lon="5.72884">
        <ele>581</ele>
        <time>2021-07-25T10:56:05Z</time>
      </trkpt>
      <trkpt lat="43.8525" lon="5.72894">
        <ele>581</ele>
        <time>2021-07-25T10:56:07Z</time>
      </trkpt>
      <trkpt lat="43.85183" lon="5.73008">
        <ele>583</ele>
        <time>2021-07-25T10:56:25Z</time>
      </trkpt>
      <trkpt lat="43.85173" lon="5.73025">
        <ele>583</ele>
        <time>2021-07-25T10:56:28Z</time>
      </trkpt>
      <trkpt lat="43.85159" lon="5.7305">
        <ele>584</ele>
        <time>2021-07-25T10:56:32Z</time>
      </trkpt>
      <trkpt lat="43.85127" lon="5.73115">
        <ele>584</ele>
        <time>2021-07-25T10:56:42Z</time>
      </trkpt>
      <trkpt lat="43.85069" lon="5.73236">
        <ele>583</ele>
        <time>2021-07-25T10:57:01Z</time>
      </trkpt>
      <trkpt lat="43.85065" lon="5.73244">
        <ele>583</ele>
        <time>2021-07-25T10:57:02Z</time>
      </trkpt>
      <trkpt lat="43.85057" lon="5.73264">
        <ele>583</ele>
        <time>2021-07-25T10:57:05Z</time>
      </trkpt>
      <trkpt lat="43.85018" lon="5.73378">
        <ele>583</ele>
        <time>2021-07-25T10:57:21Z</time>
      </trkpt>
      <trkpt lat="43.85003" lon="5.7341">
        <ele>581</ele>
        <time>2021-07-25T10:57:26Z</time>
      </trkpt>
      <trkpt lat="43.84991" lon="5.73427">
        <ele>581</ele>
        <time>2021-07-25T10:57:29Z</time>
      </trkpt>
      <trkpt lat="43.84963" lon="5.73458">
        <ele>582</ele>
        <time>2021-07-25T10:57:36Z</time>
      </trkpt>
      <trkpt lat="43.8492" lon="5.73502">
        <ele>576</ele>
        <time>2021-07-25T10:57:45Z</time>
      </trkpt>
      <trkpt lat="43.84862" lon="5.73568">
        <ele>572</ele>
        <time>2021-07-25T10:57:59Z</time>
      </trkpt>
      <trkpt lat="43.84833" lon="5.736">
        <ele>567</ele>
        <time>2021-07-25T10:58:05Z</time>
      </trkpt>
      <trkpt lat="43.84821" lon="5.73614">
        <ele>568</ele>
        <time>2021-07-25T10:58:08Z</time>
      </trkpt>
      <trkpt lat="43.84806" lon="5.73637">
        <ele>568</ele>
        <time>2021-07-25T10:58:12Z</time>
      </trkpt>
      <trkpt lat="43.84733" lon="5.7378">
        <ele>556</ele>
        <time>2021-07-25T10:58:35Z</time>
      </trkpt>
      <trkpt lat="43.84721" lon="5.73795">
        <ele>554</ele>
        <time>2021-07-25T10:58:37Z</time>
      </trkpt>
      <trkpt lat="43.84709" lon="5.73804">
        <ele>554</ele>
        <time>2021-07-25T10:58:40Z</time>
      </trkpt>
      <trkpt lat="43.84697" lon="5.7381">
        <ele>554</ele>
        <time>2021-07-25T10:58:42Z</time>
      </trkpt>
      <trkpt lat="43.84678" lon="5.73815">
        <ele>555</ele>
        <time>2021-07-25T10:58:46Z</time>
      </trkpt>
      <trkpt lat="43.8466" lon="5.73815">
        <ele>558</ele>
        <time>2021-07-25T10:58:49Z</time>
      </trkpt>
      <trkpt lat="43.84638" lon="5.73819">
        <ele>559</ele>
        <time>2021-07-25T10:58:53Z</time>
      </trkpt>
      <trkpt lat="43.84618" lon="5.73831">
        <ele>558</ele>
        <time>2021-07-25T10:58:57Z</time>
      </trkpt>
      <trkpt lat="43.846" lon="5.73855">
        <ele>558</ele>
        <time>2021-07-25T10:59:01Z</time>
      </trkpt>
      <trkpt lat="43.84574" lon="5.73917">
        <ele>553</ele>
        <time>2021-07-25T10:59:10Z</time>
      </trkpt>
      <trkpt lat="43.84566" lon="5.73935">
        <ele>552</ele>
        <time>2021-07-25T10:59:13Z</time>
      </trkpt>
      <trkpt lat="43.84555" lon="5.7395">
        <ele>551</ele>
        <time>2021-07-25T10:59:16Z</time>
      </trkpt>
      <trkpt lat="43.84547" lon="5.73957">
        <ele>550</ele>
        <time>2021-07-25T10:59:17Z</time>
      </trkpt>
      <trkpt lat="43.84535" lon="5.73962">
        <ele>549</ele>
        <time>2021-07-25T10:59:20Z</time>
      </trkpt>
      <trkpt lat="43.84469" lon="5.7397">
        <ele>544</ele>
        <time>2021-07-25T10:59:31Z</time>
      </trkpt>
      <trkpt lat="43.84448" lon="5.73969">
        <ele>543</ele>
        <time>2021-07-25T10:59:35Z</time>
      </trkpt>
      <trkpt lat="43.84414" lon="5.73953">
        <ele>541</ele>
        <time>2021-07-25T10:59:41Z</time>
      </trkpt>
      <trkpt lat="43.84379" lon="5.73924">
        <ele>538</ele>
        <time>2021-07-25T10:59:49Z</time>
      </trkpt>
      <trkpt lat="43.8436" lon="5.73913">
        <ele>535</ele>
        <time>2021-07-25T10:59:52Z</time>
      </trkpt>
      <trkpt lat="43.84349" lon="5.73908">
        <ele>534</ele>
        <time>2021-07-25T10:59:54Z</time>
      </trkpt>
      <trkpt lat="43.84339" lon="5.73907">
        <ele>532</ele>
        <time>2021-07-25T10:59:56Z</time>
      </trkpt>
      <trkpt lat="43.84331" lon="5.7391">
        <ele>531</ele>
        <time>2021-07-25T10:59:58Z</time>
      </trkpt>
      <trkpt lat="43.84323" lon="5.73914">
        <ele>530</ele>
        <time>2021-07-25T10:59:59Z</time>
      </trkpt>
      <trkpt lat="43.84314" lon="5.73924">
        <ele>529</ele>
        <time>2021-07-25T11:00:01Z</time>
      </trkpt>
      <trkpt lat="43.84179" lon="5.74118">
        <ele>526</ele>
        <time>2021-07-25T11:00:36Z</time>
      </trkpt>
      <trkpt lat="43.84121" lon="5.74196">
        <ele>528</ele>
        <time>2021-07-25T11:00:50Z</time>
      </trkpt>
      <trkpt lat="43.84107" lon="5.74217">
        <ele>529</ele>
        <time>2021-07-25T11:00:54Z</time>
      </trkpt>
      <trkpt lat="43.84103" lon="5.74225">
        <ele>529</ele>
        <time>2021-07-25T11:00:55Z</time>
      </trkpt>
      <trkpt lat="43.84101" lon="5.74234">
        <ele>529</ele>
        <time>2021-07-25T11:00:56Z</time>
      </trkpt>
      <trkpt lat="43.84095" lon="5.74253">
        <ele>529</ele>
        <time>2021-07-25T11:00:59Z</time>
      </trkpt>
      <trkpt lat="43.84084" lon="5.7429">
        <ele>529</ele>
        <time>2021-07-25T11:01:04Z</time>
      </trkpt>
      <trkpt lat="43.84075" lon="5.74315">
        <ele>529</ele>
        <time>2021-07-25T11:01:08Z</time>
      </trkpt>
      <trkpt lat="43.84053" lon="5.7437">
        <ele>532</ele>
        <time>2021-07-25T11:01:16Z</time>
      </trkpt>
      <trkpt lat="43.84051" lon="5.7439">
        <ele>532</ele>
        <time>2021-07-25T11:01:18Z</time>
      </trkpt>
      <trkpt lat="43.84057" lon="5.74415">
        <ele>531</ele>
        <time>2021-07-25T11:01:22Z</time>
      </trkpt>
      <trkpt lat="43.84068" lon="5.74448">
        <ele>530</ele>
        <time>2021-07-25T11:01:26Z</time>
      </trkpt>
      <trkpt lat="43.84172" lon="5.74729">
        <ele>513</ele>
        <time>2021-07-25T11:02:07Z</time>
      </trkpt>
      <trkpt lat="43.84176" lon="5.74744">
        <ele>512</ele>
        <time>2021-07-25T11:02:09Z</time>
      </trkpt>
      <trkpt lat="43.84177" lon="5.74762">
        <ele>511</ele>
        <time>2021-07-25T11:02:11Z</time>
      </trkpt>
      <trkpt lat="43.8417" lon="5.74836">
        <ele>512</ele>
        <time>2021-07-25T11:02:21Z</time>
      </trkpt>
      <trkpt lat="43.84172" lon="5.74867">
        <ele>510</ele>
        <time>2021-07-25T11:02:25Z</time>
      </trkpt>
      <trkpt lat="43.84176" lon="5.74899">
        <ele>508</ele>
        <time>2021-07-25T11:02:29Z</time>
      </trkpt>
      <trkpt lat="43.84186" lon="5.74949">
        <ele>505</ele>
        <time>2021-07-25T11:02:36Z</time>
      </trkpt>
      <trkpt lat="43.84203" lon="5.75012">
        <ele>499</ele>
        <time>2021-07-25T11:02:44Z</time>
      </trkpt>
      <trkpt lat="43.84207" lon="5.75033">
        <ele>499</ele>
        <time>2021-07-25T11:02:47Z</time>
      </trkpt>
      <trkpt lat="43.84211" lon="5.75071">
        <ele>498</ele>
        <time>2021-07-25T11:02:52Z</time>
      </trkpt>
      <trkpt lat="43.84211" lon="5.75121">
        <ele>495</ele>
        <time>2021-07-25T11:02:59Z</time>
      </trkpt>
      <trkpt lat="43.84207" lon="5.75168">
        <ele>493</ele>
        <time>2021-07-25T11:03:05Z</time>
      </trkpt>
      <trkpt lat="43.842" lon="5.7519">
        <ele>492</ele>
        <time>2021-07-25T11:03:08Z</time>
      </trkpt>
      <trkpt lat="43.84182" lon="5.7523">
        <ele>491</ele>
        <time>2021-07-25T11:03:14Z</time>
      </trkpt>
      <trkpt lat="43.84172" lon="5.75263">
        <ele>488</ele>
        <time>2021-07-25T11:03:18Z</time>
      </trkpt>
      <trkpt lat="43.84158" lon="5.75296">
        <ele>482</ele>
        <time>2021-07-25T11:03:23Z</time>
      </trkpt>
      <trkpt lat="43.84152" lon="5.753">
        <ele>481</ele>
        <time>2021-07-25T11:03:24Z</time>
      </trkpt>
      <trkpt lat="43.84142" lon="5.75304">
        <ele>480</ele>
        <time>2021-07-25T11:03:26Z</time>
      </trkpt>
      <trkpt lat="43.84131" lon="5.75302">
        <ele>481</ele>
        <time>2021-07-25T11:03:28Z</time>
      </trkpt>
      <trkpt lat="43.84098" lon="5.75271">
        <ele>488</ele>
        <time>2021-07-25T11:03:35Z</time>
      </trkpt>
      <trkpt lat="43.83955" lon="5.75189">
        <ele>480</ele>
        <time>2021-07-25T11:04:03Z</time>
      </trkpt>
      <trkpt lat="43.83925" lon="5.75176">
        <ele>478</ele>
        <time>2021-07-25T11:04:08Z</time>
      </trkpt>
      <trkpt lat="43.83915" lon="5.75175">
        <ele>477</ele>
        <time>2021-07-25T11:04:10Z</time>
      </trkpt>
      <trkpt lat="43.83903" lon="5.75179">
        <ele>476</ele>
        <time>2021-07-25T11:04:12Z</time>
      </trkpt>
      <trkpt lat="43.83702" lon="5.75272">
        <ele>460</ele>
        <time>2021-07-25T11:04:50Z</time>
      </trkpt>
      <trkpt lat="43.83687" lon="5.75272">
        <ele>460</ele>
        <time>2021-07-25T11:04:53Z</time>
      </trkpt>
      <trkpt lat="43.83671" lon="5.75267">
        <ele>460</ele>
        <time>2021-07-25T11:04:56Z</time>
      </trkpt>
      <trkpt lat="43.83592" lon="5.75235">
        <ele>456</ele>
        <time>2021-07-25T11:05:10Z</time>
      </trkpt>
      <trkpt lat="43.83522" lon="5.75212">
        <ele>451</ele>
        <time>2021-07-25T11:05:23Z</time>
      </trkpt>
      <trkpt lat="43.83511" lon="5.75208">
        <ele>451</ele>
        <time>2021-07-25T11:05:25Z</time>
      </trkpt>
      <trkpt lat="43.83501" lon="5.75198">
        <ele>450</ele>
        <time>2021-07-25T11:05:27Z</time>
      </trkpt>
      <trkpt lat="43.83472" lon="5.75155">
        <ele>451</ele>
        <time>2021-07-25T11:05:35Z</time>
      </trkpt>
      <trkpt lat="43.83466" lon="5.75147">
        <ele>451</ele>
        <time>2021-07-25T11:05:36Z</time>
      </trkpt>
      <trkpt lat="43.83462" lon="5.75142">
        <ele>451</ele>
        <time>2021-07-25T11:05:37Z</time>
      </trkpt>
      <trkpt lat="43.83459" lon="5.7514">
        <ele>451</ele>
        <time>2021-07-25T11:05:38Z</time>
      </trkpt>
      <trkpt lat="43.8345" lon="5.75135">
        <ele>451</ele>
        <time>2021-07-25T11:05:40Z</time>
      </trkpt>
      <trkpt lat="43.83431" lon="5.75134">
        <ele>450</ele>
        <time>2021-07-25T11:05:43Z</time>
      </trkpt>
      <trkpt lat="43.83423" lon="5.75137">
        <ele>450</ele>
        <time>2021-07-25T11:05:45Z</time>
      </trkpt>
      <trkpt lat="43.83412" lon="5.75145">
        <ele>449</ele>
        <time>2021-07-25T11:05:47Z</time>
      </trkpt>
      <trkpt lat="43.83398" lon="5.75166">
        <ele>448</ele>
        <time>2021-07-25T11:05:50Z</time>
      </trkpt>
      <trkpt lat="43.83391" lon="5.7518">
        <ele>446</ele>
        <time>2021-07-25T11:05:53Z</time>
      </trkpt>
      <trkpt lat="43.83326" lon="5.75332">
        <ele>432</ele>
        <time>2021-07-25T11:06:15Z</time>
      </trkpt>
      <trkpt lat="43.83316" lon="5.75367">
        <ele>428</ele>
        <time>2021-07-25T11:06:20Z</time>
      </trkpt>
      <trkpt lat="43.83306" lon="5.75425">
        <ele>422</ele>
        <time>2021-07-25T11:06:28Z</time>
      </trkpt>
      <trkpt lat="43.83293" lon="5.75522">
        <ele>419</ele>
        <time>2021-07-25T11:06:40Z</time>
      </trkpt>
      <trkpt lat="43.83282" lon="5.75707">
        <ele>414</ele>
        <time>2021-07-25T11:07:04Z</time>
      </trkpt>
      <trkpt lat="43.83282" lon="5.75752">
        <ele>414</ele>
        <time>2021-07-25T11:07:10Z</time>
      </trkpt>
      <trkpt lat="43.83291" lon="5.75845">
        <ele>411</ele>
        <time>2021-07-25T11:07:22Z</time>
      </trkpt>
      <trkpt lat="43.8329" lon="5.75901">
        <ele>408</ele>
        <time>2021-07-25T11:07:29Z</time>
      </trkpt>
      <trkpt lat="43.83287" lon="5.7596">
        <ele>405</ele>
        <time>2021-07-25T11:07:37Z</time>
      </trkpt>
      <trkpt lat="43.83282" lon="5.75988">
        <ele>404</ele>
        <time>2021-07-25T11:07:41Z</time>
      </trkpt>
      <trkpt lat="43.83241" lon="5.76131">
        <ele>397</ele>
        <time>2021-07-25T11:08:00Z</time>
      </trkpt>
      <trkpt lat="43.83237" lon="5.76146">
        <ele>396</ele>
        <time>2021-07-25T11:08:02Z</time>
      </trkpt>
      <trkpt lat="43.83233" lon="5.76183">
        <ele>394</ele>
        <time>2021-07-25T11:08:07Z</time>
      </trkpt>
      <trkpt lat="43.83233" lon="5.76209">
        <ele>394</ele>
        <time>2021-07-25T11:08:11Z</time>
      </trkpt>
      <trkpt lat="43.83238" lon="5.76253">
        <ele>393</ele>
        <time>2021-07-25T11:08:16Z</time>
      </trkpt>
      <trkpt lat="43.8327" lon="5.76485">
        <ele>386</ele>
        <time>2021-07-25T11:08:47Z</time>
      </trkpt>
      <trkpt lat="43.83318" lon="5.7686">
        <ele>372</ele>
        <time>2021-07-25T11:09:35Z</time>
      </trkpt>
      <trkpt lat="43.83319" lon="5.7688">
        <ele>373</ele>
        <time>2021-07-25T11:09:38Z</time>
      </trkpt>
      <trkpt lat="43.8332" lon="5.76888">
        <ele>373</ele>
        <time>2021-07-25T11:09:39Z</time>
      </trkpt>
      <trkpt lat="43.83319" lon="5.76902">
        <ele>373</ele>
        <time>2021-07-25T11:09:41Z</time>
      </trkpt>
      <trkpt lat="43.83317" lon="5.76903">
        <ele>373</ele>
        <time>2021-07-25T11:09:41Z</time>
      </trkpt>
      <trkpt lat="43.83314" lon="5.76912">
        <ele>373</ele>
        <time>2021-07-25T11:09:43Z</time>
      </trkpt>
      <trkpt lat="43.83316" lon="5.76918">
        <ele>373</ele>
        <time>2021-07-25T11:09:43Z</time>
      </trkpt>
      <trkpt lat="43.83318" lon="5.7692">
        <ele>373</ele>
        <time>2021-07-25T11:09:44Z</time>
      </trkpt>
      <trkpt lat="43.83317" lon="5.76931">
        <ele>373</ele>
        <time>2021-07-25T11:09:45Z</time>
      </trkpt>
      <trkpt lat="43.83315" lon="5.76941">
        <ele>373</ele>
        <time>2021-07-25T11:09:47Z</time>
      </trkpt>
      <trkpt lat="43.83303" lon="5.77002">
        <ele>370</ele>
        <time>2021-07-25T11:09:55Z</time>
      </trkpt>
      <trkpt lat="43.83298" lon="5.77019">
        <ele>370</ele>
        <time>2021-07-25T11:09:57Z</time>
      </trkpt>
      <trkpt lat="43.8329" lon="5.77048">
        <ele>369</ele>
        <time>2021-07-25T11:10:01Z</time>
      </trkpt>
      <trkpt lat="43.83282" lon="5.77072">
        <ele>368</ele>
        <time>2021-07-25T11:10:04Z</time>
      </trkpt>
      <trkpt lat="43.83274" lon="5.77097">
        <ele>368</ele>
        <time>2021-07-25T11:10:08Z</time>
      </trkpt>
      <trkpt lat="43.83271" lon="5.77104">
        <ele>368</ele>
        <time>2021-07-25T11:10:09Z</time>
      </trkpt>
      <trkpt lat="43.83269" lon="5.77113">
        <ele>368</ele>
        <time>2021-07-25T11:10:10Z</time>
      </trkpt>
      <trkpt lat="43.83265" lon="5.77124">
        <ele>368</ele>
        <time>2021-07-25T11:10:12Z</time>
      </trkpt>
      <trkpt lat="43.8326" lon="5.7714">
        <ele>368</ele>
        <time>2021-07-25T11:10:14Z</time>
      </trkpt>
      <trkpt lat="43.83253" lon="5.77159">
        <ele>367</ele>
        <time>2021-07-25T11:10:17Z</time>
      </trkpt>
      <trkpt lat="43.8324" lon="5.77196">
        <ele>367</ele>
        <time>2021-07-25T11:10:22Z</time>
      </trkpt>
      <trkpt lat="43.83232" lon="5.77219">
        <ele>366</ele>
        <time>2021-07-25T11:10:25Z</time>
      </trkpt>
      <trkpt lat="43.83227" lon="5.77234">
        <ele>366</ele>
        <time>2021-07-25T11:10:27Z</time>
      </trkpt>
      <trkpt lat="43.83222" lon="5.77248">
        <ele>366</ele>
        <time>2021-07-25T11:10:29Z</time>
      </trkpt>
      <trkpt lat="43.83201" lon="5.77305">
        <ele>365</ele>
        <time>2021-07-25T11:10:38Z</time>
      </trkpt>
      <trkpt lat="43.83188" lon="5.77351">
        <ele>364</ele>
        <time>2021-07-25T11:10:44Z</time>
      </trkpt>
      <trkpt lat="43.83183" lon="5.77371">
        <ele>363</ele>
        <time>2021-07-25T11:10:47Z</time>
      </trkpt>
      <trkpt lat="43.83174" lon="5.77418">
        <ele>362</ele>
        <time>2021-07-25T11:10:53Z</time>
      </trkpt>
      <trkpt lat="43.83173" lon="5.77425">
        <ele>362</ele>
        <time>2021-07-25T11:10:54Z</time>
      </trkpt>
      <trkpt lat="43.83172" lon="5.77431">
        <ele>362</ele>
        <time>2021-07-25T11:10:55Z</time>
      </trkpt>
      <trkpt lat="43.83172" lon="5.77436">
        <ele>362</ele>
        <time>2021-07-25T11:10:55Z</time>
      </trkpt>
      <trkpt lat="43.83171" lon="5.77438">
        <ele>362</ele>
        <time>2021-07-25T11:10:56Z</time>
      </trkpt>
      <trkpt lat="43.83166" lon="5.77472">
        <ele>362</ele>
        <time>2021-07-25T11:11:00Z</time>
      </trkpt>
      <trkpt lat="43.83163" lon="5.7749">
        <ele>362</ele>
        <time>2021-07-25T11:11:02Z</time>
      </trkpt>
      <trkpt lat="43.83161" lon="5.77507">
        <ele>362</ele>
        <time>2021-07-25T11:11:05Z</time>
      </trkpt>
      <trkpt lat="43.8316" lon="5.77513">
        <ele>362</ele>
        <time>2021-07-25T11:11:05Z</time>
      </trkpt>
      <trkpt lat="43.83158" lon="5.77525">
        <ele>362</ele>
        <time>2021-07-25T11:11:07Z</time>
      </trkpt>
      <trkpt lat="43.83152" lon="5.77558">
        <ele>361</ele>
        <time>2021-07-25T11:11:11Z</time>
      </trkpt>
      <trkpt lat="43.83148" lon="5.77579">
        <ele>361</ele>
        <time>2021-07-25T11:11:14Z</time>
      </trkpt>
      <trkpt lat="43.83142" lon="5.77604">
        <ele>361</ele>
        <time>2021-07-25T11:11:18Z</time>
      </trkpt>
      <trkpt lat="43.83135" lon="5.77629">
        <ele>360</ele>
        <time>2021-07-25T11:11:21Z</time>
      </trkpt>
      <trkpt lat="43.83126" lon="5.77664">
        <ele>360</ele>
        <time>2021-07-25T11:11:26Z</time>
      </trkpt>
      <trkpt lat="43.83111" lon="5.77721">
        <ele>357</ele>
        <time>2021-07-25T11:11:34Z</time>
      </trkpt>
      <trkpt lat="43.83098" lon="5.77748">
        <ele>355</ele>
        <time>2021-07-25T11:11:38Z</time>
      </trkpt>
      <trkpt lat="43.83097" lon="5.77751">
        <ele>355</ele>
        <time>2021-07-25T11:11:38Z</time>
      </trkpt>
      <trkpt lat="43.83093" lon="5.77754">
        <ele>355</ele>
        <time>2021-07-25T11:11:39Z</time>
      </trkpt>
      <trkpt lat="43.83084" lon="5.77754">
        <ele>354</ele>
        <time>2021-07-25T11:11:41Z</time>
      </trkpt>
      <trkpt lat="43.83077" lon="5.77753">
        <ele>354</ele>
        <time>2021-07-25T11:11:42Z</time>
      </trkpt>
      <trkpt lat="43.83075" lon="5.7775">
        <ele>354</ele>
        <time>2021-07-25T11:11:42Z</time>
      </trkpt>
      <trkpt lat="43.83072" lon="5.77748">
        <ele>354</ele>
        <time>2021-07-25T11:11:43Z</time>
      </trkpt>
      <trkpt lat="43.83067" lon="5.77747">
        <ele>354</ele>
        <time>2021-07-25T11:11:44Z</time>
      </trkpt>
      <trkpt lat="43.83062" lon="5.77748">
        <ele>354</ele>
        <time>2021-07-25T11:11:45Z</time>
      </trkpt>
      <trkpt lat="43.8306" lon="5.77749">
        <ele>354</ele>
        <time>2021-07-25T11:11:45Z</time>
      </trkpt>
      <trkpt lat="43.83056" lon="5.77753">
        <ele>354</ele>
        <time>2021-07-25T11:11:46Z</time>
      </trkpt>
      <trkpt lat="43.83054" lon="5.77759">
        <ele>354</ele>
        <time>2021-07-25T11:11:47Z</time>
      </trkpt>
      <trkpt lat="43.83053" lon="5.77765">
        <ele>354</ele>
        <time>2021-07-25T11:11:48Z</time>
      </trkpt>
      <trkpt lat="43.83053" lon="5.7777">
        <ele>354</ele>
        <time>2021-07-25T11:11:48Z</time>
      </trkpt>
      <trkpt lat="43.83054" lon="5.77776">
        <ele>354</ele>
        <time>2021-07-25T11:11:49Z</time>
      </trkpt>
      <trkpt lat="43.83057" lon="5.77781">
        <ele>354</ele>
        <time>2021-07-25T11:11:50Z</time>
      </trkpt>
      <trkpt lat="43.83061" lon="5.77784">
        <ele>354</ele>
        <time>2021-07-25T11:11:51Z</time>
      </trkpt>
      <trkpt lat="43.83063" lon="5.77785">
        <ele>354</ele>
        <time>2021-07-25T11:11:51Z</time>
      </trkpt>
      <trkpt lat="43.83068" lon="5.77788">
        <ele>354</ele>
        <time>2021-07-25T11:11:52Z</time>
      </trkpt>
      <trkpt lat="43.83073" lon="5.7779">
        <ele>354</ele>
        <time>2021-07-25T11:11:53Z</time>
      </trkpt>
      <trkpt lat="43.83085" lon="5.77796">
        <ele>354</ele>
        <time>2021-07-25T11:11:55Z</time>
      </trkpt>
      <trkpt lat="43.83089" lon="5.77798">
        <ele>354</ele>
        <time>2021-07-25T11:11:56Z</time>
      </trkpt>
      <trkpt lat="43.83101" lon="5.77815">
        <ele>355</ele>
        <time>2021-07-25T11:11:59Z</time>
      </trkpt>
      <trkpt lat="43.83108" lon="5.77838">
        <ele>356</ele>
        <time>2021-07-25T11:12:02Z</time>
      </trkpt>
      <trkpt lat="43.83108" lon="5.7785">
        <ele>357</ele>
        <time>2021-07-25T11:12:04Z</time>
      </trkpt>
      <trkpt lat="43.83108" lon="5.77853">
        <ele>357</ele>
        <time>2021-07-25T11:12:04Z</time>
      </trkpt>
      <trkpt lat="43.8311" lon="5.77872">
        <ele>358</ele>
        <time>2021-07-25T11:12:07Z</time>
      </trkpt>
      <trkpt lat="43.83104" lon="5.77893">
        <ele>358</ele>
        <time>2021-07-25T11:12:10Z</time>
      </trkpt>
      <trkpt lat="43.83097" lon="5.77914">
        <ele>359</ele>
        <time>2021-07-25T11:12:13Z</time>
      </trkpt>
      <trkpt lat="43.83088" lon="5.77944">
        <ele>359</ele>
        <time>2021-07-25T11:12:17Z</time>
      </trkpt>
      <trkpt lat="43.83077" lon="5.77994">
        <ele>360</ele>
        <time>2021-07-25T11:12:23Z</time>
      </trkpt>
      <trkpt lat="43.83074" lon="5.7801">
        <ele>360</ele>
        <time>2021-07-25T11:12:26Z</time>
      </trkpt>
      <trkpt lat="43.8307" lon="5.78044">
        <ele>360</ele>
        <time>2021-07-25T11:12:30Z</time>
      </trkpt>
      <trkpt lat="43.83068" lon="5.78061">
        <ele>360</ele>
        <time>2021-07-25T11:12:32Z</time>
      </trkpt>
      <trkpt lat="43.83065" lon="5.78103">
        <ele>361</ele>
        <time>2021-07-25T11:12:38Z</time>
      </trkpt>
      <trkpt lat="43.83061" lon="5.78144">
        <ele>363</ele>
        <time>2021-07-25T11:12:43Z</time>
      </trkpt>
      <trkpt lat="43.8306" lon="5.78155">
        <ele>363</ele>
        <time>2021-07-25T11:12:44Z</time>
      </trkpt>
      <trkpt lat="43.83056" lon="5.78198">
        <ele>365</ele>
        <time>2021-07-25T11:12:50Z</time>
      </trkpt>
      <trkpt lat="43.83047" lon="5.78226">
        <ele>366</ele>
        <time>2021-07-25T11:12:54Z</time>
      </trkpt>
      <trkpt lat="43.83043" lon="5.78239">
        <ele>366</ele>
        <time>2021-07-25T11:12:56Z</time>
      </trkpt>
      <trkpt lat="43.83038" lon="5.78253">
        <ele>366</ele>
        <time>2021-07-25T11:12:58Z</time>
      </trkpt>
      <trkpt lat="43.83032" lon="5.78262">
        <ele>366</ele>
        <time>2021-07-25T11:12:59Z</time>
      </trkpt>
      <trkpt lat="43.83027" lon="5.78272">
        <ele>367</ele>
        <time>2021-07-25T11:13:01Z</time>
      </trkpt>
      <trkpt lat="43.83024" lon="5.78277">
        <ele>367</ele>
        <time>2021-07-25T11:13:02Z</time>
      </trkpt>
      <trkpt lat="43.83022" lon="5.78278">
        <ele>366</ele>
        <time>2021-07-25T11:13:02Z</time>
      </trkpt>
      <trkpt lat="43.83021" lon="5.78279">
        <ele>366</ele>
        <time>2021-07-25T11:13:02Z</time>
      </trkpt>
      <trkpt lat="43.8302" lon="5.78281">
        <ele>366</ele>
        <time>2021-07-25T11:13:03Z</time>
      </trkpt>
      <trkpt lat="43.83019" lon="5.78284">
        <ele>366</ele>
        <time>2021-07-25T11:13:03Z</time>
      </trkpt>
      <trkpt lat="43.83019" lon="5.78287">
        <ele>367</ele>
        <time>2021-07-25T11:13:03Z</time>
      </trkpt>
      <trkpt lat="43.8302" lon="5.7829">
        <ele>367</ele>
        <time>2021-07-25T11:13:04Z</time>
      </trkpt>
      <trkpt lat="43.83021" lon="5.78292">
        <ele>367</ele>
        <time>2021-07-25T11:13:04Z</time>
      </trkpt>
      <trkpt lat="43.83022" lon="5.78294">
        <ele>367</ele>
        <time>2021-07-25T11:13:04Z</time>
      </trkpt>
      <trkpt lat="43.83024" lon="5.78296">
        <ele>367</ele>
        <time>2021-07-25T11:13:05Z</time>
      </trkpt>
      <trkpt lat="43.83031" lon="5.78313">
        <ele>369</ele>
        <time>2021-07-25T11:13:07Z</time>
      </trkpt>
      <trkpt lat="43.83033" lon="5.78334">
        <ele>370</ele>
        <time>2021-07-25T11:13:10Z</time>
      </trkpt>
      <trkpt lat="43.83035" lon="5.78352">
        <ele>371</ele>
        <time>2021-07-25T11:13:12Z</time>
      </trkpt>
      <trkpt lat="43.83037" lon="5.78374">
        <ele>372</ele>
        <time>2021-07-25T11:13:15Z</time>
      </trkpt>
      <trkpt lat="43.83037" lon="5.7838">
        <ele>372</ele>
        <time>2021-07-25T11:13:16Z</time>
      </trkpt>
      <trkpt lat="43.83039" lon="5.78391">
        <ele>373</ele>
        <time>2021-07-25T11:13:17Z</time>
      </trkpt>
      <trkpt lat="43.83042" lon="5.78409">
        <ele>373</ele>
        <time>2021-07-25T11:13:20Z</time>
      </trkpt>
      <trkpt lat="43.83053" lon="5.78447">
        <ele>374</ele>
        <time>2021-07-25T11:13:25Z</time>
      </trkpt>
      <trkpt lat="43.83054" lon="5.78453">
        <ele>374</ele>
        <time>2021-07-25T11:13:26Z</time>
      </trkpt>
      <trkpt lat="43.83056" lon="5.78457">
        <ele>374</ele>
        <time>2021-07-25T11:13:26Z</time>
      </trkpt>
      <trkpt lat="43.83056" lon="5.78464">
        <ele>374</ele>
        <time>2021-07-25T11:13:27Z</time>
      </trkpt>
      <trkpt lat="43.83056" lon="5.78465">
        <ele>374</ele>
        <time>2021-07-25T11:13:28Z</time>
      </trkpt>
      <trkpt lat="43.83056" lon="5.78468">
        <ele>374</ele>
        <time>2021-07-25T11:13:28Z</time>
      </trkpt>
      <trkpt lat="43.83056" lon="5.78469">
        <ele>374</ele>
        <time>2021-07-25T11:13:28Z</time>
      </trkpt>
      <trkpt lat="43.83054" lon="5.78473">
        <ele>373</ele>
        <time>2021-07-25T11:13:29Z</time>
      </trkpt>
      <trkpt lat="43.83049" lon="5.78479">
        <ele>373</ele>
        <time>2021-07-25T11:13:30Z</time>
      </trkpt>
      <trkpt lat="43.83047" lon="5.78481">
        <ele>373</ele>
        <time>2021-07-25T11:13:30Z</time>
      </trkpt>
      <trkpt lat="43.83043" lon="5.78484">
        <ele>373</ele>
        <time>2021-07-25T11:13:31Z</time>
      </trkpt>
      <trkpt lat="43.83039" lon="5.78487">
        <ele>373</ele>
        <time>2021-07-25T11:13:32Z</time>
      </trkpt>
      <trkpt lat="43.83027" lon="5.78495">
        <ele>373</ele>
        <time>2021-07-25T11:13:34Z</time>
      </trkpt>
      <trkpt lat="43.83008" lon="5.78506">
        <ele>373</ele>
        <time>2021-07-25T11:13:38Z</time>
      </trkpt>
      <trkpt lat="43.82998" lon="5.78513">
        <ele>372</ele>
        <time>2021-07-25T11:13:40Z</time>
      </trkpt>
      <trkpt lat="43.82981" lon="5.78523">
        <ele>371</ele>
        <time>2021-07-25T11:13:43Z</time>
      </trkpt>
      <trkpt lat="43.82969" lon="5.7853">
        <ele>370</ele>
        <time>2021-07-25T11:13:46Z</time>
      </trkpt>
      <trkpt lat="43.82964" lon="5.78534">
        <ele>370</ele>
        <time>2021-07-25T11:13:47Z</time>
      </trkpt>
      <trkpt lat="43.82957" lon="5.78539">
        <ele>370</ele>
        <time>2021-07-25T11:13:48Z</time>
      </trkpt>
      <trkpt lat="43.8295" lon="5.78543">
        <ele>369</ele>
        <time>2021-07-25T11:13:49Z</time>
      </trkpt>
      <trkpt lat="43.82921" lon="5.7856">
        <ele>368</ele>
        <time>2021-07-25T11:13:55Z</time>
      </trkpt>
      <trkpt lat="43.82908" lon="5.78568">
        <ele>367</ele>
        <time>2021-07-25T11:13:57Z</time>
      </trkpt>
      <trkpt lat="43.82857" lon="5.78599">
        <ele>364</ele>
        <time>2021-07-25T11:14:07Z</time>
      </trkpt>
      <trkpt lat="43.8282" lon="5.78622">
        <ele>362</ele>
        <time>2021-07-25T11:14:15Z</time>
      </trkpt>
      <trkpt lat="43.82807" lon="5.7863">
        <ele>361</ele>
        <time>2021-07-25T11:14:17Z</time>
      </trkpt>
      <trkpt lat="43.82806" lon="5.78631">
        <ele>361</ele>
        <time>2021-07-25T11:14:17Z</time>
      </trkpt>
      <trkpt lat="43.82804" lon="5.78633">
        <ele>361</ele>
        <time>2021-07-25T11:14:18Z</time>
      </trkpt>
      <trkpt lat="43.82794" lon="5.78639">
        <ele>361</ele>
        <time>2021-07-25T11:14:20Z</time>
      </trkpt>
      <trkpt lat="43.8279" lon="5.78641">
        <ele>361</ele>
        <time>2021-07-25T11:14:20Z</time>
      </trkpt>
      <trkpt lat="43.82783" lon="5.78645">
        <ele>360</ele>
        <time>2021-07-25T11:14:22Z</time>
      </trkpt>
      <trkpt lat="43.82776" lon="5.7865">
        <ele>360</ele>
        <time>2021-07-25T11:14:23Z</time>
      </trkpt>
      <trkpt lat="43.82774" lon="5.78651">
        <ele>360</ele>
        <time>2021-07-25T11:14:24Z</time>
      </trkpt>
      <trkpt lat="43.82766" lon="5.78655">
        <ele>360</ele>
        <time>2021-07-25T11:14:25Z</time>
      </trkpt>
      <trkpt lat="43.82719" lon="5.78685">
        <ele>357</ele>
        <time>2021-07-25T11:14:34Z</time>
      </trkpt>
      <trkpt lat="43.82701" lon="5.78697">
        <ele>355</ele>
        <time>2021-07-25T11:14:38Z</time>
      </trkpt>
      <trkpt lat="43.82687" lon="5.78705">
        <ele>354</ele>
        <time>2021-07-25T11:14:41Z</time>
      </trkpt>
      <trkpt lat="43.8266" lon="5.78722">
        <ele>352</ele>
        <time>2021-07-25T11:14:46Z</time>
      </trkpt>
      <trkpt lat="43.82633" lon="5.78738">
        <ele>349</ele>
        <time>2021-07-25T11:14:51Z</time>
      </trkpt>
      <trkpt lat="43.82601" lon="5.78758">
        <ele>346</ele>
        <time>2021-07-25T11:14:57Z</time>
      </trkpt>
      <trkpt lat="43.82582" lon="5.78764">
        <ele>344</ele>
        <time>2021-07-25T11:15:01Z</time>
      </trkpt>
      <trkpt lat="43.82577" lon="5.78765">
        <ele>344</ele>
        <time>2021-07-25T11:15:02Z</time>
      </trkpt>
      <trkpt lat="43.82568" lon="5.78766">
        <ele>343</ele>
        <time>2021-07-25T11:15:03Z</time>
      </trkpt>
      <trkpt lat="43.8256" lon="5.78764">
        <ele>342</ele>
        <time>2021-07-25T11:15:05Z</time>
      </trkpt>
      <trkpt lat="43.82556" lon="5.78761">
        <ele>342</ele>
        <time>2021-07-25T11:15:06Z</time>
      </trkpt>
      <trkpt lat="43.82548" lon="5.78761">
        <ele>341</ele>
        <time>2021-07-25T11:15:07Z</time>
      </trkpt>
      <trkpt lat="43.82544" lon="5.78763">
        <ele>341</ele>
        <time>2021-07-25T11:15:08Z</time>
      </trkpt>
      <trkpt lat="43.82541" lon="5.78767">
        <ele>341</ele>
        <time>2021-07-25T11:15:08Z</time>
      </trkpt>
      <trkpt lat="43.82537" lon="5.78777">
        <ele>340</ele>
        <time>2021-07-25T11:15:10Z</time>
      </trkpt>
      <trkpt lat="43.82537" lon="5.78783">
        <ele>340</ele>
        <time>2021-07-25T11:15:11Z</time>
      </trkpt>
      <trkpt lat="43.82538" lon="5.78785">
        <ele>341</ele>
        <time>2021-07-25T11:15:11Z</time>
      </trkpt>
      <trkpt lat="43.82538" lon="5.78787">
        <ele>341</ele>
        <time>2021-07-25T11:15:11Z</time>
      </trkpt>
      <trkpt lat="43.82539" lon="5.78797">
        <ele>341</ele>
        <time>2021-07-25T11:15:13Z</time>
      </trkpt>
      <trkpt lat="43.82539" lon="5.78805">
        <ele>341</ele>
        <time>2021-07-25T11:15:14Z</time>
      </trkpt>
      <trkpt lat="43.82539" lon="5.78815">
        <ele>341</ele>
        <time>2021-07-25T11:15:15Z</time>
      </trkpt>
      <trkpt lat="43.82532" lon="5.78833">
        <ele>340</ele>
        <time>2021-07-25T11:15:17Z</time>
      </trkpt>
      <trkpt lat="43.82531" lon="5.78835">
        <ele>340</ele>
        <time>2021-07-25T11:15:18Z</time>
      </trkpt>
      <trkpt lat="43.82524" lon="5.78846">
        <ele>340</ele>
        <time>2021-07-25T11:15:20Z</time>
      </trkpt>
      <trkpt lat="43.82519" lon="5.78852">
        <ele>340</ele>
        <time>2021-07-25T11:15:21Z</time>
      </trkpt>
      <trkpt lat="43.8251" lon="5.78863">
        <ele>339</ele>
        <time>2021-07-25T11:15:23Z</time>
      </trkpt>
      <trkpt lat="43.82484" lon="5.78898">
        <ele>339</ele>
        <time>2021-07-25T11:15:29Z</time>
      </trkpt>
      <trkpt lat="43.8247" lon="5.78917">
        <ele>338</ele>
        <time>2021-07-25T11:15:33Z</time>
      </trkpt>
      <trkpt lat="43.82452" lon="5.7894">
        <ele>336</ele>
        <time>2021-07-25T11:15:37Z</time>
      </trkpt>
      <trkpt lat="43.82416" lon="5.78987">
        <ele>333</ele>
        <time>2021-07-25T11:15:46Z</time>
      </trkpt>
      <trkpt lat="43.82366" lon="5.79053">
        <ele>332</ele>
        <time>2021-07-25T11:15:58Z</time>
      </trkpt>
      <trkpt lat="43.8234" lon="5.79089">
        <ele>331</ele>
        <time>2021-07-25T11:16:05Z</time>
      </trkpt>
      <trkpt lat="43.82332" lon="5.79095">
        <ele>331</ele>
        <time>2021-07-25T11:16:07Z</time>
      </trkpt>
      <trkpt lat="43.82325" lon="5.79105">
        <ele>331</ele>
        <time>2021-07-25T11:16:08Z</time>
      </trkpt>
      <trkpt lat="43.82314" lon="5.79117">
        <ele>330</ele>
        <time>2021-07-25T11:16:11Z</time>
      </trkpt>
      <trkpt lat="43.82301" lon="5.79127">
        <ele>330</ele>
        <time>2021-07-25T11:16:13Z</time>
      </trkpt>
      <trkpt lat="43.82291" lon="5.79133">
        <ele>330</ele>
        <time>2021-07-25T11:16:15Z</time>
      </trkpt>
      <trkpt lat="43.82279" lon="5.79142">
        <ele>329</ele>
        <time>2021-07-25T11:16:18Z</time>
      </trkpt>
      <trkpt lat="43.82272" lon="5.79152">
        <ele>329</ele>
        <time>2021-07-25T11:16:20Z</time>
      </trkpt>
      <trkpt lat="43.82268" lon="5.79155">
        <ele>329</ele>
        <time>2021-07-25T11:16:20Z</time>
      </trkpt>
      <trkpt lat="43.82262" lon="5.79158">
        <ele>328</ele>
        <time>2021-07-25T11:16:22Z</time>
      </trkpt>
      <trkpt lat="43.82259" lon="5.79156">
        <ele>328</ele>
        <time>2021-07-25T11:16:22Z</time>
      </trkpt>
      <trkpt lat="43.82254" lon="5.79156">
        <ele>328</ele>
        <time>2021-07-25T11:16:23Z</time>
      </trkpt>
      <trkpt lat="43.82249" lon="5.79157">
        <ele>328</ele>
        <time>2021-07-25T11:16:24Z</time>
      </trkpt>
      <trkpt lat="43.82245" lon="5.7916">
        <ele>328</ele>
        <time>2021-07-25T11:16:25Z</time>
      </trkpt>
      <trkpt lat="43.82242" lon="5.79162">
        <ele>328</ele>
        <time>2021-07-25T11:16:25Z</time>
      </trkpt>
      <trkpt lat="43.8224" lon="5.79165">
        <ele>328</ele>
        <time>2021-07-25T11:16:26Z</time>
      </trkpt>
      <trkpt lat="43.82234" lon="5.79166">
        <ele>328</ele>
        <time>2021-07-25T11:16:27Z</time>
      </trkpt>
      <trkpt lat="43.82228" lon="5.79168">
        <ele>328</ele>
        <time>2021-07-25T11:16:28Z</time>
      </trkpt>
      <trkpt lat="43.82213" lon="5.79177">
        <ele>327</ele>
        <time>2021-07-25T11:16:31Z</time>
      </trkpt>
      <trkpt lat="43.82209" lon="5.79178">
        <ele>327</ele>
        <time>2021-07-25T11:16:32Z</time>
      </trkpt>
      <trkpt lat="43.82203" lon="5.79181">
        <ele>327</ele>
        <time>2021-07-25T11:16:33Z</time>
      </trkpt>
      <trkpt lat="43.82194" lon="5.79187">
        <ele>327</ele>
        <time>2021-07-25T11:16:35Z</time>
      </trkpt>
      <trkpt lat="43.82191" lon="5.79189">
        <ele>327</ele>
        <time>2021-07-25T11:16:35Z</time>
      </trkpt>
      <trkpt lat="43.82177" lon="5.792">
        <ele>327</ele>
        <time>2021-07-25T11:16:38Z</time>
      </trkpt>
      <trkpt lat="43.82176" lon="5.79201">
        <ele>327</ele>
        <time>2021-07-25T11:16:38Z</time>
      </trkpt>
      <trkpt lat="43.82161" lon="5.79214">
        <ele>327</ele>
        <time>2021-07-25T11:16:41Z</time>
      </trkpt>
      <trkpt lat="43.8216" lon="5.79215">
        <ele>327</ele>
        <time>2021-07-25T11:16:42Z</time>
      </trkpt>
      <trkpt lat="43.82142" lon="5.79233">
        <ele>326</ele>
        <time>2021-07-25T11:16:46Z</time>
      </trkpt>
      <trkpt lat="43.82122" lon="5.79256">
        <ele>325</ele>
        <time>2021-07-25T11:16:50Z</time>
      </trkpt>
      <trkpt lat="43.82096" lon="5.79285">
        <ele>324</ele>
        <time>2021-07-25T11:16:56Z</time>
      </trkpt>
      <trkpt lat="43.82079" lon="5.79304">
        <ele>323</ele>
        <time>2021-07-25T11:17:00Z</time>
      </trkpt>
      <trkpt lat="43.82057" lon="5.7933">
        <ele>323</ele>
        <time>2021-07-25T11:17:05Z</time>
      </trkpt>
      <trkpt lat="43.82036" lon="5.79357">
        <ele>322</ele>
        <time>2021-07-25T11:17:10Z</time>
      </trkpt>
      <trkpt lat="43.82034" lon="5.7936">
        <ele>322</ele>
        <time>2021-07-25T11:17:11Z</time>
      </trkpt>
      <trkpt lat="43.82028" lon="5.79371">
        <ele>322</ele>
        <time>2021-07-25T11:17:13Z</time>
      </trkpt>
      <trkpt lat="43.82012" lon="5.79396">
        <ele>322</ele>
        <time>2021-07-25T11:17:17Z</time>
      </trkpt>
      <trkpt lat="43.82009" lon="5.79404">
        <ele>321</ele>
        <time>2021-07-25T11:17:18Z</time>
      </trkpt>
      <trkpt lat="43.81999" lon="5.79422">
        <ele>321</ele>
        <time>2021-07-25T11:17:21Z</time>
      </trkpt>
      <trkpt lat="43.81995" lon="5.79423">
        <ele>321</ele>
        <time>2021-07-25T11:17:22Z</time>
      </trkpt>
      <trkpt lat="43.81991" lon="5.79426">
        <ele>321</ele>
        <time>2021-07-25T11:17:22Z</time>
      </trkpt>
      <trkpt lat="43.81988" lon="5.79431">
        <ele>320</ele>
        <time>2021-07-25T11:17:23Z</time>
      </trkpt>
      <trkpt lat="43.81986" lon="5.79443">
        <ele>320</ele>
        <time>2021-07-25T11:17:25Z</time>
      </trkpt>
      <trkpt lat="43.81986" lon="5.79449">
        <ele>320</ele>
        <time>2021-07-25T11:17:26Z</time>
      </trkpt>
      <trkpt lat="43.81982" lon="5.79461">
        <ele>320</ele>
        <time>2021-07-25T11:17:27Z</time>
      </trkpt>
      <trkpt lat="43.81979" lon="5.79466">
        <ele>320</ele>
        <time>2021-07-25T11:17:28Z</time>
      </trkpt>
      <trkpt lat="43.81976" lon="5.79473">
        <ele>319</ele>
        <time>2021-07-25T11:17:29Z</time>
      </trkpt>
      <trkpt lat="43.8197" lon="5.79483">
        <ele>319</ele>
        <time>2021-07-25T11:17:31Z</time>
      </trkpt>
      <trkpt lat="43.81967" lon="5.79488">
        <ele>319</ele>
        <time>2021-07-25T11:17:32Z</time>
      </trkpt>
      <trkpt lat="43.81925" lon="5.79558">
        <ele>318</ele>
        <time>2021-07-25T11:17:43Z</time>
      </trkpt>
      <trkpt lat="43.81916" lon="5.79574">
        <ele>318</ele>
        <time>2021-07-25T11:17:46Z</time>
      </trkpt>
      <trkpt lat="43.8191" lon="5.79584">
        <ele>318</ele>
        <time>2021-07-25T11:17:48Z</time>
      </trkpt>
      <trkpt lat="43.81903" lon="5.79596">
        <ele>318</ele>
        <time>2021-07-25T11:17:50Z</time>
      </trkpt>
      <trkpt lat="43.81882" lon="5.79627">
        <ele>317</ele>
        <time>2021-07-25T11:17:55Z</time>
      </trkpt>
      <trkpt lat="43.81879" lon="5.79634">
        <ele>317</ele>
        <time>2021-07-25T11:17:56Z</time>
      </trkpt>
      <trkpt lat="43.81834" lon="5.79709">
        <ele>317</ele>
        <time>2021-07-25T11:18:09Z</time>
      </trkpt>
      <trkpt lat="43.81769" lon="5.79815">
        <ele>317</ele>
        <time>2021-07-25T11:18:27Z</time>
      </trkpt>
      <trkpt lat="43.8176" lon="5.79824">
        <ele>317</ele>
        <time>2021-07-25T11:18:28Z</time>
      </trkpt>
      <trkpt lat="43.81754" lon="5.7983">
        <ele>317</ele>
        <time>2021-07-25T11:18:30Z</time>
      </trkpt>
      <trkpt lat="43.81746" lon="5.79835">
        <ele>317</ele>
        <time>2021-07-25T11:18:31Z</time>
      </trkpt>
      <trkpt lat="43.81741" lon="5.79835">
        <ele>317</ele>
        <time>2021-07-25T11:18:32Z</time>
      </trkpt>
      <trkpt lat="43.81732" lon="5.79841">
        <ele>316</ele>
        <time>2021-07-25T11:18:34Z</time>
      </trkpt>
      <trkpt lat="43.81729" lon="5.79846">
        <ele>316</ele>
        <time>2021-07-25T11:18:35Z</time>
      </trkpt>
      <trkpt lat="43.81727" lon="5.79852">
        <ele>316</ele>
        <time>2021-07-25T11:18:36Z</time>
      </trkpt>
      <trkpt lat="43.81727" lon="5.79857">
        <ele>316</ele>
        <time>2021-07-25T11:18:36Z</time>
      </trkpt>
      <trkpt lat="43.81724" lon="5.79868">
        <ele>316</ele>
        <time>2021-07-25T11:18:38Z</time>
      </trkpt>
      <trkpt lat="43.8172" lon="5.79877">
        <ele>315</ele>
        <time>2021-07-25T11:18:39Z</time>
      </trkpt>
      <trkpt lat="43.81719" lon="5.79875">
        <ele>315</ele>
        <time>2021-07-25T11:18:40Z</time>
      </trkpt>
      <trkpt lat="43.81714" lon="5.79887">
        <ele>315</ele>
        <time>2021-07-25T11:18:41Z</time>
      </trkpt>
      <trkpt lat="43.81705" lon="5.799">
        <ele>314</ele>
        <time>2021-07-25T11:18:44Z</time>
      </trkpt>
      <trkpt lat="43.81663" lon="5.7995">
        <ele>312</ele>
        <time>2021-07-25T11:18:53Z</time>
      </trkpt>
      <trkpt lat="43.81659" lon="5.79954">
        <ele>311</ele>
        <time>2021-07-25T11:18:54Z</time>
      </trkpt>
      <trkpt lat="43.81655" lon="5.79956">
        <ele>311</ele>
        <time>2021-07-25T11:18:55Z</time>
      </trkpt>
      <trkpt lat="43.81647" lon="5.79953">
        <ele>311</ele>
        <time>2021-07-25T11:18:57Z</time>
      </trkpt>
      <trkpt lat="43.81638" lon="5.79943">
        <ele>311</ele>
        <time>2021-07-25T11:18:59Z</time>
      </trkpt>
      <trkpt lat="43.81634" lon="5.79945">
        <ele>311</ele>
        <time>2021-07-25T11:18:59Z</time>
      </trkpt>
      <trkpt lat="43.81629" lon="5.79949">
        <ele>311</ele>
        <time>2021-07-25T11:19:00Z</time>
      </trkpt>
      <trkpt lat="43.81625" lon="5.79951">
        <ele>311</ele>
        <time>2021-07-25T11:19:01Z</time>
      </trkpt>
      <trkpt lat="43.81619" lon="5.79978">
        <ele>311</ele>
        <time>2021-07-25T11:19:05Z</time>
      </trkpt>
      <trkpt lat="43.81616" lon="5.79982">
        <ele>311</ele>
        <time>2021-07-25T11:19:06Z</time>
      </trkpt>
      <trkpt lat="43.81576" lon="5.80037">
        <ele>310</ele>
        <time>2021-07-25T11:19:16Z</time>
      </trkpt>
      <trkpt lat="43.8156" lon="5.80058">
        <ele>309</ele>
        <time>2021-07-25T11:19:20Z</time>
      </trkpt>
      <trkpt lat="43.81529" lon="5.80103">
        <ele>308</ele>
        <time>2021-07-25T11:19:27Z</time>
      </trkpt>
      <trkpt lat="43.81454" lon="5.80215">
        <ele>306</ele>
        <time>2021-07-25T11:19:47Z</time>
      </trkpt>
      <trkpt lat="43.81391" lon="5.80325">
        <ele>303</ele>
        <time>2021-07-25T11:20:05Z</time>
      </trkpt>
      <trkpt lat="43.81369" lon="5.80345">
        <ele>303</ele>
        <time>2021-07-25T11:20:10Z</time>
      </trkpt>
      <trkpt lat="43.81363" lon="5.80353">
        <ele>303</ele>
        <time>2021-07-25T11:20:11Z</time>
      </trkpt>
      <trkpt lat="43.81357" lon="5.8037">
        <ele>303</ele>
        <time>2021-07-25T11:20:14Z</time>
      </trkpt>
      <trkpt lat="43.81361" lon="5.80385">
        <ele>303</ele>
        <time>2021-07-25T11:20:16Z</time>
      </trkpt>
      <trkpt lat="43.81233" lon="5.80722">
        <ele>300</ele>
        <time>2021-07-25T11:21:05Z</time>
      </trkpt>
      <trkpt lat="43.81219" lon="5.80765">
        <ele>299</ele>
        <time>2021-07-25T11:21:11Z</time>
      </trkpt>
      <trkpt lat="43.81188" lon="5.80842">
        <ele>298</ele>
        <time>2021-07-25T11:21:22Z</time>
      </trkpt>
      <trkpt lat="43.81143" lon="5.80928">
        <ele>297</ele>
        <time>2021-07-25T11:21:36Z</time>
      </trkpt>
      <trkpt lat="43.81063" lon="5.811">
        <ele>295</ele>
        <time>2021-07-25T11:22:02Z</time>
      </trkpt>
      <trkpt lat="43.81047" lon="5.81131">
        <ele>295</ele>
        <time>2021-07-25T11:22:07Z</time>
      </trkpt>
      <trkpt lat="43.81033" lon="5.81147">
        <ele>295</ele>
        <time>2021-07-25T11:22:10Z</time>
      </trkpt>
      <trkpt lat="43.81019" lon="5.81161">
        <ele>295</ele>
        <time>2021-07-25T11:22:13Z</time>
      </trkpt>
      <trkpt lat="43.80999" lon="5.81166">
        <ele>295</ele>
        <time>2021-07-25T11:22:17Z</time>
      </trkpt>
      <trkpt lat="43.80983" lon="5.81162">
        <ele>295</ele>
        <time>2021-07-25T11:22:20Z</time>
      </trkpt>
      <trkpt lat="43.80979" lon="5.81156">
        <ele>294</ele>
        <time>2021-07-25T11:22:21Z</time>
      </trkpt>
      <trkpt lat="43.80974" lon="5.81158">
        <ele>294</ele>
        <time>2021-07-25T11:22:22Z</time>
      </trkpt>
      <trkpt lat="43.80964" lon="5.81165">
        <ele>294</ele>
        <time>2021-07-25T11:22:24Z</time>
      </trkpt>
      <trkpt lat="43.8096" lon="5.81168">
        <ele>294</ele>
        <time>2021-07-25T11:22:24Z</time>
      </trkpt>
      <trkpt lat="43.80956" lon="5.8118">
        <ele>294</ele>
        <time>2021-07-25T11:22:26Z</time>
      </trkpt>
      <trkpt lat="43.8095" lon="5.81186">
        <ele>294</ele>
        <time>2021-07-25T11:22:27Z</time>
      </trkpt>
      <trkpt lat="43.80942" lon="5.81189">
        <ele>294</ele>
        <time>2021-07-25T11:22:29Z</time>
      </trkpt>
      <trkpt lat="43.80941" lon="5.81217">
        <ele>295</ele>
        <time>2021-07-25T11:22:33Z</time>
      </trkpt>
      <trkpt lat="43.80946" lon="5.81221">
        <ele>295</ele>
        <time>2021-07-25T11:22:34Z</time>
      </trkpt>
      <trkpt lat="43.80968" lon="5.81261">
        <ele>296</ele>
        <time>2021-07-25T11:22:40Z</time>
      </trkpt>
      <trkpt lat="43.80967" lon="5.81268">
        <ele>296</ele>
        <time>2021-07-25T11:22:41Z</time>
      </trkpt>
      <trkpt lat="43.80963" lon="5.81281">
        <ele>296</ele>
        <time>2021-07-25T11:22:43Z</time>
      </trkpt>
      <trkpt lat="43.8096" lon="5.81287">
        <ele>296</ele>
        <time>2021-07-25T11:22:44Z</time>
      </trkpt>
      <trkpt lat="43.80942" lon="5.81324">
        <ele>295</ele>
        <time>2021-07-25T11:22:49Z</time>
      </trkpt>
      <trkpt lat="43.80886" lon="5.81439">
        <ele>295</ele>
        <time>2021-07-25T11:23:07Z</time>
      </trkpt>
      <trkpt lat="43.8088" lon="5.81442">
        <ele>295</ele>
        <time>2021-07-25T11:23:08Z</time>
      </trkpt>
      <trkpt lat="43.80869" lon="5.81462">
        <ele>294</ele>
        <time>2021-07-25T11:23:12Z</time>
      </trkpt>
      <trkpt lat="43.80863" lon="5.81473">
        <ele>294</ele>
        <time>2021-07-25T11:23:13Z</time>
      </trkpt>
      <trkpt lat="43.80861" lon="5.81479">
        <ele>294</ele>
        <time>2021-07-25T11:23:14Z</time>
      </trkpt>
      <trkpt lat="43.80861" lon="5.81485">
        <ele>294</ele>
        <time>2021-07-25T11:23:15Z</time>
      </trkpt>
      <trkpt lat="43.80848" lon="5.81515">
        <ele>294</ele>
        <time>2021-07-25T11:23:19Z</time>
      </trkpt>
      <trkpt lat="43.80783" lon="5.81634">
        <ele>294</ele>
        <time>2021-07-25T11:23:39Z</time>
      </trkpt>
      <trkpt lat="43.8076" lon="5.81683">
        <ele>294</ele>
        <time>2021-07-25T11:23:46Z</time>
      </trkpt>
      <trkpt lat="43.8073" lon="5.81748">
        <ele>294</ele>
        <time>2021-07-25T11:23:56Z</time>
      </trkpt>
      <trkpt lat="43.80711" lon="5.81789">
        <ele>294</ele>
        <time>2021-07-25T11:24:02Z</time>
      </trkpt>
      <trkpt lat="43.80673" lon="5.8189">
        <ele>294</ele>
        <time>2021-07-25T11:24:17Z</time>
      </trkpt>
      <trkpt lat="43.80668" lon="5.81902">
        <ele>295</ele>
        <time>2021-07-25T11:24:19Z</time>
      </trkpt>
      <trkpt lat="43.80667" lon="5.81904">
        <ele>295</ele>
        <time>2021-07-25T11:24:19Z</time>
      </trkpt>
      <trkpt lat="43.80661" lon="5.81912">
        <ele>295</ele>
        <time>2021-07-25T11:24:21Z</time>
      </trkpt>
      <trkpt lat="43.80654" lon="5.81915">
        <ele>295</ele>
        <time>2021-07-25T11:24:22Z</time>
      </trkpt>
      <trkpt lat="43.80647" lon="5.81916">
        <ele>294</ele>
        <time>2021-07-25T11:24:23Z</time>
      </trkpt>
      <trkpt lat="43.80638" lon="5.81914">
        <ele>294</ele>
        <time>2021-07-25T11:24:25Z</time>
      </trkpt>
      <trkpt lat="43.80638" lon="5.81916">
        <ele>294</ele>
        <time>2021-07-25T11:24:25Z</time>
      </trkpt>
      <trkpt lat="43.80633" lon="5.81929">
        <ele>294</ele>
        <time>2021-07-25T11:24:27Z</time>
      </trkpt>
      <trkpt lat="43.8063" lon="5.81936">
        <ele>294</ele>
        <time>2021-07-25T11:24:28Z</time>
      </trkpt>
      <trkpt lat="43.80633" lon="5.81944">
        <ele>294</ele>
        <time>2021-07-25T11:24:29Z</time>
      </trkpt>
      <trkpt lat="43.80636" lon="5.8197">
        <ele>294</ele>
        <time>2021-07-25T11:24:32Z</time>
      </trkpt>
      <trkpt lat="43.80635" lon="5.81978">
        <ele>294</ele>
        <time>2021-07-25T11:24:33Z</time>
      </trkpt>
      <trkpt lat="43.80634" lon="5.81986">
        <ele>294</ele>
        <time>2021-07-25T11:24:35Z</time>
      </trkpt>
      <trkpt lat="43.80621" lon="5.82023">
        <ele>295</ele>
        <time>2021-07-25T11:24:40Z</time>
      </trkpt>
      <trkpt lat="43.80612" lon="5.82048">
        <ele>294</ele>
        <time>2021-07-25T11:24:43Z</time>
      </trkpt>
      <trkpt lat="43.80607" lon="5.82059">
        <ele>294</ele>
        <time>2021-07-25T11:24:45Z</time>
      </trkpt>
      <trkpt lat="43.80574" lon="5.82141">
        <ele>296</ele>
        <time>2021-07-25T11:24:57Z</time>
      </trkpt>
      <trkpt lat="43.80547" lon="5.82222">
        <ele>296</ele>
        <time>2021-07-25T11:25:09Z</time>
      </trkpt>
      <trkpt lat="43.80541" lon="5.8224">
        <ele>296</ele>
        <time>2021-07-25T11:25:11Z</time>
      </trkpt>
      <trkpt lat="43.80524" lon="5.82297">
        <ele>294</ele>
        <time>2021-07-25T11:25:19Z</time>
      </trkpt>
      <trkpt lat="43.80516" lon="5.82321">
        <ele>294</ele>
        <time>2021-07-25T11:25:22Z</time>
      </trkpt>
      <trkpt lat="43.80502" lon="5.82363">
        <ele>292</ele>
        <time>2021-07-25T11:25:28Z</time>
      </trkpt>
      <trkpt lat="43.80457" lon="5.82475">
        <ele>289</ele>
        <time>2021-07-25T11:25:45Z</time>
      </trkpt>
      <trkpt lat="43.80409" lon="5.82565">
        <ele>292</ele>
        <time>2021-07-25T11:25:59Z</time>
      </trkpt>
      <trkpt lat="43.80386" lon="5.82603">
        <ele>293</ele>
        <time>2021-07-25T11:26:06Z</time>
      </trkpt>
      <trkpt lat="43.80334" lon="5.82695">
        <ele>295</ele>
        <time>2021-07-25T11:26:21Z</time>
      </trkpt>
      <trkpt lat="43.80256" lon="5.82855">
        <ele>293</ele>
        <time>2021-07-25T11:26:45Z</time>
      </trkpt>
      <trkpt lat="43.80059" lon="5.83283">
        <ele>295</ele>
        <time>2021-07-25T11:27:51Z</time>
      </trkpt>
      <trkpt lat="43.80051" lon="5.83295">
        <ele>294</ele>
        <time>2021-07-25T11:27:53Z</time>
      </trkpt>
      <trkpt lat="43.8004" lon="5.83303">
        <ele>294</ele>
        <time>2021-07-25T11:27:55Z</time>
      </trkpt>
      <trkpt lat="43.80031" lon="5.83304">
        <ele>294</ele>
        <time>2021-07-25T11:27:56Z</time>
      </trkpt>
      <trkpt lat="43.80026" lon="5.833">
        <ele>294</ele>
        <time>2021-07-25T11:27:57Z</time>
      </trkpt>
      <trkpt lat="43.80022" lon="5.83305">
        <ele>294</ele>
        <time>2021-07-25T11:27:58Z</time>
      </trkpt>
      <trkpt lat="43.80016" lon="5.83313">
        <ele>294</ele>
        <time>2021-07-25T11:28:00Z</time>
      </trkpt>
      <trkpt lat="43.80021" lon="5.83332">
        <ele>294</ele>
        <time>2021-07-25T11:28:03Z</time>
      </trkpt>
      <trkpt lat="43.80022" lon="5.8334">
        <ele>294</ele>
        <time>2021-07-25T11:28:04Z</time>
      </trkpt>
      <trkpt lat="43.80026" lon="5.83348">
        <ele>294</ele>
        <time>2021-07-25T11:28:05Z</time>
      </trkpt>
      <trkpt lat="43.80033" lon="5.83352">
        <ele>294</ele>
        <time>2021-07-25T11:28:06Z</time>
      </trkpt>
      <trkpt lat="43.80041" lon="5.83349">
        <ele>294</ele>
        <time>2021-07-25T11:28:08Z</time>
      </trkpt>
      <trkpt lat="43.8006" lon="5.83358">
        <ele>294</ele>
        <time>2021-07-25T11:28:11Z</time>
      </trkpt>
      <trkpt lat="43.8007" lon="5.83367">
        <ele>294</ele>
        <time>2021-07-25T11:28:13Z</time>
      </trkpt>
      <trkpt lat="43.80079" lon="5.83376">
        <ele>294</ele>
        <time>2021-07-25T11:28:15Z</time>
      </trkpt>
      <trkpt lat="43.80085" lon="5.83382">
        <ele>294</ele>
        <time>2021-07-25T11:28:17Z</time>
      </trkpt>
      <trkpt lat="43.801" lon="5.834">
        <ele>294</ele>
        <time>2021-07-25T11:28:20Z</time>
      </trkpt>
      <trkpt lat="43.80109" lon="5.83417">
        <ele>294</ele>
        <time>2021-07-25T11:28:23Z</time>
      </trkpt>
      <trkpt lat="43.80115" lon="5.83428">
        <ele>294</ele>
        <time>2021-07-25T11:28:25Z</time>
      </trkpt>
      <trkpt lat="43.8013" lon="5.83462">
        <ele>294</ele>
        <time>2021-07-25T11:28:30Z</time>
      </trkpt>
      <trkpt lat="43.80132" lon="5.83466">
        <ele>294</ele>
        <time>2021-07-25T11:28:30Z</time>
      </trkpt>
      <trkpt lat="43.80193" lon="5.83616">
        <ele>292</ele>
        <time>2021-07-25T11:28:52Z</time>
      </trkpt>
      <trkpt lat="43.80222" lon="5.83688">
        <ele>294</ele>
        <time>2021-07-25T11:29:03Z</time>
      </trkpt>
      <trkpt lat="43.80232" lon="5.83716">
        <ele>294</ele>
        <time>2021-07-25T11:29:07Z</time>
      </trkpt>
      <trkpt lat="43.80245" lon="5.83768">
        <ele>294</ele>
        <time>2021-07-25T11:29:14Z</time>
      </trkpt>
      <trkpt lat="43.80252" lon="5.83792">
        <ele>293</ele>
        <time>2021-07-25T11:29:17Z</time>
      </trkpt>
      <trkpt lat="43.80261" lon="5.83816">
        <ele>292</ele>
        <time>2021-07-25T11:29:21Z</time>
      </trkpt>
      <trkpt lat="43.8031" lon="5.83899">
        <ele>293</ele>
        <time>2021-07-25T11:29:35Z</time>
      </trkpt>
      <trkpt lat="43.80353" lon="5.84005">
        <ele>295</ele>
        <time>2021-07-25T11:29:50Z</time>
      </trkpt>
      <trkpt lat="43.80379" lon="5.84069">
        <ele>296</ele>
        <time>2021-07-25T11:30:00Z</time>
      </trkpt>
      <trkpt lat="43.80385" lon="5.84084">
        <ele>297</ele>
        <time>2021-07-25T11:30:02Z</time>
      </trkpt>
      <trkpt lat="43.804" lon="5.84126">
        <ele>298</ele>
        <time>2021-07-25T11:30:08Z</time>
      </trkpt>
      <trkpt lat="43.80408" lon="5.84148">
        <ele>299</ele>
        <time>2021-07-25T11:30:11Z</time>
      </trkpt>
      <trkpt lat="43.80422" lon="5.84174">
        <ele>300</ele>
        <time>2021-07-25T11:30:15Z</time>
      </trkpt>
      <trkpt lat="43.80431" lon="5.84185">
        <ele>301</ele>
        <time>2021-07-25T11:30:17Z</time>
      </trkpt>
      <trkpt lat="43.80441" lon="5.84193">
        <ele>301</ele>
        <time>2021-07-25T11:30:20Z</time>
      </trkpt>
      <trkpt lat="43.80451" lon="5.84198">
        <ele>302</ele>
        <time>2021-07-25T11:30:21Z</time>
      </trkpt>
      <trkpt lat="43.80462" lon="5.842">
        <ele>302</ele>
        <time>2021-07-25T11:30:23Z</time>
      </trkpt>
      <trkpt lat="43.80483" lon="5.84199">
        <ele>303</ele>
        <time>2021-07-25T11:30:27Z</time>
      </trkpt>
      <trkpt lat="43.80552" lon="5.84188">
        <ele>301</ele>
        <time>2021-07-25T11:30:39Z</time>
      </trkpt>
      <trkpt lat="43.80577" lon="5.84189">
        <ele>300</ele>
        <time>2021-07-25T11:30:44Z</time>
      </trkpt>
      <trkpt lat="43.8059" lon="5.84195">
        <ele>300</ele>
        <time>2021-07-25T11:30:46Z</time>
      </trkpt>
      <trkpt lat="43.80603" lon="5.84202">
        <ele>299</ele>
        <time>2021-07-25T11:30:49Z</time>
      </trkpt>
      <trkpt lat="43.80675" lon="5.84251">
        <ele>297</ele>
        <time>2021-07-25T11:31:03Z</time>
      </trkpt>
      <trkpt lat="43.80705" lon="5.84264">
        <ele>297</ele>
        <time>2021-07-25T11:31:09Z</time>
      </trkpt>
      <trkpt lat="43.80753" lon="5.84281">
        <ele>297</ele>
        <time>2021-07-25T11:31:18Z</time>
      </trkpt>
      <trkpt lat="43.80778" lon="5.84292">
        <ele>297</ele>
        <time>2021-07-25T11:31:22Z</time>
      </trkpt>
      <trkpt lat="43.80787" lon="5.84297">
        <ele>297</ele>
        <time>2021-07-25T11:31:24Z</time>
      </trkpt>
      <trkpt lat="43.80803" lon="5.84307">
        <ele>296</ele>
        <time>2021-07-25T11:31:27Z</time>
      </trkpt>
      <trkpt lat="43.80815" lon="5.84317">
        <ele>296</ele>
        <time>2021-07-25T11:31:30Z</time>
      </trkpt>
      <trkpt lat="43.80841" lon="5.84341">
        <ele>295</ele>
        <time>2021-07-25T11:31:35Z</time>
      </trkpt>
      <trkpt lat="43.80879" lon="5.84383">
        <ele>296</ele>
        <time>2021-07-25T11:31:44Z</time>
      </trkpt>
      <trkpt lat="43.80947" lon="5.84475">
        <ele>301</ele>
        <time>2021-07-25T11:32:01Z</time>
      </trkpt>
      <trkpt lat="43.80959" lon="5.84489">
        <ele>301</ele>
        <time>2021-07-25T11:32:03Z</time>
      </trkpt>
      <trkpt lat="43.80973" lon="5.84501">
        <ele>301</ele>
        <time>2021-07-25T11:32:06Z</time>
      </trkpt>
      <trkpt lat="43.80988" lon="5.8451">
        <ele>301</ele>
        <time>2021-07-25T11:32:09Z</time>
      </trkpt>
      <trkpt lat="43.81037" lon="5.84533">
        <ele>300</ele>
        <time>2021-07-25T11:32:18Z</time>
      </trkpt>
      <trkpt lat="43.81069" lon="5.84551">
        <ele>298</ele>
        <time>2021-07-25T11:32:25Z</time>
      </trkpt>
      <trkpt lat="43.81193" lon="5.84634">
        <ele>299</ele>
        <time>2021-07-25T11:32:49Z</time>
      </trkpt>
      <trkpt lat="43.8123" lon="5.84656">
        <ele>299</ele>
        <time>2021-07-25T11:32:56Z</time>
      </trkpt>
      <trkpt lat="43.81309" lon="5.84697">
        <ele>300</ele>
        <time>2021-07-25T11:33:11Z</time>
      </trkpt>
      <trkpt lat="43.81325" lon="5.84705">
        <ele>299</ele>
        <time>2021-07-25T11:33:14Z</time>
      </trkpt>
      <trkpt lat="43.81379" lon="5.84735">
        <ele>299</ele>
        <time>2021-07-25T11:33:25Z</time>
      </trkpt>
      <trkpt lat="43.81409" lon="5.84753">
        <ele>298</ele>
        <time>2021-07-25T11:33:31Z</time>
      </trkpt>
      <trkpt lat="43.81415" lon="5.84757">
        <ele>299</ele>
        <time>2021-07-25T11:33:32Z</time>
      </trkpt>
      <trkpt lat="43.81433" lon="5.8477">
        <ele>300</ele>
        <time>2021-07-25T11:33:35Z</time>
      </trkpt>
      <trkpt lat="43.81466" lon="5.84805">
        <ele>302</ele>
        <time>2021-07-25T11:33:43Z</time>
      </trkpt>
      <trkpt lat="43.81482" lon="5.84826">
        <ele>302</ele>
        <time>2021-07-25T11:33:47Z</time>
      </trkpt>
      <trkpt lat="43.81497" lon="5.84851">
        <ele>304</ele>
        <time>2021-07-25T11:33:51Z</time>
      </trkpt>
      <trkpt lat="43.81524" lon="5.84892">
        <ele>307</ele>
        <time>2021-07-25T11:33:58Z</time>
      </trkpt>
      <trkpt lat="43.81555" lon="5.84932">
        <ele>312</ele>
        <time>2021-07-25T11:34:05Z</time>
      </trkpt>
      <trkpt lat="43.81572" lon="5.84948">
        <ele>315</ele>
        <time>2021-07-25T11:34:09Z</time>
      </trkpt>
      <trkpt lat="43.8159" lon="5.84961">
        <ele>316</ele>
        <time>2021-07-25T11:34:13Z</time>
      </trkpt>
      <trkpt lat="43.81627" lon="5.84981">
        <ele>315</ele>
        <time>2021-07-25T11:34:20Z</time>
      </trkpt>
      <trkpt lat="43.81663" lon="5.84997">
        <ele>310</ele>
        <time>2021-07-25T11:34:27Z</time>
      </trkpt>
      <trkpt lat="43.8168" lon="5.85006">
        <ele>311</ele>
        <time>2021-07-25T11:34:30Z</time>
      </trkpt>
      <trkpt lat="43.81696" lon="5.85017">
        <ele>313</ele>
        <time>2021-07-25T11:34:33Z</time>
      </trkpt>
      <trkpt lat="43.81727" lon="5.85045">
        <ele>316</ele>
        <time>2021-07-25T11:34:40Z</time>
      </trkpt>
      <trkpt lat="43.81775" lon="5.85097">
        <ele>320</ele>
        <time>2021-07-25T11:34:50Z</time>
      </trkpt>
      <trkpt lat="43.81786" lon="5.85104">
        <ele>319</ele>
        <time>2021-07-25T11:34:53Z</time>
      </trkpt>
      <trkpt lat="43.81798" lon="5.85107">
        <ele>318</ele>
        <time>2021-07-25T11:34:55Z</time>
      </trkpt>
      <trkpt lat="43.8181" lon="5.85105">
        <ele>315</ele>
        <time>2021-07-25T11:34:57Z</time>
      </trkpt>
      <trkpt lat="43.81851" lon="5.85092">
        <ele>310</ele>
        <time>2021-07-25T11:35:04Z</time>
      </trkpt>
      <trkpt lat="43.81866" lon="5.85089">
        <ele>309</ele>
        <time>2021-07-25T11:35:07Z</time>
      </trkpt>
      <trkpt lat="43.81881" lon="5.85089">
        <ele>309</ele>
        <time>2021-07-25T11:35:10Z</time>
      </trkpt>
      <trkpt lat="43.81896" lon="5.85093">
        <ele>308</ele>
        <time>2021-07-25T11:35:12Z</time>
      </trkpt>
      <trkpt lat="43.81909" lon="5.85101">
        <ele>308</ele>
        <time>2021-07-25T11:35:15Z</time>
      </trkpt>
      <trkpt lat="43.81921" lon="5.85111">
        <ele>308</ele>
        <time>2021-07-25T11:35:17Z</time>
      </trkpt>
      <trkpt lat="43.81932" lon="5.85126">
        <ele>308</ele>
        <time>2021-07-25T11:35:20Z</time>
      </trkpt>
      <trkpt lat="43.8194" lon="5.85143">
        <ele>308</ele>
        <time>2021-07-25T11:35:23Z</time>
      </trkpt>
      <trkpt lat="43.81944" lon="5.85161">
        <ele>308</ele>
        <time>2021-07-25T11:35:25Z</time>
      </trkpt>
      <trkpt lat="43.81944" lon="5.85178">
        <ele>310</ele>
        <time>2021-07-25T11:35:27Z</time>
      </trkpt>
      <trkpt lat="43.81939" lon="5.85223">
        <ele>316</ele>
        <time>2021-07-25T11:35:33Z</time>
      </trkpt>
      <trkpt lat="43.81942" lon="5.85236">
        <ele>317</ele>
        <time>2021-07-25T11:35:35Z</time>
      </trkpt>
      <trkpt lat="43.81948" lon="5.85247">
        <ele>318</ele>
        <time>2021-07-25T11:35:37Z</time>
      </trkpt>
      <trkpt lat="43.81957" lon="5.85256">
        <ele>319</ele>
        <time>2021-07-25T11:35:39Z</time>
      </trkpt>
      <trkpt lat="43.81969" lon="5.85263">
        <ele>320</ele>
        <time>2021-07-25T11:35:41Z</time>
      </trkpt>
      <trkpt lat="43.81996" lon="5.85271">
        <ele>319</ele>
        <time>2021-07-25T11:35:46Z</time>
      </trkpt>
      <trkpt lat="43.82036" lon="5.85273">
        <ele>315</ele>
        <time>2021-07-25T11:35:53Z</time>
      </trkpt>
      <trkpt lat="43.82049" lon="5.85277">
        <ele>315</ele>
        <time>2021-07-25T11:35:55Z</time>
      </trkpt>
      <trkpt lat="43.82087" lon="5.853">
        <ele>316</ele>
        <time>2021-07-25T11:36:03Z</time>
      </trkpt>
      <trkpt lat="43.821" lon="5.85306">
        <ele>316</ele>
        <time>2021-07-25T11:36:05Z</time>
      </trkpt>
      <trkpt lat="43.82114" lon="5.85312">
        <ele>316</ele>
        <time>2021-07-25T11:36:08Z</time>
      </trkpt>
      <trkpt lat="43.82124" lon="5.85315">
        <ele>316</ele>
        <time>2021-07-25T11:36:10Z</time>
      </trkpt>
      <trkpt lat="43.82135" lon="5.85319">
        <ele>315</ele>
        <time>2021-07-25T11:36:12Z</time>
      </trkpt>
      <trkpt lat="43.82169" lon="5.85329">
        <ele>313</ele>
        <time>2021-07-25T11:36:18Z</time>
      </trkpt>
      <trkpt lat="43.822" lon="5.85343">
        <ele>313</ele>
        <time>2021-07-25T11:36:24Z</time>
      </trkpt>
      <trkpt lat="43.82229" lon="5.85362">
        <ele>314</ele>
        <time>2021-07-25T11:36:29Z</time>
      </trkpt>
      <trkpt lat="43.82233" lon="5.85365">
        <ele>315</ele>
        <time>2021-07-25T11:36:30Z</time>
      </trkpt>
      <trkpt lat="43.82268" lon="5.85385">
        <ele>315</ele>
        <time>2021-07-25T11:36:37Z</time>
      </trkpt>
      <trkpt lat="43.82301" lon="5.85403">
        <ele>314</ele>
        <time>2021-07-25T11:36:43Z</time>
      </trkpt>
      <trkpt lat="43.82332" lon="5.85423">
        <ele>314</ele>
        <time>2021-07-25T11:36:49Z</time>
      </trkpt>
      <trkpt lat="43.82357" lon="5.8544">
        <ele>317</ele>
        <time>2021-07-25T11:36:54Z</time>
      </trkpt>
      <trkpt lat="43.82373" lon="5.8545">
        <ele>318</ele>
        <time>2021-07-25T11:36:57Z</time>
      </trkpt>
      <trkpt lat="43.82393" lon="5.85458">
        <ele>317</ele>
        <time>2021-07-25T11:37:01Z</time>
      </trkpt>
      <trkpt lat="43.82403" lon="5.85458">
        <ele>316</ele>
        <time>2021-07-25T11:37:03Z</time>
      </trkpt>
      <trkpt lat="43.82445" lon="5.85445">
        <ele>311</ele>
        <time>2021-07-25T11:37:11Z</time>
      </trkpt>
      <trkpt lat="43.82466" lon="5.85446">
        <ele>311</ele>
        <time>2021-07-25T11:37:14Z</time>
      </trkpt>
      <trkpt lat="43.82476" lon="5.8545">
        <ele>311</ele>
        <time>2021-07-25T11:37:16Z</time>
      </trkpt>
      <trkpt lat="43.82485" lon="5.85457">
        <ele>311</ele>
        <time>2021-07-25T11:37:18Z</time>
      </trkpt>
      <trkpt lat="43.825" lon="5.85477">
        <ele>312</ele>
        <time>2021-07-25T11:37:22Z</time>
      </trkpt>
      <trkpt lat="43.82506" lon="5.85491">
        <ele>313</ele>
        <time>2021-07-25T11:37:24Z</time>
      </trkpt>
      <trkpt lat="43.82524" lon="5.85537">
        <ele>319</ele>
        <time>2021-07-25T11:37:30Z</time>
      </trkpt>
      <trkpt lat="43.82532" lon="5.85551">
        <ele>320</ele>
        <time>2021-07-25T11:37:33Z</time>
      </trkpt>
      <trkpt lat="43.82542" lon="5.85562">
        <ele>320</ele>
        <time>2021-07-25T11:37:35Z</time>
      </trkpt>
      <trkpt lat="43.82567" lon="5.85578">
        <ele>319</ele>
        <time>2021-07-25T11:37:40Z</time>
      </trkpt>
      <trkpt lat="43.82595" lon="5.85591">
        <ele>317</ele>
        <time>2021-07-25T11:37:45Z</time>
      </trkpt>
      <trkpt lat="43.82623" lon="5.85601">
        <ele>316</ele>
        <time>2021-07-25T11:37:50Z</time>
      </trkpt>
      <trkpt lat="43.82673" lon="5.85617">
        <ele>313</ele>
        <time>2021-07-25T11:37:59Z</time>
      </trkpt>
      <trkpt lat="43.82692" lon="5.85622">
        <ele>313</ele>
        <time>2021-07-25T11:38:03Z</time>
      </trkpt>
      <trkpt lat="43.82703" lon="5.85628">
        <ele>313</ele>
        <time>2021-07-25T11:38:05Z</time>
      </trkpt>
      <trkpt lat="43.82713" lon="5.85637">
        <ele>313</ele>
        <time>2021-07-25T11:38:07Z</time>
      </trkpt>
      <trkpt lat="43.8272" lon="5.85648">
        <ele>314</ele>
        <time>2021-07-25T11:38:09Z</time>
      </trkpt>
      <trkpt lat="43.82726" lon="5.85661">
        <ele>314</ele>
        <time>2021-07-25T11:38:11Z</time>
      </trkpt>
      <trkpt lat="43.82738" lon="5.85719">
        <ele>318</ele>
        <time>2021-07-25T11:38:19Z</time>
      </trkpt>
      <trkpt lat="43.82742" lon="5.85733">
        <ele>319</ele>
        <time>2021-07-25T11:38:21Z</time>
      </trkpt>
      <trkpt lat="43.82748" lon="5.85745">
        <ele>320</ele>
        <time>2021-07-25T11:38:23Z</time>
      </trkpt>
      <trkpt lat="43.82755" lon="5.85754">
        <ele>320</ele>
        <time>2021-07-25T11:38:24Z</time>
      </trkpt>
      <trkpt lat="43.82757" lon="5.85756">
        <ele>321</ele>
        <time>2021-07-25T11:38:25Z</time>
      </trkpt>
      <trkpt lat="43.82772" lon="5.85764">
        <ele>322</ele>
        <time>2021-07-25T11:38:28Z</time>
      </trkpt>
      <trkpt lat="43.82781" lon="5.85775">
        <ele>323</ele>
        <time>2021-07-25T11:38:30Z</time>
      </trkpt>
      <trkpt lat="43.82789" lon="5.8579">
        <ele>324</ele>
        <time>2021-07-25T11:38:32Z</time>
      </trkpt>
      <trkpt lat="43.82821" lon="5.85905">
        <ele>330</ele>
        <time>2021-07-25T11:38:48Z</time>
      </trkpt>
      <trkpt lat="43.82837" lon="5.85971">
        <ele>331</ele>
        <time>2021-07-25T11:38:57Z</time>
      </trkpt>
      <trkpt lat="43.82847" lon="5.86028">
        <ele>333</ele>
        <time>2021-07-25T11:39:04Z</time>
      </trkpt>
      <trkpt lat="43.82853" lon="5.86091">
        <ele>334</ele>
        <time>2021-07-25T11:39:13Z</time>
      </trkpt>
      <trkpt lat="43.82858" lon="5.86138">
        <ele>338</ele>
        <time>2021-07-25T11:39:19Z</time>
      </trkpt>
      <trkpt lat="43.82861" lon="5.86206">
        <ele>342</ele>
        <time>2021-07-25T11:39:27Z</time>
      </trkpt>
      <trkpt lat="43.82863" lon="5.86253">
        <ele>345</ele>
        <time>2021-07-25T11:39:33Z</time>
      </trkpt>
      <trkpt lat="43.82871" lon="5.8636">
        <ele>352</ele>
        <time>2021-07-25T11:39:47Z</time>
      </trkpt>
      <trkpt lat="43.82868" lon="5.86404">
        <ele>351</ele>
        <time>2021-07-25T11:39:53Z</time>
      </trkpt>
      <trkpt lat="43.82869" lon="5.86415">
        <ele>352</ele>
        <time>2021-07-25T11:39:54Z</time>
      </trkpt>
      <trkpt lat="43.82874" lon="5.86421">
        <ele>353</ele>
        <time>2021-07-25T11:39:55Z</time>
      </trkpt>
      <trkpt lat="43.8288" lon="5.86421">
        <ele>355</ele>
        <time>2021-07-25T11:39:57Z</time>
      </trkpt>
      <trkpt lat="43.82886" lon="5.86414">
        <ele>357</ele>
        <time>2021-07-25T11:39:58Z</time>
      </trkpt>
      <trkpt lat="43.82888" lon="5.86404">
        <ele>358</ele>
        <time>2021-07-25T11:39:59Z</time>
      </trkpt>
      <trkpt lat="43.82892" lon="5.86363">
        <ele>358</ele>
        <time>2021-07-25T11:40:05Z</time>
      </trkpt>
      <trkpt lat="43.82906" lon="5.86317">
        <ele>360</ele>
        <time>2021-07-25T11:40:11Z</time>
      </trkpt>
      <trkpt lat="43.82924" lon="5.86271">
        <ele>361</ele>
        <time>2021-07-25T11:40:18Z</time>
      </trkpt>
      <trkpt lat="43.82937" lon="5.86225">
        <ele>361</ele>
        <time>2021-07-25T11:40:24Z</time>
      </trkpt>
      <trkpt lat="43.82961" lon="5.86127">
        <ele>360</ele>
        <time>2021-07-25T11:40:37Z</time>
      </trkpt>
      <trkpt lat="43.82966" lon="5.8612">
        <ele>361</ele>
        <time>2021-07-25T11:40:39Z</time>
      </trkpt>
      <trkpt lat="43.82973" lon="5.86116">
        <ele>362</ele>
        <time>2021-07-25T11:40:40Z</time>
      </trkpt>
      <trkpt lat="43.82976" lon="5.86116">
        <ele>363</ele>
        <time>2021-07-25T11:40:41Z</time>
      </trkpt>
      <trkpt lat="43.8298" lon="5.86116">
        <ele>363</ele>
        <time>2021-07-25T11:40:41Z</time>
      </trkpt>
      <trkpt lat="43.83" lon="5.86127">
        <ele>369</ele>
        <time>2021-07-25T11:40:45Z</time>
      </trkpt>
      <trkpt lat="43.83022" lon="5.86149">
        <ele>369</ele>
        <time>2021-07-25T11:40:50Z</time>
      </trkpt>
      <trkpt lat="43.83036" lon="5.86163">
        <ele>370</ele>
        <time>2021-07-25T11:40:53Z</time>
      </trkpt>
      <trkpt lat="43.83127" lon="5.86262">
        <ele>374</ele>
        <time>2021-07-25T11:41:14Z</time>
      </trkpt>
      <trkpt lat="43.83133" lon="5.86273">
        <ele>374</ele>
        <time>2021-07-25T11:41:15Z</time>
      </trkpt>
      <trkpt lat="43.83143" lon="5.86298">
        <ele>374</ele>
        <time>2021-07-25T11:41:19Z</time>
      </trkpt>
      <trkpt lat="43.8315" lon="5.86311">
        <ele>374</ele>
        <time>2021-07-25T11:41:21Z</time>
      </trkpt>
      <trkpt lat="43.83158" lon="5.86321">
        <ele>374</ele>
        <time>2021-07-25T11:41:23Z</time>
      </trkpt>
      <trkpt lat="43.83175" lon="5.86333">
        <ele>372</ele>
        <time>2021-07-25T11:41:26Z</time>
      </trkpt>
      <trkpt lat="43.832" lon="5.86345">
        <ele>371</ele>
        <time>2021-07-25T11:41:31Z</time>
      </trkpt>
      <trkpt lat="43.8322" lon="5.86363">
        <ele>371</ele>
        <time>2021-07-25T11:41:35Z</time>
      </trkpt>
      <trkpt lat="43.83237" lon="5.86386">
        <ele>371</ele>
        <time>2021-07-25T11:41:40Z</time>
      </trkpt>
      <trkpt lat="43.8325" lon="5.86414">
        <ele>372</ele>
        <time>2021-07-25T11:41:44Z</time>
      </trkpt>
      <trkpt lat="43.83258" lon="5.86426">
        <ele>373</ele>
        <time>2021-07-25T11:41:46Z</time>
      </trkpt>
      <trkpt lat="43.83267" lon="5.86436">
        <ele>373</ele>
        <time>2021-07-25T11:41:48Z</time>
      </trkpt>
      <trkpt lat="43.83309" lon="5.86461">
        <ele>373</ele>
        <time>2021-07-25T11:41:56Z</time>
      </trkpt>
      <trkpt lat="43.83319" lon="5.86469">
        <ele>374</ele>
        <time>2021-07-25T11:41:58Z</time>
      </trkpt>
      <trkpt lat="43.83398" lon="5.8654">
        <ele>373</ele>
        <time>2021-07-25T11:42:15Z</time>
      </trkpt>
      <trkpt lat="43.83425" lon="5.86568">
        <ele>371</ele>
        <time>2021-07-25T11:42:21Z</time>
      </trkpt>
      <trkpt lat="43.8345" lon="5.86603">
        <ele>370</ele>
        <time>2021-07-25T11:42:27Z</time>
      </trkpt>
      <trkpt lat="43.83465" lon="5.8663">
        <ele>369</ele>
        <time>2021-07-25T11:42:32Z</time>
      </trkpt>
      <trkpt lat="43.83477" lon="5.8666">
        <ele>368</ele>
        <time>2021-07-25T11:42:36Z</time>
      </trkpt>
      <trkpt lat="43.83498" lon="5.86717">
        <ele>369</ele>
        <time>2021-07-25T11:42:44Z</time>
      </trkpt>
      <trkpt lat="43.83502" lon="5.8673">
        <ele>370</ele>
        <time>2021-07-25T11:42:46Z</time>
      </trkpt>
      <trkpt lat="43.83508" lon="5.86742">
        <ele>371</ele>
        <time>2021-07-25T11:42:48Z</time>
      </trkpt>
      <trkpt lat="43.83515" lon="5.86752">
        <ele>371</ele>
        <time>2021-07-25T11:42:50Z</time>
      </trkpt>
      <trkpt lat="43.83524" lon="5.86759">
        <ele>372</ele>
        <time>2021-07-25T11:42:52Z</time>
      </trkpt>
      <trkpt lat="43.83533" lon="5.86765">
        <ele>373</ele>
        <time>2021-07-25T11:42:53Z</time>
      </trkpt>
      <trkpt lat="43.83553" lon="5.86774">
        <ele>374</ele>
        <time>2021-07-25T11:42:57Z</time>
      </trkpt>
      <trkpt lat="43.83581" lon="5.86789">
        <ele>376</ele>
        <time>2021-07-25T11:43:02Z</time>
      </trkpt>
      <trkpt lat="43.83597" lon="5.86803">
        <ele>376</ele>
        <time>2021-07-25T11:43:06Z</time>
      </trkpt>
      <trkpt lat="43.83611" lon="5.86818">
        <ele>377</ele>
        <time>2021-07-25T11:43:09Z</time>
      </trkpt>
      <trkpt lat="43.83613" lon="5.86823">
        <ele>377</ele>
        <time>2021-07-25T11:43:10Z</time>
      </trkpt>
      <trkpt lat="43.83621" lon="5.86838">
        <ele>377</ele>
        <time>2021-07-25T11:43:12Z</time>
      </trkpt>
      <trkpt lat="43.83629" lon="5.86859">
        <ele>378</ele>
        <time>2021-07-25T11:43:15Z</time>
      </trkpt>
      <trkpt lat="43.83634" lon="5.86868">
        <ele>379</ele>
        <time>2021-07-25T11:43:17Z</time>
      </trkpt>
      <trkpt lat="43.83641" lon="5.86875">
        <ele>379</ele>
        <time>2021-07-25T11:43:18Z</time>
      </trkpt>
      <trkpt lat="43.83649" lon="5.86881">
        <ele>379</ele>
        <time>2021-07-25T11:43:20Z</time>
      </trkpt>
      <trkpt lat="43.83687" lon="5.86893">
        <ele>378</ele>
        <time>2021-07-25T11:43:27Z</time>
      </trkpt>
      <trkpt lat="43.83706" lon="5.86907">
        <ele>378</ele>
        <time>2021-07-25T11:43:30Z</time>
      </trkpt>
      <trkpt lat="43.83725" lon="5.86925">
        <ele>378</ele>
        <time>2021-07-25T11:43:35Z</time>
      </trkpt>
      <trkpt lat="43.83746" lon="5.86941">
        <ele>378</ele>
        <time>2021-07-25T11:43:39Z</time>
      </trkpt>
      <trkpt lat="43.83779" lon="5.86956">
        <ele>376</ele>
        <time>2021-07-25T11:43:45Z</time>
      </trkpt>
      <trkpt lat="43.83788" lon="5.86963">
        <ele>376</ele>
        <time>2021-07-25T11:43:47Z</time>
      </trkpt>
      <trkpt lat="43.83795" lon="5.86972">
        <ele>375</ele>
        <time>2021-07-25T11:43:49Z</time>
      </trkpt>
      <trkpt lat="43.83801" lon="5.86982">
        <ele>375</ele>
        <time>2021-07-25T11:43:50Z</time>
      </trkpt>
      <trkpt lat="43.83805" lon="5.86995">
        <ele>375</ele>
        <time>2021-07-25T11:43:52Z</time>
      </trkpt>
      <trkpt lat="43.83811" lon="5.87035">
        <ele>378</ele>
        <time>2021-07-25T11:43:57Z</time>
      </trkpt>
      <trkpt lat="43.83814" lon="5.87046">
        <ele>379</ele>
        <time>2021-07-25T11:43:59Z</time>
      </trkpt>
      <trkpt lat="43.8382" lon="5.87056">
        <ele>379</ele>
        <time>2021-07-25T11:44:00Z</time>
      </trkpt>
      <trkpt lat="43.83827" lon="5.87063">
        <ele>379</ele>
        <time>2021-07-25T11:44:02Z</time>
      </trkpt>
      <trkpt lat="43.83836" lon="5.87068">
        <ele>379</ele>
        <time>2021-07-25T11:44:04Z</time>
      </trkpt>
      <trkpt lat="43.83856" lon="5.87074">
        <ele>379</ele>
        <time>2021-07-25T11:44:07Z</time>
      </trkpt>
      <trkpt lat="43.83865" lon="5.87078">
        <ele>379</ele>
        <time>2021-07-25T11:44:09Z</time>
      </trkpt>
      <trkpt lat="43.83872" lon="5.87084">
        <ele>379</ele>
        <time>2021-07-25T11:44:10Z</time>
      </trkpt>
      <trkpt lat="43.83885" lon="5.871">
        <ele>380</ele>
        <time>2021-07-25T11:44:14Z</time>
      </trkpt>
      <trkpt lat="43.839" lon="5.87131">
        <ele>382</ele>
        <time>2021-07-25T11:44:18Z</time>
      </trkpt>
      <trkpt lat="43.83915" lon="5.87146">
        <ele>382</ele>
        <time>2021-07-25T11:44:22Z</time>
      </trkpt>
      <trkpt lat="43.83936" lon="5.87159">
        <ele>382</ele>
        <time>2021-07-25T11:44:26Z</time>
      </trkpt>
      <trkpt lat="43.8398" lon="5.87187">
        <ele>381</ele>
        <time>2021-07-25T11:44:34Z</time>
      </trkpt>
      <trkpt lat="43.84059" lon="5.87241">
        <ele>382</ele>
        <time>2021-07-25T11:44:50Z</time>
      </trkpt>
      <trkpt lat="43.84091" lon="5.87261">
        <ele>381</ele>
        <time>2021-07-25T11:44:56Z</time>
      </trkpt>
      <trkpt lat="43.84099" lon="5.87267">
        <ele>380</ele>
        <time>2021-07-25T11:44:58Z</time>
      </trkpt>
      <trkpt lat="43.84105" lon="5.87276">
        <ele>380</ele>
        <time>2021-07-25T11:44:59Z</time>
      </trkpt>
      <trkpt lat="43.84109" lon="5.87286">
        <ele>380</ele>
        <time>2021-07-25T11:45:01Z</time>
      </trkpt>
      <trkpt lat="43.8411" lon="5.87299">
        <ele>380</ele>
        <time>2021-07-25T11:45:03Z</time>
      </trkpt>
      <trkpt lat="43.84108" lon="5.87312">
        <ele>380</ele>
        <time>2021-07-25T11:45:04Z</time>
      </trkpt>
      <trkpt lat="43.84099" lon="5.87346">
        <ele>382</ele>
        <time>2021-07-25T11:45:09Z</time>
      </trkpt>
      <trkpt lat="43.84099" lon="5.87357">
        <ele>383</ele>
        <time>2021-07-25T11:45:10Z</time>
      </trkpt>
      <trkpt lat="43.84103" lon="5.87367">
        <ele>384</ele>
        <time>2021-07-25T11:45:12Z</time>
      </trkpt>
      <trkpt lat="43.84109" lon="5.87373">
        <ele>384</ele>
        <time>2021-07-25T11:45:13Z</time>
      </trkpt>
      <trkpt lat="43.84117" lon="5.87375">
        <ele>383</ele>
        <time>2021-07-25T11:45:15Z</time>
      </trkpt>
      <trkpt lat="43.84127" lon="5.87375">
        <ele>383</ele>
        <time>2021-07-25T11:45:16Z</time>
      </trkpt>
      <trkpt lat="43.84159" lon="5.8737">
        <ele>381</ele>
        <time>2021-07-25T11:45:22Z</time>
      </trkpt>
      <trkpt lat="43.84178" lon="5.87373">
        <ele>380</ele>
        <time>2021-07-25T11:45:26Z</time>
      </trkpt>
      <trkpt lat="43.84187" lon="5.87377">
        <ele>380</ele>
        <time>2021-07-25T11:45:27Z</time>
      </trkpt>
      <trkpt lat="43.84213" lon="5.87399">
        <ele>380</ele>
        <time>2021-07-25T11:45:33Z</time>
      </trkpt>
      <trkpt lat="43.84344" lon="5.87536">
        <ele>386</ele>
        <time>2021-07-25T11:46:02Z</time>
      </trkpt>
      <trkpt lat="43.84363" lon="5.87554">
        <ele>387</ele>
        <time>2021-07-25T11:46:06Z</time>
      </trkpt>
      <trkpt lat="43.84384" lon="5.87563">
        <ele>387</ele>
        <time>2021-07-25T11:46:10Z</time>
      </trkpt>
      <trkpt lat="43.84425" lon="5.87571">
        <ele>384</ele>
        <time>2021-07-25T11:46:17Z</time>
      </trkpt>
      <trkpt lat="43.84434" lon="5.87576">
        <ele>384</ele>
        <time>2021-07-25T11:46:19Z</time>
      </trkpt>
      <trkpt lat="43.84444" lon="5.87581">
        <ele>384</ele>
        <time>2021-07-25T11:46:21Z</time>
      </trkpt>
      <trkpt lat="43.84461" lon="5.87597">
        <ele>383</ele>
        <time>2021-07-25T11:46:24Z</time>
      </trkpt>
      <trkpt lat="43.84468" lon="5.87607">
        <ele>382</ele>
        <time>2021-07-25T11:46:26Z</time>
      </trkpt>
      <trkpt lat="43.84479" lon="5.87628">
        <ele>382</ele>
        <time>2021-07-25T11:46:30Z</time>
      </trkpt>
      <trkpt lat="43.84486" lon="5.87654">
        <ele>382</ele>
        <time>2021-07-25T11:46:33Z</time>
      </trkpt>
      <trkpt lat="43.84489" lon="5.87681">
        <ele>382</ele>
        <time>2021-07-25T11:46:37Z</time>
      </trkpt>
      <trkpt lat="43.84489" lon="5.87705">
        <ele>383</ele>
        <time>2021-07-25T11:46:40Z</time>
      </trkpt>
      <trkpt lat="43.84492" lon="5.87715">
        <ele>383</ele>
        <time>2021-07-25T11:46:41Z</time>
      </trkpt>
      <trkpt lat="43.84497" lon="5.87723">
        <ele>383</ele>
        <time>2021-07-25T11:46:42Z</time>
      </trkpt>
      <trkpt lat="43.84504" lon="5.87727">
        <ele>382</ele>
        <time>2021-07-25T11:46:44Z</time>
      </trkpt>
      <trkpt lat="43.84524" lon="5.87728">
        <ele>382</ele>
        <time>2021-07-25T11:46:47Z</time>
      </trkpt>
      <trkpt lat="43.84579" lon="5.8772">
        <ele>381</ele>
        <time>2021-07-25T11:46:57Z</time>
      </trkpt>
      <trkpt lat="43.84614" lon="5.87711">
        <ele>380</ele>
        <time>2021-07-25T11:47:04Z</time>
      </trkpt>
      <trkpt lat="43.84698" lon="5.87661">
        <ele>370</ele>
        <time>2021-07-25T11:47:20Z</time>
      </trkpt>
      <trkpt lat="43.84707" lon="5.87656">
        <ele>367</ele>
        <time>2021-07-25T11:47:22Z</time>
      </trkpt>
      <trkpt lat="43.84715" lon="5.87655">
        <ele>365</ele>
        <time>2021-07-25T11:47:23Z</time>
      </trkpt>
      <trkpt lat="43.84722" lon="5.87657">
        <ele>364</ele>
        <time>2021-07-25T11:47:24Z</time>
      </trkpt>
      <trkpt lat="43.84728" lon="5.87664">
        <ele>364</ele>
        <time>2021-07-25T11:47:26Z</time>
      </trkpt>
      <trkpt lat="43.84771" lon="5.87735">
        <ele>361</ele>
        <time>2021-07-25T11:47:38Z</time>
      </trkpt>
      <trkpt lat="43.84777" lon="5.87747">
        <ele>360</ele>
        <time>2021-07-25T11:47:39Z</time>
      </trkpt>
      <trkpt lat="43.84784" lon="5.8777">
        <ele>358</ele>
        <time>2021-07-25T11:47:43Z</time>
      </trkpt>
      <trkpt lat="43.84798" lon="5.87794">
        <ele>353</ele>
        <time>2021-07-25T11:47:47Z</time>
      </trkpt>
      <trkpt lat="43.84801" lon="5.87802">
        <ele>352</ele>
        <time>2021-07-25T11:47:48Z</time>
      </trkpt>
      <trkpt lat="43.848" lon="5.87811">
        <ele>353</ele>
        <time>2021-07-25T11:47:49Z</time>
      </trkpt>
      <trkpt lat="43.84796" lon="5.87821">
        <ele>355</ele>
        <time>2021-07-25T11:47:50Z</time>
      </trkpt>
      <trkpt lat="43.84772" lon="5.87857">
        <ele>361</ele>
        <time>2021-07-25T11:47:57Z</time>
      </trkpt>
      <trkpt lat="43.84757" lon="5.87875">
        <ele>363</ele>
        <time>2021-07-25T11:48:00Z</time>
      </trkpt>
      <trkpt lat="43.84724" lon="5.87903">
        <ele>365</ele>
        <time>2021-07-25T11:48:07Z</time>
      </trkpt>
      <trkpt lat="43.84718" lon="5.8791">
        <ele>365</ele>
        <time>2021-07-25T11:48:08Z</time>
      </trkpt>
      <trkpt lat="43.84714" lon="5.87918">
        <ele>365</ele>
        <time>2021-07-25T11:48:10Z</time>
      </trkpt>
      <trkpt lat="43.84712" lon="5.87927">
        <ele>365</ele>
        <time>2021-07-25T11:48:11Z</time>
      </trkpt>
      <trkpt lat="43.84715" lon="5.87936">
        <ele>365</ele>
        <time>2021-07-25T11:48:12Z</time>
      </trkpt>
      <trkpt lat="43.8472" lon="5.87942">
        <ele>364</ele>
        <time>2021-07-25T11:48:13Z</time>
      </trkpt>
      <trkpt lat="43.84727" lon="5.87942">
        <ele>363</ele>
        <time>2021-07-25T11:48:15Z</time>
      </trkpt>
      <trkpt lat="43.84749" lon="5.87934">
        <ele>360</ele>
        <time>2021-07-25T11:48:19Z</time>
      </trkpt>
      <trkpt lat="43.84767" lon="5.87933">
        <ele>355</ele>
        <time>2021-07-25T11:48:22Z</time>
      </trkpt>
      <trkpt lat="43.84785" lon="5.87936">
        <ele>351</ele>
        <time>2021-07-25T11:48:25Z</time>
      </trkpt>
      <trkpt lat="43.84791" lon="5.87941">
        <ele>349</ele>
        <time>2021-07-25T11:48:26Z</time>
      </trkpt>
      <trkpt lat="43.84796" lon="5.87949">
        <ele>348</ele>
        <time>2021-07-25T11:48:28Z</time>
      </trkpt>
      <trkpt lat="43.84797" lon="5.8796">
        <ele>347</ele>
        <time>2021-07-25T11:48:29Z</time>
      </trkpt>
      <trkpt lat="43.84795" lon="5.87971">
        <ele>347</ele>
        <time>2021-07-25T11:48:31Z</time>
      </trkpt>
      <trkpt lat="43.84777" lon="5.88038">
        <ele>350</ele>
        <time>2021-07-25T11:48:40Z</time>
      </trkpt>
      <trkpt lat="43.84771" lon="5.88068">
        <ele>350</ele>
        <time>2021-07-25T11:48:44Z</time>
      </trkpt>
      <trkpt lat="43.84766" lon="5.88108">
        <ele>349</ele>
        <time>2021-07-25T11:48:49Z</time>
      </trkpt>
      <trkpt lat="43.84766" lon="5.88117">
        <ele>348</ele>
        <time>2021-07-25T11:48:50Z</time>
      </trkpt>
      <trkpt lat="43.84769" lon="5.88125">
        <ele>348</ele>
        <time>2021-07-25T11:48:51Z</time>
      </trkpt>
      <trkpt lat="43.84775" lon="5.8813">
        <ele>347</ele>
        <time>2021-07-25T11:48:53Z</time>
      </trkpt>
      <trkpt lat="43.84781" lon="5.88128">
        <ele>346</ele>
        <time>2021-07-25T11:48:54Z</time>
      </trkpt>
      <trkpt lat="43.84787" lon="5.8812">
        <ele>345</ele>
        <time>2021-07-25T11:48:55Z</time>
      </trkpt>
      <trkpt lat="43.84802" lon="5.88051">
        <ele>343</ele>
        <time>2021-07-25T11:49:04Z</time>
      </trkpt>
      <trkpt lat="43.84807" lon="5.88036">
        <ele>342</ele>
        <time>2021-07-25T11:49:06Z</time>
      </trkpt>
      <trkpt lat="43.84815" lon="5.88022">
        <ele>340</ele>
        <time>2021-07-25T11:49:09Z</time>
      </trkpt>
      <trkpt lat="43.84825" lon="5.88008">
        <ele>337</ele>
        <time>2021-07-25T11:49:11Z</time>
      </trkpt>
      <trkpt lat="43.84843" lon="5.87984">
        <ele>335</ele>
        <time>2021-07-25T11:49:16Z</time>
      </trkpt>
      <trkpt lat="43.84878" lon="5.87927">
        <ele>333</ele>
        <time>2021-07-25T11:49:25Z</time>
      </trkpt>
      <trkpt lat="43.84887" lon="5.87916">
        <ele>331</ele>
        <time>2021-07-25T11:49:27Z</time>
      </trkpt>
      <trkpt lat="43.84897" lon="5.87908">
        <ele>329</ele>
        <time>2021-07-25T11:49:30Z</time>
      </trkpt>
      <trkpt lat="43.84909" lon="5.87904">
        <ele>327</ele>
        <time>2021-07-25T11:49:32Z</time>
      </trkpt>
      <trkpt lat="43.84928" lon="5.87907">
        <ele>325</ele>
        <time>2021-07-25T11:49:35Z</time>
      </trkpt>
      <trkpt lat="43.84938" lon="5.87912">
        <ele>325</ele>
        <time>2021-07-25T11:49:37Z</time>
      </trkpt>
      <trkpt lat="43.84963" lon="5.87926">
        <ele>325</ele>
        <time>2021-07-25T11:49:42Z</time>
      </trkpt>
      <trkpt lat="43.84984" lon="5.87942">
        <ele>326</ele>
        <time>2021-07-25T11:49:46Z</time>
      </trkpt>
      <trkpt lat="43.84994" lon="5.87953">
        <ele>328</ele>
        <time>2021-07-25T11:49:48Z</time>
      </trkpt>
      <trkpt lat="43.8508" lon="5.88068">
        <ele>327</ele>
        <time>2021-07-25T11:50:10Z</time>
      </trkpt>
      <trkpt lat="43.85201" lon="5.88221">
        <ele>323</ele>
        <time>2021-07-25T11:50:39Z</time>
      </trkpt>
      <trkpt lat="43.85322" lon="5.88377">
        <ele>327</ele>
        <time>2021-07-25T11:51:08Z</time>
      </trkpt>
      <trkpt lat="43.85359" lon="5.88425">
        <ele>328</ele>
        <time>2021-07-25T11:51:17Z</time>
      </trkpt>
      <trkpt lat="43.8545" lon="5.88536">
        <ele>330</ele>
        <time>2021-07-25T11:51:39Z</time>
      </trkpt>
      <trkpt lat="43.85457" lon="5.88547">
        <ele>330</ele>
        <time>2021-07-25T11:51:41Z</time>
      </trkpt>
      <trkpt lat="43.8547" lon="5.88573">
        <ele>331</ele>
        <time>2021-07-25T11:51:45Z</time>
      </trkpt>
      <trkpt lat="43.8548" lon="5.88613">
        <ele>334</ele>
        <time>2021-07-25T11:51:50Z</time>
      </trkpt>
      <trkpt lat="43.85485" lon="5.88625">
        <ele>334</ele>
        <time>2021-07-25T11:51:52Z</time>
      </trkpt>
      <trkpt lat="43.85496" lon="5.88644">
        <ele>334</ele>
        <time>2021-07-25T11:51:55Z</time>
      </trkpt>
      <trkpt lat="43.85525" lon="5.88677">
        <ele>333</ele>
        <time>2021-07-25T11:52:02Z</time>
      </trkpt>
      <trkpt lat="43.85527" lon="5.88679">
        <ele>334</ele>
        <time>2021-07-25T11:52:02Z</time>
      </trkpt>
      <trkpt lat="43.85529" lon="5.8868">
        <ele>333</ele>
        <time>2021-07-25T11:52:02Z</time>
      </trkpt>
      <trkpt lat="43.85562" lon="5.8872">
        <ele>333</ele>
        <time>2021-07-25T11:52:10Z</time>
      </trkpt>
      <trkpt lat="43.85591" lon="5.88766">
        <ele>332</ele>
        <time>2021-07-25T11:52:18Z</time>
      </trkpt>
      <trkpt lat="43.85605" lon="5.88784">
        <ele>332</ele>
        <time>2021-07-25T11:52:22Z</time>
      </trkpt>
      <trkpt lat="43.8562" lon="5.88797">
        <ele>332</ele>
        <time>2021-07-25T11:52:25Z</time>
      </trkpt>
      <trkpt lat="43.85692" lon="5.88864">
        <ele>329</ele>
        <time>2021-07-25T11:52:40Z</time>
      </trkpt>
      <trkpt lat="43.85737" lon="5.88902">
        <ele>330</ele>
        <time>2021-07-25T11:52:49Z</time>
      </trkpt>
      <trkpt lat="43.85763" lon="5.88917">
        <ele>330</ele>
        <time>2021-07-25T11:52:54Z</time>
      </trkpt>
      <trkpt lat="43.85789" lon="5.88929">
        <ele>331</ele>
        <time>2021-07-25T11:52:59Z</time>
      </trkpt>
      <trkpt lat="43.85866" lon="5.88948">
        <ele>331</ele>
        <time>2021-07-25T11:53:13Z</time>
      </trkpt>
      <trkpt lat="43.8589" lon="5.88961">
        <ele>331</ele>
        <time>2021-07-25T11:53:18Z</time>
      </trkpt>
      <trkpt lat="43.85914" lon="5.88977">
        <ele>331</ele>
        <time>2021-07-25T11:53:23Z</time>
      </trkpt>
      <trkpt lat="43.85926" lon="5.88987">
        <ele>330</ele>
        <time>2021-07-25T11:53:25Z</time>
      </trkpt>
      <trkpt lat="43.85931" lon="5.88992">
        <ele>330</ele>
        <time>2021-07-25T11:53:26Z</time>
      </trkpt>
      <trkpt lat="43.85948" lon="5.89008">
        <ele>330</ele>
        <time>2021-07-25T11:53:30Z</time>
      </trkpt>
      <trkpt lat="43.86004" lon="5.89067">
        <ele>330</ele>
        <time>2021-07-25T11:53:42Z</time>
      </trkpt>
      <trkpt lat="43.8601" lon="5.89073">
        <ele>330</ele>
        <time>2021-07-25T11:53:44Z</time>
      </trkpt>
      <trkpt lat="43.86064" lon="5.8913">
        <ele>328</ele>
        <time>2021-07-25T11:53:56Z</time>
      </trkpt>
      <trkpt lat="43.86125" lon="5.89186">
        <ele>327</ele>
        <time>2021-07-25T11:54:09Z</time>
      </trkpt>
      <trkpt lat="43.86286" lon="5.89351">
        <ele>328</ele>
        <time>2021-07-25T11:54:44Z</time>
      </trkpt>
      <trkpt lat="43.86325" lon="5.89384">
        <ele>329</ele>
        <time>2021-07-25T11:54:52Z</time>
      </trkpt>
      <trkpt lat="43.86402" lon="5.89447">
        <ele>330</ele>
        <time>2021-07-25T11:55:08Z</time>
      </trkpt>
      <trkpt lat="43.86408" lon="5.89455">
        <ele>331</ele>
        <time>2021-07-25T11:55:10Z</time>
      </trkpt>
      <trkpt lat="43.86491" lon="5.89564">
        <ele>331</ele>
        <time>2021-07-25T11:55:30Z</time>
      </trkpt>
      <trkpt lat="43.86578" lon="5.89655">
        <ele>332</ele>
        <time>2021-07-25T11:55:50Z</time>
      </trkpt>
      <trkpt lat="43.86606" lon="5.89685">
        <ele>332</ele>
        <time>2021-07-25T11:55:56Z</time>
      </trkpt>
      <trkpt lat="43.86707" lon="5.89791">
        <ele>336</ele>
        <time>2021-07-25T11:56:18Z</time>
      </trkpt>
      <trkpt lat="43.8671" lon="5.89794">
        <ele>336</ele>
        <time>2021-07-25T11:56:19Z</time>
      </trkpt>
      <trkpt lat="43.86866" lon="5.89959">
        <ele>335</ele>
        <time>2021-07-25T11:56:54Z</time>
      </trkpt>
      <trkpt lat="43.8688" lon="5.89973">
        <ele>334</ele>
        <time>2021-07-25T11:56:57Z</time>
      </trkpt>
      <trkpt lat="43.86928" lon="5.90024">
        <ele>334</ele>
        <time>2021-07-25T11:57:08Z</time>
      </trkpt>
      <trkpt lat="43.86938" lon="5.9003">
        <ele>334</ele>
        <time>2021-07-25T11:57:10Z</time>
      </trkpt>
      <trkpt lat="43.86982" lon="5.90059">
        <ele>333</ele>
        <time>2021-07-25T11:57:18Z</time>
      </trkpt>
      <trkpt lat="43.87019" lon="5.9008">
        <ele>333</ele>
        <time>2021-07-25T11:57:26Z</time>
      </trkpt>
      <trkpt lat="43.87133" lon="5.90144">
        <ele>334</ele>
        <time>2021-07-25T11:57:47Z</time>
      </trkpt>
      <trkpt lat="43.87205" lon="5.902">
        <ele>334</ele>
        <time>2021-07-25T11:58:02Z</time>
      </trkpt>
      <trkpt lat="43.87213" lon="5.90206">
        <ele>333</ele>
        <time>2021-07-25T11:58:04Z</time>
      </trkpt>
      <trkpt lat="43.87223" lon="5.90214">
        <ele>333</ele>
        <time>2021-07-25T11:58:06Z</time>
      </trkpt>
      <trkpt lat="43.87281" lon="5.90269">
        <ele>333</ele>
        <time>2021-07-25T11:58:18Z</time>
      </trkpt>
      <trkpt lat="43.87297" lon="5.90286">
        <ele>333</ele>
        <time>2021-07-25T11:58:22Z</time>
      </trkpt>
      <trkpt lat="43.87357" lon="5.90349">
        <ele>334</ele>
        <time>2021-07-25T11:58:35Z</time>
      </trkpt>
      <trkpt lat="43.87371" lon="5.90364">
        <ele>334</ele>
        <time>2021-07-25T11:58:38Z</time>
      </trkpt>
      <trkpt lat="43.87373" lon="5.90366">
        <ele>334</ele>
        <time>2021-07-25T11:58:39Z</time>
      </trkpt>
      <trkpt lat="43.87412" lon="5.90414">
        <ele>333</ele>
        <time>2021-07-25T11:58:48Z</time>
      </trkpt>
      <trkpt lat="43.8743" lon="5.90436">
        <ele>333</ele>
        <time>2021-07-25T11:58:52Z</time>
      </trkpt>
      <trkpt lat="43.87539" lon="5.90611">
        <ele>335</ele>
        <time>2021-07-25T11:59:22Z</time>
      </trkpt>
      <trkpt lat="43.8772" lon="5.90899">
        <ele>336</ele>
        <time>2021-07-25T12:00:11Z</time>
      </trkpt>
      <trkpt lat="43.87724" lon="5.90906">
        <ele>336</ele>
        <time>2021-07-25T12:00:12Z</time>
      </trkpt>
      <trkpt lat="43.87728" lon="5.90911">
        <ele>336</ele>
        <time>2021-07-25T12:00:13Z</time>
      </trkpt>
      <trkpt lat="43.87742" lon="5.9093">
        <ele>337</ele>
        <time>2021-07-25T12:00:17Z</time>
      </trkpt>
      <trkpt lat="43.87762" lon="5.90948">
        <ele>338</ele>
        <time>2021-07-25T12:00:21Z</time>
      </trkpt>
      <trkpt lat="43.87774" lon="5.90954">
        <ele>338</ele>
        <time>2021-07-25T12:00:23Z</time>
      </trkpt>
      <trkpt lat="43.87791" lon="5.90958">
        <ele>339</ele>
        <time>2021-07-25T12:00:26Z</time>
      </trkpt>
      <trkpt lat="43.87817" lon="5.9096">
        <ele>339</ele>
        <time>2021-07-25T12:00:31Z</time>
      </trkpt>
      <trkpt lat="43.87852" lon="5.90955">
        <ele>339</ele>
        <time>2021-07-25T12:00:37Z</time>
      </trkpt>
      <trkpt lat="43.8786" lon="5.90954">
        <ele>339</ele>
        <time>2021-07-25T12:00:39Z</time>
      </trkpt>
      <trkpt lat="43.8796" lon="5.90938">
        <ele>339</ele>
        <time>2021-07-25T12:00:56Z</time>
      </trkpt>
      <trkpt lat="43.88047" lon="5.90926">
        <ele>338</ele>
        <time>2021-07-25T12:01:12Z</time>
      </trkpt>
      <trkpt lat="43.88232" lon="5.90893">
        <ele>339</ele>
        <time>2021-07-25T12:01:45Z</time>
      </trkpt>
      <trkpt lat="43.88455" lon="5.9085">
        <ele>339</ele>
        <time>2021-07-25T12:02:25Z</time>
      </trkpt>
      <trkpt lat="43.88479" lon="5.90842">
        <ele>338</ele>
        <time>2021-07-25T12:02:30Z</time>
      </trkpt>
      <trkpt lat="43.88487" lon="5.90883">
        <ele>339</ele>
        <time>2021-07-25T12:02:35Z</time>
      </trkpt>
      <trkpt lat="43.88473" lon="5.91103">
        <ele>341</ele>
        <time>2021-07-25T12:03:03Z</time>
      </trkpt>
      <trkpt lat="43.88473" lon="5.91115">
        <ele>342</ele>
        <time>2021-07-25T12:03:05Z</time>
      </trkpt>
      <trkpt lat="43.8847" lon="5.91136">
        <ele>342</ele>
        <time>2021-07-25T12:03:08Z</time>
      </trkpt>
      <trkpt lat="43.8846" lon="5.91315">
        <ele>342</ele>
        <time>2021-07-25T12:03:31Z</time>
      </trkpt>
      <trkpt lat="43.88452" lon="5.91434">
        <ele>344</ele>
        <time>2021-07-25T12:03:46Z</time>
      </trkpt>
      <trkpt lat="43.88452" lon="5.91452">
        <ele>345</ele>
        <time>2021-07-25T12:03:48Z</time>
      </trkpt>
      <trkpt lat="43.88455" lon="5.91471">
        <ele>346</ele>
        <time>2021-07-25T12:03:51Z</time>
      </trkpt>
      <trkpt lat="43.88459" lon="5.91483">
        <ele>346</ele>
        <time>2021-07-25T12:03:53Z</time>
      </trkpt>
      <trkpt lat="43.88464" lon="5.91493">
        <ele>347</ele>
        <time>2021-07-25T12:03:54Z</time>
      </trkpt>
      <trkpt lat="43.88475" lon="5.91506">
        <ele>348</ele>
        <time>2021-07-25T12:03:57Z</time>
      </trkpt>
      <trkpt lat="43.88483" lon="5.91513">
        <ele>349</ele>
        <time>2021-07-25T12:03:58Z</time>
      </trkpt>
      <trkpt lat="43.88515" lon="5.91529">
        <ele>352</ele>
        <time>2021-07-25T12:04:04Z</time>
      </trkpt>
      <trkpt lat="43.8855" lon="5.91542">
        <ele>352</ele>
        <time>2021-07-25T12:04:11Z</time>
      </trkpt>
      <trkpt lat="43.8856" lon="5.9155">
        <ele>353</ele>
        <time>2021-07-25T12:04:13Z</time>
      </trkpt>
      <trkpt lat="43.88569" lon="5.91565">
        <ele>354</ele>
        <time>2021-07-25T12:04:15Z</time>
      </trkpt>
      <trkpt lat="43.88573" lon="5.91577">
        <ele>355</ele>
        <time>2021-07-25T12:04:17Z</time>
      </trkpt>
      <trkpt lat="43.88581" lon="5.91629">
        <ele>358</ele>
        <time>2021-07-25T12:04:24Z</time>
      </trkpt>
      <trkpt lat="43.88588" lon="5.9166">
        <ele>360</ele>
        <time>2021-07-25T12:04:28Z</time>
      </trkpt>
      <trkpt lat="43.88592" lon="5.91692">
        <ele>361</ele>
        <time>2021-07-25T12:04:32Z</time>
      </trkpt>
      <trkpt lat="43.88591" lon="5.91705">
        <ele>361</ele>
        <time>2021-07-25T12:04:34Z</time>
      </trkpt>
      <trkpt lat="43.8857" lon="5.91832">
        <ele>364</ele>
        <time>2021-07-25T12:04:51Z</time>
      </trkpt>
      <trkpt lat="43.88538" lon="5.92064">
        <ele>366</ele>
        <time>2021-07-25T12:05:21Z</time>
      </trkpt>
      <trkpt lat="43.88535" lon="5.92098">
        <ele>367</ele>
        <time>2021-07-25T12:05:25Z</time>
      </trkpt>
      <trkpt lat="43.88536" lon="5.92115">
        <ele>367</ele>
        <time>2021-07-25T12:05:28Z</time>
      </trkpt>
      <trkpt lat="43.88543" lon="5.92152">
        <ele>367</ele>
        <time>2021-07-25T12:05:32Z</time>
      </trkpt>
      <trkpt lat="43.8856" lon="5.9221">
        <ele>366</ele>
        <time>2021-07-25T12:05:40Z</time>
      </trkpt>
      <trkpt lat="43.88564" lon="5.9223">
        <ele>366</ele>
        <time>2021-07-25T12:05:43Z</time>
      </trkpt>
      <trkpt lat="43.88565" lon="5.9225">
        <ele>365</ele>
        <time>2021-07-25T12:05:46Z</time>
      </trkpt>
      <trkpt lat="43.88565" lon="5.9227">
        <ele>365</ele>
        <time>2021-07-25T12:05:48Z</time>
      </trkpt>
      <trkpt lat="43.88555" lon="5.92327">
        <ele>363</ele>
        <time>2021-07-25T12:05:56Z</time>
      </trkpt>
      <trkpt lat="43.88554" lon="5.92348">
        <ele>363</ele>
        <time>2021-07-25T12:05:58Z</time>
      </trkpt>
      <trkpt lat="43.88554" lon="5.92369">
        <ele>362</ele>
        <time>2021-07-25T12:06:01Z</time>
      </trkpt>
      <trkpt lat="43.88557" lon="5.92389">
        <ele>362</ele>
        <time>2021-07-25T12:06:04Z</time>
      </trkpt>
      <trkpt lat="43.88563" lon="5.92408">
        <ele>362</ele>
        <time>2021-07-25T12:06:06Z</time>
      </trkpt>
      <trkpt lat="43.88571" lon="5.92424">
        <ele>363</ele>
        <time>2021-07-25T12:06:09Z</time>
      </trkpt>
      <trkpt lat="43.88593" lon="5.92452">
        <ele>363</ele>
        <time>2021-07-25T12:06:14Z</time>
      </trkpt>
      <trkpt lat="43.88603" lon="5.92474">
        <ele>363</ele>
        <time>2021-07-25T12:06:18Z</time>
      </trkpt>
      <trkpt lat="43.8861" lon="5.92523">
        <ele>363</ele>
        <time>2021-07-25T12:06:24Z</time>
      </trkpt>
      <trkpt lat="43.88624" lon="5.92634">
        <ele>366</ele>
        <time>2021-07-25T12:06:38Z</time>
      </trkpt>
      <trkpt lat="43.88628" lon="5.92686">
        <ele>367</ele>
        <time>2021-07-25T12:06:45Z</time>
      </trkpt>
      <trkpt lat="43.88629" lon="5.92743">
        <ele>367</ele>
        <time>2021-07-25T12:06:52Z</time>
      </trkpt>
      <trkpt lat="43.88624" lon="5.92886">
        <ele>371</ele>
        <time>2021-07-25T12:07:11Z</time>
      </trkpt>
      <trkpt lat="43.88623" lon="5.92973">
        <ele>373</ele>
        <time>2021-07-25T12:07:22Z</time>
      </trkpt>
      <trkpt lat="43.88653" lon="5.93554">
        <ele>380</ele>
        <time>2021-07-25T12:08:37Z</time>
      </trkpt>
      <trkpt lat="43.88659" lon="5.93646">
        <ele>381</ele>
        <time>2021-07-25T12:08:49Z</time>
      </trkpt>
      <trkpt lat="43.88665" lon="5.93689">
        <ele>382</ele>
        <time>2021-07-25T12:08:54Z</time>
      </trkpt>
      <trkpt lat="43.88682" lon="5.93778">
        <ele>386</ele>
        <time>2021-07-25T12:09:06Z</time>
      </trkpt>
      <trkpt lat="43.88699" lon="5.93899">
        <ele>386</ele>
        <time>2021-07-25T12:09:22Z</time>
      </trkpt>
      <trkpt lat="43.88708" lon="5.93945">
        <ele>385</ele>
        <time>2021-07-25T12:09:28Z</time>
      </trkpt>
      <trkpt lat="43.88725" lon="5.94013">
        <ele>384</ele>
        <time>2021-07-25T12:09:37Z</time>
      </trkpt>
      <trkpt lat="43.88734" lon="5.9406">
        <ele>384</ele>
        <time>2021-07-25T12:09:43Z</time>
      </trkpt>
      <trkpt lat="43.88741" lon="5.94109">
        <ele>384</ele>
        <time>2021-07-25T12:09:50Z</time>
      </trkpt>
      <trkpt lat="43.88747" lon="5.94182">
        <ele>384</ele>
        <time>2021-07-25T12:09:59Z</time>
      </trkpt>
      <trkpt lat="43.88747" lon="5.94259">
        <ele>384</ele>
        <time>2021-07-25T12:10:09Z</time>
      </trkpt>
      <trkpt lat="43.88747" lon="5.94278">
        <ele>384</ele>
        <time>2021-07-25T12:10:11Z</time>
      </trkpt>
      <trkpt lat="43.88746" lon="5.94293">
        <ele>385</ele>
        <time>2021-07-25T12:10:13Z</time>
      </trkpt>
      <trkpt lat="43.88741" lon="5.94324">
        <ele>385</ele>
        <time>2021-07-25T12:10:17Z</time>
      </trkpt>
      <trkpt lat="43.88723" lon="5.94394">
        <ele>385</ele>
        <time>2021-07-25T12:10:27Z</time>
      </trkpt>
      <trkpt lat="43.88721" lon="5.94438">
        <ele>384</ele>
        <time>2021-07-25T12:10:33Z</time>
      </trkpt>
      <trkpt lat="43.88723" lon="5.94472">
        <ele>384</ele>
        <time>2021-07-25T12:10:37Z</time>
      </trkpt>
      <trkpt lat="43.88727" lon="5.94486">
        <ele>384</ele>
        <time>2021-07-25T12:10:39Z</time>
      </trkpt>
      <trkpt lat="43.88739" lon="5.94508">
        <ele>385</ele>
        <time>2021-07-25T12:10:43Z</time>
      </trkpt>
      <trkpt lat="43.88748" lon="5.94519">
        <ele>386</ele>
        <time>2021-07-25T12:10:45Z</time>
      </trkpt>
      <trkpt lat="43.88757" lon="5.94526">
        <ele>386</ele>
        <time>2021-07-25T12:10:46Z</time>
      </trkpt>
      <trkpt lat="43.88768" lon="5.94531">
        <ele>387</ele>
        <time>2021-07-25T12:10:49Z</time>
      </trkpt>
      <trkpt lat="43.88783" lon="5.94532">
        <ele>388</ele>
        <time>2021-07-25T12:10:51Z</time>
      </trkpt>
      <trkpt lat="43.88817" lon="5.94519">
        <ele>391</ele>
        <time>2021-07-25T12:10:58Z</time>
      </trkpt>
      <trkpt lat="43.8884" lon="5.94517">
        <ele>393</ele>
        <time>2021-07-25T12:11:02Z</time>
      </trkpt>
      <trkpt lat="43.88866" lon="5.94524">
        <ele>395</ele>
        <time>2021-07-25T12:11:06Z</time>
      </trkpt>
      <trkpt lat="43.88876" lon="5.94528">
        <ele>395</ele>
        <time>2021-07-25T12:11:08Z</time>
      </trkpt>
      <trkpt lat="43.88887" lon="5.94537">
        <ele>396</ele>
        <time>2021-07-25T12:11:10Z</time>
      </trkpt>
      <trkpt lat="43.88891" lon="5.94544">
        <ele>396</ele>
        <time>2021-07-25T12:11:12Z</time>
      </trkpt>
      <trkpt lat="43.88893" lon="5.94551">
        <ele>396</ele>
        <time>2021-07-25T12:11:13Z</time>
      </trkpt>
      <trkpt lat="43.88895" lon="5.94575">
        <ele>395</ele>
        <time>2021-07-25T12:11:16Z</time>
      </trkpt>
      <trkpt lat="43.88895" lon="5.94586">
        <ele>395</ele>
        <time>2021-07-25T12:11:17Z</time>
      </trkpt>
      <trkpt lat="43.88889" lon="5.946">
        <ele>395</ele>
        <time>2021-07-25T12:11:19Z</time>
      </trkpt>
      <trkpt lat="43.88862" lon="5.94625">
        <ele>393</ele>
        <time>2021-07-25T12:11:25Z</time>
      </trkpt>
      <trkpt lat="43.88854" lon="5.94635">
        <ele>393</ele>
        <time>2021-07-25T12:11:27Z</time>
      </trkpt>
      <trkpt lat="43.88851" lon="5.94644">
        <ele>393</ele>
        <time>2021-07-25T12:11:28Z</time>
      </trkpt>
      <trkpt lat="43.88849" lon="5.94654">
        <ele>394</ele>
        <time>2021-07-25T12:11:29Z</time>
      </trkpt>
      <trkpt lat="43.88849" lon="5.94665">
        <ele>394</ele>
        <time>2021-07-25T12:11:31Z</time>
      </trkpt>
      <trkpt lat="43.88852" lon="5.94676">
        <ele>395</ele>
        <time>2021-07-25T12:11:32Z</time>
      </trkpt>
      <trkpt lat="43.88889" lon="5.9478">
        <ele>398</ele>
        <time>2021-07-25T12:11:47Z</time>
      </trkpt>
      <trkpt lat="43.88893" lon="5.94792">
        <ele>398</ele>
        <time>2021-07-25T12:11:49Z</time>
      </trkpt>
      <trkpt lat="43.88893" lon="5.94811">
        <ele>398</ele>
        <time>2021-07-25T12:11:51Z</time>
      </trkpt>
      <trkpt lat="43.88882" lon="5.94859">
        <ele>396</ele>
        <time>2021-07-25T12:11:58Z</time>
      </trkpt>
      <trkpt lat="43.88882" lon="5.9489">
        <ele>395</ele>
        <time>2021-07-25T12:12:02Z</time>
      </trkpt>
      <trkpt lat="43.88889" lon="5.94928">
        <ele>395</ele>
        <time>2021-07-25T12:12:07Z</time>
      </trkpt>
      <trkpt lat="43.88896" lon="5.94946">
        <ele>395</ele>
        <time>2021-07-25T12:12:09Z</time>
      </trkpt>
      <trkpt lat="43.88912" lon="5.9498">
        <ele>395</ele>
        <time>2021-07-25T12:12:15Z</time>
      </trkpt>
      <trkpt lat="43.88927" lon="5.95019">
        <ele>395</ele>
        <time>2021-07-25T12:12:20Z</time>
      </trkpt>
      <trkpt lat="43.88974" lon="5.95174">
        <ele>398</ele>
        <time>2021-07-25T12:12:42Z</time>
      </trkpt>
      <trkpt lat="43.8899" lon="5.95244">
        <ele>399</ele>
        <time>2021-07-25T12:12:51Z</time>
      </trkpt>
      <trkpt lat="43.89029" lon="5.95434">
        <ele>396</ele>
        <time>2021-07-25T12:13:17Z</time>
      </trkpt>
      <trkpt lat="43.89032" lon="5.95447">
        <ele>395</ele>
        <time>2021-07-25T12:13:18Z</time>
      </trkpt>
      <trkpt lat="43.89042" lon="5.95464">
        <ele>395</ele>
        <time>2021-07-25T12:13:21Z</time>
      </trkpt>
      <trkpt lat="43.89049" lon="5.9547">
        <ele>395</ele>
        <time>2021-07-25T12:13:23Z</time>
      </trkpt>
      <trkpt lat="43.89056" lon="5.95472">
        <ele>395</ele>
        <time>2021-07-25T12:13:24Z</time>
      </trkpt>
      <trkpt lat="43.8907" lon="5.95474">
        <ele>395</ele>
        <time>2021-07-25T12:13:26Z</time>
      </trkpt>
      <trkpt lat="43.8911" lon="5.95474">
        <ele>397</ele>
        <time>2021-07-25T12:13:34Z</time>
      </trkpt>
      <trkpt lat="43.8921" lon="5.95491">
        <ele>397</ele>
        <time>2021-07-25T12:13:51Z</time>
      </trkpt>
      <trkpt lat="43.89227" lon="5.95497">
        <ele>395</ele>
        <time>2021-07-25T12:13:55Z</time>
      </trkpt>
      <trkpt lat="43.89232" lon="5.955">
        <ele>395</ele>
        <time>2021-07-25T12:13:56Z</time>
      </trkpt>
      <trkpt lat="43.89238" lon="5.95513">
        <ele>395</ele>
        <time>2021-07-25T12:13:58Z</time>
      </trkpt>
      <trkpt lat="43.8924" lon="5.95526">
        <ele>396</ele>
        <time>2021-07-25T12:13:59Z</time>
      </trkpt>
      <trkpt lat="43.89242" lon="5.95537">
        <ele>396</ele>
        <time>2021-07-25T12:14:01Z</time>
      </trkpt>
      <trkpt lat="43.89241" lon="5.95557">
        <ele>396</ele>
        <time>2021-07-25T12:14:03Z</time>
      </trkpt>
      <trkpt lat="43.89234" lon="5.95574">
        <ele>396</ele>
        <time>2021-07-25T12:14:06Z</time>
      </trkpt>
      <trkpt lat="43.89218" lon="5.9559">
        <ele>396</ele>
        <time>2021-07-25T12:14:09Z</time>
      </trkpt>
      <trkpt lat="43.89163" lon="5.95634">
        <ele>394</ele>
        <time>2021-07-25T12:14:21Z</time>
      </trkpt>
      <trkpt lat="43.89149" lon="5.95644">
        <ele>394</ele>
        <time>2021-07-25T12:14:23Z</time>
      </trkpt>
      <trkpt lat="43.89111" lon="5.95664">
        <ele>391</ele>
        <time>2021-07-25T12:14:31Z</time>
      </trkpt>
      <trkpt lat="43.89095" lon="5.95677">
        <ele>390</ele>
        <time>2021-07-25T12:14:34Z</time>
      </trkpt>
      <trkpt lat="43.89057" lon="5.95717">
        <ele>390</ele>
        <time>2021-07-25T12:14:42Z</time>
      </trkpt>
      <trkpt lat="43.89048" lon="5.95736">
        <ele>390</ele>
        <time>2021-07-25T12:14:45Z</time>
      </trkpt>
      <trkpt lat="43.89047" lon="5.95757">
        <ele>391</ele>
        <time>2021-07-25T12:14:48Z</time>
      </trkpt>
      <trkpt lat="43.89178" lon="5.9638">
        <ele>395</ele>
        <time>2021-07-25T12:16:11Z</time>
      </trkpt>
      <trkpt lat="43.89186" lon="5.96435">
        <ele>395</ele>
        <time>2021-07-25T12:16:18Z</time>
      </trkpt>
      <trkpt lat="43.8919" lon="5.96492">
        <ele>396</ele>
        <time>2021-07-25T12:16:26Z</time>
      </trkpt>
      <trkpt lat="43.89196" lon="5.96631">
        <ele>393</ele>
        <time>2021-07-25T12:16:44Z</time>
      </trkpt>
      <trkpt lat="43.89245" lon="5.97778">
        <ele>394</ele>
        <time>2021-07-25T12:19:11Z</time>
      </trkpt>
      <trkpt lat="43.89247" lon="5.97803">
        <ele>394</ele>
        <time>2021-07-25T12:19:14Z</time>
      </trkpt>
      <trkpt lat="43.89252" lon="5.97827">
        <ele>394</ele>
        <time>2021-07-25T12:19:17Z</time>
      </trkpt>
      <trkpt lat="43.8926" lon="5.97851">
        <ele>394</ele>
        <time>2021-07-25T12:19:21Z</time>
      </trkpt>
      <trkpt lat="43.89286" lon="5.97922">
        <ele>395</ele>
        <time>2021-07-25T12:19:31Z</time>
      </trkpt>
      <trkpt lat="43.89303" lon="5.97971">
        <ele>395</ele>
        <time>2021-07-25T12:19:38Z</time>
      </trkpt>
      <trkpt lat="43.89315" lon="5.98022">
        <ele>395</ele>
        <time>2021-07-25T12:19:45Z</time>
      </trkpt>
      <trkpt lat="43.89462" lon="5.98882">
        <ele>407</ele>
        <time>2021-07-25T12:21:38Z</time>
      </trkpt>
      <trkpt lat="43.89464" lon="5.98906">
        <ele>408</ele>
        <time>2021-07-25T12:21:41Z</time>
      </trkpt>
      <trkpt lat="43.89462" lon="5.98954">
        <ele>408</ele>
        <time>2021-07-25T12:21:47Z</time>
      </trkpt>
      <trkpt lat="43.89432" lon="5.99215">
        <ele>408</ele>
        <time>2021-07-25T12:22:21Z</time>
      </trkpt>
      <trkpt lat="43.89421" lon="5.99373">
        <ele>408</ele>
        <time>2021-07-25T12:22:42Z</time>
      </trkpt>
      <trkpt lat="43.89422" lon="5.99397">
        <ele>407</ele>
        <time>2021-07-25T12:22:45Z</time>
      </trkpt>
      <trkpt lat="43.89424" lon="5.99422">
        <ele>407</ele>
        <time>2021-07-25T12:22:48Z</time>
      </trkpt>
      <trkpt lat="43.89451" lon="5.99612">
        <ele>408</ele>
        <time>2021-07-25T12:23:13Z</time>
      </trkpt>
      <trkpt lat="43.89455" lon="5.99632">
        <ele>408</ele>
        <time>2021-07-25T12:23:15Z</time>
      </trkpt>
      <trkpt lat="43.89478" lon="5.99692">
        <ele>409</ele>
        <time>2021-07-25T12:23:24Z</time>
      </trkpt>
      <trkpt lat="43.89482" lon="5.99708">
        <ele>409</ele>
        <time>2021-07-25T12:23:26Z</time>
      </trkpt>
      <trkpt lat="43.89488" lon="5.99755">
        <ele>408</ele>
        <time>2021-07-25T12:23:32Z</time>
      </trkpt>
      <trkpt lat="43.89487" lon="5.99783">
        <ele>409</ele>
        <time>2021-07-25T12:23:36Z</time>
      </trkpt>
      <trkpt lat="43.89474" lon="5.99866">
        <ele>408</ele>
        <time>2021-07-25T12:23:47Z</time>
      </trkpt>
      <trkpt lat="43.89472" lon="5.99886">
        <ele>407</ele>
        <time>2021-07-25T12:23:50Z</time>
      </trkpt>
      <trkpt lat="43.89475" lon="5.99927">
        <ele>407</ele>
        <time>2021-07-25T12:23:55Z</time>
      </trkpt>
      <trkpt lat="43.89523" lon="6.00148">
        <ele>410</ele>
        <time>2021-07-25T12:24:24Z</time>
      </trkpt>
      <trkpt lat="43.89535" lon="6.00184">
        <ele>410</ele>
        <time>2021-07-25T12:24:30Z</time>
      </trkpt>
      <trkpt lat="43.89549" lon="6.00214">
        <ele>411</ele>
        <time>2021-07-25T12:24:34Z</time>
      </trkpt>
      <trkpt lat="43.89558" lon="6.00242">
        <ele>410</ele>
        <time>2021-07-25T12:24:38Z</time>
      </trkpt>
      <trkpt lat="43.89564" lon="6.00267">
        <ele>411</ele>
        <time>2021-07-25T12:24:41Z</time>
      </trkpt>
      <trkpt lat="43.89566" lon="6.00286">
        <ele>412</ele>
        <time>2021-07-25T12:24:44Z</time>
      </trkpt>
      <trkpt lat="43.89566" lon="6.00325">
        <ele>413</ele>
        <time>2021-07-25T12:24:49Z</time>
      </trkpt>
      <trkpt lat="43.89568" lon="6.00346">
        <ele>413</ele>
        <time>2021-07-25T12:24:52Z</time>
      </trkpt>
      <trkpt lat="43.89572" lon="6.00367">
        <ele>413</ele>
        <time>2021-07-25T12:24:54Z</time>
      </trkpt>
      <trkpt lat="43.89593" lon="6.00452">
        <ele>412</ele>
        <time>2021-07-25T12:25:06Z</time>
      </trkpt>
      <trkpt lat="43.89608" lon="6.00544">
        <ele>411</ele>
        <time>2021-07-25T12:25:18Z</time>
      </trkpt>
      <trkpt lat="43.8963" lon="6.00637">
        <ele>414</ele>
        <time>2021-07-25T12:25:31Z</time>
      </trkpt>
      <trkpt lat="43.89651" lon="6.00708">
        <ele>414</ele>
        <time>2021-07-25T12:25:40Z</time>
      </trkpt>
      <trkpt lat="43.89657" lon="6.00731">
        <ele>413</ele>
        <time>2021-07-25T12:25:44Z</time>
      </trkpt>
      <trkpt lat="43.89661" lon="6.00751">
        <ele>412</ele>
        <time>2021-07-25T12:25:46Z</time>
      </trkpt>
      <trkpt lat="43.89671" lon="6.00827">
        <ele>415</ele>
        <time>2021-07-25T12:25:56Z</time>
      </trkpt>
      <trkpt lat="43.89695" lon="6.00975">
        <ele>414</ele>
        <time>2021-07-25T12:26:16Z</time>
      </trkpt>
      <trkpt lat="43.89741" lon="6.01211">
        <ele>414</ele>
        <time>2021-07-25T12:26:47Z</time>
      </trkpt>
      <trkpt lat="43.89747" lon="6.01241">
        <ele>415</ele>
        <time>2021-07-25T12:26:51Z</time>
      </trkpt>
      <trkpt lat="43.8976" lon="6.01303">
        <ele>416</ele>
        <time>2021-07-25T12:26:59Z</time>
      </trkpt>
      <trkpt lat="43.89767" lon="6.01327">
        <ele>417</ele>
        <time>2021-07-25T12:27:02Z</time>
      </trkpt>
      <trkpt lat="43.89801" lon="6.01413">
        <ele>420</ele>
        <time>2021-07-25T12:27:15Z</time>
      </trkpt>
      <trkpt lat="43.89872" lon="6.01646">
        <ele>418</ele>
        <time>2021-07-25T12:27:47Z</time>
      </trkpt>
      <trkpt lat="43.899" lon="6.01764">
        <ele>421</ele>
        <time>2021-07-25T12:28:03Z</time>
      </trkpt>
      <trkpt lat="43.89942" lon="6.01901">
        <ele>420</ele>
        <time>2021-07-25T12:28:23Z</time>
      </trkpt>
      <trkpt lat="43.89982" lon="6.02043">
        <ele>423</ele>
        <time>2021-07-25T12:28:42Z</time>
      </trkpt>
      <trkpt lat="43.8999" lon="6.02065">
        <ele>424</ele>
        <time>2021-07-25T12:28:45Z</time>
      </trkpt>
      <trkpt lat="43.90024" lon="6.02151">
        <ele>427</ele>
        <time>2021-07-25T12:28:58Z</time>
      </trkpt>
      <trkpt lat="43.90082" lon="6.02336">
        <ele>424</ele>
        <time>2021-07-25T12:29:24Z</time>
      </trkpt>
      <trkpt lat="43.90089" lon="6.02359">
        <ele>423</ele>
        <time>2021-07-25T12:29:27Z</time>
      </trkpt>
      <trkpt lat="43.90105" lon="6.0246">
        <ele>420</ele>
        <time>2021-07-25T12:29:40Z</time>
      </trkpt>
      <trkpt lat="43.90112" lon="6.02488">
        <ele>421</ele>
        <time>2021-07-25T12:29:44Z</time>
      </trkpt>
      <trkpt lat="43.9014" lon="6.02571">
        <ele>423</ele>
        <time>2021-07-25T12:29:56Z</time>
      </trkpt>
      <trkpt lat="43.90149" lon="6.02615">
        <ele>422</ele>
        <time>2021-07-25T12:30:02Z</time>
      </trkpt>
      <trkpt lat="43.90174" lon="6.02765">
        <ele>419</ele>
        <time>2021-07-25T12:30:21Z</time>
      </trkpt>
      <trkpt lat="43.90185" lon="6.02822">
        <ele>418</ele>
        <time>2021-07-25T12:30:29Z</time>
      </trkpt>
      <trkpt lat="43.90243" lon="6.03015">
        <ele>418</ele>
        <time>2021-07-25T12:30:56Z</time>
      </trkpt>
      <trkpt lat="43.90249" lon="6.03031">
        <ele>418</ele>
        <time>2021-07-25T12:30:58Z</time>
      </trkpt>
      <trkpt lat="43.90265" lon="6.03057">
        <ele>417</ele>
        <time>2021-07-25T12:31:02Z</time>
      </trkpt>
      <trkpt lat="43.90274" lon="6.03067">
        <ele>418</ele>
        <time>2021-07-25T12:31:04Z</time>
      </trkpt>
      <trkpt lat="43.90287" lon="6.03077">
        <ele>418</ele>
        <time>2021-07-25T12:31:07Z</time>
      </trkpt>
      <trkpt lat="43.90308" lon="6.03084">
        <ele>420</ele>
        <time>2021-07-25T12:31:11Z</time>
      </trkpt>
      <trkpt lat="43.90319" lon="6.03085">
        <ele>421</ele>
        <time>2021-07-25T12:31:13Z</time>
      </trkpt>
      <trkpt lat="43.90348" lon="6.03079">
        <ele>423</ele>
        <time>2021-07-25T12:31:18Z</time>
      </trkpt>
      <trkpt lat="43.90357" lon="6.03079">
        <ele>424</ele>
        <time>2021-07-25T12:31:20Z</time>
      </trkpt>
      <trkpt lat="43.90369" lon="6.03084">
        <ele>424</ele>
        <time>2021-07-25T12:31:22Z</time>
      </trkpt>
      <trkpt lat="43.90372" lon="6.03089">
        <ele>424</ele>
        <time>2021-07-25T12:31:23Z</time>
      </trkpt>
      <trkpt lat="43.90379" lon="6.03114">
        <ele>424</ele>
        <time>2021-07-25T12:31:26Z</time>
      </trkpt>
      <trkpt lat="43.90378" lon="6.03128">
        <ele>424</ele>
        <time>2021-07-25T12:31:28Z</time>
      </trkpt>
      <trkpt lat="43.90375" lon="6.03135">
        <ele>424</ele>
        <time>2021-07-25T12:31:29Z</time>
      </trkpt>
      <trkpt lat="43.9037" lon="6.03143">
        <ele>423</ele>
        <time>2021-07-25T12:31:30Z</time>
      </trkpt>
      <trkpt lat="43.90346" lon="6.0316">
        <ele>421</ele>
        <time>2021-07-25T12:31:35Z</time>
      </trkpt>
      <trkpt lat="43.9034" lon="6.03167">
        <ele>420</ele>
        <time>2021-07-25T12:31:37Z</time>
      </trkpt>
      <trkpt lat="43.90336" lon="6.03174">
        <ele>419</ele>
        <time>2021-07-25T12:31:38Z</time>
      </trkpt>
      <trkpt lat="43.90334" lon="6.03184">
        <ele>419</ele>
        <time>2021-07-25T12:31:39Z</time>
      </trkpt>
      <trkpt lat="43.90333" lon="6.03194">
        <ele>419</ele>
        <time>2021-07-25T12:31:40Z</time>
      </trkpt>
      <trkpt lat="43.90334" lon="6.03205">
        <ele>419</ele>
        <time>2021-07-25T12:31:42Z</time>
      </trkpt>
      <trkpt lat="43.90338" lon="6.03217">
        <ele>419</ele>
        <time>2021-07-25T12:31:43Z</time>
      </trkpt>
      <trkpt lat="43.90359" lon="6.03276">
        <ele>420</ele>
        <time>2021-07-25T12:31:52Z</time>
      </trkpt>
      <trkpt lat="43.90396" lon="6.03394">
        <ele>418</ele>
        <time>2021-07-25T12:32:08Z</time>
      </trkpt>
      <trkpt lat="43.90412" lon="6.03437">
        <ele>418</ele>
        <time>2021-07-25T12:32:15Z</time>
      </trkpt>
      <trkpt lat="43.90468" lon="6.03565">
        <ele>416</ele>
        <time>2021-07-25T12:32:34Z</time>
      </trkpt>
      <trkpt lat="43.90536" lon="6.03711">
        <ele>418</ele>
        <time>2021-07-25T12:32:56Z</time>
      </trkpt>
      <trkpt lat="43.90557" lon="6.03765">
        <ele>418</ele>
        <time>2021-07-25T12:33:04Z</time>
      </trkpt>
      <trkpt lat="43.90612" lon="6.03928">
        <ele>421</ele>
        <time>2021-07-25T12:33:27Z</time>
      </trkpt>
      <trkpt lat="43.90653" lon="6.04056">
        <ele>423</ele>
        <time>2021-07-25T12:33:45Z</time>
      </trkpt>
      <trkpt lat="43.90713" lon="6.04216">
        <ele>424</ele>
        <time>2021-07-25T12:34:08Z</time>
      </trkpt>
      <trkpt lat="43.90728" lon="6.04262">
        <ele>422</ele>
        <time>2021-07-25T12:34:15Z</time>
      </trkpt>
      <trkpt lat="43.90749" lon="6.04337">
        <ele>420</ele>
        <time>2021-07-25T12:34:25Z</time>
      </trkpt>
      <trkpt lat="43.90766" lon="6.04389">
        <ele>420</ele>
        <time>2021-07-25T12:34:32Z</time>
      </trkpt>
      <trkpt lat="43.90835" lon="6.04578">
        <ele>421</ele>
        <time>2021-07-25T12:34:59Z</time>
      </trkpt>
      <trkpt lat="43.9092" lon="6.048">
        <ele>424</ele>
        <time>2021-07-25T12:35:32Z</time>
      </trkpt>
      <trkpt lat="43.90936" lon="6.04854">
        <ele>426</ele>
        <time>2021-07-25T12:35:39Z</time>
      </trkpt>
      <trkpt lat="43.90991" lon="6.05073">
        <ele>429</ele>
        <time>2021-07-25T12:36:09Z</time>
      </trkpt>
      <trkpt lat="43.91006" lon="6.05126">
        <ele>431</ele>
        <time>2021-07-25T12:36:16Z</time>
      </trkpt>
      <trkpt lat="43.91055" lon="6.05266">
        <ele>435</ele>
        <time>2021-07-25T12:36:36Z</time>
      </trkpt>
      <trkpt lat="43.91092" lon="6.0535">
        <ele>437</ele>
        <time>2021-07-25T12:36:49Z</time>
      </trkpt>
      <trkpt lat="43.911" lon="6.05373">
        <ele>437</ele>
        <time>2021-07-25T12:36:52Z</time>
      </trkpt>
      <trkpt lat="43.91106" lon="6.05397">
        <ele>436</ele>
        <time>2021-07-25T12:36:55Z</time>
      </trkpt>
      <trkpt lat="43.91156" lon="6.05641">
        <ele>435</ele>
        <time>2021-07-25T12:37:28Z</time>
      </trkpt>
      <trkpt lat="43.91163" lon="6.05667">
        <ele>436</ele>
        <time>2021-07-25T12:37:31Z</time>
      </trkpt>
      <trkpt lat="43.91199" lon="6.05775">
        <ele>438</ele>
        <time>2021-07-25T12:37:47Z</time>
      </trkpt>
      <trkpt lat="43.91244" lon="6.05911">
        <ele>440</ele>
        <time>2021-07-25T12:38:06Z</time>
      </trkpt>
      <trkpt lat="43.9125" lon="6.05935">
        <ele>441</ele>
        <time>2021-07-25T12:38:09Z</time>
      </trkpt>
      <trkpt lat="43.91253" lon="6.0596">
        <ele>441</ele>
        <time>2021-07-25T12:38:12Z</time>
      </trkpt>
      <trkpt lat="43.91254" lon="6.05984">
        <ele>441</ele>
        <time>2021-07-25T12:38:15Z</time>
      </trkpt>
      <trkpt lat="43.91252" lon="6.06033">
        <ele>440</ele>
        <time>2021-07-25T12:38:22Z</time>
      </trkpt>
      <trkpt lat="43.91254" lon="6.06107">
        <ele>443</ele>
        <time>2021-07-25T12:38:31Z</time>
      </trkpt>
      <trkpt lat="43.9125" lon="6.06242">
        <ele>442</ele>
        <time>2021-07-25T12:38:48Z</time>
      </trkpt>
      <trkpt lat="43.91251" lon="6.06264">
        <ele>442</ele>
        <time>2021-07-25T12:38:51Z</time>
      </trkpt>
      <trkpt lat="43.91255" lon="6.06311">
        <ele>442</ele>
        <time>2021-07-25T12:38:57Z</time>
      </trkpt>
      <trkpt lat="43.91274" lon="6.06458">
        <ele>443</ele>
        <time>2021-07-25T12:39:16Z</time>
      </trkpt>
      <trkpt lat="43.91278" lon="6.06483">
        <ele>443</ele>
        <time>2021-07-25T12:39:20Z</time>
      </trkpt>
      <trkpt lat="43.91299" lon="6.06577">
        <ele>446</ele>
        <time>2021-07-25T12:39:32Z</time>
      </trkpt>
      <trkpt lat="43.91312" lon="6.06672">
        <ele>449</ele>
        <time>2021-07-25T12:39:45Z</time>
      </trkpt>
      <trkpt lat="43.91314" lon="6.06689">
        <ele>448</ele>
        <time>2021-07-25T12:39:47Z</time>
      </trkpt>
      <trkpt lat="43.91328" lon="6.06809">
        <ele>450</ele>
        <time>2021-07-25T12:40:03Z</time>
      </trkpt>
      <trkpt lat="43.91331" lon="6.06862">
        <ele>452</ele>
        <time>2021-07-25T12:40:09Z</time>
      </trkpt>
      <trkpt lat="43.91333" lon="6.06968">
        <ele>454</ele>
        <time>2021-07-25T12:40:23Z</time>
      </trkpt>
      <trkpt lat="43.91337" lon="6.07022">
        <ele>454</ele>
        <time>2021-07-25T12:40:30Z</time>
      </trkpt>
      <trkpt lat="43.91346" lon="6.07126">
        <ele>453</ele>
        <time>2021-07-25T12:40:43Z</time>
      </trkpt>
      <trkpt lat="43.91353" lon="6.0717">
        <ele>452</ele>
        <time>2021-07-25T12:40:49Z</time>
      </trkpt>
      <trkpt lat="43.91379" lon="6.07284">
        <ele>455</ele>
        <time>2021-07-25T12:41:04Z</time>
      </trkpt>
      <trkpt lat="43.914" lon="6.07369">
        <ele>457</ele>
        <time>2021-07-25T12:41:16Z</time>
      </trkpt>
      <trkpt lat="43.91403" lon="6.07385">
        <ele>457</ele>
        <time>2021-07-25T12:41:18Z</time>
      </trkpt>
      <trkpt lat="43.91407" lon="6.07476">
        <ele>456</ele>
        <time>2021-07-25T12:41:30Z</time>
      </trkpt>
      <trkpt lat="43.91407" lon="6.07495">
        <ele>456</ele>
        <time>2021-07-25T12:41:32Z</time>
      </trkpt>
      <trkpt lat="43.91406" lon="6.07511">
        <ele>455</ele>
        <time>2021-07-25T12:41:34Z</time>
      </trkpt>
      <trkpt lat="43.91398" lon="6.07542">
        <ele>454</ele>
        <time>2021-07-25T12:41:38Z</time>
      </trkpt>
      <trkpt lat="43.91396" lon="6.07568">
        <ele>454</ele>
        <time>2021-07-25T12:41:42Z</time>
      </trkpt>
      <trkpt lat="43.91397" lon="6.07582">
        <ele>455</ele>
        <time>2021-07-25T12:41:44Z</time>
      </trkpt>
      <trkpt lat="43.91409" lon="6.0763">
        <ele>457</ele>
        <time>2021-07-25T12:41:50Z</time>
      </trkpt>
      <trkpt lat="43.91412" lon="6.07664">
        <ele>457</ele>
        <time>2021-07-25T12:41:54Z</time>
      </trkpt>
      <trkpt lat="43.91412" lon="6.07683">
        <ele>457</ele>
        <time>2021-07-25T12:41:57Z</time>
      </trkpt>
      <trkpt lat="43.914" lon="6.07793">
        <ele>455</ele>
        <time>2021-07-25T12:42:11Z</time>
      </trkpt>
      <trkpt lat="43.91399" lon="6.07815">
        <ele>454</ele>
        <time>2021-07-25T12:42:14Z</time>
      </trkpt>
      <trkpt lat="43.91401" lon="6.07857">
        <ele>454</ele>
        <time>2021-07-25T12:42:19Z</time>
      </trkpt>
      <trkpt lat="43.91404" lon="6.07877">
        <ele>455</ele>
        <time>2021-07-25T12:42:22Z</time>
      </trkpt>
      <trkpt lat="43.91418" lon="6.07939">
        <ele>456</ele>
        <time>2021-07-25T12:42:30Z</time>
      </trkpt>
      <trkpt lat="43.91426" lon="6.07986">
        <ele>457</ele>
        <time>2021-07-25T12:42:37Z</time>
      </trkpt>
      <trkpt lat="43.91438" lon="6.08054">
        <ele>459</ele>
        <time>2021-07-25T12:42:46Z</time>
      </trkpt>
      <trkpt lat="43.91444" lon="6.08099">
        <ele>461</ele>
        <time>2021-07-25T12:42:51Z</time>
      </trkpt>
      <trkpt lat="43.91444" lon="6.08122">
        <ele>462</ele>
        <time>2021-07-25T12:42:54Z</time>
      </trkpt>
      <trkpt lat="43.91442" lon="6.08145">
        <ele>461</ele>
        <time>2021-07-25T12:42:57Z</time>
      </trkpt>
      <trkpt lat="43.9143" lon="6.08238">
        <ele>456</ele>
        <time>2021-07-25T12:43:09Z</time>
      </trkpt>
      <trkpt lat="43.9143" lon="6.08281">
        <ele>456</ele>
        <time>2021-07-25T12:43:15Z</time>
      </trkpt>
      <trkpt lat="43.91434" lon="6.08302">
        <ele>456</ele>
        <time>2021-07-25T12:43:18Z</time>
      </trkpt>
      <trkpt lat="43.91445" lon="6.08343">
        <ele>457</ele>
        <time>2021-07-25T12:43:23Z</time>
      </trkpt>
      <trkpt lat="43.91538" lon="6.08673">
        <ele>461</ele>
        <time>2021-07-25T12:44:09Z</time>
      </trkpt>
      <trkpt lat="43.91551" lon="6.08724">
        <ele>462</ele>
        <time>2021-07-25T12:44:16Z</time>
      </trkpt>
      <trkpt lat="43.9156" lon="6.0878">
        <ele>462</ele>
        <time>2021-07-25T12:44:23Z</time>
      </trkpt>
      <trkpt lat="43.91585" lon="6.08959">
        <ele>462</ele>
        <time>2021-07-25T12:44:46Z</time>
      </trkpt>
      <trkpt lat="43.91586" lon="6.08981">
        <ele>462</ele>
        <time>2021-07-25T12:44:49Z</time>
      </trkpt>
      <trkpt lat="43.91585" lon="6.09001">
        <ele>461</ele>
        <time>2021-07-25T12:44:52Z</time>
      </trkpt>
      <trkpt lat="43.91582" lon="6.0902">
        <ele>461</ele>
        <time>2021-07-25T12:44:54Z</time>
      </trkpt>
      <trkpt lat="43.9157" lon="6.09053">
        <ele>460</ele>
        <time>2021-07-25T12:44:59Z</time>
      </trkpt>
      <trkpt lat="43.91528" lon="6.09139">
        <ele>459</ele>
        <time>2021-07-25T12:45:12Z</time>
      </trkpt>
      <trkpt lat="43.91512" lon="6.09183">
        <ele>459</ele>
        <time>2021-07-25T12:45:19Z</time>
      </trkpt>
      <trkpt lat="43.91508" lon="6.09199">
        <ele>459</ele>
        <time>2021-07-25T12:45:21Z</time>
      </trkpt>
      <trkpt lat="43.91505" lon="6.09247">
        <ele>459</ele>
        <time>2021-07-25T12:45:27Z</time>
      </trkpt>
      <trkpt lat="43.91506" lon="6.09268">
        <ele>459</ele>
        <time>2021-07-25T12:45:30Z</time>
      </trkpt>
      <trkpt lat="43.91509" lon="6.09297">
        <ele>460</ele>
        <time>2021-07-25T12:45:33Z</time>
      </trkpt>
      <trkpt lat="43.91513" lon="6.0931">
        <ele>460</ele>
        <time>2021-07-25T12:45:35Z</time>
      </trkpt>
      <trkpt lat="43.91524" lon="6.0933">
        <ele>460</ele>
        <time>2021-07-25T12:45:38Z</time>
      </trkpt>
      <trkpt lat="43.91583" lon="6.09386">
        <ele>461</ele>
        <time>2021-07-25T12:45:51Z</time>
      </trkpt>
      <trkpt lat="43.91591" lon="6.09396">
        <ele>462</ele>
        <time>2021-07-25T12:45:53Z</time>
      </trkpt>
      <trkpt lat="43.91596" lon="6.09405">
        <ele>462</ele>
        <time>2021-07-25T12:45:55Z</time>
      </trkpt>
      <trkpt lat="43.91604" lon="6.09428">
        <ele>463</ele>
        <time>2021-07-25T12:45:58Z</time>
      </trkpt>
      <trkpt lat="43.91607" lon="6.09454">
        <ele>463</ele>
        <time>2021-07-25T12:46:01Z</time>
      </trkpt>
      <trkpt lat="43.91611" lon="6.09498">
        <ele>462</ele>
        <time>2021-07-25T12:46:07Z</time>
      </trkpt>
      <trkpt lat="43.91609" lon="6.09532">
        <ele>462</ele>
        <time>2021-07-25T12:46:11Z</time>
      </trkpt>
      <trkpt lat="43.91603" lon="6.09584">
        <ele>460</ele>
        <time>2021-07-25T12:46:18Z</time>
      </trkpt>
      <trkpt lat="43.91603" lon="6.09617">
        <ele>460</ele>
        <time>2021-07-25T12:46:22Z</time>
      </trkpt>
      <trkpt lat="43.9161" lon="6.09681">
        <ele>461</ele>
        <time>2021-07-25T12:46:31Z</time>
      </trkpt>
      <trkpt lat="43.91616" lon="6.09714">
        <ele>462</ele>
        <time>2021-07-25T12:46:35Z</time>
      </trkpt>
      <trkpt lat="43.91656" lon="6.09898">
        <ele>464</ele>
        <time>2021-07-25T12:47:00Z</time>
      </trkpt>
      <trkpt lat="43.91682" lon="6.10038">
        <ele>470</ele>
        <time>2021-07-25T12:47:18Z</time>
      </trkpt>
      <trkpt lat="43.91684" lon="6.10063">
        <ele>471</ele>
        <time>2021-07-25T12:47:21Z</time>
      </trkpt>
      <trkpt lat="43.91676" lon="6.10133">
        <ele>469</ele>
        <time>2021-07-25T12:47:30Z</time>
      </trkpt>
      <trkpt lat="43.91675" lon="6.10165">
        <ele>468</ele>
        <time>2021-07-25T12:47:35Z</time>
      </trkpt>
      <trkpt lat="43.91677" lon="6.10183">
        <ele>468</ele>
        <time>2021-07-25T12:47:37Z</time>
      </trkpt>
      <trkpt lat="43.9169" lon="6.10238">
        <ele>470</ele>
        <time>2021-07-25T12:47:44Z</time>
      </trkpt>
      <trkpt lat="43.91697" lon="6.10284">
        <ele>472</ele>
        <time>2021-07-25T12:47:50Z</time>
      </trkpt>
      <trkpt lat="43.91702" lon="6.10469">
        <ele>475</ele>
        <time>2021-07-25T12:48:14Z</time>
      </trkpt>
      <trkpt lat="43.91708" lon="6.10552">
        <ele>473</ele>
        <time>2021-07-25T12:48:25Z</time>
      </trkpt>
      <trkpt lat="43.9172" lon="6.10667">
        <ele>470</ele>
        <time>2021-07-25T12:48:40Z</time>
      </trkpt>
      <trkpt lat="43.91728" lon="6.10697">
        <ele>469</ele>
        <time>2021-07-25T12:48:44Z</time>
      </trkpt>
      <trkpt lat="43.91734" lon="6.10713">
        <ele>469</ele>
        <time>2021-07-25T12:48:46Z</time>
      </trkpt>
      <trkpt lat="43.91744" lon="6.10733">
        <ele>469</ele>
        <time>2021-07-25T12:48:49Z</time>
      </trkpt>
      <trkpt lat="43.91754" lon="6.10748">
        <ele>469</ele>
        <time>2021-07-25T12:48:52Z</time>
      </trkpt>
      <trkpt lat="43.91778" lon="6.10778">
        <ele>473</ele>
        <time>2021-07-25T12:48:57Z</time>
      </trkpt>
      <trkpt lat="43.91795" lon="6.10803">
        <ele>475</ele>
        <time>2021-07-25T12:49:02Z</time>
      </trkpt>
      <trkpt lat="43.91802" lon="6.10817">
        <ele>475</ele>
        <time>2021-07-25T12:49:04Z</time>
      </trkpt>
      <trkpt lat="43.91813" lon="6.10847">
        <ele>475</ele>
        <time>2021-07-25T12:49:08Z</time>
      </trkpt>
      <trkpt lat="43.91898" lon="6.11129">
        <ele>472</ele>
        <time>2021-07-25T12:49:48Z</time>
      </trkpt>
      <trkpt lat="43.91905" lon="6.1115">
        <ele>473</ele>
        <time>2021-07-25T12:49:51Z</time>
      </trkpt>
      <trkpt lat="43.91917" lon="6.11173">
        <ele>473</ele>
        <time>2021-07-25T12:49:54Z</time>
      </trkpt>
      <trkpt lat="43.91933" lon="6.11196">
        <ele>474</ele>
        <time>2021-07-25T12:49:58Z</time>
      </trkpt>
      <trkpt lat="43.9195" lon="6.11213">
        <ele>474</ele>
        <time>2021-07-25T12:50:02Z</time>
      </trkpt>
      <trkpt lat="43.91967" lon="6.11227">
        <ele>475</ele>
        <time>2021-07-25T12:50:06Z</time>
      </trkpt>
      <trkpt lat="43.92007" lon="6.1125">
        <ele>479</ele>
        <time>2021-07-25T12:50:13Z</time>
      </trkpt>
      <trkpt lat="43.92033" lon="6.11272">
        <ele>482</ele>
        <time>2021-07-25T12:50:19Z</time>
      </trkpt>
      <trkpt lat="43.92047" lon="6.11288">
        <ele>483</ele>
        <time>2021-07-25T12:50:22Z</time>
      </trkpt>
      <trkpt lat="43.92054" lon="6.113">
        <ele>483</ele>
        <time>2021-07-25T12:50:24Z</time>
      </trkpt>
      <trkpt lat="43.92129" lon="6.1146">
        <ele>485</ele>
        <time>2021-07-25T12:50:48Z</time>
      </trkpt>
      <trkpt lat="43.9215" lon="6.11509">
        <ele>488</ele>
        <time>2021-07-25T12:50:56Z</time>
      </trkpt>
      <trkpt lat="43.92168" lon="6.11561">
        <ele>485</ele>
        <time>2021-07-25T12:51:03Z</time>
      </trkpt>
      <trkpt lat="43.9219" lon="6.11627">
        <ele>485</ele>
        <time>2021-07-25T12:51:12Z</time>
      </trkpt>
      <trkpt lat="43.92221" lon="6.11697">
        <ele>487</ele>
        <time>2021-07-25T12:51:23Z</time>
      </trkpt>
      <trkpt lat="43.92232" lon="6.11731">
        <ele>487</ele>
        <time>2021-07-25T12:51:28Z</time>
      </trkpt>
      <trkpt lat="43.92235" lon="6.11757">
        <ele>484</ele>
        <time>2021-07-25T12:51:31Z</time>
      </trkpt>
      <trkpt lat="43.92242" lon="6.11781">
        <ele>483</ele>
        <time>2021-07-25T12:51:34Z</time>
      </trkpt>
      <trkpt lat="43.92271" lon="6.11843">
        <ele>485</ele>
        <time>2021-07-25T12:51:44Z</time>
      </trkpt>
      <trkpt lat="43.92283" lon="6.1188">
        <ele>484</ele>
        <time>2021-07-25T12:51:49Z</time>
      </trkpt>
      <trkpt lat="43.92297" lon="6.11928">
        <ele>480</ele>
        <time>2021-07-25T12:51:56Z</time>
      </trkpt>
      <trkpt lat="43.92316" lon="6.12005">
        <ele>476</ele>
        <time>2021-07-25T12:52:06Z</time>
      </trkpt>
      <trkpt lat="43.92329" lon="6.12034">
        <ele>476</ele>
        <time>2021-07-25T12:52:10Z</time>
      </trkpt>
      <trkpt lat="43.9236" lon="6.1212">
        <ele>476</ele>
        <time>2021-07-25T12:52:23Z</time>
      </trkpt>
      <trkpt lat="43.92369" lon="6.12142">
        <ele>476</ele>
        <time>2021-07-25T12:52:26Z</time>
      </trkpt>
      <trkpt lat="43.92425" lon="6.12255">
        <ele>477</ele>
        <time>2021-07-25T12:52:44Z</time>
      </trkpt>
      <trkpt lat="43.9251" lon="6.12442">
        <ele>481</ele>
        <time>2021-07-25T12:53:12Z</time>
      </trkpt>
      <trkpt lat="43.92516" lon="6.12461">
        <ele>481</ele>
        <time>2021-07-25T12:53:15Z</time>
      </trkpt>
      <trkpt lat="43.92519" lon="6.1248">
        <ele>481</ele>
        <time>2021-07-25T12:53:17Z</time>
      </trkpt>
      <trkpt lat="43.92522" lon="6.12523">
        <ele>482</ele>
        <time>2021-07-25T12:53:23Z</time>
      </trkpt>
      <trkpt lat="43.9252" lon="6.12546">
        <ele>482</ele>
        <time>2021-07-25T12:53:26Z</time>
      </trkpt>
      <trkpt lat="43.92515" lon="6.1258">
        <ele>482</ele>
        <time>2021-07-25T12:53:30Z</time>
      </trkpt>
      <trkpt lat="43.92512" lon="6.1259">
        <ele>481</ele>
        <time>2021-07-25T12:53:31Z</time>
      </trkpt>
      <trkpt lat="43.92494" lon="6.12629">
        <ele>480</ele>
        <time>2021-07-25T12:53:37Z</time>
      </trkpt>
      <trkpt lat="43.92454" lon="6.12697">
        <ele>478</ele>
        <time>2021-07-25T12:53:49Z</time>
      </trkpt>
      <trkpt lat="43.92379" lon="6.12836">
        <ele>475</ele>
        <time>2021-07-25T12:54:11Z</time>
      </trkpt>
      <trkpt lat="43.92327" lon="6.12929">
        <ele>474</ele>
        <time>2021-07-25T12:54:26Z</time>
      </trkpt>
      <trkpt lat="43.92264" lon="6.13041">
        <ele>476</ele>
        <time>2021-07-25T12:54:44Z</time>
      </trkpt>
      <trkpt lat="43.92262" lon="6.13045">
        <ele>476</ele>
        <time>2021-07-25T12:54:45Z</time>
      </trkpt>
      <trkpt lat="43.92188" lon="6.1318">
        <ele>476</ele>
        <time>2021-07-25T12:55:07Z</time>
      </trkpt>
      <trkpt lat="43.92193" lon="6.13189">
        <ele>476</ele>
        <time>2021-07-25T12:55:08Z</time>
      </trkpt>
      <trkpt lat="43.92208" lon="6.13251">
        <ele>475</ele>
        <time>2021-07-25T12:55:16Z</time>
      </trkpt>
      <trkpt lat="43.92207" lon="6.13275">
        <ele>475</ele>
        <time>2021-07-25T12:55:19Z</time>
      </trkpt>
      <trkpt lat="43.92194" lon="6.13337">
        <ele>476</ele>
        <time>2021-07-25T12:55:28Z</time>
      </trkpt>
      <trkpt lat="43.92186" lon="6.13388">
        <ele>479</ele>
        <time>2021-07-25T12:55:34Z</time>
      </trkpt>
      <trkpt lat="43.92177" lon="6.13415">
        <ele>481</ele>
        <time>2021-07-25T12:55:38Z</time>
      </trkpt>
      <trkpt lat="43.92174" lon="6.13421">
        <ele>482</ele>
        <time>2021-07-25T12:55:39Z</time>
      </trkpt>
      <trkpt lat="43.92169" lon="6.13441">
        <ele>483</ele>
        <time>2021-07-25T12:55:42Z</time>
      </trkpt>
      <trkpt lat="43.92143" lon="6.13482">
        <ele>486</ele>
        <time>2021-07-25T12:55:49Z</time>
      </trkpt>
      <trkpt lat="43.92152" lon="6.13484">
        <ele>486</ele>
        <time>2021-07-25T12:55:51Z</time>
      </trkpt>
      <trkpt lat="43.92162" lon="6.13493">
        <ele>487</ele>
        <time>2021-07-25T12:55:53Z</time>
      </trkpt>
      <trkpt lat="43.9217" lon="6.13512">
        <ele>487</ele>
        <time>2021-07-25T12:55:55Z</time>
      </trkpt>
      <trkpt lat="43.92176" lon="6.13535">
        <ele>486</ele>
        <time>2021-07-25T12:55:59Z</time>
      </trkpt>
      <trkpt lat="43.92178" lon="6.13544">
        <ele>486</ele>
        <time>2021-07-25T12:56:00Z</time>
      </trkpt>
      <trkpt lat="43.92182" lon="6.13564">
        <ele>486</ele>
        <time>2021-07-25T12:56:02Z</time>
      </trkpt>
      <trkpt lat="43.92187" lon="6.13589">
        <ele>486</ele>
        <time>2021-07-25T12:56:06Z</time>
      </trkpt>
      <trkpt lat="43.9219" lon="6.13606">
        <ele>486</ele>
        <time>2021-07-25T12:56:08Z</time>
      </trkpt>
      <trkpt lat="43.922" lon="6.13662">
        <ele>485</ele>
        <time>2021-07-25T12:56:15Z</time>
      </trkpt>
      <trkpt lat="43.922" lon="6.13664">
        <ele>485</ele>
        <time>2021-07-25T12:56:16Z</time>
      </trkpt>
      <trkpt lat="43.92211" lon="6.13733">
        <ele>486</ele>
        <time>2021-07-25T12:56:25Z</time>
      </trkpt>
      <trkpt lat="43.92214" lon="6.13755">
        <ele>486</ele>
        <time>2021-07-25T12:56:28Z</time>
      </trkpt>
      <trkpt lat="43.9222" lon="6.13793">
        <ele>486</ele>
        <time>2021-07-25T12:56:33Z</time>
      </trkpt>
      <trkpt lat="43.92228" lon="6.13826">
        <ele>486</ele>
        <time>2021-07-25T12:56:37Z</time>
      </trkpt>
      <trkpt lat="43.92241" lon="6.1385">
        <ele>486</ele>
        <time>2021-07-25T12:56:41Z</time>
      </trkpt>
      <trkpt lat="43.9225" lon="6.13863">
        <ele>486</ele>
        <time>2021-07-25T12:56:43Z</time>
      </trkpt>
      <trkpt lat="43.92254" lon="6.13868">
        <ele>486</ele>
        <time>2021-07-25T12:56:44Z</time>
      </trkpt>
      <trkpt lat="43.92265" lon="6.13881">
        <ele>486</ele>
        <time>2021-07-25T12:56:47Z</time>
      </trkpt>
      <trkpt lat="43.92338" lon="6.13964">
        <ele>488</ele>
        <time>2021-07-25T12:57:04Z</time>
      </trkpt>
      <trkpt lat="43.92361" lon="6.13992">
        <ele>489</ele>
        <time>2021-07-25T12:57:09Z</time>
      </trkpt>
      <trkpt lat="43.92408" lon="6.14055">
        <ele>489</ele>
        <time>2021-07-25T12:57:21Z</time>
      </trkpt>
      <trkpt lat="43.92421" lon="6.14069">
        <ele>489</ele>
        <time>2021-07-25T12:57:24Z</time>
      </trkpt>
      <trkpt lat="43.92434" lon="6.14082">
        <ele>489</ele>
        <time>2021-07-25T12:57:26Z</time>
      </trkpt>
      <trkpt lat="43.92449" lon="6.14089">
        <ele>489</ele>
        <time>2021-07-25T12:57:29Z</time>
      </trkpt>
      <trkpt lat="43.92462" lon="6.14094">
        <ele>489</ele>
        <time>2021-07-25T12:57:32Z</time>
      </trkpt>
      <trkpt lat="43.92609" lon="6.14108">
        <ele>491</ele>
        <time>2021-07-25T12:57:58Z</time>
      </trkpt>
      <trkpt lat="43.92646" lon="6.14115">
        <ele>491</ele>
        <time>2021-07-25T12:58:04Z</time>
      </trkpt>
      <trkpt lat="43.92658" lon="6.14119">
        <ele>492</ele>
        <time>2021-07-25T12:58:07Z</time>
      </trkpt>
      <trkpt lat="43.92684" lon="6.14131">
        <ele>492</ele>
        <time>2021-07-25T12:58:12Z</time>
      </trkpt>
      <trkpt lat="43.927" lon="6.14142">
        <ele>493</ele>
        <time>2021-07-25T12:58:15Z</time>
      </trkpt>
      <trkpt lat="43.92755" lon="6.14188">
        <ele>495</ele>
        <time>2021-07-25T12:58:26Z</time>
      </trkpt>
      <trkpt lat="43.92776" lon="6.14208">
        <ele>495</ele>
        <time>2021-07-25T12:58:31Z</time>
      </trkpt>
      <trkpt lat="43.92796" lon="6.14229">
        <ele>496</ele>
        <time>2021-07-25T12:58:35Z</time>
      </trkpt>
      <trkpt lat="43.92804" lon="6.1424">
        <ele>496</ele>
        <time>2021-07-25T12:58:37Z</time>
      </trkpt>
      <trkpt lat="43.92812" lon="6.14251">
        <ele>497</ele>
        <time>2021-07-25T12:58:39Z</time>
      </trkpt>
      <trkpt lat="43.92832" lon="6.14288">
        <ele>497</ele>
        <time>2021-07-25T12:58:45Z</time>
      </trkpt>
      <trkpt lat="43.92839" lon="6.14306">
        <ele>497</ele>
        <time>2021-07-25T12:58:48Z</time>
      </trkpt>
      <trkpt lat="43.92844" lon="6.14324">
        <ele>497</ele>
        <time>2021-07-25T12:58:50Z</time>
      </trkpt>
      <trkpt lat="43.92851" lon="6.14352">
        <ele>497</ele>
        <time>2021-07-25T12:58:54Z</time>
      </trkpt>
      <trkpt lat="43.92857" lon="6.14391">
        <ele>497</ele>
        <time>2021-07-25T12:58:59Z</time>
      </trkpt>
      <trkpt lat="43.92866" lon="6.14543">
        <ele>500</ele>
        <time>2021-07-25T12:59:19Z</time>
      </trkpt>
      <trkpt lat="43.9287" lon="6.14563">
        <ele>500</ele>
        <time>2021-07-25T12:59:21Z</time>
      </trkpt>
      <trkpt lat="43.92877" lon="6.14589">
        <ele>500</ele>
        <time>2021-07-25T12:59:25Z</time>
      </trkpt>
      <trkpt lat="43.92892" lon="6.14624">
        <ele>500</ele>
        <time>2021-07-25T12:59:30Z</time>
      </trkpt>
      <trkpt lat="43.9291" lon="6.1466">
        <ele>499</ele>
        <time>2021-07-25T12:59:36Z</time>
      </trkpt>
      <trkpt lat="43.9292" lon="6.14675">
        <ele>498</ele>
        <time>2021-07-25T12:59:38Z</time>
      </trkpt>
      <trkpt lat="43.92963" lon="6.14731">
        <ele>498</ele>
        <time>2021-07-25T12:59:49Z</time>
      </trkpt>
      <trkpt lat="43.92972" lon="6.14746">
        <ele>497</ele>
        <time>2021-07-25T12:59:51Z</time>
      </trkpt>
      <trkpt lat="43.92978" lon="6.14764">
        <ele>497</ele>
        <time>2021-07-25T12:59:54Z</time>
      </trkpt>
      <trkpt lat="43.92982" lon="6.14778">
        <ele>497</ele>
        <time>2021-07-25T12:59:56Z</time>
      </trkpt>
      <trkpt lat="43.93066" lon="6.15153">
        <ele>499</ele>
        <time>2021-07-25T13:00:46Z</time>
      </trkpt>
      <trkpt lat="43.93081" lon="6.15206">
        <ele>499</ele>
        <time>2021-07-25T13:00:53Z</time>
      </trkpt>
      <trkpt lat="43.9309" lon="6.1523">
        <ele>500</ele>
        <time>2021-07-25T13:00:57Z</time>
      </trkpt>
      <trkpt lat="43.93139" lon="6.15318">
        <ele>502</ele>
        <time>2021-07-25T13:01:11Z</time>
      </trkpt>
      <trkpt lat="43.93183" lon="6.1538">
        <ele>502</ele>
        <time>2021-07-25T13:01:22Z</time>
      </trkpt>
      <trkpt lat="43.93245" lon="6.15446">
        <ele>499</ele>
        <time>2021-07-25T13:01:36Z</time>
      </trkpt>
      <trkpt lat="43.93276" lon="6.15481">
        <ele>499</ele>
        <time>2021-07-25T13:01:43Z</time>
      </trkpt>
      <trkpt lat="43.93333" lon="6.1556">
        <ele>502</ele>
        <time>2021-07-25T13:01:58Z</time>
      </trkpt>
      <trkpt lat="43.93363" lon="6.15597">
        <ele>503</ele>
        <time>2021-07-25T13:02:05Z</time>
      </trkpt>
      <trkpt lat="43.93415" lon="6.15642">
        <ele>501</ele>
        <time>2021-07-25T13:02:16Z</time>
      </trkpt>
      <trkpt lat="43.93463" lon="6.15687">
        <ele>502</ele>
        <time>2021-07-25T13:02:26Z</time>
      </trkpt>
      <trkpt lat="43.93478" lon="6.15704">
        <ele>502</ele>
        <time>2021-07-25T13:02:29Z</time>
      </trkpt>
      <trkpt lat="43.93522" lon="6.15781">
        <ele>503</ele>
        <time>2021-07-25T13:02:42Z</time>
      </trkpt>
      <trkpt lat="43.93548" lon="6.15834">
        <ele>504</ele>
        <time>2021-07-25T13:02:50Z</time>
      </trkpt>
      <trkpt lat="43.93587" lon="6.15922">
        <ele>507</ele>
        <time>2021-07-25T13:03:03Z</time>
      </trkpt>
      <trkpt lat="43.93615" lon="6.15977">
        <ele>507</ele>
        <time>2021-07-25T13:03:12Z</time>
      </trkpt>
      <trkpt lat="43.9376" lon="6.16201">
        <ele>511</ele>
        <time>2021-07-25T13:03:51Z</time>
      </trkpt>
      <trkpt lat="43.93788" lon="6.16242">
        <ele>513</ele>
        <time>2021-07-25T13:03:58Z</time>
      </trkpt>
      <trkpt lat="43.9382" lon="6.16278">
        <ele>514</ele>
        <time>2021-07-25T13:04:05Z</time>
      </trkpt>
      <trkpt lat="43.93924" lon="6.16374">
        <ele>512</ele>
        <time>2021-07-25T13:04:27Z</time>
      </trkpt>
      <trkpt lat="43.93939" lon="6.16391">
        <ele>512</ele>
        <time>2021-07-25T13:04:31Z</time>
      </trkpt>
      <trkpt lat="43.93967" lon="6.1643">
        <ele>513</ele>
        <time>2021-07-25T13:04:38Z</time>
      </trkpt>
      <trkpt lat="43.93992" lon="6.16472">
        <ele>514</ele>
        <time>2021-07-25T13:04:45Z</time>
      </trkpt>
      <trkpt lat="43.94024" lon="6.16538">
        <ele>516</ele>
        <time>2021-07-25T13:04:55Z</time>
      </trkpt>
      <trkpt lat="43.94039" lon="6.16586">
        <ele>517</ele>
        <time>2021-07-25T13:05:02Z</time>
      </trkpt>
      <trkpt lat="43.94062" lon="6.16677">
        <ele>513</ele>
        <time>2021-07-25T13:05:14Z</time>
      </trkpt>
      <trkpt lat="43.94077" lon="6.16719">
        <ele>511</ele>
        <time>2021-07-25T13:05:20Z</time>
      </trkpt>
      <trkpt lat="43.94103" lon="6.16783">
        <ele>512</ele>
        <time>2021-07-25T13:05:30Z</time>
      </trkpt>
      <trkpt lat="43.94113" lon="6.16816">
        <ele>513</ele>
        <time>2021-07-25T13:05:34Z</time>
      </trkpt>
      <trkpt lat="43.94122" lon="6.16881">
        <ele>514</ele>
        <time>2021-07-25T13:05:43Z</time>
      </trkpt>
      <trkpt lat="43.94132" lon="6.16909">
        <ele>514</ele>
        <time>2021-07-25T13:05:47Z</time>
      </trkpt>
      <trkpt lat="43.94146" lon="6.1693">
        <ele>514</ele>
        <time>2021-07-25T13:05:50Z</time>
      </trkpt>
      <trkpt lat="43.94172" lon="6.16948">
        <ele>514</ele>
        <time>2021-07-25T13:05:55Z</time>
      </trkpt>
      <trkpt lat="43.94185" lon="6.16953">
        <ele>514</ele>
        <time>2021-07-25T13:05:58Z</time>
      </trkpt>
      <trkpt lat="43.94206" lon="6.16958">
        <ele>513</ele>
        <time>2021-07-25T13:06:02Z</time>
      </trkpt>
      <trkpt lat="43.9423" lon="6.16966">
        <ele>513</ele>
        <time>2021-07-25T13:06:06Z</time>
      </trkpt>
      <trkpt lat="43.94258" lon="6.16986">
        <ele>512</ele>
        <time>2021-07-25T13:06:12Z</time>
      </trkpt>
      <trkpt lat="43.943" lon="6.17026">
        <ele>512</ele>
        <time>2021-07-25T13:06:21Z</time>
      </trkpt>
      <trkpt lat="43.94325" lon="6.17056">
        <ele>513</ele>
        <time>2021-07-25T13:06:27Z</time>
      </trkpt>
      <trkpt lat="43.94354" lon="6.17101">
        <ele>515</ele>
        <time>2021-07-25T13:06:34Z</time>
      </trkpt>
      <trkpt lat="43.94389" lon="6.1715">
        <ele>516</ele>
        <time>2021-07-25T13:06:43Z</time>
      </trkpt>
      <trkpt lat="43.9444" lon="6.17249">
        <ele>525</ele>
        <time>2021-07-25T13:06:59Z</time>
      </trkpt>
      <trkpt lat="43.94457" lon="6.17278">
        <ele>524</ele>
        <time>2021-07-25T13:07:04Z</time>
      </trkpt>
      <trkpt lat="43.94483" lon="6.17307">
        <ele>518</ele>
        <time>2021-07-25T13:07:10Z</time>
      </trkpt>
      <trkpt lat="43.94495" lon="6.17319">
        <ele>515</ele>
        <time>2021-07-25T13:07:12Z</time>
      </trkpt>
      <trkpt lat="43.94509" lon="6.17328">
        <ele>513</ele>
        <time>2021-07-25T13:07:15Z</time>
      </trkpt>
      <trkpt lat="43.94577" lon="6.17364">
        <ele>511</ele>
        <time>2021-07-25T13:07:28Z</time>
      </trkpt>
      <trkpt lat="43.94604" lon="6.17386">
        <ele>510</ele>
        <time>2021-07-25T13:07:33Z</time>
      </trkpt>
      <trkpt lat="43.9463" lon="6.17418">
        <ele>511</ele>
        <time>2021-07-25T13:07:40Z</time>
      </trkpt>
      <trkpt lat="43.9472" lon="6.17545">
        <ele>516</ele>
        <time>2021-07-25T13:08:02Z</time>
      </trkpt>
      <trkpt lat="43.94754" lon="6.17584">
        <ele>516</ele>
        <time>2021-07-25T13:08:10Z</time>
      </trkpt>
      <trkpt lat="43.94773" lon="6.17601">
        <ele>519</ele>
        <time>2021-07-25T13:08:14Z</time>
      </trkpt>
      <trkpt lat="43.94836" lon="6.17648">
        <ele>521</ele>
        <time>2021-07-25T13:08:27Z</time>
      </trkpt>
      <trkpt lat="43.94858" lon="6.17661">
        <ele>521</ele>
        <time>2021-07-25T13:08:31Z</time>
      </trkpt>
      <trkpt lat="43.94925" lon="6.17691">
        <ele>520</ele>
        <time>2021-07-25T13:08:44Z</time>
      </trkpt>
      <trkpt lat="43.94946" lon="6.17704">
        <ele>521</ele>
        <time>2021-07-25T13:08:48Z</time>
      </trkpt>
      <trkpt lat="43.95047" lon="6.17778">
        <ele>524</ele>
        <time>2021-07-25T13:09:08Z</time>
      </trkpt>
      <trkpt lat="43.95087" lon="6.17814">
        <ele>523</ele>
        <time>2021-07-25T13:09:17Z</time>
      </trkpt>
      <trkpt lat="43.95131" lon="6.17856">
        <ele>524</ele>
        <time>2021-07-25T13:09:26Z</time>
      </trkpt>
      <trkpt lat="43.95249" lon="6.17978">
        <ele>526</ele>
        <time>2021-07-25T13:09:52Z</time>
      </trkpt>
      <trkpt lat="43.95277" lon="6.1801">
        <ele>528</ele>
        <time>2021-07-25T13:09:59Z</time>
      </trkpt>
      <trkpt lat="43.95294" lon="6.18027">
        <ele>528</ele>
        <time>2021-07-25T13:10:03Z</time>
      </trkpt>
      <trkpt lat="43.95311" lon="6.1804">
        <ele>527</ele>
        <time>2021-07-25T13:10:06Z</time>
      </trkpt>
      <trkpt lat="43.95372" lon="6.18077">
        <ele>525</ele>
        <time>2021-07-25T13:10:18Z</time>
      </trkpt>
      <trkpt lat="43.95524" lon="6.18181">
        <ele>526</ele>
        <time>2021-07-25T13:10:48Z</time>
      </trkpt>
      <trkpt lat="43.95582" lon="6.18224">
        <ele>524</ele>
        <time>2021-07-25T13:11:00Z</time>
      </trkpt>
      <trkpt lat="43.9565" lon="6.18286">
        <ele>525</ele>
        <time>2021-07-25T13:11:14Z</time>
      </trkpt>
      <trkpt lat="43.95729" lon="6.18361">
        <ele>528</ele>
        <time>2021-07-25T13:11:31Z</time>
      </trkpt>
      <trkpt lat="43.9594" lon="6.18533">
        <ele>531</ele>
        <time>2021-07-25T13:12:15Z</time>
      </trkpt>
      <trkpt lat="43.9601" lon="6.18599">
        <ele>533</ele>
        <time>2021-07-25T13:12:30Z</time>
      </trkpt>
      <trkpt lat="43.96042" lon="6.18633">
        <ele>534</ele>
        <time>2021-07-25T13:12:37Z</time>
      </trkpt>
      <trkpt lat="43.96098" lon="6.18687">
        <ele>535</ele>
        <time>2021-07-25T13:12:49Z</time>
      </trkpt>
      <trkpt lat="43.96139" lon="6.18731">
        <ele>536</ele>
        <time>2021-07-25T13:12:58Z</time>
      </trkpt>
      <trkpt lat="43.96156" lon="6.18745">
        <ele>536</ele>
        <time>2021-07-25T13:13:02Z</time>
      </trkpt>
      <trkpt lat="43.96242" lon="6.18787">
        <ele>534</ele>
        <time>2021-07-25T13:13:18Z</time>
      </trkpt>
      <trkpt lat="43.96268" lon="6.18801">
        <ele>534</ele>
        <time>2021-07-25T13:13:23Z</time>
      </trkpt>
      <trkpt lat="43.96361" lon="6.18864">
        <ele>536</ele>
        <time>2021-07-25T13:13:41Z</time>
      </trkpt>
      <trkpt lat="43.96465" lon="6.18907">
        <ele>539</ele>
        <time>2021-07-25T13:14:01Z</time>
      </trkpt>
      <trkpt lat="43.96536" lon="6.18941">
        <ele>539</ele>
        <time>2021-07-25T13:14:14Z</time>
      </trkpt>
      <trkpt lat="43.9677" lon="6.19085">
        <ele>540</ele>
        <time>2021-07-25T13:15:00Z</time>
      </trkpt>
      <trkpt lat="43.96853" lon="6.19127">
        <ele>543</ele>
        <time>2021-07-25T13:15:15Z</time>
      </trkpt>
      <trkpt lat="43.97113" lon="6.19238">
        <ele>543</ele>
        <time>2021-07-25T13:16:04Z</time>
      </trkpt>
      <trkpt lat="43.97168" lon="6.19264">
        <ele>545</ele>
        <time>2021-07-25T13:16:14Z</time>
      </trkpt>
      <trkpt lat="43.97223" lon="6.19292">
        <ele>544</ele>
        <time>2021-07-25T13:16:24Z</time>
      </trkpt>
      <trkpt lat="43.97247" lon="6.19307">
        <ele>544</ele>
        <time>2021-07-25T13:16:29Z</time>
      </trkpt>
      <trkpt lat="43.97308" lon="6.19354">
        <ele>543</ele>
        <time>2021-07-25T13:16:42Z</time>
      </trkpt>
      <trkpt lat="43.97365" lon="6.19395">
        <ele>546</ele>
        <time>2021-07-25T13:16:53Z</time>
      </trkpt>
      <trkpt lat="43.97383" lon="6.19405">
        <ele>546</ele>
        <time>2021-07-25T13:16:56Z</time>
      </trkpt>
      <trkpt lat="43.97469" lon="6.19445">
        <ele>550</ele>
        <time>2021-07-25T13:17:13Z</time>
      </trkpt>
      <trkpt lat="43.97584" lon="6.19508">
        <ele>549</ele>
        <time>2021-07-25T13:17:35Z</time>
      </trkpt>
      <trkpt lat="43.97641" lon="6.19533">
        <ele>548</ele>
        <time>2021-07-25T13:17:45Z</time>
      </trkpt>
      <trkpt lat="43.97659" lon="6.19544">
        <ele>547</ele>
        <time>2021-07-25T13:17:49Z</time>
      </trkpt>
      <trkpt lat="43.97676" lon="6.19558">
        <ele>547</ele>
        <time>2021-07-25T13:17:52Z</time>
      </trkpt>
      <trkpt lat="43.97691" lon="6.19573">
        <ele>547</ele>
        <time>2021-07-25T13:17:55Z</time>
      </trkpt>
      <trkpt lat="43.97734" lon="6.19627">
        <ele>551</ele>
        <time>2021-07-25T13:18:06Z</time>
      </trkpt>
      <trkpt lat="43.97766" lon="6.19657">
        <ele>553</ele>
        <time>2021-07-25T13:18:13Z</time>
      </trkpt>
      <trkpt lat="43.97785" lon="6.19667">
        <ele>553</ele>
        <time>2021-07-25T13:18:16Z</time>
      </trkpt>
      <trkpt lat="43.97854" lon="6.19693">
        <ele>555</ele>
        <time>2021-07-25T13:18:29Z</time>
      </trkpt>
      <trkpt lat="43.97899" lon="6.19701">
        <ele>554</ele>
        <time>2021-07-25T13:18:37Z</time>
      </trkpt>
      <trkpt lat="43.97938" lon="6.19697">
        <ele>552</ele>
        <time>2021-07-25T13:18:44Z</time>
      </trkpt>
      <trkpt lat="43.98081" lon="6.19669">
        <ele>549</ele>
        <time>2021-07-25T13:19:10Z</time>
      </trkpt>
      <trkpt lat="43.98109" lon="6.19668">
        <ele>549</ele>
        <time>2021-07-25T13:19:15Z</time>
      </trkpt>
      <trkpt lat="43.98372" lon="6.19696">
        <ele>552</ele>
        <time>2021-07-25T13:20:02Z</time>
      </trkpt>
      <trkpt lat="43.98411" lon="6.19704">
        <ele>551</ele>
        <time>2021-07-25T13:20:09Z</time>
      </trkpt>
      <trkpt lat="43.98422" lon="6.19708">
        <ele>551</ele>
        <time>2021-07-25T13:20:11Z</time>
      </trkpt>
      <trkpt lat="43.98818" lon="6.19845">
        <ele>555</ele>
        <time>2021-07-25T13:21:23Z</time>
      </trkpt>
      <trkpt lat="43.98904" lon="6.19874">
        <ele>558</ele>
        <time>2021-07-25T13:21:39Z</time>
      </trkpt>
      <trkpt lat="43.98926" lon="6.1988">
        <ele>558</ele>
        <time>2021-07-25T13:21:43Z</time>
      </trkpt>
      <trkpt lat="43.98935" lon="6.19881">
        <ele>558</ele>
        <time>2021-07-25T13:21:45Z</time>
      </trkpt>
      <trkpt lat="43.98956" lon="6.19883">
        <ele>557</ele>
        <time>2021-07-25T13:21:48Z</time>
      </trkpt>
      <trkpt lat="43.9898" lon="6.19879">
        <ele>557</ele>
        <time>2021-07-25T13:21:53Z</time>
      </trkpt>
      <trkpt lat="43.98992" lon="6.19875">
        <ele>556</ele>
        <time>2021-07-25T13:21:55Z</time>
      </trkpt>
      <trkpt lat="43.99012" lon="6.19863">
        <ele>556</ele>
        <time>2021-07-25T13:21:59Z</time>
      </trkpt>
      <trkpt lat="43.99027" lon="6.19846">
        <ele>556</ele>
        <time>2021-07-25T13:22:02Z</time>
      </trkpt>
      <trkpt lat="43.99039" lon="6.19822">
        <ele>556</ele>
        <time>2021-07-25T13:22:06Z</time>
      </trkpt>
      <trkpt lat="43.99046" lon="6.19791">
        <ele>556</ele>
        <time>2021-07-25T13:22:10Z</time>
      </trkpt>
      <trkpt lat="43.99048" lon="6.19739">
        <ele>556</ele>
        <time>2021-07-25T13:22:17Z</time>
      </trkpt>
      <trkpt lat="43.99047" lon="6.19679">
        <ele>555</ele>
        <time>2021-07-25T13:22:24Z</time>
      </trkpt>
      <trkpt lat="43.9904" lon="6.19608">
        <ele>557</ele>
        <time>2021-07-25T13:22:34Z</time>
      </trkpt>
      <trkpt lat="43.99039" lon="6.19602">
        <ele>557</ele>
        <time>2021-07-25T13:22:34Z</time>
      </trkpt>
      <trkpt lat="43.99041" lon="6.19583">
        <ele>558</ele>
        <time>2021-07-25T13:22:37Z</time>
      </trkpt>
      <trkpt lat="43.99048" lon="6.19565">
        <ele>561</ele>
        <time>2021-07-25T13:22:39Z</time>
      </trkpt>
      <trkpt lat="43.99053" lon="6.19559">
        <ele>562</ele>
        <time>2021-07-25T13:22:41Z</time>
      </trkpt>
      <trkpt lat="43.99061" lon="6.19554">
        <ele>563</ele>
        <time>2021-07-25T13:22:42Z</time>
      </trkpt>
      <trkpt lat="43.99077" lon="6.1955">
        <ele>564</ele>
        <time>2021-07-25T13:22:45Z</time>
      </trkpt>
      <trkpt lat="43.9909" lon="6.1955">
        <ele>564</ele>
        <time>2021-07-25T13:22:47Z</time>
      </trkpt>
      <trkpt lat="43.99103" lon="6.1955">
        <ele>565</ele>
        <time>2021-07-25T13:22:50Z</time>
      </trkpt>
      <trkpt lat="43.99147" lon="6.19554">
        <ele>567</ele>
        <time>2021-07-25T13:22:58Z</time>
      </trkpt>
      <trkpt lat="43.99228" lon="6.19565">
        <ele>566</ele>
        <time>2021-07-25T13:23:12Z</time>
      </trkpt>
      <trkpt lat="43.99261" lon="6.19569">
        <ele>566</ele>
        <time>2021-07-25T13:23:18Z</time>
      </trkpt>
      <trkpt lat="43.99267" lon="6.1957">
        <ele>566</ele>
        <time>2021-07-25T13:23:19Z</time>
      </trkpt>
      <trkpt lat="43.9928" lon="6.1957">
        <ele>567</ele>
        <time>2021-07-25T13:23:21Z</time>
      </trkpt>
      <trkpt lat="43.99292" lon="6.1957">
        <ele>567</ele>
        <time>2021-07-25T13:23:23Z</time>
      </trkpt>
      <trkpt lat="43.99326" lon="6.19565">
        <ele>570</ele>
        <time>2021-07-25T13:23:30Z</time>
      </trkpt>
      <trkpt lat="43.99379" lon="6.19539">
        <ele>577</ele>
        <time>2021-07-25T13:23:40Z</time>
      </trkpt>
      <trkpt lat="43.99449" lon="6.19532">
        <ele>579</ele>
        <time>2021-07-25T13:23:52Z</time>
      </trkpt>
      <trkpt lat="43.9946" lon="6.19532">
        <ele>579</ele>
        <time>2021-07-25T13:23:54Z</time>
      </trkpt>
      <trkpt lat="43.99483" lon="6.19537">
        <ele>579</ele>
        <time>2021-07-25T13:23:58Z</time>
      </trkpt>
      <trkpt lat="43.99544" lon="6.19574">
        <ele>576</ele>
        <time>2021-07-25T13:24:10Z</time>
      </trkpt>
      <trkpt lat="43.9955" lon="6.19577">
        <ele>576</ele>
        <time>2021-07-25T13:24:11Z</time>
      </trkpt>
      <trkpt lat="43.99587" lon="6.196">
        <ele>577</ele>
        <time>2021-07-25T13:24:18Z</time>
      </trkpt>
      <trkpt lat="43.99593" lon="6.19603">
        <ele>577</ele>
        <time>2021-07-25T13:24:19Z</time>
      </trkpt>
      <trkpt lat="43.99594" lon="6.19604">
        <ele>577</ele>
        <time>2021-07-25T13:24:20Z</time>
      </trkpt>
      <trkpt lat="43.99597" lon="6.19606">
        <ele>577</ele>
        <time>2021-07-25T13:24:20Z</time>
      </trkpt>
      <trkpt lat="43.99625" lon="6.19623">
        <ele>578</ele>
        <time>2021-07-25T13:24:26Z</time>
      </trkpt>
      <trkpt lat="43.99632" lon="6.19626">
        <ele>578</ele>
        <time>2021-07-25T13:24:27Z</time>
      </trkpt>
      <trkpt lat="43.99634" lon="6.19627">
        <ele>578</ele>
        <time>2021-07-25T13:24:27Z</time>
      </trkpt>
      <trkpt lat="43.99644" lon="6.19632">
        <ele>579</ele>
        <time>2021-07-25T13:24:29Z</time>
      </trkpt>
      <trkpt lat="43.99653" lon="6.19636">
        <ele>579</ele>
        <time>2021-07-25T13:24:31Z</time>
      </trkpt>
      <trkpt lat="43.99658" lon="6.19637">
        <ele>579</ele>
        <time>2021-07-25T13:24:32Z</time>
      </trkpt>
      <trkpt lat="43.99662" lon="6.19638">
        <ele>580</ele>
        <time>2021-07-25T13:24:33Z</time>
      </trkpt>
      <trkpt lat="43.99669" lon="6.19639">
        <ele>580</ele>
        <time>2021-07-25T13:24:34Z</time>
      </trkpt>
      <trkpt lat="43.99704" lon="6.19647">
        <ele>580</ele>
        <time>2021-07-25T13:24:40Z</time>
      </trkpt>
      <trkpt lat="43.99712" lon="6.19649">
        <ele>580</ele>
        <time>2021-07-25T13:24:42Z</time>
      </trkpt>
      <trkpt lat="43.9973" lon="6.19651">
        <ele>581</ele>
        <time>2021-07-25T13:24:45Z</time>
      </trkpt>
      <trkpt lat="43.99734" lon="6.19651">
        <ele>581</ele>
        <time>2021-07-25T13:24:46Z</time>
      </trkpt>
      <trkpt lat="43.99746" lon="6.19653">
        <ele>581</ele>
        <time>2021-07-25T13:24:48Z</time>
      </trkpt>
      <trkpt lat="43.99753" lon="6.19655">
        <ele>581</ele>
        <time>2021-07-25T13:24:49Z</time>
      </trkpt>
      <trkpt lat="43.9977" lon="6.1966">
        <ele>582</ele>
        <time>2021-07-25T13:24:52Z</time>
      </trkpt>
      <trkpt lat="43.99808" lon="6.19671">
        <ele>583</ele>
        <time>2021-07-25T13:24:59Z</time>
      </trkpt>
      <trkpt lat="43.99819" lon="6.19675">
        <ele>583</ele>
        <time>2021-07-25T13:25:01Z</time>
      </trkpt>
      <trkpt lat="43.99836" lon="6.19681">
        <ele>584</ele>
        <time>2021-07-25T13:25:04Z</time>
      </trkpt>
      <trkpt lat="43.99843" lon="6.19684">
        <ele>585</ele>
        <time>2021-07-25T13:25:05Z</time>
      </trkpt>
      <trkpt lat="43.99844" lon="6.19685">
        <ele>585</ele>
        <time>2021-07-25T13:25:06Z</time>
      </trkpt>
      <trkpt lat="43.99881" lon="6.19699">
        <ele>588</ele>
        <time>2021-07-25T13:25:12Z</time>
      </trkpt>
      <trkpt lat="43.99889" lon="6.19704">
        <ele>589</ele>
        <time>2021-07-25T13:25:14Z</time>
      </trkpt>
      <trkpt lat="43.99933" lon="6.19725">
        <ele>590</ele>
        <time>2021-07-25T13:25:22Z</time>
      </trkpt>
      <trkpt lat="43.99935" lon="6.19726">
        <ele>590</ele>
        <time>2021-07-25T13:25:23Z</time>
      </trkpt>
      <trkpt lat="43.99945" lon="6.19731">
        <ele>590</ele>
        <time>2021-07-25T13:25:25Z</time>
      </trkpt>
      <trkpt lat="43.9996" lon="6.19738">
        <ele>591</ele>
        <time>2021-07-25T13:25:27Z</time>
      </trkpt>
      <trkpt lat="44.0002" lon="6.19767">
        <ele>590</ele>
        <time>2021-07-25T13:25:39Z</time>
      </trkpt>
      <trkpt lat="44.0005" lon="6.19781">
        <ele>589</ele>
        <time>2021-07-25T13:25:44Z</time>
      </trkpt>
      <trkpt lat="44.00065" lon="6.19788">
        <ele>589</ele>
        <time>2021-07-25T13:25:47Z</time>
      </trkpt>
      <trkpt lat="44.00096" lon="6.19802">
        <ele>590</ele>
        <time>2021-07-25T13:25:53Z</time>
      </trkpt>
      <trkpt lat="44.00108" lon="6.19807">
        <ele>591</ele>
        <time>2021-07-25T13:25:55Z</time>
      </trkpt>
      <trkpt lat="44.00157" lon="6.19833">
        <ele>593</ele>
        <time>2021-07-25T13:26:04Z</time>
      </trkpt>
      <trkpt lat="44.00193" lon="6.19863">
        <ele>591</ele>
        <time>2021-07-25T13:26:12Z</time>
      </trkpt>
      <trkpt lat="44.00201" lon="6.19869">
        <ele>591</ele>
        <time>2021-07-25T13:26:14Z</time>
      </trkpt>
      <trkpt lat="44.00215" lon="6.19876">
        <ele>591</ele>
        <time>2021-07-25T13:26:16Z</time>
      </trkpt>
      <trkpt lat="44.00248" lon="6.19888">
        <ele>591</ele>
        <time>2021-07-25T13:26:22Z</time>
      </trkpt>
      <trkpt lat="44.0029" lon="6.19899">
        <ele>593</ele>
        <time>2021-07-25T13:26:30Z</time>
      </trkpt>
      <trkpt lat="44.00317" lon="6.19909">
        <ele>593</ele>
        <time>2021-07-25T13:26:35Z</time>
      </trkpt>
      <trkpt lat="44.0034" lon="6.19923">
        <ele>593</ele>
        <time>2021-07-25T13:26:39Z</time>
      </trkpt>
      <trkpt lat="44.00397" lon="6.19964">
        <ele>590</ele>
        <time>2021-07-25T13:26:51Z</time>
      </trkpt>
      <trkpt lat="44.00439" lon="6.19987">
        <ele>588</ele>
        <time>2021-07-25T13:26:59Z</time>
      </trkpt>
      <trkpt lat="44.00462" lon="6.20001">
        <ele>588</ele>
        <time>2021-07-25T13:27:03Z</time>
      </trkpt>
      <trkpt lat="44.00474" lon="6.20012">
        <ele>588</ele>
        <time>2021-07-25T13:27:06Z</time>
      </trkpt>
      <trkpt lat="44.00508" lon="6.20047">
        <ele>588</ele>
        <time>2021-07-25T13:27:13Z</time>
      </trkpt>
      <trkpt lat="44.00525" lon="6.20066">
        <ele>588</ele>
        <time>2021-07-25T13:27:17Z</time>
      </trkpt>
      <trkpt lat="44.00528" lon="6.20073">
        <ele>588</ele>
        <time>2021-07-25T13:27:18Z</time>
      </trkpt>
      <trkpt lat="44.00536" lon="6.20086">
        <ele>587</ele>
        <time>2021-07-25T13:27:20Z</time>
      </trkpt>
      <trkpt lat="44.00539" lon="6.20091">
        <ele>587</ele>
        <time>2021-07-25T13:27:21Z</time>
      </trkpt>
      <trkpt lat="44.00539" lon="6.20096">
        <ele>587</ele>
        <time>2021-07-25T13:27:22Z</time>
      </trkpt>
      <trkpt lat="44.00541" lon="6.201">
        <ele>586</ele>
        <time>2021-07-25T13:27:23Z</time>
      </trkpt>
      <trkpt lat="44.00543" lon="6.20104">
        <ele>586</ele>
        <time>2021-07-25T13:27:23Z</time>
      </trkpt>
      <trkpt lat="44.00546" lon="6.20107">
        <ele>586</ele>
        <time>2021-07-25T13:27:24Z</time>
      </trkpt>
      <trkpt lat="44.00549" lon="6.20107">
        <ele>586</ele>
        <time>2021-07-25T13:27:24Z</time>
      </trkpt>
      <trkpt lat="44.00552" lon="6.20107">
        <ele>586</ele>
        <time>2021-07-25T13:27:25Z</time>
      </trkpt>
      <trkpt lat="44.00554" lon="6.20106">
        <ele>587</ele>
        <time>2021-07-25T13:27:25Z</time>
      </trkpt>
      <trkpt lat="44.00575" lon="6.20119">
        <ele>587</ele>
        <time>2021-07-25T13:27:29Z</time>
      </trkpt>
      <trkpt lat="44.00652" lon="6.20208">
        <ele>584</ele>
        <time>2021-07-25T13:27:47Z</time>
      </trkpt>
      <trkpt lat="44.00685" lon="6.20245">
        <ele>585</ele>
        <time>2021-07-25T13:27:55Z</time>
      </trkpt>
      <trkpt lat="44.00709" lon="6.20271">
        <ele>587</ele>
        <time>2021-07-25T13:28:00Z</time>
      </trkpt>
      <trkpt lat="44.00728" lon="6.20295">
        <ele>588</ele>
        <time>2021-07-25T13:28:05Z</time>
      </trkpt>
      <trkpt lat="44.0075" lon="6.20325">
        <ele>589</ele>
        <time>2021-07-25T13:28:10Z</time>
      </trkpt>
      <trkpt lat="44.00815" lon="6.20418">
        <ele>591</ele>
        <time>2021-07-25T13:28:27Z</time>
      </trkpt>
      <trkpt lat="44.00858" lon="6.20473">
        <ele>594</ele>
        <time>2021-07-25T13:28:37Z</time>
      </trkpt>
      <trkpt lat="44.00919" lon="6.20538">
        <ele>597</ele>
        <time>2021-07-25T13:28:51Z</time>
      </trkpt>
      <trkpt lat="44.01001" lon="6.20609">
        <ele>600</ele>
        <time>2021-07-25T13:29:08Z</time>
      </trkpt>
      <trkpt lat="44.01025" lon="6.20639">
        <ele>599</ele>
        <time>2021-07-25T13:29:14Z</time>
      </trkpt>
      <trkpt lat="44.01043" lon="6.20669">
        <ele>599</ele>
        <time>2021-07-25T13:29:19Z</time>
      </trkpt>
      <trkpt lat="44.01052" lon="6.20681">
        <ele>600</ele>
        <time>2021-07-25T13:29:21Z</time>
      </trkpt>
      <trkpt lat="44.01054" lon="6.20683">
        <ele>600</ele>
        <time>2021-07-25T13:29:21Z</time>
      </trkpt>
      <trkpt lat="44.01065" lon="6.20693">
        <ele>601</ele>
        <time>2021-07-25T13:29:24Z</time>
      </trkpt>
      <trkpt lat="44.01109" lon="6.20721">
        <ele>605</ele>
        <time>2021-07-25T13:29:32Z</time>
      </trkpt>
      <trkpt lat="44.01121" lon="6.20727">
        <ele>607</ele>
        <time>2021-07-25T13:29:35Z</time>
      </trkpt>
      <trkpt lat="44.01142" lon="6.20734">
        <ele>609</ele>
        <time>2021-07-25T13:29:38Z</time>
      </trkpt>
      <trkpt lat="44.01148" lon="6.20739">
        <ele>609</ele>
        <time>2021-07-25T13:29:40Z</time>
      </trkpt>
      <trkpt lat="44.01153" lon="6.20745">
        <ele>609</ele>
        <time>2021-07-25T13:29:41Z</time>
      </trkpt>
      <trkpt lat="44.01161" lon="6.20763">
        <ele>610</ele>
        <time>2021-07-25T13:29:44Z</time>
      </trkpt>
      <trkpt lat="44.01164" lon="6.20788">
        <ele>610</ele>
        <time>2021-07-25T13:29:47Z</time>
      </trkpt>
      <trkpt lat="44.01164" lon="6.20808">
        <ele>611</ele>
        <time>2021-07-25T13:29:49Z</time>
      </trkpt>
      <trkpt lat="44.01165" lon="6.20815">
        <ele>611</ele>
        <time>2021-07-25T13:29:50Z</time>
      </trkpt>
      <trkpt lat="44.01166" lon="6.20821">
        <ele>611</ele>
        <time>2021-07-25T13:29:51Z</time>
      </trkpt>
      <trkpt lat="44.01169" lon="6.2083">
        <ele>611</ele>
        <time>2021-07-25T13:29:52Z</time>
      </trkpt>
      <trkpt lat="44.01171" lon="6.20837">
        <ele>611</ele>
        <time>2021-07-25T13:29:53Z</time>
      </trkpt>
      <trkpt lat="44.01174" lon="6.20843">
        <ele>612</ele>
        <time>2021-07-25T13:29:54Z</time>
      </trkpt>
      <trkpt lat="44.01182" lon="6.20859">
        <ele>612</ele>
        <time>2021-07-25T13:29:57Z</time>
      </trkpt>
      <trkpt lat="44.01209" lon="6.20911">
        <ele>612</ele>
        <time>2021-07-25T13:30:05Z</time>
      </trkpt>
      <trkpt lat="44.01243" lon="6.2096">
        <ele>607</ele>
        <time>2021-07-25T13:30:14Z</time>
      </trkpt>
      <trkpt lat="44.01262" lon="6.20987">
        <ele>605</ele>
        <time>2021-07-25T13:30:19Z</time>
      </trkpt>
      <trkpt lat="44.0127" lon="6.20997">
        <ele>605</ele>
        <time>2021-07-25T13:30:20Z</time>
      </trkpt>
      <trkpt lat="44.01275" lon="6.21003">
        <ele>605</ele>
        <time>2021-07-25T13:30:22Z</time>
      </trkpt>
      <trkpt lat="44.01292" lon="6.21014">
        <ele>605</ele>
        <time>2021-07-25T13:30:25Z</time>
      </trkpt>
      <trkpt lat="44.01301" lon="6.21018">
        <ele>605</ele>
        <time>2021-07-25T13:30:27Z</time>
      </trkpt>
      <trkpt lat="44.01312" lon="6.2102">
        <ele>606</ele>
        <time>2021-07-25T13:30:29Z</time>
      </trkpt>
      <trkpt lat="44.01326" lon="6.21021">
        <ele>607</ele>
        <time>2021-07-25T13:30:31Z</time>
      </trkpt>
      <trkpt lat="44.01361" lon="6.21022">
        <ele>609</ele>
        <time>2021-07-25T13:30:37Z</time>
      </trkpt>
      <trkpt lat="44.01382" lon="6.21026">
        <ele>610</ele>
        <time>2021-07-25T13:30:41Z</time>
      </trkpt>
      <trkpt lat="44.01392" lon="6.21029">
        <ele>610</ele>
        <time>2021-07-25T13:30:43Z</time>
      </trkpt>
      <trkpt lat="44.01403" lon="6.21036">
        <ele>610</ele>
        <time>2021-07-25T13:30:45Z</time>
      </trkpt>
      <trkpt lat="44.01411" lon="6.21044">
        <ele>609</ele>
        <time>2021-07-25T13:30:47Z</time>
      </trkpt>
      <trkpt lat="44.01416" lon="6.21049">
        <ele>609</ele>
        <time>2021-07-25T13:30:48Z</time>
      </trkpt>
      <trkpt lat="44.01423" lon="6.21057">
        <ele>609</ele>
        <time>2021-07-25T13:30:50Z</time>
      </trkpt>
      <trkpt lat="44.01435" lon="6.2108">
        <ele>608</ele>
        <time>2021-07-25T13:30:53Z</time>
      </trkpt>
      <trkpt lat="44.01438" lon="6.21088">
        <ele>608</ele>
        <time>2021-07-25T13:30:54Z</time>
      </trkpt>
      <trkpt lat="44.0144" lon="6.21096">
        <ele>608</ele>
        <time>2021-07-25T13:30:55Z</time>
      </trkpt>
      <trkpt lat="44.01444" lon="6.21113">
        <ele>608</ele>
        <time>2021-07-25T13:30:58Z</time>
      </trkpt>
      <trkpt lat="44.0145" lon="6.21155">
        <ele>608</ele>
        <time>2021-07-25T13:31:03Z</time>
      </trkpt>
      <trkpt lat="44.01461" lon="6.2124">
        <ele>609</ele>
        <time>2021-07-25T13:31:14Z</time>
      </trkpt>
      <trkpt lat="44.01467" lon="6.2132">
        <ele>615</ele>
        <time>2021-07-25T13:31:25Z</time>
      </trkpt>
      <trkpt lat="44.01458" lon="6.21335">
        <ele>616</ele>
        <time>2021-07-25T13:31:27Z</time>
      </trkpt>
      <trkpt lat="44.01411" lon="6.2135">
        <ele>615</ele>
        <time>2021-07-25T13:31:36Z</time>
      </trkpt>
      <trkpt lat="44.01338" lon="6.21367">
        <ele>611</ele>
        <time>2021-07-25T13:31:49Z</time>
      </trkpt>
      <trkpt lat="44.01294" lon="6.21373">
        <ele>608</ele>
        <time>2021-07-25T13:31:57Z</time>
      </trkpt>
      <trkpt lat="44.01236" lon="6.21383">
        <ele>604</ele>
        <time>2021-07-25T13:32:07Z</time>
      </trkpt>
      <trkpt lat="44.0121" lon="6.21389">
        <ele>602</ele>
        <time>2021-07-25T13:32:12Z</time>
      </trkpt>
      <trkpt lat="44.01191" lon="6.21396">
        <ele>600</ele>
        <time>2021-07-25T13:32:15Z</time>
      </trkpt>
      <trkpt lat="44.01152" lon="6.21412">
        <ele>597</ele>
        <time>2021-07-25T13:32:22Z</time>
      </trkpt>
      <trkpt lat="44.01149" lon="6.21414">
        <ele>597</ele>
        <time>2021-07-25T13:32:23Z</time>
      </trkpt>
      <trkpt lat="44.01145" lon="6.21415">
        <ele>597</ele>
        <time>2021-07-25T13:32:24Z</time>
      </trkpt>
      <trkpt lat="44.01129" lon="6.21424">
        <ele>595</ele>
        <time>2021-07-25T13:32:27Z</time>
      </trkpt>
      <trkpt lat="44.01096" lon="6.21447">
        <ele>593</ele>
        <time>2021-07-25T13:32:33Z</time>
      </trkpt>
      <trkpt lat="44.01077" lon="6.21462">
        <ele>593</ele>
        <time>2021-07-25T13:32:37Z</time>
      </trkpt>
      <trkpt lat="44.01047" lon="6.21492">
        <ele>593</ele>
        <time>2021-07-25T13:32:44Z</time>
      </trkpt>
      <trkpt lat="44.0101" lon="6.21539">
        <ele>595</ele>
        <time>2021-07-25T13:32:53Z</time>
      </trkpt>
      <trkpt lat="44.00997" lon="6.21559">
        <ele>595</ele>
        <time>2021-07-25T13:32:56Z</time>
      </trkpt>
      <trkpt lat="44.00971" lon="6.21609">
        <ele>593</ele>
        <time>2021-07-25T13:33:04Z</time>
      </trkpt>
      <trkpt lat="44.00955" lon="6.21655">
        <ele>592</ele>
        <time>2021-07-25T13:33:11Z</time>
      </trkpt>
      <trkpt lat="44.00947" lon="6.21694">
        <ele>592</ele>
        <time>2021-07-25T13:33:16Z</time>
      </trkpt>
      <trkpt lat="44.00946" lon="6.21711">
        <ele>593</ele>
        <time>2021-07-25T13:33:18Z</time>
      </trkpt>
      <trkpt lat="44.00944" lon="6.21747">
        <ele>595</ele>
        <time>2021-07-25T13:33:23Z</time>
      </trkpt>
      <trkpt lat="44.00946" lon="6.21764">
        <ele>595</ele>
        <time>2021-07-25T13:33:25Z</time>
      </trkpt>
      <trkpt lat="44.00953" lon="6.21804">
        <ele>597</ele>
        <time>2021-07-25T13:33:30Z</time>
      </trkpt>
      <trkpt lat="44.00958" lon="6.2182">
        <ele>599</ele>
        <time>2021-07-25T13:33:32Z</time>
      </trkpt>
      <trkpt lat="44.00974" lon="6.21857">
        <ele>599</ele>
        <time>2021-07-25T13:33:38Z</time>
      </trkpt>
      <trkpt lat="44.00984" lon="6.21875">
        <ele>597</ele>
        <time>2021-07-25T13:33:41Z</time>
      </trkpt>
      <trkpt lat="44.01003" lon="6.21898">
        <ele>596</ele>
        <time>2021-07-25T13:33:45Z</time>
      </trkpt>
      <trkpt lat="44.01091" lon="6.21972">
        <ele>602</ele>
        <time>2021-07-25T13:34:04Z</time>
      </trkpt>
      <trkpt lat="44.01125" lon="6.22007">
        <ele>603</ele>
        <time>2021-07-25T13:34:11Z</time>
      </trkpt>
      <trkpt lat="44.01224" lon="6.22142">
        <ele>600</ele>
        <time>2021-07-25T13:34:36Z</time>
      </trkpt>
      <trkpt lat="44.01321" lon="6.22249">
        <ele>603</ele>
        <time>2021-07-25T13:34:58Z</time>
      </trkpt>
      <trkpt lat="44.01337" lon="6.22269">
        <ele>604</ele>
        <time>2021-07-25T13:35:02Z</time>
      </trkpt>
      <trkpt lat="44.01425" lon="6.22399">
        <ele>606</ele>
        <time>2021-07-25T13:35:24Z</time>
      </trkpt>
      <trkpt lat="44.01477" lon="6.22479">
        <ele>608</ele>
        <time>2021-07-25T13:35:38Z</time>
      </trkpt>
      <trkpt lat="44.01493" lon="6.22498">
        <ele>609</ele>
        <time>2021-07-25T13:35:42Z</time>
      </trkpt>
      <trkpt lat="44.01506" lon="6.22523">
        <ele>609</ele>
        <time>2021-07-25T13:35:46Z</time>
      </trkpt>
      <trkpt lat="44.01532" lon="6.22578">
        <ele>609</ele>
        <time>2021-07-25T13:35:54Z</time>
      </trkpt>
      <trkpt lat="44.01551" lon="6.22637">
        <ele>608</ele>
        <time>2021-07-25T13:36:03Z</time>
      </trkpt>
      <trkpt lat="44.01561" lon="6.22695">
        <ele>606</ele>
        <time>2021-07-25T13:36:10Z</time>
      </trkpt>
      <trkpt lat="44.01564" lon="6.22759">
        <ele>604</ele>
        <time>2021-07-25T13:36:19Z</time>
      </trkpt>
      <trkpt lat="44.01563" lon="6.22799">
        <ele>606</ele>
        <time>2021-07-25T13:36:24Z</time>
      </trkpt>
      <trkpt lat="44.01563" lon="6.22804">
        <ele>606</ele>
        <time>2021-07-25T13:36:24Z</time>
      </trkpt>
      <trkpt lat="44.01561" lon="6.22847">
        <ele>607</ele>
        <time>2021-07-25T13:36:30Z</time>
      </trkpt>
      <trkpt lat="44.01555" lon="6.22926">
        <ele>609</ele>
        <time>2021-07-25T13:36:40Z</time>
      </trkpt>
      <trkpt lat="44.01545" lon="6.23057">
        <ele>612</ele>
        <time>2021-07-25T13:36:57Z</time>
      </trkpt>
      <trkpt lat="44.01544" lon="6.23108">
        <ele>614</ele>
        <time>2021-07-25T13:37:03Z</time>
      </trkpt>
      <trkpt lat="44.01545" lon="6.23155">
        <ele>616</ele>
        <time>2021-07-25T13:37:09Z</time>
      </trkpt>
      <trkpt lat="44.01556" lon="6.23276">
        <ele>617</ele>
        <time>2021-07-25T13:37:25Z</time>
      </trkpt>
      <trkpt lat="44.01565" lon="6.23355">
        <ele>618</ele>
        <time>2021-07-25T13:37:35Z</time>
      </trkpt>
      <trkpt lat="44.0157" lon="6.23392">
        <ele>618</ele>
        <time>2021-07-25T13:37:40Z</time>
      </trkpt>
      <trkpt lat="44.01576" lon="6.23429">
        <ele>617</ele>
        <time>2021-07-25T13:37:45Z</time>
      </trkpt>
      <trkpt lat="44.01586" lon="6.23478">
        <ele>616</ele>
        <time>2021-07-25T13:37:51Z</time>
      </trkpt>
      <trkpt lat="44.01634" lon="6.23668">
        <ele>609</ele>
        <time>2021-07-25T13:38:17Z</time>
      </trkpt>
      <trkpt lat="44.01644" lon="6.23712">
        <ele>608</ele>
        <time>2021-07-25T13:38:23Z</time>
      </trkpt>
      <trkpt lat="44.0165" lon="6.23749">
        <ele>607</ele>
        <time>2021-07-25T13:38:28Z</time>
      </trkpt>
      <trkpt lat="44.01651" lon="6.23773">
        <ele>606</ele>
        <time>2021-07-25T13:38:31Z</time>
      </trkpt>
      <trkpt lat="44.01652" lon="6.2381">
        <ele>605</ele>
        <time>2021-07-25T13:38:36Z</time>
      </trkpt>
      <trkpt lat="44.01653" lon="6.23862">
        <ele>606</ele>
        <time>2021-07-25T13:38:42Z</time>
      </trkpt>
      <trkpt lat="44.01657" lon="6.24085">
        <ele>614</ele>
        <time>2021-07-25T13:39:11Z</time>
      </trkpt>
      <trkpt lat="44.01662" lon="6.24123">
        <ele>612</ele>
        <time>2021-07-25T13:39:16Z</time>
      </trkpt>
      <trkpt lat="44.01667" lon="6.24147">
        <ele>611</ele>
        <time>2021-07-25T13:39:19Z</time>
      </trkpt>
      <trkpt lat="44.0169" lon="6.24244">
        <ele>609</ele>
        <time>2021-07-25T13:39:32Z</time>
      </trkpt>
      <trkpt lat="44.01699" lon="6.24325">
        <ele>609</ele>
        <time>2021-07-25T13:39:43Z</time>
      </trkpt>
      <trkpt lat="44.017" lon="6.24382">
        <ele>609</ele>
        <time>2021-07-25T13:39:50Z</time>
      </trkpt>
      <trkpt lat="44.01697" lon="6.24538">
        <ele>609</ele>
        <time>2021-07-25T13:40:10Z</time>
      </trkpt>
      <trkpt lat="44.01676" lon="6.25096">
        <ele>605</ele>
        <time>2021-07-25T13:41:21Z</time>
      </trkpt>
      <trkpt lat="44.01677" lon="6.2512">
        <ele>605</ele>
        <time>2021-07-25T13:41:24Z</time>
      </trkpt>
      <trkpt lat="44.01685" lon="6.25184">
        <ele>606</ele>
        <time>2021-07-25T13:41:33Z</time>
      </trkpt>
      <trkpt lat="44.01685" lon="6.2521">
        <ele>607</ele>
        <time>2021-07-25T13:41:36Z</time>
      </trkpt>
      <trkpt lat="44.01678" lon="6.25247">
        <ele>608</ele>
        <time>2021-07-25T13:41:41Z</time>
      </trkpt>
      <trkpt lat="44.01667" lon="6.2527">
        <ele>608</ele>
        <time>2021-07-25T13:41:45Z</time>
      </trkpt>
      <trkpt lat="44.01655" lon="6.25284">
        <ele>609</ele>
        <time>2021-07-25T13:41:47Z</time>
      </trkpt>
      <trkpt lat="44.01622" lon="6.25307">
        <ele>609</ele>
        <time>2021-07-25T13:41:54Z</time>
      </trkpt>
      <trkpt lat="44.01535" lon="6.25349">
        <ele>619</ele>
        <time>2021-07-25T13:42:10Z</time>
      </trkpt>
      <trkpt lat="44.01499" lon="6.25369">
        <ele>631</ele>
        <time>2021-07-25T13:42:17Z</time>
      </trkpt>
      <trkpt lat="44.01481" lon="6.25372">
        <ele>636</ele>
        <time>2021-07-25T13:42:20Z</time>
      </trkpt>
      <trkpt lat="44.01424" lon="6.25368">
        <ele>650</ele>
        <time>2021-07-25T13:42:31Z</time>
      </trkpt>
      <trkpt lat="44.01405" lon="6.2536">
        <ele>654</ele>
        <time>2021-07-25T13:42:34Z</time>
      </trkpt>
      <trkpt lat="44.01364" lon="6.25349">
        <ele>665</ele>
        <time>2021-07-25T13:42:42Z</time>
      </trkpt>
      <trkpt lat="44.01307" lon="6.25341">
        <ele>673</ele>
        <time>2021-07-25T13:42:52Z</time>
      </trkpt>
      <trkpt lat="44.0128" lon="6.25342">
        <ele>673</ele>
        <time>2021-07-25T13:42:57Z</time>
      </trkpt>
      <trkpt lat="44.01204" lon="6.25354">
        <ele>649</ele>
        <time>2021-07-25T13:43:10Z</time>
      </trkpt>
      <trkpt lat="44.01195" lon="6.25356">
        <ele>645</ele>
        <time>2021-07-25T13:43:12Z</time>
      </trkpt>
      <trkpt lat="44.01131" lon="6.25387">
        <ele>633</ele>
        <time>2021-07-25T13:43:24Z</time>
      </trkpt>
      <trkpt lat="44.01121" lon="6.25394">
        <ele>632</ele>
        <time>2021-07-25T13:43:26Z</time>
      </trkpt>
      <trkpt lat="44.01101" lon="6.25412">
        <ele>628</ele>
        <time>2021-07-25T13:43:30Z</time>
      </trkpt>
      <trkpt lat="44.01086" lon="6.25432">
        <ele>625</ele>
        <time>2021-07-25T13:43:34Z</time>
      </trkpt>
      <trkpt lat="44.01077" lon="6.2545">
        <ele>625</ele>
        <time>2021-07-25T13:43:37Z</time>
      </trkpt>
      <trkpt lat="44.01074" lon="6.2546">
        <ele>626</ele>
        <time>2021-07-25T13:43:38Z</time>
      </trkpt>
      <trkpt lat="44.01071" lon="6.25497">
        <ele>627</ele>
        <time>2021-07-25T13:43:43Z</time>
      </trkpt>
      <trkpt lat="44.01073" lon="6.25617">
        <ele>635</ele>
        <time>2021-07-25T13:43:58Z</time>
      </trkpt>
      <trkpt lat="44.01074" lon="6.25675">
        <ele>637</ele>
        <time>2021-07-25T13:44:05Z</time>
      </trkpt>
      <trkpt lat="44.01074" lon="6.25726">
        <ele>637</ele>
        <time>2021-07-25T13:44:12Z</time>
      </trkpt>
      <trkpt lat="44.01069" lon="6.25762">
        <ele>638</ele>
        <time>2021-07-25T13:44:17Z</time>
      </trkpt>
      <trkpt lat="44.01064" lon="6.25781">
        <ele>638</ele>
        <time>2021-07-25T13:44:19Z</time>
      </trkpt>
      <trkpt lat="44.01026" lon="6.25885">
        <ele>637</ele>
        <time>2021-07-25T13:44:34Z</time>
      </trkpt>
      <trkpt lat="44.01" lon="6.25976">
        <ele>627</ele>
        <time>2021-07-25T13:44:47Z</time>
      </trkpt>
      <trkpt lat="44.0099" lon="6.26014">
        <ele>628</ele>
        <time>2021-07-25T13:44:52Z</time>
      </trkpt>
      <trkpt lat="44.00987" lon="6.26038">
        <ele>630</ele>
        <time>2021-07-25T13:44:55Z</time>
      </trkpt>
      <trkpt lat="44.00978" lon="6.26184">
        <ele>632</ele>
        <time>2021-07-25T13:45:14Z</time>
      </trkpt>
      <trkpt lat="44.00977" lon="6.26207">
        <ele>631</ele>
        <time>2021-07-25T13:45:17Z</time>
      </trkpt>
      <trkpt lat="44.00969" lon="6.26335">
        <ele>626</ele>
        <time>2021-07-25T13:45:33Z</time>
      </trkpt>
      <trkpt lat="44.00969" lon="6.26339">
        <ele>626</ele>
        <time>2021-07-25T13:45:34Z</time>
      </trkpt>
      <trkpt lat="44.00962" lon="6.26437">
        <ele>620</ele>
        <time>2021-07-25T13:45:46Z</time>
      </trkpt>
      <trkpt lat="44.00958" lon="6.26516">
        <ele>620</ele>
        <time>2021-07-25T13:45:56Z</time>
      </trkpt>
      <trkpt lat="44.00958" lon="6.26527">
        <ele>620</ele>
        <time>2021-07-25T13:45:58Z</time>
      </trkpt>
      <trkpt lat="44.00951" lon="6.26639">
        <ele>624</ele>
        <time>2021-07-25T13:46:12Z</time>
      </trkpt>
      <trkpt lat="44.00947" lon="6.26708">
        <ele>625</ele>
        <time>2021-07-25T13:46:21Z</time>
      </trkpt>
      <trkpt lat="44.00941" lon="6.26835">
        <ele>629</ele>
        <time>2021-07-25T13:46:37Z</time>
      </trkpt>
      <trkpt lat="44.00938" lon="6.26888">
        <ele>628</ele>
        <time>2021-07-25T13:46:44Z</time>
      </trkpt>
      <trkpt lat="44.0093" lon="6.26964">
        <ele>627</ele>
        <time>2021-07-25T13:46:54Z</time>
      </trkpt>
      <trkpt lat="44.00929" lon="6.26999">
        <ele>627</ele>
        <time>2021-07-25T13:46:58Z</time>
      </trkpt>
      <trkpt lat="44.00941" lon="6.27092">
        <ele>632</ele>
        <time>2021-07-25T13:47:11Z</time>
      </trkpt>
      <trkpt lat="44.00942" lon="6.27104">
        <ele>633</ele>
        <time>2021-07-25T13:47:12Z</time>
      </trkpt>
      <trkpt lat="44.00942" lon="6.27117">
        <ele>633</ele>
        <time>2021-07-25T13:47:14Z</time>
      </trkpt>
      <trkpt lat="44.00927" lon="6.27207">
        <ele>631</ele>
        <time>2021-07-25T13:47:26Z</time>
      </trkpt>
      <trkpt lat="44.00926" lon="6.27219">
        <ele>631</ele>
        <time>2021-07-25T13:47:27Z</time>
      </trkpt>
      <trkpt lat="44.00926" lon="6.2722">
        <ele>631</ele>
        <time>2021-07-25T13:47:27Z</time>
      </trkpt>
      <trkpt lat="44.00926" lon="6.27226">
        <ele>631</ele>
        <time>2021-07-25T13:47:28Z</time>
      </trkpt>
      <trkpt lat="44.00919" lon="6.27444">
        <ele>642</ele>
        <time>2021-07-25T13:47:56Z</time>
      </trkpt>
      <trkpt lat="44.00916" lon="6.27477">
        <ele>644</ele>
        <time>2021-07-25T13:48:00Z</time>
      </trkpt>
      <trkpt lat="44.00907" lon="6.27513">
        <ele>648</ele>
        <time>2021-07-25T13:48:05Z</time>
      </trkpt>
      <trkpt lat="44.00873" lon="6.27601">
        <ele>646</ele>
        <time>2021-07-25T13:48:18Z</time>
      </trkpt>
      <trkpt lat="44.0086" lon="6.2764">
        <ele>644</ele>
        <time>2021-07-25T13:48:23Z</time>
      </trkpt>
      <trkpt lat="44.00833" lon="6.27735">
        <ele>635</ele>
        <time>2021-07-25T13:48:36Z</time>
      </trkpt>
      <trkpt lat="44.00827" lon="6.27755">
        <ele>636</ele>
        <time>2021-07-25T13:48:39Z</time>
      </trkpt>
      <trkpt lat="44.00811" lon="6.27788">
        <ele>639</ele>
        <time>2021-07-25T13:48:44Z</time>
      </trkpt>
      <trkpt lat="44.00758" lon="6.27878">
        <ele>636</ele>
        <time>2021-07-25T13:48:59Z</time>
      </trkpt>
      <trkpt lat="44.00748" lon="6.27905">
        <ele>636</ele>
        <time>2021-07-25T13:49:03Z</time>
      </trkpt>
      <trkpt lat="44.00739" lon="6.27941">
        <ele>638</ele>
        <time>2021-07-25T13:49:08Z</time>
      </trkpt>
      <trkpt lat="44.00726" lon="6.28043">
        <ele>644</ele>
        <time>2021-07-25T13:49:21Z</time>
      </trkpt>
      <trkpt lat="44.00719" lon="6.28074">
        <ele>645</ele>
        <time>2021-07-25T13:49:25Z</time>
      </trkpt>
      <trkpt lat="44.00711" lon="6.28101">
        <ele>646</ele>
        <time>2021-07-25T13:49:29Z</time>
      </trkpt>
      <trkpt lat="44.006" lon="6.28358">
        <ele>645</ele>
        <time>2021-07-25T13:50:07Z</time>
      </trkpt>
      <trkpt lat="44.00585" lon="6.28384">
        <ele>645</ele>
        <time>2021-07-25T13:50:12Z</time>
      </trkpt>
      <trkpt lat="44.0056" lon="6.28407">
        <ele>645</ele>
        <time>2021-07-25T13:50:17Z</time>
      </trkpt>
      <trkpt lat="44.00455" lon="6.2847">
        <ele>643</ele>
        <time>2021-07-25T13:50:37Z</time>
      </trkpt>
      <trkpt lat="44.00439" lon="6.28481">
        <ele>643</ele>
        <time>2021-07-25T13:50:41Z</time>
      </trkpt>
      <trkpt lat="44.00412" lon="6.28509">
        <ele>641</ele>
        <time>2021-07-25T13:50:47Z</time>
      </trkpt>
      <trkpt lat="44.00359" lon="6.28574">
        <ele>641</ele>
        <time>2021-07-25T13:50:59Z</time>
      </trkpt>
      <trkpt lat="44.00346" lon="6.28587">
        <ele>640</ele>
        <time>2021-07-25T13:51:02Z</time>
      </trkpt>
      <trkpt lat="44.00309" lon="6.28615">
        <ele>639</ele>
        <time>2021-07-25T13:51:10Z</time>
      </trkpt>
      <trkpt lat="44.00291" lon="6.28627">
        <ele>640</ele>
        <time>2021-07-25T13:51:13Z</time>
      </trkpt>
      <trkpt lat="44.00252" lon="6.2865">
        <ele>640</ele>
        <time>2021-07-25T13:51:21Z</time>
      </trkpt>
      <trkpt lat="44.00131" lon="6.28731">
        <ele>645</ele>
        <time>2021-07-25T13:51:45Z</time>
      </trkpt>
      <trkpt lat="44.00112" lon="6.28746">
        <ele>643</ele>
        <time>2021-07-25T13:51:48Z</time>
      </trkpt>
      <trkpt lat="44.00093" lon="6.28767">
        <ele>644</ele>
        <time>2021-07-25T13:51:53Z</time>
      </trkpt>
      <trkpt lat="44.00075" lon="6.28791">
        <ele>647</ele>
        <time>2021-07-25T13:51:57Z</time>
      </trkpt>
      <trkpt lat="44.00062" lon="6.28817">
        <ele>649</ele>
        <time>2021-07-25T13:52:01Z</time>
      </trkpt>
      <trkpt lat="44.00049" lon="6.28852">
        <ele>652</ele>
        <time>2021-07-25T13:52:06Z</time>
      </trkpt>
      <trkpt lat="44.00039" lon="6.28891">
        <ele>655</ele>
        <time>2021-07-25T13:52:12Z</time>
      </trkpt>
      <trkpt lat="44.0003" lon="6.28935">
        <ele>657</ele>
        <time>2021-07-25T13:52:17Z</time>
      </trkpt>
      <trkpt lat="44.00018" lon="6.28978">
        <ele>658</ele>
        <time>2021-07-25T13:52:23Z</time>
      </trkpt>
      <trkpt lat="43.99998" lon="6.29034">
        <ele>658</ele>
        <time>2021-07-25T13:52:31Z</time>
      </trkpt>
      <trkpt lat="43.99983" lon="6.29068">
        <ele>661</ele>
        <time>2021-07-25T13:52:36Z</time>
      </trkpt>
      <trkpt lat="43.9997" lon="6.2909">
        <ele>662</ele>
        <time>2021-07-25T13:52:40Z</time>
      </trkpt>
      <trkpt lat="43.99953" lon="6.29109">
        <ele>663</ele>
        <time>2021-07-25T13:52:44Z</time>
      </trkpt>
      <trkpt lat="43.99931" lon="6.29128">
        <ele>662</ele>
        <time>2021-07-25T13:52:49Z</time>
      </trkpt>
      <trkpt lat="43.99905" lon="6.29141">
        <ele>660</ele>
        <time>2021-07-25T13:52:53Z</time>
      </trkpt>
      <trkpt lat="43.99881" lon="6.29146">
        <ele>659</ele>
        <time>2021-07-25T13:52:58Z</time>
      </trkpt>
      <trkpt lat="43.99713" lon="6.29154">
        <ele>653</ele>
        <time>2021-07-25T13:53:28Z</time>
      </trkpt>
      <trkpt lat="43.99691" lon="6.29158">
        <ele>652</ele>
        <time>2021-07-25T13:53:32Z</time>
      </trkpt>
      <trkpt lat="43.99667" lon="6.29168">
        <ele>649</ele>
        <time>2021-07-25T13:53:36Z</time>
      </trkpt>
      <trkpt lat="43.9965" lon="6.29178">
        <ele>652</ele>
        <time>2021-07-25T13:53:39Z</time>
      </trkpt>
      <trkpt lat="43.99542" lon="6.29256">
        <ele>658</ele>
        <time>2021-07-25T13:54:01Z</time>
      </trkpt>
      <trkpt lat="43.99509" lon="6.29279">
        <ele>662</ele>
        <time>2021-07-25T13:54:08Z</time>
      </trkpt>
      <trkpt lat="43.995" lon="6.29283">
        <ele>661</ele>
        <time>2021-07-25T13:54:09Z</time>
      </trkpt>
      <trkpt lat="43.99467" lon="6.29296">
        <ele>664</ele>
        <time>2021-07-25T13:54:15Z</time>
      </trkpt>
      <trkpt lat="43.99372" lon="6.29318">
        <ele>664</ele>
        <time>2021-07-25T13:54:33Z</time>
      </trkpt>
      <trkpt lat="43.99304" lon="6.29314">
        <ele>663</ele>
        <time>2021-07-25T13:54:45Z</time>
      </trkpt>
      <trkpt lat="43.9929" lon="6.29319">
        <ele>663</ele>
        <time>2021-07-25T13:54:47Z</time>
      </trkpt>
      <trkpt lat="43.99277" lon="6.29331">
        <ele>660</ele>
        <time>2021-07-25T13:54:50Z</time>
      </trkpt>
      <trkpt lat="43.99273" lon="6.29338">
        <ele>660</ele>
        <time>2021-07-25T13:54:51Z</time>
      </trkpt>
      <trkpt lat="43.99265" lon="6.29356">
        <ele>660</ele>
        <time>2021-07-25T13:54:54Z</time>
      </trkpt>
      <trkpt lat="43.99263" lon="6.29371">
        <ele>660</ele>
        <time>2021-07-25T13:54:56Z</time>
      </trkpt>
      <trkpt lat="43.9926" lon="6.29409">
        <ele>661</ele>
        <time>2021-07-25T13:55:01Z</time>
      </trkpt>
      <trkpt lat="43.99256" lon="6.29434">
        <ele>661</ele>
        <time>2021-07-25T13:55:04Z</time>
      </trkpt>
      <trkpt lat="43.9923" lon="6.2953">
        <ele>667</ele>
        <time>2021-07-25T13:55:17Z</time>
      </trkpt>
      <trkpt lat="43.99221" lon="6.29556">
        <ele>667</ele>
        <time>2021-07-25T13:55:21Z</time>
      </trkpt>
      <trkpt lat="43.99195" lon="6.29598">
        <ele>664</ele>
        <time>2021-07-25T13:55:28Z</time>
      </trkpt>
      <trkpt lat="43.99145" lon="6.29656">
        <ele>663</ele>
        <time>2021-07-25T13:55:39Z</time>
      </trkpt>
      <trkpt lat="43.99108" lon="6.29684">
        <ele>664</ele>
        <time>2021-07-25T13:55:47Z</time>
      </trkpt>
      <trkpt lat="43.99078" lon="6.29703">
        <ele>664</ele>
        <time>2021-07-25T13:55:53Z</time>
      </trkpt>
      <trkpt lat="43.99059" lon="6.29709">
        <ele>667</ele>
        <time>2021-07-25T13:55:56Z</time>
      </trkpt>
      <trkpt lat="43.99039" lon="6.29707">
        <ele>668</ele>
        <time>2021-07-25T13:56:00Z</time>
      </trkpt>
      <trkpt lat="43.98886" lon="6.29648">
        <ele>666</ele>
        <time>2021-07-25T13:56:28Z</time>
      </trkpt>
      <trkpt lat="43.9887" lon="6.29645">
        <ele>665</ele>
        <time>2021-07-25T13:56:31Z</time>
      </trkpt>
      <trkpt lat="43.98852" lon="6.29649">
        <ele>664</ele>
        <time>2021-07-25T13:56:34Z</time>
      </trkpt>
      <trkpt lat="43.98843" lon="6.29654">
        <ele>664</ele>
        <time>2021-07-25T13:56:36Z</time>
      </trkpt>
      <trkpt lat="43.98828" lon="6.29667">
        <ele>664</ele>
        <time>2021-07-25T13:56:39Z</time>
      </trkpt>
      <trkpt lat="43.98816" lon="6.29689">
        <ele>666</ele>
        <time>2021-07-25T13:56:43Z</time>
      </trkpt>
      <trkpt lat="43.98786" lon="6.29776">
        <ele>672</ele>
        <time>2021-07-25T13:56:55Z</time>
      </trkpt>
      <trkpt lat="43.9877" lon="6.29809">
        <ele>673</ele>
        <time>2021-07-25T13:57:00Z</time>
      </trkpt>
      <trkpt lat="43.98751" lon="6.29832">
        <ele>670</ele>
        <time>2021-07-25T13:57:05Z</time>
      </trkpt>
      <trkpt lat="43.98743" lon="6.29839">
        <ele>671</ele>
        <time>2021-07-25T13:57:06Z</time>
      </trkpt>
      <trkpt lat="43.98711" lon="6.29856">
        <ele>671</ele>
        <time>2021-07-25T13:57:12Z</time>
      </trkpt>
      <trkpt lat="43.98606" lon="6.29883">
        <ele>664</ele>
        <time>2021-07-25T13:57:31Z</time>
      </trkpt>
      <trkpt lat="43.98581" lon="6.29893">
        <ele>663</ele>
        <time>2021-07-25T13:57:36Z</time>
      </trkpt>
      <trkpt lat="43.98551" lon="6.29913">
        <ele>663</ele>
        <time>2021-07-25T13:57:42Z</time>
      </trkpt>
      <trkpt lat="43.98527" lon="6.29943">
        <ele>666</ele>
        <time>2021-07-25T13:57:48Z</time>
      </trkpt>
      <trkpt lat="43.98519" lon="6.29955">
        <ele>666</ele>
        <time>2021-07-25T13:57:50Z</time>
      </trkpt>
      <trkpt lat="43.98506" lon="6.29984">
        <ele>668</ele>
        <time>2021-07-25T13:57:54Z</time>
      </trkpt>
      <trkpt lat="43.98467" lon="6.3013">
        <ele>669</ele>
        <time>2021-07-25T13:58:14Z</time>
      </trkpt>
      <trkpt lat="43.98455" lon="6.30162">
        <ele>668</ele>
        <time>2021-07-25T13:58:19Z</time>
      </trkpt>
      <trkpt lat="43.98432" lon="6.30205">
        <ele>668</ele>
        <time>2021-07-25T13:58:26Z</time>
      </trkpt>
      <trkpt lat="43.98411" lon="6.30232">
        <ele>668</ele>
        <time>2021-07-25T13:58:31Z</time>
      </trkpt>
      <trkpt lat="43.98385" lon="6.30256">
        <ele>669</ele>
        <time>2021-07-25T13:58:36Z</time>
      </trkpt>
      <trkpt lat="43.98357" lon="6.30273">
        <ele>669</ele>
        <time>2021-07-25T13:58:42Z</time>
      </trkpt>
      <trkpt lat="43.9824" lon="6.30334">
        <ele>669</ele>
        <time>2021-07-25T13:59:04Z</time>
      </trkpt>
      <trkpt lat="43.98216" lon="6.30341">
        <ele>671</ele>
        <time>2021-07-25T13:59:08Z</time>
      </trkpt>
      <trkpt lat="43.98181" lon="6.30344">
        <ele>672</ele>
        <time>2021-07-25T13:59:14Z</time>
      </trkpt>
      <trkpt lat="43.98169" lon="6.30347">
        <ele>673</ele>
        <time>2021-07-25T13:59:17Z</time>
      </trkpt>
      <trkpt lat="43.98151" lon="6.30353">
        <ele>673</ele>
        <time>2021-07-25T13:59:20Z</time>
      </trkpt>
      <trkpt lat="43.98133" lon="6.30361">
        <ele>673</ele>
        <time>2021-07-25T13:59:23Z</time>
      </trkpt>
      <trkpt lat="43.98096" lon="6.30392">
        <ele>673</ele>
        <time>2021-07-25T13:59:31Z</time>
      </trkpt>
      <trkpt lat="43.98078" lon="6.30411">
        <ele>672</ele>
        <time>2021-07-25T13:59:35Z</time>
      </trkpt>
      <trkpt lat="43.98054" lon="6.30442">
        <ele>676</ele>
        <time>2021-07-25T13:59:41Z</time>
      </trkpt>
      <trkpt lat="43.98042" lon="6.30469">
        <ele>679</ele>
        <time>2021-07-25T13:59:45Z</time>
      </trkpt>
      <trkpt lat="43.98037" lon="6.30484">
        <ele>680</ele>
        <time>2021-07-25T13:59:47Z</time>
      </trkpt>
      <trkpt lat="43.98014" lon="6.30568">
        <ele>682</ele>
        <time>2021-07-25T13:59:58Z</time>
      </trkpt>
      <trkpt lat="43.98003" lon="6.30611">
        <ele>681</ele>
        <time>2021-07-25T14:00:04Z</time>
      </trkpt>
      <trkpt lat="43.97995" lon="6.30652">
        <ele>681</ele>
        <time>2021-07-25T14:00:10Z</time>
      </trkpt>
      <trkpt lat="43.97992" lon="6.3067">
        <ele>681</ele>
        <time>2021-07-25T14:00:12Z</time>
      </trkpt>
      <trkpt lat="43.97992" lon="6.307">
        <ele>681</ele>
        <time>2021-07-25T14:00:16Z</time>
      </trkpt>
      <trkpt lat="43.98" lon="6.30773">
        <ele>680</ele>
        <time>2021-07-25T14:00:25Z</time>
      </trkpt>
      <trkpt lat="43.98001" lon="6.30825">
        <ele>683</ele>
        <time>2021-07-25T14:00:32Z</time>
      </trkpt>
      <trkpt lat="43.97997" lon="6.30859">
        <ele>684</ele>
        <time>2021-07-25T14:00:36Z</time>
      </trkpt>
      <trkpt lat="43.97986" lon="6.30894">
        <ele>687</ele>
        <time>2021-07-25T14:00:41Z</time>
      </trkpt>
      <trkpt lat="43.9798" lon="6.30905">
        <ele>687</ele>
        <time>2021-07-25T14:00:43Z</time>
      </trkpt>
      <trkpt lat="43.97976" lon="6.30919">
        <ele>688</ele>
        <time>2021-07-25T14:00:45Z</time>
      </trkpt>
      <trkpt lat="43.97968" lon="6.30933">
        <ele>688</ele>
        <time>2021-07-25T14:00:47Z</time>
      </trkpt>
      <trkpt lat="43.97929" lon="6.30987">
        <ele>688</ele>
        <time>2021-07-25T14:00:57Z</time>
      </trkpt>
      <trkpt lat="43.97869" lon="6.31049">
        <ele>683</ele>
        <time>2021-07-25T14:01:10Z</time>
      </trkpt>
      <trkpt lat="43.97811" lon="6.31104">
        <ele>682</ele>
        <time>2021-07-25T14:01:23Z</time>
      </trkpt>
      <trkpt lat="43.9779" lon="6.31117">
        <ele>683</ele>
        <time>2021-07-25T14:01:27Z</time>
      </trkpt>
      <trkpt lat="43.97681" lon="6.3117">
        <ele>688</ele>
        <time>2021-07-25T14:01:48Z</time>
      </trkpt>
      <trkpt lat="43.97659" lon="6.31177">
        <ele>689</ele>
        <time>2021-07-25T14:01:52Z</time>
      </trkpt>
      <trkpt lat="43.97634" lon="6.31176">
        <ele>688</ele>
        <time>2021-07-25T14:01:56Z</time>
      </trkpt>
      <trkpt lat="43.97437" lon="6.31157">
        <ele>680</ele>
        <time>2021-07-25T14:02:31Z</time>
      </trkpt>
      <trkpt lat="43.97402" lon="6.3116">
        <ele>680</ele>
        <time>2021-07-25T14:02:37Z</time>
      </trkpt>
      <trkpt lat="43.97378" lon="6.31165">
        <ele>680</ele>
        <time>2021-07-25T14:02:42Z</time>
      </trkpt>
      <trkpt lat="43.97356" lon="6.3117">
        <ele>681</ele>
        <time>2021-07-25T14:02:46Z</time>
      </trkpt>
      <trkpt lat="43.97303" lon="6.31188">
        <ele>684</ele>
        <time>2021-07-25T14:02:55Z</time>
      </trkpt>
      <trkpt lat="43.97291" lon="6.31191">
        <ele>684</ele>
        <time>2021-07-25T14:02:58Z</time>
      </trkpt>
      <trkpt lat="43.97271" lon="6.31193">
        <ele>685</ele>
        <time>2021-07-25T14:03:01Z</time>
      </trkpt>
      <trkpt lat="43.9726" lon="6.31192">
        <ele>685</ele>
        <time>2021-07-25T14:03:03Z</time>
      </trkpt>
      <trkpt lat="43.97237" lon="6.31184">
        <ele>684</ele>
        <time>2021-07-25T14:03:07Z</time>
      </trkpt>
      <trkpt lat="43.97182" lon="6.31155">
        <ele>682</ele>
        <time>2021-07-25T14:03:18Z</time>
      </trkpt>
      <trkpt lat="43.97155" lon="6.31144">
        <ele>682</ele>
        <time>2021-07-25T14:03:23Z</time>
      </trkpt>
      <trkpt lat="43.97125" lon="6.3114">
        <ele>682</ele>
        <time>2021-07-25T14:03:28Z</time>
      </trkpt>
      <trkpt lat="43.97089" lon="6.3115">
        <ele>684</ele>
        <time>2021-07-25T14:03:35Z</time>
      </trkpt>
      <trkpt lat="43.97032" lon="6.31173">
        <ele>685</ele>
        <time>2021-07-25T14:03:45Z</time>
      </trkpt>
      <trkpt lat="43.9698" lon="6.31188">
        <ele>686</ele>
        <time>2021-07-25T14:03:55Z</time>
      </trkpt>
      <trkpt lat="43.96926" lon="6.31214">
        <ele>687</ele>
        <time>2021-07-25T14:04:05Z</time>
      </trkpt>
      <trkpt lat="43.96828" lon="6.31276">
        <ele>687</ele>
        <time>2021-07-25T14:04:24Z</time>
      </trkpt>
      <trkpt lat="43.96813" lon="6.31287">
        <ele>687</ele>
        <time>2021-07-25T14:04:27Z</time>
      </trkpt>
      <trkpt lat="43.96789" lon="6.31313">
        <ele>687</ele>
        <time>2021-07-25T14:04:32Z</time>
      </trkpt>
      <trkpt lat="43.96782" lon="6.31328">
        <ele>687</ele>
        <time>2021-07-25T14:04:35Z</time>
      </trkpt>
      <trkpt lat="43.96761" lon="6.31365">
        <ele>686</ele>
        <time>2021-07-25T14:04:41Z</time>
      </trkpt>
      <trkpt lat="43.96752" lon="6.31387">
        <ele>685</ele>
        <time>2021-07-25T14:04:44Z</time>
      </trkpt>
      <trkpt lat="43.96741" lon="6.31422">
        <ele>686</ele>
        <time>2021-07-25T14:04:49Z</time>
      </trkpt>
      <trkpt lat="43.96738" lon="6.31438">
        <ele>687</ele>
        <time>2021-07-25T14:04:51Z</time>
      </trkpt>
      <trkpt lat="43.96722" lon="6.3157">
        <ele>688</ele>
        <time>2021-07-25T14:05:08Z</time>
      </trkpt>
      <trkpt lat="43.96715" lon="6.316">
        <ele>689</ele>
        <time>2021-07-25T14:05:12Z</time>
      </trkpt>
      <trkpt lat="43.96708" lon="6.31615">
        <ele>689</ele>
        <time>2021-07-25T14:05:15Z</time>
      </trkpt>
      <trkpt lat="43.9665" lon="6.31787">
        <ele>695</ele>
        <time>2021-07-25T14:05:39Z</time>
      </trkpt>
      <trkpt lat="43.96626" lon="6.31848">
        <ele>698</ele>
        <time>2021-07-25T14:05:48Z</time>
      </trkpt>
      <trkpt lat="43.96604" lon="6.31884">
        <ele>698</ele>
        <time>2021-07-25T14:05:54Z</time>
      </trkpt>
      <trkpt lat="43.96582" lon="6.3191">
        <ele>694</ele>
        <time>2021-07-25T14:05:59Z</time>
      </trkpt>
      <trkpt lat="43.96556" lon="6.31936">
        <ele>697</ele>
        <time>2021-07-25T14:06:05Z</time>
      </trkpt>
      <trkpt lat="43.96503" lon="6.31976">
        <ele>694</ele>
        <time>2021-07-25T14:06:15Z</time>
      </trkpt>
      <trkpt lat="43.96479" lon="6.31998">
        <ele>694</ele>
        <time>2021-07-25T14:06:20Z</time>
      </trkpt>
      <trkpt lat="43.96409" lon="6.3207">
        <ele>692</ele>
        <time>2021-07-25T14:06:36Z</time>
      </trkpt>
      <trkpt lat="43.96355" lon="6.32129">
        <ele>694</ele>
        <time>2021-07-25T14:06:48Z</time>
      </trkpt>
      <trkpt lat="43.96325" lon="6.32163">
        <ele>693</ele>
        <time>2021-07-25T14:06:55Z</time>
      </trkpt>
      <trkpt lat="43.96316" lon="6.32175">
        <ele>695</ele>
        <time>2021-07-25T14:06:57Z</time>
      </trkpt>
      <trkpt lat="43.96305" lon="6.32197">
        <ele>697</ele>
        <time>2021-07-25T14:07:01Z</time>
      </trkpt>
      <trkpt lat="43.963" lon="6.3221">
        <ele>697</ele>
        <time>2021-07-25T14:07:03Z</time>
      </trkpt>
      <trkpt lat="43.96296" lon="6.32225">
        <ele>698</ele>
        <time>2021-07-25T14:07:05Z</time>
      </trkpt>
      <trkpt lat="43.96291" lon="6.32258">
        <ele>700</ele>
        <time>2021-07-25T14:07:09Z</time>
      </trkpt>
      <trkpt lat="43.96286" lon="6.32406">
        <ele>706</ele>
        <time>2021-07-25T14:07:28Z</time>
      </trkpt>
      <trkpt lat="43.96283" lon="6.32422">
        <ele>705</ele>
        <time>2021-07-25T14:07:30Z</time>
      </trkpt>
      <trkpt lat="43.96279" lon="6.32441">
        <ele>704</ele>
        <time>2021-07-25T14:07:33Z</time>
      </trkpt>
      <trkpt lat="43.96261" lon="6.3249">
        <ele>698</ele>
        <time>2021-07-25T14:07:40Z</time>
      </trkpt>
      <trkpt lat="43.96175" lon="6.32677">
        <ele>700</ele>
        <time>2021-07-25T14:08:08Z</time>
      </trkpt>
      <trkpt lat="43.96166" lon="6.32709">
        <ele>701</ele>
        <time>2021-07-25T14:08:13Z</time>
      </trkpt>
      <trkpt lat="43.96163" lon="6.32728">
        <ele>703</ele>
        <time>2021-07-25T14:08:15Z</time>
      </trkpt>
      <trkpt lat="43.96162" lon="6.3275">
        <ele>706</ele>
        <time>2021-07-25T14:08:18Z</time>
      </trkpt>
      <trkpt lat="43.96172" lon="6.32828">
        <ele>719</ele>
        <time>2021-07-25T14:08:28Z</time>
      </trkpt>
      <trkpt lat="43.96174" lon="6.32859">
        <ele>718</ele>
        <time>2021-07-25T14:08:32Z</time>
      </trkpt>
      <trkpt lat="43.96172" lon="6.32892">
        <ele>714</ele>
        <time>2021-07-25T14:08:36Z</time>
      </trkpt>
      <trkpt lat="43.96166" lon="6.32923">
        <ele>709</ele>
        <time>2021-07-25T14:08:40Z</time>
      </trkpt>
      <trkpt lat="43.96143" lon="6.33018">
        <ele>713</ele>
        <time>2021-07-25T14:08:53Z</time>
      </trkpt>
      <trkpt lat="43.96139" lon="6.3304">
        <ele>712</ele>
        <time>2021-07-25T14:08:56Z</time>
      </trkpt>
      <trkpt lat="43.96138" lon="6.3306">
        <ele>711</ele>
        <time>2021-07-25T14:08:59Z</time>
      </trkpt>
      <trkpt lat="43.9614" lon="6.33085">
        <ele>711</ele>
        <time>2021-07-25T14:09:02Z</time>
      </trkpt>
      <trkpt lat="43.96157" lon="6.33216">
        <ele>707</ele>
        <time>2021-07-25T14:09:19Z</time>
      </trkpt>
      <trkpt lat="43.96179" lon="6.33409">
        <ele>706</ele>
        <time>2021-07-25T14:09:44Z</time>
      </trkpt>
      <trkpt lat="43.96181" lon="6.33426">
        <ele>706</ele>
        <time>2021-07-25T14:09:46Z</time>
      </trkpt>
      <trkpt lat="43.96185" lon="6.33462">
        <ele>707</ele>
        <time>2021-07-25T14:09:51Z</time>
      </trkpt>
      <trkpt lat="43.96185" lon="6.33465">
        <ele>707</ele>
        <time>2021-07-25T14:09:51Z</time>
      </trkpt>
      <trkpt lat="43.96186" lon="6.33502">
        <ele>707</ele>
        <time>2021-07-25T14:09:56Z</time>
      </trkpt>
      <trkpt lat="43.96183" lon="6.33535">
        <ele>709</ele>
        <time>2021-07-25T14:10:00Z</time>
      </trkpt>
      <trkpt lat="43.96182" lon="6.33543">
        <ele>709</ele>
        <time>2021-07-25T14:10:01Z</time>
      </trkpt>
      <trkpt lat="43.96181" lon="6.3355">
        <ele>709</ele>
        <time>2021-07-25T14:10:02Z</time>
      </trkpt>
      <trkpt lat="43.96172" lon="6.33583">
        <ele>707</ele>
        <time>2021-07-25T14:10:07Z</time>
      </trkpt>
      <trkpt lat="43.96159" lon="6.33616">
        <ele>709</ele>
        <time>2021-07-25T14:10:11Z</time>
      </trkpt>
      <trkpt lat="43.96084" lon="6.33762">
        <ele>710</ele>
        <time>2021-07-25T14:10:34Z</time>
      </trkpt>
      <trkpt lat="43.96078" lon="6.33777">
        <ele>713</ele>
        <time>2021-07-25T14:10:37Z</time>
      </trkpt>
      <trkpt lat="43.96066" lon="6.33815">
        <ele>718</ele>
        <time>2021-07-25T14:10:42Z</time>
      </trkpt>
      <trkpt lat="43.96056" lon="6.33858">
        <ele>722</ele>
        <time>2021-07-25T14:10:48Z</time>
      </trkpt>
      <trkpt lat="43.96049" lon="6.33894">
        <ele>723</ele>
        <time>2021-07-25T14:10:53Z</time>
      </trkpt>
      <trkpt lat="43.9604" lon="6.33947">
        <ele>724</ele>
        <time>2021-07-25T14:10:59Z</time>
      </trkpt>
      <trkpt lat="43.96035" lon="6.33996">
        <ele>723</ele>
        <time>2021-07-25T14:11:06Z</time>
      </trkpt>
      <trkpt lat="43.96026" lon="6.34102">
        <ele>723</ele>
        <time>2021-07-25T14:11:19Z</time>
      </trkpt>
      <trkpt lat="43.96019" lon="6.342">
        <ele>718</ele>
        <time>2021-07-25T14:11:32Z</time>
      </trkpt>
      <trkpt lat="43.96017" lon="6.34225">
        <ele>716</ele>
        <time>2021-07-25T14:11:35Z</time>
      </trkpt>
      <trkpt lat="43.96013" lon="6.34312">
        <ele>715</ele>
        <time>2021-07-25T14:11:46Z</time>
      </trkpt>
      <trkpt lat="43.96014" lon="6.34325">
        <ele>716</ele>
        <time>2021-07-25T14:11:48Z</time>
      </trkpt>
      <trkpt lat="43.96017" lon="6.34338">
        <ele>717</ele>
        <time>2021-07-25T14:11:50Z</time>
      </trkpt>
      <trkpt lat="43.96028" lon="6.34365">
        <ele>719</ele>
        <time>2021-07-25T14:11:54Z</time>
      </trkpt>
      <trkpt lat="43.96046" lon="6.34397">
        <ele>720</ele>
        <time>2021-07-25T14:11:59Z</time>
      </trkpt>
      <trkpt lat="43.96074" lon="6.34428">
        <ele>721</ele>
        <time>2021-07-25T14:12:05Z</time>
      </trkpt>
      <trkpt lat="43.96122" lon="6.34475">
        <ele>729</ele>
        <time>2021-07-25T14:12:16Z</time>
      </trkpt>
      <trkpt lat="43.9615" lon="6.34509">
        <ele>730</ele>
        <time>2021-07-25T14:12:23Z</time>
      </trkpt>
      <trkpt lat="43.96166" lon="6.34535">
        <ele>728</ele>
        <time>2021-07-25T14:12:27Z</time>
      </trkpt>
      <trkpt lat="43.96172" lon="6.34547">
        <ele>728</ele>
        <time>2021-07-25T14:12:29Z</time>
      </trkpt>
      <trkpt lat="43.9618" lon="6.34573">
        <ele>725</ele>
        <time>2021-07-25T14:12:32Z</time>
      </trkpt>
      <trkpt lat="43.96183" lon="6.34588">
        <ele>724</ele>
        <time>2021-07-25T14:12:34Z</time>
      </trkpt>
      <trkpt lat="43.96185" lon="6.34607">
        <ele>725</ele>
        <time>2021-07-25T14:12:37Z</time>
      </trkpt>
      <trkpt lat="43.96191" lon="6.34736">
        <ele>726</ele>
        <time>2021-07-25T14:12:53Z</time>
      </trkpt>
      <trkpt lat="43.96191" lon="6.34762">
        <ele>725</ele>
        <time>2021-07-25T14:12:57Z</time>
      </trkpt>
      <trkpt lat="43.9619" lon="6.34798">
        <ele>723</ele>
        <time>2021-07-25T14:13:01Z</time>
      </trkpt>
      <trkpt lat="43.96184" lon="6.34832">
        <ele>720</ele>
        <time>2021-07-25T14:13:06Z</time>
      </trkpt>
      <trkpt lat="43.96155" lon="6.34963">
        <ele>715</ele>
        <time>2021-07-25T14:13:23Z</time>
      </trkpt>
      <trkpt lat="43.96153" lon="6.34993">
        <ele>716</ele>
        <time>2021-07-25T14:13:27Z</time>
      </trkpt>
      <trkpt lat="43.96153" lon="6.35016">
        <ele>715</ele>
        <time>2021-07-25T14:13:30Z</time>
      </trkpt>
      <trkpt lat="43.96158" lon="6.35057">
        <ele>715</ele>
        <time>2021-07-25T14:13:36Z</time>
      </trkpt>
      <trkpt lat="43.96164" lon="6.3508">
        <ele>715</ele>
        <time>2021-07-25T14:13:39Z</time>
      </trkpt>
      <trkpt lat="43.96207" lon="6.35201">
        <ele>717</ele>
        <time>2021-07-25T14:13:56Z</time>
      </trkpt>
      <trkpt lat="43.96211" lon="6.35217">
        <ele>717</ele>
        <time>2021-07-25T14:13:58Z</time>
      </trkpt>
      <trkpt lat="43.96216" lon="6.35243">
        <ele>717</ele>
        <time>2021-07-25T14:14:02Z</time>
      </trkpt>
      <trkpt lat="43.96217" lon="6.35286">
        <ele>717</ele>
        <time>2021-07-25T14:14:07Z</time>
      </trkpt>
      <trkpt lat="43.96214" lon="6.35319">
        <ele>717</ele>
        <time>2021-07-25T14:14:11Z</time>
      </trkpt>
      <trkpt lat="43.96205" lon="6.35356">
        <ele>717</ele>
        <time>2021-07-25T14:14:16Z</time>
      </trkpt>
      <trkpt lat="43.96194" lon="6.35385">
        <ele>717</ele>
        <time>2021-07-25T14:14:21Z</time>
      </trkpt>
      <trkpt lat="43.96186" lon="6.354">
        <ele>717</ele>
        <time>2021-07-25T14:14:23Z</time>
      </trkpt>
      <trkpt lat="43.9617" lon="6.35424">
        <ele>716</ele>
        <time>2021-07-25T14:14:27Z</time>
      </trkpt>
      <trkpt lat="43.96152" lon="6.35446">
        <ele>715</ele>
        <time>2021-07-25T14:14:31Z</time>
      </trkpt>
      <trkpt lat="43.95972" lon="6.35679">
        <ele>721</ele>
        <time>2021-07-25T14:15:15Z</time>
      </trkpt>
      <trkpt lat="43.95906" lon="6.35751">
        <ele>724</ele>
        <time>2021-07-25T14:15:30Z</time>
      </trkpt>
      <trkpt lat="43.95874" lon="6.35788">
        <ele>726</ele>
        <time>2021-07-25T14:15:37Z</time>
      </trkpt>
      <trkpt lat="43.95829" lon="6.35848">
        <ele>721</ele>
        <time>2021-07-25T14:15:49Z</time>
      </trkpt>
      <trkpt lat="43.95819" lon="6.35862">
        <ele>725</ele>
        <time>2021-07-25T14:15:51Z</time>
      </trkpt>
      <trkpt lat="43.95802" lon="6.35893">
        <ele>730</ele>
        <time>2021-07-25T14:15:56Z</time>
      </trkpt>
      <trkpt lat="43.95767" lon="6.35972">
        <ele>731</ele>
        <time>2021-07-25T14:16:08Z</time>
      </trkpt>
      <trkpt lat="43.95742" lon="6.3601">
        <ele>726</ele>
        <time>2021-07-25T14:16:15Z</time>
      </trkpt>
      <trkpt lat="43.95723" lon="6.36032">
        <ele>727</ele>
        <time>2021-07-25T14:16:19Z</time>
      </trkpt>
      <trkpt lat="43.95636" lon="6.36112">
        <ele>721</ele>
        <time>2021-07-25T14:16:38Z</time>
      </trkpt>
      <trkpt lat="43.95612" lon="6.3614">
        <ele>722</ele>
        <time>2021-07-25T14:16:43Z</time>
      </trkpt>
      <trkpt lat="43.95591" lon="6.36168">
        <ele>720</ele>
        <time>2021-07-25T14:16:48Z</time>
      </trkpt>
      <trkpt lat="43.95548" lon="6.36236">
        <ele>721</ele>
        <time>2021-07-25T14:17:00Z</time>
      </trkpt>
      <trkpt lat="43.95533" lon="6.3626">
        <ele>720</ele>
        <time>2021-07-25T14:17:04Z</time>
      </trkpt>
      <trkpt lat="43.95507" lon="6.36293">
        <ele>720</ele>
        <time>2021-07-25T14:17:10Z</time>
      </trkpt>
      <trkpt lat="43.95489" lon="6.36311">
        <ele>720</ele>
        <time>2021-07-25T14:17:14Z</time>
      </trkpt>
      <trkpt lat="43.95463" lon="6.36329">
        <ele>721</ele>
        <time>2021-07-25T14:17:19Z</time>
      </trkpt>
      <trkpt lat="43.9543" lon="6.36349">
        <ele>722</ele>
        <time>2021-07-25T14:17:26Z</time>
      </trkpt>
      <trkpt lat="43.95411" lon="6.36361">
        <ele>723</ele>
        <time>2021-07-25T14:17:29Z</time>
      </trkpt>
      <trkpt lat="43.95394" lon="6.36373">
        <ele>724</ele>
        <time>2021-07-25T14:17:33Z</time>
      </trkpt>
      <trkpt lat="43.95371" lon="6.36394">
        <ele>724</ele>
        <time>2021-07-25T14:17:38Z</time>
      </trkpt>
      <trkpt lat="43.95305" lon="6.36479">
        <ele>726</ele>
        <time>2021-07-25T14:17:54Z</time>
      </trkpt>
      <trkpt lat="43.95301" lon="6.36483">
        <ele>726</ele>
        <time>2021-07-25T14:17:55Z</time>
      </trkpt>
      <trkpt lat="43.95258" lon="6.36538">
        <ele>725</ele>
        <time>2021-07-25T14:18:05Z</time>
      </trkpt>
      <trkpt lat="43.9522" lon="6.36589">
        <ele>725</ele>
        <time>2021-07-25T14:18:14Z</time>
      </trkpt>
      <trkpt lat="43.95203" lon="6.36612">
        <ele>724</ele>
        <time>2021-07-25T14:18:19Z</time>
      </trkpt>
      <trkpt lat="43.95197" lon="6.3662">
        <ele>724</ele>
        <time>2021-07-25T14:18:20Z</time>
      </trkpt>
      <trkpt lat="43.95196" lon="6.36622">
        <ele>724</ele>
        <time>2021-07-25T14:18:20Z</time>
      </trkpt>
      <trkpt lat="43.95194" lon="6.36622">
        <ele>724</ele>
        <time>2021-07-25T14:18:21Z</time>
      </trkpt>
      <trkpt lat="43.95192" lon="6.36625">
        <ele>724</ele>
        <time>2021-07-25T14:18:21Z</time>
      </trkpt>
      <trkpt lat="43.95191" lon="6.36628">
        <ele>723</ele>
        <time>2021-07-25T14:18:22Z</time>
      </trkpt>
      <trkpt lat="43.95191" lon="6.36629">
        <ele>723</ele>
        <time>2021-07-25T14:18:22Z</time>
      </trkpt>
      <trkpt lat="43.95192" lon="6.36633">
        <ele>723</ele>
        <time>2021-07-25T14:18:22Z</time>
      </trkpt>
      <trkpt lat="43.95193" lon="6.36634">
        <ele>724</ele>
        <time>2021-07-25T14:18:23Z</time>
      </trkpt>
      <trkpt lat="43.95194" lon="6.36635">
        <ele>724</ele>
        <time>2021-07-25T14:18:23Z</time>
      </trkpt>
      <trkpt lat="43.95198" lon="6.36636">
        <ele>724</ele>
        <time>2021-07-25T14:18:24Z</time>
      </trkpt>
      <trkpt lat="43.95199" lon="6.36635">
        <ele>724</ele>
        <time>2021-07-25T14:18:24Z</time>
      </trkpt>
      <trkpt lat="43.95214" lon="6.36643">
        <ele>724</ele>
        <time>2021-07-25T14:18:27Z</time>
      </trkpt>
      <trkpt lat="43.95227" lon="6.36648">
        <ele>725</ele>
        <time>2021-07-25T14:18:29Z</time>
      </trkpt>
      <trkpt lat="43.95255" lon="6.36678">
        <ele>727</ele>
        <time>2021-07-25T14:18:35Z</time>
      </trkpt>
      <trkpt lat="43.95267" lon="6.36693">
        <ele>729</ele>
        <time>2021-07-25T14:18:38Z</time>
      </trkpt>
      <trkpt lat="43.95278" lon="6.36708">
        <ele>731</ele>
        <time>2021-07-25T14:18:41Z</time>
      </trkpt>
      <trkpt lat="43.95291" lon="6.36736">
        <ele>730</ele>
        <time>2021-07-25T14:18:45Z</time>
      </trkpt>
      <trkpt lat="43.95297" lon="6.36755">
        <ele>729</ele>
        <time>2021-07-25T14:18:48Z</time>
      </trkpt>
      <trkpt lat="43.95306" lon="6.36785">
        <ele>729</ele>
        <time>2021-07-25T14:18:52Z</time>
      </trkpt>
      <trkpt lat="43.95317" lon="6.36816">
        <ele>727</ele>
        <time>2021-07-25T14:18:56Z</time>
      </trkpt>
      <trkpt lat="43.9532" lon="6.36825">
        <ele>727</ele>
        <time>2021-07-25T14:18:58Z</time>
      </trkpt>
      <trkpt lat="43.95328" lon="6.36849">
        <ele>726</ele>
        <time>2021-07-25T14:19:01Z</time>
      </trkpt>
      <trkpt lat="43.95329" lon="6.36852">
        <ele>726</ele>
        <time>2021-07-25T14:19:02Z</time>
      </trkpt>
      <trkpt lat="43.9533" lon="6.36857">
        <ele>726</ele>
        <time>2021-07-25T14:19:02Z</time>
      </trkpt>
      <trkpt lat="43.95334" lon="6.36866">
        <ele>727</ele>
        <time>2021-07-25T14:19:04Z</time>
      </trkpt>
      <trkpt lat="43.95352" lon="6.36906">
        <ele>727</ele>
        <time>2021-07-25T14:19:10Z</time>
      </trkpt>
      <trkpt lat="43.95361" lon="6.36928">
        <ele>727</ele>
        <time>2021-07-25T14:19:13Z</time>
      </trkpt>
      <trkpt lat="43.95382" lon="6.36975">
        <ele>727</ele>
        <time>2021-07-25T14:19:20Z</time>
      </trkpt>
      <trkpt lat="43.95394" lon="6.37012">
        <ele>727</ele>
        <time>2021-07-25T14:19:25Z</time>
      </trkpt>
      <trkpt lat="43.95408" lon="6.37056">
        <ele>726</ele>
        <time>2021-07-25T14:19:31Z</time>
      </trkpt>
      <trkpt lat="43.9541" lon="6.37062">
        <ele>726</ele>
        <time>2021-07-25T14:19:32Z</time>
      </trkpt>
      <trkpt lat="43.95413" lon="6.3707">
        <ele>725</ele>
        <time>2021-07-25T14:19:33Z</time>
      </trkpt>
      <trkpt lat="43.95419" lon="6.37085">
        <ele>725</ele>
        <time>2021-07-25T14:19:36Z</time>
      </trkpt>
      <trkpt lat="43.95428" lon="6.3711">
        <ele>725</ele>
        <time>2021-07-25T14:19:39Z</time>
      </trkpt>
      <trkpt lat="43.9544" lon="6.37139">
        <ele>726</ele>
        <time>2021-07-25T14:19:43Z</time>
      </trkpt>
      <trkpt lat="43.95454" lon="6.37165">
        <ele>726</ele>
        <time>2021-07-25T14:19:48Z</time>
      </trkpt>
      <trkpt lat="43.95475" lon="6.37194">
        <ele>727</ele>
        <time>2021-07-25T14:19:53Z</time>
      </trkpt>
      <trkpt lat="43.95486" lon="6.37206">
        <ele>728</ele>
        <time>2021-07-25T14:19:55Z</time>
      </trkpt>
      <trkpt lat="43.95488" lon="6.37211">
        <ele>728</ele>
        <time>2021-07-25T14:19:56Z</time>
      </trkpt>
      <trkpt lat="43.95497" lon="6.37225">
        <ele>728</ele>
        <time>2021-07-25T14:19:58Z</time>
      </trkpt>
      <trkpt lat="43.95516" lon="6.37245">
        <ele>728</ele>
        <time>2021-07-25T14:20:03Z</time>
      </trkpt>
      <trkpt lat="43.95527" lon="6.37257">
        <ele>729</ele>
        <time>2021-07-25T14:20:05Z</time>
      </trkpt>
      <trkpt lat="43.95545" lon="6.3728">
        <ele>730</ele>
        <time>2021-07-25T14:20:10Z</time>
      </trkpt>
      <trkpt lat="43.95558" lon="6.37298">
        <ele>731</ele>
        <time>2021-07-25T14:20:13Z</time>
      </trkpt>
      <trkpt lat="43.95566" lon="6.3731">
        <ele>732</ele>
        <time>2021-07-25T14:20:15Z</time>
      </trkpt>
      <trkpt lat="43.95575" lon="6.37323">
        <ele>732</ele>
        <time>2021-07-25T14:20:17Z</time>
      </trkpt>
      <trkpt lat="43.9559" lon="6.37362">
        <ele>733</ele>
        <time>2021-07-25T14:20:23Z</time>
      </trkpt>
      <trkpt lat="43.95594" lon="6.37369">
        <ele>733</ele>
        <time>2021-07-25T14:20:24Z</time>
      </trkpt>
      <trkpt lat="43.95605" lon="6.37398">
        <ele>734</ele>
        <time>2021-07-25T14:20:28Z</time>
      </trkpt>
      <trkpt lat="43.95614" lon="6.37425">
        <ele>735</ele>
        <time>2021-07-25T14:20:32Z</time>
      </trkpt>
      <trkpt lat="43.9562" lon="6.37437">
        <ele>736</ele>
        <time>2021-07-25T14:20:34Z</time>
      </trkpt>
      <trkpt lat="43.9565" lon="6.37497">
        <ele>739</ele>
        <time>2021-07-25T14:20:43Z</time>
      </trkpt>
      <trkpt lat="43.95654" lon="6.37505">
        <ele>739</ele>
        <time>2021-07-25T14:20:44Z</time>
      </trkpt>
      <trkpt lat="43.95684" lon="6.37559">
        <ele>737</ele>
        <time>2021-07-25T14:20:53Z</time>
      </trkpt>
      <trkpt lat="43.95708" lon="6.37596">
        <ele>736</ele>
        <time>2021-07-25T14:21:00Z</time>
      </trkpt>
      <trkpt lat="43.95748" lon="6.37639">
        <ele>736</ele>
        <time>2021-07-25T14:21:09Z</time>
      </trkpt>
      <trkpt lat="43.9587" lon="6.37761">
        <ele>741</ele>
        <time>2021-07-25T14:21:35Z</time>
      </trkpt>
      <trkpt lat="43.95898" lon="6.37792">
        <ele>741</ele>
        <time>2021-07-25T14:21:42Z</time>
      </trkpt>
      <trkpt lat="43.9591" lon="6.37807">
        <ele>740</ele>
        <time>2021-07-25T14:21:45Z</time>
      </trkpt>
      <trkpt lat="43.95925" lon="6.37833">
        <ele>739</ele>
        <time>2021-07-25T14:21:49Z</time>
      </trkpt>
      <trkpt lat="43.95933" lon="6.37848">
        <ele>740</ele>
        <time>2021-07-25T14:21:51Z</time>
      </trkpt>
      <trkpt lat="43.96091" lon="6.38251">
        <ele>746</ele>
        <time>2021-07-25T14:22:50Z</time>
      </trkpt>
      <trkpt lat="43.961" lon="6.38281">
        <ele>748</ele>
        <time>2021-07-25T14:22:54Z</time>
      </trkpt>
      <trkpt lat="43.96104" lon="6.38311">
        <ele>748</ele>
        <time>2021-07-25T14:22:58Z</time>
      </trkpt>
      <trkpt lat="43.96106" lon="6.38323">
        <ele>748</ele>
        <time>2021-07-25T14:23:00Z</time>
      </trkpt>
      <trkpt lat="43.96108" lon="6.38364">
        <ele>745</ele>
        <time>2021-07-25T14:23:05Z</time>
      </trkpt>
      <trkpt lat="43.96109" lon="6.38379">
        <ele>744</ele>
        <time>2021-07-25T14:23:07Z</time>
      </trkpt>
      <trkpt lat="43.96106" lon="6.38396">
        <ele>743</ele>
        <time>2021-07-25T14:23:09Z</time>
      </trkpt>
      <trkpt lat="43.961" lon="6.38404">
        <ele>741</ele>
        <time>2021-07-25T14:23:11Z</time>
      </trkpt>
      <trkpt lat="43.96095" lon="6.38417">
        <ele>740</ele>
        <time>2021-07-25T14:23:12Z</time>
      </trkpt>
      <trkpt lat="43.96089" lon="6.38428">
        <ele>740</ele>
        <time>2021-07-25T14:23:14Z</time>
      </trkpt>
      <trkpt lat="43.96076" lon="6.38449">
        <ele>739</ele>
        <time>2021-07-25T14:23:18Z</time>
      </trkpt>
      <trkpt lat="43.96036" lon="6.38488">
        <ele>740</ele>
        <time>2021-07-25T14:23:26Z</time>
      </trkpt>
      <trkpt lat="43.96012" lon="6.38514">
        <ele>740</ele>
        <time>2021-07-25T14:23:32Z</time>
      </trkpt>
      <trkpt lat="43.95912" lon="6.38619">
        <ele>744</ele>
        <time>2021-07-25T14:23:54Z</time>
      </trkpt>
      <trkpt lat="43.95888" lon="6.38649">
        <ele>744</ele>
        <time>2021-07-25T14:24:00Z</time>
      </trkpt>
      <trkpt lat="43.95867" lon="6.38686">
        <ele>745</ele>
        <time>2021-07-25T14:24:06Z</time>
      </trkpt>
      <trkpt lat="43.95695" lon="6.39014">
        <ele>750</ele>
        <time>2021-07-25T14:24:58Z</time>
      </trkpt>
      <trkpt lat="43.9566" lon="6.39085">
        <ele>753</ele>
        <time>2021-07-25T14:25:09Z</time>
      </trkpt>
      <trkpt lat="43.95642" lon="6.39127">
        <ele>754</ele>
        <time>2021-07-25T14:25:15Z</time>
      </trkpt>
      <trkpt lat="43.95628" lon="6.39165">
        <ele>755</ele>
        <time>2021-07-25T14:25:21Z</time>
      </trkpt>
      <trkpt lat="43.95609" lon="6.39236">
        <ele>756</ele>
        <time>2021-07-25T14:25:30Z</time>
      </trkpt>
      <trkpt lat="43.95604" lon="6.39266">
        <ele>757</ele>
        <time>2021-07-25T14:25:34Z</time>
      </trkpt>
      <trkpt lat="43.95538" lon="6.39698">
        <ele>760</ele>
        <time>2021-07-25T14:26:31Z</time>
      </trkpt>
      <trkpt lat="43.95527" lon="6.39751">
        <ele>761</ele>
        <time>2021-07-25T14:26:38Z</time>
      </trkpt>
      <trkpt lat="43.95478" lon="6.40068">
        <ele>776</ele>
        <time>2021-07-25T14:27:20Z</time>
      </trkpt>
      <trkpt lat="43.9546" lon="6.40148">
        <ele>775</ele>
        <time>2021-07-25T14:27:30Z</time>
      </trkpt>
      <trkpt lat="43.9545" lon="6.40183">
        <ele>772</ele>
        <time>2021-07-25T14:27:35Z</time>
      </trkpt>
      <trkpt lat="43.95437" lon="6.40222">
        <ele>769</ele>
        <time>2021-07-25T14:27:41Z</time>
      </trkpt>
      <trkpt lat="43.95238" lon="6.40732">
        <ele>772</ele>
        <time>2021-07-25T14:28:55Z</time>
      </trkpt>
      <trkpt lat="43.95222" lon="6.40777">
        <ele>775</ele>
        <time>2021-07-25T14:29:01Z</time>
      </trkpt>
      <trkpt lat="43.95203" lon="6.40842">
        <ele>777</ele>
        <time>2021-07-25T14:29:10Z</time>
      </trkpt>
      <trkpt lat="43.95194" lon="6.40879">
        <ele>779</ele>
        <time>2021-07-25T14:29:15Z</time>
      </trkpt>
      <trkpt lat="43.95146" lon="6.41105">
        <ele>781</ele>
        <time>2021-07-25T14:29:45Z</time>
      </trkpt>
      <trkpt lat="43.95139" lon="6.41155">
        <ele>783</ele>
        <time>2021-07-25T14:29:52Z</time>
      </trkpt>
      <trkpt lat="43.95138" lon="6.41212">
        <ele>786</ele>
        <time>2021-07-25T14:29:59Z</time>
      </trkpt>
      <trkpt lat="43.95153" lon="6.41398">
        <ele>795</ele>
        <time>2021-07-25T14:30:23Z</time>
      </trkpt>
      <trkpt lat="43.95156" lon="6.41452">
        <ele>797</ele>
        <time>2021-07-25T14:30:30Z</time>
      </trkpt>
      <trkpt lat="43.95151" lon="6.41505">
        <ele>800</ele>
        <time>2021-07-25T14:30:37Z</time>
      </trkpt>
      <trkpt lat="43.95141" lon="6.41562">
        <ele>801</ele>
        <time>2021-07-25T14:30:45Z</time>
      </trkpt>
      <trkpt lat="43.95138" lon="6.41589">
        <ele>800</ele>
        <time>2021-07-25T14:30:48Z</time>
      </trkpt>
      <trkpt lat="43.95138" lon="6.41613">
        <ele>799</ele>
        <time>2021-07-25T14:30:51Z</time>
      </trkpt>
      <trkpt lat="43.95139" lon="6.41634">
        <ele>797</ele>
        <time>2021-07-25T14:30:54Z</time>
      </trkpt>
      <trkpt lat="43.95142" lon="6.41654">
        <ele>796</ele>
        <time>2021-07-25T14:30:56Z</time>
      </trkpt>
      <trkpt lat="43.95147" lon="6.41672">
        <ele>796</ele>
        <time>2021-07-25T14:30:59Z</time>
      </trkpt>
      <trkpt lat="43.95158" lon="6.417">
        <ele>795</ele>
        <time>2021-07-25T14:31:03Z</time>
      </trkpt>
      <trkpt lat="43.95251" lon="6.41893">
        <ele>796</ele>
        <time>2021-07-25T14:31:33Z</time>
      </trkpt>
      <trkpt lat="43.95259" lon="6.41914">
        <ele>793</ele>
        <time>2021-07-25T14:31:36Z</time>
      </trkpt>
      <trkpt lat="43.95265" lon="6.41936">
        <ele>793</ele>
        <time>2021-07-25T14:31:39Z</time>
      </trkpt>
      <trkpt lat="43.95275" lon="6.41985">
        <ele>790</ele>
        <time>2021-07-25T14:31:45Z</time>
      </trkpt>
      <trkpt lat="43.95301" lon="6.42161">
        <ele>790</ele>
        <time>2021-07-25T14:32:08Z</time>
      </trkpt>
      <trkpt lat="43.95306" lon="6.42184">
        <ele>791</ele>
        <time>2021-07-25T14:32:11Z</time>
      </trkpt>
      <trkpt lat="43.95319" lon="6.42226">
        <ele>793</ele>
        <time>2021-07-25T14:32:17Z</time>
      </trkpt>
      <trkpt lat="43.95341" lon="6.42275">
        <ele>794</ele>
        <time>2021-07-25T14:32:25Z</time>
      </trkpt>
      <trkpt lat="43.95364" lon="6.42315">
        <ele>795</ele>
        <time>2021-07-25T14:32:31Z</time>
      </trkpt>
      <trkpt lat="43.95512" lon="6.42518">
        <ele>807</ele>
        <time>2021-07-25T14:33:08Z</time>
      </trkpt>
      <trkpt lat="43.95531" lon="6.4255">
        <ele>812</ele>
        <time>2021-07-25T14:33:14Z</time>
      </trkpt>
      <trkpt lat="43.95541" lon="6.4257">
        <ele>814</ele>
        <time>2021-07-25T14:33:17Z</time>
      </trkpt>
      <trkpt lat="43.95551" lon="6.42595">
        <ele>816</ele>
        <time>2021-07-25T14:33:20Z</time>
      </trkpt>
      <trkpt lat="43.95589" lon="6.42735">
        <ele>811</ele>
        <time>2021-07-25T14:33:40Z</time>
      </trkpt>
      <trkpt lat="43.95601" lon="6.42768">
        <ele>811</ele>
        <time>2021-07-25T14:33:44Z</time>
      </trkpt>
      <trkpt lat="43.95612" lon="6.42794">
        <ele>812</ele>
        <time>2021-07-25T14:33:48Z</time>
      </trkpt>
      <trkpt lat="43.95625" lon="6.42815">
        <ele>813</ele>
        <time>2021-07-25T14:33:52Z</time>
      </trkpt>
      <trkpt lat="43.9565" lon="6.4285">
        <ele>814</ele>
        <time>2021-07-25T14:33:58Z</time>
      </trkpt>
      <trkpt lat="43.95667" lon="6.4287">
        <ele>814</ele>
        <time>2021-07-25T14:34:02Z</time>
      </trkpt>
      <trkpt lat="43.95745" lon="6.42938">
        <ele>815</ele>
        <time>2021-07-25T14:34:18Z</time>
      </trkpt>
      <trkpt lat="43.95833" lon="6.43017">
        <ele>818</ele>
        <time>2021-07-25T14:34:37Z</time>
      </trkpt>
      <trkpt lat="43.95846" lon="6.4303">
        <ele>820</ele>
        <time>2021-07-25T14:34:40Z</time>
      </trkpt>
      <trkpt lat="43.95865" lon="6.43051">
        <ele>821</ele>
        <time>2021-07-25T14:34:44Z</time>
      </trkpt>
      <trkpt lat="43.9589" lon="6.43089">
        <ele>821</ele>
        <time>2021-07-25T14:34:51Z</time>
      </trkpt>
      <trkpt lat="43.95909" lon="6.43135">
        <ele>822</ele>
        <time>2021-07-25T14:34:58Z</time>
      </trkpt>
      <trkpt lat="43.95926" lon="6.43187">
        <ele>825</ele>
        <time>2021-07-25T14:35:05Z</time>
      </trkpt>
      <trkpt lat="43.95946" lon="6.43256">
        <ele>831</ele>
        <time>2021-07-25T14:35:14Z</time>
      </trkpt>
      <trkpt lat="43.95953" lon="6.43274">
        <ele>832</ele>
        <time>2021-07-25T14:35:17Z</time>
      </trkpt>
      <trkpt lat="43.95963" lon="6.4329">
        <ele>832</ele>
        <time>2021-07-25T14:35:20Z</time>
      </trkpt>
      <trkpt lat="43.95975" lon="6.43303">
        <ele>832</ele>
        <time>2021-07-25T14:35:22Z</time>
      </trkpt>
      <trkpt lat="43.96069" lon="6.43376">
        <ele>843</ele>
        <time>2021-07-25T14:35:42Z</time>
      </trkpt>
      <trkpt lat="43.96091" lon="6.43396">
        <ele>843</ele>
        <time>2021-07-25T14:35:46Z</time>
      </trkpt>
      <trkpt lat="43.96111" lon="6.43431">
        <ele>841</ele>
        <time>2021-07-25T14:35:52Z</time>
      </trkpt>
      <trkpt lat="43.96133" lon="6.43486">
        <ele>839</ele>
        <time>2021-07-25T14:36:00Z</time>
      </trkpt>
      <trkpt lat="43.96173" lon="6.43564">
        <ele>835</ele>
        <time>2021-07-25T14:36:12Z</time>
      </trkpt>
      <trkpt lat="43.9618" lon="6.43584">
        <ele>833</ele>
        <time>2021-07-25T14:36:15Z</time>
      </trkpt>
      <trkpt lat="43.96184" lon="6.43605">
        <ele>833</ele>
        <time>2021-07-25T14:36:18Z</time>
      </trkpt>
      <trkpt lat="43.96192" lon="6.43695">
        <ele>830</ele>
        <time>2021-07-25T14:36:30Z</time>
      </trkpt>
      <trkpt lat="43.96195" lon="6.43731">
        <ele>831</ele>
        <time>2021-07-25T14:36:34Z</time>
      </trkpt>
      <trkpt lat="43.96196" lon="6.4376">
        <ele>832</ele>
        <time>2021-07-25T14:36:38Z</time>
      </trkpt>
      <trkpt lat="43.96194" lon="6.43775">
        <ele>833</ele>
        <time>2021-07-25T14:36:40Z</time>
      </trkpt>
      <trkpt lat="43.9619" lon="6.43788">
        <ele>833</ele>
        <time>2021-07-25T14:36:42Z</time>
      </trkpt>
      <trkpt lat="43.96177" lon="6.43806">
        <ele>831</ele>
        <time>2021-07-25T14:36:45Z</time>
      </trkpt>
      <trkpt lat="43.96169" lon="6.43832">
        <ele>831</ele>
        <time>2021-07-25T14:36:49Z</time>
      </trkpt>
      <trkpt lat="43.96149" lon="6.43968">
        <ele>840</ele>
        <time>2021-07-25T14:37:06Z</time>
      </trkpt>
      <trkpt lat="43.96124" lon="6.44072">
        <ele>844</ele>
        <time>2021-07-25T14:37:20Z</time>
      </trkpt>
      <trkpt lat="43.96116" lon="6.44122">
        <ele>845</ele>
        <time>2021-07-25T14:37:27Z</time>
      </trkpt>
      <trkpt lat="43.96114" lon="6.44148">
        <ele>844</ele>
        <time>2021-07-25T14:37:30Z</time>
      </trkpt>
      <trkpt lat="43.96116" lon="6.44174">
        <ele>845</ele>
        <time>2021-07-25T14:37:34Z</time>
      </trkpt>
      <trkpt lat="43.96122" lon="6.44194">
        <ele>846</ele>
        <time>2021-07-25T14:37:36Z</time>
      </trkpt>
      <trkpt lat="43.96197" lon="6.44399">
        <ele>851</ele>
        <time>2021-07-25T14:38:06Z</time>
      </trkpt>
      <trkpt lat="43.96207" lon="6.44418">
        <ele>852</ele>
        <time>2021-07-25T14:38:09Z</time>
      </trkpt>
      <trkpt lat="43.96224" lon="6.4444">
        <ele>854</ele>
        <time>2021-07-25T14:38:13Z</time>
      </trkpt>
      <trkpt lat="43.96237" lon="6.44469">
        <ele>853</ele>
        <time>2021-07-25T14:38:17Z</time>
      </trkpt>
      <trkpt lat="43.96244" lon="6.44501">
        <ele>850</ele>
        <time>2021-07-25T14:38:22Z</time>
      </trkpt>
      <trkpt lat="43.96252" lon="6.4458">
        <ele>848</ele>
        <time>2021-07-25T14:38:32Z</time>
      </trkpt>
      <trkpt lat="43.96257" lon="6.44599">
        <ele>850</ele>
        <time>2021-07-25T14:38:34Z</time>
      </trkpt>
      <trkpt lat="43.96266" lon="6.44614">
        <ele>852</ele>
        <time>2021-07-25T14:38:37Z</time>
      </trkpt>
      <trkpt lat="43.96376" lon="6.44748">
        <ele>860</ele>
        <time>2021-07-25T14:39:03Z</time>
      </trkpt>
      <trkpt lat="43.96439" lon="6.4484">
        <ele>857</ele>
        <time>2021-07-25T14:39:19Z</time>
      </trkpt>
      <trkpt lat="43.9648" lon="6.44878">
        <ele>858</ele>
        <time>2021-07-25T14:39:28Z</time>
      </trkpt>
      <trkpt lat="43.96505" lon="6.44906">
        <ele>854</ele>
        <time>2021-07-25T14:39:34Z</time>
      </trkpt>
      <trkpt lat="43.96516" lon="6.44925">
        <ele>854</ele>
        <time>2021-07-25T14:39:37Z</time>
      </trkpt>
      <trkpt lat="43.96523" lon="6.44944">
        <ele>855</ele>
        <time>2021-07-25T14:39:40Z</time>
      </trkpt>
      <trkpt lat="43.96525" lon="6.44956">
        <ele>855</ele>
        <time>2021-07-25T14:39:41Z</time>
      </trkpt>
      <trkpt lat="43.96527" lon="6.44971">
        <ele>855</ele>
        <time>2021-07-25T14:39:43Z</time>
      </trkpt>
      <trkpt lat="43.96528" lon="6.45003">
        <ele>856</ele>
        <time>2021-07-25T14:39:47Z</time>
      </trkpt>
      <trkpt lat="43.96525" lon="6.45036">
        <ele>859</ele>
        <time>2021-07-25T14:39:52Z</time>
      </trkpt>
      <trkpt lat="43.96521" lon="6.45056">
        <ele>861</ele>
        <time>2021-07-25T14:39:54Z</time>
      </trkpt>
      <trkpt lat="43.96513" lon="6.45075">
        <ele>861</ele>
        <time>2021-07-25T14:39:57Z</time>
      </trkpt>
      <trkpt lat="43.96501" lon="6.4509">
        <ele>860</ele>
        <time>2021-07-25T14:40:00Z</time>
      </trkpt>
      <trkpt lat="43.96467" lon="6.45119">
        <ele>864</ele>
        <time>2021-07-25T14:40:07Z</time>
      </trkpt>
      <trkpt lat="43.96459" lon="6.45129">
        <ele>865</ele>
        <time>2021-07-25T14:40:09Z</time>
      </trkpt>
      <trkpt lat="43.96448" lon="6.45148">
        <ele>865</ele>
        <time>2021-07-25T14:40:12Z</time>
      </trkpt>
      <trkpt lat="43.96436" lon="6.45193">
        <ele>867</ele>
        <time>2021-07-25T14:40:18Z</time>
      </trkpt>
      <trkpt lat="43.96425" lon="6.45224">
        <ele>867</ele>
        <time>2021-07-25T14:40:23Z</time>
      </trkpt>
      <trkpt lat="43.96414" lon="6.45247">
        <ele>866</ele>
        <time>2021-07-25T14:40:26Z</time>
      </trkpt>
      <trkpt lat="43.96377" lon="6.45314">
        <ele>874</ele>
        <time>2021-07-25T14:40:37Z</time>
      </trkpt>
      <trkpt lat="43.96333" lon="6.4541">
        <ele>867</ele>
        <time>2021-07-25T14:40:52Z</time>
      </trkpt>
      <trkpt lat="43.96298" lon="6.45495">
        <ele>876</ele>
        <time>2021-07-25T14:41:04Z</time>
      </trkpt>
      <trkpt lat="43.96265" lon="6.45662">
        <ele>875</ele>
        <time>2021-07-25T14:41:26Z</time>
      </trkpt>
      <trkpt lat="43.9626" lon="6.45703">
        <ele>875</ele>
        <time>2021-07-25T14:41:32Z</time>
      </trkpt>
      <trkpt lat="43.96242" lon="6.45776">
        <ele>876</ele>
        <time>2021-07-25T14:41:41Z</time>
      </trkpt>
      <trkpt lat="43.96223" lon="6.4587">
        <ele>881</ele>
        <time>2021-07-25T14:41:54Z</time>
      </trkpt>
      <trkpt lat="43.96221" lon="6.4589">
        <ele>881</ele>
        <time>2021-07-25T14:41:57Z</time>
      </trkpt>
      <trkpt lat="43.96223" lon="6.4591">
        <ele>881</ele>
        <time>2021-07-25T14:41:59Z</time>
      </trkpt>
      <trkpt lat="43.96232" lon="6.45954">
        <ele>884</ele>
        <time>2021-07-25T14:42:05Z</time>
      </trkpt>
      <trkpt lat="43.96236" lon="6.45981">
        <ele>886</ele>
        <time>2021-07-25T14:42:08Z</time>
      </trkpt>
      <trkpt lat="43.96238" lon="6.4603">
        <ele>888</ele>
        <time>2021-07-25T14:42:15Z</time>
      </trkpt>
      <trkpt lat="43.96235" lon="6.46055">
        <ele>888</ele>
        <time>2021-07-25T14:42:18Z</time>
      </trkpt>
      <trkpt lat="43.96228" lon="6.46109">
        <ele>891</ele>
        <time>2021-07-25T14:42:25Z</time>
      </trkpt>
      <trkpt lat="43.96192" lon="6.4627">
        <ele>889</ele>
        <time>2021-07-25T14:42:47Z</time>
      </trkpt>
      <trkpt lat="43.96191" lon="6.46292">
        <ele>890</ele>
        <time>2021-07-25T14:42:49Z</time>
      </trkpt>
      <trkpt lat="43.96196" lon="6.4639">
        <ele>897</ele>
        <time>2021-07-25T14:43:02Z</time>
      </trkpt>
      <trkpt lat="43.96192" lon="6.46417">
        <ele>897</ele>
        <time>2021-07-25T14:43:06Z</time>
      </trkpt>
      <trkpt lat="43.96188" lon="6.46431">
        <ele>896</ele>
        <time>2021-07-25T14:43:08Z</time>
      </trkpt>
      <trkpt lat="43.96181" lon="6.46448">
        <ele>893</ele>
        <time>2021-07-25T14:43:10Z</time>
      </trkpt>
      <trkpt lat="43.96162" lon="6.46472">
        <ele>889</ele>
        <time>2021-07-25T14:43:15Z</time>
      </trkpt>
      <trkpt lat="43.96153" lon="6.46484">
        <ele>890</ele>
        <time>2021-07-25T14:43:17Z</time>
      </trkpt>
      <trkpt lat="43.96147" lon="6.46497">
        <ele>890</ele>
        <time>2021-07-25T14:43:19Z</time>
      </trkpt>
      <trkpt lat="43.96141" lon="6.46509">
        <ele>889</ele>
        <time>2021-07-25T14:43:21Z</time>
      </trkpt>
      <trkpt lat="43.96141" lon="6.46524">
        <ele>888</ele>
        <time>2021-07-25T14:43:23Z</time>
      </trkpt>
      <trkpt lat="43.96142" lon="6.46538">
        <ele>888</ele>
        <time>2021-07-25T14:43:24Z</time>
      </trkpt>
      <trkpt lat="43.96147" lon="6.46551">
        <ele>888</ele>
        <time>2021-07-25T14:43:26Z</time>
      </trkpt>
      <trkpt lat="43.96153" lon="6.46558">
        <ele>888</ele>
        <time>2021-07-25T14:43:28Z</time>
      </trkpt>
      <trkpt lat="43.96162" lon="6.46563">
        <ele>888</ele>
        <time>2021-07-25T14:43:29Z</time>
      </trkpt>
      <trkpt lat="43.96169" lon="6.46571">
        <ele>889</ele>
        <time>2021-07-25T14:43:31Z</time>
      </trkpt>
      <trkpt lat="43.96174" lon="6.46586">
        <ele>889</ele>
        <time>2021-07-25T14:43:33Z</time>
      </trkpt>
      <trkpt lat="43.96181" lon="6.46605">
        <ele>891</ele>
        <time>2021-07-25T14:43:36Z</time>
      </trkpt>
      <trkpt lat="43.96184" lon="6.46629">
        <ele>891</ele>
        <time>2021-07-25T14:43:39Z</time>
      </trkpt>
      <trkpt lat="43.96183" lon="6.46657">
        <ele>890</ele>
        <time>2021-07-25T14:43:43Z</time>
      </trkpt>
      <trkpt lat="43.9618" lon="6.46672">
        <ele>891</ele>
        <time>2021-07-25T14:43:45Z</time>
      </trkpt>
      <trkpt lat="43.96162" lon="6.46793">
        <ele>895</ele>
        <time>2021-07-25T14:44:00Z</time>
      </trkpt>
      <trkpt lat="43.9616" lon="6.46806">
        <ele>895</ele>
        <time>2021-07-25T14:44:02Z</time>
      </trkpt>
      <trkpt lat="43.96155" lon="6.46828">
        <ele>895</ele>
        <time>2021-07-25T14:44:05Z</time>
      </trkpt>
      <trkpt lat="43.96152" lon="6.46839">
        <ele>895</ele>
        <time>2021-07-25T14:44:07Z</time>
      </trkpt>
      <trkpt lat="43.9615" lon="6.46855">
        <ele>896</ele>
        <time>2021-07-25T14:44:09Z</time>
      </trkpt>
      <trkpt lat="43.96146" lon="6.46877">
        <ele>896</ele>
        <time>2021-07-25T14:44:12Z</time>
      </trkpt>
      <trkpt lat="43.96142" lon="6.46911">
        <ele>897</ele>
        <time>2021-07-25T14:44:16Z</time>
      </trkpt>
      <trkpt lat="43.96135" lon="6.46947">
        <ele>898</ele>
        <time>2021-07-25T14:44:21Z</time>
      </trkpt>
      <trkpt lat="43.96132" lon="6.46965">
        <ele>899</ele>
        <time>2021-07-25T14:44:23Z</time>
      </trkpt>
      <trkpt lat="43.96131" lon="6.46967">
        <ele>899</ele>
        <time>2021-07-25T14:44:23Z</time>
      </trkpt>
      <trkpt lat="43.96124" lon="6.46995">
        <ele>899</ele>
        <time>2021-07-25T14:44:27Z</time>
      </trkpt>
      <trkpt lat="43.96104" lon="6.47069">
        <ele>900</ele>
        <time>2021-07-25T14:44:37Z</time>
      </trkpt>
      <trkpt lat="43.96095" lon="6.47098">
        <ele>901</ele>
        <time>2021-07-25T14:44:41Z</time>
      </trkpt>
      <trkpt lat="43.96079" lon="6.4715">
        <ele>902</ele>
        <time>2021-07-25T14:44:49Z</time>
      </trkpt>
      <trkpt lat="43.96073" lon="6.4717">
        <ele>903</ele>
        <time>2021-07-25T14:44:51Z</time>
      </trkpt>
      <trkpt lat="43.96071" lon="6.47184">
        <ele>904</ele>
        <time>2021-07-25T14:44:53Z</time>
      </trkpt>
      <trkpt lat="43.96063" lon="6.47214">
        <ele>906</ele>
        <time>2021-07-25T14:44:57Z</time>
      </trkpt>
      <trkpt lat="43.96057" lon="6.4725">
        <ele>907</ele>
        <time>2021-07-25T14:45:02Z</time>
      </trkpt>
      <trkpt lat="43.96054" lon="6.47306">
        <ele>910</ele>
        <time>2021-07-25T14:45:09Z</time>
      </trkpt>
      <trkpt lat="43.96054" lon="6.47324">
        <ele>911</ele>
        <time>2021-07-25T14:45:12Z</time>
      </trkpt>
      <trkpt lat="43.96047" lon="6.47398">
        <ele>913</ele>
        <time>2021-07-25T14:45:21Z</time>
      </trkpt>
      <trkpt lat="43.96047" lon="6.47414">
        <ele>914</ele>
        <time>2021-07-25T14:45:23Z</time>
      </trkpt>
      <trkpt lat="43.96047" lon="6.47441">
        <ele>916</ele>
        <time>2021-07-25T14:45:27Z</time>
      </trkpt>
      <trkpt lat="43.96048" lon="6.4748">
        <ele>919</ele>
        <time>2021-07-25T14:45:32Z</time>
      </trkpt>
      <trkpt lat="43.96051" lon="6.47515">
        <ele>921</ele>
        <time>2021-07-25T14:45:36Z</time>
      </trkpt>
      <trkpt lat="43.96058" lon="6.4756">
        <ele>923</ele>
        <time>2021-07-25T14:45:42Z</time>
      </trkpt>
      <trkpt lat="43.96066" lon="6.47599">
        <ele>925</ele>
        <time>2021-07-25T14:45:47Z</time>
      </trkpt>
      <trkpt lat="43.96068" lon="6.47626">
        <ele>926</ele>
        <time>2021-07-25T14:45:51Z</time>
      </trkpt>
      <trkpt lat="43.96073" lon="6.4768">
        <ele>927</ele>
        <time>2021-07-25T14:45:58Z</time>
      </trkpt>
      <trkpt lat="43.96074" lon="6.47722">
        <ele>930</ele>
        <time>2021-07-25T14:46:03Z</time>
      </trkpt>
      <trkpt lat="43.96072" lon="6.47762">
        <ele>932</ele>
        <time>2021-07-25T14:46:08Z</time>
      </trkpt>
      <trkpt lat="43.96064" lon="6.47823">
        <ele>936</ele>
        <time>2021-07-25T14:46:16Z</time>
      </trkpt>
      <trkpt lat="43.9597" lon="6.48394">
        <ele>957</ele>
        <time>2021-07-25T14:47:31Z</time>
      </trkpt>
      <trkpt lat="43.95965" lon="6.48443">
        <ele>958</ele>
        <time>2021-07-25T14:47:37Z</time>
      </trkpt>
      <trkpt lat="43.95964" lon="6.48521">
        <ele>961</ele>
        <time>2021-07-25T14:47:47Z</time>
      </trkpt>
      <trkpt lat="43.9597" lon="6.48607">
        <ele>964</ele>
        <time>2021-07-25T14:47:59Z</time>
      </trkpt>
      <trkpt lat="43.95996" lon="6.48729">
        <ele>970</ele>
        <time>2021-07-25T14:48:15Z</time>
      </trkpt>
      <trkpt lat="43.96027" lon="6.48855">
        <ele>972</ele>
        <time>2021-07-25T14:48:32Z</time>
      </trkpt>
      <trkpt lat="43.96054" lon="6.48958">
        <ele>977</ele>
        <time>2021-07-25T14:48:46Z</time>
      </trkpt>
      <trkpt lat="43.96061" lon="6.49004">
        <ele>980</ele>
        <time>2021-07-25T14:48:52Z</time>
      </trkpt>
      <trkpt lat="43.96062" lon="6.49015">
        <ele>981</ele>
        <time>2021-07-25T14:48:53Z</time>
      </trkpt>
      <trkpt lat="43.96072" lon="6.49102">
        <ele>988</ele>
        <time>2021-07-25T14:49:05Z</time>
      </trkpt>
      <trkpt lat="43.96079" lon="6.49146">
        <ele>991</ele>
        <time>2021-07-25T14:49:10Z</time>
      </trkpt>
      <trkpt lat="43.96084" lon="6.49166">
        <ele>992</ele>
        <time>2021-07-25T14:49:13Z</time>
      </trkpt>
      <trkpt lat="43.96092" lon="6.49184">
        <ele>994</ele>
        <time>2021-07-25T14:49:16Z</time>
      </trkpt>
      <trkpt lat="43.96127" lon="6.49251">
        <ele>1002</ele>
        <time>2021-07-25T14:49:26Z</time>
      </trkpt>
      <trkpt lat="43.96133" lon="6.49265">
        <ele>1003</ele>
        <time>2021-07-25T14:49:29Z</time>
      </trkpt>
      <trkpt lat="43.96139" lon="6.49289">
        <ele>1003</ele>
        <time>2021-07-25T14:49:32Z</time>
      </trkpt>
      <trkpt lat="43.96141" lon="6.49309">
        <ele>1003</ele>
        <time>2021-07-25T14:49:34Z</time>
      </trkpt>
      <trkpt lat="43.96142" lon="6.49327">
        <ele>1003</ele>
        <time>2021-07-25T14:49:37Z</time>
      </trkpt>
      <trkpt lat="43.96145" lon="6.49345">
        <ele>1002</ele>
        <time>2021-07-25T14:49:39Z</time>
      </trkpt>
      <trkpt lat="43.96149" lon="6.4936">
        <ele>1000</ele>
        <time>2021-07-25T14:49:41Z</time>
      </trkpt>
      <trkpt lat="43.96156" lon="6.49375">
        <ele>999</ele>
        <time>2021-07-25T14:49:43Z</time>
      </trkpt>
      <trkpt lat="43.96163" lon="6.49396">
        <ele>997</ele>
        <time>2021-07-25T14:49:46Z</time>
      </trkpt>
      <trkpt lat="43.96167" lon="6.49411">
        <ele>997</ele>
        <time>2021-07-25T14:49:48Z</time>
      </trkpt>
      <trkpt lat="43.96169" lon="6.49431">
        <ele>997</ele>
        <time>2021-07-25T14:49:51Z</time>
      </trkpt>
      <trkpt lat="43.96166" lon="6.49449">
        <ele>995</ele>
        <time>2021-07-25T14:49:53Z</time>
      </trkpt>
      <trkpt lat="43.96157" lon="6.49484">
        <ele>992</ele>
        <time>2021-07-25T14:49:58Z</time>
      </trkpt>
      <trkpt lat="43.96154" lon="6.49502">
        <ele>990</ele>
        <time>2021-07-25T14:50:00Z</time>
      </trkpt>
      <trkpt lat="43.96154" lon="6.49522">
        <ele>990</ele>
        <time>2021-07-25T14:50:03Z</time>
      </trkpt>
      <trkpt lat="43.96158" lon="6.49561">
        <ele>990</ele>
        <time>2021-07-25T14:50:08Z</time>
      </trkpt>
      <trkpt lat="43.96159" lon="6.49581">
        <ele>990</ele>
        <time>2021-07-25T14:50:11Z</time>
      </trkpt>
      <trkpt lat="43.96154" lon="6.49643">
        <ele>981</ele>
        <time>2021-07-25T14:50:19Z</time>
      </trkpt>
      <trkpt lat="43.96154" lon="6.49664">
        <ele>978</ele>
        <time>2021-07-25T14:50:21Z</time>
      </trkpt>
      <trkpt lat="43.96165" lon="6.49745">
        <ele>972</ele>
        <time>2021-07-25T14:50:32Z</time>
      </trkpt>
      <trkpt lat="43.96166" lon="6.49753">
        <ele>971</ele>
        <time>2021-07-25T14:50:33Z</time>
      </trkpt>
      <trkpt lat="43.96168" lon="6.49764">
        <ele>971</ele>
        <time>2021-07-25T14:50:34Z</time>
      </trkpt>
      <trkpt lat="43.9618" lon="6.49799">
        <ele>969</ele>
        <time>2021-07-25T14:50:39Z</time>
      </trkpt>
      <trkpt lat="43.96188" lon="6.49815">
        <ele>968</ele>
        <time>2021-07-25T14:50:42Z</time>
      </trkpt>
      <trkpt lat="43.96211" lon="6.49853">
        <ele>965</ele>
        <time>2021-07-25T14:50:48Z</time>
      </trkpt>
      <trkpt lat="43.9622" lon="6.49861">
        <ele>965</ele>
        <time>2021-07-25T14:50:50Z</time>
      </trkpt>
      <trkpt lat="43.9623" lon="6.49866">
        <ele>966</ele>
        <time>2021-07-25T14:50:52Z</time>
      </trkpt>
      <trkpt lat="43.96263" lon="6.49877">
        <ele>968</ele>
        <time>2021-07-25T14:50:58Z</time>
      </trkpt>
      <trkpt lat="43.96273" lon="6.49884">
        <ele>967</ele>
        <time>2021-07-25T14:51:00Z</time>
      </trkpt>
      <trkpt lat="43.96299" lon="6.4993">
        <ele>959</ele>
        <time>2021-07-25T14:51:08Z</time>
      </trkpt>
      <trkpt lat="43.96308" lon="6.49941">
        <ele>958</ele>
        <time>2021-07-25T14:51:10Z</time>
      </trkpt>
      <trkpt lat="43.96342" lon="6.49961">
        <ele>957</ele>
        <time>2021-07-25T14:51:16Z</time>
      </trkpt>
      <trkpt lat="43.96379" lon="6.49993">
        <ele>952</ele>
        <time>2021-07-25T14:51:24Z</time>
      </trkpt>
      <trkpt lat="43.96454" lon="6.50049">
        <ele>947</ele>
        <time>2021-07-25T14:51:39Z</time>
      </trkpt>
      <trkpt lat="43.96486" lon="6.50076">
        <ele>944</ele>
        <time>2021-07-25T14:51:46Z</time>
      </trkpt>
      <trkpt lat="43.965" lon="6.50091">
        <ele>943</ele>
        <time>2021-07-25T14:51:49Z</time>
      </trkpt>
      <trkpt lat="43.96504" lon="6.50095">
        <ele>943</ele>
        <time>2021-07-25T14:51:50Z</time>
      </trkpt>
      <trkpt lat="43.96511" lon="6.50106">
        <ele>943</ele>
        <time>2021-07-25T14:51:52Z</time>
      </trkpt>
      <trkpt lat="43.96522" lon="6.5013">
        <ele>941</ele>
        <time>2021-07-25T14:51:55Z</time>
      </trkpt>
      <trkpt lat="43.96548" lon="6.50224">
        <ele>934</ele>
        <time>2021-07-25T14:52:08Z</time>
      </trkpt>
      <trkpt lat="43.96556" lon="6.50247">
        <ele>933</ele>
        <time>2021-07-25T14:52:11Z</time>
      </trkpt>
      <trkpt lat="43.96565" lon="6.50267">
        <ele>932</ele>
        <time>2021-07-25T14:52:15Z</time>
      </trkpt>
      <trkpt lat="43.96577" lon="6.50292">
        <ele>931</ele>
        <time>2021-07-25T14:52:18Z</time>
      </trkpt>
      <trkpt lat="43.96605" lon="6.50327">
        <ele>929</ele>
        <time>2021-07-25T14:52:25Z</time>
      </trkpt>
      <trkpt lat="43.96628" lon="6.50349">
        <ele>928</ele>
        <time>2021-07-25T14:52:30Z</time>
      </trkpt>
      <trkpt lat="43.96788" lon="6.50462">
        <ele>917</ele>
        <time>2021-07-25T14:53:02Z</time>
      </trkpt>
      <trkpt lat="43.96796" lon="6.50467">
        <ele>917</ele>
        <time>2021-07-25T14:53:04Z</time>
      </trkpt>
      <trkpt lat="43.96839" lon="6.50497">
        <ele>916</ele>
        <time>2021-07-25T14:53:12Z</time>
      </trkpt>
      <trkpt lat="43.9686" lon="6.50513">
        <ele>916</ele>
        <time>2021-07-25T14:53:16Z</time>
      </trkpt>
      <trkpt lat="43.96876" lon="6.50536">
        <ele>914</ele>
        <time>2021-07-25T14:53:20Z</time>
      </trkpt>
      <trkpt lat="43.96884" lon="6.50554">
        <ele>913</ele>
        <time>2021-07-25T14:53:23Z</time>
      </trkpt>
      <trkpt lat="43.96888" lon="6.50572">
        <ele>912</ele>
        <time>2021-07-25T14:53:26Z</time>
      </trkpt>
      <trkpt lat="43.96889" lon="6.50596">
        <ele>909</ele>
        <time>2021-07-25T14:53:29Z</time>
      </trkpt>
      <trkpt lat="43.96884" lon="6.50618">
        <ele>907</ele>
        <time>2021-07-25T14:53:32Z</time>
      </trkpt>
      <trkpt lat="43.96872" lon="6.50655">
        <ele>902</ele>
        <time>2021-07-25T14:53:37Z</time>
      </trkpt>
      <trkpt lat="43.96861" lon="6.50692">
        <ele>900</ele>
        <time>2021-07-25T14:53:42Z</time>
      </trkpt>
      <trkpt lat="43.96859" lon="6.50697">
        <ele>900</ele>
        <time>2021-07-25T14:53:43Z</time>
      </trkpt>
      <trkpt lat="43.96859" lon="6.50701">
        <ele>900</ele>
        <time>2021-07-25T14:53:43Z</time>
      </trkpt>
      <trkpt lat="43.96855" lon="6.50705">
        <ele>900</ele>
        <time>2021-07-25T14:53:44Z</time>
      </trkpt>
      <trkpt lat="43.9685" lon="6.50721">
        <ele>899</ele>
        <time>2021-07-25T14:53:46Z</time>
      </trkpt>
      <trkpt lat="43.96846" lon="6.50722">
        <ele>899</ele>
        <time>2021-07-25T14:53:47Z</time>
      </trkpt>
      <trkpt lat="43.96844" lon="6.50724">
        <ele>899</ele>
        <time>2021-07-25T14:53:47Z</time>
      </trkpt>
      <trkpt lat="43.96841" lon="6.50728">
        <ele>899</ele>
        <time>2021-07-25T14:53:48Z</time>
      </trkpt>
      <trkpt lat="43.9684" lon="6.50734">
        <ele>899</ele>
        <time>2021-07-25T14:53:49Z</time>
      </trkpt>
      <trkpt lat="43.9684" lon="6.50739">
        <ele>899</ele>
        <time>2021-07-25T14:53:50Z</time>
      </trkpt>
      <trkpt lat="43.96841" lon="6.50743">
        <ele>898</ele>
        <time>2021-07-25T14:53:50Z</time>
      </trkpt>
      <trkpt lat="43.96846" lon="6.50749">
        <ele>898</ele>
        <time>2021-07-25T14:53:51Z</time>
      </trkpt>
      <trkpt lat="43.96849" lon="6.50749">
        <ele>899</ele>
        <time>2021-07-25T14:53:52Z</time>
      </trkpt>
      <trkpt lat="43.96854" lon="6.50748">
        <ele>899</ele>
        <time>2021-07-25T14:53:53Z</time>
      </trkpt>
      <trkpt lat="43.96871" lon="6.50758">
        <ele>899</ele>
        <time>2021-07-25T14:53:56Z</time>
      </trkpt>
      <trkpt lat="43.96931" lon="6.50814">
        <ele>899</ele>
        <time>2021-07-25T14:54:09Z</time>
      </trkpt>
      <trkpt lat="43.9695" lon="6.50835">
        <ele>899</ele>
        <time>2021-07-25T14:54:13Z</time>
      </trkpt>
      <trkpt lat="43.96974" lon="6.50872">
        <ele>898</ele>
        <time>2021-07-25T14:54:20Z</time>
      </trkpt>
      <trkpt lat="43.96993" lon="6.50904">
        <ele>897</ele>
        <time>2021-07-25T14:54:25Z</time>
      </trkpt>
      <trkpt lat="43.97026" lon="6.50997">
        <ele>898</ele>
        <time>2021-07-25T14:54:38Z</time>
      </trkpt>
      <trkpt lat="43.97036" lon="6.51042">
        <ele>899</ele>
        <time>2021-07-25T14:54:44Z</time>
      </trkpt>
      <trkpt lat="43.97041" lon="6.51084">
        <ele>899</ele>
        <time>2021-07-25T14:54:50Z</time>
      </trkpt>
      <trkpt lat="43.97061" lon="6.5108">
        <ele>900</ele>
        <time>2021-07-25T14:54:53Z</time>
      </trkpt>
      <trkpt lat="43.9707" lon="6.51078">
        <ele>900</ele>
        <time>2021-07-25T14:54:55Z</time>
      </trkpt>
      <trkpt lat="43.97077" lon="6.51073">
        <ele>901</ele>
        <time>2021-07-25T14:54:56Z</time>
      </trkpt>
      <trkpt lat="43.97083" lon="6.51068">
        <ele>901</ele>
        <time>2021-07-25T14:54:58Z</time>
      </trkpt>
      <trkpt lat="43.97114" lon="6.51062">
        <ele>901</ele>
        <time>2021-07-25T14:55:03Z</time>
      </trkpt>
      <trkpt lat="43.97138" lon="6.51054">
        <ele>901</ele>
        <time>2021-07-25T14:55:08Z</time>
      </trkpt>
      <trkpt lat="43.97144" lon="6.51051">
        <ele>901</ele>
        <time>2021-07-25T14:55:09Z</time>
      </trkpt>
      <trkpt lat="43.97148" lon="6.51042">
        <ele>901</ele>
        <time>2021-07-25T14:55:10Z</time>
      </trkpt>
      <trkpt lat="43.97201" lon="6.5096">
        <ele>904</ele>
        <time>2021-07-25T14:55:24Z</time>
      </trkpt>
      <trkpt lat="43.97225" lon="6.50936">
        <ele>906</ele>
        <time>2021-07-25T14:55:29Z</time>
      </trkpt>
      <trkpt lat="43.97257" lon="6.50919">
        <ele>908</ele>
        <time>2021-07-25T14:55:35Z</time>
      </trkpt>
      <trkpt lat="43.97271" lon="6.50914">
        <ele>909</ele>
        <time>2021-07-25T14:55:38Z</time>
      </trkpt>
      <trkpt lat="43.9728" lon="6.50915">
        <ele>909</ele>
        <time>2021-07-25T14:55:40Z</time>
      </trkpt>
      <trkpt lat="43.97286" lon="6.50919">
        <ele>909</ele>
        <time>2021-07-25T14:55:41Z</time>
      </trkpt>
      <trkpt lat="43.97303" lon="6.50943">
        <ele>908</ele>
        <time>2021-07-25T14:55:45Z</time>
      </trkpt>
      <trkpt lat="43.97311" lon="6.50948">
        <ele>907</ele>
        <time>2021-07-25T14:55:47Z</time>
      </trkpt>
      <trkpt lat="43.97322" lon="6.50946">
        <ele>908</ele>
        <time>2021-07-25T14:55:49Z</time>
      </trkpt>
      <trkpt lat="43.97332" lon="6.50935">
        <ele>909</ele>
        <time>2021-07-25T14:55:51Z</time>
      </trkpt>
      <trkpt lat="43.97337" lon="6.50919">
        <ele>911</ele>
        <time>2021-07-25T14:55:53Z</time>
      </trkpt>
      <trkpt lat="43.97342" lon="6.50886">
        <ele>913</ele>
        <time>2021-07-25T14:55:57Z</time>
      </trkpt>
      <trkpt lat="43.97347" lon="6.50876">
        <ele>914</ele>
        <time>2021-07-25T14:55:59Z</time>
      </trkpt>
      <trkpt lat="43.97355" lon="6.50866">
        <ele>915</ele>
        <time>2021-07-25T14:56:01Z</time>
      </trkpt>
      <trkpt lat="43.97365" lon="6.5086">
        <ele>915</ele>
        <time>2021-07-25T14:56:03Z</time>
      </trkpt>
      <trkpt lat="43.97372" lon="6.50857">
        <ele>915</ele>
        <time>2021-07-25T14:56:04Z</time>
      </trkpt>
      <trkpt lat="43.97387" lon="6.50853">
        <ele>915</ele>
        <time>2021-07-25T14:56:07Z</time>
      </trkpt>
      <trkpt lat="43.97409" lon="6.50852">
        <ele>915</ele>
        <time>2021-07-25T14:56:11Z</time>
      </trkpt>
      <trkpt lat="43.97495" lon="6.50884">
        <ele>916</ele>
        <time>2021-07-25T14:56:27Z</time>
      </trkpt>
      <trkpt lat="43.97563" lon="6.50917">
        <ele>913</ele>
        <time>2021-07-25T14:56:39Z</time>
      </trkpt>
      <trkpt lat="43.97569" lon="6.50919">
        <ele>913</ele>
        <time>2021-07-25T14:56:41Z</time>
      </trkpt>
      <trkpt lat="43.97591" lon="6.50923">
        <ele>913</ele>
        <time>2021-07-25T14:56:45Z</time>
      </trkpt>
      <trkpt lat="43.97606" lon="6.50919">
        <ele>913</ele>
        <time>2021-07-25T14:56:47Z</time>
      </trkpt>
      <trkpt lat="43.97678" lon="6.50878">
        <ele>920</ele>
        <time>2021-07-25T14:57:01Z</time>
      </trkpt>
      <trkpt lat="43.97732" lon="6.50858">
        <ele>920</ele>
        <time>2021-07-25T14:57:11Z</time>
      </trkpt>
      <trkpt lat="43.97774" lon="6.50844">
        <ele>919</ele>
        <time>2021-07-25T14:57:19Z</time>
      </trkpt>
      <trkpt lat="43.97845" lon="6.50824">
        <ele>922</ele>
        <time>2021-07-25T14:57:32Z</time>
      </trkpt>
      <trkpt lat="43.97871" lon="6.5081">
        <ele>926</ele>
        <time>2021-07-25T14:57:37Z</time>
      </trkpt>
      <trkpt lat="43.97885" lon="6.50796">
        <ele>930</ele>
        <time>2021-07-25T14:57:40Z</time>
      </trkpt>
      <trkpt lat="43.97899" lon="6.50792">
        <ele>930</ele>
        <time>2021-07-25T14:57:42Z</time>
      </trkpt>
      <trkpt lat="43.97927" lon="6.50786">
        <ele>929</ele>
        <time>2021-07-25T14:57:47Z</time>
      </trkpt>
      <trkpt lat="43.97974" lon="6.50784">
        <ele>924</ele>
        <time>2021-07-25T14:57:56Z</time>
      </trkpt>
      <trkpt lat="43.97994" lon="6.50776">
        <ele>924</ele>
        <time>2021-07-25T14:57:59Z</time>
      </trkpt>
      <trkpt lat="43.98026" lon="6.50758">
        <ele>924</ele>
        <time>2021-07-25T14:58:05Z</time>
      </trkpt>
      <trkpt lat="43.98063" lon="6.50745">
        <ele>926</ele>
        <time>2021-07-25T14:58:12Z</time>
      </trkpt>
      <trkpt lat="43.98081" lon="6.50735">
        <ele>929</ele>
        <time>2021-07-25T14:58:16Z</time>
      </trkpt>
      <trkpt lat="43.98097" lon="6.5073">
        <ele>931</ele>
        <time>2021-07-25T14:58:19Z</time>
      </trkpt>
      <trkpt lat="43.98115" lon="6.50729">
        <ele>930</ele>
        <time>2021-07-25T14:58:22Z</time>
      </trkpt>
      <trkpt lat="43.9813" lon="6.50735">
        <ele>928</ele>
        <time>2021-07-25T14:58:25Z</time>
      </trkpt>
      <trkpt lat="43.98142" lon="6.50745">
        <ele>924</ele>
        <time>2021-07-25T14:58:27Z</time>
      </trkpt>
      <trkpt lat="43.98155" lon="6.50751">
        <ele>922</ele>
        <time>2021-07-25T14:58:30Z</time>
      </trkpt>
      <trkpt lat="43.98165" lon="6.50753">
        <ele>922</ele>
        <time>2021-07-25T14:58:31Z</time>
      </trkpt>
      <trkpt lat="43.98182" lon="6.50747">
        <ele>922</ele>
        <time>2021-07-25T14:58:34Z</time>
      </trkpt>
      <trkpt lat="43.98213" lon="6.50716">
        <ele>928</ele>
        <time>2021-07-25T14:58:41Z</time>
      </trkpt>
      <trkpt lat="43.98299" lon="6.50673">
        <ele>930</ele>
        <time>2021-07-25T14:58:57Z</time>
      </trkpt>
      <trkpt lat="43.98337" lon="6.50657">
        <ele>931</ele>
        <time>2021-07-25T14:59:05Z</time>
      </trkpt>
      <trkpt lat="43.9837" lon="6.50651">
        <ele>933</ele>
        <time>2021-07-25T14:59:10Z</time>
      </trkpt>
      <trkpt lat="43.98448" lon="6.5064">
        <ele>934</ele>
        <time>2021-07-25T14:59:24Z</time>
      </trkpt>
      <trkpt lat="43.98465" lon="6.50633">
        <ele>936</ele>
        <time>2021-07-25T14:59:28Z</time>
      </trkpt>
      <trkpt lat="43.98497" lon="6.50608">
        <ele>941</ele>
        <time>2021-07-25T14:59:34Z</time>
      </trkpt>
      <trkpt lat="43.98519" lon="6.50597">
        <ele>940</ele>
        <time>2021-07-25T14:59:38Z</time>
      </trkpt>
      <trkpt lat="43.98554" lon="6.50584">
        <ele>935</ele>
        <time>2021-07-25T14:59:45Z</time>
      </trkpt>
      <trkpt lat="43.98636" lon="6.50522">
        <ele>942</ele>
        <time>2021-07-25T15:00:01Z</time>
      </trkpt>
      <trkpt lat="43.98686" lon="6.5048">
        <ele>944</ele>
        <time>2021-07-25T15:00:12Z</time>
      </trkpt>
      <trkpt lat="43.98707" lon="6.50468">
        <ele>948</ele>
        <time>2021-07-25T15:00:16Z</time>
      </trkpt>
      <trkpt lat="43.98727" lon="6.50462">
        <ele>947</ele>
        <time>2021-07-25T15:00:19Z</time>
      </trkpt>
      <trkpt lat="43.98752" lon="6.50461">
        <ele>944</ele>
        <time>2021-07-25T15:00:24Z</time>
      </trkpt>
      <trkpt lat="43.98781" lon="6.50465">
        <ele>943</ele>
        <time>2021-07-25T15:00:29Z</time>
      </trkpt>
      <trkpt lat="43.98826" lon="6.50475">
        <ele>940</ele>
        <time>2021-07-25T15:00:37Z</time>
      </trkpt>
      <trkpt lat="43.98849" lon="6.50482">
        <ele>939</ele>
        <time>2021-07-25T15:00:41Z</time>
      </trkpt>
      <trkpt lat="43.98882" lon="6.50497">
        <ele>936</ele>
        <time>2021-07-25T15:00:48Z</time>
      </trkpt>
      <trkpt lat="43.9891" lon="6.50504">
        <ele>936</ele>
        <time>2021-07-25T15:00:53Z</time>
      </trkpt>
      <trkpt lat="43.98927" lon="6.50514">
        <ele>935</ele>
        <time>2021-07-25T15:00:56Z</time>
      </trkpt>
      <trkpt lat="43.98943" lon="6.5052">
        <ele>935</ele>
        <time>2021-07-25T15:00:59Z</time>
      </trkpt>
      <trkpt lat="43.98956" lon="6.50521">
        <ele>935</ele>
        <time>2021-07-25T15:01:01Z</time>
      </trkpt>
      <trkpt lat="43.98969" lon="6.50516">
        <ele>935</ele>
        <time>2021-07-25T15:01:04Z</time>
      </trkpt>
      <trkpt lat="43.98979" lon="6.50504">
        <ele>936</ele>
        <time>2021-07-25T15:01:06Z</time>
      </trkpt>
      <trkpt lat="43.98989" lon="6.50482">
        <ele>940</ele>
        <time>2021-07-25T15:01:09Z</time>
      </trkpt>
      <trkpt lat="43.99012" lon="6.50423">
        <ele>949</ele>
        <time>2021-07-25T15:01:18Z</time>
      </trkpt>
      <trkpt lat="43.99032" lon="6.50392">
        <ele>955</ele>
        <time>2021-07-25T15:01:23Z</time>
      </trkpt>
      <trkpt lat="43.99047" lon="6.50377">
        <ele>957</ele>
        <time>2021-07-25T15:01:26Z</time>
      </trkpt>
      <trkpt lat="43.99064" lon="6.50362">
        <ele>957</ele>
        <time>2021-07-25T15:01:30Z</time>
      </trkpt>
      <trkpt lat="43.991" lon="6.50348">
        <ele>953</ele>
        <time>2021-07-25T15:01:37Z</time>
      </trkpt>
      <trkpt lat="43.99129" lon="6.50345">
        <ele>950</ele>
        <time>2021-07-25T15:01:42Z</time>
      </trkpt>
      <trkpt lat="43.99164" lon="6.50335">
        <ele>947</ele>
        <time>2021-07-25T15:01:48Z</time>
      </trkpt>
      <trkpt lat="43.99236" lon="6.50305">
        <ele>945</ele>
        <time>2021-07-25T15:02:02Z</time>
      </trkpt>
      <trkpt lat="43.99249" lon="6.50301">
        <ele>943</ele>
        <time>2021-07-25T15:02:04Z</time>
      </trkpt>
      <trkpt lat="43.99261" lon="6.50299">
        <ele>944</ele>
        <time>2021-07-25T15:02:06Z</time>
      </trkpt>
      <trkpt lat="43.99274" lon="6.503">
        <ele>944</ele>
        <time>2021-07-25T15:02:08Z</time>
      </trkpt>
      <trkpt lat="43.99287" lon="6.50301">
        <ele>945</ele>
        <time>2021-07-25T15:02:11Z</time>
      </trkpt>
      <trkpt lat="43.99345" lon="6.50307">
        <ele>945</ele>
        <time>2021-07-25T15:02:21Z</time>
      </trkpt>
      <trkpt lat="43.99365" lon="6.50307">
        <ele>944</ele>
        <time>2021-07-25T15:02:25Z</time>
      </trkpt>
      <trkpt lat="43.9944" lon="6.50264">
        <ele>944</ele>
        <time>2021-07-25T15:02:39Z</time>
      </trkpt>
      <trkpt lat="43.99453" lon="6.50259">
        <ele>944</ele>
        <time>2021-07-25T15:02:41Z</time>
      </trkpt>
      <trkpt lat="43.99463" lon="6.5026">
        <ele>944</ele>
        <time>2021-07-25T15:02:43Z</time>
      </trkpt>
      <trkpt lat="43.99485" lon="6.50282">
        <ele>944</ele>
        <time>2021-07-25T15:02:48Z</time>
      </trkpt>
      <trkpt lat="43.99493" lon="6.50286">
        <ele>944</ele>
        <time>2021-07-25T15:02:50Z</time>
      </trkpt>
      <trkpt lat="43.99519" lon="6.50274">
        <ele>945</ele>
        <time>2021-07-25T15:02:54Z</time>
      </trkpt>
      <trkpt lat="43.99552" lon="6.50255">
        <ele>947</ele>
        <time>2021-07-25T15:03:01Z</time>
      </trkpt>
      <trkpt lat="43.99585" lon="6.50236">
        <ele>948</ele>
        <time>2021-07-25T15:03:07Z</time>
      </trkpt>
      <trkpt lat="43.99596" lon="6.5023">
        <ele>948</ele>
        <time>2021-07-25T15:03:09Z</time>
      </trkpt>
      <trkpt lat="43.99652" lon="6.50199">
        <ele>946</ele>
        <time>2021-07-25T15:03:20Z</time>
      </trkpt>
      <trkpt lat="43.99685" lon="6.50182">
        <ele>945</ele>
        <time>2021-07-25T15:03:26Z</time>
      </trkpt>
      <trkpt lat="43.99714" lon="6.50159">
        <ele>944</ele>
        <time>2021-07-25T15:03:32Z</time>
      </trkpt>
      <trkpt lat="43.99767" lon="6.50109">
        <ele>945</ele>
        <time>2021-07-25T15:03:44Z</time>
      </trkpt>
      <trkpt lat="43.99805" lon="6.50069">
        <ele>948</ele>
        <time>2021-07-25T15:03:52Z</time>
      </trkpt>
      <trkpt lat="43.99824" lon="6.50056">
        <ele>950</ele>
        <time>2021-07-25T15:03:56Z</time>
      </trkpt>
      <trkpt lat="43.99851" lon="6.50046">
        <ele>952</ele>
        <time>2021-07-25T15:04:01Z</time>
      </trkpt>
      <trkpt lat="43.99899" lon="6.50037">
        <ele>953</ele>
        <time>2021-07-25T15:04:09Z</time>
      </trkpt>
      <trkpt lat="43.99948" lon="6.50032">
        <ele>955</ele>
        <time>2021-07-25T15:04:18Z</time>
      </trkpt>
      <trkpt lat="43.9998" lon="6.50033">
        <ele>957</ele>
        <time>2021-07-25T15:04:24Z</time>
      </trkpt>
      <trkpt lat="44.00044" lon="6.50053">
        <ele>960</ele>
        <time>2021-07-25T15:04:36Z</time>
      </trkpt>
      <trkpt lat="44.00106" lon="6.50109">
        <ele>959</ele>
        <time>2021-07-25T15:04:49Z</time>
      </trkpt>
      <trkpt lat="44.00127" lon="6.50126">
        <ele>962</ele>
        <time>2021-07-25T15:04:53Z</time>
      </trkpt>
      <trkpt lat="44.00155" lon="6.50138">
        <ele>963</ele>
        <time>2021-07-25T15:04:58Z</time>
      </trkpt>
      <trkpt lat="44.00186" lon="6.50141">
        <ele>965</ele>
        <time>2021-07-25T15:05:04Z</time>
      </trkpt>
      <trkpt lat="44.00223" lon="6.50139">
        <ele>969</ele>
        <time>2021-07-25T15:05:10Z</time>
      </trkpt>
      <trkpt lat="44.00295" lon="6.50119">
        <ele>969</ele>
        <time>2021-07-25T15:05:23Z</time>
      </trkpt>
      <trkpt lat="44.00442" lon="6.50083">
        <ele>959</ele>
        <time>2021-07-25T15:05:50Z</time>
      </trkpt>
      <trkpt lat="44.00466" lon="6.50084">
        <ele>960</ele>
        <time>2021-07-25T15:05:54Z</time>
      </trkpt>
      <trkpt lat="44.0049" lon="6.5009">
        <ele>963</ele>
        <time>2021-07-25T15:05:59Z</time>
      </trkpt>
      <trkpt lat="44.0051" lon="6.501">
        <ele>967</ele>
        <time>2021-07-25T15:06:02Z</time>
      </trkpt>
      <trkpt lat="44.00537" lon="6.50109">
        <ele>971</ele>
        <time>2021-07-25T15:06:07Z</time>
      </trkpt>
      <trkpt lat="44.00551" lon="6.5011">
        <ele>972</ele>
        <time>2021-07-25T15:06:10Z</time>
      </trkpt>
      <trkpt lat="44.00574" lon="6.50102">
        <ele>970</ele>
        <time>2021-07-25T15:06:14Z</time>
      </trkpt>
      <trkpt lat="44.00605" lon="6.50082">
        <ele>971</ele>
        <time>2021-07-25T15:06:20Z</time>
      </trkpt>
      <trkpt lat="44.00631" lon="6.5006">
        <ele>979</ele>
        <time>2021-07-25T15:06:26Z</time>
      </trkpt>
      <trkpt lat="44.00643" lon="6.50046">
        <ele>981</ele>
        <time>2021-07-25T15:06:28Z</time>
      </trkpt>
      <trkpt lat="44.00651" lon="6.50029">
        <ele>979</ele>
        <time>2021-07-25T15:06:31Z</time>
      </trkpt>
      <trkpt lat="44.00658" lon="6.50005">
        <ele>975</ele>
        <time>2021-07-25T15:06:34Z</time>
      </trkpt>
      <trkpt lat="44.00662" lon="6.49977">
        <ele>973</ele>
        <time>2021-07-25T15:06:38Z</time>
      </trkpt>
      <trkpt lat="44.00674" lon="6.49878">
        <ele>971</ele>
        <time>2021-07-25T15:06:51Z</time>
      </trkpt>
      <trkpt lat="44.00684" lon="6.49834">
        <ele>974</ele>
        <time>2021-07-25T15:06:57Z</time>
      </trkpt>
      <trkpt lat="44.00705" lon="6.4977">
        <ele>974</ele>
        <time>2021-07-25T15:07:06Z</time>
      </trkpt>
      <trkpt lat="44.00747" lon="6.4969">
        <ele>970</ele>
        <time>2021-07-25T15:07:18Z</time>
      </trkpt>
      <trkpt lat="44.00758" lon="6.49675">
        <ele>968</ele>
        <time>2021-07-25T15:07:21Z</time>
      </trkpt>
      <trkpt lat="44.00774" lon="6.49665">
        <ele>966</ele>
        <time>2021-07-25T15:07:24Z</time>
      </trkpt>
      <trkpt lat="44.00791" lon="6.49665">
        <ele>967</ele>
        <time>2021-07-25T15:07:27Z</time>
      </trkpt>
      <trkpt lat="44.00838" lon="6.49685">
        <ele>972</ele>
        <time>2021-07-25T15:07:36Z</time>
      </trkpt>
      <trkpt lat="44.00863" lon="6.4969">
        <ele>973</ele>
        <time>2021-07-25T15:07:40Z</time>
      </trkpt>
      <trkpt lat="44.00876" lon="6.49691">
        <ele>973</ele>
        <time>2021-07-25T15:07:43Z</time>
      </trkpt>
      <trkpt lat="44.00893" lon="6.49691">
        <ele>972</ele>
        <time>2021-07-25T15:07:46Z</time>
      </trkpt>
      <trkpt lat="44.00931" lon="6.49685">
        <ele>971</ele>
        <time>2021-07-25T15:07:53Z</time>
      </trkpt>
      <trkpt lat="44.00954" lon="6.4969">
        <ele>973</ele>
        <time>2021-07-25T15:07:57Z</time>
      </trkpt>
      <trkpt lat="44.00989" lon="6.49692">
        <ele>974</ele>
        <time>2021-07-25T15:08:03Z</time>
      </trkpt>
      <trkpt lat="44.01019" lon="6.49688">
        <ele>976</ele>
        <time>2021-07-25T15:08:08Z</time>
      </trkpt>
      <trkpt lat="44.0111" lon="6.49659">
        <ele>976</ele>
        <time>2021-07-25T15:08:25Z</time>
      </trkpt>
      <trkpt lat="44.01182" lon="6.49662">
        <ele>980</ele>
        <time>2021-07-25T15:08:38Z</time>
      </trkpt>
      <trkpt lat="44.01248" lon="6.49663">
        <ele>982</ele>
        <time>2021-07-25T15:08:49Z</time>
      </trkpt>
      <trkpt lat="44.01277" lon="6.49672">
        <ele>981</ele>
        <time>2021-07-25T15:08:55Z</time>
      </trkpt>
      <trkpt lat="44.01336" lon="6.49701">
        <ele>983</ele>
        <time>2021-07-25T15:09:06Z</time>
      </trkpt>
      <trkpt lat="44.01351" lon="6.49717">
        <ele>986</ele>
        <time>2021-07-25T15:09:09Z</time>
      </trkpt>
      <trkpt lat="44.01378" lon="6.49753">
        <ele>986</ele>
        <time>2021-07-25T15:09:16Z</time>
      </trkpt>
      <trkpt lat="44.01422" lon="6.49805">
        <ele>983</ele>
        <time>2021-07-25T15:09:26Z</time>
      </trkpt>
      <trkpt lat="44.01499" lon="6.49862">
        <ele>985</ele>
        <time>2021-07-25T15:09:42Z</time>
      </trkpt>
      <trkpt lat="44.01554" lon="6.49894">
        <ele>989</ele>
        <time>2021-07-25T15:09:52Z</time>
      </trkpt>
      <trkpt lat="44.01612" lon="6.49924">
        <ele>987</ele>
        <time>2021-07-25T15:10:03Z</time>
      </trkpt>
      <trkpt lat="44.01698" lon="6.49962">
        <ele>991</ele>
        <time>2021-07-25T15:10:19Z</time>
      </trkpt>
      <trkpt lat="44.01714" lon="6.49967">
        <ele>992</ele>
        <time>2021-07-25T15:10:22Z</time>
      </trkpt>
      <trkpt lat="44.01734" lon="6.49966">
        <ele>993</ele>
        <time>2021-07-25T15:10:26Z</time>
      </trkpt>
      <trkpt lat="44.01759" lon="6.49958">
        <ele>994</ele>
        <time>2021-07-25T15:10:30Z</time>
      </trkpt>
      <trkpt lat="44.01782" lon="6.49944">
        <ele>994</ele>
        <time>2021-07-25T15:10:35Z</time>
      </trkpt>
      <trkpt lat="44.01833" lon="6.49891">
        <ele>989</ele>
        <time>2021-07-25T15:10:46Z</time>
      </trkpt>
      <trkpt lat="44.01855" lon="6.49867">
        <ele>992</ele>
        <time>2021-07-25T15:10:51Z</time>
      </trkpt>
      <trkpt lat="44.01917" lon="6.49766">
        <ele>988</ele>
        <time>2021-07-25T15:11:08Z</time>
      </trkpt>
      <trkpt lat="44.01938" lon="6.49735">
        <ele>991</ele>
        <time>2021-07-25T15:11:14Z</time>
      </trkpt>
      <trkpt lat="44.02039" lon="6.49639">
        <ele>995</ele>
        <time>2021-07-25T15:11:35Z</time>
      </trkpt>
      <trkpt lat="44.02077" lon="6.49596">
        <ele>990</ele>
        <time>2021-07-25T15:11:44Z</time>
      </trkpt>
      <trkpt lat="44.02094" lon="6.49581">
        <ele>988</ele>
        <time>2021-07-25T15:11:48Z</time>
      </trkpt>
      <trkpt lat="44.02105" lon="6.49579">
        <ele>988</ele>
        <time>2021-07-25T15:11:50Z</time>
      </trkpt>
      <trkpt lat="44.02116" lon="6.4958">
        <ele>989</ele>
        <time>2021-07-25T15:11:52Z</time>
      </trkpt>
      <trkpt lat="44.02128" lon="6.49584">
        <ele>990</ele>
        <time>2021-07-25T15:11:54Z</time>
      </trkpt>
      <trkpt lat="44.0215" lon="6.49587">
        <ele>992</ele>
        <time>2021-07-25T15:11:58Z</time>
      </trkpt>
      <trkpt lat="44.02171" lon="6.49586">
        <ele>993</ele>
        <time>2021-07-25T15:12:02Z</time>
      </trkpt>
      <trkpt lat="44.02256" lon="6.4957">
        <ele>996</ele>
        <time>2021-07-25T15:12:17Z</time>
      </trkpt>
      <trkpt lat="44.02283" lon="6.49568">
        <ele>997</ele>
        <time>2021-07-25T15:12:22Z</time>
      </trkpt>
      <trkpt lat="44.02331" lon="6.49565">
        <ele>997</ele>
        <time>2021-07-25T15:12:30Z</time>
      </trkpt>
      <trkpt lat="44.02378" lon="6.49562">
        <ele>999</ele>
        <time>2021-07-25T15:12:39Z</time>
      </trkpt>
      <trkpt lat="44.02395" lon="6.49555">
        <ele>1000</ele>
        <time>2021-07-25T15:12:42Z</time>
      </trkpt>
      <trkpt lat="44.02407" lon="6.49547">
        <ele>999</ele>
        <time>2021-07-25T15:12:44Z</time>
      </trkpt>
      <trkpt lat="44.02415" lon="6.49539">
        <ele>999</ele>
        <time>2021-07-25T15:12:46Z</time>
      </trkpt>
      <trkpt lat="44.02425" lon="6.49522">
        <ele>1000</ele>
        <time>2021-07-25T15:12:49Z</time>
      </trkpt>
      <trkpt lat="44.02449" lon="6.49472">
        <ele>1004</ele>
        <time>2021-07-25T15:12:56Z</time>
      </trkpt>
      <trkpt lat="44.02518" lon="6.49317">
        <ele>1004</ele>
        <time>2021-07-25T15:13:20Z</time>
      </trkpt>
      <trkpt lat="44.02569" lon="6.49186">
        <ele>1004</ele>
        <time>2021-07-25T15:13:39Z</time>
      </trkpt>
      <trkpt lat="44.02576" lon="6.49175">
        <ele>1002</ele>
        <time>2021-07-25T15:13:41Z</time>
      </trkpt>
      <trkpt lat="44.0259" lon="6.49166">
        <ele>1002</ele>
        <time>2021-07-25T15:13:43Z</time>
      </trkpt>
      <trkpt lat="44.02622" lon="6.49152">
        <ele>1009</ele>
        <time>2021-07-25T15:13:49Z</time>
      </trkpt>
      <trkpt lat="44.02673" lon="6.49124">
        <ele>1012</ele>
        <time>2021-07-25T15:13:59Z</time>
      </trkpt>
      <trkpt lat="44.02694" lon="6.49103">
        <ele>1011</ele>
        <time>2021-07-25T15:14:04Z</time>
      </trkpt>
      <trkpt lat="44.02715" lon="6.49074">
        <ele>1008</ele>
        <time>2021-07-25T15:14:09Z</time>
      </trkpt>
      <trkpt lat="44.02726" lon="6.49054">
        <ele>1009</ele>
        <time>2021-07-25T15:14:12Z</time>
      </trkpt>
      <trkpt lat="44.02757" lon="6.48983">
        <ele>1004</ele>
        <time>2021-07-25T15:14:23Z</time>
      </trkpt>
      <trkpt lat="44.02773" lon="6.48953">
        <ele>1006</ele>
        <time>2021-07-25T15:14:28Z</time>
      </trkpt>
      <trkpt lat="44.02785" lon="6.48938">
        <ele>1007</ele>
        <time>2021-07-25T15:14:30Z</time>
      </trkpt>
      <trkpt lat="44.02798" lon="6.48929">
        <ele>1008</ele>
        <time>2021-07-25T15:14:33Z</time>
      </trkpt>
      <trkpt lat="44.02834" lon="6.48918">
        <ele>1009</ele>
        <time>2021-07-25T15:14:40Z</time>
      </trkpt>
      <trkpt lat="44.02862" lon="6.48905">
        <ele>1008</ele>
        <time>2021-07-25T15:14:45Z</time>
      </trkpt>
      <trkpt lat="44.02877" lon="6.48901">
        <ele>1008</ele>
        <time>2021-07-25T15:14:47Z</time>
      </trkpt>
      <trkpt lat="44.02885" lon="6.48901">
        <ele>1008</ele>
        <time>2021-07-25T15:14:49Z</time>
      </trkpt>
      <trkpt lat="44.02894" lon="6.48904">
        <ele>1008</ele>
        <time>2021-07-25T15:14:51Z</time>
      </trkpt>
      <trkpt lat="44.02905" lon="6.48911">
        <ele>1008</ele>
        <time>2021-07-25T15:14:53Z</time>
      </trkpt>
      <trkpt lat="44.02927" lon="6.48937">
        <ele>1018</ele>
        <time>2021-07-25T15:14:58Z</time>
      </trkpt>
      <trkpt lat="44.02944" lon="6.48951">
        <ele>1023</ele>
        <time>2021-07-25T15:15:01Z</time>
      </trkpt>
      <trkpt lat="44.02988" lon="6.48968">
        <ele>1024</ele>
        <time>2021-07-25T15:15:09Z</time>
      </trkpt>
      <trkpt lat="44.03035" lon="6.48973">
        <ele>1024</ele>
        <time>2021-07-25T15:15:18Z</time>
      </trkpt>
      <trkpt lat="44.03069" lon="6.48972">
        <ele>1024</ele>
        <time>2021-07-25T15:15:24Z</time>
      </trkpt>
      <trkpt lat="44.03096" lon="6.48966">
        <ele>1025</ele>
        <time>2021-07-25T15:15:29Z</time>
      </trkpt>
      <trkpt lat="44.03129" lon="6.48945">
        <ele>1024</ele>
        <time>2021-07-25T15:15:35Z</time>
      </trkpt>
      <trkpt lat="44.03146" lon="6.48924">
        <ele>1019</ele>
        <time>2021-07-25T15:15:39Z</time>
      </trkpt>
      <trkpt lat="44.03209" lon="6.4878">
        <ele>1019</ele>
        <time>2021-07-25T15:16:01Z</time>
      </trkpt>
      <trkpt lat="44.03223" lon="6.48759">
        <ele>1019</ele>
        <time>2021-07-25T15:16:05Z</time>
      </trkpt>
      <trkpt lat="44.03256" lon="6.48725">
        <ele>1020</ele>
        <time>2021-07-25T15:16:12Z</time>
      </trkpt>
      <trkpt lat="44.03344" lon="6.48648">
        <ele>1016</ele>
        <time>2021-07-25T15:16:30Z</time>
      </trkpt>
      <trkpt lat="44.03363" lon="6.4864">
        <ele>1018</ele>
        <time>2021-07-25T15:16:34Z</time>
      </trkpt>
      <trkpt lat="44.03404" lon="6.48637">
        <ele>1024</ele>
        <time>2021-07-25T15:16:41Z</time>
      </trkpt>
      <trkpt lat="44.03414" lon="6.48636">
        <ele>1026</ele>
        <time>2021-07-25T15:16:43Z</time>
      </trkpt>
      <trkpt lat="44.03425" lon="6.48636">
        <ele>1026</ele>
        <time>2021-07-25T15:16:45Z</time>
      </trkpt>
      <trkpt lat="44.03472" lon="6.48634">
        <ele>1024</ele>
        <time>2021-07-25T15:16:53Z</time>
      </trkpt>
      <trkpt lat="44.03543" lon="6.4864">
        <ele>1019</ele>
        <time>2021-07-25T15:17:06Z</time>
      </trkpt>
      <trkpt lat="44.03556" lon="6.48645">
        <ele>1018</ele>
        <time>2021-07-25T15:17:08Z</time>
      </trkpt>
      <trkpt lat="44.03568" lon="6.48655">
        <ele>1017</ele>
        <time>2021-07-25T15:17:11Z</time>
      </trkpt>
      <trkpt lat="44.03577" lon="6.48667">
        <ele>1016</ele>
        <time>2021-07-25T15:17:13Z</time>
      </trkpt>
      <trkpt lat="44.03604" lon="6.48713">
        <ele>1030</ele>
        <time>2021-07-25T15:17:21Z</time>
      </trkpt>
      <trkpt lat="44.03627" lon="6.48734">
        <ele>1030</ele>
        <time>2021-07-25T15:17:26Z</time>
      </trkpt>
      <trkpt lat="44.03641" lon="6.4874">
        <ele>1028</ele>
        <time>2021-07-25T15:17:28Z</time>
      </trkpt>
      <trkpt lat="44.03656" lon="6.48742">
        <ele>1023</ele>
        <time>2021-07-25T15:17:31Z</time>
      </trkpt>
      <trkpt lat="44.03702" lon="6.48732">
        <ele>1023</ele>
        <time>2021-07-25T15:17:39Z</time>
      </trkpt>
      <trkpt lat="44.03733" lon="6.4872">
        <ele>1024</ele>
        <time>2021-07-25T15:17:45Z</time>
      </trkpt>
      <trkpt lat="44.03749" lon="6.48711">
        <ele>1024</ele>
        <time>2021-07-25T15:17:48Z</time>
      </trkpt>
      <trkpt lat="44.03763" lon="6.48701">
        <ele>1024</ele>
        <time>2021-07-25T15:17:51Z</time>
      </trkpt>
      <trkpt lat="44.03817" lon="6.48657">
        <ele>1023</ele>
        <time>2021-07-25T15:18:02Z</time>
      </trkpt>
      <trkpt lat="44.03831" lon="6.48651">
        <ele>1023</ele>
        <time>2021-07-25T15:18:04Z</time>
      </trkpt>
      <trkpt lat="44.03845" lon="6.48648">
        <ele>1024</ele>
        <time>2021-07-25T15:18:07Z</time>
      </trkpt>
      <trkpt lat="44.03906" lon="6.48653">
        <ele>1031</ele>
        <time>2021-07-25T15:18:18Z</time>
      </trkpt>
      <trkpt lat="44.03938" lon="6.48652">
        <ele>1035</ele>
        <time>2021-07-25T15:18:24Z</time>
      </trkpt>
      <trkpt lat="44.03953" lon="6.48648">
        <ele>1035</ele>
        <time>2021-07-25T15:18:26Z</time>
      </trkpt>
      <trkpt lat="44.03967" lon="6.48641">
        <ele>1035</ele>
        <time>2021-07-25T15:18:29Z</time>
      </trkpt>
      <trkpt lat="44.0398" lon="6.48631">
        <ele>1034</ele>
        <time>2021-07-25T15:18:32Z</time>
      </trkpt>
      <trkpt lat="44.04006" lon="6.48607">
        <ele>1031</ele>
        <time>2021-07-25T15:18:37Z</time>
      </trkpt>
      <trkpt lat="44.04106" lon="6.48499">
        <ele>1026</ele>
        <time>2021-07-25T15:19:00Z</time>
      </trkpt>
      <trkpt lat="44.04118" lon="6.48491">
        <ele>1027</ele>
        <time>2021-07-25T15:19:02Z</time>
      </trkpt>
      <trkpt lat="44.04145" lon="6.48483">
        <ele>1029</ele>
        <time>2021-07-25T15:19:07Z</time>
      </trkpt>
      <trkpt lat="44.04202" lon="6.48473">
        <ele>1031</ele>
        <time>2021-07-25T15:19:17Z</time>
      </trkpt>
      <trkpt lat="44.04215" lon="6.48472">
        <ele>1032</ele>
        <time>2021-07-25T15:19:19Z</time>
      </trkpt>
      <trkpt lat="44.04227" lon="6.48474">
        <ele>1033</ele>
        <time>2021-07-25T15:19:22Z</time>
      </trkpt>
      <trkpt lat="44.04252" lon="6.48484">
        <ele>1036</ele>
        <time>2021-07-25T15:19:26Z</time>
      </trkpt>
      <trkpt lat="44.04264" lon="6.48487">
        <ele>1038</ele>
        <time>2021-07-25T15:19:28Z</time>
      </trkpt>
      <trkpt lat="44.04276" lon="6.48485">
        <ele>1038</ele>
        <time>2021-07-25T15:19:31Z</time>
      </trkpt>
      <trkpt lat="44.04288" lon="6.48478">
        <ele>1037</ele>
        <time>2021-07-25T15:19:33Z</time>
      </trkpt>
      <trkpt lat="44.04325" lon="6.48423">
        <ele>1026</ele>
        <time>2021-07-25T15:19:42Z</time>
      </trkpt>
      <trkpt lat="44.04361" lon="6.48387">
        <ele>1028</ele>
        <time>2021-07-25T15:19:50Z</time>
      </trkpt>
      <trkpt lat="44.04376" lon="6.48376">
        <ele>1028</ele>
        <time>2021-07-25T15:19:53Z</time>
      </trkpt>
      <trkpt lat="44.04396" lon="6.48377">
        <ele>1029</ele>
        <time>2021-07-25T15:19:57Z</time>
      </trkpt>
      <trkpt lat="44.04444" lon="6.48409">
        <ele>1036</ele>
        <time>2021-07-25T15:20:06Z</time>
      </trkpt>
      <trkpt lat="44.04468" lon="6.48416">
        <ele>1038</ele>
        <time>2021-07-25T15:20:11Z</time>
      </trkpt>
      <trkpt lat="44.0448" lon="6.48414">
        <ele>1038</ele>
        <time>2021-07-25T15:20:13Z</time>
      </trkpt>
      <trkpt lat="44.04491" lon="6.48407">
        <ele>1037</ele>
        <time>2021-07-25T15:20:15Z</time>
      </trkpt>
      <trkpt lat="44.045" lon="6.48395">
        <ele>1035</ele>
        <time>2021-07-25T15:20:17Z</time>
      </trkpt>
      <trkpt lat="44.04514" lon="6.48364">
        <ele>1033</ele>
        <time>2021-07-25T15:20:22Z</time>
      </trkpt>
      <trkpt lat="44.04523" lon="6.48349">
        <ele>1032</ele>
        <time>2021-07-25T15:20:24Z</time>
      </trkpt>
      <trkpt lat="44.04552" lon="6.48306">
        <ele>1034</ele>
        <time>2021-07-25T15:20:32Z</time>
      </trkpt>
      <trkpt lat="44.04563" lon="6.48294">
        <ele>1034</ele>
        <time>2021-07-25T15:20:35Z</time>
      </trkpt>
      <trkpt lat="44.04576" lon="6.48287">
        <ele>1035</ele>
        <time>2021-07-25T15:20:37Z</time>
      </trkpt>
      <trkpt lat="44.0459" lon="6.48285">
        <ele>1036</ele>
        <time>2021-07-25T15:20:39Z</time>
      </trkpt>
      <trkpt lat="44.0462" lon="6.48285">
        <ele>1041</ele>
        <time>2021-07-25T15:20:45Z</time>
      </trkpt>
      <trkpt lat="44.04636" lon="6.48282">
        <ele>1043</ele>
        <time>2021-07-25T15:20:48Z</time>
      </trkpt>
      <trkpt lat="44.04651" lon="6.48275">
        <ele>1043</ele>
        <time>2021-07-25T15:20:51Z</time>
      </trkpt>
      <trkpt lat="44.04665" lon="6.48264">
        <ele>1040</ele>
        <time>2021-07-25T15:20:53Z</time>
      </trkpt>
      <trkpt lat="44.04704" lon="6.48222">
        <ele>1041</ele>
        <time>2021-07-25T15:21:02Z</time>
      </trkpt>
      <trkpt lat="44.04718" lon="6.4821">
        <ele>1041</ele>
        <time>2021-07-25T15:21:05Z</time>
      </trkpt>
      <trkpt lat="44.04733" lon="6.48202">
        <ele>1041</ele>
        <time>2021-07-25T15:21:08Z</time>
      </trkpt>
      <trkpt lat="44.04764" lon="6.48193">
        <ele>1041</ele>
        <time>2021-07-25T15:21:14Z</time>
      </trkpt>
      <trkpt lat="44.0484" lon="6.48178">
        <ele>1041</ele>
        <time>2021-07-25T15:21:27Z</time>
      </trkpt>
      <trkpt lat="44.05009" lon="6.4817">
        <ele>1042</ele>
        <time>2021-07-25T15:21:57Z</time>
      </trkpt>
      <trkpt lat="44.05022" lon="6.48177">
        <ele>1044</ele>
        <time>2021-07-25T15:22:00Z</time>
      </trkpt>
      <trkpt lat="44.05034" lon="6.48187">
        <ele>1047</ele>
        <time>2021-07-25T15:22:02Z</time>
      </trkpt>
      <trkpt lat="44.05058" lon="6.48211">
        <ele>1051</ele>
        <time>2021-07-25T15:22:08Z</time>
      </trkpt>
      <trkpt lat="44.05073" lon="6.48223">
        <ele>1051</ele>
        <time>2021-07-25T15:22:11Z</time>
      </trkpt>
      <trkpt lat="44.05104" lon="6.48244">
        <ele>1050</ele>
        <time>2021-07-25T15:22:17Z</time>
      </trkpt>
      <trkpt lat="44.05205" lon="6.483">
        <ele>1059</ele>
        <time>2021-07-25T15:22:36Z</time>
      </trkpt>
      <trkpt lat="44.05221" lon="6.48307">
        <ele>1060</ele>
        <time>2021-07-25T15:22:39Z</time>
      </trkpt>
      <trkpt lat="44.05254" lon="6.48315">
        <ele>1059</ele>
        <time>2021-07-25T15:22:45Z</time>
      </trkpt>
      <trkpt lat="44.05284" lon="6.48315">
        <ele>1060</ele>
        <time>2021-07-25T15:22:50Z</time>
      </trkpt>
      <trkpt lat="44.05299" lon="6.48311">
        <ele>1060</ele>
        <time>2021-07-25T15:22:53Z</time>
      </trkpt>
      <trkpt lat="44.05328" lon="6.48298">
        <ele>1057</ele>
        <time>2021-07-25T15:22:59Z</time>
      </trkpt>
      <trkpt lat="44.054" lon="6.48255">
        <ele>1051</ele>
        <time>2021-07-25T15:23:12Z</time>
      </trkpt>
      <trkpt lat="44.05428" lon="6.48245">
        <ele>1051</ele>
        <time>2021-07-25T15:23:18Z</time>
      </trkpt>
      <trkpt lat="44.05457" lon="6.48243">
        <ele>1051</ele>
        <time>2021-07-25T15:23:23Z</time>
      </trkpt>
      <trkpt lat="44.05485" lon="6.48245">
        <ele>1051</ele>
        <time>2021-07-25T15:23:28Z</time>
      </trkpt>
      <trkpt lat="44.05511" lon="6.48257">
        <ele>1052</ele>
        <time>2021-07-25T15:23:33Z</time>
      </trkpt>
      <trkpt lat="44.05568" lon="6.48307">
        <ele>1064</ele>
        <time>2021-07-25T15:23:45Z</time>
      </trkpt>
      <trkpt lat="44.0559" lon="6.48315">
        <ele>1064</ele>
        <time>2021-07-25T15:23:49Z</time>
      </trkpt>
      <trkpt lat="44.05622" lon="6.48318">
        <ele>1062</ele>
        <time>2021-07-25T15:23:54Z</time>
      </trkpt>
      <trkpt lat="44.05655" lon="6.48313">
        <ele>1059</ele>
        <time>2021-07-25T15:24:00Z</time>
      </trkpt>
      <trkpt lat="44.05689" lon="6.48301">
        <ele>1058</ele>
        <time>2021-07-25T15:24:07Z</time>
      </trkpt>
      <trkpt lat="44.05723" lon="6.48284">
        <ele>1057</ele>
        <time>2021-07-25T15:24:13Z</time>
      </trkpt>
      <trkpt lat="44.05789" lon="6.48243">
        <ele>1051</ele>
        <time>2021-07-25T15:24:26Z</time>
      </trkpt>
      <trkpt lat="44.05805" lon="6.48236">
        <ele>1052</ele>
        <time>2021-07-25T15:24:29Z</time>
      </trkpt>
      <trkpt lat="44.05854" lon="6.48224">
        <ele>1056</ele>
        <time>2021-07-25T15:24:38Z</time>
      </trkpt>
      <trkpt lat="44.05918" lon="6.48193">
        <ele>1055</ele>
        <time>2021-07-25T15:24:50Z</time>
      </trkpt>
      <trkpt lat="44.05934" lon="6.48189">
        <ele>1055</ele>
        <time>2021-07-25T15:24:53Z</time>
      </trkpt>
      <trkpt lat="44.05987" lon="6.48188">
        <ele>1058</ele>
        <time>2021-07-25T15:25:02Z</time>
      </trkpt>
      <trkpt lat="44.06005" lon="6.48184">
        <ele>1058</ele>
        <time>2021-07-25T15:25:05Z</time>
      </trkpt>
      <trkpt lat="44.06023" lon="6.48176">
        <ele>1057</ele>
        <time>2021-07-25T15:25:09Z</time>
      </trkpt>
      <trkpt lat="44.06074" lon="6.4815">
        <ele>1057</ele>
        <time>2021-07-25T15:25:18Z</time>
      </trkpt>
      <trkpt lat="44.06091" lon="6.48144">
        <ele>1058</ele>
        <time>2021-07-25T15:25:21Z</time>
      </trkpt>
      <trkpt lat="44.0616" lon="6.48131">
        <ele>1059</ele>
        <time>2021-07-25T15:25:34Z</time>
      </trkpt>
      <trkpt lat="44.06212" lon="6.48133">
        <ele>1061</ele>
        <time>2021-07-25T15:25:43Z</time>
      </trkpt>
      <trkpt lat="44.06248" lon="6.4813">
        <ele>1061</ele>
        <time>2021-07-25T15:25:49Z</time>
      </trkpt>
      <trkpt lat="44.06365" lon="6.48095">
        <ele>1060</ele>
        <time>2021-07-25T15:26:11Z</time>
      </trkpt>
      <trkpt lat="44.06437" lon="6.48079">
        <ele>1058</ele>
        <time>2021-07-25T15:26:24Z</time>
      </trkpt>
      <trkpt lat="44.06491" lon="6.48077">
        <ele>1058</ele>
        <time>2021-07-25T15:26:33Z</time>
      </trkpt>
      <trkpt lat="44.0664" lon="6.48083">
        <ele>1059</ele>
        <time>2021-07-25T15:27:00Z</time>
      </trkpt>
      <trkpt lat="44.0669" lon="6.48087">
        <ele>1059</ele>
        <time>2021-07-25T15:27:09Z</time>
      </trkpt>
      <trkpt lat="44.0672" lon="6.48094">
        <ele>1062</ele>
        <time>2021-07-25T15:27:14Z</time>
      </trkpt>
      <trkpt lat="44.06749" lon="6.48103">
        <ele>1064</ele>
        <time>2021-07-25T15:27:19Z</time>
      </trkpt>
      <trkpt lat="44.06777" lon="6.48115">
        <ele>1065</ele>
        <time>2021-07-25T15:27:25Z</time>
      </trkpt>
      <trkpt lat="44.06805" lon="6.48133">
        <ele>1067</ele>
        <time>2021-07-25T15:27:30Z</time>
      </trkpt>
      <trkpt lat="44.06847" lon="6.48162">
        <ele>1068</ele>
        <time>2021-07-25T15:27:39Z</time>
      </trkpt>
      <trkpt lat="44.06922" lon="6.48223">
        <ele>1077</ele>
        <time>2021-07-25T15:27:54Z</time>
      </trkpt>
      <trkpt lat="44.06961" lon="6.48258">
        <ele>1079</ele>
        <time>2021-07-25T15:28:02Z</time>
      </trkpt>
      <trkpt lat="44.06979" lon="6.4827">
        <ele>1079</ele>
        <time>2021-07-25T15:28:06Z</time>
      </trkpt>
      <trkpt lat="44.06988" lon="6.4827">
        <ele>1077</ele>
        <time>2021-07-25T15:28:07Z</time>
      </trkpt>
      <trkpt lat="44.06991" lon="6.48268">
        <ele>1075</ele>
        <time>2021-07-25T15:28:08Z</time>
      </trkpt>
      <trkpt lat="44.07015" lon="6.48249">
        <ele>1068</ele>
        <time>2021-07-25T15:28:13Z</time>
      </trkpt>
      <trkpt lat="44.07049" lon="6.48222">
        <ele>1066</ele>
        <time>2021-07-25T15:28:20Z</time>
      </trkpt>
      <trkpt lat="44.07159" lon="6.48109">
        <ele>1063</ele>
        <time>2021-07-25T15:28:44Z</time>
      </trkpt>
      <trkpt lat="44.07361" lon="6.47884">
        <ele>1068</ele>
        <time>2021-07-25T15:29:30Z</time>
      </trkpt>
      <trkpt lat="44.07396" lon="6.47855">
        <ele>1073</ele>
        <time>2021-07-25T15:29:37Z</time>
      </trkpt>
      <trkpt lat="44.07404" lon="6.47855">
        <ele>1073</ele>
        <time>2021-07-25T15:29:39Z</time>
      </trkpt>
      <trkpt lat="44.07545" lon="6.47959">
        <ele>1078</ele>
        <time>2021-07-25T15:30:07Z</time>
      </trkpt>
      <trkpt lat="44.07586" lon="6.47984">
        <ele>1078</ele>
        <time>2021-07-25T15:30:15Z</time>
      </trkpt>
      <trkpt lat="44.07609" lon="6.47986">
        <ele>1077</ele>
        <time>2021-07-25T15:30:19Z</time>
      </trkpt>
      <trkpt lat="44.07628" lon="6.47986">
        <ele>1076</ele>
        <time>2021-07-25T15:30:23Z</time>
      </trkpt>
      <trkpt lat="44.07637" lon="6.47983">
        <ele>1077</ele>
        <time>2021-07-25T15:30:24Z</time>
      </trkpt>
      <trkpt lat="44.0767" lon="6.4796">
        <ele>1078</ele>
        <time>2021-07-25T15:30:31Z</time>
      </trkpt>
      <trkpt lat="44.07679" lon="6.47958">
        <ele>1079</ele>
        <time>2021-07-25T15:30:33Z</time>
      </trkpt>
      <trkpt lat="44.07795" lon="6.47976">
        <ele>1081</ele>
        <time>2021-07-25T15:30:53Z</time>
      </trkpt>
      <trkpt lat="44.07825" lon="6.47977">
        <ele>1083</ele>
        <time>2021-07-25T15:30:59Z</time>
      </trkpt>
      <trkpt lat="44.07881" lon="6.47969">
        <ele>1086</ele>
        <time>2021-07-25T15:31:09Z</time>
      </trkpt>
      <trkpt lat="44.07938" lon="6.47972">
        <ele>1087</ele>
        <time>2021-07-25T15:31:19Z</time>
      </trkpt>
      <trkpt lat="44.07954" lon="6.47969">
        <ele>1088</ele>
        <time>2021-07-25T15:31:22Z</time>
      </trkpt>
      <trkpt lat="44.08084" lon="6.47918">
        <ele>1092</ele>
        <time>2021-07-25T15:31:46Z</time>
      </trkpt>
      <trkpt lat="44.08126" lon="6.47914">
        <ele>1091</ele>
        <time>2021-07-25T15:31:53Z</time>
      </trkpt>
      <trkpt lat="44.08215" lon="6.47889">
        <ele>1094</ele>
        <time>2021-07-25T15:32:09Z</time>
      </trkpt>
      <trkpt lat="44.0823" lon="6.47887">
        <ele>1094</ele>
        <time>2021-07-25T15:32:12Z</time>
      </trkpt>
      <trkpt lat="44.08256" lon="6.47889">
        <ele>1094</ele>
        <time>2021-07-25T15:32:17Z</time>
      </trkpt>
      <trkpt lat="44.08387" lon="6.47934">
        <ele>1095</ele>
        <time>2021-07-25T15:32:41Z</time>
      </trkpt>
      <trkpt lat="44.08412" lon="6.47943">
        <ele>1095</ele>
        <time>2021-07-25T15:32:45Z</time>
      </trkpt>
      <trkpt lat="44.08446" lon="6.47953">
        <ele>1095</ele>
        <time>2021-07-25T15:32:51Z</time>
      </trkpt>
      <trkpt lat="44.08457" lon="6.47954">
        <ele>1095</ele>
        <time>2021-07-25T15:32:53Z</time>
      </trkpt>
      <trkpt lat="44.08491" lon="6.4795">
        <ele>1095</ele>
        <time>2021-07-25T15:33:00Z</time>
      </trkpt>
      <trkpt lat="44.08521" lon="6.47937">
        <ele>1096</ele>
        <time>2021-07-25T15:33:05Z</time>
      </trkpt>
      <trkpt lat="44.08531" lon="6.47935">
        <ele>1096</ele>
        <time>2021-07-25T15:33:07Z</time>
      </trkpt>
      <trkpt lat="44.08553" lon="6.47938">
        <ele>1097</ele>
        <time>2021-07-25T15:33:11Z</time>
      </trkpt>
      <trkpt lat="44.08573" lon="6.47948">
        <ele>1097</ele>
        <time>2021-07-25T15:33:15Z</time>
      </trkpt>
      <trkpt lat="44.08582" lon="6.47954">
        <ele>1098</ele>
        <time>2021-07-25T15:33:16Z</time>
      </trkpt>
      <trkpt lat="44.0859" lon="6.47962">
        <ele>1098</ele>
        <time>2021-07-25T15:33:18Z</time>
      </trkpt>
      <trkpt lat="44.08596" lon="6.47972">
        <ele>1098</ele>
        <time>2021-07-25T15:33:20Z</time>
      </trkpt>
      <trkpt lat="44.086" lon="6.47985">
        <ele>1098</ele>
        <time>2021-07-25T15:33:22Z</time>
      </trkpt>
      <trkpt lat="44.08608" lon="6.48027">
        <ele>1097</ele>
        <time>2021-07-25T15:33:27Z</time>
      </trkpt>
      <trkpt lat="44.08613" lon="6.48075">
        <ele>1096</ele>
        <time>2021-07-25T15:33:33Z</time>
      </trkpt>
      <trkpt lat="44.08629" lon="6.48257">
        <ele>1096</ele>
        <time>2021-07-25T15:33:57Z</time>
      </trkpt>
      <trkpt lat="44.08627" lon="6.48294">
        <ele>1096</ele>
        <time>2021-07-25T15:34:02Z</time>
      </trkpt>
      <trkpt lat="44.08624" lon="6.48336">
        <ele>1096</ele>
        <time>2021-07-25T15:34:07Z</time>
      </trkpt>
      <trkpt lat="44.0862" lon="6.4838">
        <ele>1097</ele>
        <time>2021-07-25T15:34:13Z</time>
      </trkpt>
      <trkpt lat="44.08597" lon="6.48474">
        <ele>1100</ele>
        <time>2021-07-25T15:34:25Z</time>
      </trkpt>
      <trkpt lat="44.08568" lon="6.48629">
        <ele>1099</ele>
        <time>2021-07-25T15:34:46Z</time>
      </trkpt>
      <trkpt lat="44.08556" lon="6.48709">
        <ele>1101</ele>
        <time>2021-07-25T15:34:56Z</time>
      </trkpt>
      <trkpt lat="44.08555" lon="6.48728">
        <ele>1101</ele>
        <time>2021-07-25T15:34:59Z</time>
      </trkpt>
      <trkpt lat="44.08556" lon="6.48746">
        <ele>1102</ele>
        <time>2021-07-25T15:35:01Z</time>
      </trkpt>
      <trkpt lat="44.08561" lon="6.48781">
        <ele>1103</ele>
        <time>2021-07-25T15:35:06Z</time>
      </trkpt>
      <trkpt lat="44.08571" lon="6.48815">
        <ele>1105</ele>
        <time>2021-07-25T15:35:10Z</time>
      </trkpt>
      <trkpt lat="44.08652" lon="6.49">
        <ele>1108</ele>
        <time>2021-07-25T15:35:38Z</time>
      </trkpt>
      <trkpt lat="44.08657" lon="6.49017">
        <ele>1107</ele>
        <time>2021-07-25T15:35:40Z</time>
      </trkpt>
      <trkpt lat="44.08666" lon="6.49068">
        <ele>1106</ele>
        <time>2021-07-25T15:35:47Z</time>
      </trkpt>
      <trkpt lat="44.08676" lon="6.49094">
        <ele>1105</ele>
        <time>2021-07-25T15:35:51Z</time>
      </trkpt>
    </trkseg>
  </trk>
</gpx>